<?xml version="1.0" encoding="UTF-8" standalone="no" ?>
<gpx xmlns="http://www.topografix.com/GPX/1/1" xmlns:xsi="http://www.w3.org/2001/XMLSchema-instance" xsi:schemaLocation="http://www.topografix.com/GPX/1/1 http://www.topografix.com/GPX/1/1/gpx.xsd" version="1.1" creator="VisuGPX - https://www.visugpx.com">
  <metadata>
    <name>Vtt ZunGroupe </name>
  </metadata>
  <trk>
    <name><![CDATA[Vtt ZunGroupe _1]]></name>
    <trkseg>
      <trkpt lat="43.95332" lon="1.86861">
        <ele>274.2</ele>
        <time>2021-09-26T06:37:20Z</time>
      </trkpt>
      <trkpt lat="43.95332" lon="1.86861">
        <ele>279</ele>
        <time>2021-09-26T06:37:21Z</time>
      </trkpt>
      <trkpt lat="43.95334" lon="1.86868">
        <ele>281.2</ele>
        <time>2021-09-26T06:37:30Z</time>
      </trkpt>
      <trkpt lat="43.95335" lon="1.8687">
        <ele>281.4</ele>
        <time>2021-09-26T06:37:31Z</time>
      </trkpt>
      <trkpt lat="43.95336" lon="1.86871">
        <ele>281.4</ele>
        <time>2021-09-26T06:37:32Z</time>
      </trkpt>
      <trkpt lat="43.95337" lon="1.86872">
        <ele>281.4</ele>
        <time>2021-09-26T06:37:33Z</time>
      </trkpt>
      <trkpt lat="43.95339" lon="1.86871">
        <ele>281.4</ele>
        <time>2021-09-26T06:37:34Z</time>
      </trkpt>
      <trkpt lat="43.95339" lon="1.8687">
        <ele>281.4</ele>
        <time>2021-09-26T06:37:35Z</time>
      </trkpt>
      <trkpt lat="43.9534" lon="1.86869">
        <ele>281.4</ele>
        <time>2021-09-26T06:37:36Z</time>
      </trkpt>
      <trkpt lat="43.95342" lon="1.86867">
        <ele>281.4</ele>
        <time>2021-09-26T06:37:37Z</time>
      </trkpt>
      <trkpt lat="43.95343" lon="1.86865">
        <ele>281.4</ele>
        <time>2021-09-26T06:37:38Z</time>
      </trkpt>
      <trkpt lat="43.95344" lon="1.86865">
        <ele>281.6</ele>
        <time>2021-09-26T06:37:39Z</time>
      </trkpt>
      <trkpt lat="43.95346" lon="1.86865">
        <ele>281.6</ele>
        <time>2021-09-26T06:37:40Z</time>
      </trkpt>
      <trkpt lat="43.95349" lon="1.86865">
        <ele>281.6</ele>
        <time>2021-09-26T06:37:41Z</time>
      </trkpt>
      <trkpt lat="43.95351" lon="1.86866">
        <ele>281.4</ele>
        <time>2021-09-26T06:37:42Z</time>
      </trkpt>
      <trkpt lat="43.95353" lon="1.86867">
        <ele>281.6</ele>
        <time>2021-09-26T06:37:43Z</time>
      </trkpt>
      <trkpt lat="43.95355" lon="1.86869">
        <ele>281.6</ele>
        <time>2021-09-26T06:37:44Z</time>
      </trkpt>
      <trkpt lat="43.95356" lon="1.86871">
        <ele>281.6</ele>
        <time>2021-09-26T06:37:45Z</time>
      </trkpt>
      <trkpt lat="43.95358" lon="1.86874">
        <ele>281.6</ele>
        <time>2021-09-26T06:37:46Z</time>
      </trkpt>
      <trkpt lat="43.95358" lon="1.86876">
        <ele>281.6</ele>
        <time>2021-09-26T06:37:47Z</time>
      </trkpt>
      <trkpt lat="43.95358" lon="1.86879">
        <ele>281.6</ele>
        <time>2021-09-26T06:37:48Z</time>
      </trkpt>
      <trkpt lat="43.95357" lon="1.86882">
        <ele>281.8</ele>
        <time>2021-09-26T06:37:49Z</time>
      </trkpt>
      <trkpt lat="43.95355" lon="1.86885">
        <ele>281.8</ele>
        <time>2021-09-26T06:37:50Z</time>
      </trkpt>
      <trkpt lat="43.95354" lon="1.86887">
        <ele>282</ele>
        <time>2021-09-26T06:37:51Z</time>
      </trkpt>
      <trkpt lat="43.95351" lon="1.8689">
        <ele>282</ele>
        <time>2021-09-26T06:37:52Z</time>
      </trkpt>
      <trkpt lat="43.9535" lon="1.86894">
        <ele>282</ele>
        <time>2021-09-26T06:37:53Z</time>
      </trkpt>
      <trkpt lat="43.95345" lon="1.86902">
        <ele>282.4</ele>
        <time>2021-09-26T06:37:56Z</time>
      </trkpt>
      <trkpt lat="43.95344" lon="1.86905">
        <ele>282.6</ele>
        <time>2021-09-26T06:37:57Z</time>
      </trkpt>
      <trkpt lat="43.95338" lon="1.86918">
        <ele>282.6</ele>
        <time>2021-09-26T06:38:02Z</time>
      </trkpt>
      <trkpt lat="43.95337" lon="1.86921">
        <ele>282.6</ele>
        <time>2021-09-26T06:38:03Z</time>
      </trkpt>
      <trkpt lat="43.95338" lon="1.86923">
        <ele>282.8</ele>
        <time>2021-09-26T06:38:04Z</time>
      </trkpt>
      <trkpt lat="43.95339" lon="1.86925">
        <ele>282.8</ele>
        <time>2021-09-26T06:38:05Z</time>
      </trkpt>
      <trkpt lat="43.9534" lon="1.86927">
        <ele>282.8</ele>
        <time>2021-09-26T06:38:06Z</time>
      </trkpt>
      <trkpt lat="43.95341" lon="1.86928">
        <ele>282.8</ele>
        <time>2021-09-26T06:38:07Z</time>
      </trkpt>
      <trkpt lat="43.95342" lon="1.8693">
        <ele>282.8</ele>
        <time>2021-09-26T06:38:08Z</time>
      </trkpt>
      <trkpt lat="43.95343" lon="1.86931">
        <ele>282.8</ele>
        <time>2021-09-26T06:38:09Z</time>
      </trkpt>
      <trkpt lat="43.95344" lon="1.86933">
        <ele>282.8</ele>
        <time>2021-09-26T06:38:10Z</time>
      </trkpt>
      <trkpt lat="43.95344" lon="1.86935">
        <ele>282.8</ele>
        <time>2021-09-26T06:38:11Z</time>
      </trkpt>
      <trkpt lat="43.95344" lon="1.86936">
        <ele>283</ele>
        <time>2021-09-26T06:38:12Z</time>
      </trkpt>
      <trkpt lat="43.95344" lon="1.86937">
        <ele>283</ele>
        <time>2021-09-26T06:38:13Z</time>
      </trkpt>
      <trkpt lat="43.95344" lon="1.86937">
        <ele>283.2</ele>
        <time>2021-09-26T06:38:14Z</time>
      </trkpt>
      <trkpt lat="43.95344" lon="1.86937">
        <ele>283.2</ele>
        <time>2021-09-26T06:38:15Z</time>
      </trkpt>
      <trkpt lat="43.95341" lon="1.86943">
        <ele>282.8</ele>
        <time>2021-09-26T06:39:35Z</time>
      </trkpt>
      <trkpt lat="43.95342" lon="1.86946">
        <ele>282.8</ele>
        <time>2021-09-26T06:39:36Z</time>
      </trkpt>
      <trkpt lat="43.95343" lon="1.86948">
        <ele>282.8</ele>
        <time>2021-09-26T06:39:37Z</time>
      </trkpt>
      <trkpt lat="43.95344" lon="1.86949">
        <ele>282.8</ele>
        <time>2021-09-26T06:39:38Z</time>
      </trkpt>
      <trkpt lat="43.95347" lon="1.86952">
        <ele>283</ele>
        <time>2021-09-26T06:39:40Z</time>
      </trkpt>
      <trkpt lat="43.95349" lon="1.86954">
        <ele>283</ele>
        <time>2021-09-26T06:39:41Z</time>
      </trkpt>
      <trkpt lat="43.95351" lon="1.86956">
        <ele>283</ele>
        <time>2021-09-26T06:39:42Z</time>
      </trkpt>
      <trkpt lat="43.9536" lon="1.86964">
        <ele>283.2</ele>
        <time>2021-09-26T06:39:46Z</time>
      </trkpt>
      <trkpt lat="43.95362" lon="1.86966">
        <ele>283.2</ele>
        <time>2021-09-26T06:39:47Z</time>
      </trkpt>
      <trkpt lat="43.95366" lon="1.86971">
        <ele>283.4</ele>
        <time>2021-09-26T06:39:49Z</time>
      </trkpt>
      <trkpt lat="43.9539" lon="1.86994">
        <ele>284</ele>
        <time>2021-09-26T06:39:58Z</time>
      </trkpt>
      <trkpt lat="43.95398" lon="1.87001">
        <ele>284</ele>
        <time>2021-09-26T06:40:01Z</time>
      </trkpt>
      <trkpt lat="43.95408" lon="1.87011">
        <ele>284.4</ele>
        <time>2021-09-26T06:40:05Z</time>
      </trkpt>
      <trkpt lat="43.95411" lon="1.87014">
        <ele>284.4</ele>
        <time>2021-09-26T06:40:06Z</time>
      </trkpt>
      <trkpt lat="43.95413" lon="1.87016">
        <ele>284.4</ele>
        <time>2021-09-26T06:40:07Z</time>
      </trkpt>
      <trkpt lat="43.95416" lon="1.87019">
        <ele>284.6</ele>
        <time>2021-09-26T06:40:08Z</time>
      </trkpt>
      <trkpt lat="43.95418" lon="1.87022">
        <ele>284.6</ele>
        <time>2021-09-26T06:40:09Z</time>
      </trkpt>
      <trkpt lat="43.9542" lon="1.87024">
        <ele>284.6</ele>
        <time>2021-09-26T06:40:10Z</time>
      </trkpt>
      <trkpt lat="43.95423" lon="1.87024">
        <ele>284.8</ele>
        <time>2021-09-26T06:40:11Z</time>
      </trkpt>
      <trkpt lat="43.95425" lon="1.87023">
        <ele>284.8</ele>
        <time>2021-09-26T06:40:12Z</time>
      </trkpt>
      <trkpt lat="43.9543" lon="1.87016">
        <ele>284.8</ele>
        <time>2021-09-26T06:40:15Z</time>
      </trkpt>
      <trkpt lat="43.95432" lon="1.87013">
        <ele>284.8</ele>
        <time>2021-09-26T06:40:16Z</time>
      </trkpt>
      <trkpt lat="43.95434" lon="1.87011">
        <ele>285</ele>
        <time>2021-09-26T06:40:17Z</time>
      </trkpt>
      <trkpt lat="43.95436" lon="1.87009">
        <ele>285</ele>
        <time>2021-09-26T06:40:18Z</time>
      </trkpt>
      <trkpt lat="43.95438" lon="1.87006">
        <ele>285</ele>
        <time>2021-09-26T06:40:19Z</time>
      </trkpt>
      <trkpt lat="43.95441" lon="1.87004">
        <ele>285</ele>
        <time>2021-09-26T06:40:20Z</time>
      </trkpt>
      <trkpt lat="43.95443" lon="1.87002">
        <ele>285.2</ele>
        <time>2021-09-26T06:40:21Z</time>
      </trkpt>
      <trkpt lat="43.95454" lon="1.86989">
        <ele>285.2</ele>
        <time>2021-09-26T06:40:26Z</time>
      </trkpt>
      <trkpt lat="43.95469" lon="1.86966">
        <ele>285.6</ele>
        <time>2021-09-26T06:40:34Z</time>
      </trkpt>
      <trkpt lat="43.9548" lon="1.86925">
        <ele>285.2</ele>
        <time>2021-09-26T06:40:44Z</time>
      </trkpt>
      <trkpt lat="43.95488" lon="1.86892">
        <ele>284.6</ele>
        <time>2021-09-26T06:40:52Z</time>
      </trkpt>
      <trkpt lat="43.9549" lon="1.86883">
        <ele>284.4</ele>
        <time>2021-09-26T06:40:54Z</time>
      </trkpt>
      <trkpt lat="43.95491" lon="1.86879">
        <ele>284.4</ele>
        <time>2021-09-26T06:40:55Z</time>
      </trkpt>
      <trkpt lat="43.95492" lon="1.86875">
        <ele>284.2</ele>
        <time>2021-09-26T06:40:56Z</time>
      </trkpt>
      <trkpt lat="43.95493" lon="1.86871">
        <ele>284.2</ele>
        <time>2021-09-26T06:40:57Z</time>
      </trkpt>
      <trkpt lat="43.95491" lon="1.86858">
        <ele>284.2</ele>
        <time>2021-09-26T06:41:00Z</time>
      </trkpt>
      <trkpt lat="43.95488" lon="1.86855">
        <ele>284</ele>
        <time>2021-09-26T06:41:01Z</time>
      </trkpt>
      <trkpt lat="43.95486" lon="1.8685">
        <ele>284</ele>
        <time>2021-09-26T06:41:02Z</time>
      </trkpt>
      <trkpt lat="43.95483" lon="1.86846">
        <ele>283.8</ele>
        <time>2021-09-26T06:41:03Z</time>
      </trkpt>
      <trkpt lat="43.9548" lon="1.86842">
        <ele>283.6</ele>
        <time>2021-09-26T06:41:04Z</time>
      </trkpt>
      <trkpt lat="43.95475" lon="1.86834">
        <ele>283.4</ele>
        <time>2021-09-26T06:41:06Z</time>
      </trkpt>
      <trkpt lat="43.95463" lon="1.86817">
        <ele>283</ele>
        <time>2021-09-26T06:41:10Z</time>
      </trkpt>
      <trkpt lat="43.95445" lon="1.86791">
        <ele>282.2</ele>
        <time>2021-09-26T06:41:16Z</time>
      </trkpt>
      <trkpt lat="43.95439" lon="1.86782">
        <ele>281.8</ele>
        <time>2021-09-26T06:41:18Z</time>
      </trkpt>
      <trkpt lat="43.95418" lon="1.86752">
        <ele>280.8</ele>
        <time>2021-09-26T06:41:24Z</time>
      </trkpt>
      <trkpt lat="43.95412" lon="1.86743">
        <ele>280.6</ele>
        <time>2021-09-26T06:41:26Z</time>
      </trkpt>
      <trkpt lat="43.9541" lon="1.86739">
        <ele>280.4</ele>
        <time>2021-09-26T06:41:27Z</time>
      </trkpt>
      <trkpt lat="43.95407" lon="1.86737">
        <ele>280.2</ele>
        <time>2021-09-26T06:41:28Z</time>
      </trkpt>
      <trkpt lat="43.95404" lon="1.86737">
        <ele>280.2</ele>
        <time>2021-09-26T06:41:29Z</time>
      </trkpt>
      <trkpt lat="43.95402" lon="1.86738">
        <ele>279.4</ele>
        <time>2021-09-26T06:41:30Z</time>
      </trkpt>
      <trkpt lat="43.954" lon="1.8674">
        <ele>278.8</ele>
        <time>2021-09-26T06:41:31Z</time>
      </trkpt>
      <trkpt lat="43.95399" lon="1.86743">
        <ele>278.6</ele>
        <time>2021-09-26T06:41:32Z</time>
      </trkpt>
      <trkpt lat="43.95397" lon="1.86744">
        <ele>278.4</ele>
        <time>2021-09-26T06:41:33Z</time>
      </trkpt>
      <trkpt lat="43.95396" lon="1.86746">
        <ele>278.4</ele>
        <time>2021-09-26T06:41:34Z</time>
      </trkpt>
      <trkpt lat="43.95394" lon="1.86747">
        <ele>278.2</ele>
        <time>2021-09-26T06:41:35Z</time>
      </trkpt>
      <trkpt lat="43.95393" lon="1.86746">
        <ele>278.2</ele>
        <time>2021-09-26T06:41:36Z</time>
      </trkpt>
      <trkpt lat="43.95392" lon="1.86746">
        <ele>278</ele>
        <time>2021-09-26T06:41:37Z</time>
      </trkpt>
      <trkpt lat="43.95391" lon="1.86745">
        <ele>278</ele>
        <time>2021-09-26T06:41:38Z</time>
      </trkpt>
      <trkpt lat="43.95389" lon="1.86744">
        <ele>278</ele>
        <time>2021-09-26T06:41:39Z</time>
      </trkpt>
      <trkpt lat="43.95388" lon="1.86744">
        <ele>278</ele>
        <time>2021-09-26T06:41:40Z</time>
      </trkpt>
      <trkpt lat="43.95387" lon="1.86744">
        <ele>278</ele>
        <time>2021-09-26T06:41:41Z</time>
      </trkpt>
      <trkpt lat="43.95386" lon="1.86746">
        <ele>278</ele>
        <time>2021-09-26T06:41:42Z</time>
      </trkpt>
      <trkpt lat="43.95385" lon="1.86748">
        <ele>278</ele>
        <time>2021-09-26T06:41:43Z</time>
      </trkpt>
      <trkpt lat="43.95383" lon="1.86749">
        <ele>278</ele>
        <time>2021-09-26T06:41:44Z</time>
      </trkpt>
      <trkpt lat="43.95382" lon="1.8675">
        <ele>278.2</ele>
        <time>2021-09-26T06:41:45Z</time>
      </trkpt>
      <trkpt lat="43.95381" lon="1.86751">
        <ele>278.2</ele>
        <time>2021-09-26T06:41:46Z</time>
      </trkpt>
      <trkpt lat="43.9538" lon="1.86752">
        <ele>278.4</ele>
        <time>2021-09-26T06:41:47Z</time>
      </trkpt>
      <trkpt lat="43.95378" lon="1.86754">
        <ele>278.6</ele>
        <time>2021-09-26T06:41:48Z</time>
      </trkpt>
      <trkpt lat="43.95377" lon="1.86754">
        <ele>278.8</ele>
        <time>2021-09-26T06:41:49Z</time>
      </trkpt>
      <trkpt lat="43.95375" lon="1.86754">
        <ele>278.8</ele>
        <time>2021-09-26T06:41:50Z</time>
      </trkpt>
      <trkpt lat="43.95373" lon="1.86754">
        <ele>279</ele>
        <time>2021-09-26T06:41:51Z</time>
      </trkpt>
      <trkpt lat="43.95372" lon="1.86753">
        <ele>279.2</ele>
        <time>2021-09-26T06:41:52Z</time>
      </trkpt>
      <trkpt lat="43.95369" lon="1.86749">
        <ele>279.4</ele>
        <time>2021-09-26T06:41:54Z</time>
      </trkpt>
      <trkpt lat="43.95369" lon="1.86746">
        <ele>279.4</ele>
        <time>2021-09-26T06:41:55Z</time>
      </trkpt>
      <trkpt lat="43.95369" lon="1.86743">
        <ele>279.2</ele>
        <time>2021-09-26T06:41:56Z</time>
      </trkpt>
      <trkpt lat="43.95368" lon="1.8674">
        <ele>279.2</ele>
        <time>2021-09-26T06:41:57Z</time>
      </trkpt>
      <trkpt lat="43.95364" lon="1.86734">
        <ele>279</ele>
        <time>2021-09-26T06:41:59Z</time>
      </trkpt>
      <trkpt lat="43.95362" lon="1.86732">
        <ele>278.8</ele>
        <time>2021-09-26T06:42:00Z</time>
      </trkpt>
      <trkpt lat="43.95359" lon="1.86729">
        <ele>278.4</ele>
        <time>2021-09-26T06:42:01Z</time>
      </trkpt>
      <trkpt lat="43.95358" lon="1.86726">
        <ele>278.2</ele>
        <time>2021-09-26T06:42:02Z</time>
      </trkpt>
      <trkpt lat="43.95358" lon="1.86722">
        <ele>277.6</ele>
        <time>2021-09-26T06:42:03Z</time>
      </trkpt>
      <trkpt lat="43.95357" lon="1.86718">
        <ele>277.4</ele>
        <time>2021-09-26T06:42:04Z</time>
      </trkpt>
      <trkpt lat="43.95356" lon="1.86714">
        <ele>277.2</ele>
        <time>2021-09-26T06:42:05Z</time>
      </trkpt>
      <trkpt lat="43.95353" lon="1.86712">
        <ele>277.2</ele>
        <time>2021-09-26T06:42:06Z</time>
      </trkpt>
      <trkpt lat="43.95349" lon="1.86709">
        <ele>276.8</ele>
        <time>2021-09-26T06:42:07Z</time>
      </trkpt>
      <trkpt lat="43.95348" lon="1.86704">
        <ele>276.4</ele>
        <time>2021-09-26T06:42:08Z</time>
      </trkpt>
      <trkpt lat="43.95346" lon="1.86699">
        <ele>276.4</ele>
        <time>2021-09-26T06:42:09Z</time>
      </trkpt>
      <trkpt lat="43.95343" lon="1.86696">
        <ele>276.2</ele>
        <time>2021-09-26T06:42:10Z</time>
      </trkpt>
      <trkpt lat="43.95338" lon="1.86695">
        <ele>276.2</ele>
        <time>2021-09-26T06:42:11Z</time>
      </trkpt>
      <trkpt lat="43.9533" lon="1.86691">
        <ele>275.8</ele>
        <time>2021-09-26T06:42:13Z</time>
      </trkpt>
      <trkpt lat="43.9533" lon="1.86691">
        <ele>275.6</ele>
        <time>2021-09-26T06:42:14Z</time>
      </trkpt>
      <trkpt lat="43.95328" lon="1.86688">
        <ele>275.2</ele>
        <time>2021-09-26T06:42:15Z</time>
      </trkpt>
      <trkpt lat="43.95328" lon="1.86685">
        <ele>275</ele>
        <time>2021-09-26T06:42:16Z</time>
      </trkpt>
      <trkpt lat="43.95327" lon="1.8668">
        <ele>274.8</ele>
        <time>2021-09-26T06:42:17Z</time>
      </trkpt>
      <trkpt lat="43.95327" lon="1.86676">
        <ele>274.8</ele>
        <time>2021-09-26T06:42:18Z</time>
      </trkpt>
      <trkpt lat="43.95327" lon="1.86674">
        <ele>274.6</ele>
        <time>2021-09-26T06:42:19Z</time>
      </trkpt>
      <trkpt lat="43.9532" lon="1.86671">
        <ele>274.6</ele>
        <time>2021-09-26T06:42:21Z</time>
      </trkpt>
      <trkpt lat="43.95318" lon="1.8667">
        <ele>274.6</ele>
        <time>2021-09-26T06:42:22Z</time>
      </trkpt>
      <trkpt lat="43.95314" lon="1.86664">
        <ele>274.4</ele>
        <time>2021-09-26T06:42:24Z</time>
      </trkpt>
      <trkpt lat="43.95311" lon="1.86658">
        <ele>274.4</ele>
        <time>2021-09-26T06:42:25Z</time>
      </trkpt>
      <trkpt lat="43.9531" lon="1.86653">
        <ele>274.4</ele>
        <time>2021-09-26T06:42:26Z</time>
      </trkpt>
      <trkpt lat="43.9531" lon="1.8665">
        <ele>274.4</ele>
        <time>2021-09-26T06:42:27Z</time>
      </trkpt>
      <trkpt lat="43.9531" lon="1.86649">
        <ele>274.4</ele>
        <time>2021-09-26T06:42:28Z</time>
      </trkpt>
      <trkpt lat="43.9531" lon="1.86648">
        <ele>274.4</ele>
        <time>2021-09-26T06:42:29Z</time>
      </trkpt>
      <trkpt lat="43.95312" lon="1.86642">
        <ele>274.2</ele>
        <time>2021-09-26T06:42:31Z</time>
      </trkpt>
      <trkpt lat="43.95312" lon="1.86641">
        <ele>274.2</ele>
        <time>2021-09-26T06:42:32Z</time>
      </trkpt>
      <trkpt lat="43.95311" lon="1.86639">
        <ele>274.2</ele>
        <time>2021-09-26T06:42:33Z</time>
      </trkpt>
      <trkpt lat="43.95312" lon="1.86637">
        <ele>274</ele>
        <time>2021-09-26T06:42:36Z</time>
      </trkpt>
      <trkpt lat="43.95312" lon="1.86635">
        <ele>274</ele>
        <time>2021-09-26T06:42:37Z</time>
      </trkpt>
      <trkpt lat="43.95312" lon="1.86633">
        <ele>274</ele>
        <time>2021-09-26T06:42:38Z</time>
      </trkpt>
      <trkpt lat="43.95311" lon="1.86632">
        <ele>273.8</ele>
        <time>2021-09-26T06:42:39Z</time>
      </trkpt>
      <trkpt lat="43.95309" lon="1.8663">
        <ele>273.8</ele>
        <time>2021-09-26T06:42:40Z</time>
      </trkpt>
      <trkpt lat="43.95308" lon="1.86627">
        <ele>273.8</ele>
        <time>2021-09-26T06:42:41Z</time>
      </trkpt>
      <trkpt lat="43.95308" lon="1.86626">
        <ele>273.6</ele>
        <time>2021-09-26T06:42:42Z</time>
      </trkpt>
      <trkpt lat="43.95309" lon="1.86618">
        <ele>273.4</ele>
        <time>2021-09-26T06:42:45Z</time>
      </trkpt>
      <trkpt lat="43.9531" lon="1.86613">
        <ele>273.2</ele>
        <time>2021-09-26T06:42:47Z</time>
      </trkpt>
      <trkpt lat="43.95307" lon="1.8661">
        <ele>273.2</ele>
        <time>2021-09-26T06:42:48Z</time>
      </trkpt>
      <trkpt lat="43.95307" lon="1.86607">
        <ele>273.2</ele>
        <time>2021-09-26T06:42:49Z</time>
      </trkpt>
      <trkpt lat="43.95305" lon="1.86606">
        <ele>273.2</ele>
        <time>2021-09-26T06:42:50Z</time>
      </trkpt>
      <trkpt lat="43.95303" lon="1.86604">
        <ele>273.2</ele>
        <time>2021-09-26T06:42:51Z</time>
      </trkpt>
      <trkpt lat="43.95301" lon="1.86601">
        <ele>273.2</ele>
        <time>2021-09-26T06:42:52Z</time>
      </trkpt>
      <trkpt lat="43.95298" lon="1.86599">
        <ele>273.2</ele>
        <time>2021-09-26T06:42:53Z</time>
      </trkpt>
      <trkpt lat="43.95295" lon="1.86598">
        <ele>273.2</ele>
        <time>2021-09-26T06:42:54Z</time>
      </trkpt>
      <trkpt lat="43.9529" lon="1.86598">
        <ele>273.4</ele>
        <time>2021-09-26T06:42:56Z</time>
      </trkpt>
      <trkpt lat="43.95287" lon="1.86596">
        <ele>273.6</ele>
        <time>2021-09-26T06:42:57Z</time>
      </trkpt>
      <trkpt lat="43.95284" lon="1.86595">
        <ele>273.8</ele>
        <time>2021-09-26T06:42:58Z</time>
      </trkpt>
      <trkpt lat="43.95281" lon="1.86595">
        <ele>274</ele>
        <time>2021-09-26T06:42:59Z</time>
      </trkpt>
      <trkpt lat="43.95275" lon="1.86594">
        <ele>275</ele>
        <time>2021-09-26T06:43:01Z</time>
      </trkpt>
      <trkpt lat="43.95274" lon="1.86591">
        <ele>275.4</ele>
        <time>2021-09-26T06:43:02Z</time>
      </trkpt>
      <trkpt lat="43.9527" lon="1.86587">
        <ele>276.2</ele>
        <time>2021-09-26T06:43:04Z</time>
      </trkpt>
      <trkpt lat="43.95268" lon="1.86585">
        <ele>276.6</ele>
        <time>2021-09-26T06:43:05Z</time>
      </trkpt>
      <trkpt lat="43.95268" lon="1.86585">
        <ele>276.8</ele>
        <time>2021-09-26T06:43:06Z</time>
      </trkpt>
      <trkpt lat="43.95266" lon="1.86584">
        <ele>277</ele>
        <time>2021-09-26T06:43:07Z</time>
      </trkpt>
      <trkpt lat="43.95263" lon="1.86582">
        <ele>277.2</ele>
        <time>2021-09-26T06:43:08Z</time>
      </trkpt>
      <trkpt lat="43.9526" lon="1.86581">
        <ele>277.4</ele>
        <time>2021-09-26T06:43:09Z</time>
      </trkpt>
      <trkpt lat="43.95259" lon="1.8658">
        <ele>277.4</ele>
        <time>2021-09-26T06:43:10Z</time>
      </trkpt>
      <trkpt lat="43.95259" lon="1.86579">
        <ele>277.4</ele>
        <time>2021-09-26T06:43:11Z</time>
      </trkpt>
      <trkpt lat="43.95258" lon="1.86576">
        <ele>277.4</ele>
        <time>2021-09-26T06:43:12Z</time>
      </trkpt>
      <trkpt lat="43.95258" lon="1.86573">
        <ele>277.6</ele>
        <time>2021-09-26T06:43:13Z</time>
      </trkpt>
      <trkpt lat="43.95258" lon="1.86569">
        <ele>277.4</ele>
        <time>2021-09-26T06:43:14Z</time>
      </trkpt>
      <trkpt lat="43.95257" lon="1.86566">
        <ele>277.4</ele>
        <time>2021-09-26T06:43:15Z</time>
      </trkpt>
      <trkpt lat="43.95255" lon="1.86563">
        <ele>277.2</ele>
        <time>2021-09-26T06:43:16Z</time>
      </trkpt>
      <trkpt lat="43.95252" lon="1.8656">
        <ele>276.8</ele>
        <time>2021-09-26T06:43:17Z</time>
      </trkpt>
      <trkpt lat="43.95248" lon="1.86557">
        <ele>276.8</ele>
        <time>2021-09-26T06:43:18Z</time>
      </trkpt>
      <trkpt lat="43.95247" lon="1.86553">
        <ele>276.6</ele>
        <time>2021-09-26T06:43:19Z</time>
      </trkpt>
      <trkpt lat="43.95246" lon="1.8655">
        <ele>276.6</ele>
        <time>2021-09-26T06:43:20Z</time>
      </trkpt>
      <trkpt lat="43.95244" lon="1.86547">
        <ele>276.4</ele>
        <time>2021-09-26T06:43:21Z</time>
      </trkpt>
      <trkpt lat="43.95241" lon="1.86544">
        <ele>276.4</ele>
        <time>2021-09-26T06:43:22Z</time>
      </trkpt>
      <trkpt lat="43.95239" lon="1.86544">
        <ele>276.2</ele>
        <time>2021-09-26T06:43:23Z</time>
      </trkpt>
      <trkpt lat="43.95238" lon="1.86544">
        <ele>276.2</ele>
        <time>2021-09-26T06:43:24Z</time>
      </trkpt>
      <trkpt lat="43.95233" lon="1.86547">
        <ele>276</ele>
        <time>2021-09-26T06:43:27Z</time>
      </trkpt>
      <trkpt lat="43.95232" lon="1.86548">
        <ele>275.8</ele>
        <time>2021-09-26T06:43:28Z</time>
      </trkpt>
      <trkpt lat="43.95231" lon="1.86549">
        <ele>275.8</ele>
        <time>2021-09-26T06:43:29Z</time>
      </trkpt>
      <trkpt lat="43.9523" lon="1.8655">
        <ele>275.8</ele>
        <time>2021-09-26T06:43:30Z</time>
      </trkpt>
      <trkpt lat="43.95228" lon="1.8655">
        <ele>275.8</ele>
        <time>2021-09-26T06:43:31Z</time>
      </trkpt>
      <trkpt lat="43.95227" lon="1.86551">
        <ele>275.8</ele>
        <time>2021-09-26T06:43:32Z</time>
      </trkpt>
      <trkpt lat="43.95226" lon="1.86552">
        <ele>276</ele>
        <time>2021-09-26T06:43:33Z</time>
      </trkpt>
      <trkpt lat="43.95223" lon="1.86555">
        <ele>276.4</ele>
        <time>2021-09-26T06:43:36Z</time>
      </trkpt>
      <trkpt lat="43.95222" lon="1.86556">
        <ele>276.4</ele>
        <time>2021-09-26T06:43:37Z</time>
      </trkpt>
      <trkpt lat="43.9522" lon="1.86556">
        <ele>276.8</ele>
        <time>2021-09-26T06:43:38Z</time>
      </trkpt>
      <trkpt lat="43.95219" lon="1.86556">
        <ele>276.8</ele>
        <time>2021-09-26T06:43:39Z</time>
      </trkpt>
      <trkpt lat="43.95218" lon="1.86557">
        <ele>277.2</ele>
        <time>2021-09-26T06:43:40Z</time>
      </trkpt>
      <trkpt lat="43.95216" lon="1.86557">
        <ele>277.4</ele>
        <time>2021-09-26T06:43:41Z</time>
      </trkpt>
      <trkpt lat="43.95209" lon="1.8656">
        <ele>278.4</ele>
        <time>2021-09-26T06:43:45Z</time>
      </trkpt>
      <trkpt lat="43.95206" lon="1.86561">
        <ele>278.6</ele>
        <time>2021-09-26T06:43:47Z</time>
      </trkpt>
      <trkpt lat="43.95199" lon="1.86563">
        <ele>279</ele>
        <time>2021-09-26T06:43:51Z</time>
      </trkpt>
      <trkpt lat="43.95193" lon="1.86565">
        <ele>279.2</ele>
        <time>2021-09-26T06:43:54Z</time>
      </trkpt>
      <trkpt lat="43.95191" lon="1.86566">
        <ele>279.2</ele>
        <time>2021-09-26T06:43:55Z</time>
      </trkpt>
      <trkpt lat="43.9519" lon="1.86566">
        <ele>279.4</ele>
        <time>2021-09-26T06:43:56Z</time>
      </trkpt>
      <trkpt lat="43.95189" lon="1.86566">
        <ele>279.4</ele>
        <time>2021-09-26T06:43:57Z</time>
      </trkpt>
      <trkpt lat="43.95189" lon="1.86566">
        <ele>279.4</ele>
        <time>2021-09-26T06:43:58Z</time>
      </trkpt>
      <trkpt lat="43.95189" lon="1.86566">
        <ele>279.6</ele>
        <time>2021-09-26T06:43:59Z</time>
      </trkpt>
      <trkpt lat="43.95178" lon="1.86562">
        <ele>280.2</ele>
        <time>2021-09-26T06:44:11Z</time>
      </trkpt>
      <trkpt lat="43.95172" lon="1.86559">
        <ele>280.4</ele>
        <time>2021-09-26T06:44:15Z</time>
      </trkpt>
      <trkpt lat="43.9517" lon="1.86558">
        <ele>280.4</ele>
        <time>2021-09-26T06:44:16Z</time>
      </trkpt>
      <trkpt lat="43.95169" lon="1.86557">
        <ele>280.6</ele>
        <time>2021-09-26T06:44:17Z</time>
      </trkpt>
      <trkpt lat="43.95167" lon="1.86557">
        <ele>280.6</ele>
        <time>2021-09-26T06:44:18Z</time>
      </trkpt>
      <trkpt lat="43.95166" lon="1.86558">
        <ele>280.6</ele>
        <time>2021-09-26T06:44:19Z</time>
      </trkpt>
      <trkpt lat="43.95165" lon="1.86557">
        <ele>280.6</ele>
        <time>2021-09-26T06:44:20Z</time>
      </trkpt>
      <trkpt lat="43.95163" lon="1.86556">
        <ele>280.8</ele>
        <time>2021-09-26T06:44:21Z</time>
      </trkpt>
      <trkpt lat="43.95161" lon="1.86555">
        <ele>280.8</ele>
        <time>2021-09-26T06:44:22Z</time>
      </trkpt>
      <trkpt lat="43.9516" lon="1.86555">
        <ele>280.8</ele>
        <time>2021-09-26T06:44:23Z</time>
      </trkpt>
      <trkpt lat="43.95157" lon="1.86553">
        <ele>280.8</ele>
        <time>2021-09-26T06:44:24Z</time>
      </trkpt>
      <trkpt lat="43.95155" lon="1.86553">
        <ele>280.8</ele>
        <time>2021-09-26T06:44:25Z</time>
      </trkpt>
      <trkpt lat="43.95152" lon="1.86552">
        <ele>280.8</ele>
        <time>2021-09-26T06:44:26Z</time>
      </trkpt>
      <trkpt lat="43.95149" lon="1.86552">
        <ele>280.8</ele>
        <time>2021-09-26T06:44:27Z</time>
      </trkpt>
      <trkpt lat="43.95147" lon="1.86553">
        <ele>280.8</ele>
        <time>2021-09-26T06:44:28Z</time>
      </trkpt>
      <trkpt lat="43.95145" lon="1.86554">
        <ele>280.8</ele>
        <time>2021-09-26T06:44:29Z</time>
      </trkpt>
      <trkpt lat="43.95145" lon="1.86556">
        <ele>280.2</ele>
        <time>2021-09-26T06:44:30Z</time>
      </trkpt>
      <trkpt lat="43.95145" lon="1.86556">
        <ele>279.8</ele>
        <time>2021-09-26T06:44:31Z</time>
      </trkpt>
      <trkpt lat="43.95145" lon="1.86556">
        <ele>279.6</ele>
        <time>2021-09-26T06:44:32Z</time>
      </trkpt>
      <trkpt lat="43.95141" lon="1.8656">
        <ele>278</ele>
        <time>2021-09-26T06:45:06Z</time>
      </trkpt>
      <trkpt lat="43.95139" lon="1.86561">
        <ele>278</ele>
        <time>2021-09-26T06:45:07Z</time>
      </trkpt>
      <trkpt lat="43.95136" lon="1.86562">
        <ele>278</ele>
        <time>2021-09-26T06:45:08Z</time>
      </trkpt>
      <trkpt lat="43.95134" lon="1.86563">
        <ele>278</ele>
        <time>2021-09-26T06:45:09Z</time>
      </trkpt>
      <trkpt lat="43.95131" lon="1.86563">
        <ele>277.6</ele>
        <time>2021-09-26T06:45:10Z</time>
      </trkpt>
      <trkpt lat="43.9513" lon="1.86563">
        <ele>277.6</ele>
        <time>2021-09-26T06:45:11Z</time>
      </trkpt>
      <trkpt lat="43.95129" lon="1.86564">
        <ele>277.2</ele>
        <time>2021-09-26T06:45:12Z</time>
      </trkpt>
      <trkpt lat="43.95127" lon="1.86564">
        <ele>277.2</ele>
        <time>2021-09-26T06:45:13Z</time>
      </trkpt>
      <trkpt lat="43.95124" lon="1.86565">
        <ele>276.8</ele>
        <time>2021-09-26T06:45:14Z</time>
      </trkpt>
      <trkpt lat="43.95117" lon="1.86565">
        <ele>275.6</ele>
        <time>2021-09-26T06:45:16Z</time>
      </trkpt>
      <trkpt lat="43.95113" lon="1.86565">
        <ele>275.2</ele>
        <time>2021-09-26T06:45:17Z</time>
      </trkpt>
      <trkpt lat="43.95099" lon="1.86561">
        <ele>274.2</ele>
        <time>2021-09-26T06:45:20Z</time>
      </trkpt>
      <trkpt lat="43.95094" lon="1.86559">
        <ele>273.4</ele>
        <time>2021-09-26T06:45:21Z</time>
      </trkpt>
      <trkpt lat="43.95091" lon="1.86557">
        <ele>272.2</ele>
        <time>2021-09-26T06:45:22Z</time>
      </trkpt>
      <trkpt lat="43.95088" lon="1.86556">
        <ele>271.8</ele>
        <time>2021-09-26T06:45:23Z</time>
      </trkpt>
      <trkpt lat="43.95086" lon="1.86556">
        <ele>271.2</ele>
        <time>2021-09-26T06:45:24Z</time>
      </trkpt>
      <trkpt lat="43.95084" lon="1.86556">
        <ele>271</ele>
        <time>2021-09-26T06:45:25Z</time>
      </trkpt>
      <trkpt lat="43.95082" lon="1.86556">
        <ele>270.6</ele>
        <time>2021-09-26T06:45:26Z</time>
      </trkpt>
      <trkpt lat="43.95081" lon="1.86556">
        <ele>270.4</ele>
        <time>2021-09-26T06:45:27Z</time>
      </trkpt>
      <trkpt lat="43.95078" lon="1.86555">
        <ele>269.6</ele>
        <time>2021-09-26T06:45:28Z</time>
      </trkpt>
      <trkpt lat="43.95076" lon="1.86554">
        <ele>269</ele>
        <time>2021-09-26T06:45:30Z</time>
      </trkpt>
      <trkpt lat="43.95076" lon="1.86554">
        <ele>268.6</ele>
        <time>2021-09-26T06:45:31Z</time>
      </trkpt>
      <trkpt lat="43.95076" lon="1.86554">
        <ele>268.6</ele>
        <time>2021-09-26T06:45:32Z</time>
      </trkpt>
      <trkpt lat="43.9507" lon="1.86549">
        <ele>267.4</ele>
        <time>2021-09-26T06:45:40Z</time>
      </trkpt>
      <trkpt lat="43.95066" lon="1.86545">
        <ele>267.4</ele>
        <time>2021-09-26T06:45:42Z</time>
      </trkpt>
      <trkpt lat="43.95061" lon="1.86541">
        <ele>267</ele>
        <time>2021-09-26T06:45:45Z</time>
      </trkpt>
      <trkpt lat="43.9506" lon="1.86541">
        <ele>267</ele>
        <time>2021-09-26T06:45:46Z</time>
      </trkpt>
      <trkpt lat="43.95058" lon="1.86541">
        <ele>267</ele>
        <time>2021-09-26T06:45:47Z</time>
      </trkpt>
      <trkpt lat="43.95057" lon="1.86542">
        <ele>267</ele>
        <time>2021-09-26T06:45:48Z</time>
      </trkpt>
      <trkpt lat="43.95055" lon="1.86542">
        <ele>266.8</ele>
        <time>2021-09-26T06:45:49Z</time>
      </trkpt>
      <trkpt lat="43.95054" lon="1.86543">
        <ele>266.8</ele>
        <time>2021-09-26T06:45:50Z</time>
      </trkpt>
      <trkpt lat="43.95053" lon="1.86544">
        <ele>266.8</ele>
        <time>2021-09-26T06:45:51Z</time>
      </trkpt>
      <trkpt lat="43.95052" lon="1.86546">
        <ele>266.8</ele>
        <time>2021-09-26T06:45:52Z</time>
      </trkpt>
      <trkpt lat="43.95051" lon="1.86548">
        <ele>266.8</ele>
        <time>2021-09-26T06:45:53Z</time>
      </trkpt>
      <trkpt lat="43.95049" lon="1.86551">
        <ele>266.6</ele>
        <time>2021-09-26T06:45:54Z</time>
      </trkpt>
      <trkpt lat="43.95048" lon="1.86554">
        <ele>266.6</ele>
        <time>2021-09-26T06:45:55Z</time>
      </trkpt>
      <trkpt lat="43.95045" lon="1.86563">
        <ele>266.4</ele>
        <time>2021-09-26T06:45:57Z</time>
      </trkpt>
      <trkpt lat="43.95043" lon="1.86568">
        <ele>266</ele>
        <time>2021-09-26T06:45:58Z</time>
      </trkpt>
      <trkpt lat="43.95043" lon="1.8658">
        <ele>265.8</ele>
        <time>2021-09-26T06:46:00Z</time>
      </trkpt>
      <trkpt lat="43.95043" lon="1.86586">
        <ele>265.4</ele>
        <time>2021-09-26T06:46:01Z</time>
      </trkpt>
      <trkpt lat="43.95043" lon="1.86594">
        <ele>265.2</ele>
        <time>2021-09-26T06:46:02Z</time>
      </trkpt>
      <trkpt lat="43.95044" lon="1.86602">
        <ele>264.8</ele>
        <time>2021-09-26T06:46:03Z</time>
      </trkpt>
      <trkpt lat="43.95044" lon="1.8661">
        <ele>264.6</ele>
        <time>2021-09-26T06:46:04Z</time>
      </trkpt>
      <trkpt lat="43.95044" lon="1.86618">
        <ele>264</ele>
        <time>2021-09-26T06:46:05Z</time>
      </trkpt>
      <trkpt lat="43.95044" lon="1.86625">
        <ele>263.6</ele>
        <time>2021-09-26T06:46:06Z</time>
      </trkpt>
      <trkpt lat="43.95045" lon="1.86633">
        <ele>263</ele>
        <time>2021-09-26T06:46:07Z</time>
      </trkpt>
      <trkpt lat="43.95048" lon="1.86639">
        <ele>262.4</ele>
        <time>2021-09-26T06:46:08Z</time>
      </trkpt>
      <trkpt lat="43.95051" lon="1.86645">
        <ele>262.2</ele>
        <time>2021-09-26T06:46:09Z</time>
      </trkpt>
      <trkpt lat="43.95054" lon="1.86649">
        <ele>261.6</ele>
        <time>2021-09-26T06:46:10Z</time>
      </trkpt>
      <trkpt lat="43.95057" lon="1.86651">
        <ele>261.4</ele>
        <time>2021-09-26T06:46:11Z</time>
      </trkpt>
      <trkpt lat="43.95059" lon="1.86653">
        <ele>260.2</ele>
        <time>2021-09-26T06:46:12Z</time>
      </trkpt>
      <trkpt lat="43.95061" lon="1.86656">
        <ele>259.8</ele>
        <time>2021-09-26T06:46:13Z</time>
      </trkpt>
      <trkpt lat="43.95063" lon="1.86658">
        <ele>258.8</ele>
        <time>2021-09-26T06:46:14Z</time>
      </trkpt>
      <trkpt lat="43.95064" lon="1.86661">
        <ele>258.4</ele>
        <time>2021-09-26T06:46:15Z</time>
      </trkpt>
      <trkpt lat="43.95065" lon="1.86664">
        <ele>258.4</ele>
        <time>2021-09-26T06:46:16Z</time>
      </trkpt>
      <trkpt lat="43.95065" lon="1.86667">
        <ele>258.2</ele>
        <time>2021-09-26T06:46:17Z</time>
      </trkpt>
      <trkpt lat="43.95064" lon="1.86671">
        <ele>258.4</ele>
        <time>2021-09-26T06:46:18Z</time>
      </trkpt>
      <trkpt lat="43.95061" lon="1.86675">
        <ele>258.4</ele>
        <time>2021-09-26T06:46:19Z</time>
      </trkpt>
      <trkpt lat="43.95053" lon="1.86687">
        <ele>258.2</ele>
        <time>2021-09-26T06:46:21Z</time>
      </trkpt>
      <trkpt lat="43.95044" lon="1.86702">
        <ele>258</ele>
        <time>2021-09-26T06:46:23Z</time>
      </trkpt>
      <trkpt lat="43.95034" lon="1.86719">
        <ele>257.6</ele>
        <time>2021-09-26T06:46:26Z</time>
      </trkpt>
      <trkpt lat="43.95031" lon="1.86725">
        <ele>257.2</ele>
        <time>2021-09-26T06:46:27Z</time>
      </trkpt>
      <trkpt lat="43.95027" lon="1.86729">
        <ele>256.4</ele>
        <time>2021-09-26T06:46:28Z</time>
      </trkpt>
      <trkpt lat="43.95015" lon="1.86746">
        <ele>254.4</ele>
        <time>2021-09-26T06:46:31Z</time>
      </trkpt>
      <trkpt lat="43.95007" lon="1.86757">
        <ele>252.6</ele>
        <time>2021-09-26T06:46:33Z</time>
      </trkpt>
      <trkpt lat="43.94998" lon="1.86771">
        <ele>251.2</ele>
        <time>2021-09-26T06:46:35Z</time>
      </trkpt>
      <trkpt lat="43.94991" lon="1.86782">
        <ele>250.2</ele>
        <time>2021-09-26T06:46:37Z</time>
      </trkpt>
      <trkpt lat="43.94984" lon="1.86794">
        <ele>249</ele>
        <time>2021-09-26T06:46:39Z</time>
      </trkpt>
      <trkpt lat="43.94976" lon="1.86805">
        <ele>247.4</ele>
        <time>2021-09-26T06:46:41Z</time>
      </trkpt>
      <trkpt lat="43.94973" lon="1.8681">
        <ele>246.6</ele>
        <time>2021-09-26T06:46:42Z</time>
      </trkpt>
      <trkpt lat="43.94968" lon="1.86815">
        <ele>246.2</ele>
        <time>2021-09-26T06:46:43Z</time>
      </trkpt>
      <trkpt lat="43.94962" lon="1.86823">
        <ele>244.4</ele>
        <time>2021-09-26T06:46:45Z</time>
      </trkpt>
      <trkpt lat="43.94958" lon="1.86828">
        <ele>244</ele>
        <time>2021-09-26T06:46:46Z</time>
      </trkpt>
      <trkpt lat="43.94954" lon="1.86833">
        <ele>243.4</ele>
        <time>2021-09-26T06:46:47Z</time>
      </trkpt>
      <trkpt lat="43.94951" lon="1.86837">
        <ele>243.2</ele>
        <time>2021-09-26T06:46:48Z</time>
      </trkpt>
      <trkpt lat="43.94947" lon="1.86842">
        <ele>242.6</ele>
        <time>2021-09-26T06:46:49Z</time>
      </trkpt>
      <trkpt lat="43.94941" lon="1.86847">
        <ele>242.2</ele>
        <time>2021-09-26T06:46:50Z</time>
      </trkpt>
      <trkpt lat="43.94937" lon="1.86852">
        <ele>241.6</ele>
        <time>2021-09-26T06:46:51Z</time>
      </trkpt>
      <trkpt lat="43.94932" lon="1.86857">
        <ele>240.6</ele>
        <time>2021-09-26T06:46:52Z</time>
      </trkpt>
      <trkpt lat="43.94918" lon="1.86872">
        <ele>239</ele>
        <time>2021-09-26T06:46:55Z</time>
      </trkpt>
      <trkpt lat="43.94913" lon="1.86875">
        <ele>238.2</ele>
        <time>2021-09-26T06:46:56Z</time>
      </trkpt>
      <trkpt lat="43.94907" lon="1.86879">
        <ele>237.8</ele>
        <time>2021-09-26T06:46:57Z</time>
      </trkpt>
      <trkpt lat="43.94901" lon="1.86883">
        <ele>237.2</ele>
        <time>2021-09-26T06:46:58Z</time>
      </trkpt>
      <trkpt lat="43.94895" lon="1.86887">
        <ele>236.4</ele>
        <time>2021-09-26T06:46:59Z</time>
      </trkpt>
      <trkpt lat="43.94881" lon="1.86896">
        <ele>235.2</ele>
        <time>2021-09-26T06:47:01Z</time>
      </trkpt>
      <trkpt lat="43.94866" lon="1.86906">
        <ele>233.6</ele>
        <time>2021-09-26T06:47:03Z</time>
      </trkpt>
      <trkpt lat="43.94853" lon="1.86915">
        <ele>231.6</ele>
        <time>2021-09-26T06:47:05Z</time>
      </trkpt>
      <trkpt lat="43.94849" lon="1.86918">
        <ele>231.2</ele>
        <time>2021-09-26T06:47:06Z</time>
      </trkpt>
      <trkpt lat="43.94841" lon="1.86923">
        <ele>230</ele>
        <time>2021-09-26T06:47:07Z</time>
      </trkpt>
      <trkpt lat="43.94836" lon="1.86926">
        <ele>229.2</ele>
        <time>2021-09-26T06:47:08Z</time>
      </trkpt>
      <trkpt lat="43.9483" lon="1.8693">
        <ele>228.8</ele>
        <time>2021-09-26T06:47:09Z</time>
      </trkpt>
      <trkpt lat="43.94826" lon="1.86932">
        <ele>227.8</ele>
        <time>2021-09-26T06:47:10Z</time>
      </trkpt>
      <trkpt lat="43.94821" lon="1.86936">
        <ele>227</ele>
        <time>2021-09-26T06:47:11Z</time>
      </trkpt>
      <trkpt lat="43.94814" lon="1.86941">
        <ele>225.6</ele>
        <time>2021-09-26T06:47:12Z</time>
      </trkpt>
      <trkpt lat="43.94802" lon="1.86949">
        <ele>224.4</ele>
        <time>2021-09-26T06:47:14Z</time>
      </trkpt>
      <trkpt lat="43.94795" lon="1.86955">
        <ele>223.4</ele>
        <time>2021-09-26T06:47:16Z</time>
      </trkpt>
      <trkpt lat="43.94791" lon="1.86954">
        <ele>222.4</ele>
        <time>2021-09-26T06:47:17Z</time>
      </trkpt>
      <trkpt lat="43.9479" lon="1.86952">
        <ele>222</ele>
        <time>2021-09-26T06:47:18Z</time>
      </trkpt>
      <trkpt lat="43.9479" lon="1.86948">
        <ele>221.2</ele>
        <time>2021-09-26T06:47:19Z</time>
      </trkpt>
      <trkpt lat="43.9479" lon="1.86944">
        <ele>221</ele>
        <time>2021-09-26T06:47:20Z</time>
      </trkpt>
      <trkpt lat="43.9479" lon="1.86941">
        <ele>219.8</ele>
        <time>2021-09-26T06:47:21Z</time>
      </trkpt>
      <trkpt lat="43.9479" lon="1.8694">
        <ele>218.6</ele>
        <time>2021-09-26T06:47:22Z</time>
      </trkpt>
      <trkpt lat="43.9479" lon="1.86938">
        <ele>218.2</ele>
        <time>2021-09-26T06:47:23Z</time>
      </trkpt>
      <trkpt lat="43.9479" lon="1.86936">
        <ele>217.4</ele>
        <time>2021-09-26T06:47:24Z</time>
      </trkpt>
      <trkpt lat="43.9479" lon="1.86934">
        <ele>217</ele>
        <time>2021-09-26T06:47:25Z</time>
      </trkpt>
      <trkpt lat="43.94789" lon="1.86932">
        <ele>216.6</ele>
        <time>2021-09-26T06:47:26Z</time>
      </trkpt>
      <trkpt lat="43.94788" lon="1.8693">
        <ele>216.4</ele>
        <time>2021-09-26T06:47:27Z</time>
      </trkpt>
      <trkpt lat="43.94788" lon="1.86927">
        <ele>216</ele>
        <time>2021-09-26T06:47:28Z</time>
      </trkpt>
      <trkpt lat="43.94788" lon="1.86921">
        <ele>215.4</ele>
        <time>2021-09-26T06:47:31Z</time>
      </trkpt>
      <trkpt lat="43.94787" lon="1.86919">
        <ele>215.2</ele>
        <time>2021-09-26T06:47:32Z</time>
      </trkpt>
      <trkpt lat="43.94786" lon="1.86917">
        <ele>215</ele>
        <time>2021-09-26T06:47:33Z</time>
      </trkpt>
      <trkpt lat="43.94786" lon="1.86915">
        <ele>215</ele>
        <time>2021-09-26T06:47:34Z</time>
      </trkpt>
      <trkpt lat="43.94785" lon="1.86913">
        <ele>215</ele>
        <time>2021-09-26T06:47:35Z</time>
      </trkpt>
      <trkpt lat="43.94785" lon="1.86913">
        <ele>215</ele>
        <time>2021-09-26T06:47:36Z</time>
      </trkpt>
      <trkpt lat="43.94785" lon="1.86912">
        <ele>214.6</ele>
        <time>2021-09-26T06:47:37Z</time>
      </trkpt>
      <trkpt lat="43.94784" lon="1.86911">
        <ele>214.6</ele>
        <time>2021-09-26T06:47:38Z</time>
      </trkpt>
      <trkpt lat="43.94783" lon="1.86911">
        <ele>214.4</ele>
        <time>2021-09-26T06:47:39Z</time>
      </trkpt>
      <trkpt lat="43.94783" lon="1.86911">
        <ele>214</ele>
        <time>2021-09-26T06:47:40Z</time>
      </trkpt>
      <trkpt lat="43.94783" lon="1.86911">
        <ele>214</ele>
        <time>2021-09-26T06:47:41Z</time>
      </trkpt>
      <trkpt lat="43.94777" lon="1.86909">
        <ele>212.8</ele>
        <time>2021-09-26T06:48:03Z</time>
      </trkpt>
      <trkpt lat="43.94773" lon="1.86908">
        <ele>212.6</ele>
        <time>2021-09-26T06:48:05Z</time>
      </trkpt>
      <trkpt lat="43.94761" lon="1.86909">
        <ele>212.4</ele>
        <time>2021-09-26T06:48:10Z</time>
      </trkpt>
      <trkpt lat="43.94759" lon="1.86909">
        <ele>212.4</ele>
        <time>2021-09-26T06:48:11Z</time>
      </trkpt>
      <trkpt lat="43.94757" lon="1.8691">
        <ele>212.4</ele>
        <time>2021-09-26T06:48:12Z</time>
      </trkpt>
      <trkpt lat="43.94739" lon="1.86919">
        <ele>212.4</ele>
        <time>2021-09-26T06:48:17Z</time>
      </trkpt>
      <trkpt lat="43.9473" lon="1.86927">
        <ele>212</ele>
        <time>2021-09-26T06:48:20Z</time>
      </trkpt>
      <trkpt lat="43.94726" lon="1.86929">
        <ele>211.6</ele>
        <time>2021-09-26T06:48:21Z</time>
      </trkpt>
      <trkpt lat="43.9472" lon="1.86933">
        <ele>210.8</ele>
        <time>2021-09-26T06:48:23Z</time>
      </trkpt>
      <trkpt lat="43.94716" lon="1.86936">
        <ele>210.6</ele>
        <time>2021-09-26T06:48:24Z</time>
      </trkpt>
      <trkpt lat="43.94694" lon="1.86948">
        <ele>209.2</ele>
        <time>2021-09-26T06:48:29Z</time>
      </trkpt>
      <trkpt lat="43.94689" lon="1.86949">
        <ele>209</ele>
        <time>2021-09-26T06:48:30Z</time>
      </trkpt>
      <trkpt lat="43.94672" lon="1.86951">
        <ele>208</ele>
        <time>2021-09-26T06:48:33Z</time>
      </trkpt>
      <trkpt lat="43.94667" lon="1.86951">
        <ele>207.8</ele>
        <time>2021-09-26T06:48:34Z</time>
      </trkpt>
      <trkpt lat="43.94647" lon="1.86945">
        <ele>207.2</ele>
        <time>2021-09-26T06:48:38Z</time>
      </trkpt>
      <trkpt lat="43.94642" lon="1.86941">
        <ele>207.2</ele>
        <time>2021-09-26T06:48:39Z</time>
      </trkpt>
      <trkpt lat="43.94637" lon="1.86938">
        <ele>207</ele>
        <time>2021-09-26T06:48:40Z</time>
      </trkpt>
      <trkpt lat="43.94632" lon="1.86935">
        <ele>207</ele>
        <time>2021-09-26T06:48:41Z</time>
      </trkpt>
      <trkpt lat="43.94626" lon="1.86934">
        <ele>206.8</ele>
        <time>2021-09-26T06:48:42Z</time>
      </trkpt>
      <trkpt lat="43.94622" lon="1.86932">
        <ele>206.8</ele>
        <time>2021-09-26T06:48:43Z</time>
      </trkpt>
      <trkpt lat="43.94604" lon="1.86926">
        <ele>206.2</ele>
        <time>2021-09-26T06:48:46Z</time>
      </trkpt>
      <trkpt lat="43.94592" lon="1.86925">
        <ele>206</ele>
        <time>2021-09-26T06:48:48Z</time>
      </trkpt>
      <trkpt lat="43.94586" lon="1.86925">
        <ele>205.6</ele>
        <time>2021-09-26T06:48:49Z</time>
      </trkpt>
      <trkpt lat="43.94569" lon="1.86918">
        <ele>204.6</ele>
        <time>2021-09-26T06:48:52Z</time>
      </trkpt>
      <trkpt lat="43.94562" lon="1.86915">
        <ele>204.4</ele>
        <time>2021-09-26T06:48:53Z</time>
      </trkpt>
      <trkpt lat="43.94557" lon="1.86914">
        <ele>203.4</ele>
        <time>2021-09-26T06:48:54Z</time>
      </trkpt>
      <trkpt lat="43.94552" lon="1.86913">
        <ele>203</ele>
        <time>2021-09-26T06:48:55Z</time>
      </trkpt>
      <trkpt lat="43.94548" lon="1.86915">
        <ele>202.4</ele>
        <time>2021-09-26T06:48:56Z</time>
      </trkpt>
      <trkpt lat="43.94546" lon="1.86919">
        <ele>202.2</ele>
        <time>2021-09-26T06:48:57Z</time>
      </trkpt>
      <trkpt lat="43.94544" lon="1.86924">
        <ele>201.6</ele>
        <time>2021-09-26T06:48:58Z</time>
      </trkpt>
      <trkpt lat="43.94542" lon="1.86928">
        <ele>201</ele>
        <time>2021-09-26T06:48:59Z</time>
      </trkpt>
      <trkpt lat="43.9454" lon="1.86932">
        <ele>200.8</ele>
        <time>2021-09-26T06:49:00Z</time>
      </trkpt>
      <trkpt lat="43.94538" lon="1.86936">
        <ele>200.4</ele>
        <time>2021-09-26T06:49:01Z</time>
      </trkpt>
      <trkpt lat="43.94529" lon="1.86953">
        <ele>200.2</ele>
        <time>2021-09-26T06:49:05Z</time>
      </trkpt>
      <trkpt lat="43.94527" lon="1.86957">
        <ele>200</ele>
        <time>2021-09-26T06:49:06Z</time>
      </trkpt>
      <trkpt lat="43.94525" lon="1.86962">
        <ele>199.8</ele>
        <time>2021-09-26T06:49:07Z</time>
      </trkpt>
      <trkpt lat="43.94523" lon="1.86966">
        <ele>199.6</ele>
        <time>2021-09-26T06:49:08Z</time>
      </trkpt>
      <trkpt lat="43.94498" lon="1.86999">
        <ele>198.8</ele>
        <time>2021-09-26T06:49:16Z</time>
      </trkpt>
      <trkpt lat="43.94495" lon="1.87003">
        <ele>198.8</ele>
        <time>2021-09-26T06:49:17Z</time>
      </trkpt>
      <trkpt lat="43.94485" lon="1.87016">
        <ele>198.4</ele>
        <time>2021-09-26T06:49:21Z</time>
      </trkpt>
      <trkpt lat="43.94482" lon="1.87019">
        <ele>198.2</ele>
        <time>2021-09-26T06:49:22Z</time>
      </trkpt>
      <trkpt lat="43.94479" lon="1.87023">
        <ele>198</ele>
        <time>2021-09-26T06:49:23Z</time>
      </trkpt>
      <trkpt lat="43.94474" lon="1.87029">
        <ele>197.8</ele>
        <time>2021-09-26T06:49:25Z</time>
      </trkpt>
      <trkpt lat="43.94463" lon="1.87043">
        <ele>197.2</ele>
        <time>2021-09-26T06:49:29Z</time>
      </trkpt>
      <trkpt lat="43.94461" lon="1.87046">
        <ele>197.2</ele>
        <time>2021-09-26T06:49:30Z</time>
      </trkpt>
      <trkpt lat="43.94458" lon="1.87049">
        <ele>197</ele>
        <time>2021-09-26T06:49:31Z</time>
      </trkpt>
      <trkpt lat="43.94449" lon="1.87062">
        <ele>196.8</ele>
        <time>2021-09-26T06:49:35Z</time>
      </trkpt>
      <trkpt lat="43.94446" lon="1.87065">
        <ele>196.8</ele>
        <time>2021-09-26T06:49:36Z</time>
      </trkpt>
      <trkpt lat="43.94443" lon="1.87068">
        <ele>196.8</ele>
        <time>2021-09-26T06:49:37Z</time>
      </trkpt>
      <trkpt lat="43.94438" lon="1.87075">
        <ele>196.6</ele>
        <time>2021-09-26T06:49:39Z</time>
      </trkpt>
      <trkpt lat="43.94433" lon="1.87081">
        <ele>196.6</ele>
        <time>2021-09-26T06:49:41Z</time>
      </trkpt>
      <trkpt lat="43.94412" lon="1.87106">
        <ele>196</ele>
        <time>2021-09-26T06:49:49Z</time>
      </trkpt>
      <trkpt lat="43.94393" lon="1.87124">
        <ele>195.6</ele>
        <time>2021-09-26T06:49:55Z</time>
      </trkpt>
      <trkpt lat="43.94388" lon="1.8713">
        <ele>195.6</ele>
        <time>2021-09-26T06:49:57Z</time>
      </trkpt>
      <trkpt lat="43.94375" lon="1.87147">
        <ele>195.4</ele>
        <time>2021-09-26T06:50:02Z</time>
      </trkpt>
      <trkpt lat="43.94375" lon="1.87151">
        <ele>195.4</ele>
        <time>2021-09-26T06:50:03Z</time>
      </trkpt>
      <trkpt lat="43.94374" lon="1.87156">
        <ele>195.4</ele>
        <time>2021-09-26T06:50:04Z</time>
      </trkpt>
      <trkpt lat="43.94374" lon="1.87161">
        <ele>195.2</ele>
        <time>2021-09-26T06:50:05Z</time>
      </trkpt>
      <trkpt lat="43.94373" lon="1.87166">
        <ele>195.2</ele>
        <time>2021-09-26T06:50:06Z</time>
      </trkpt>
      <trkpt lat="43.94371" lon="1.87187">
        <ele>195</ele>
        <time>2021-09-26T06:50:10Z</time>
      </trkpt>
      <trkpt lat="43.94369" lon="1.87209">
        <ele>194.4</ele>
        <time>2021-09-26T06:50:14Z</time>
      </trkpt>
      <trkpt lat="43.94365" lon="1.87231">
        <ele>194.2</ele>
        <time>2021-09-26T06:50:18Z</time>
      </trkpt>
      <trkpt lat="43.94358" lon="1.87267">
        <ele>193.8</ele>
        <time>2021-09-26T06:50:24Z</time>
      </trkpt>
      <trkpt lat="43.94356" lon="1.87273">
        <ele>193.8</ele>
        <time>2021-09-26T06:50:25Z</time>
      </trkpt>
      <trkpt lat="43.94349" lon="1.8729">
        <ele>193.4</ele>
        <time>2021-09-26T06:50:28Z</time>
      </trkpt>
      <trkpt lat="43.94338" lon="1.87315">
        <ele>193.2</ele>
        <time>2021-09-26T06:50:33Z</time>
      </trkpt>
      <trkpt lat="43.94333" lon="1.87321">
        <ele>193.2</ele>
        <time>2021-09-26T06:50:35Z</time>
      </trkpt>
      <trkpt lat="43.94331" lon="1.87322">
        <ele>193.2</ele>
        <time>2021-09-26T06:50:36Z</time>
      </trkpt>
      <trkpt lat="43.94328" lon="1.87322">
        <ele>193.2</ele>
        <time>2021-09-26T06:50:37Z</time>
      </trkpt>
      <trkpt lat="43.94325" lon="1.87321">
        <ele>193</ele>
        <time>2021-09-26T06:50:38Z</time>
      </trkpt>
      <trkpt lat="43.94322" lon="1.87321">
        <ele>193</ele>
        <time>2021-09-26T06:50:39Z</time>
      </trkpt>
      <trkpt lat="43.9432" lon="1.87324">
        <ele>193</ele>
        <time>2021-09-26T06:50:40Z</time>
      </trkpt>
      <trkpt lat="43.9432" lon="1.87328">
        <ele>193</ele>
        <time>2021-09-26T06:50:41Z</time>
      </trkpt>
      <trkpt lat="43.94321" lon="1.87332">
        <ele>193</ele>
        <time>2021-09-26T06:50:42Z</time>
      </trkpt>
      <trkpt lat="43.94322" lon="1.87336">
        <ele>193</ele>
        <time>2021-09-26T06:50:43Z</time>
      </trkpt>
      <trkpt lat="43.9432" lon="1.87353">
        <ele>192.8</ele>
        <time>2021-09-26T06:50:46Z</time>
      </trkpt>
      <trkpt lat="43.94318" lon="1.87358">
        <ele>192.8</ele>
        <time>2021-09-26T06:50:47Z</time>
      </trkpt>
      <trkpt lat="43.94316" lon="1.87363">
        <ele>192.6</ele>
        <time>2021-09-26T06:50:48Z</time>
      </trkpt>
      <trkpt lat="43.94313" lon="1.87368">
        <ele>192.6</ele>
        <time>2021-09-26T06:50:49Z</time>
      </trkpt>
      <trkpt lat="43.94311" lon="1.87374">
        <ele>192.6</ele>
        <time>2021-09-26T06:50:50Z</time>
      </trkpt>
      <trkpt lat="43.94308" lon="1.87379">
        <ele>192.6</ele>
        <time>2021-09-26T06:50:51Z</time>
      </trkpt>
      <trkpt lat="43.94306" lon="1.87385">
        <ele>192.4</ele>
        <time>2021-09-26T06:50:52Z</time>
      </trkpt>
      <trkpt lat="43.94303" lon="1.87391">
        <ele>192.4</ele>
        <time>2021-09-26T06:50:53Z</time>
      </trkpt>
      <trkpt lat="43.94301" lon="1.87396">
        <ele>192.4</ele>
        <time>2021-09-26T06:50:54Z</time>
      </trkpt>
      <trkpt lat="43.94279" lon="1.87444">
        <ele>192.4</ele>
        <time>2021-09-26T06:51:02Z</time>
      </trkpt>
      <trkpt lat="43.94265" lon="1.87475">
        <ele>191.8</ele>
        <time>2021-09-26T06:51:07Z</time>
      </trkpt>
      <trkpt lat="43.94262" lon="1.87488">
        <ele>191.6</ele>
        <time>2021-09-26T06:51:09Z</time>
      </trkpt>
      <trkpt lat="43.94261" lon="1.87495">
        <ele>191.4</ele>
        <time>2021-09-26T06:51:10Z</time>
      </trkpt>
      <trkpt lat="43.9426" lon="1.87503">
        <ele>191.2</ele>
        <time>2021-09-26T06:51:11Z</time>
      </trkpt>
      <trkpt lat="43.94253" lon="1.87538">
        <ele>190.8</ele>
        <time>2021-09-26T06:51:16Z</time>
      </trkpt>
      <trkpt lat="43.94243" lon="1.87594">
        <ele>190.4</ele>
        <time>2021-09-26T06:51:24Z</time>
      </trkpt>
      <trkpt lat="43.94242" lon="1.87601">
        <ele>190.4</ele>
        <time>2021-09-26T06:51:25Z</time>
      </trkpt>
      <trkpt lat="43.94239" lon="1.87615">
        <ele>190.4</ele>
        <time>2021-09-26T06:51:27Z</time>
      </trkpt>
      <trkpt lat="43.94237" lon="1.87622">
        <ele>190.4</ele>
        <time>2021-09-26T06:51:28Z</time>
      </trkpt>
      <trkpt lat="43.94228" lon="1.87645">
        <ele>190</ele>
        <time>2021-09-26T06:51:32Z</time>
      </trkpt>
      <trkpt lat="43.94226" lon="1.8765">
        <ele>189.8</ele>
        <time>2021-09-26T06:51:33Z</time>
      </trkpt>
      <trkpt lat="43.94223" lon="1.87655">
        <ele>189.6</ele>
        <time>2021-09-26T06:51:34Z</time>
      </trkpt>
      <trkpt lat="43.94221" lon="1.8766">
        <ele>189.2</ele>
        <time>2021-09-26T06:51:35Z</time>
      </trkpt>
      <trkpt lat="43.94219" lon="1.87664">
        <ele>189</ele>
        <time>2021-09-26T06:51:36Z</time>
      </trkpt>
      <trkpt lat="43.94216" lon="1.87669">
        <ele>189</ele>
        <time>2021-09-26T06:51:37Z</time>
      </trkpt>
      <trkpt lat="43.94214" lon="1.87675">
        <ele>188.8</ele>
        <time>2021-09-26T06:51:38Z</time>
      </trkpt>
      <trkpt lat="43.94211" lon="1.87679">
        <ele>188.6</ele>
        <time>2021-09-26T06:51:39Z</time>
      </trkpt>
      <trkpt lat="43.94208" lon="1.87685">
        <ele>188.6</ele>
        <time>2021-09-26T06:51:40Z</time>
      </trkpt>
      <trkpt lat="43.94193" lon="1.87714">
        <ele>188.6</ele>
        <time>2021-09-26T06:51:45Z</time>
      </trkpt>
      <trkpt lat="43.94169" lon="1.8775">
        <ele>188.4</ele>
        <time>2021-09-26T06:51:52Z</time>
      </trkpt>
      <trkpt lat="43.94161" lon="1.87754">
        <ele>188.4</ele>
        <time>2021-09-26T06:51:54Z</time>
      </trkpt>
      <trkpt lat="43.94156" lon="1.87757">
        <ele>188.4</ele>
        <time>2021-09-26T06:51:55Z</time>
      </trkpt>
      <trkpt lat="43.94152" lon="1.87759">
        <ele>188.4</ele>
        <time>2021-09-26T06:51:56Z</time>
      </trkpt>
      <trkpt lat="43.94148" lon="1.87762">
        <ele>188.4</ele>
        <time>2021-09-26T06:51:57Z</time>
      </trkpt>
      <trkpt lat="43.94145" lon="1.87766">
        <ele>188.4</ele>
        <time>2021-09-26T06:51:58Z</time>
      </trkpt>
      <trkpt lat="43.94141" lon="1.8777">
        <ele>188.4</ele>
        <time>2021-09-26T06:51:59Z</time>
      </trkpt>
      <trkpt lat="43.94138" lon="1.87775">
        <ele>188.4</ele>
        <time>2021-09-26T06:52:00Z</time>
      </trkpt>
      <trkpt lat="43.94134" lon="1.87778">
        <ele>188.4</ele>
        <time>2021-09-26T06:52:01Z</time>
      </trkpt>
      <trkpt lat="43.9413" lon="1.87782">
        <ele>188.4</ele>
        <time>2021-09-26T06:52:02Z</time>
      </trkpt>
      <trkpt lat="43.94127" lon="1.87786">
        <ele>188.6</ele>
        <time>2021-09-26T06:52:03Z</time>
      </trkpt>
      <trkpt lat="43.94122" lon="1.87798">
        <ele>188.4</ele>
        <time>2021-09-26T06:52:05Z</time>
      </trkpt>
      <trkpt lat="43.94121" lon="1.87804">
        <ele>188.4</ele>
        <time>2021-09-26T06:52:06Z</time>
      </trkpt>
      <trkpt lat="43.9412" lon="1.87811">
        <ele>188.4</ele>
        <time>2021-09-26T06:52:07Z</time>
      </trkpt>
      <trkpt lat="43.94119" lon="1.87818">
        <ele>188.4</ele>
        <time>2021-09-26T06:52:08Z</time>
      </trkpt>
      <trkpt lat="43.94106" lon="1.87867">
        <ele>188.2</ele>
        <time>2021-09-26T06:52:15Z</time>
      </trkpt>
      <trkpt lat="43.941" lon="1.8788">
        <ele>188.2</ele>
        <time>2021-09-26T06:52:17Z</time>
      </trkpt>
      <trkpt lat="43.94095" lon="1.87892">
        <ele>187.8</ele>
        <time>2021-09-26T06:52:19Z</time>
      </trkpt>
      <trkpt lat="43.94088" lon="1.8791">
        <ele>187.4</ele>
        <time>2021-09-26T06:52:22Z</time>
      </trkpt>
      <trkpt lat="43.94086" lon="1.87917">
        <ele>187.2</ele>
        <time>2021-09-26T06:52:23Z</time>
      </trkpt>
      <trkpt lat="43.94084" lon="1.87923">
        <ele>187.2</ele>
        <time>2021-09-26T06:52:24Z</time>
      </trkpt>
      <trkpt lat="43.94082" lon="1.87929">
        <ele>187.2</ele>
        <time>2021-09-26T06:52:25Z</time>
      </trkpt>
      <trkpt lat="43.94079" lon="1.87934">
        <ele>187.2</ele>
        <time>2021-09-26T06:52:26Z</time>
      </trkpt>
      <trkpt lat="43.94076" lon="1.8794">
        <ele>187</ele>
        <time>2021-09-26T06:52:27Z</time>
      </trkpt>
      <trkpt lat="43.9407" lon="1.87951">
        <ele>186.8</ele>
        <time>2021-09-26T06:52:29Z</time>
      </trkpt>
      <trkpt lat="43.94054" lon="1.87979">
        <ele>186.2</ele>
        <time>2021-09-26T06:52:34Z</time>
      </trkpt>
      <trkpt lat="43.94043" lon="1.88002">
        <ele>186</ele>
        <time>2021-09-26T06:52:38Z</time>
      </trkpt>
      <trkpt lat="43.94037" lon="1.88012">
        <ele>186</ele>
        <time>2021-09-26T06:52:40Z</time>
      </trkpt>
      <trkpt lat="43.94035" lon="1.88017">
        <ele>185.8</ele>
        <time>2021-09-26T06:52:41Z</time>
      </trkpt>
      <trkpt lat="43.94032" lon="1.88021">
        <ele>185.6</ele>
        <time>2021-09-26T06:52:42Z</time>
      </trkpt>
      <trkpt lat="43.9403" lon="1.88024">
        <ele>185.4</ele>
        <time>2021-09-26T06:52:43Z</time>
      </trkpt>
      <trkpt lat="43.94027" lon="1.88028">
        <ele>185.2</ele>
        <time>2021-09-26T06:52:44Z</time>
      </trkpt>
      <trkpt lat="43.94025" lon="1.88032">
        <ele>185</ele>
        <time>2021-09-26T06:52:45Z</time>
      </trkpt>
      <trkpt lat="43.94022" lon="1.88036">
        <ele>184.8</ele>
        <time>2021-09-26T06:52:46Z</time>
      </trkpt>
      <trkpt lat="43.94018" lon="1.88044">
        <ele>184.8</ele>
        <time>2021-09-26T06:52:48Z</time>
      </trkpt>
      <trkpt lat="43.94016" lon="1.88048">
        <ele>184.4</ele>
        <time>2021-09-26T06:52:49Z</time>
      </trkpt>
      <trkpt lat="43.94003" lon="1.88068">
        <ele>183.8</ele>
        <time>2021-09-26T06:52:54Z</time>
      </trkpt>
      <trkpt lat="43.93984" lon="1.88094">
        <ele>183.6</ele>
        <time>2021-09-26T06:53:01Z</time>
      </trkpt>
      <trkpt lat="43.93976" lon="1.88101">
        <ele>183.4</ele>
        <time>2021-09-26T06:53:04Z</time>
      </trkpt>
      <trkpt lat="43.93974" lon="1.88101">
        <ele>183.2</ele>
        <time>2021-09-26T06:53:05Z</time>
      </trkpt>
      <trkpt lat="43.93971" lon="1.88101">
        <ele>183</ele>
        <time>2021-09-26T06:53:06Z</time>
      </trkpt>
      <trkpt lat="43.93968" lon="1.881">
        <ele>183</ele>
        <time>2021-09-26T06:53:07Z</time>
      </trkpt>
      <trkpt lat="43.93966" lon="1.881">
        <ele>183</ele>
        <time>2021-09-26T06:53:08Z</time>
      </trkpt>
      <trkpt lat="43.93963" lon="1.88099">
        <ele>183</ele>
        <time>2021-09-26T06:53:09Z</time>
      </trkpt>
      <trkpt lat="43.93961" lon="1.88098">
        <ele>183</ele>
        <time>2021-09-26T06:53:10Z</time>
      </trkpt>
      <trkpt lat="43.93959" lon="1.88098">
        <ele>183</ele>
        <time>2021-09-26T06:53:11Z</time>
      </trkpt>
      <trkpt lat="43.93956" lon="1.88097">
        <ele>183</ele>
        <time>2021-09-26T06:53:12Z</time>
      </trkpt>
      <trkpt lat="43.93954" lon="1.88096">
        <ele>183</ele>
        <time>2021-09-26T06:53:13Z</time>
      </trkpt>
      <trkpt lat="43.93951" lon="1.88095">
        <ele>183.2</ele>
        <time>2021-09-26T06:53:14Z</time>
      </trkpt>
      <trkpt lat="43.93949" lon="1.88095">
        <ele>183.2</ele>
        <time>2021-09-26T06:53:15Z</time>
      </trkpt>
      <trkpt lat="43.93947" lon="1.88094">
        <ele>183.4</ele>
        <time>2021-09-26T06:53:16Z</time>
      </trkpt>
      <trkpt lat="43.93945" lon="1.88094">
        <ele>183.6</ele>
        <time>2021-09-26T06:53:17Z</time>
      </trkpt>
      <trkpt lat="43.93942" lon="1.88093">
        <ele>183.6</ele>
        <time>2021-09-26T06:53:18Z</time>
      </trkpt>
      <trkpt lat="43.9394" lon="1.88092">
        <ele>183.8</ele>
        <time>2021-09-26T06:53:19Z</time>
      </trkpt>
      <trkpt lat="43.93938" lon="1.88091">
        <ele>184</ele>
        <time>2021-09-26T06:53:20Z</time>
      </trkpt>
      <trkpt lat="43.93936" lon="1.8809">
        <ele>184.2</ele>
        <time>2021-09-26T06:53:21Z</time>
      </trkpt>
      <trkpt lat="43.93933" lon="1.88089">
        <ele>184.6</ele>
        <time>2021-09-26T06:53:22Z</time>
      </trkpt>
      <trkpt lat="43.93926" lon="1.88087">
        <ele>185</ele>
        <time>2021-09-26T06:53:25Z</time>
      </trkpt>
      <trkpt lat="43.93924" lon="1.88087">
        <ele>185.4</ele>
        <time>2021-09-26T06:53:26Z</time>
      </trkpt>
      <trkpt lat="43.93917" lon="1.88084">
        <ele>186.2</ele>
        <time>2021-09-26T06:53:29Z</time>
      </trkpt>
      <trkpt lat="43.93915" lon="1.88083">
        <ele>186.4</ele>
        <time>2021-09-26T06:53:30Z</time>
      </trkpt>
      <trkpt lat="43.93909" lon="1.88079">
        <ele>187.2</ele>
        <time>2021-09-26T06:53:33Z</time>
      </trkpt>
      <trkpt lat="43.93907" lon="1.88078">
        <ele>187.4</ele>
        <time>2021-09-26T06:53:34Z</time>
      </trkpt>
      <trkpt lat="43.93905" lon="1.88076">
        <ele>187.6</ele>
        <time>2021-09-26T06:53:35Z</time>
      </trkpt>
      <trkpt lat="43.93903" lon="1.88074">
        <ele>187.8</ele>
        <time>2021-09-26T06:53:36Z</time>
      </trkpt>
      <trkpt lat="43.93902" lon="1.88072">
        <ele>188</ele>
        <time>2021-09-26T06:53:37Z</time>
      </trkpt>
      <trkpt lat="43.939" lon="1.8807">
        <ele>188.4</ele>
        <time>2021-09-26T06:53:38Z</time>
      </trkpt>
      <trkpt lat="43.93899" lon="1.88068">
        <ele>188.4</ele>
        <time>2021-09-26T06:53:39Z</time>
      </trkpt>
      <trkpt lat="43.93897" lon="1.88065">
        <ele>189</ele>
        <time>2021-09-26T06:53:40Z</time>
      </trkpt>
      <trkpt lat="43.93896" lon="1.88063">
        <ele>189.2</ele>
        <time>2021-09-26T06:53:41Z</time>
      </trkpt>
      <trkpt lat="43.93895" lon="1.88061">
        <ele>189.4</ele>
        <time>2021-09-26T06:53:42Z</time>
      </trkpt>
      <trkpt lat="43.93894" lon="1.88058">
        <ele>189.8</ele>
        <time>2021-09-26T06:53:43Z</time>
      </trkpt>
      <trkpt lat="43.93893" lon="1.88055">
        <ele>190</ele>
        <time>2021-09-26T06:53:44Z</time>
      </trkpt>
      <trkpt lat="43.93892" lon="1.88053">
        <ele>190.4</ele>
        <time>2021-09-26T06:53:45Z</time>
      </trkpt>
      <trkpt lat="43.93891" lon="1.88052">
        <ele>190.4</ele>
        <time>2021-09-26T06:53:46Z</time>
      </trkpt>
      <trkpt lat="43.9389" lon="1.8805">
        <ele>190.8</ele>
        <time>2021-09-26T06:53:47Z</time>
      </trkpt>
      <trkpt lat="43.93889" lon="1.88048">
        <ele>191</ele>
        <time>2021-09-26T06:53:48Z</time>
      </trkpt>
      <trkpt lat="43.93888" lon="1.88045">
        <ele>191</ele>
        <time>2021-09-26T06:53:49Z</time>
      </trkpt>
      <trkpt lat="43.93887" lon="1.88043">
        <ele>191.4</ele>
        <time>2021-09-26T06:53:50Z</time>
      </trkpt>
      <trkpt lat="43.93886" lon="1.88041">
        <ele>191.6</ele>
        <time>2021-09-26T06:53:51Z</time>
      </trkpt>
      <trkpt lat="43.93884" lon="1.88039">
        <ele>191.8</ele>
        <time>2021-09-26T06:53:52Z</time>
      </trkpt>
      <trkpt lat="43.93883" lon="1.88036">
        <ele>192</ele>
        <time>2021-09-26T06:53:53Z</time>
      </trkpt>
      <trkpt lat="43.93882" lon="1.88034">
        <ele>192.2</ele>
        <time>2021-09-26T06:53:54Z</time>
      </trkpt>
      <trkpt lat="43.93881" lon="1.88032">
        <ele>192.2</ele>
        <time>2021-09-26T06:53:55Z</time>
      </trkpt>
      <trkpt lat="43.93879" lon="1.8803">
        <ele>192.4</ele>
        <time>2021-09-26T06:53:56Z</time>
      </trkpt>
      <trkpt lat="43.93878" lon="1.88028">
        <ele>192.6</ele>
        <time>2021-09-26T06:53:57Z</time>
      </trkpt>
      <trkpt lat="43.93877" lon="1.88025">
        <ele>193</ele>
        <time>2021-09-26T06:53:58Z</time>
      </trkpt>
      <trkpt lat="43.93876" lon="1.88023">
        <ele>193.6</ele>
        <time>2021-09-26T06:53:59Z</time>
      </trkpt>
      <trkpt lat="43.93875" lon="1.88021">
        <ele>193.6</ele>
        <time>2021-09-26T06:54:00Z</time>
      </trkpt>
      <trkpt lat="43.93873" lon="1.88019">
        <ele>194</ele>
        <time>2021-09-26T06:54:01Z</time>
      </trkpt>
      <trkpt lat="43.93872" lon="1.88016">
        <ele>194.2</ele>
        <time>2021-09-26T06:54:02Z</time>
      </trkpt>
      <trkpt lat="43.93871" lon="1.88014">
        <ele>194.4</ele>
        <time>2021-09-26T06:54:03Z</time>
      </trkpt>
      <trkpt lat="43.9387" lon="1.88012">
        <ele>194.8</ele>
        <time>2021-09-26T06:54:04Z</time>
      </trkpt>
      <trkpt lat="43.93869" lon="1.8801">
        <ele>195</ele>
        <time>2021-09-26T06:54:05Z</time>
      </trkpt>
      <trkpt lat="43.93867" lon="1.88007">
        <ele>195.4</ele>
        <time>2021-09-26T06:54:06Z</time>
      </trkpt>
      <trkpt lat="43.93866" lon="1.88005">
        <ele>195.6</ele>
        <time>2021-09-26T06:54:07Z</time>
      </trkpt>
      <trkpt lat="43.93865" lon="1.88003">
        <ele>196</ele>
        <time>2021-09-26T06:54:08Z</time>
      </trkpt>
      <trkpt lat="43.93864" lon="1.88001">
        <ele>196</ele>
        <time>2021-09-26T06:54:09Z</time>
      </trkpt>
      <trkpt lat="43.93863" lon="1.87999">
        <ele>196.4</ele>
        <time>2021-09-26T06:54:10Z</time>
      </trkpt>
      <trkpt lat="43.93862" lon="1.87997">
        <ele>196.8</ele>
        <time>2021-09-26T06:54:11Z</time>
      </trkpt>
      <trkpt lat="43.9386" lon="1.87995">
        <ele>197</ele>
        <time>2021-09-26T06:54:12Z</time>
      </trkpt>
      <trkpt lat="43.93859" lon="1.87992">
        <ele>197.2</ele>
        <time>2021-09-26T06:54:13Z</time>
      </trkpt>
      <trkpt lat="43.93858" lon="1.8799">
        <ele>197.4</ele>
        <time>2021-09-26T06:54:14Z</time>
      </trkpt>
      <trkpt lat="43.93857" lon="1.87987">
        <ele>197.6</ele>
        <time>2021-09-26T06:54:15Z</time>
      </trkpt>
      <trkpt lat="43.93856" lon="1.87985">
        <ele>197.8</ele>
        <time>2021-09-26T06:54:16Z</time>
      </trkpt>
      <trkpt lat="43.93854" lon="1.87983">
        <ele>198</ele>
        <time>2021-09-26T06:54:17Z</time>
      </trkpt>
      <trkpt lat="43.93853" lon="1.87981">
        <ele>198.2</ele>
        <time>2021-09-26T06:54:18Z</time>
      </trkpt>
      <trkpt lat="43.93851" lon="1.87979">
        <ele>198.4</ele>
        <time>2021-09-26T06:54:19Z</time>
      </trkpt>
      <trkpt lat="43.9385" lon="1.87977">
        <ele>198.6</ele>
        <time>2021-09-26T06:54:20Z</time>
      </trkpt>
      <trkpt lat="43.93848" lon="1.87975">
        <ele>198.8</ele>
        <time>2021-09-26T06:54:21Z</time>
      </trkpt>
      <trkpt lat="43.93847" lon="1.87973">
        <ele>199.2</ele>
        <time>2021-09-26T06:54:22Z</time>
      </trkpt>
      <trkpt lat="43.93846" lon="1.87971">
        <ele>199.4</ele>
        <time>2021-09-26T06:54:23Z</time>
      </trkpt>
      <trkpt lat="43.93844" lon="1.87969">
        <ele>199.6</ele>
        <time>2021-09-26T06:54:24Z</time>
      </trkpt>
      <trkpt lat="43.93842" lon="1.87967">
        <ele>199.8</ele>
        <time>2021-09-26T06:54:25Z</time>
      </trkpt>
      <trkpt lat="43.93841" lon="1.87966">
        <ele>200.2</ele>
        <time>2021-09-26T06:54:26Z</time>
      </trkpt>
      <trkpt lat="43.93839" lon="1.87965">
        <ele>200.4</ele>
        <time>2021-09-26T06:54:27Z</time>
      </trkpt>
      <trkpt lat="43.93838" lon="1.87964">
        <ele>200.6</ele>
        <time>2021-09-26T06:54:28Z</time>
      </trkpt>
      <trkpt lat="43.93837" lon="1.87964">
        <ele>201</ele>
        <time>2021-09-26T06:54:29Z</time>
      </trkpt>
      <trkpt lat="43.93835" lon="1.87964">
        <ele>201.2</ele>
        <time>2021-09-26T06:54:30Z</time>
      </trkpt>
      <trkpt lat="43.93834" lon="1.87965">
        <ele>201.6</ele>
        <time>2021-09-26T06:54:31Z</time>
      </trkpt>
      <trkpt lat="43.93832" lon="1.87966">
        <ele>201.8</ele>
        <time>2021-09-26T06:54:32Z</time>
      </trkpt>
      <trkpt lat="43.93831" lon="1.87967">
        <ele>202</ele>
        <time>2021-09-26T06:54:33Z</time>
      </trkpt>
      <trkpt lat="43.9383" lon="1.87969">
        <ele>202.2</ele>
        <time>2021-09-26T06:54:34Z</time>
      </trkpt>
      <trkpt lat="43.93828" lon="1.87971">
        <ele>202.2</ele>
        <time>2021-09-26T06:54:35Z</time>
      </trkpt>
      <trkpt lat="43.93827" lon="1.87973">
        <ele>202.4</ele>
        <time>2021-09-26T06:54:36Z</time>
      </trkpt>
      <trkpt lat="43.93826" lon="1.87974">
        <ele>202.4</ele>
        <time>2021-09-26T06:54:37Z</time>
      </trkpt>
      <trkpt lat="43.93824" lon="1.87976">
        <ele>202.4</ele>
        <time>2021-09-26T06:54:38Z</time>
      </trkpt>
      <trkpt lat="43.93822" lon="1.87979">
        <ele>202.6</ele>
        <time>2021-09-26T06:54:39Z</time>
      </trkpt>
      <trkpt lat="43.93821" lon="1.87981">
        <ele>202.6</ele>
        <time>2021-09-26T06:54:40Z</time>
      </trkpt>
      <trkpt lat="43.93819" lon="1.87984">
        <ele>202.6</ele>
        <time>2021-09-26T06:54:41Z</time>
      </trkpt>
      <trkpt lat="43.93817" lon="1.87986">
        <ele>202.6</ele>
        <time>2021-09-26T06:54:42Z</time>
      </trkpt>
      <trkpt lat="43.93816" lon="1.87989">
        <ele>202.6</ele>
        <time>2021-09-26T06:54:43Z</time>
      </trkpt>
      <trkpt lat="43.93814" lon="1.87991">
        <ele>202.6</ele>
        <time>2021-09-26T06:54:44Z</time>
      </trkpt>
      <trkpt lat="43.93812" lon="1.87994">
        <ele>202.6</ele>
        <time>2021-09-26T06:54:45Z</time>
      </trkpt>
      <trkpt lat="43.93809" lon="1.87997">
        <ele>202.6</ele>
        <time>2021-09-26T06:54:46Z</time>
      </trkpt>
      <trkpt lat="43.93808" lon="1.87999">
        <ele>202.6</ele>
        <time>2021-09-26T06:54:47Z</time>
      </trkpt>
      <trkpt lat="43.93805" lon="1.88002">
        <ele>202.6</ele>
        <time>2021-09-26T06:54:48Z</time>
      </trkpt>
      <trkpt lat="43.93803" lon="1.88005">
        <ele>202.6</ele>
        <time>2021-09-26T06:54:49Z</time>
      </trkpt>
      <trkpt lat="43.93801" lon="1.88008">
        <ele>202.6</ele>
        <time>2021-09-26T06:54:50Z</time>
      </trkpt>
      <trkpt lat="43.93798" lon="1.88012">
        <ele>202.6</ele>
        <time>2021-09-26T06:54:51Z</time>
      </trkpt>
      <trkpt lat="43.93796" lon="1.88016">
        <ele>202.6</ele>
        <time>2021-09-26T06:54:52Z</time>
      </trkpt>
      <trkpt lat="43.93793" lon="1.88019">
        <ele>202.6</ele>
        <time>2021-09-26T06:54:53Z</time>
      </trkpt>
      <trkpt lat="43.93791" lon="1.88023">
        <ele>202.6</ele>
        <time>2021-09-26T06:54:54Z</time>
      </trkpt>
      <trkpt lat="43.93788" lon="1.88027">
        <ele>202.6</ele>
        <time>2021-09-26T06:54:55Z</time>
      </trkpt>
      <trkpt lat="43.93766" lon="1.88057">
        <ele>202.6</ele>
        <time>2021-09-26T06:55:03Z</time>
      </trkpt>
      <trkpt lat="43.93736" lon="1.88097">
        <ele>202.2</ele>
        <time>2021-09-26T06:55:13Z</time>
      </trkpt>
      <trkpt lat="43.93714" lon="1.88123">
        <ele>202</ele>
        <time>2021-09-26T06:55:20Z</time>
      </trkpt>
      <trkpt lat="43.9371" lon="1.88127">
        <ele>202</ele>
        <time>2021-09-26T06:55:21Z</time>
      </trkpt>
      <trkpt lat="43.937" lon="1.88137">
        <ele>201.6</ele>
        <time>2021-09-26T06:55:24Z</time>
      </trkpt>
      <trkpt lat="43.93695" lon="1.8814">
        <ele>201.8</ele>
        <time>2021-09-26T06:55:25Z</time>
      </trkpt>
      <trkpt lat="43.93668" lon="1.8815">
        <ele>201.6</ele>
        <time>2021-09-26T06:55:32Z</time>
      </trkpt>
      <trkpt lat="43.93664" lon="1.88152">
        <ele>201.6</ele>
        <time>2021-09-26T06:55:33Z</time>
      </trkpt>
      <trkpt lat="43.9366" lon="1.88155">
        <ele>201.4</ele>
        <time>2021-09-26T06:55:34Z</time>
      </trkpt>
      <trkpt lat="43.93649" lon="1.88164">
        <ele>201.2</ele>
        <time>2021-09-26T06:55:37Z</time>
      </trkpt>
      <trkpt lat="43.93645" lon="1.88168">
        <ele>200.8</ele>
        <time>2021-09-26T06:55:38Z</time>
      </trkpt>
      <trkpt lat="43.93641" lon="1.88172">
        <ele>200.6</ele>
        <time>2021-09-26T06:55:39Z</time>
      </trkpt>
      <trkpt lat="43.93634" lon="1.88181">
        <ele>200</ele>
        <time>2021-09-26T06:55:41Z</time>
      </trkpt>
      <trkpt lat="43.93621" lon="1.88199">
        <ele>199</ele>
        <time>2021-09-26T06:55:45Z</time>
      </trkpt>
      <trkpt lat="43.93618" lon="1.88204">
        <ele>198.6</ele>
        <time>2021-09-26T06:55:46Z</time>
      </trkpt>
      <trkpt lat="43.93614" lon="1.88209">
        <ele>197.8</ele>
        <time>2021-09-26T06:55:47Z</time>
      </trkpt>
      <trkpt lat="43.93604" lon="1.88224">
        <ele>196.6</ele>
        <time>2021-09-26T06:55:50Z</time>
      </trkpt>
      <trkpt lat="43.93597" lon="1.88235">
        <ele>195.4</ele>
        <time>2021-09-26T06:55:52Z</time>
      </trkpt>
      <trkpt lat="43.93594" lon="1.88241">
        <ele>195</ele>
        <time>2021-09-26T06:55:53Z</time>
      </trkpt>
      <trkpt lat="43.9359" lon="1.88254">
        <ele>194.2</ele>
        <time>2021-09-26T06:55:55Z</time>
      </trkpt>
      <trkpt lat="43.93587" lon="1.88261">
        <ele>194</ele>
        <time>2021-09-26T06:55:56Z</time>
      </trkpt>
      <trkpt lat="43.93584" lon="1.88279">
        <ele>193</ele>
        <time>2021-09-26T06:55:59Z</time>
      </trkpt>
      <trkpt lat="43.93582" lon="1.88297">
        <ele>191.6</ele>
        <time>2021-09-26T06:56:02Z</time>
      </trkpt>
      <trkpt lat="43.93581" lon="1.88301">
        <ele>191.4</ele>
        <time>2021-09-26T06:56:03Z</time>
      </trkpt>
      <trkpt lat="43.93581" lon="1.88305">
        <ele>190.8</ele>
        <time>2021-09-26T06:56:04Z</time>
      </trkpt>
      <trkpt lat="43.9358" lon="1.88307">
        <ele>190.8</ele>
        <time>2021-09-26T06:56:05Z</time>
      </trkpt>
      <trkpt lat="43.9358" lon="1.88308">
        <ele>190.4</ele>
        <time>2021-09-26T06:56:06Z</time>
      </trkpt>
      <trkpt lat="43.9358" lon="1.88308">
        <ele>190.2</ele>
        <time>2021-09-26T06:56:07Z</time>
      </trkpt>
      <trkpt lat="43.9358" lon="1.88308">
        <ele>190</ele>
        <time>2021-09-26T06:56:08Z</time>
      </trkpt>
      <trkpt lat="43.93576" lon="1.88311">
        <ele>188.2</ele>
        <time>2021-09-26T07:05:05Z</time>
      </trkpt>
      <trkpt lat="43.93576" lon="1.88312">
        <ele>188</ele>
        <time>2021-09-26T07:05:06Z</time>
      </trkpt>
      <trkpt lat="43.93576" lon="1.88313">
        <ele>188</ele>
        <time>2021-09-26T07:05:08Z</time>
      </trkpt>
      <trkpt lat="43.93574" lon="1.88314">
        <ele>187.4</ele>
        <time>2021-09-26T07:05:15Z</time>
      </trkpt>
      <trkpt lat="43.93573" lon="1.88316">
        <ele>187.4</ele>
        <time>2021-09-26T07:05:16Z</time>
      </trkpt>
      <trkpt lat="43.93572" lon="1.88317">
        <ele>187.4</ele>
        <time>2021-09-26T07:05:17Z</time>
      </trkpt>
      <trkpt lat="43.93572" lon="1.88317">
        <ele>187.2</ele>
        <time>2021-09-26T07:05:18Z</time>
      </trkpt>
      <trkpt lat="43.93572" lon="1.88317">
        <ele>187.2</ele>
        <time>2021-09-26T07:05:19Z</time>
      </trkpt>
      <trkpt lat="43.9357" lon="1.8832">
        <ele>186.6</ele>
        <time>2021-09-26T07:05:34Z</time>
      </trkpt>
      <trkpt lat="43.93568" lon="1.88326">
        <ele>186.6</ele>
        <time>2021-09-26T07:05:36Z</time>
      </trkpt>
      <trkpt lat="43.93567" lon="1.88329">
        <ele>186.6</ele>
        <time>2021-09-26T07:05:37Z</time>
      </trkpt>
      <trkpt lat="43.93562" lon="1.88343">
        <ele>186.6</ele>
        <time>2021-09-26T07:05:41Z</time>
      </trkpt>
      <trkpt lat="43.93559" lon="1.8835">
        <ele>186.6</ele>
        <time>2021-09-26T07:05:43Z</time>
      </trkpt>
      <trkpt lat="43.93552" lon="1.88375">
        <ele>186.6</ele>
        <time>2021-09-26T07:05:49Z</time>
      </trkpt>
      <trkpt lat="43.93549" lon="1.88388">
        <ele>186.6</ele>
        <time>2021-09-26T07:05:52Z</time>
      </trkpt>
      <trkpt lat="43.93548" lon="1.88392">
        <ele>186.6</ele>
        <time>2021-09-26T07:05:53Z</time>
      </trkpt>
      <trkpt lat="43.93541" lon="1.88417">
        <ele>186</ele>
        <time>2021-09-26T07:05:58Z</time>
      </trkpt>
      <trkpt lat="43.93539" lon="1.88431">
        <ele>185.6</ele>
        <time>2021-09-26T07:06:00Z</time>
      </trkpt>
      <trkpt lat="43.93534" lon="1.88455">
        <ele>185</ele>
        <time>2021-09-26T07:06:03Z</time>
      </trkpt>
      <trkpt lat="43.9353" lon="1.88474">
        <ele>184.6</ele>
        <time>2021-09-26T07:06:05Z</time>
      </trkpt>
      <trkpt lat="43.93524" lon="1.88492">
        <ele>183.2</ele>
        <time>2021-09-26T07:06:07Z</time>
      </trkpt>
      <trkpt lat="43.9352" lon="1.885">
        <ele>183</ele>
        <time>2021-09-26T07:06:08Z</time>
      </trkpt>
      <trkpt lat="43.93516" lon="1.88508">
        <ele>182.6</ele>
        <time>2021-09-26T07:06:09Z</time>
      </trkpt>
      <trkpt lat="43.93512" lon="1.88516">
        <ele>181.8</ele>
        <time>2021-09-26T07:06:10Z</time>
      </trkpt>
      <trkpt lat="43.93504" lon="1.88532">
        <ele>180.8</ele>
        <time>2021-09-26T07:06:12Z</time>
      </trkpt>
      <trkpt lat="43.93495" lon="1.88548">
        <ele>179.8</ele>
        <time>2021-09-26T07:06:14Z</time>
      </trkpt>
      <trkpt lat="43.9349" lon="1.88555">
        <ele>179.4</ele>
        <time>2021-09-26T07:06:15Z</time>
      </trkpt>
      <trkpt lat="43.9348" lon="1.88571">
        <ele>178.4</ele>
        <time>2021-09-26T07:06:17Z</time>
      </trkpt>
      <trkpt lat="43.9347" lon="1.88589">
        <ele>177</ele>
        <time>2021-09-26T07:06:19Z</time>
      </trkpt>
      <trkpt lat="43.93464" lon="1.88597">
        <ele>176.8</ele>
        <time>2021-09-26T07:06:20Z</time>
      </trkpt>
      <trkpt lat="43.93458" lon="1.88604">
        <ele>176.2</ele>
        <time>2021-09-26T07:06:21Z</time>
      </trkpt>
      <trkpt lat="43.93444" lon="1.88612">
        <ele>175.8</ele>
        <time>2021-09-26T07:06:23Z</time>
      </trkpt>
      <trkpt lat="43.93437" lon="1.88615">
        <ele>175.6</ele>
        <time>2021-09-26T07:06:24Z</time>
      </trkpt>
      <trkpt lat="43.9343" lon="1.88617">
        <ele>175.4</ele>
        <time>2021-09-26T07:06:25Z</time>
      </trkpt>
      <trkpt lat="43.93423" lon="1.88618">
        <ele>175</ele>
        <time>2021-09-26T07:06:26Z</time>
      </trkpt>
      <trkpt lat="43.93416" lon="1.8862">
        <ele>174.8</ele>
        <time>2021-09-26T07:06:27Z</time>
      </trkpt>
      <trkpt lat="43.9341" lon="1.88621">
        <ele>174.2</ele>
        <time>2021-09-26T07:06:28Z</time>
      </trkpt>
      <trkpt lat="43.93396" lon="1.88623">
        <ele>173.4</ele>
        <time>2021-09-26T07:06:30Z</time>
      </trkpt>
      <trkpt lat="43.9339" lon="1.88624">
        <ele>173.4</ele>
        <time>2021-09-26T07:06:31Z</time>
      </trkpt>
      <trkpt lat="43.93383" lon="1.88624">
        <ele>173</ele>
        <time>2021-09-26T07:06:32Z</time>
      </trkpt>
      <trkpt lat="43.93377" lon="1.88624">
        <ele>172.8</ele>
        <time>2021-09-26T07:06:33Z</time>
      </trkpt>
      <trkpt lat="43.93371" lon="1.88623">
        <ele>172.6</ele>
        <time>2021-09-26T07:06:34Z</time>
      </trkpt>
      <trkpt lat="43.93365" lon="1.88622">
        <ele>172.4</ele>
        <time>2021-09-26T07:06:35Z</time>
      </trkpt>
      <trkpt lat="43.93359" lon="1.8862">
        <ele>172.2</ele>
        <time>2021-09-26T07:06:36Z</time>
      </trkpt>
      <trkpt lat="43.93353" lon="1.88618">
        <ele>171.8</ele>
        <time>2021-09-26T07:06:37Z</time>
      </trkpt>
      <trkpt lat="43.93348" lon="1.88615">
        <ele>171.2</ele>
        <time>2021-09-26T07:06:38Z</time>
      </trkpt>
      <trkpt lat="43.93342" lon="1.88612">
        <ele>170.6</ele>
        <time>2021-09-26T07:06:39Z</time>
      </trkpt>
      <trkpt lat="43.93337" lon="1.88609">
        <ele>170.2</ele>
        <time>2021-09-26T07:06:40Z</time>
      </trkpt>
      <trkpt lat="43.93332" lon="1.88606">
        <ele>170.2</ele>
        <time>2021-09-26T07:06:41Z</time>
      </trkpt>
      <trkpt lat="43.93327" lon="1.88603">
        <ele>169.6</ele>
        <time>2021-09-26T07:06:42Z</time>
      </trkpt>
      <trkpt lat="43.93322" lon="1.886">
        <ele>169.6</ele>
        <time>2021-09-26T07:06:43Z</time>
      </trkpt>
      <trkpt lat="43.93318" lon="1.88597">
        <ele>169.4</ele>
        <time>2021-09-26T07:06:44Z</time>
      </trkpt>
      <trkpt lat="43.93314" lon="1.88594">
        <ele>169.2</ele>
        <time>2021-09-26T07:06:45Z</time>
      </trkpt>
      <trkpt lat="43.93309" lon="1.88592">
        <ele>168.8</ele>
        <time>2021-09-26T07:06:46Z</time>
      </trkpt>
      <trkpt lat="43.93305" lon="1.8859">
        <ele>168.6</ele>
        <time>2021-09-26T07:06:47Z</time>
      </trkpt>
      <trkpt lat="43.93301" lon="1.8859">
        <ele>168.6</ele>
        <time>2021-09-26T07:06:48Z</time>
      </trkpt>
      <trkpt lat="43.93298" lon="1.8859">
        <ele>168.6</ele>
        <time>2021-09-26T07:06:49Z</time>
      </trkpt>
      <trkpt lat="43.93295" lon="1.88591">
        <ele>168.4</ele>
        <time>2021-09-26T07:06:50Z</time>
      </trkpt>
      <trkpt lat="43.93293" lon="1.88592">
        <ele>168.4</ele>
        <time>2021-09-26T07:06:51Z</time>
      </trkpt>
      <trkpt lat="43.9329" lon="1.88593">
        <ele>168.4</ele>
        <time>2021-09-26T07:06:52Z</time>
      </trkpt>
      <trkpt lat="43.93287" lon="1.88593">
        <ele>168.4</ele>
        <time>2021-09-26T07:06:53Z</time>
      </trkpt>
      <trkpt lat="43.93278" lon="1.88596">
        <ele>168.4</ele>
        <time>2021-09-26T07:06:56Z</time>
      </trkpt>
      <trkpt lat="43.93273" lon="1.886">
        <ele>168.4</ele>
        <time>2021-09-26T07:06:58Z</time>
      </trkpt>
      <trkpt lat="43.93271" lon="1.88602">
        <ele>168.4</ele>
        <time>2021-09-26T07:06:59Z</time>
      </trkpt>
      <trkpt lat="43.93269" lon="1.88605">
        <ele>168.2</ele>
        <time>2021-09-26T07:07:00Z</time>
      </trkpt>
      <trkpt lat="43.93267" lon="1.88607">
        <ele>168</ele>
        <time>2021-09-26T07:07:01Z</time>
      </trkpt>
      <trkpt lat="43.93266" lon="1.8861">
        <ele>168</ele>
        <time>2021-09-26T07:07:02Z</time>
      </trkpt>
      <trkpt lat="43.93265" lon="1.88613">
        <ele>167.8</ele>
        <time>2021-09-26T07:07:03Z</time>
      </trkpt>
      <trkpt lat="43.93264" lon="1.88615">
        <ele>167.8</ele>
        <time>2021-09-26T07:07:04Z</time>
      </trkpt>
      <trkpt lat="43.93263" lon="1.88616">
        <ele>167.8</ele>
        <time>2021-09-26T07:07:05Z</time>
      </trkpt>
      <trkpt lat="43.93263" lon="1.88616">
        <ele>167.8</ele>
        <time>2021-09-26T07:07:06Z</time>
      </trkpt>
      <trkpt lat="43.93263" lon="1.88616">
        <ele>167.8</ele>
        <time>2021-09-26T07:07:07Z</time>
      </trkpt>
      <trkpt lat="43.93262" lon="1.8862">
        <ele>166</ele>
        <time>2021-09-26T07:07:24Z</time>
      </trkpt>
      <trkpt lat="43.93258" lon="1.88631">
        <ele>167.4</ele>
        <time>2021-09-26T07:07:27Z</time>
      </trkpt>
      <trkpt lat="43.93252" lon="1.88648">
        <ele>167.4</ele>
        <time>2021-09-26T07:07:30Z</time>
      </trkpt>
      <trkpt lat="43.93247" lon="1.88659">
        <ele>167.4</ele>
        <time>2021-09-26T07:07:32Z</time>
      </trkpt>
      <trkpt lat="43.93244" lon="1.88664">
        <ele>167.4</ele>
        <time>2021-09-26T07:07:33Z</time>
      </trkpt>
      <trkpt lat="43.93227" lon="1.88694">
        <ele>167.4</ele>
        <time>2021-09-26T07:07:39Z</time>
      </trkpt>
      <trkpt lat="43.93222" lon="1.88705">
        <ele>167.4</ele>
        <time>2021-09-26T07:07:41Z</time>
      </trkpt>
      <trkpt lat="43.93219" lon="1.88711">
        <ele>167.2</ele>
        <time>2021-09-26T07:07:42Z</time>
      </trkpt>
      <trkpt lat="43.93207" lon="1.88735">
        <ele>167</ele>
        <time>2021-09-26T07:07:46Z</time>
      </trkpt>
      <trkpt lat="43.93185" lon="1.8879">
        <ele>166.8</ele>
        <time>2021-09-26T07:07:54Z</time>
      </trkpt>
      <trkpt lat="43.93176" lon="1.8881">
        <ele>166.2</ele>
        <time>2021-09-26T07:07:57Z</time>
      </trkpt>
      <trkpt lat="43.93169" lon="1.8883">
        <ele>165.8</ele>
        <time>2021-09-26T07:08:00Z</time>
      </trkpt>
      <trkpt lat="43.93167" lon="1.88837">
        <ele>165.8</ele>
        <time>2021-09-26T07:08:01Z</time>
      </trkpt>
      <trkpt lat="43.93164" lon="1.88843">
        <ele>165.8</ele>
        <time>2021-09-26T07:08:02Z</time>
      </trkpt>
      <trkpt lat="43.93151" lon="1.88864">
        <ele>165.2</ele>
        <time>2021-09-26T07:08:06Z</time>
      </trkpt>
      <trkpt lat="43.93148" lon="1.88869">
        <ele>165.2</ele>
        <time>2021-09-26T07:08:07Z</time>
      </trkpt>
      <trkpt lat="43.93146" lon="1.88874">
        <ele>165.2</ele>
        <time>2021-09-26T07:08:08Z</time>
      </trkpt>
      <trkpt lat="43.93144" lon="1.8888">
        <ele>165.2</ele>
        <time>2021-09-26T07:08:09Z</time>
      </trkpt>
      <trkpt lat="43.93142" lon="1.88886">
        <ele>165.2</ele>
        <time>2021-09-26T07:08:10Z</time>
      </trkpt>
      <trkpt lat="43.9314" lon="1.88893">
        <ele>165.2</ele>
        <time>2021-09-26T07:08:11Z</time>
      </trkpt>
      <trkpt lat="43.93138" lon="1.88897">
        <ele>165.2</ele>
        <time>2021-09-26T07:08:12Z</time>
      </trkpt>
      <trkpt lat="43.93136" lon="1.88899">
        <ele>165.2</ele>
        <time>2021-09-26T07:08:13Z</time>
      </trkpt>
      <trkpt lat="43.93132" lon="1.889">
        <ele>165</ele>
        <time>2021-09-26T07:08:14Z</time>
      </trkpt>
      <trkpt lat="43.93129" lon="1.88899">
        <ele>165</ele>
        <time>2021-09-26T07:08:15Z</time>
      </trkpt>
      <trkpt lat="43.93126" lon="1.88897">
        <ele>165</ele>
        <time>2021-09-26T07:08:16Z</time>
      </trkpt>
      <trkpt lat="43.9312" lon="1.88893">
        <ele>165</ele>
        <time>2021-09-26T07:08:18Z</time>
      </trkpt>
      <trkpt lat="43.93117" lon="1.88892">
        <ele>165</ele>
        <time>2021-09-26T07:08:19Z</time>
      </trkpt>
      <trkpt lat="43.93114" lon="1.88892">
        <ele>165</ele>
        <time>2021-09-26T07:08:20Z</time>
      </trkpt>
      <trkpt lat="43.9311" lon="1.88891">
        <ele>165</ele>
        <time>2021-09-26T07:08:21Z</time>
      </trkpt>
      <trkpt lat="43.93102" lon="1.88891">
        <ele>165</ele>
        <time>2021-09-26T07:08:23Z</time>
      </trkpt>
      <trkpt lat="43.9308" lon="1.88896">
        <ele>165</ele>
        <time>2021-09-26T07:08:29Z</time>
      </trkpt>
      <trkpt lat="43.93062" lon="1.889">
        <ele>165.2</ele>
        <time>2021-09-26T07:08:34Z</time>
      </trkpt>
      <trkpt lat="43.93058" lon="1.88901">
        <ele>165.4</ele>
        <time>2021-09-26T07:08:35Z</time>
      </trkpt>
      <trkpt lat="43.93055" lon="1.88902">
        <ele>165.4</ele>
        <time>2021-09-26T07:08:36Z</time>
      </trkpt>
      <trkpt lat="43.93051" lon="1.88902">
        <ele>165.4</ele>
        <time>2021-09-26T07:08:37Z</time>
      </trkpt>
      <trkpt lat="43.93047" lon="1.88903">
        <ele>165.6</ele>
        <time>2021-09-26T07:08:38Z</time>
      </trkpt>
      <trkpt lat="43.93044" lon="1.88903">
        <ele>165.8</ele>
        <time>2021-09-26T07:08:39Z</time>
      </trkpt>
      <trkpt lat="43.93041" lon="1.88903">
        <ele>166</ele>
        <time>2021-09-26T07:08:40Z</time>
      </trkpt>
      <trkpt lat="43.93036" lon="1.88904">
        <ele>166.2</ele>
        <time>2021-09-26T07:08:41Z</time>
      </trkpt>
      <trkpt lat="43.93007" lon="1.88905">
        <ele>166.8</ele>
        <time>2021-09-26T07:08:48Z</time>
      </trkpt>
      <trkpt lat="43.92994" lon="1.88905">
        <ele>167.2</ele>
        <time>2021-09-26T07:08:51Z</time>
      </trkpt>
      <trkpt lat="43.92976" lon="1.88906">
        <ele>167.6</ele>
        <time>2021-09-26T07:08:55Z</time>
      </trkpt>
      <trkpt lat="43.92959" lon="1.88905">
        <ele>167.6</ele>
        <time>2021-09-26T07:08:59Z</time>
      </trkpt>
      <trkpt lat="43.92955" lon="1.88905">
        <ele>167.6</ele>
        <time>2021-09-26T07:09:00Z</time>
      </trkpt>
      <trkpt lat="43.92948" lon="1.88904">
        <ele>167.8</ele>
        <time>2021-09-26T07:09:02Z</time>
      </trkpt>
      <trkpt lat="43.92944" lon="1.88904">
        <ele>167.8</ele>
        <time>2021-09-26T07:09:03Z</time>
      </trkpt>
      <trkpt lat="43.9294" lon="1.88904">
        <ele>167.8</ele>
        <time>2021-09-26T07:09:04Z</time>
      </trkpt>
      <trkpt lat="43.92937" lon="1.88904">
        <ele>168</ele>
        <time>2021-09-26T07:09:05Z</time>
      </trkpt>
      <trkpt lat="43.92934" lon="1.88905">
        <ele>168</ele>
        <time>2021-09-26T07:09:06Z</time>
      </trkpt>
      <trkpt lat="43.9293" lon="1.88905">
        <ele>168</ele>
        <time>2021-09-26T07:09:07Z</time>
      </trkpt>
      <trkpt lat="43.92923" lon="1.88905">
        <ele>168.2</ele>
        <time>2021-09-26T07:09:09Z</time>
      </trkpt>
      <trkpt lat="43.92887" lon="1.88906">
        <ele>167.6</ele>
        <time>2021-09-26T07:09:17Z</time>
      </trkpt>
      <trkpt lat="43.92854" lon="1.88898">
        <ele>166.8</ele>
        <time>2021-09-26T07:09:22Z</time>
      </trkpt>
      <trkpt lat="43.92847" lon="1.88897">
        <ele>166.6</ele>
        <time>2021-09-26T07:09:23Z</time>
      </trkpt>
      <trkpt lat="43.92832" lon="1.88897">
        <ele>165.8</ele>
        <time>2021-09-26T07:09:25Z</time>
      </trkpt>
      <trkpt lat="43.92817" lon="1.88896">
        <ele>165.2</ele>
        <time>2021-09-26T07:09:27Z</time>
      </trkpt>
      <trkpt lat="43.92809" lon="1.88895">
        <ele>164.6</ele>
        <time>2021-09-26T07:09:28Z</time>
      </trkpt>
      <trkpt lat="43.92795" lon="1.88894">
        <ele>163.4</ele>
        <time>2021-09-26T07:09:30Z</time>
      </trkpt>
      <trkpt lat="43.92783" lon="1.88894">
        <ele>162.8</ele>
        <time>2021-09-26T07:09:32Z</time>
      </trkpt>
      <trkpt lat="43.92775" lon="1.88896">
        <ele>162.6</ele>
        <time>2021-09-26T07:09:33Z</time>
      </trkpt>
      <trkpt lat="43.92769" lon="1.88898">
        <ele>162.4</ele>
        <time>2021-09-26T07:09:34Z</time>
      </trkpt>
      <trkpt lat="43.92763" lon="1.88901">
        <ele>162.2</ele>
        <time>2021-09-26T07:09:35Z</time>
      </trkpt>
      <trkpt lat="43.92758" lon="1.88902">
        <ele>162</ele>
        <time>2021-09-26T07:09:36Z</time>
      </trkpt>
      <trkpt lat="43.9275" lon="1.88905">
        <ele>161.6</ele>
        <time>2021-09-26T07:09:37Z</time>
      </trkpt>
      <trkpt lat="43.92744" lon="1.88907">
        <ele>161.4</ele>
        <time>2021-09-26T07:09:38Z</time>
      </trkpt>
      <trkpt lat="43.92739" lon="1.88909">
        <ele>161</ele>
        <time>2021-09-26T07:09:39Z</time>
      </trkpt>
      <trkpt lat="43.92734" lon="1.88911">
        <ele>160.8</ele>
        <time>2021-09-26T07:09:40Z</time>
      </trkpt>
      <trkpt lat="43.9273" lon="1.88911">
        <ele>160.8</ele>
        <time>2021-09-26T07:09:41Z</time>
      </trkpt>
      <trkpt lat="43.92726" lon="1.8891">
        <ele>160.6</ele>
        <time>2021-09-26T07:09:42Z</time>
      </trkpt>
      <trkpt lat="43.92723" lon="1.88908">
        <ele>160.6</ele>
        <time>2021-09-26T07:09:43Z</time>
      </trkpt>
      <trkpt lat="43.92721" lon="1.88904">
        <ele>160.4</ele>
        <time>2021-09-26T07:09:44Z</time>
      </trkpt>
      <trkpt lat="43.92719" lon="1.889">
        <ele>160.4</ele>
        <time>2021-09-26T07:09:45Z</time>
      </trkpt>
      <trkpt lat="43.92718" lon="1.88896">
        <ele>160</ele>
        <time>2021-09-26T07:09:46Z</time>
      </trkpt>
      <trkpt lat="43.92716" lon="1.88892">
        <ele>159.8</ele>
        <time>2021-09-26T07:09:47Z</time>
      </trkpt>
      <trkpt lat="43.92713" lon="1.88885">
        <ele>159.6</ele>
        <time>2021-09-26T07:09:49Z</time>
      </trkpt>
      <trkpt lat="43.92712" lon="1.88882">
        <ele>159.6</ele>
        <time>2021-09-26T07:09:50Z</time>
      </trkpt>
      <trkpt lat="43.92711" lon="1.88879">
        <ele>159.6</ele>
        <time>2021-09-26T07:09:51Z</time>
      </trkpt>
      <trkpt lat="43.9271" lon="1.88877">
        <ele>159.6</ele>
        <time>2021-09-26T07:09:52Z</time>
      </trkpt>
      <trkpt lat="43.92709" lon="1.88874">
        <ele>159.6</ele>
        <time>2021-09-26T07:09:53Z</time>
      </trkpt>
      <trkpt lat="43.92708" lon="1.88872">
        <ele>159.4</ele>
        <time>2021-09-26T07:09:54Z</time>
      </trkpt>
      <trkpt lat="43.92707" lon="1.88869">
        <ele>159.4</ele>
        <time>2021-09-26T07:09:55Z</time>
      </trkpt>
      <trkpt lat="43.92703" lon="1.8886">
        <ele>159.4</ele>
        <time>2021-09-26T07:09:58Z</time>
      </trkpt>
      <trkpt lat="43.92702" lon="1.88857">
        <ele>159.4</ele>
        <time>2021-09-26T07:09:59Z</time>
      </trkpt>
      <trkpt lat="43.92701" lon="1.88855">
        <ele>159.4</ele>
        <time>2021-09-26T07:10:00Z</time>
      </trkpt>
      <trkpt lat="43.92695" lon="1.88841">
        <ele>159.4</ele>
        <time>2021-09-26T07:10:04Z</time>
      </trkpt>
      <trkpt lat="43.92691" lon="1.88834">
        <ele>159.4</ele>
        <time>2021-09-26T07:10:06Z</time>
      </trkpt>
      <trkpt lat="43.92679" lon="1.8881">
        <ele>160</ele>
        <time>2021-09-26T07:10:12Z</time>
      </trkpt>
      <trkpt lat="43.92658" lon="1.88782">
        <ele>160.4</ele>
        <time>2021-09-26T07:10:19Z</time>
      </trkpt>
      <trkpt lat="43.92652" lon="1.88774">
        <ele>160.4</ele>
        <time>2021-09-26T07:10:21Z</time>
      </trkpt>
      <trkpt lat="43.92636" lon="1.88755">
        <ele>160.4</ele>
        <time>2021-09-26T07:10:26Z</time>
      </trkpt>
      <trkpt lat="43.92615" lon="1.88733">
        <ele>160.4</ele>
        <time>2021-09-26T07:10:32Z</time>
      </trkpt>
      <trkpt lat="43.92608" lon="1.88725">
        <ele>160.4</ele>
        <time>2021-09-26T07:10:34Z</time>
      </trkpt>
      <trkpt lat="43.92605" lon="1.8872">
        <ele>160.4</ele>
        <time>2021-09-26T07:10:35Z</time>
      </trkpt>
      <trkpt lat="43.92602" lon="1.8871">
        <ele>160.4</ele>
        <time>2021-09-26T07:10:37Z</time>
      </trkpt>
      <trkpt lat="43.92602" lon="1.88704">
        <ele>160.4</ele>
        <time>2021-09-26T07:10:38Z</time>
      </trkpt>
      <trkpt lat="43.92603" lon="1.88699">
        <ele>160.2</ele>
        <time>2021-09-26T07:10:39Z</time>
      </trkpt>
      <trkpt lat="43.92604" lon="1.88695">
        <ele>160.2</ele>
        <time>2021-09-26T07:10:40Z</time>
      </trkpt>
      <trkpt lat="43.92605" lon="1.88691">
        <ele>160.2</ele>
        <time>2021-09-26T07:10:41Z</time>
      </trkpt>
      <trkpt lat="43.92606" lon="1.88686">
        <ele>160.2</ele>
        <time>2021-09-26T07:10:42Z</time>
      </trkpt>
      <trkpt lat="43.92607" lon="1.88682">
        <ele>160</ele>
        <time>2021-09-26T07:10:43Z</time>
      </trkpt>
      <trkpt lat="43.92606" lon="1.88677">
        <ele>160</ele>
        <time>2021-09-26T07:10:44Z</time>
      </trkpt>
      <trkpt lat="43.92605" lon="1.88673">
        <ele>160</ele>
        <time>2021-09-26T07:10:45Z</time>
      </trkpt>
      <trkpt lat="43.92604" lon="1.88669">
        <ele>160</ele>
        <time>2021-09-26T07:10:46Z</time>
      </trkpt>
      <trkpt lat="43.92601" lon="1.88665">
        <ele>160</ele>
        <time>2021-09-26T07:10:47Z</time>
      </trkpt>
      <trkpt lat="43.92599" lon="1.88661">
        <ele>160</ele>
        <time>2021-09-26T07:10:48Z</time>
      </trkpt>
      <trkpt lat="43.92596" lon="1.88656">
        <ele>160</ele>
        <time>2021-09-26T07:10:49Z</time>
      </trkpt>
      <trkpt lat="43.92585" lon="1.88636">
        <ele>160.2</ele>
        <time>2021-09-26T07:10:53Z</time>
      </trkpt>
      <trkpt lat="43.9258" lon="1.88627">
        <ele>160.2</ele>
        <time>2021-09-26T07:10:55Z</time>
      </trkpt>
      <trkpt lat="43.92575" lon="1.88616">
        <ele>160.4</ele>
        <time>2021-09-26T07:10:57Z</time>
      </trkpt>
      <trkpt lat="43.92574" lon="1.88605">
        <ele>160.6</ele>
        <time>2021-09-26T07:10:59Z</time>
      </trkpt>
      <trkpt lat="43.92574" lon="1.886">
        <ele>160.6</ele>
        <time>2021-09-26T07:11:00Z</time>
      </trkpt>
      <trkpt lat="43.92575" lon="1.88594">
        <ele>160.6</ele>
        <time>2021-09-26T07:11:01Z</time>
      </trkpt>
      <trkpt lat="43.92576" lon="1.88588">
        <ele>160.6</ele>
        <time>2021-09-26T07:11:02Z</time>
      </trkpt>
      <trkpt lat="43.92577" lon="1.88582">
        <ele>160.4</ele>
        <time>2021-09-26T07:11:03Z</time>
      </trkpt>
      <trkpt lat="43.9258" lon="1.8857">
        <ele>160.4</ele>
        <time>2021-09-26T07:11:05Z</time>
      </trkpt>
      <trkpt lat="43.92589" lon="1.88523">
        <ele>160.8</ele>
        <time>2021-09-26T07:11:13Z</time>
      </trkpt>
      <trkpt lat="43.9259" lon="1.88517">
        <ele>161</ele>
        <time>2021-09-26T07:11:14Z</time>
      </trkpt>
      <trkpt lat="43.92603" lon="1.88467">
        <ele>161.6</ele>
        <time>2021-09-26T07:11:23Z</time>
      </trkpt>
      <trkpt lat="43.92605" lon="1.88462">
        <ele>161.6</ele>
        <time>2021-09-26T07:11:24Z</time>
      </trkpt>
      <trkpt lat="43.92606" lon="1.88458">
        <ele>161.6</ele>
        <time>2021-09-26T07:11:25Z</time>
      </trkpt>
      <trkpt lat="43.92608" lon="1.88454">
        <ele>161.6</ele>
        <time>2021-09-26T07:11:26Z</time>
      </trkpt>
      <trkpt lat="43.92609" lon="1.88451">
        <ele>161.6</ele>
        <time>2021-09-26T07:11:27Z</time>
      </trkpt>
      <trkpt lat="43.9261" lon="1.88448">
        <ele>161.6</ele>
        <time>2021-09-26T07:11:28Z</time>
      </trkpt>
      <trkpt lat="43.92611" lon="1.88445">
        <ele>161.6</ele>
        <time>2021-09-26T07:11:29Z</time>
      </trkpt>
      <trkpt lat="43.92612" lon="1.88443">
        <ele>161.8</ele>
        <time>2021-09-26T07:11:30Z</time>
      </trkpt>
      <trkpt lat="43.92613" lon="1.8844">
        <ele>161.8</ele>
        <time>2021-09-26T07:11:31Z</time>
      </trkpt>
      <trkpt lat="43.92616" lon="1.88425">
        <ele>162</ele>
        <time>2021-09-26T07:11:35Z</time>
      </trkpt>
      <trkpt lat="43.92617" lon="1.88422">
        <ele>162</ele>
        <time>2021-09-26T07:11:36Z</time>
      </trkpt>
      <trkpt lat="43.92616" lon="1.88407">
        <ele>162.2</ele>
        <time>2021-09-26T07:11:40Z</time>
      </trkpt>
      <trkpt lat="43.92616" lon="1.88388">
        <ele>162.8</ele>
        <time>2021-09-26T07:11:45Z</time>
      </trkpt>
      <trkpt lat="43.92616" lon="1.88372">
        <ele>163.2</ele>
        <time>2021-09-26T07:11:49Z</time>
      </trkpt>
      <trkpt lat="43.92615" lon="1.88363">
        <ele>163.4</ele>
        <time>2021-09-26T07:11:51Z</time>
      </trkpt>
      <trkpt lat="43.92613" lon="1.88326">
        <ele>163.8</ele>
        <time>2021-09-26T07:12:00Z</time>
      </trkpt>
      <trkpt lat="43.92614" lon="1.88318">
        <ele>163.6</ele>
        <time>2021-09-26T07:12:02Z</time>
      </trkpt>
      <trkpt lat="43.92616" lon="1.8831">
        <ele>163.8</ele>
        <time>2021-09-26T07:12:04Z</time>
      </trkpt>
      <trkpt lat="43.92616" lon="1.88307">
        <ele>163.8</ele>
        <time>2021-09-26T07:12:05Z</time>
      </trkpt>
      <trkpt lat="43.92617" lon="1.88303">
        <ele>163.6</ele>
        <time>2021-09-26T07:12:06Z</time>
      </trkpt>
      <trkpt lat="43.92617" lon="1.883">
        <ele>163.8</ele>
        <time>2021-09-26T07:12:07Z</time>
      </trkpt>
      <trkpt lat="43.92617" lon="1.88297">
        <ele>163.8</ele>
        <time>2021-09-26T07:12:08Z</time>
      </trkpt>
      <trkpt lat="43.92617" lon="1.88293">
        <ele>163.8</ele>
        <time>2021-09-26T07:12:09Z</time>
      </trkpt>
      <trkpt lat="43.92618" lon="1.8829">
        <ele>163.8</ele>
        <time>2021-09-26T07:12:10Z</time>
      </trkpt>
      <trkpt lat="43.92618" lon="1.88286">
        <ele>163.8</ele>
        <time>2021-09-26T07:12:11Z</time>
      </trkpt>
      <trkpt lat="43.92619" lon="1.88282">
        <ele>163.8</ele>
        <time>2021-09-26T07:12:12Z</time>
      </trkpt>
      <trkpt lat="43.92619" lon="1.88279">
        <ele>163.8</ele>
        <time>2021-09-26T07:12:13Z</time>
      </trkpt>
      <trkpt lat="43.9262" lon="1.88276">
        <ele>163.8</ele>
        <time>2021-09-26T07:12:14Z</time>
      </trkpt>
      <trkpt lat="43.92621" lon="1.88273">
        <ele>163.8</ele>
        <time>2021-09-26T07:12:15Z</time>
      </trkpt>
      <trkpt lat="43.92622" lon="1.88269">
        <ele>163.8</ele>
        <time>2021-09-26T07:12:16Z</time>
      </trkpt>
      <trkpt lat="43.92622" lon="1.88266">
        <ele>164</ele>
        <time>2021-09-26T07:12:17Z</time>
      </trkpt>
      <trkpt lat="43.92623" lon="1.88263">
        <ele>164</ele>
        <time>2021-09-26T07:12:18Z</time>
      </trkpt>
      <trkpt lat="43.92627" lon="1.88248">
        <ele>164.8</ele>
        <time>2021-09-26T07:12:23Z</time>
      </trkpt>
      <trkpt lat="43.92627" lon="1.88246">
        <ele>165</ele>
        <time>2021-09-26T07:12:24Z</time>
      </trkpt>
      <trkpt lat="43.92626" lon="1.88244">
        <ele>165</ele>
        <time>2021-09-26T07:12:25Z</time>
      </trkpt>
      <trkpt lat="43.92624" lon="1.88243">
        <ele>165.2</ele>
        <time>2021-09-26T07:12:26Z</time>
      </trkpt>
      <trkpt lat="43.92623" lon="1.88242">
        <ele>165.2</ele>
        <time>2021-09-26T07:12:27Z</time>
      </trkpt>
      <trkpt lat="43.92621" lon="1.88241">
        <ele>165.2</ele>
        <time>2021-09-26T07:12:28Z</time>
      </trkpt>
      <trkpt lat="43.9262" lon="1.8824">
        <ele>165.4</ele>
        <time>2021-09-26T07:12:29Z</time>
      </trkpt>
      <trkpt lat="43.92618" lon="1.88239">
        <ele>165.4</ele>
        <time>2021-09-26T07:12:30Z</time>
      </trkpt>
      <trkpt lat="43.92616" lon="1.88238">
        <ele>165.4</ele>
        <time>2021-09-26T07:12:31Z</time>
      </trkpt>
      <trkpt lat="43.92614" lon="1.88237">
        <ele>165.6</ele>
        <time>2021-09-26T07:12:32Z</time>
      </trkpt>
      <trkpt lat="43.92613" lon="1.88236">
        <ele>165.6</ele>
        <time>2021-09-26T07:12:33Z</time>
      </trkpt>
      <trkpt lat="43.92611" lon="1.88235">
        <ele>165.6</ele>
        <time>2021-09-26T07:12:34Z</time>
      </trkpt>
      <trkpt lat="43.92608" lon="1.88232">
        <ele>165.8</ele>
        <time>2021-09-26T07:12:36Z</time>
      </trkpt>
      <trkpt lat="43.92606" lon="1.88228">
        <ele>166.2</ele>
        <time>2021-09-26T07:12:38Z</time>
      </trkpt>
      <trkpt lat="43.92601" lon="1.88222">
        <ele>166.6</ele>
        <time>2021-09-26T07:12:42Z</time>
      </trkpt>
      <trkpt lat="43.92598" lon="1.88218">
        <ele>167</ele>
        <time>2021-09-26T07:12:44Z</time>
      </trkpt>
      <trkpt lat="43.92597" lon="1.88216">
        <ele>167</ele>
        <time>2021-09-26T07:12:45Z</time>
      </trkpt>
      <trkpt lat="43.92595" lon="1.88212">
        <ele>167.4</ele>
        <time>2021-09-26T07:12:47Z</time>
      </trkpt>
      <trkpt lat="43.92594" lon="1.8821">
        <ele>167.4</ele>
        <time>2021-09-26T07:12:48Z</time>
      </trkpt>
      <trkpt lat="43.92594" lon="1.88208">
        <ele>167.4</ele>
        <time>2021-09-26T07:12:49Z</time>
      </trkpt>
      <trkpt lat="43.92593" lon="1.88205">
        <ele>167.6</ele>
        <time>2021-09-26T07:12:50Z</time>
      </trkpt>
      <trkpt lat="43.92592" lon="1.88203">
        <ele>167.6</ele>
        <time>2021-09-26T07:12:51Z</time>
      </trkpt>
      <trkpt lat="43.92592" lon="1.882">
        <ele>167.8</ele>
        <time>2021-09-26T07:12:52Z</time>
      </trkpt>
      <trkpt lat="43.92591" lon="1.88198">
        <ele>168.2</ele>
        <time>2021-09-26T07:12:53Z</time>
      </trkpt>
      <trkpt lat="43.92591" lon="1.88196">
        <ele>168.4</ele>
        <time>2021-09-26T07:12:54Z</time>
      </trkpt>
      <trkpt lat="43.92591" lon="1.88194">
        <ele>168.6</ele>
        <time>2021-09-26T07:12:55Z</time>
      </trkpt>
      <trkpt lat="43.9259" lon="1.88191">
        <ele>169</ele>
        <time>2021-09-26T07:12:56Z</time>
      </trkpt>
      <trkpt lat="43.9259" lon="1.88189">
        <ele>169</ele>
        <time>2021-09-26T07:12:57Z</time>
      </trkpt>
      <trkpt lat="43.92589" lon="1.88186">
        <ele>169.2</ele>
        <time>2021-09-26T07:12:58Z</time>
      </trkpt>
      <trkpt lat="43.92589" lon="1.88184">
        <ele>169.2</ele>
        <time>2021-09-26T07:12:59Z</time>
      </trkpt>
      <trkpt lat="43.92589" lon="1.88182">
        <ele>169.6</ele>
        <time>2021-09-26T07:13:00Z</time>
      </trkpt>
      <trkpt lat="43.92588" lon="1.88179">
        <ele>170</ele>
        <time>2021-09-26T07:13:01Z</time>
      </trkpt>
      <trkpt lat="43.92588" lon="1.88177">
        <ele>170</ele>
        <time>2021-09-26T07:13:02Z</time>
      </trkpt>
      <trkpt lat="43.92587" lon="1.88175">
        <ele>170.2</ele>
        <time>2021-09-26T07:13:03Z</time>
      </trkpt>
      <trkpt lat="43.92587" lon="1.88173">
        <ele>170.4</ele>
        <time>2021-09-26T07:13:04Z</time>
      </trkpt>
      <trkpt lat="43.92586" lon="1.88171">
        <ele>170.6</ele>
        <time>2021-09-26T07:13:05Z</time>
      </trkpt>
      <trkpt lat="43.92585" lon="1.88168">
        <ele>170.6</ele>
        <time>2021-09-26T07:13:06Z</time>
      </trkpt>
      <trkpt lat="43.92585" lon="1.88166">
        <ele>171</ele>
        <time>2021-09-26T07:13:07Z</time>
      </trkpt>
      <trkpt lat="43.92584" lon="1.88163">
        <ele>171</ele>
        <time>2021-09-26T07:13:08Z</time>
      </trkpt>
      <trkpt lat="43.92584" lon="1.88161">
        <ele>171.2</ele>
        <time>2021-09-26T07:13:09Z</time>
      </trkpt>
      <trkpt lat="43.92583" lon="1.88159">
        <ele>171.4</ele>
        <time>2021-09-26T07:13:10Z</time>
      </trkpt>
      <trkpt lat="43.92583" lon="1.88157">
        <ele>171.6</ele>
        <time>2021-09-26T07:13:11Z</time>
      </trkpt>
      <trkpt lat="43.92583" lon="1.88155">
        <ele>171.8</ele>
        <time>2021-09-26T07:13:12Z</time>
      </trkpt>
      <trkpt lat="43.92582" lon="1.88154">
        <ele>172</ele>
        <time>2021-09-26T07:13:13Z</time>
      </trkpt>
      <trkpt lat="43.92582" lon="1.88152">
        <ele>172.4</ele>
        <time>2021-09-26T07:13:14Z</time>
      </trkpt>
      <trkpt lat="43.92582" lon="1.8815">
        <ele>172.4</ele>
        <time>2021-09-26T07:13:15Z</time>
      </trkpt>
      <trkpt lat="43.92582" lon="1.88147">
        <ele>172.6</ele>
        <time>2021-09-26T07:13:16Z</time>
      </trkpt>
      <trkpt lat="43.92582" lon="1.88145">
        <ele>172.8</ele>
        <time>2021-09-26T07:13:17Z</time>
      </trkpt>
      <trkpt lat="43.92582" lon="1.88143">
        <ele>172.8</ele>
        <time>2021-09-26T07:13:18Z</time>
      </trkpt>
      <trkpt lat="43.92582" lon="1.8814">
        <ele>173.4</ele>
        <time>2021-09-26T07:13:19Z</time>
      </trkpt>
      <trkpt lat="43.92582" lon="1.88138">
        <ele>173.6</ele>
        <time>2021-09-26T07:13:20Z</time>
      </trkpt>
      <trkpt lat="43.92582" lon="1.88136">
        <ele>174</ele>
        <time>2021-09-26T07:13:21Z</time>
      </trkpt>
      <trkpt lat="43.92583" lon="1.88135">
        <ele>174.2</ele>
        <time>2021-09-26T07:13:22Z</time>
      </trkpt>
      <trkpt lat="43.92583" lon="1.88133">
        <ele>174.6</ele>
        <time>2021-09-26T07:13:23Z</time>
      </trkpt>
      <trkpt lat="43.92584" lon="1.88131">
        <ele>174.8</ele>
        <time>2021-09-26T07:13:24Z</time>
      </trkpt>
      <trkpt lat="43.92585" lon="1.88129">
        <ele>175</ele>
        <time>2021-09-26T07:13:25Z</time>
      </trkpt>
      <trkpt lat="43.92586" lon="1.88128">
        <ele>175.2</ele>
        <time>2021-09-26T07:13:26Z</time>
      </trkpt>
      <trkpt lat="43.92587" lon="1.88126">
        <ele>175.2</ele>
        <time>2021-09-26T07:13:27Z</time>
      </trkpt>
      <trkpt lat="43.92588" lon="1.88124">
        <ele>175.6</ele>
        <time>2021-09-26T07:13:28Z</time>
      </trkpt>
      <trkpt lat="43.92588" lon="1.88122">
        <ele>175.6</ele>
        <time>2021-09-26T07:13:29Z</time>
      </trkpt>
      <trkpt lat="43.92589" lon="1.88121">
        <ele>176.2</ele>
        <time>2021-09-26T07:13:30Z</time>
      </trkpt>
      <trkpt lat="43.9259" lon="1.88119">
        <ele>176.4</ele>
        <time>2021-09-26T07:13:31Z</time>
      </trkpt>
      <trkpt lat="43.92591" lon="1.88118">
        <ele>176.6</ele>
        <time>2021-09-26T07:13:32Z</time>
      </trkpt>
      <trkpt lat="43.92592" lon="1.88116">
        <ele>176.8</ele>
        <time>2021-09-26T07:13:33Z</time>
      </trkpt>
      <trkpt lat="43.92593" lon="1.88115">
        <ele>177</ele>
        <time>2021-09-26T07:13:34Z</time>
      </trkpt>
      <trkpt lat="43.92594" lon="1.88113">
        <ele>177.2</ele>
        <time>2021-09-26T07:13:35Z</time>
      </trkpt>
      <trkpt lat="43.92594" lon="1.88112">
        <ele>177.4</ele>
        <time>2021-09-26T07:13:36Z</time>
      </trkpt>
      <trkpt lat="43.92594" lon="1.8811">
        <ele>177.8</ele>
        <time>2021-09-26T07:13:37Z</time>
      </trkpt>
      <trkpt lat="43.92595" lon="1.88108">
        <ele>178.2</ele>
        <time>2021-09-26T07:13:38Z</time>
      </trkpt>
      <trkpt lat="43.92596" lon="1.88106">
        <ele>178.2</ele>
        <time>2021-09-26T07:13:39Z</time>
      </trkpt>
      <trkpt lat="43.92597" lon="1.88104">
        <ele>178.4</ele>
        <time>2021-09-26T07:13:40Z</time>
      </trkpt>
      <trkpt lat="43.92598" lon="1.88103">
        <ele>178.4</ele>
        <time>2021-09-26T07:13:41Z</time>
      </trkpt>
      <trkpt lat="43.92598" lon="1.88101">
        <ele>178.6</ele>
        <time>2021-09-26T07:13:42Z</time>
      </trkpt>
      <trkpt lat="43.92599" lon="1.88099">
        <ele>178.6</ele>
        <time>2021-09-26T07:13:43Z</time>
      </trkpt>
      <trkpt lat="43.92599" lon="1.88097">
        <ele>178.8</ele>
        <time>2021-09-26T07:13:44Z</time>
      </trkpt>
      <trkpt lat="43.926" lon="1.88095">
        <ele>178.8</ele>
        <time>2021-09-26T07:13:45Z</time>
      </trkpt>
      <trkpt lat="43.926" lon="1.88093">
        <ele>179</ele>
        <time>2021-09-26T07:13:46Z</time>
      </trkpt>
      <trkpt lat="43.92601" lon="1.88091">
        <ele>179</ele>
        <time>2021-09-26T07:13:47Z</time>
      </trkpt>
      <trkpt lat="43.92601" lon="1.88089">
        <ele>179</ele>
        <time>2021-09-26T07:13:48Z</time>
      </trkpt>
      <trkpt lat="43.92602" lon="1.88087">
        <ele>179</ele>
        <time>2021-09-26T07:13:49Z</time>
      </trkpt>
      <trkpt lat="43.92602" lon="1.88085">
        <ele>179</ele>
        <time>2021-09-26T07:13:50Z</time>
      </trkpt>
      <trkpt lat="43.92603" lon="1.88083">
        <ele>179.2</ele>
        <time>2021-09-26T07:13:51Z</time>
      </trkpt>
      <trkpt lat="43.92604" lon="1.88081">
        <ele>179.2</ele>
        <time>2021-09-26T07:13:52Z</time>
      </trkpt>
      <trkpt lat="43.92604" lon="1.88078">
        <ele>179.4</ele>
        <time>2021-09-26T07:13:53Z</time>
      </trkpt>
      <trkpt lat="43.92604" lon="1.88076">
        <ele>179.4</ele>
        <time>2021-09-26T07:13:54Z</time>
      </trkpt>
      <trkpt lat="43.92605" lon="1.88074">
        <ele>179.6</ele>
        <time>2021-09-26T07:13:55Z</time>
      </trkpt>
      <trkpt lat="43.92604" lon="1.88072">
        <ele>179.6</ele>
        <time>2021-09-26T07:13:56Z</time>
      </trkpt>
      <trkpt lat="43.92604" lon="1.88069">
        <ele>179.6</ele>
        <time>2021-09-26T07:13:57Z</time>
      </trkpt>
      <trkpt lat="43.92604" lon="1.88067">
        <ele>179.6</ele>
        <time>2021-09-26T07:13:58Z</time>
      </trkpt>
      <trkpt lat="43.92604" lon="1.88065">
        <ele>179.6</ele>
        <time>2021-09-26T07:13:59Z</time>
      </trkpt>
      <trkpt lat="43.92604" lon="1.88063">
        <ele>179.8</ele>
        <time>2021-09-26T07:14:00Z</time>
      </trkpt>
      <trkpt lat="43.92603" lon="1.88061">
        <ele>180.2</ele>
        <time>2021-09-26T07:14:01Z</time>
      </trkpt>
      <trkpt lat="43.92603" lon="1.88058">
        <ele>180.2</ele>
        <time>2021-09-26T07:14:02Z</time>
      </trkpt>
      <trkpt lat="43.92602" lon="1.88056">
        <ele>180.4</ele>
        <time>2021-09-26T07:14:03Z</time>
      </trkpt>
      <trkpt lat="43.92601" lon="1.88054">
        <ele>180.6</ele>
        <time>2021-09-26T07:14:04Z</time>
      </trkpt>
      <trkpt lat="43.926" lon="1.88053">
        <ele>180.8</ele>
        <time>2021-09-26T07:14:05Z</time>
      </trkpt>
      <trkpt lat="43.926" lon="1.88051">
        <ele>181</ele>
        <time>2021-09-26T07:14:06Z</time>
      </trkpt>
      <trkpt lat="43.92599" lon="1.88049">
        <ele>181.2</ele>
        <time>2021-09-26T07:14:07Z</time>
      </trkpt>
      <trkpt lat="43.92599" lon="1.88047">
        <ele>181.6</ele>
        <time>2021-09-26T07:14:08Z</time>
      </trkpt>
      <trkpt lat="43.92598" lon="1.88046">
        <ele>181.8</ele>
        <time>2021-09-26T07:14:09Z</time>
      </trkpt>
      <trkpt lat="43.92598" lon="1.88044">
        <ele>182</ele>
        <time>2021-09-26T07:14:10Z</time>
      </trkpt>
      <trkpt lat="43.92597" lon="1.88042">
        <ele>182</ele>
        <time>2021-09-26T07:14:11Z</time>
      </trkpt>
      <trkpt lat="43.92596" lon="1.88041">
        <ele>182.4</ele>
        <time>2021-09-26T07:14:12Z</time>
      </trkpt>
      <trkpt lat="43.92595" lon="1.88039">
        <ele>182.6</ele>
        <time>2021-09-26T07:14:13Z</time>
      </trkpt>
      <trkpt lat="43.92594" lon="1.88037">
        <ele>182.8</ele>
        <time>2021-09-26T07:14:14Z</time>
      </trkpt>
      <trkpt lat="43.92593" lon="1.88035">
        <ele>183.2</ele>
        <time>2021-09-26T07:14:15Z</time>
      </trkpt>
      <trkpt lat="43.92592" lon="1.88033">
        <ele>183.2</ele>
        <time>2021-09-26T07:14:16Z</time>
      </trkpt>
      <trkpt lat="43.92591" lon="1.88032">
        <ele>183.6</ele>
        <time>2021-09-26T07:14:17Z</time>
      </trkpt>
      <trkpt lat="43.9259" lon="1.8803">
        <ele>183.8</ele>
        <time>2021-09-26T07:14:18Z</time>
      </trkpt>
      <trkpt lat="43.9259" lon="1.88028">
        <ele>184</ele>
        <time>2021-09-26T07:14:19Z</time>
      </trkpt>
      <trkpt lat="43.92589" lon="1.88027">
        <ele>184.2</ele>
        <time>2021-09-26T07:14:20Z</time>
      </trkpt>
      <trkpt lat="43.92588" lon="1.88025">
        <ele>184.2</ele>
        <time>2021-09-26T07:14:21Z</time>
      </trkpt>
      <trkpt lat="43.92587" lon="1.88023">
        <ele>184.4</ele>
        <time>2021-09-26T07:14:22Z</time>
      </trkpt>
      <trkpt lat="43.92586" lon="1.88022">
        <ele>184.6</ele>
        <time>2021-09-26T07:14:23Z</time>
      </trkpt>
      <trkpt lat="43.92585" lon="1.8802">
        <ele>184.6</ele>
        <time>2021-09-26T07:14:24Z</time>
      </trkpt>
      <trkpt lat="43.92584" lon="1.88018">
        <ele>184.6</ele>
        <time>2021-09-26T07:14:25Z</time>
      </trkpt>
      <trkpt lat="43.92583" lon="1.88017">
        <ele>185</ele>
        <time>2021-09-26T07:14:26Z</time>
      </trkpt>
      <trkpt lat="43.92582" lon="1.88015">
        <ele>185.2</ele>
        <time>2021-09-26T07:14:27Z</time>
      </trkpt>
      <trkpt lat="43.92581" lon="1.88014">
        <ele>185.4</ele>
        <time>2021-09-26T07:14:28Z</time>
      </trkpt>
      <trkpt lat="43.9258" lon="1.88012">
        <ele>185.4</ele>
        <time>2021-09-26T07:14:29Z</time>
      </trkpt>
      <trkpt lat="43.92579" lon="1.88011">
        <ele>185.6</ele>
        <time>2021-09-26T07:14:30Z</time>
      </trkpt>
      <trkpt lat="43.92578" lon="1.88009">
        <ele>185.6</ele>
        <time>2021-09-26T07:14:31Z</time>
      </trkpt>
      <trkpt lat="43.92577" lon="1.88007">
        <ele>185.6</ele>
        <time>2021-09-26T07:14:32Z</time>
      </trkpt>
      <trkpt lat="43.92576" lon="1.88006">
        <ele>186</ele>
        <time>2021-09-26T07:14:33Z</time>
      </trkpt>
      <trkpt lat="43.92575" lon="1.88004">
        <ele>186.2</ele>
        <time>2021-09-26T07:14:34Z</time>
      </trkpt>
      <trkpt lat="43.92574" lon="1.88003">
        <ele>186.6</ele>
        <time>2021-09-26T07:14:35Z</time>
      </trkpt>
      <trkpt lat="43.92573" lon="1.88001">
        <ele>186.6</ele>
        <time>2021-09-26T07:14:36Z</time>
      </trkpt>
      <trkpt lat="43.92573" lon="1.88">
        <ele>186.8</ele>
        <time>2021-09-26T07:14:37Z</time>
      </trkpt>
      <trkpt lat="43.92571" lon="1.87998">
        <ele>187</ele>
        <time>2021-09-26T07:14:38Z</time>
      </trkpt>
      <trkpt lat="43.9257" lon="1.87997">
        <ele>187.2</ele>
        <time>2021-09-26T07:14:39Z</time>
      </trkpt>
      <trkpt lat="43.92569" lon="1.87995">
        <ele>187.6</ele>
        <time>2021-09-26T07:14:40Z</time>
      </trkpt>
      <trkpt lat="43.92568" lon="1.87993">
        <ele>187.8</ele>
        <time>2021-09-26T07:14:41Z</time>
      </trkpt>
      <trkpt lat="43.92567" lon="1.87992">
        <ele>188.2</ele>
        <time>2021-09-26T07:14:42Z</time>
      </trkpt>
      <trkpt lat="43.92566" lon="1.8799">
        <ele>188.4</ele>
        <time>2021-09-26T07:14:43Z</time>
      </trkpt>
      <trkpt lat="43.92565" lon="1.87988">
        <ele>188.6</ele>
        <time>2021-09-26T07:14:44Z</time>
      </trkpt>
      <trkpt lat="43.92565" lon="1.87986">
        <ele>189</ele>
        <time>2021-09-26T07:14:45Z</time>
      </trkpt>
      <trkpt lat="43.92564" lon="1.87985">
        <ele>189.2</ele>
        <time>2021-09-26T07:14:46Z</time>
      </trkpt>
      <trkpt lat="43.92563" lon="1.87984">
        <ele>189.4</ele>
        <time>2021-09-26T07:14:47Z</time>
      </trkpt>
      <trkpt lat="43.92562" lon="1.87982">
        <ele>189.8</ele>
        <time>2021-09-26T07:14:48Z</time>
      </trkpt>
      <trkpt lat="43.92561" lon="1.8798">
        <ele>190.4</ele>
        <time>2021-09-26T07:14:49Z</time>
      </trkpt>
      <trkpt lat="43.9256" lon="1.87979">
        <ele>190.6</ele>
        <time>2021-09-26T07:14:50Z</time>
      </trkpt>
      <trkpt lat="43.9256" lon="1.87977">
        <ele>191</ele>
        <time>2021-09-26T07:14:51Z</time>
      </trkpt>
      <trkpt lat="43.92559" lon="1.87975">
        <ele>191</ele>
        <time>2021-09-26T07:14:52Z</time>
      </trkpt>
      <trkpt lat="43.92558" lon="1.87974">
        <ele>191.4</ele>
        <time>2021-09-26T07:14:53Z</time>
      </trkpt>
      <trkpt lat="43.92556" lon="1.87972">
        <ele>191.8</ele>
        <time>2021-09-26T07:14:54Z</time>
      </trkpt>
      <trkpt lat="43.92555" lon="1.87971">
        <ele>191.8</ele>
        <time>2021-09-26T07:14:55Z</time>
      </trkpt>
      <trkpt lat="43.92554" lon="1.87969">
        <ele>192.2</ele>
        <time>2021-09-26T07:14:56Z</time>
      </trkpt>
      <trkpt lat="43.92553" lon="1.87968">
        <ele>192.4</ele>
        <time>2021-09-26T07:14:57Z</time>
      </trkpt>
      <trkpt lat="43.92552" lon="1.87967">
        <ele>192.8</ele>
        <time>2021-09-26T07:14:58Z</time>
      </trkpt>
      <trkpt lat="43.92551" lon="1.87966">
        <ele>193</ele>
        <time>2021-09-26T07:14:59Z</time>
      </trkpt>
      <trkpt lat="43.92549" lon="1.87965">
        <ele>193.2</ele>
        <time>2021-09-26T07:15:00Z</time>
      </trkpt>
      <trkpt lat="43.92548" lon="1.87965">
        <ele>193.8</ele>
        <time>2021-09-26T07:15:01Z</time>
      </trkpt>
      <trkpt lat="43.92547" lon="1.87964">
        <ele>194</ele>
        <time>2021-09-26T07:15:02Z</time>
      </trkpt>
      <trkpt lat="43.92546" lon="1.87963">
        <ele>194.2</ele>
        <time>2021-09-26T07:15:03Z</time>
      </trkpt>
      <trkpt lat="43.92544" lon="1.87962">
        <ele>194.2</ele>
        <time>2021-09-26T07:15:04Z</time>
      </trkpt>
      <trkpt lat="43.92543" lon="1.87961">
        <ele>194.6</ele>
        <time>2021-09-26T07:15:05Z</time>
      </trkpt>
      <trkpt lat="43.92542" lon="1.8796">
        <ele>194.8</ele>
        <time>2021-09-26T07:15:06Z</time>
      </trkpt>
      <trkpt lat="43.9254" lon="1.87959">
        <ele>195.2</ele>
        <time>2021-09-26T07:15:07Z</time>
      </trkpt>
      <trkpt lat="43.92539" lon="1.87958">
        <ele>195.4</ele>
        <time>2021-09-26T07:15:08Z</time>
      </trkpt>
      <trkpt lat="43.92538" lon="1.87958">
        <ele>195.6</ele>
        <time>2021-09-26T07:15:09Z</time>
      </trkpt>
      <trkpt lat="43.92537" lon="1.87957">
        <ele>195.8</ele>
        <time>2021-09-26T07:15:10Z</time>
      </trkpt>
      <trkpt lat="43.92536" lon="1.87956">
        <ele>196</ele>
        <time>2021-09-26T07:15:11Z</time>
      </trkpt>
      <trkpt lat="43.92535" lon="1.87955">
        <ele>196.2</ele>
        <time>2021-09-26T07:15:12Z</time>
      </trkpt>
      <trkpt lat="43.92534" lon="1.87954">
        <ele>196.4</ele>
        <time>2021-09-26T07:15:13Z</time>
      </trkpt>
      <trkpt lat="43.92533" lon="1.87952">
        <ele>196.6</ele>
        <time>2021-09-26T07:15:14Z</time>
      </trkpt>
      <trkpt lat="43.92532" lon="1.87951">
        <ele>196.8</ele>
        <time>2021-09-26T07:15:15Z</time>
      </trkpt>
      <trkpt lat="43.92531" lon="1.8795">
        <ele>197</ele>
        <time>2021-09-26T07:15:16Z</time>
      </trkpt>
      <trkpt lat="43.9253" lon="1.87949">
        <ele>197.2</ele>
        <time>2021-09-26T07:15:17Z</time>
      </trkpt>
      <trkpt lat="43.92528" lon="1.87948">
        <ele>197.4</ele>
        <time>2021-09-26T07:15:18Z</time>
      </trkpt>
      <trkpt lat="43.92528" lon="1.87946">
        <ele>197.4</ele>
        <time>2021-09-26T07:15:19Z</time>
      </trkpt>
      <trkpt lat="43.92527" lon="1.87945">
        <ele>197.6</ele>
        <time>2021-09-26T07:15:20Z</time>
      </trkpt>
      <trkpt lat="43.92527" lon="1.87945">
        <ele>197.6</ele>
        <time>2021-09-26T07:15:21Z</time>
      </trkpt>
      <trkpt lat="43.92526" lon="1.8794">
        <ele>197.8</ele>
        <time>2021-09-26T07:15:22Z</time>
      </trkpt>
      <trkpt lat="43.92525" lon="1.87939">
        <ele>198</ele>
        <time>2021-09-26T07:15:23Z</time>
      </trkpt>
      <trkpt lat="43.92524" lon="1.87938">
        <ele>198.2</ele>
        <time>2021-09-26T07:15:24Z</time>
      </trkpt>
      <trkpt lat="43.92523" lon="1.87936">
        <ele>198.4</ele>
        <time>2021-09-26T07:15:25Z</time>
      </trkpt>
      <trkpt lat="43.92522" lon="1.87935">
        <ele>198.6</ele>
        <time>2021-09-26T07:15:26Z</time>
      </trkpt>
      <trkpt lat="43.92521" lon="1.87933">
        <ele>198.8</ele>
        <time>2021-09-26T07:15:27Z</time>
      </trkpt>
      <trkpt lat="43.9252" lon="1.87932">
        <ele>199</ele>
        <time>2021-09-26T07:15:28Z</time>
      </trkpt>
      <trkpt lat="43.9252" lon="1.87931">
        <ele>199</ele>
        <time>2021-09-26T07:15:29Z</time>
      </trkpt>
      <trkpt lat="43.92519" lon="1.8793">
        <ele>199.2</ele>
        <time>2021-09-26T07:15:30Z</time>
      </trkpt>
      <trkpt lat="43.92518" lon="1.87929">
        <ele>199.2</ele>
        <time>2021-09-26T07:15:31Z</time>
      </trkpt>
      <trkpt lat="43.92517" lon="1.87927">
        <ele>199.4</ele>
        <time>2021-09-26T07:15:32Z</time>
      </trkpt>
      <trkpt lat="43.92517" lon="1.87927">
        <ele>199.6</ele>
        <time>2021-09-26T07:15:33Z</time>
      </trkpt>
      <trkpt lat="43.92515" lon="1.87925">
        <ele>199.8</ele>
        <time>2021-09-26T07:15:34Z</time>
      </trkpt>
      <trkpt lat="43.92514" lon="1.87924">
        <ele>199.8</ele>
        <time>2021-09-26T07:15:35Z</time>
      </trkpt>
      <trkpt lat="43.92513" lon="1.87922">
        <ele>200.2</ele>
        <time>2021-09-26T07:15:36Z</time>
      </trkpt>
      <trkpt lat="43.92512" lon="1.87921">
        <ele>200.4</ele>
        <time>2021-09-26T07:15:37Z</time>
      </trkpt>
      <trkpt lat="43.92511" lon="1.8792">
        <ele>200.6</ele>
        <time>2021-09-26T07:15:38Z</time>
      </trkpt>
      <trkpt lat="43.9251" lon="1.87919">
        <ele>200.6</ele>
        <time>2021-09-26T07:15:39Z</time>
      </trkpt>
      <trkpt lat="43.9251" lon="1.87918">
        <ele>200.8</ele>
        <time>2021-09-26T07:15:40Z</time>
      </trkpt>
      <trkpt lat="43.92509" lon="1.87916">
        <ele>201</ele>
        <time>2021-09-26T07:15:41Z</time>
      </trkpt>
      <trkpt lat="43.92507" lon="1.87915">
        <ele>201.4</ele>
        <time>2021-09-26T07:15:42Z</time>
      </trkpt>
      <trkpt lat="43.92506" lon="1.87914">
        <ele>201.4</ele>
        <time>2021-09-26T07:15:43Z</time>
      </trkpt>
      <trkpt lat="43.92505" lon="1.87912">
        <ele>201.8</ele>
        <time>2021-09-26T07:15:44Z</time>
      </trkpt>
      <trkpt lat="43.92505" lon="1.87912">
        <ele>202</ele>
        <time>2021-09-26T07:15:45Z</time>
      </trkpt>
      <trkpt lat="43.92502" lon="1.87909">
        <ele>202</ele>
        <time>2021-09-26T07:15:46Z</time>
      </trkpt>
      <trkpt lat="43.92501" lon="1.87908">
        <ele>202.2</ele>
        <time>2021-09-26T07:15:47Z</time>
      </trkpt>
      <trkpt lat="43.925" lon="1.87906">
        <ele>202.4</ele>
        <time>2021-09-26T07:15:48Z</time>
      </trkpt>
      <trkpt lat="43.925" lon="1.87906">
        <ele>202.6</ele>
        <time>2021-09-26T07:15:49Z</time>
      </trkpt>
      <trkpt lat="43.92498" lon="1.87904">
        <ele>202.6</ele>
        <time>2021-09-26T07:15:50Z</time>
      </trkpt>
      <trkpt lat="43.92496" lon="1.87902">
        <ele>203</ele>
        <time>2021-09-26T07:15:51Z</time>
      </trkpt>
      <trkpt lat="43.92495" lon="1.87901">
        <ele>203.2</ele>
        <time>2021-09-26T07:15:52Z</time>
      </trkpt>
      <trkpt lat="43.92494" lon="1.879">
        <ele>203.2</ele>
        <time>2021-09-26T07:15:53Z</time>
      </trkpt>
      <trkpt lat="43.92493" lon="1.87899">
        <ele>203.6</ele>
        <time>2021-09-26T07:15:54Z</time>
      </trkpt>
      <trkpt lat="43.92492" lon="1.87898">
        <ele>203.6</ele>
        <time>2021-09-26T07:15:55Z</time>
      </trkpt>
      <trkpt lat="43.92491" lon="1.87897">
        <ele>203.8</ele>
        <time>2021-09-26T07:15:56Z</time>
      </trkpt>
      <trkpt lat="43.92491" lon="1.87895">
        <ele>204</ele>
        <time>2021-09-26T07:15:57Z</time>
      </trkpt>
      <trkpt lat="43.9249" lon="1.87894">
        <ele>204.2</ele>
        <time>2021-09-26T07:15:58Z</time>
      </trkpt>
      <trkpt lat="43.92489" lon="1.87893">
        <ele>204.4</ele>
        <time>2021-09-26T07:15:59Z</time>
      </trkpt>
      <trkpt lat="43.92489" lon="1.87893">
        <ele>204.4</ele>
        <time>2021-09-26T07:16:00Z</time>
      </trkpt>
      <trkpt lat="43.92489" lon="1.87893">
        <ele>204.6</ele>
        <time>2021-09-26T07:16:02Z</time>
      </trkpt>
      <trkpt lat="43.92489" lon="1.87887">
        <ele>204.8</ele>
        <time>2021-09-26T07:16:18Z</time>
      </trkpt>
      <trkpt lat="43.92489" lon="1.8788">
        <ele>204.8</ele>
        <time>2021-09-26T07:16:21Z</time>
      </trkpt>
      <trkpt lat="43.92489" lon="1.87877">
        <ele>204.8</ele>
        <time>2021-09-26T07:16:22Z</time>
      </trkpt>
      <trkpt lat="43.92494" lon="1.87861">
        <ele>205.2</ele>
        <time>2021-09-26T07:16:30Z</time>
      </trkpt>
      <trkpt lat="43.92495" lon="1.8786">
        <ele>205.4</ele>
        <time>2021-09-26T07:16:31Z</time>
      </trkpt>
      <trkpt lat="43.92496" lon="1.87858">
        <ele>205.6</ele>
        <time>2021-09-26T07:16:32Z</time>
      </trkpt>
      <trkpt lat="43.92502" lon="1.87846">
        <ele>206.2</ele>
        <time>2021-09-26T07:16:39Z</time>
      </trkpt>
      <trkpt lat="43.92502" lon="1.87844">
        <ele>206.2</ele>
        <time>2021-09-26T07:16:40Z</time>
      </trkpt>
      <trkpt lat="43.9251" lon="1.8783">
        <ele>207.2</ele>
        <time>2021-09-26T07:16:48Z</time>
      </trkpt>
      <trkpt lat="43.9251" lon="1.87828">
        <ele>207.4</ele>
        <time>2021-09-26T07:16:49Z</time>
      </trkpt>
      <trkpt lat="43.92516" lon="1.87816">
        <ele>208.6</ele>
        <time>2021-09-26T07:16:56Z</time>
      </trkpt>
      <trkpt lat="43.92517" lon="1.87815">
        <ele>208.6</ele>
        <time>2021-09-26T07:16:57Z</time>
      </trkpt>
      <trkpt lat="43.92518" lon="1.87813">
        <ele>208.8</ele>
        <time>2021-09-26T07:16:58Z</time>
      </trkpt>
      <trkpt lat="43.92519" lon="1.87811">
        <ele>208.8</ele>
        <time>2021-09-26T07:16:59Z</time>
      </trkpt>
      <trkpt lat="43.9252" lon="1.87809">
        <ele>209</ele>
        <time>2021-09-26T07:17:00Z</time>
      </trkpt>
      <trkpt lat="43.92521" lon="1.87808">
        <ele>209</ele>
        <time>2021-09-26T07:17:01Z</time>
      </trkpt>
      <trkpt lat="43.92522" lon="1.87806">
        <ele>209.2</ele>
        <time>2021-09-26T07:17:02Z</time>
      </trkpt>
      <trkpt lat="43.92523" lon="1.87805">
        <ele>209.4</ele>
        <time>2021-09-26T07:17:03Z</time>
      </trkpt>
      <trkpt lat="43.92524" lon="1.87803">
        <ele>209.4</ele>
        <time>2021-09-26T07:17:04Z</time>
      </trkpt>
      <trkpt lat="43.92524" lon="1.87801">
        <ele>209.6</ele>
        <time>2021-09-26T07:17:05Z</time>
      </trkpt>
      <trkpt lat="43.92525" lon="1.87799">
        <ele>209.8</ele>
        <time>2021-09-26T07:17:06Z</time>
      </trkpt>
      <trkpt lat="43.92526" lon="1.87797">
        <ele>209.8</ele>
        <time>2021-09-26T07:17:07Z</time>
      </trkpt>
      <trkpt lat="43.92527" lon="1.87795">
        <ele>210</ele>
        <time>2021-09-26T07:17:08Z</time>
      </trkpt>
      <trkpt lat="43.92528" lon="1.87794">
        <ele>210.2</ele>
        <time>2021-09-26T07:17:09Z</time>
      </trkpt>
      <trkpt lat="43.92529" lon="1.87792">
        <ele>210.6</ele>
        <time>2021-09-26T07:17:10Z</time>
      </trkpt>
      <trkpt lat="43.9253" lon="1.8779">
        <ele>210.8</ele>
        <time>2021-09-26T07:17:11Z</time>
      </trkpt>
      <trkpt lat="43.92531" lon="1.87789">
        <ele>211.2</ele>
        <time>2021-09-26T07:17:12Z</time>
      </trkpt>
      <trkpt lat="43.92532" lon="1.87787">
        <ele>211.4</ele>
        <time>2021-09-26T07:17:13Z</time>
      </trkpt>
      <trkpt lat="43.92533" lon="1.87785">
        <ele>211.6</ele>
        <time>2021-09-26T07:17:14Z</time>
      </trkpt>
      <trkpt lat="43.92534" lon="1.87783">
        <ele>211.8</ele>
        <time>2021-09-26T07:17:15Z</time>
      </trkpt>
      <trkpt lat="43.92535" lon="1.87782">
        <ele>212</ele>
        <time>2021-09-26T07:17:16Z</time>
      </trkpt>
      <trkpt lat="43.92535" lon="1.8778">
        <ele>212.2</ele>
        <time>2021-09-26T07:17:17Z</time>
      </trkpt>
      <trkpt lat="43.92536" lon="1.87778">
        <ele>212.2</ele>
        <time>2021-09-26T07:17:18Z</time>
      </trkpt>
      <trkpt lat="43.92537" lon="1.87777">
        <ele>212.4</ele>
        <time>2021-09-26T07:17:19Z</time>
      </trkpt>
      <trkpt lat="43.92538" lon="1.87775">
        <ele>212.6</ele>
        <time>2021-09-26T07:17:20Z</time>
      </trkpt>
      <trkpt lat="43.92539" lon="1.87774">
        <ele>212.8</ele>
        <time>2021-09-26T07:17:21Z</time>
      </trkpt>
      <trkpt lat="43.9254" lon="1.87772">
        <ele>213</ele>
        <time>2021-09-26T07:17:22Z</time>
      </trkpt>
      <trkpt lat="43.92541" lon="1.87771">
        <ele>213.2</ele>
        <time>2021-09-26T07:17:23Z</time>
      </trkpt>
      <trkpt lat="43.92542" lon="1.87769">
        <ele>213.4</ele>
        <time>2021-09-26T07:17:24Z</time>
      </trkpt>
      <trkpt lat="43.92542" lon="1.87768">
        <ele>213.6</ele>
        <time>2021-09-26T07:17:25Z</time>
      </trkpt>
      <trkpt lat="43.92544" lon="1.87766">
        <ele>214</ele>
        <time>2021-09-26T07:17:26Z</time>
      </trkpt>
      <trkpt lat="43.92544" lon="1.87765">
        <ele>214.2</ele>
        <time>2021-09-26T07:17:27Z</time>
      </trkpt>
      <trkpt lat="43.92545" lon="1.87763">
        <ele>214.6</ele>
        <time>2021-09-26T07:17:28Z</time>
      </trkpt>
      <trkpt lat="43.92546" lon="1.87762">
        <ele>214.8</ele>
        <time>2021-09-26T07:17:29Z</time>
      </trkpt>
      <trkpt lat="43.92547" lon="1.8776">
        <ele>214.8</ele>
        <time>2021-09-26T07:17:30Z</time>
      </trkpt>
      <trkpt lat="43.92548" lon="1.87758">
        <ele>215</ele>
        <time>2021-09-26T07:17:31Z</time>
      </trkpt>
      <trkpt lat="43.92549" lon="1.87757">
        <ele>215.2</ele>
        <time>2021-09-26T07:17:32Z</time>
      </trkpt>
      <trkpt lat="43.9255" lon="1.87756">
        <ele>215.2</ele>
        <time>2021-09-26T07:17:33Z</time>
      </trkpt>
      <trkpt lat="43.92552" lon="1.87754">
        <ele>215.4</ele>
        <time>2021-09-26T07:17:34Z</time>
      </trkpt>
      <trkpt lat="43.92552" lon="1.87753">
        <ele>215.8</ele>
        <time>2021-09-26T07:17:35Z</time>
      </trkpt>
      <trkpt lat="43.92554" lon="1.87751">
        <ele>216</ele>
        <time>2021-09-26T07:17:36Z</time>
      </trkpt>
      <trkpt lat="43.92555" lon="1.8775">
        <ele>216.2</ele>
        <time>2021-09-26T07:17:37Z</time>
      </trkpt>
      <trkpt lat="43.92556" lon="1.87748">
        <ele>216.4</ele>
        <time>2021-09-26T07:17:38Z</time>
      </trkpt>
      <trkpt lat="43.92557" lon="1.87746">
        <ele>216.4</ele>
        <time>2021-09-26T07:17:39Z</time>
      </trkpt>
      <trkpt lat="43.92558" lon="1.87745">
        <ele>217</ele>
        <time>2021-09-26T07:17:40Z</time>
      </trkpt>
      <trkpt lat="43.9256" lon="1.87743">
        <ele>217</ele>
        <time>2021-09-26T07:17:41Z</time>
      </trkpt>
      <trkpt lat="43.92561" lon="1.87742">
        <ele>217.2</ele>
        <time>2021-09-26T07:17:42Z</time>
      </trkpt>
      <trkpt lat="43.92562" lon="1.87741">
        <ele>217.4</ele>
        <time>2021-09-26T07:17:43Z</time>
      </trkpt>
      <trkpt lat="43.92563" lon="1.8774">
        <ele>217.6</ele>
        <time>2021-09-26T07:17:44Z</time>
      </trkpt>
      <trkpt lat="43.92565" lon="1.8774">
        <ele>217.8</ele>
        <time>2021-09-26T07:17:45Z</time>
      </trkpt>
      <trkpt lat="43.92566" lon="1.87739">
        <ele>217.8</ele>
        <time>2021-09-26T07:17:46Z</time>
      </trkpt>
      <trkpt lat="43.92567" lon="1.87738">
        <ele>218</ele>
        <time>2021-09-26T07:17:47Z</time>
      </trkpt>
      <trkpt lat="43.92568" lon="1.87737">
        <ele>218.2</ele>
        <time>2021-09-26T07:17:48Z</time>
      </trkpt>
      <trkpt lat="43.9257" lon="1.87736">
        <ele>218.2</ele>
        <time>2021-09-26T07:17:49Z</time>
      </trkpt>
      <trkpt lat="43.92572" lon="1.87736">
        <ele>218.2</ele>
        <time>2021-09-26T07:17:50Z</time>
      </trkpt>
      <trkpt lat="43.92573" lon="1.87735">
        <ele>218.4</ele>
        <time>2021-09-26T07:17:51Z</time>
      </trkpt>
      <trkpt lat="43.92574" lon="1.87734">
        <ele>218.6</ele>
        <time>2021-09-26T07:17:52Z</time>
      </trkpt>
      <trkpt lat="43.92576" lon="1.87733">
        <ele>218.6</ele>
        <time>2021-09-26T07:17:53Z</time>
      </trkpt>
      <trkpt lat="43.92578" lon="1.87733">
        <ele>218.6</ele>
        <time>2021-09-26T07:17:54Z</time>
      </trkpt>
      <trkpt lat="43.92579" lon="1.87732">
        <ele>218.8</ele>
        <time>2021-09-26T07:17:55Z</time>
      </trkpt>
      <trkpt lat="43.92581" lon="1.87731">
        <ele>218.8</ele>
        <time>2021-09-26T07:17:56Z</time>
      </trkpt>
      <trkpt lat="43.92583" lon="1.8773">
        <ele>218.8</ele>
        <time>2021-09-26T07:17:57Z</time>
      </trkpt>
      <trkpt lat="43.92585" lon="1.8773">
        <ele>218.8</ele>
        <time>2021-09-26T07:17:58Z</time>
      </trkpt>
      <trkpt lat="43.92587" lon="1.87729">
        <ele>219</ele>
        <time>2021-09-26T07:17:59Z</time>
      </trkpt>
      <trkpt lat="43.9259" lon="1.87728">
        <ele>219</ele>
        <time>2021-09-26T07:18:00Z</time>
      </trkpt>
      <trkpt lat="43.92592" lon="1.87727">
        <ele>219</ele>
        <time>2021-09-26T07:18:01Z</time>
      </trkpt>
      <trkpt lat="43.92595" lon="1.87726">
        <ele>219</ele>
        <time>2021-09-26T07:18:02Z</time>
      </trkpt>
      <trkpt lat="43.92598" lon="1.87724">
        <ele>219</ele>
        <time>2021-09-26T07:18:03Z</time>
      </trkpt>
      <trkpt lat="43.92601" lon="1.87723">
        <ele>219</ele>
        <time>2021-09-26T07:18:04Z</time>
      </trkpt>
      <trkpt lat="43.92604" lon="1.87722">
        <ele>219.2</ele>
        <time>2021-09-26T07:18:05Z</time>
      </trkpt>
      <trkpt lat="43.92607" lon="1.8772">
        <ele>219.2</ele>
        <time>2021-09-26T07:18:06Z</time>
      </trkpt>
      <trkpt lat="43.92609" lon="1.87719">
        <ele>219.2</ele>
        <time>2021-09-26T07:18:07Z</time>
      </trkpt>
      <trkpt lat="43.92612" lon="1.87718">
        <ele>219.2</ele>
        <time>2021-09-26T07:18:08Z</time>
      </trkpt>
      <trkpt lat="43.92614" lon="1.87716">
        <ele>219.4</ele>
        <time>2021-09-26T07:18:09Z</time>
      </trkpt>
      <trkpt lat="43.92617" lon="1.87714">
        <ele>219.4</ele>
        <time>2021-09-26T07:18:10Z</time>
      </trkpt>
      <trkpt lat="43.92627" lon="1.87703">
        <ele>219.2</ele>
        <time>2021-09-26T07:18:15Z</time>
      </trkpt>
      <trkpt lat="43.92629" lon="1.87701">
        <ele>219.2</ele>
        <time>2021-09-26T07:18:16Z</time>
      </trkpt>
      <trkpt lat="43.9263" lon="1.87698">
        <ele>219.2</ele>
        <time>2021-09-26T07:18:17Z</time>
      </trkpt>
      <trkpt lat="43.92632" lon="1.87696">
        <ele>219.2</ele>
        <time>2021-09-26T07:18:18Z</time>
      </trkpt>
      <trkpt lat="43.92634" lon="1.87694">
        <ele>219.2</ele>
        <time>2021-09-26T07:18:19Z</time>
      </trkpt>
      <trkpt lat="43.92636" lon="1.87692">
        <ele>219.2</ele>
        <time>2021-09-26T07:18:20Z</time>
      </trkpt>
      <trkpt lat="43.92637" lon="1.8769">
        <ele>219.4</ele>
        <time>2021-09-26T07:18:21Z</time>
      </trkpt>
      <trkpt lat="43.92639" lon="1.87687">
        <ele>219.8</ele>
        <time>2021-09-26T07:18:22Z</time>
      </trkpt>
      <trkpt lat="43.9264" lon="1.87685">
        <ele>220</ele>
        <time>2021-09-26T07:18:23Z</time>
      </trkpt>
      <trkpt lat="43.92642" lon="1.87682">
        <ele>220.2</ele>
        <time>2021-09-26T07:18:24Z</time>
      </trkpt>
      <trkpt lat="43.92643" lon="1.87679">
        <ele>220.4</ele>
        <time>2021-09-26T07:18:25Z</time>
      </trkpt>
      <trkpt lat="43.92644" lon="1.87677">
        <ele>220.6</ele>
        <time>2021-09-26T07:18:26Z</time>
      </trkpt>
      <trkpt lat="43.92646" lon="1.87672">
        <ele>221</ele>
        <time>2021-09-26T07:18:28Z</time>
      </trkpt>
      <trkpt lat="43.92646" lon="1.87669">
        <ele>221.4</ele>
        <time>2021-09-26T07:18:29Z</time>
      </trkpt>
      <trkpt lat="43.92647" lon="1.87666">
        <ele>221.4</ele>
        <time>2021-09-26T07:18:30Z</time>
      </trkpt>
      <trkpt lat="43.92647" lon="1.87663">
        <ele>221.6</ele>
        <time>2021-09-26T07:18:31Z</time>
      </trkpt>
      <trkpt lat="43.92648" lon="1.8766">
        <ele>222</ele>
        <time>2021-09-26T07:18:32Z</time>
      </trkpt>
      <trkpt lat="43.92648" lon="1.87658">
        <ele>222.4</ele>
        <time>2021-09-26T07:18:33Z</time>
      </trkpt>
      <trkpt lat="43.92649" lon="1.87655">
        <ele>222.6</ele>
        <time>2021-09-26T07:18:34Z</time>
      </trkpt>
      <trkpt lat="43.9265" lon="1.87652">
        <ele>222.8</ele>
        <time>2021-09-26T07:18:35Z</time>
      </trkpt>
      <trkpt lat="43.92651" lon="1.87649">
        <ele>223</ele>
        <time>2021-09-26T07:18:36Z</time>
      </trkpt>
      <trkpt lat="43.92652" lon="1.87646">
        <ele>223.2</ele>
        <time>2021-09-26T07:18:37Z</time>
      </trkpt>
      <trkpt lat="43.92654" lon="1.87643">
        <ele>223.4</ele>
        <time>2021-09-26T07:18:38Z</time>
      </trkpt>
      <trkpt lat="43.92655" lon="1.87641">
        <ele>223.4</ele>
        <time>2021-09-26T07:18:39Z</time>
      </trkpt>
      <trkpt lat="43.92656" lon="1.87638">
        <ele>223.6</ele>
        <time>2021-09-26T07:18:40Z</time>
      </trkpt>
      <trkpt lat="43.92658" lon="1.87636">
        <ele>223.6</ele>
        <time>2021-09-26T07:18:41Z</time>
      </trkpt>
      <trkpt lat="43.9266" lon="1.87634">
        <ele>223.8</ele>
        <time>2021-09-26T07:18:42Z</time>
      </trkpt>
      <trkpt lat="43.92661" lon="1.87631">
        <ele>223.8</ele>
        <time>2021-09-26T07:18:43Z</time>
      </trkpt>
      <trkpt lat="43.92663" lon="1.87629">
        <ele>224.2</ele>
        <time>2021-09-26T07:18:44Z</time>
      </trkpt>
      <trkpt lat="43.92664" lon="1.87627">
        <ele>224.4</ele>
        <time>2021-09-26T07:18:45Z</time>
      </trkpt>
      <trkpt lat="43.92665" lon="1.87624">
        <ele>224.6</ele>
        <time>2021-09-26T07:18:46Z</time>
      </trkpt>
      <trkpt lat="43.92666" lon="1.87622">
        <ele>224.8</ele>
        <time>2021-09-26T07:18:47Z</time>
      </trkpt>
      <trkpt lat="43.92668" lon="1.87619">
        <ele>224.8</ele>
        <time>2021-09-26T07:18:48Z</time>
      </trkpt>
      <trkpt lat="43.9267" lon="1.87617">
        <ele>225</ele>
        <time>2021-09-26T07:18:49Z</time>
      </trkpt>
      <trkpt lat="43.92671" lon="1.87615">
        <ele>225</ele>
        <time>2021-09-26T07:18:50Z</time>
      </trkpt>
      <trkpt lat="43.92673" lon="1.87612">
        <ele>225.2</ele>
        <time>2021-09-26T07:18:51Z</time>
      </trkpt>
      <trkpt lat="43.92674" lon="1.87609">
        <ele>225.2</ele>
        <time>2021-09-26T07:18:52Z</time>
      </trkpt>
      <trkpt lat="43.92676" lon="1.87607">
        <ele>225.4</ele>
        <time>2021-09-26T07:18:53Z</time>
      </trkpt>
      <trkpt lat="43.92678" lon="1.87604">
        <ele>225.6</ele>
        <time>2021-09-26T07:18:54Z</time>
      </trkpt>
      <trkpt lat="43.92679" lon="1.87601">
        <ele>225.6</ele>
        <time>2021-09-26T07:18:55Z</time>
      </trkpt>
      <trkpt lat="43.92681" lon="1.87599">
        <ele>225.8</ele>
        <time>2021-09-26T07:18:56Z</time>
      </trkpt>
      <trkpt lat="43.92683" lon="1.87597">
        <ele>225.8</ele>
        <time>2021-09-26T07:18:57Z</time>
      </trkpt>
      <trkpt lat="43.92685" lon="1.87594">
        <ele>226</ele>
        <time>2021-09-26T07:18:58Z</time>
      </trkpt>
      <trkpt lat="43.92686" lon="1.87592">
        <ele>226</ele>
        <time>2021-09-26T07:18:59Z</time>
      </trkpt>
      <trkpt lat="43.92688" lon="1.8759">
        <ele>226.2</ele>
        <time>2021-09-26T07:19:00Z</time>
      </trkpt>
      <trkpt lat="43.92689" lon="1.87588">
        <ele>226.2</ele>
        <time>2021-09-26T07:19:01Z</time>
      </trkpt>
      <trkpt lat="43.92691" lon="1.87586">
        <ele>226.4</ele>
        <time>2021-09-26T07:19:02Z</time>
      </trkpt>
      <trkpt lat="43.92692" lon="1.87585">
        <ele>226.4</ele>
        <time>2021-09-26T07:19:03Z</time>
      </trkpt>
      <trkpt lat="43.92693" lon="1.87583">
        <ele>226.4</ele>
        <time>2021-09-26T07:19:04Z</time>
      </trkpt>
      <trkpt lat="43.92694" lon="1.87581">
        <ele>226.6</ele>
        <time>2021-09-26T07:19:05Z</time>
      </trkpt>
      <trkpt lat="43.92695" lon="1.8758">
        <ele>226.6</ele>
        <time>2021-09-26T07:19:06Z</time>
      </trkpt>
      <trkpt lat="43.92697" lon="1.87577">
        <ele>226.4</ele>
        <time>2021-09-26T07:19:07Z</time>
      </trkpt>
      <trkpt lat="43.92699" lon="1.87575">
        <ele>226.6</ele>
        <time>2021-09-26T07:19:08Z</time>
      </trkpt>
      <trkpt lat="43.92701" lon="1.87572">
        <ele>226.6</ele>
        <time>2021-09-26T07:19:09Z</time>
      </trkpt>
      <trkpt lat="43.92702" lon="1.8757">
        <ele>226.6</ele>
        <time>2021-09-26T07:19:10Z</time>
      </trkpt>
      <trkpt lat="43.92704" lon="1.87568">
        <ele>226.8</ele>
        <time>2021-09-26T07:19:11Z</time>
      </trkpt>
      <trkpt lat="43.92706" lon="1.87565">
        <ele>226.8</ele>
        <time>2021-09-26T07:19:12Z</time>
      </trkpt>
      <trkpt lat="43.92708" lon="1.87563">
        <ele>226.8</ele>
        <time>2021-09-26T07:19:13Z</time>
      </trkpt>
      <trkpt lat="43.9271" lon="1.8756">
        <ele>227</ele>
        <time>2021-09-26T07:19:14Z</time>
      </trkpt>
      <trkpt lat="43.92712" lon="1.87558">
        <ele>227.2</ele>
        <time>2021-09-26T07:19:15Z</time>
      </trkpt>
      <trkpt lat="43.92714" lon="1.87556">
        <ele>227.2</ele>
        <time>2021-09-26T07:19:16Z</time>
      </trkpt>
      <trkpt lat="43.92716" lon="1.87554">
        <ele>227.2</ele>
        <time>2021-09-26T07:19:17Z</time>
      </trkpt>
      <trkpt lat="43.92718" lon="1.87552">
        <ele>227.4</ele>
        <time>2021-09-26T07:19:18Z</time>
      </trkpt>
      <trkpt lat="43.92732" lon="1.87526">
        <ele>227.2</ele>
        <time>2021-09-26T07:19:26Z</time>
      </trkpt>
      <trkpt lat="43.92741" lon="1.87506">
        <ele>226.2</ele>
        <time>2021-09-26T07:19:31Z</time>
      </trkpt>
      <trkpt lat="43.92751" lon="1.87488">
        <ele>225.4</ele>
        <time>2021-09-26T07:19:35Z</time>
      </trkpt>
      <trkpt lat="43.92753" lon="1.87484">
        <ele>225.4</ele>
        <time>2021-09-26T07:19:36Z</time>
      </trkpt>
      <trkpt lat="43.92756" lon="1.8748">
        <ele>225.2</ele>
        <time>2021-09-26T07:19:37Z</time>
      </trkpt>
      <trkpt lat="43.92759" lon="1.87477">
        <ele>225</ele>
        <time>2021-09-26T07:19:38Z</time>
      </trkpt>
      <trkpt lat="43.92776" lon="1.87449">
        <ele>224.4</ele>
        <time>2021-09-26T07:19:45Z</time>
      </trkpt>
      <trkpt lat="43.92795" lon="1.87417">
        <ele>224.2</ele>
        <time>2021-09-26T07:19:52Z</time>
      </trkpt>
      <trkpt lat="43.92802" lon="1.87407">
        <ele>223.8</ele>
        <time>2021-09-26T07:19:54Z</time>
      </trkpt>
      <trkpt lat="43.92805" lon="1.87402">
        <ele>223.6</ele>
        <time>2021-09-26T07:19:55Z</time>
      </trkpt>
      <trkpt lat="43.92815" lon="1.8739">
        <ele>222.2</ele>
        <time>2021-09-26T07:19:58Z</time>
      </trkpt>
      <trkpt lat="43.92825" lon="1.87379">
        <ele>221</ele>
        <time>2021-09-26T07:20:01Z</time>
      </trkpt>
      <trkpt lat="43.92828" lon="1.87375">
        <ele>221</ele>
        <time>2021-09-26T07:20:02Z</time>
      </trkpt>
      <trkpt lat="43.92831" lon="1.8737">
        <ele>220.6</ele>
        <time>2021-09-26T07:20:03Z</time>
      </trkpt>
      <trkpt lat="43.92833" lon="1.87366">
        <ele>220.4</ele>
        <time>2021-09-26T07:20:04Z</time>
      </trkpt>
      <trkpt lat="43.92835" lon="1.87361">
        <ele>219.6</ele>
        <time>2021-09-26T07:20:05Z</time>
      </trkpt>
      <trkpt lat="43.92841" lon="1.87352">
        <ele>219</ele>
        <time>2021-09-26T07:20:07Z</time>
      </trkpt>
      <trkpt lat="43.92844" lon="1.87349">
        <ele>218.6</ele>
        <time>2021-09-26T07:20:08Z</time>
      </trkpt>
      <trkpt lat="43.92847" lon="1.87346">
        <ele>218.4</ele>
        <time>2021-09-26T07:20:09Z</time>
      </trkpt>
      <trkpt lat="43.9285" lon="1.87344">
        <ele>217.8</ele>
        <time>2021-09-26T07:20:10Z</time>
      </trkpt>
      <trkpt lat="43.92853" lon="1.87341">
        <ele>217.8</ele>
        <time>2021-09-26T07:20:11Z</time>
      </trkpt>
      <trkpt lat="43.92855" lon="1.87339">
        <ele>217.6</ele>
        <time>2021-09-26T07:20:12Z</time>
      </trkpt>
      <trkpt lat="43.92858" lon="1.87336">
        <ele>217.6</ele>
        <time>2021-09-26T07:20:13Z</time>
      </trkpt>
      <trkpt lat="43.92861" lon="1.87333">
        <ele>217.4</ele>
        <time>2021-09-26T07:20:14Z</time>
      </trkpt>
      <trkpt lat="43.92863" lon="1.8733">
        <ele>217.4</ele>
        <time>2021-09-26T07:20:15Z</time>
      </trkpt>
      <trkpt lat="43.92866" lon="1.87327">
        <ele>217.4</ele>
        <time>2021-09-26T07:20:16Z</time>
      </trkpt>
      <trkpt lat="43.92868" lon="1.87324">
        <ele>217.4</ele>
        <time>2021-09-26T07:20:17Z</time>
      </trkpt>
      <trkpt lat="43.92871" lon="1.87321">
        <ele>217.4</ele>
        <time>2021-09-26T07:20:18Z</time>
      </trkpt>
      <trkpt lat="43.92889" lon="1.87288">
        <ele>217.4</ele>
        <time>2021-09-26T07:20:26Z</time>
      </trkpt>
      <trkpt lat="43.92894" lon="1.87276">
        <ele>217.4</ele>
        <time>2021-09-26T07:20:29Z</time>
      </trkpt>
      <trkpt lat="43.92896" lon="1.87272">
        <ele>217.4</ele>
        <time>2021-09-26T07:20:30Z</time>
      </trkpt>
      <trkpt lat="43.92898" lon="1.87268">
        <ele>217.4</ele>
        <time>2021-09-26T07:20:31Z</time>
      </trkpt>
      <trkpt lat="43.929" lon="1.87264">
        <ele>217.4</ele>
        <time>2021-09-26T07:20:32Z</time>
      </trkpt>
      <trkpt lat="43.92901" lon="1.8726">
        <ele>217.4</ele>
        <time>2021-09-26T07:20:33Z</time>
      </trkpt>
      <trkpt lat="43.92903" lon="1.87256">
        <ele>217.4</ele>
        <time>2021-09-26T07:20:34Z</time>
      </trkpt>
      <trkpt lat="43.92905" lon="1.87252">
        <ele>217.4</ele>
        <time>2021-09-26T07:20:35Z</time>
      </trkpt>
      <trkpt lat="43.92906" lon="1.87249">
        <ele>217.4</ele>
        <time>2021-09-26T07:20:36Z</time>
      </trkpt>
      <trkpt lat="43.9291" lon="1.87241">
        <ele>217.6</ele>
        <time>2021-09-26T07:20:38Z</time>
      </trkpt>
      <trkpt lat="43.92913" lon="1.87234">
        <ele>217.8</ele>
        <time>2021-09-26T07:20:40Z</time>
      </trkpt>
      <trkpt lat="43.92914" lon="1.87231">
        <ele>217.8</ele>
        <time>2021-09-26T07:20:41Z</time>
      </trkpt>
      <trkpt lat="43.92916" lon="1.87228">
        <ele>218</ele>
        <time>2021-09-26T07:20:42Z</time>
      </trkpt>
      <trkpt lat="43.92917" lon="1.87224">
        <ele>218</ele>
        <time>2021-09-26T07:20:43Z</time>
      </trkpt>
      <trkpt lat="43.92918" lon="1.87221">
        <ele>218.2</ele>
        <time>2021-09-26T07:20:44Z</time>
      </trkpt>
      <trkpt lat="43.9292" lon="1.87218">
        <ele>218.4</ele>
        <time>2021-09-26T07:20:45Z</time>
      </trkpt>
      <trkpt lat="43.92921" lon="1.87215">
        <ele>218.4</ele>
        <time>2021-09-26T07:20:46Z</time>
      </trkpt>
      <trkpt lat="43.92922" lon="1.87212">
        <ele>218.4</ele>
        <time>2021-09-26T07:20:47Z</time>
      </trkpt>
      <trkpt lat="43.92923" lon="1.87209">
        <ele>218.6</ele>
        <time>2021-09-26T07:20:48Z</time>
      </trkpt>
      <trkpt lat="43.92924" lon="1.87206">
        <ele>218.6</ele>
        <time>2021-09-26T07:20:49Z</time>
      </trkpt>
      <trkpt lat="43.92925" lon="1.87203">
        <ele>218.6</ele>
        <time>2021-09-26T07:20:50Z</time>
      </trkpt>
      <trkpt lat="43.92927" lon="1.87201">
        <ele>218.8</ele>
        <time>2021-09-26T07:20:51Z</time>
      </trkpt>
      <trkpt lat="43.92928" lon="1.87198">
        <ele>218.8</ele>
        <time>2021-09-26T07:20:52Z</time>
      </trkpt>
      <trkpt lat="43.9293" lon="1.87195">
        <ele>218.8</ele>
        <time>2021-09-26T07:20:53Z</time>
      </trkpt>
      <trkpt lat="43.9293" lon="1.87192">
        <ele>219</ele>
        <time>2021-09-26T07:20:54Z</time>
      </trkpt>
      <trkpt lat="43.92931" lon="1.87189">
        <ele>219.2</ele>
        <time>2021-09-26T07:20:55Z</time>
      </trkpt>
      <trkpt lat="43.92933" lon="1.87183">
        <ele>219.4</ele>
        <time>2021-09-26T07:20:57Z</time>
      </trkpt>
      <trkpt lat="43.92934" lon="1.87181">
        <ele>219.4</ele>
        <time>2021-09-26T07:20:58Z</time>
      </trkpt>
      <trkpt lat="43.92935" lon="1.87178">
        <ele>219.6</ele>
        <time>2021-09-26T07:20:59Z</time>
      </trkpt>
      <trkpt lat="43.92936" lon="1.87175">
        <ele>219.6</ele>
        <time>2021-09-26T07:21:00Z</time>
      </trkpt>
      <trkpt lat="43.92937" lon="1.87173">
        <ele>220</ele>
        <time>2021-09-26T07:21:01Z</time>
      </trkpt>
      <trkpt lat="43.92938" lon="1.87171">
        <ele>220</ele>
        <time>2021-09-26T07:21:02Z</time>
      </trkpt>
      <trkpt lat="43.92939" lon="1.87169">
        <ele>220.2</ele>
        <time>2021-09-26T07:21:03Z</time>
      </trkpt>
      <trkpt lat="43.9294" lon="1.87167">
        <ele>220.2</ele>
        <time>2021-09-26T07:21:04Z</time>
      </trkpt>
      <trkpt lat="43.92941" lon="1.87164">
        <ele>220.4</ele>
        <time>2021-09-26T07:21:05Z</time>
      </trkpt>
      <trkpt lat="43.92942" lon="1.87162">
        <ele>220.6</ele>
        <time>2021-09-26T07:21:06Z</time>
      </trkpt>
      <trkpt lat="43.92943" lon="1.87159">
        <ele>220.8</ele>
        <time>2021-09-26T07:21:07Z</time>
      </trkpt>
      <trkpt lat="43.92944" lon="1.87157">
        <ele>220.8</ele>
        <time>2021-09-26T07:21:08Z</time>
      </trkpt>
      <trkpt lat="43.92945" lon="1.87154">
        <ele>221</ele>
        <time>2021-09-26T07:21:09Z</time>
      </trkpt>
      <trkpt lat="43.92946" lon="1.87152">
        <ele>221.2</ele>
        <time>2021-09-26T07:21:10Z</time>
      </trkpt>
      <trkpt lat="43.92947" lon="1.87149">
        <ele>221.2</ele>
        <time>2021-09-26T07:21:11Z</time>
      </trkpt>
      <trkpt lat="43.92947" lon="1.87147">
        <ele>221.4</ele>
        <time>2021-09-26T07:21:12Z</time>
      </trkpt>
      <trkpt lat="43.92948" lon="1.87144">
        <ele>221.4</ele>
        <time>2021-09-26T07:21:13Z</time>
      </trkpt>
      <trkpt lat="43.92949" lon="1.87142">
        <ele>221.8</ele>
        <time>2021-09-26T07:21:14Z</time>
      </trkpt>
      <trkpt lat="43.92949" lon="1.87139">
        <ele>221.8</ele>
        <time>2021-09-26T07:21:15Z</time>
      </trkpt>
      <trkpt lat="43.9295" lon="1.87136">
        <ele>222</ele>
        <time>2021-09-26T07:21:16Z</time>
      </trkpt>
      <trkpt lat="43.9295" lon="1.87134">
        <ele>222.2</ele>
        <time>2021-09-26T07:21:17Z</time>
      </trkpt>
      <trkpt lat="43.92949" lon="1.87132">
        <ele>222.2</ele>
        <time>2021-09-26T07:21:18Z</time>
      </trkpt>
      <trkpt lat="43.92946" lon="1.87131">
        <ele>222.4</ele>
        <time>2021-09-26T07:21:19Z</time>
      </trkpt>
      <trkpt lat="43.92944" lon="1.8713">
        <ele>222.6</ele>
        <time>2021-09-26T07:21:20Z</time>
      </trkpt>
      <trkpt lat="43.92941" lon="1.87128">
        <ele>222.6</ele>
        <time>2021-09-26T07:21:21Z</time>
      </trkpt>
      <trkpt lat="43.9294" lon="1.87125">
        <ele>222.8</ele>
        <time>2021-09-26T07:21:22Z</time>
      </trkpt>
      <trkpt lat="43.92939" lon="1.87122">
        <ele>223</ele>
        <time>2021-09-26T07:21:23Z</time>
      </trkpt>
      <trkpt lat="43.92938" lon="1.87119">
        <ele>223.4</ele>
        <time>2021-09-26T07:21:24Z</time>
      </trkpt>
      <trkpt lat="43.92937" lon="1.87116">
        <ele>223.6</ele>
        <time>2021-09-26T07:21:25Z</time>
      </trkpt>
      <trkpt lat="43.92936" lon="1.87113">
        <ele>223.8</ele>
        <time>2021-09-26T07:21:26Z</time>
      </trkpt>
      <trkpt lat="43.92935" lon="1.8711">
        <ele>224</ele>
        <time>2021-09-26T07:21:27Z</time>
      </trkpt>
      <trkpt lat="43.92934" lon="1.87106">
        <ele>224.4</ele>
        <time>2021-09-26T07:21:28Z</time>
      </trkpt>
      <trkpt lat="43.92933" lon="1.87103">
        <ele>224.6</ele>
        <time>2021-09-26T07:21:29Z</time>
      </trkpt>
      <trkpt lat="43.92932" lon="1.871">
        <ele>224.8</ele>
        <time>2021-09-26T07:21:30Z</time>
      </trkpt>
      <trkpt lat="43.92931" lon="1.87097">
        <ele>225</ele>
        <time>2021-09-26T07:21:31Z</time>
      </trkpt>
      <trkpt lat="43.9293" lon="1.87093">
        <ele>225.4</ele>
        <time>2021-09-26T07:21:32Z</time>
      </trkpt>
      <trkpt lat="43.92928" lon="1.8709">
        <ele>226</ele>
        <time>2021-09-26T07:21:33Z</time>
      </trkpt>
      <trkpt lat="43.92927" lon="1.87087">
        <ele>226.2</ele>
        <time>2021-09-26T07:21:34Z</time>
      </trkpt>
      <trkpt lat="43.92926" lon="1.87084">
        <ele>226.8</ele>
        <time>2021-09-26T07:21:35Z</time>
      </trkpt>
      <trkpt lat="43.92925" lon="1.87081">
        <ele>227</ele>
        <time>2021-09-26T07:21:36Z</time>
      </trkpt>
      <trkpt lat="43.92924" lon="1.87077">
        <ele>227.4</ele>
        <time>2021-09-26T07:21:37Z</time>
      </trkpt>
      <trkpt lat="43.92923" lon="1.87074">
        <ele>227.8</ele>
        <time>2021-09-26T07:21:38Z</time>
      </trkpt>
      <trkpt lat="43.92922" lon="1.87072">
        <ele>228</ele>
        <time>2021-09-26T07:21:39Z</time>
      </trkpt>
      <trkpt lat="43.9292" lon="1.87068">
        <ele>228.4</ele>
        <time>2021-09-26T07:21:40Z</time>
      </trkpt>
      <trkpt lat="43.92919" lon="1.87065">
        <ele>228.6</ele>
        <time>2021-09-26T07:21:41Z</time>
      </trkpt>
      <trkpt lat="43.92918" lon="1.87062">
        <ele>229</ele>
        <time>2021-09-26T07:21:42Z</time>
      </trkpt>
      <trkpt lat="43.92917" lon="1.87059">
        <ele>229.2</ele>
        <time>2021-09-26T07:21:43Z</time>
      </trkpt>
      <trkpt lat="43.92917" lon="1.87055">
        <ele>229.6</ele>
        <time>2021-09-26T07:21:44Z</time>
      </trkpt>
      <trkpt lat="43.92916" lon="1.87052">
        <ele>230.4</ele>
        <time>2021-09-26T07:21:45Z</time>
      </trkpt>
      <trkpt lat="43.92915" lon="1.87049">
        <ele>230.6</ele>
        <time>2021-09-26T07:21:46Z</time>
      </trkpt>
      <trkpt lat="43.92915" lon="1.87046">
        <ele>231</ele>
        <time>2021-09-26T07:21:47Z</time>
      </trkpt>
      <trkpt lat="43.92914" lon="1.87043">
        <ele>231.2</ele>
        <time>2021-09-26T07:21:48Z</time>
      </trkpt>
      <trkpt lat="43.92914" lon="1.8704">
        <ele>231.4</ele>
        <time>2021-09-26T07:21:49Z</time>
      </trkpt>
      <trkpt lat="43.92913" lon="1.87037">
        <ele>231.6</ele>
        <time>2021-09-26T07:21:50Z</time>
      </trkpt>
      <trkpt lat="43.92913" lon="1.87035">
        <ele>232.2</ele>
        <time>2021-09-26T07:21:51Z</time>
      </trkpt>
      <trkpt lat="43.92912" lon="1.87033">
        <ele>232.4</ele>
        <time>2021-09-26T07:21:52Z</time>
      </trkpt>
      <trkpt lat="43.92912" lon="1.8703">
        <ele>232.6</ele>
        <time>2021-09-26T07:21:53Z</time>
      </trkpt>
      <trkpt lat="43.92911" lon="1.87028">
        <ele>232.6</ele>
        <time>2021-09-26T07:21:54Z</time>
      </trkpt>
      <trkpt lat="43.92911" lon="1.87025">
        <ele>232.8</ele>
        <time>2021-09-26T07:21:55Z</time>
      </trkpt>
      <trkpt lat="43.9291" lon="1.87023">
        <ele>233.2</ele>
        <time>2021-09-26T07:21:56Z</time>
      </trkpt>
      <trkpt lat="43.9291" lon="1.87021">
        <ele>233.4</ele>
        <time>2021-09-26T07:21:57Z</time>
      </trkpt>
      <trkpt lat="43.92909" lon="1.87018">
        <ele>233.8</ele>
        <time>2021-09-26T07:21:58Z</time>
      </trkpt>
      <trkpt lat="43.92908" lon="1.87015">
        <ele>234</ele>
        <time>2021-09-26T07:21:59Z</time>
      </trkpt>
      <trkpt lat="43.92908" lon="1.87013">
        <ele>234.6</ele>
        <time>2021-09-26T07:22:00Z</time>
      </trkpt>
      <trkpt lat="43.92907" lon="1.8701">
        <ele>235.2</ele>
        <time>2021-09-26T07:22:01Z</time>
      </trkpt>
      <trkpt lat="43.92907" lon="1.87007">
        <ele>235.4</ele>
        <time>2021-09-26T07:22:02Z</time>
      </trkpt>
      <trkpt lat="43.92907" lon="1.87004">
        <ele>235.8</ele>
        <time>2021-09-26T07:22:03Z</time>
      </trkpt>
      <trkpt lat="43.92906" lon="1.87001">
        <ele>236</ele>
        <time>2021-09-26T07:22:04Z</time>
      </trkpt>
      <trkpt lat="43.92906" lon="1.86999">
        <ele>236.2</ele>
        <time>2021-09-26T07:22:05Z</time>
      </trkpt>
      <trkpt lat="43.92905" lon="1.86996">
        <ele>236.4</ele>
        <time>2021-09-26T07:22:06Z</time>
      </trkpt>
      <trkpt lat="43.92905" lon="1.86993">
        <ele>236.8</ele>
        <time>2021-09-26T07:22:07Z</time>
      </trkpt>
      <trkpt lat="43.92905" lon="1.86991">
        <ele>237.4</ele>
        <time>2021-09-26T07:22:08Z</time>
      </trkpt>
      <trkpt lat="43.92905" lon="1.86988">
        <ele>237.4</ele>
        <time>2021-09-26T07:22:09Z</time>
      </trkpt>
      <trkpt lat="43.92905" lon="1.86986">
        <ele>237.8</ele>
        <time>2021-09-26T07:22:10Z</time>
      </trkpt>
      <trkpt lat="43.92905" lon="1.86984">
        <ele>237.8</ele>
        <time>2021-09-26T07:22:11Z</time>
      </trkpt>
      <trkpt lat="43.92906" lon="1.86982">
        <ele>238.2</ele>
        <time>2021-09-26T07:22:12Z</time>
      </trkpt>
      <trkpt lat="43.92905" lon="1.8698">
        <ele>238.2</ele>
        <time>2021-09-26T07:22:13Z</time>
      </trkpt>
      <trkpt lat="43.92905" lon="1.86977">
        <ele>238.4</ele>
        <time>2021-09-26T07:22:14Z</time>
      </trkpt>
      <trkpt lat="43.92905" lon="1.86975">
        <ele>238.8</ele>
        <time>2021-09-26T07:22:15Z</time>
      </trkpt>
      <trkpt lat="43.92904" lon="1.86973">
        <ele>239</ele>
        <time>2021-09-26T07:22:16Z</time>
      </trkpt>
      <trkpt lat="43.92903" lon="1.86972">
        <ele>239</ele>
        <time>2021-09-26T07:22:17Z</time>
      </trkpt>
      <trkpt lat="43.92902" lon="1.86971">
        <ele>239.2</ele>
        <time>2021-09-26T07:22:18Z</time>
      </trkpt>
      <trkpt lat="43.929" lon="1.86971">
        <ele>239.6</ele>
        <time>2021-09-26T07:22:19Z</time>
      </trkpt>
      <trkpt lat="43.92899" lon="1.86971">
        <ele>239.6</ele>
        <time>2021-09-26T07:22:20Z</time>
      </trkpt>
      <trkpt lat="43.92897" lon="1.86972">
        <ele>240</ele>
        <time>2021-09-26T07:22:21Z</time>
      </trkpt>
      <trkpt lat="43.92896" lon="1.86972">
        <ele>240</ele>
        <time>2021-09-26T07:22:22Z</time>
      </trkpt>
      <trkpt lat="43.92895" lon="1.86973">
        <ele>240.2</ele>
        <time>2021-09-26T07:22:23Z</time>
      </trkpt>
      <trkpt lat="43.92893" lon="1.86973">
        <ele>240.2</ele>
        <time>2021-09-26T07:22:24Z</time>
      </trkpt>
      <trkpt lat="43.92892" lon="1.86973">
        <ele>240.4</ele>
        <time>2021-09-26T07:22:25Z</time>
      </trkpt>
      <trkpt lat="43.92891" lon="1.86974">
        <ele>240.4</ele>
        <time>2021-09-26T07:22:26Z</time>
      </trkpt>
      <trkpt lat="43.9289" lon="1.86974">
        <ele>240.4</ele>
        <time>2021-09-26T07:22:27Z</time>
      </trkpt>
      <trkpt lat="43.92888" lon="1.86974">
        <ele>240.4</ele>
        <time>2021-09-26T07:22:28Z</time>
      </trkpt>
      <trkpt lat="43.92887" lon="1.86974">
        <ele>240.4</ele>
        <time>2021-09-26T07:22:29Z</time>
      </trkpt>
      <trkpt lat="43.92885" lon="1.86975">
        <ele>240.4</ele>
        <time>2021-09-26T07:22:30Z</time>
      </trkpt>
      <trkpt lat="43.92884" lon="1.86975">
        <ele>240.4</ele>
        <time>2021-09-26T07:22:31Z</time>
      </trkpt>
      <trkpt lat="43.92883" lon="1.86976">
        <ele>240.4</ele>
        <time>2021-09-26T07:22:32Z</time>
      </trkpt>
      <trkpt lat="43.92881" lon="1.86976">
        <ele>240.2</ele>
        <time>2021-09-26T07:22:33Z</time>
      </trkpt>
      <trkpt lat="43.9288" lon="1.86977">
        <ele>240.2</ele>
        <time>2021-09-26T07:22:34Z</time>
      </trkpt>
      <trkpt lat="43.92878" lon="1.86977">
        <ele>240</ele>
        <time>2021-09-26T07:22:35Z</time>
      </trkpt>
      <trkpt lat="43.92877" lon="1.86977">
        <ele>240</ele>
        <time>2021-09-26T07:22:36Z</time>
      </trkpt>
      <trkpt lat="43.92875" lon="1.86978">
        <ele>240</ele>
        <time>2021-09-26T07:22:37Z</time>
      </trkpt>
      <trkpt lat="43.92873" lon="1.86978">
        <ele>240</ele>
        <time>2021-09-26T07:22:38Z</time>
      </trkpt>
      <trkpt lat="43.92872" lon="1.86979">
        <ele>239.8</ele>
        <time>2021-09-26T07:22:39Z</time>
      </trkpt>
      <trkpt lat="43.92871" lon="1.86979">
        <ele>239.6</ele>
        <time>2021-09-26T07:22:40Z</time>
      </trkpt>
      <trkpt lat="43.92869" lon="1.8698">
        <ele>239.6</ele>
        <time>2021-09-26T07:22:41Z</time>
      </trkpt>
      <trkpt lat="43.92862" lon="1.86982">
        <ele>238.8</ele>
        <time>2021-09-26T07:22:46Z</time>
      </trkpt>
      <trkpt lat="43.9285" lon="1.86987">
        <ele>238.2</ele>
        <time>2021-09-26T07:22:53Z</time>
      </trkpt>
      <trkpt lat="43.92845" lon="1.86988">
        <ele>237.6</ele>
        <time>2021-09-26T07:22:56Z</time>
      </trkpt>
      <trkpt lat="43.92838" lon="1.8699">
        <ele>237.6</ele>
        <time>2021-09-26T07:22:59Z</time>
      </trkpt>
      <trkpt lat="43.92823" lon="1.86997">
        <ele>236.6</ele>
        <time>2021-09-26T07:23:06Z</time>
      </trkpt>
      <trkpt lat="43.9282" lon="1.86997">
        <ele>236.4</ele>
        <time>2021-09-26T07:23:07Z</time>
      </trkpt>
      <trkpt lat="43.92814" lon="1.86998">
        <ele>236.2</ele>
        <time>2021-09-26T07:23:10Z</time>
      </trkpt>
      <trkpt lat="43.92788" lon="1.87007">
        <ele>235.6</ele>
        <time>2021-09-26T07:23:20Z</time>
      </trkpt>
      <trkpt lat="43.92782" lon="1.87008">
        <ele>235.6</ele>
        <time>2021-09-26T07:23:23Z</time>
      </trkpt>
      <trkpt lat="43.9278" lon="1.87008">
        <ele>235.6</ele>
        <time>2021-09-26T07:23:24Z</time>
      </trkpt>
      <trkpt lat="43.92779" lon="1.87008">
        <ele>235.6</ele>
        <time>2021-09-26T07:23:25Z</time>
      </trkpt>
      <trkpt lat="43.92778" lon="1.87008">
        <ele>235.4</ele>
        <time>2021-09-26T07:23:26Z</time>
      </trkpt>
      <trkpt lat="43.92778" lon="1.87008">
        <ele>235.4</ele>
        <time>2021-09-26T07:23:27Z</time>
      </trkpt>
      <trkpt lat="43.92774" lon="1.87009">
        <ele>235.4</ele>
        <time>2021-09-26T07:23:46Z</time>
      </trkpt>
      <trkpt lat="43.92769" lon="1.8701">
        <ele>235.2</ele>
        <time>2021-09-26T07:23:48Z</time>
      </trkpt>
      <trkpt lat="43.92753" lon="1.87013">
        <ele>235</ele>
        <time>2021-09-26T07:23:52Z</time>
      </trkpt>
      <trkpt lat="43.92743" lon="1.87017">
        <ele>234.6</ele>
        <time>2021-09-26T07:23:54Z</time>
      </trkpt>
      <trkpt lat="43.92731" lon="1.87023">
        <ele>234.2</ele>
        <time>2021-09-26T07:23:56Z</time>
      </trkpt>
      <trkpt lat="43.92701" lon="1.87034">
        <ele>233</ele>
        <time>2021-09-26T07:24:00Z</time>
      </trkpt>
      <trkpt lat="43.92695" lon="1.87037">
        <ele>232.4</ele>
        <time>2021-09-26T07:24:01Z</time>
      </trkpt>
      <trkpt lat="43.92679" lon="1.87048">
        <ele>231.8</ele>
        <time>2021-09-26T07:24:03Z</time>
      </trkpt>
      <trkpt lat="43.92672" lon="1.87054">
        <ele>231.6</ele>
        <time>2021-09-26T07:24:04Z</time>
      </trkpt>
      <trkpt lat="43.92665" lon="1.8706">
        <ele>230.8</ele>
        <time>2021-09-26T07:24:05Z</time>
      </trkpt>
      <trkpt lat="43.92659" lon="1.87064">
        <ele>230.6</ele>
        <time>2021-09-26T07:24:06Z</time>
      </trkpt>
      <trkpt lat="43.92645" lon="1.87073">
        <ele>229.6</ele>
        <time>2021-09-26T07:24:08Z</time>
      </trkpt>
      <trkpt lat="43.92639" lon="1.87076">
        <ele>229.4</ele>
        <time>2021-09-26T07:24:09Z</time>
      </trkpt>
      <trkpt lat="43.92633" lon="1.87077">
        <ele>228.8</ele>
        <time>2021-09-26T07:24:10Z</time>
      </trkpt>
      <trkpt lat="43.92627" lon="1.87077">
        <ele>228.4</ele>
        <time>2021-09-26T07:24:11Z</time>
      </trkpt>
      <trkpt lat="43.92622" lon="1.87077">
        <ele>227.8</ele>
        <time>2021-09-26T07:24:12Z</time>
      </trkpt>
      <trkpt lat="43.92617" lon="1.87075">
        <ele>227.6</ele>
        <time>2021-09-26T07:24:13Z</time>
      </trkpt>
      <trkpt lat="43.92611" lon="1.87074">
        <ele>226.4</ele>
        <time>2021-09-26T07:24:14Z</time>
      </trkpt>
      <trkpt lat="43.92601" lon="1.87073">
        <ele>225.6</ele>
        <time>2021-09-26T07:24:16Z</time>
      </trkpt>
      <trkpt lat="43.92595" lon="1.87074">
        <ele>224.8</ele>
        <time>2021-09-26T07:24:17Z</time>
      </trkpt>
      <trkpt lat="43.9259" lon="1.87075">
        <ele>224.4</ele>
        <time>2021-09-26T07:24:18Z</time>
      </trkpt>
      <trkpt lat="43.92585" lon="1.87076">
        <ele>224</ele>
        <time>2021-09-26T07:24:19Z</time>
      </trkpt>
      <trkpt lat="43.92574" lon="1.87079">
        <ele>223.2</ele>
        <time>2021-09-26T07:24:21Z</time>
      </trkpt>
      <trkpt lat="43.92563" lon="1.87083">
        <ele>221.8</ele>
        <time>2021-09-26T07:24:23Z</time>
      </trkpt>
      <trkpt lat="43.92559" lon="1.87084">
        <ele>220.8</ele>
        <time>2021-09-26T07:24:24Z</time>
      </trkpt>
      <trkpt lat="43.92555" lon="1.87086">
        <ele>220.2</ele>
        <time>2021-09-26T07:24:25Z</time>
      </trkpt>
      <trkpt lat="43.92551" lon="1.87087">
        <ele>219</ele>
        <time>2021-09-26T07:24:26Z</time>
      </trkpt>
      <trkpt lat="43.92549" lon="1.87088">
        <ele>218.4</ele>
        <time>2021-09-26T07:24:27Z</time>
      </trkpt>
      <trkpt lat="43.92546" lon="1.8709">
        <ele>216.8</ele>
        <time>2021-09-26T07:24:28Z</time>
      </trkpt>
      <trkpt lat="43.92543" lon="1.87091">
        <ele>216.2</ele>
        <time>2021-09-26T07:24:29Z</time>
      </trkpt>
      <trkpt lat="43.9254" lon="1.87093">
        <ele>214.8</ele>
        <time>2021-09-26T07:24:30Z</time>
      </trkpt>
      <trkpt lat="43.92538" lon="1.87095">
        <ele>213.6</ele>
        <time>2021-09-26T07:24:31Z</time>
      </trkpt>
      <trkpt lat="43.92534" lon="1.871">
        <ele>212.6</ele>
        <time>2021-09-26T07:24:33Z</time>
      </trkpt>
      <trkpt lat="43.92525" lon="1.87109">
        <ele>211</ele>
        <time>2021-09-26T07:24:36Z</time>
      </trkpt>
      <trkpt lat="43.92523" lon="1.87113">
        <ele>210.2</ele>
        <time>2021-09-26T07:24:37Z</time>
      </trkpt>
      <trkpt lat="43.9252" lon="1.87117">
        <ele>209.8</ele>
        <time>2021-09-26T07:24:38Z</time>
      </trkpt>
      <trkpt lat="43.92514" lon="1.87121">
        <ele>209</ele>
        <time>2021-09-26T07:24:40Z</time>
      </trkpt>
      <trkpt lat="43.92511" lon="1.87121">
        <ele>208.8</ele>
        <time>2021-09-26T07:24:41Z</time>
      </trkpt>
      <trkpt lat="43.92509" lon="1.87119">
        <ele>207.8</ele>
        <time>2021-09-26T07:24:42Z</time>
      </trkpt>
      <trkpt lat="43.92507" lon="1.87116">
        <ele>206.8</ele>
        <time>2021-09-26T07:24:43Z</time>
      </trkpt>
      <trkpt lat="43.92506" lon="1.87112">
        <ele>205.6</ele>
        <time>2021-09-26T07:24:44Z</time>
      </trkpt>
      <trkpt lat="43.92505" lon="1.87108">
        <ele>204.8</ele>
        <time>2021-09-26T07:24:45Z</time>
      </trkpt>
      <trkpt lat="43.92504" lon="1.87104">
        <ele>204.4</ele>
        <time>2021-09-26T07:24:46Z</time>
      </trkpt>
      <trkpt lat="43.92503" lon="1.871">
        <ele>203.8</ele>
        <time>2021-09-26T07:24:47Z</time>
      </trkpt>
      <trkpt lat="43.92502" lon="1.87097">
        <ele>203.6</ele>
        <time>2021-09-26T07:24:48Z</time>
      </trkpt>
      <trkpt lat="43.92501" lon="1.87095">
        <ele>203.2</ele>
        <time>2021-09-26T07:24:49Z</time>
      </trkpt>
      <trkpt lat="43.925" lon="1.87093">
        <ele>203</ele>
        <time>2021-09-26T07:24:50Z</time>
      </trkpt>
      <trkpt lat="43.92499" lon="1.87091">
        <ele>202</ele>
        <time>2021-09-26T07:24:51Z</time>
      </trkpt>
      <trkpt lat="43.92498" lon="1.87089">
        <ele>201.8</ele>
        <time>2021-09-26T07:24:52Z</time>
      </trkpt>
      <trkpt lat="43.92497" lon="1.87087">
        <ele>200.8</ele>
        <time>2021-09-26T07:24:53Z</time>
      </trkpt>
      <trkpt lat="43.92493" lon="1.87081">
        <ele>199.8</ele>
        <time>2021-09-26T07:24:56Z</time>
      </trkpt>
      <trkpt lat="43.9249" lon="1.87078">
        <ele>199.4</ele>
        <time>2021-09-26T07:24:58Z</time>
      </trkpt>
      <trkpt lat="43.92485" lon="1.87075">
        <ele>198.2</ele>
        <time>2021-09-26T07:25:00Z</time>
      </trkpt>
      <trkpt lat="43.92479" lon="1.87071">
        <ele>197.2</ele>
        <time>2021-09-26T07:25:03Z</time>
      </trkpt>
      <trkpt lat="43.9247" lon="1.87065">
        <ele>195.6</ele>
        <time>2021-09-26T07:25:07Z</time>
      </trkpt>
      <trkpt lat="43.92463" lon="1.87061">
        <ele>194</ele>
        <time>2021-09-26T07:25:10Z</time>
      </trkpt>
      <trkpt lat="43.92457" lon="1.87057">
        <ele>193</ele>
        <time>2021-09-26T07:25:12Z</time>
      </trkpt>
      <trkpt lat="43.92448" lon="1.87052">
        <ele>191.4</ele>
        <time>2021-09-26T07:25:15Z</time>
      </trkpt>
      <trkpt lat="43.92442" lon="1.87049">
        <ele>190.2</ele>
        <time>2021-09-26T07:25:17Z</time>
      </trkpt>
      <trkpt lat="43.92431" lon="1.87043">
        <ele>189</ele>
        <time>2021-09-26T07:25:20Z</time>
      </trkpt>
      <trkpt lat="43.92423" lon="1.87039">
        <ele>188.2</ele>
        <time>2021-09-26T07:25:22Z</time>
      </trkpt>
      <trkpt lat="43.9242" lon="1.87037">
        <ele>187.6</ele>
        <time>2021-09-26T07:25:23Z</time>
      </trkpt>
      <trkpt lat="43.92416" lon="1.87035">
        <ele>187</ele>
        <time>2021-09-26T07:25:24Z</time>
      </trkpt>
      <trkpt lat="43.92409" lon="1.8703">
        <ele>185.8</ele>
        <time>2021-09-26T07:25:26Z</time>
      </trkpt>
      <trkpt lat="43.92396" lon="1.87019">
        <ele>185</ele>
        <time>2021-09-26T07:25:29Z</time>
      </trkpt>
      <trkpt lat="43.92392" lon="1.87014">
        <ele>184</ele>
        <time>2021-09-26T07:25:30Z</time>
      </trkpt>
      <trkpt lat="43.92377" lon="1.87002">
        <ele>182.8</ele>
        <time>2021-09-26T07:25:33Z</time>
      </trkpt>
      <trkpt lat="43.92373" lon="1.86998">
        <ele>182.6</ele>
        <time>2021-09-26T07:25:34Z</time>
      </trkpt>
      <trkpt lat="43.92363" lon="1.86991">
        <ele>181.8</ele>
        <time>2021-09-26T07:25:36Z</time>
      </trkpt>
      <trkpt lat="43.92359" lon="1.86988">
        <ele>181.2</ele>
        <time>2021-09-26T07:25:37Z</time>
      </trkpt>
      <trkpt lat="43.9235" lon="1.86982">
        <ele>180.8</ele>
        <time>2021-09-26T07:25:39Z</time>
      </trkpt>
      <trkpt lat="43.92345" lon="1.8698">
        <ele>180.6</ele>
        <time>2021-09-26T07:25:40Z</time>
      </trkpt>
      <trkpt lat="43.9234" lon="1.86978">
        <ele>180.4</ele>
        <time>2021-09-26T07:25:41Z</time>
      </trkpt>
      <trkpt lat="43.92336" lon="1.86976">
        <ele>180.2</ele>
        <time>2021-09-26T07:25:42Z</time>
      </trkpt>
      <trkpt lat="43.92331" lon="1.86975">
        <ele>180.2</ele>
        <time>2021-09-26T07:25:43Z</time>
      </trkpt>
      <trkpt lat="43.92327" lon="1.86974">
        <ele>179.8</ele>
        <time>2021-09-26T07:25:44Z</time>
      </trkpt>
      <trkpt lat="43.92323" lon="1.86973">
        <ele>179.4</ele>
        <time>2021-09-26T07:25:45Z</time>
      </trkpt>
      <trkpt lat="43.92319" lon="1.86972">
        <ele>179.2</ele>
        <time>2021-09-26T07:25:46Z</time>
      </trkpt>
      <trkpt lat="43.92315" lon="1.86971">
        <ele>178.8</ele>
        <time>2021-09-26T07:25:47Z</time>
      </trkpt>
      <trkpt lat="43.92312" lon="1.8697">
        <ele>178.8</ele>
        <time>2021-09-26T07:25:48Z</time>
      </trkpt>
      <trkpt lat="43.92309" lon="1.8697">
        <ele>178.4</ele>
        <time>2021-09-26T07:25:49Z</time>
      </trkpt>
      <trkpt lat="43.92306" lon="1.86969">
        <ele>178.2</ele>
        <time>2021-09-26T07:25:50Z</time>
      </trkpt>
      <trkpt lat="43.92304" lon="1.86968">
        <ele>178</ele>
        <time>2021-09-26T07:25:51Z</time>
      </trkpt>
      <trkpt lat="43.92301" lon="1.86967">
        <ele>178</ele>
        <time>2021-09-26T07:25:52Z</time>
      </trkpt>
      <trkpt lat="43.92299" lon="1.86966">
        <ele>178</ele>
        <time>2021-09-26T07:25:53Z</time>
      </trkpt>
      <trkpt lat="43.92296" lon="1.86967">
        <ele>177.8</ele>
        <time>2021-09-26T07:25:54Z</time>
      </trkpt>
      <trkpt lat="43.92295" lon="1.86969">
        <ele>177.8</ele>
        <time>2021-09-26T07:25:55Z</time>
      </trkpt>
      <trkpt lat="43.92294" lon="1.86972">
        <ele>177.8</ele>
        <time>2021-09-26T07:25:56Z</time>
      </trkpt>
      <trkpt lat="43.92294" lon="1.86975">
        <ele>177.6</ele>
        <time>2021-09-26T07:25:57Z</time>
      </trkpt>
      <trkpt lat="43.92293" lon="1.86977">
        <ele>177.4</ele>
        <time>2021-09-26T07:25:58Z</time>
      </trkpt>
      <trkpt lat="43.92292" lon="1.8698">
        <ele>177.4</ele>
        <time>2021-09-26T07:25:59Z</time>
      </trkpt>
      <trkpt lat="43.92288" lon="1.8699">
        <ele>177.2</ele>
        <time>2021-09-26T07:26:03Z</time>
      </trkpt>
      <trkpt lat="43.92286" lon="1.86991">
        <ele>177.2</ele>
        <time>2021-09-26T07:26:04Z</time>
      </trkpt>
      <trkpt lat="43.92285" lon="1.86991">
        <ele>177.2</ele>
        <time>2021-09-26T07:26:05Z</time>
      </trkpt>
      <trkpt lat="43.92283" lon="1.8699">
        <ele>177.2</ele>
        <time>2021-09-26T07:26:06Z</time>
      </trkpt>
      <trkpt lat="43.92282" lon="1.86989">
        <ele>177.2</ele>
        <time>2021-09-26T07:26:07Z</time>
      </trkpt>
      <trkpt lat="43.9228" lon="1.86989">
        <ele>177.2</ele>
        <time>2021-09-26T07:26:08Z</time>
      </trkpt>
      <trkpt lat="43.92279" lon="1.86988">
        <ele>177.2</ele>
        <time>2021-09-26T07:26:09Z</time>
      </trkpt>
      <trkpt lat="43.92277" lon="1.86987">
        <ele>177.2</ele>
        <time>2021-09-26T07:26:10Z</time>
      </trkpt>
      <trkpt lat="43.92276" lon="1.86987">
        <ele>177.2</ele>
        <time>2021-09-26T07:26:11Z</time>
      </trkpt>
      <trkpt lat="43.92274" lon="1.86986">
        <ele>177.4</ele>
        <time>2021-09-26T07:26:12Z</time>
      </trkpt>
      <trkpt lat="43.92273" lon="1.86986">
        <ele>177.4</ele>
        <time>2021-09-26T07:26:13Z</time>
      </trkpt>
      <trkpt lat="43.92272" lon="1.86985">
        <ele>177.4</ele>
        <time>2021-09-26T07:26:14Z</time>
      </trkpt>
      <trkpt lat="43.9227" lon="1.86985">
        <ele>177.6</ele>
        <time>2021-09-26T07:26:15Z</time>
      </trkpt>
      <trkpt lat="43.92262" lon="1.86984">
        <ele>178.2</ele>
        <time>2021-09-26T07:26:21Z</time>
      </trkpt>
      <trkpt lat="43.9226" lon="1.86983">
        <ele>178.4</ele>
        <time>2021-09-26T07:26:22Z</time>
      </trkpt>
      <trkpt lat="43.92259" lon="1.86983">
        <ele>178.6</ele>
        <time>2021-09-26T07:26:23Z</time>
      </trkpt>
      <trkpt lat="43.92257" lon="1.86982">
        <ele>178.6</ele>
        <time>2021-09-26T07:26:24Z</time>
      </trkpt>
      <trkpt lat="43.92256" lon="1.86982">
        <ele>178.8</ele>
        <time>2021-09-26T07:26:25Z</time>
      </trkpt>
      <trkpt lat="43.92254" lon="1.86982">
        <ele>179</ele>
        <time>2021-09-26T07:26:26Z</time>
      </trkpt>
      <trkpt lat="43.92253" lon="1.86982">
        <ele>179.2</ele>
        <time>2021-09-26T07:26:27Z</time>
      </trkpt>
      <trkpt lat="43.92251" lon="1.86981">
        <ele>179.4</ele>
        <time>2021-09-26T07:26:29Z</time>
      </trkpt>
      <trkpt lat="43.92248" lon="1.86981">
        <ele>180</ele>
        <time>2021-09-26T07:26:31Z</time>
      </trkpt>
      <trkpt lat="43.92244" lon="1.8698">
        <ele>180.6</ele>
        <time>2021-09-26T07:26:34Z</time>
      </trkpt>
      <trkpt lat="43.92243" lon="1.8698">
        <ele>180.8</ele>
        <time>2021-09-26T07:26:35Z</time>
      </trkpt>
      <trkpt lat="43.92242" lon="1.8698">
        <ele>180.8</ele>
        <time>2021-09-26T07:26:36Z</time>
      </trkpt>
      <trkpt lat="43.92241" lon="1.8698">
        <ele>181</ele>
        <time>2021-09-26T07:26:37Z</time>
      </trkpt>
      <trkpt lat="43.92239" lon="1.8698">
        <ele>181.2</ele>
        <time>2021-09-26T07:26:38Z</time>
      </trkpt>
      <trkpt lat="43.92238" lon="1.8698">
        <ele>181.4</ele>
        <time>2021-09-26T07:26:39Z</time>
      </trkpt>
      <trkpt lat="43.92237" lon="1.8698">
        <ele>181.6</ele>
        <time>2021-09-26T07:26:40Z</time>
      </trkpt>
      <trkpt lat="43.92236" lon="1.86981">
        <ele>181.6</ele>
        <time>2021-09-26T07:26:41Z</time>
      </trkpt>
      <trkpt lat="43.92235" lon="1.86981">
        <ele>181.8</ele>
        <time>2021-09-26T07:26:42Z</time>
      </trkpt>
      <trkpt lat="43.92233" lon="1.86981">
        <ele>181.8</ele>
        <time>2021-09-26T07:26:43Z</time>
      </trkpt>
      <trkpt lat="43.92232" lon="1.86981">
        <ele>182</ele>
        <time>2021-09-26T07:26:44Z</time>
      </trkpt>
      <trkpt lat="43.92231" lon="1.86981">
        <ele>182.2</ele>
        <time>2021-09-26T07:26:45Z</time>
      </trkpt>
      <trkpt lat="43.92229" lon="1.86981">
        <ele>182.4</ele>
        <time>2021-09-26T07:26:46Z</time>
      </trkpt>
      <trkpt lat="43.92228" lon="1.86981">
        <ele>182.4</ele>
        <time>2021-09-26T07:26:47Z</time>
      </trkpt>
      <trkpt lat="43.92227" lon="1.86981">
        <ele>182.4</ele>
        <time>2021-09-26T07:26:48Z</time>
      </trkpt>
      <trkpt lat="43.92227" lon="1.86981">
        <ele>182.6</ele>
        <time>2021-09-26T07:26:49Z</time>
      </trkpt>
      <trkpt lat="43.92226" lon="1.8698">
        <ele>182.6</ele>
        <time>2021-09-26T07:26:50Z</time>
      </trkpt>
      <trkpt lat="43.92225" lon="1.8698">
        <ele>183</ele>
        <time>2021-09-26T07:26:51Z</time>
      </trkpt>
      <trkpt lat="43.92223" lon="1.8698">
        <ele>183.2</ele>
        <time>2021-09-26T07:26:52Z</time>
      </trkpt>
      <trkpt lat="43.92222" lon="1.8698">
        <ele>183.2</ele>
        <time>2021-09-26T07:26:53Z</time>
      </trkpt>
      <trkpt lat="43.92221" lon="1.8698">
        <ele>183.4</ele>
        <time>2021-09-26T07:26:54Z</time>
      </trkpt>
      <trkpt lat="43.9222" lon="1.86979">
        <ele>183.6</ele>
        <time>2021-09-26T07:26:55Z</time>
      </trkpt>
      <trkpt lat="43.92218" lon="1.86979">
        <ele>183.8</ele>
        <time>2021-09-26T07:26:56Z</time>
      </trkpt>
      <trkpt lat="43.92217" lon="1.86979">
        <ele>183.8</ele>
        <time>2021-09-26T07:26:57Z</time>
      </trkpt>
      <trkpt lat="43.92217" lon="1.86979">
        <ele>184</ele>
        <time>2021-09-26T07:26:58Z</time>
      </trkpt>
      <trkpt lat="43.92216" lon="1.86978">
        <ele>184</ele>
        <time>2021-09-26T07:26:59Z</time>
      </trkpt>
      <trkpt lat="43.92215" lon="1.86977">
        <ele>184</ele>
        <time>2021-09-26T07:27:00Z</time>
      </trkpt>
      <trkpt lat="43.92214" lon="1.86976">
        <ele>184.2</ele>
        <time>2021-09-26T07:27:01Z</time>
      </trkpt>
      <trkpt lat="43.92213" lon="1.86976">
        <ele>184.2</ele>
        <time>2021-09-26T07:27:02Z</time>
      </trkpt>
      <trkpt lat="43.92211" lon="1.86977">
        <ele>184.6</ele>
        <time>2021-09-26T07:27:03Z</time>
      </trkpt>
      <trkpt lat="43.92209" lon="1.86977">
        <ele>184.8</ele>
        <time>2021-09-26T07:27:04Z</time>
      </trkpt>
      <trkpt lat="43.92208" lon="1.86977">
        <ele>185.2</ele>
        <time>2021-09-26T07:27:05Z</time>
      </trkpt>
      <trkpt lat="43.92206" lon="1.86977">
        <ele>185.2</ele>
        <time>2021-09-26T07:27:06Z</time>
      </trkpt>
      <trkpt lat="43.92205" lon="1.86976">
        <ele>185.6</ele>
        <time>2021-09-26T07:27:07Z</time>
      </trkpt>
      <trkpt lat="43.92204" lon="1.86976">
        <ele>186</ele>
        <time>2021-09-26T07:27:08Z</time>
      </trkpt>
      <trkpt lat="43.92203" lon="1.86976">
        <ele>186</ele>
        <time>2021-09-26T07:27:09Z</time>
      </trkpt>
      <trkpt lat="43.92202" lon="1.86976">
        <ele>186.4</ele>
        <time>2021-09-26T07:27:10Z</time>
      </trkpt>
      <trkpt lat="43.922" lon="1.86976">
        <ele>186.6</ele>
        <time>2021-09-26T07:27:11Z</time>
      </trkpt>
      <trkpt lat="43.92197" lon="1.86976">
        <ele>186.8</ele>
        <time>2021-09-26T07:27:12Z</time>
      </trkpt>
      <trkpt lat="43.92195" lon="1.86976">
        <ele>187</ele>
        <time>2021-09-26T07:27:13Z</time>
      </trkpt>
      <trkpt lat="43.92195" lon="1.86976">
        <ele>187.4</ele>
        <time>2021-09-26T07:27:14Z</time>
      </trkpt>
      <trkpt lat="43.92192" lon="1.86975">
        <ele>187.6</ele>
        <time>2021-09-26T07:27:15Z</time>
      </trkpt>
      <trkpt lat="43.9219" lon="1.86975">
        <ele>188</ele>
        <time>2021-09-26T07:27:16Z</time>
      </trkpt>
      <trkpt lat="43.92186" lon="1.86974">
        <ele>188.4</ele>
        <time>2021-09-26T07:27:17Z</time>
      </trkpt>
      <trkpt lat="43.92185" lon="1.86975">
        <ele>188.6</ele>
        <time>2021-09-26T07:27:18Z</time>
      </trkpt>
      <trkpt lat="43.92184" lon="1.86975">
        <ele>188.8</ele>
        <time>2021-09-26T07:27:19Z</time>
      </trkpt>
      <trkpt lat="43.92183" lon="1.86976">
        <ele>189</ele>
        <time>2021-09-26T07:27:20Z</time>
      </trkpt>
      <trkpt lat="43.92182" lon="1.86976">
        <ele>189.4</ele>
        <time>2021-09-26T07:27:21Z</time>
      </trkpt>
      <trkpt lat="43.92179" lon="1.86974">
        <ele>189.8</ele>
        <time>2021-09-26T07:27:22Z</time>
      </trkpt>
      <trkpt lat="43.92178" lon="1.86974">
        <ele>190.2</ele>
        <time>2021-09-26T07:27:23Z</time>
      </trkpt>
      <trkpt lat="43.92177" lon="1.86973">
        <ele>190.6</ele>
        <time>2021-09-26T07:27:24Z</time>
      </trkpt>
      <trkpt lat="43.92176" lon="1.86973">
        <ele>190.8</ele>
        <time>2021-09-26T07:27:25Z</time>
      </trkpt>
      <trkpt lat="43.92176" lon="1.86973">
        <ele>191.2</ele>
        <time>2021-09-26T07:27:26Z</time>
      </trkpt>
      <trkpt lat="43.92175" lon="1.86972">
        <ele>191.4</ele>
        <time>2021-09-26T07:27:27Z</time>
      </trkpt>
      <trkpt lat="43.92174" lon="1.86972">
        <ele>192</ele>
        <time>2021-09-26T07:27:28Z</time>
      </trkpt>
      <trkpt lat="43.92173" lon="1.86972">
        <ele>192.2</ele>
        <time>2021-09-26T07:27:29Z</time>
      </trkpt>
      <trkpt lat="43.92172" lon="1.86972">
        <ele>192.6</ele>
        <time>2021-09-26T07:27:30Z</time>
      </trkpt>
      <trkpt lat="43.92171" lon="1.86972">
        <ele>192.8</ele>
        <time>2021-09-26T07:27:31Z</time>
      </trkpt>
      <trkpt lat="43.9217" lon="1.86972">
        <ele>192.8</ele>
        <time>2021-09-26T07:27:32Z</time>
      </trkpt>
      <trkpt lat="43.92169" lon="1.86971">
        <ele>193.2</ele>
        <time>2021-09-26T07:27:33Z</time>
      </trkpt>
      <trkpt lat="43.92168" lon="1.86971">
        <ele>193.2</ele>
        <time>2021-09-26T07:27:34Z</time>
      </trkpt>
      <trkpt lat="43.92167" lon="1.86972">
        <ele>193.8</ele>
        <time>2021-09-26T07:27:35Z</time>
      </trkpt>
      <trkpt lat="43.92165" lon="1.86971">
        <ele>194</ele>
        <time>2021-09-26T07:27:36Z</time>
      </trkpt>
      <trkpt lat="43.92163" lon="1.86971">
        <ele>194.4</ele>
        <time>2021-09-26T07:27:37Z</time>
      </trkpt>
      <trkpt lat="43.92162" lon="1.8697">
        <ele>194.6</ele>
        <time>2021-09-26T07:27:38Z</time>
      </trkpt>
      <trkpt lat="43.92161" lon="1.8697">
        <ele>194.8</ele>
        <time>2021-09-26T07:27:39Z</time>
      </trkpt>
      <trkpt lat="43.92161" lon="1.8697">
        <ele>195.4</ele>
        <time>2021-09-26T07:27:40Z</time>
      </trkpt>
      <trkpt lat="43.9216" lon="1.86969">
        <ele>195.4</ele>
        <time>2021-09-26T07:27:41Z</time>
      </trkpt>
      <trkpt lat="43.92159" lon="1.86969">
        <ele>195.8</ele>
        <time>2021-09-26T07:27:42Z</time>
      </trkpt>
      <trkpt lat="43.92157" lon="1.86968">
        <ele>195.8</ele>
        <time>2021-09-26T07:27:43Z</time>
      </trkpt>
      <trkpt lat="43.92155" lon="1.86967">
        <ele>196.2</ele>
        <time>2021-09-26T07:27:44Z</time>
      </trkpt>
      <trkpt lat="43.92153" lon="1.86967">
        <ele>196.4</ele>
        <time>2021-09-26T07:27:45Z</time>
      </trkpt>
      <trkpt lat="43.9215" lon="1.86966">
        <ele>196.6</ele>
        <time>2021-09-26T07:27:46Z</time>
      </trkpt>
      <trkpt lat="43.92148" lon="1.86965">
        <ele>196.8</ele>
        <time>2021-09-26T07:27:47Z</time>
      </trkpt>
      <trkpt lat="43.92146" lon="1.86965">
        <ele>197</ele>
        <time>2021-09-26T07:27:48Z</time>
      </trkpt>
      <trkpt lat="43.92144" lon="1.86965">
        <ele>197.2</ele>
        <time>2021-09-26T07:27:49Z</time>
      </trkpt>
      <trkpt lat="43.92143" lon="1.86965">
        <ele>197.4</ele>
        <time>2021-09-26T07:27:50Z</time>
      </trkpt>
      <trkpt lat="43.92141" lon="1.86965">
        <ele>197.6</ele>
        <time>2021-09-26T07:27:51Z</time>
      </trkpt>
      <trkpt lat="43.9214" lon="1.86964">
        <ele>197.8</ele>
        <time>2021-09-26T07:27:52Z</time>
      </trkpt>
      <trkpt lat="43.92138" lon="1.86964">
        <ele>198</ele>
        <time>2021-09-26T07:27:53Z</time>
      </trkpt>
      <trkpt lat="43.92136" lon="1.86964">
        <ele>198.2</ele>
        <time>2021-09-26T07:27:54Z</time>
      </trkpt>
      <trkpt lat="43.92133" lon="1.86966">
        <ele>198.4</ele>
        <time>2021-09-26T07:27:55Z</time>
      </trkpt>
      <trkpt lat="43.92132" lon="1.86967">
        <ele>198.8</ele>
        <time>2021-09-26T07:27:56Z</time>
      </trkpt>
      <trkpt lat="43.9213" lon="1.86967">
        <ele>199</ele>
        <time>2021-09-26T07:27:57Z</time>
      </trkpt>
      <trkpt lat="43.92128" lon="1.86967">
        <ele>199.2</ele>
        <time>2021-09-26T07:27:58Z</time>
      </trkpt>
      <trkpt lat="43.92127" lon="1.86967">
        <ele>199.4</ele>
        <time>2021-09-26T07:27:59Z</time>
      </trkpt>
      <trkpt lat="43.92125" lon="1.86966">
        <ele>199.8</ele>
        <time>2021-09-26T07:28:00Z</time>
      </trkpt>
      <trkpt lat="43.92123" lon="1.86965">
        <ele>200</ele>
        <time>2021-09-26T07:28:01Z</time>
      </trkpt>
      <trkpt lat="43.92122" lon="1.86965">
        <ele>200.4</ele>
        <time>2021-09-26T07:28:02Z</time>
      </trkpt>
      <trkpt lat="43.92121" lon="1.86967">
        <ele>201</ele>
        <time>2021-09-26T07:28:03Z</time>
      </trkpt>
      <trkpt lat="43.92119" lon="1.86967">
        <ele>201.2</ele>
        <time>2021-09-26T07:28:04Z</time>
      </trkpt>
      <trkpt lat="43.92118" lon="1.86967">
        <ele>201.8</ele>
        <time>2021-09-26T07:28:05Z</time>
      </trkpt>
      <trkpt lat="43.92117" lon="1.86967">
        <ele>201.8</ele>
        <time>2021-09-26T07:28:06Z</time>
      </trkpt>
      <trkpt lat="43.92116" lon="1.86967">
        <ele>202</ele>
        <time>2021-09-26T07:28:07Z</time>
      </trkpt>
      <trkpt lat="43.92115" lon="1.86968">
        <ele>202</ele>
        <time>2021-09-26T07:28:08Z</time>
      </trkpt>
      <trkpt lat="43.92113" lon="1.86968">
        <ele>202.4</ele>
        <time>2021-09-26T07:28:09Z</time>
      </trkpt>
      <trkpt lat="43.92112" lon="1.86968">
        <ele>202.8</ele>
        <time>2021-09-26T07:28:10Z</time>
      </trkpt>
      <trkpt lat="43.9211" lon="1.86968">
        <ele>203</ele>
        <time>2021-09-26T07:28:11Z</time>
      </trkpt>
      <trkpt lat="43.92109" lon="1.86968">
        <ele>203.2</ele>
        <time>2021-09-26T07:28:12Z</time>
      </trkpt>
      <trkpt lat="43.92108" lon="1.86968">
        <ele>203.4</ele>
        <time>2021-09-26T07:28:13Z</time>
      </trkpt>
      <trkpt lat="43.92106" lon="1.86968">
        <ele>203.6</ele>
        <time>2021-09-26T07:28:14Z</time>
      </trkpt>
      <trkpt lat="43.92105" lon="1.86968">
        <ele>203.8</ele>
        <time>2021-09-26T07:28:15Z</time>
      </trkpt>
      <trkpt lat="43.92104" lon="1.86968">
        <ele>204</ele>
        <time>2021-09-26T07:28:16Z</time>
      </trkpt>
      <trkpt lat="43.92103" lon="1.86968">
        <ele>204.2</ele>
        <time>2021-09-26T07:28:17Z</time>
      </trkpt>
      <trkpt lat="43.92102" lon="1.86967">
        <ele>204.2</ele>
        <time>2021-09-26T07:28:18Z</time>
      </trkpt>
      <trkpt lat="43.92101" lon="1.86966">
        <ele>204.6</ele>
        <time>2021-09-26T07:28:19Z</time>
      </trkpt>
      <trkpt lat="43.92101" lon="1.86965">
        <ele>205</ele>
        <time>2021-09-26T07:28:20Z</time>
      </trkpt>
      <trkpt lat="43.921" lon="1.86964">
        <ele>205.4</ele>
        <time>2021-09-26T07:28:21Z</time>
      </trkpt>
      <trkpt lat="43.92101" lon="1.86963">
        <ele>205.6</ele>
        <time>2021-09-26T07:28:22Z</time>
      </trkpt>
      <trkpt lat="43.92102" lon="1.86962">
        <ele>205.8</ele>
        <time>2021-09-26T07:28:23Z</time>
      </trkpt>
      <trkpt lat="43.92102" lon="1.86961">
        <ele>206</ele>
        <time>2021-09-26T07:28:24Z</time>
      </trkpt>
      <trkpt lat="43.92103" lon="1.8696">
        <ele>206</ele>
        <time>2021-09-26T07:28:25Z</time>
      </trkpt>
      <trkpt lat="43.92103" lon="1.8696">
        <ele>206.2</ele>
        <time>2021-09-26T07:28:27Z</time>
      </trkpt>
      <trkpt lat="43.92105" lon="1.8695">
        <ele>207.4</ele>
        <time>2021-09-26T07:29:02Z</time>
      </trkpt>
      <trkpt lat="43.92104" lon="1.86951">
        <ele>207.4</ele>
        <time>2021-09-26T07:29:03Z</time>
      </trkpt>
      <trkpt lat="43.92103" lon="1.86954">
        <ele>207.2</ele>
        <time>2021-09-26T07:29:05Z</time>
      </trkpt>
      <trkpt lat="43.92102" lon="1.86956">
        <ele>207</ele>
        <time>2021-09-26T07:29:07Z</time>
      </trkpt>
      <trkpt lat="43.92102" lon="1.86956">
        <ele>207</ele>
        <time>2021-09-26T07:29:09Z</time>
      </trkpt>
      <trkpt lat="43.92099" lon="1.86958">
        <ele>206.2</ele>
        <time>2021-09-26T07:30:25Z</time>
      </trkpt>
      <trkpt lat="43.92092" lon="1.86959">
        <ele>206.2</ele>
        <time>2021-09-26T07:30:29Z</time>
      </trkpt>
      <trkpt lat="43.92091" lon="1.86958">
        <ele>206.2</ele>
        <time>2021-09-26T07:30:30Z</time>
      </trkpt>
      <trkpt lat="43.92089" lon="1.86957">
        <ele>206.2</ele>
        <time>2021-09-26T07:30:31Z</time>
      </trkpt>
      <trkpt lat="43.92075" lon="1.8695">
        <ele>206.2</ele>
        <time>2021-09-26T07:30:35Z</time>
      </trkpt>
      <trkpt lat="43.92067" lon="1.86943">
        <ele>205.8</ele>
        <time>2021-09-26T07:30:37Z</time>
      </trkpt>
      <trkpt lat="43.92057" lon="1.86934">
        <ele>205</ele>
        <time>2021-09-26T07:30:39Z</time>
      </trkpt>
      <trkpt lat="43.92052" lon="1.8693">
        <ele>204.4</ele>
        <time>2021-09-26T07:30:40Z</time>
      </trkpt>
      <trkpt lat="43.92044" lon="1.86922">
        <ele>203.6</ele>
        <time>2021-09-26T07:30:42Z</time>
      </trkpt>
      <trkpt lat="43.9204" lon="1.86918">
        <ele>203.4</ele>
        <time>2021-09-26T07:30:43Z</time>
      </trkpt>
      <trkpt lat="43.92037" lon="1.86915">
        <ele>201.8</ele>
        <time>2021-09-26T07:30:44Z</time>
      </trkpt>
      <trkpt lat="43.92033" lon="1.86912">
        <ele>201.4</ele>
        <time>2021-09-26T07:30:45Z</time>
      </trkpt>
      <trkpt lat="43.92029" lon="1.86908">
        <ele>200.8</ele>
        <time>2021-09-26T07:30:46Z</time>
      </trkpt>
      <trkpt lat="43.92023" lon="1.86905">
        <ele>199.6</ele>
        <time>2021-09-26T07:30:47Z</time>
      </trkpt>
      <trkpt lat="43.92018" lon="1.86901">
        <ele>199.2</ele>
        <time>2021-09-26T07:30:48Z</time>
      </trkpt>
      <trkpt lat="43.92014" lon="1.86897">
        <ele>198.2</ele>
        <time>2021-09-26T07:30:49Z</time>
      </trkpt>
      <trkpt lat="43.92006" lon="1.86889">
        <ele>197.4</ele>
        <time>2021-09-26T07:30:51Z</time>
      </trkpt>
      <trkpt lat="43.92002" lon="1.86883">
        <ele>197</ele>
        <time>2021-09-26T07:30:52Z</time>
      </trkpt>
      <trkpt lat="43.91994" lon="1.86873">
        <ele>196</ele>
        <time>2021-09-26T07:30:54Z</time>
      </trkpt>
      <trkpt lat="43.91981" lon="1.86852">
        <ele>194.2</ele>
        <time>2021-09-26T07:30:58Z</time>
      </trkpt>
      <trkpt lat="43.91973" lon="1.86841">
        <ele>192.8</ele>
        <time>2021-09-26T07:31:00Z</time>
      </trkpt>
      <trkpt lat="43.91964" lon="1.86827">
        <ele>191.4</ele>
        <time>2021-09-26T07:31:02Z</time>
      </trkpt>
      <trkpt lat="43.91952" lon="1.86811">
        <ele>190.2</ele>
        <time>2021-09-26T07:31:05Z</time>
      </trkpt>
      <trkpt lat="43.91943" lon="1.86799">
        <ele>188.8</ele>
        <time>2021-09-26T07:31:07Z</time>
      </trkpt>
      <trkpt lat="43.91934" lon="1.86789">
        <ele>187.6</ele>
        <time>2021-09-26T07:31:09Z</time>
      </trkpt>
      <trkpt lat="43.91931" lon="1.86784">
        <ele>186.2</ele>
        <time>2021-09-26T07:31:10Z</time>
      </trkpt>
      <trkpt lat="43.91926" lon="1.8678">
        <ele>185.6</ele>
        <time>2021-09-26T07:31:11Z</time>
      </trkpt>
      <trkpt lat="43.91923" lon="1.86777">
        <ele>184.8</ele>
        <time>2021-09-26T07:31:12Z</time>
      </trkpt>
      <trkpt lat="43.9192" lon="1.86775">
        <ele>184.4</ele>
        <time>2021-09-26T07:31:13Z</time>
      </trkpt>
      <trkpt lat="43.91917" lon="1.86774">
        <ele>183.6</ele>
        <time>2021-09-26T07:31:14Z</time>
      </trkpt>
      <trkpt lat="43.91907" lon="1.8677">
        <ele>182.4</ele>
        <time>2021-09-26T07:31:16Z</time>
      </trkpt>
      <trkpt lat="43.91893" lon="1.86769">
        <ele>181.2</ele>
        <time>2021-09-26T07:31:19Z</time>
      </trkpt>
      <trkpt lat="43.91881" lon="1.86769">
        <ele>180.6</ele>
        <time>2021-09-26T07:31:21Z</time>
      </trkpt>
      <trkpt lat="43.91867" lon="1.86769">
        <ele>180</ele>
        <time>2021-09-26T07:31:23Z</time>
      </trkpt>
      <trkpt lat="43.91854" lon="1.86767">
        <ele>179.4</ele>
        <time>2021-09-26T07:31:25Z</time>
      </trkpt>
      <trkpt lat="43.91848" lon="1.86764">
        <ele>178.6</ele>
        <time>2021-09-26T07:31:26Z</time>
      </trkpt>
      <trkpt lat="43.9184" lon="1.8676">
        <ele>178.2</ele>
        <time>2021-09-26T07:31:27Z</time>
      </trkpt>
      <trkpt lat="43.91834" lon="1.86756">
        <ele>177</ele>
        <time>2021-09-26T07:31:28Z</time>
      </trkpt>
      <trkpt lat="43.91823" lon="1.86749">
        <ele>175.8</ele>
        <time>2021-09-26T07:31:30Z</time>
      </trkpt>
      <trkpt lat="43.91817" lon="1.86745">
        <ele>175.6</ele>
        <time>2021-09-26T07:31:31Z</time>
      </trkpt>
      <trkpt lat="43.91812" lon="1.86741">
        <ele>175.2</ele>
        <time>2021-09-26T07:31:32Z</time>
      </trkpt>
      <trkpt lat="43.91809" lon="1.86738">
        <ele>174.4</ele>
        <time>2021-09-26T07:31:33Z</time>
      </trkpt>
      <trkpt lat="43.91806" lon="1.86735">
        <ele>174</ele>
        <time>2021-09-26T07:31:34Z</time>
      </trkpt>
      <trkpt lat="43.91805" lon="1.86731">
        <ele>173</ele>
        <time>2021-09-26T07:31:35Z</time>
      </trkpt>
      <trkpt lat="43.91805" lon="1.86727">
        <ele>172.6</ele>
        <time>2021-09-26T07:31:36Z</time>
      </trkpt>
      <trkpt lat="43.91807" lon="1.86724">
        <ele>172</ele>
        <time>2021-09-26T07:31:37Z</time>
      </trkpt>
      <trkpt lat="43.91808" lon="1.86721">
        <ele>171.6</ele>
        <time>2021-09-26T07:31:38Z</time>
      </trkpt>
      <trkpt lat="43.91809" lon="1.86718">
        <ele>171.2</ele>
        <time>2021-09-26T07:31:39Z</time>
      </trkpt>
      <trkpt lat="43.9181" lon="1.86715">
        <ele>170.6</ele>
        <time>2021-09-26T07:31:40Z</time>
      </trkpt>
      <trkpt lat="43.91821" lon="1.86686">
        <ele>170.4</ele>
        <time>2021-09-26T07:31:48Z</time>
      </trkpt>
      <trkpt lat="43.91827" lon="1.86669">
        <ele>171</ele>
        <time>2021-09-26T07:31:53Z</time>
      </trkpt>
      <trkpt lat="43.91828" lon="1.86666">
        <ele>171.2</ele>
        <time>2021-09-26T07:31:54Z</time>
      </trkpt>
      <trkpt lat="43.91829" lon="1.86663">
        <ele>171.2</ele>
        <time>2021-09-26T07:31:55Z</time>
      </trkpt>
      <trkpt lat="43.91835" lon="1.8665">
        <ele>171.4</ele>
        <time>2021-09-26T07:31:59Z</time>
      </trkpt>
      <trkpt lat="43.91841" lon="1.86634">
        <ele>171.8</ele>
        <time>2021-09-26T07:32:04Z</time>
      </trkpt>
      <trkpt lat="43.91842" lon="1.86632">
        <ele>171.6</ele>
        <time>2021-09-26T07:32:05Z</time>
      </trkpt>
      <trkpt lat="43.91843" lon="1.86629">
        <ele>171.6</ele>
        <time>2021-09-26T07:32:06Z</time>
      </trkpt>
      <trkpt lat="43.91844" lon="1.86626">
        <ele>171.6</ele>
        <time>2021-09-26T07:32:07Z</time>
      </trkpt>
      <trkpt lat="43.91845" lon="1.86623">
        <ele>171.6</ele>
        <time>2021-09-26T07:32:08Z</time>
      </trkpt>
      <trkpt lat="43.91846" lon="1.8662">
        <ele>171.6</ele>
        <time>2021-09-26T07:32:09Z</time>
      </trkpt>
      <trkpt lat="43.91848" lon="1.86614">
        <ele>171.8</ele>
        <time>2021-09-26T07:32:11Z</time>
      </trkpt>
      <trkpt lat="43.9185" lon="1.86611">
        <ele>172</ele>
        <time>2021-09-26T07:32:12Z</time>
      </trkpt>
      <trkpt lat="43.91851" lon="1.86608">
        <ele>172</ele>
        <time>2021-09-26T07:32:13Z</time>
      </trkpt>
      <trkpt lat="43.91852" lon="1.86605">
        <ele>172</ele>
        <time>2021-09-26T07:32:14Z</time>
      </trkpt>
      <trkpt lat="43.91853" lon="1.86601">
        <ele>172</ele>
        <time>2021-09-26T07:32:15Z</time>
      </trkpt>
      <trkpt lat="43.91858" lon="1.86592">
        <ele>172.6</ele>
        <time>2021-09-26T07:32:18Z</time>
      </trkpt>
      <trkpt lat="43.91869" lon="1.86566">
        <ele>173.6</ele>
        <time>2021-09-26T07:32:27Z</time>
      </trkpt>
      <trkpt lat="43.91871" lon="1.86562">
        <ele>173.6</ele>
        <time>2021-09-26T07:32:28Z</time>
      </trkpt>
      <trkpt lat="43.91872" lon="1.8656">
        <ele>173.6</ele>
        <time>2021-09-26T07:32:29Z</time>
      </trkpt>
      <trkpt lat="43.91882" lon="1.86541">
        <ele>174.4</ele>
        <time>2021-09-26T07:32:36Z</time>
      </trkpt>
      <trkpt lat="43.91884" lon="1.86539">
        <ele>174.6</ele>
        <time>2021-09-26T07:32:37Z</time>
      </trkpt>
      <trkpt lat="43.9189" lon="1.86528">
        <ele>175.2</ele>
        <time>2021-09-26T07:32:41Z</time>
      </trkpt>
      <trkpt lat="43.91891" lon="1.86525">
        <ele>175.4</ele>
        <time>2021-09-26T07:32:42Z</time>
      </trkpt>
      <trkpt lat="43.91893" lon="1.86522">
        <ele>175.4</ele>
        <time>2021-09-26T07:32:43Z</time>
      </trkpt>
      <trkpt lat="43.91894" lon="1.86519">
        <ele>175.4</ele>
        <time>2021-09-26T07:32:44Z</time>
      </trkpt>
      <trkpt lat="43.91896" lon="1.86516">
        <ele>175.4</ele>
        <time>2021-09-26T07:32:45Z</time>
      </trkpt>
      <trkpt lat="43.91897" lon="1.86514">
        <ele>175.4</ele>
        <time>2021-09-26T07:32:46Z</time>
      </trkpt>
      <trkpt lat="43.91899" lon="1.86511">
        <ele>175.6</ele>
        <time>2021-09-26T07:32:47Z</time>
      </trkpt>
      <trkpt lat="43.919" lon="1.86508">
        <ele>175.6</ele>
        <time>2021-09-26T07:32:48Z</time>
      </trkpt>
      <trkpt lat="43.91901" lon="1.86506">
        <ele>175.8</ele>
        <time>2021-09-26T07:32:49Z</time>
      </trkpt>
      <trkpt lat="43.91903" lon="1.86502">
        <ele>176</ele>
        <time>2021-09-26T07:32:50Z</time>
      </trkpt>
      <trkpt lat="43.91904" lon="1.865">
        <ele>175.8</ele>
        <time>2021-09-26T07:32:51Z</time>
      </trkpt>
      <trkpt lat="43.91905" lon="1.86498">
        <ele>176.2</ele>
        <time>2021-09-26T07:32:52Z</time>
      </trkpt>
      <trkpt lat="43.91906" lon="1.86495">
        <ele>176</ele>
        <time>2021-09-26T07:32:53Z</time>
      </trkpt>
      <trkpt lat="43.91908" lon="1.86492">
        <ele>176.2</ele>
        <time>2021-09-26T07:32:54Z</time>
      </trkpt>
      <trkpt lat="43.91909" lon="1.86489">
        <ele>176.2</ele>
        <time>2021-09-26T07:32:55Z</time>
      </trkpt>
      <trkpt lat="43.9191" lon="1.86487">
        <ele>176.4</ele>
        <time>2021-09-26T07:32:56Z</time>
      </trkpt>
      <trkpt lat="43.91912" lon="1.86485">
        <ele>176.4</ele>
        <time>2021-09-26T07:32:57Z</time>
      </trkpt>
      <trkpt lat="43.91913" lon="1.86482">
        <ele>176.6</ele>
        <time>2021-09-26T07:32:58Z</time>
      </trkpt>
      <trkpt lat="43.91915" lon="1.86479">
        <ele>176.6</ele>
        <time>2021-09-26T07:32:59Z</time>
      </trkpt>
      <trkpt lat="43.91916" lon="1.86477">
        <ele>176.8</ele>
        <time>2021-09-26T07:33:00Z</time>
      </trkpt>
      <trkpt lat="43.91917" lon="1.86475">
        <ele>176.8</ele>
        <time>2021-09-26T07:33:01Z</time>
      </trkpt>
      <trkpt lat="43.91919" lon="1.86472">
        <ele>177</ele>
        <time>2021-09-26T07:33:02Z</time>
      </trkpt>
      <trkpt lat="43.9192" lon="1.8647">
        <ele>177.2</ele>
        <time>2021-09-26T07:33:03Z</time>
      </trkpt>
      <trkpt lat="43.91922" lon="1.86467">
        <ele>177.2</ele>
        <time>2021-09-26T07:33:04Z</time>
      </trkpt>
      <trkpt lat="43.91923" lon="1.86464">
        <ele>177.4</ele>
        <time>2021-09-26T07:33:05Z</time>
      </trkpt>
      <trkpt lat="43.91925" lon="1.86461">
        <ele>177.4</ele>
        <time>2021-09-26T07:33:06Z</time>
      </trkpt>
      <trkpt lat="43.91926" lon="1.86459">
        <ele>177.6</ele>
        <time>2021-09-26T07:33:07Z</time>
      </trkpt>
      <trkpt lat="43.91927" lon="1.86457">
        <ele>177.6</ele>
        <time>2021-09-26T07:33:08Z</time>
      </trkpt>
      <trkpt lat="43.91928" lon="1.86455">
        <ele>177.8</ele>
        <time>2021-09-26T07:33:09Z</time>
      </trkpt>
      <trkpt lat="43.9193" lon="1.86452">
        <ele>178</ele>
        <time>2021-09-26T07:33:10Z</time>
      </trkpt>
      <trkpt lat="43.91931" lon="1.8645">
        <ele>178</ele>
        <time>2021-09-26T07:33:11Z</time>
      </trkpt>
      <trkpt lat="43.91933" lon="1.86448">
        <ele>178.2</ele>
        <time>2021-09-26T07:33:12Z</time>
      </trkpt>
      <trkpt lat="43.91934" lon="1.86446">
        <ele>178.4</ele>
        <time>2021-09-26T07:33:13Z</time>
      </trkpt>
      <trkpt lat="43.91935" lon="1.86444">
        <ele>178.6</ele>
        <time>2021-09-26T07:33:14Z</time>
      </trkpt>
      <trkpt lat="43.91936" lon="1.86442">
        <ele>178.6</ele>
        <time>2021-09-26T07:33:15Z</time>
      </trkpt>
      <trkpt lat="43.91938" lon="1.86439">
        <ele>178.8</ele>
        <time>2021-09-26T07:33:16Z</time>
      </trkpt>
      <trkpt lat="43.91939" lon="1.86438">
        <ele>179</ele>
        <time>2021-09-26T07:33:17Z</time>
      </trkpt>
      <trkpt lat="43.9194" lon="1.86435">
        <ele>179</ele>
        <time>2021-09-26T07:33:18Z</time>
      </trkpt>
      <trkpt lat="43.91942" lon="1.86433">
        <ele>179.2</ele>
        <time>2021-09-26T07:33:19Z</time>
      </trkpt>
      <trkpt lat="43.91943" lon="1.86432">
        <ele>179.2</ele>
        <time>2021-09-26T07:33:20Z</time>
      </trkpt>
      <trkpt lat="43.91944" lon="1.8643">
        <ele>179.4</ele>
        <time>2021-09-26T07:33:21Z</time>
      </trkpt>
      <trkpt lat="43.91946" lon="1.86428">
        <ele>179.4</ele>
        <time>2021-09-26T07:33:22Z</time>
      </trkpt>
      <trkpt lat="43.91947" lon="1.86426">
        <ele>179.6</ele>
        <time>2021-09-26T07:33:23Z</time>
      </trkpt>
      <trkpt lat="43.91948" lon="1.86424">
        <ele>179.6</ele>
        <time>2021-09-26T07:33:24Z</time>
      </trkpt>
      <trkpt lat="43.9195" lon="1.86422">
        <ele>179.8</ele>
        <time>2021-09-26T07:33:25Z</time>
      </trkpt>
      <trkpt lat="43.91952" lon="1.8642">
        <ele>179.8</ele>
        <time>2021-09-26T07:33:26Z</time>
      </trkpt>
      <trkpt lat="43.91953" lon="1.86418">
        <ele>179.8</ele>
        <time>2021-09-26T07:33:27Z</time>
      </trkpt>
      <trkpt lat="43.91954" lon="1.86416">
        <ele>180</ele>
        <time>2021-09-26T07:33:28Z</time>
      </trkpt>
      <trkpt lat="43.91955" lon="1.86414">
        <ele>180.2</ele>
        <time>2021-09-26T07:33:29Z</time>
      </trkpt>
      <trkpt lat="43.91957" lon="1.86412">
        <ele>180.2</ele>
        <time>2021-09-26T07:33:30Z</time>
      </trkpt>
      <trkpt lat="43.91959" lon="1.86411">
        <ele>180.4</ele>
        <time>2021-09-26T07:33:31Z</time>
      </trkpt>
      <trkpt lat="43.9196" lon="1.86409">
        <ele>180.4</ele>
        <time>2021-09-26T07:33:32Z</time>
      </trkpt>
      <trkpt lat="43.91961" lon="1.86407">
        <ele>180.4</ele>
        <time>2021-09-26T07:33:33Z</time>
      </trkpt>
      <trkpt lat="43.91963" lon="1.86406">
        <ele>180.6</ele>
        <time>2021-09-26T07:33:34Z</time>
      </trkpt>
      <trkpt lat="43.91964" lon="1.86404">
        <ele>180.6</ele>
        <time>2021-09-26T07:33:35Z</time>
      </trkpt>
      <trkpt lat="43.91965" lon="1.86403">
        <ele>180.8</ele>
        <time>2021-09-26T07:33:36Z</time>
      </trkpt>
      <trkpt lat="43.91967" lon="1.86401">
        <ele>180.8</ele>
        <time>2021-09-26T07:33:37Z</time>
      </trkpt>
      <trkpt lat="43.91968" lon="1.86399">
        <ele>181</ele>
        <time>2021-09-26T07:33:38Z</time>
      </trkpt>
      <trkpt lat="43.9197" lon="1.86398">
        <ele>181.2</ele>
        <time>2021-09-26T07:33:39Z</time>
      </trkpt>
      <trkpt lat="43.91971" lon="1.86396">
        <ele>181.2</ele>
        <time>2021-09-26T07:33:40Z</time>
      </trkpt>
      <trkpt lat="43.91972" lon="1.86394">
        <ele>181.4</ele>
        <time>2021-09-26T07:33:41Z</time>
      </trkpt>
      <trkpt lat="43.91974" lon="1.86393">
        <ele>181.6</ele>
        <time>2021-09-26T07:33:42Z</time>
      </trkpt>
      <trkpt lat="43.91975" lon="1.86391">
        <ele>181.6</ele>
        <time>2021-09-26T07:33:43Z</time>
      </trkpt>
      <trkpt lat="43.91976" lon="1.86389">
        <ele>181.8</ele>
        <time>2021-09-26T07:33:44Z</time>
      </trkpt>
      <trkpt lat="43.91978" lon="1.86388">
        <ele>181.8</ele>
        <time>2021-09-26T07:33:45Z</time>
      </trkpt>
      <trkpt lat="43.91979" lon="1.86386">
        <ele>182</ele>
        <time>2021-09-26T07:33:46Z</time>
      </trkpt>
      <trkpt lat="43.9198" lon="1.86384">
        <ele>182</ele>
        <time>2021-09-26T07:33:47Z</time>
      </trkpt>
      <trkpt lat="43.91982" lon="1.86383">
        <ele>182.2</ele>
        <time>2021-09-26T07:33:48Z</time>
      </trkpt>
      <trkpt lat="43.91983" lon="1.86382">
        <ele>182.2</ele>
        <time>2021-09-26T07:33:49Z</time>
      </trkpt>
      <trkpt lat="43.91984" lon="1.8638">
        <ele>182.4</ele>
        <time>2021-09-26T07:33:50Z</time>
      </trkpt>
      <trkpt lat="43.91985" lon="1.86378">
        <ele>182.4</ele>
        <time>2021-09-26T07:33:51Z</time>
      </trkpt>
      <trkpt lat="43.91986" lon="1.86376">
        <ele>182.6</ele>
        <time>2021-09-26T07:33:52Z</time>
      </trkpt>
      <trkpt lat="43.91987" lon="1.86374">
        <ele>182.6</ele>
        <time>2021-09-26T07:33:53Z</time>
      </trkpt>
      <trkpt lat="43.91989" lon="1.86373">
        <ele>182.8</ele>
        <time>2021-09-26T07:33:54Z</time>
      </trkpt>
      <trkpt lat="43.9199" lon="1.86371">
        <ele>182.8</ele>
        <time>2021-09-26T07:33:55Z</time>
      </trkpt>
      <trkpt lat="43.91991" lon="1.86368">
        <ele>183.2</ele>
        <time>2021-09-26T07:33:56Z</time>
      </trkpt>
      <trkpt lat="43.91992" lon="1.86366">
        <ele>183.2</ele>
        <time>2021-09-26T07:33:57Z</time>
      </trkpt>
      <trkpt lat="43.91993" lon="1.86365">
        <ele>183.4</ele>
        <time>2021-09-26T07:33:58Z</time>
      </trkpt>
      <trkpt lat="43.91994" lon="1.86363">
        <ele>183.4</ele>
        <time>2021-09-26T07:33:59Z</time>
      </trkpt>
      <trkpt lat="43.91995" lon="1.86361">
        <ele>183.6</ele>
        <time>2021-09-26T07:34:00Z</time>
      </trkpt>
      <trkpt lat="43.91996" lon="1.86358">
        <ele>183.6</ele>
        <time>2021-09-26T07:34:01Z</time>
      </trkpt>
      <trkpt lat="43.91997" lon="1.86356">
        <ele>183.8</ele>
        <time>2021-09-26T07:34:02Z</time>
      </trkpt>
      <trkpt lat="43.91998" lon="1.86354">
        <ele>184</ele>
        <time>2021-09-26T07:34:03Z</time>
      </trkpt>
      <trkpt lat="43.91999" lon="1.86352">
        <ele>184</ele>
        <time>2021-09-26T07:34:04Z</time>
      </trkpt>
      <trkpt lat="43.91999" lon="1.86349">
        <ele>184.2</ele>
        <time>2021-09-26T07:34:05Z</time>
      </trkpt>
      <trkpt lat="43.92" lon="1.86347">
        <ele>184.4</ele>
        <time>2021-09-26T07:34:06Z</time>
      </trkpt>
      <trkpt lat="43.92001" lon="1.86344">
        <ele>184.8</ele>
        <time>2021-09-26T07:34:07Z</time>
      </trkpt>
      <trkpt lat="43.92001" lon="1.86343">
        <ele>184.8</ele>
        <time>2021-09-26T07:34:08Z</time>
      </trkpt>
      <trkpt lat="43.92002" lon="1.86341">
        <ele>185</ele>
        <time>2021-09-26T07:34:09Z</time>
      </trkpt>
      <trkpt lat="43.92003" lon="1.86338">
        <ele>185.2</ele>
        <time>2021-09-26T07:34:10Z</time>
      </trkpt>
      <trkpt lat="43.92003" lon="1.86336">
        <ele>185.4</ele>
        <time>2021-09-26T07:34:11Z</time>
      </trkpt>
      <trkpt lat="43.92004" lon="1.86333">
        <ele>185.4</ele>
        <time>2021-09-26T07:34:12Z</time>
      </trkpt>
      <trkpt lat="43.92005" lon="1.86331">
        <ele>185.6</ele>
        <time>2021-09-26T07:34:13Z</time>
      </trkpt>
      <trkpt lat="43.92005" lon="1.86329">
        <ele>185.6</ele>
        <time>2021-09-26T07:34:14Z</time>
      </trkpt>
      <trkpt lat="43.92006" lon="1.86326">
        <ele>185.8</ele>
        <time>2021-09-26T07:34:15Z</time>
      </trkpt>
      <trkpt lat="43.92007" lon="1.86324">
        <ele>185.8</ele>
        <time>2021-09-26T07:34:16Z</time>
      </trkpt>
      <trkpt lat="43.92007" lon="1.86322">
        <ele>186</ele>
        <time>2021-09-26T07:34:17Z</time>
      </trkpt>
      <trkpt lat="43.92008" lon="1.86319">
        <ele>186</ele>
        <time>2021-09-26T07:34:18Z</time>
      </trkpt>
      <trkpt lat="43.92008" lon="1.86317">
        <ele>186.2</ele>
        <time>2021-09-26T07:34:19Z</time>
      </trkpt>
      <trkpt lat="43.92009" lon="1.86315">
        <ele>186.2</ele>
        <time>2021-09-26T07:34:20Z</time>
      </trkpt>
      <trkpt lat="43.9201" lon="1.86312">
        <ele>186.4</ele>
        <time>2021-09-26T07:34:21Z</time>
      </trkpt>
      <trkpt lat="43.9201" lon="1.8631">
        <ele>186.6</ele>
        <time>2021-09-26T07:34:22Z</time>
      </trkpt>
      <trkpt lat="43.92011" lon="1.86307">
        <ele>186.8</ele>
        <time>2021-09-26T07:34:23Z</time>
      </trkpt>
      <trkpt lat="43.92012" lon="1.86305">
        <ele>187</ele>
        <time>2021-09-26T07:34:24Z</time>
      </trkpt>
      <trkpt lat="43.92013" lon="1.86303">
        <ele>187</ele>
        <time>2021-09-26T07:34:25Z</time>
      </trkpt>
      <trkpt lat="43.92013" lon="1.863">
        <ele>187.2</ele>
        <time>2021-09-26T07:34:26Z</time>
      </trkpt>
      <trkpt lat="43.92014" lon="1.86298">
        <ele>187.4</ele>
        <time>2021-09-26T07:34:27Z</time>
      </trkpt>
      <trkpt lat="43.92015" lon="1.86295">
        <ele>187.6</ele>
        <time>2021-09-26T07:34:28Z</time>
      </trkpt>
      <trkpt lat="43.92016" lon="1.86293">
        <ele>187.6</ele>
        <time>2021-09-26T07:34:29Z</time>
      </trkpt>
      <trkpt lat="43.92017" lon="1.86291">
        <ele>187.8</ele>
        <time>2021-09-26T07:34:30Z</time>
      </trkpt>
      <trkpt lat="43.92018" lon="1.86289">
        <ele>187.8</ele>
        <time>2021-09-26T07:34:31Z</time>
      </trkpt>
      <trkpt lat="43.92019" lon="1.86287">
        <ele>188</ele>
        <time>2021-09-26T07:34:32Z</time>
      </trkpt>
      <trkpt lat="43.9202" lon="1.86285">
        <ele>188.2</ele>
        <time>2021-09-26T07:34:33Z</time>
      </trkpt>
      <trkpt lat="43.92021" lon="1.86283">
        <ele>188.2</ele>
        <time>2021-09-26T07:34:34Z</time>
      </trkpt>
      <trkpt lat="43.92022" lon="1.86281">
        <ele>188.6</ele>
        <time>2021-09-26T07:34:35Z</time>
      </trkpt>
      <trkpt lat="43.92022" lon="1.86279">
        <ele>188.6</ele>
        <time>2021-09-26T07:34:36Z</time>
      </trkpt>
      <trkpt lat="43.92023" lon="1.86277">
        <ele>188.6</ele>
        <time>2021-09-26T07:34:37Z</time>
      </trkpt>
      <trkpt lat="43.92024" lon="1.86275">
        <ele>188.6</ele>
        <time>2021-09-26T07:34:38Z</time>
      </trkpt>
      <trkpt lat="43.92025" lon="1.86273">
        <ele>188.8</ele>
        <time>2021-09-26T07:34:39Z</time>
      </trkpt>
      <trkpt lat="43.92026" lon="1.86271">
        <ele>189</ele>
        <time>2021-09-26T07:34:40Z</time>
      </trkpt>
      <trkpt lat="43.92027" lon="1.86269">
        <ele>189</ele>
        <time>2021-09-26T07:34:41Z</time>
      </trkpt>
      <trkpt lat="43.92028" lon="1.86267">
        <ele>189.2</ele>
        <time>2021-09-26T07:34:42Z</time>
      </trkpt>
      <trkpt lat="43.9203" lon="1.86264">
        <ele>189.2</ele>
        <time>2021-09-26T07:34:43Z</time>
      </trkpt>
      <trkpt lat="43.92031" lon="1.86263">
        <ele>189.4</ele>
        <time>2021-09-26T07:34:44Z</time>
      </trkpt>
      <trkpt lat="43.92032" lon="1.86261">
        <ele>189.6</ele>
        <time>2021-09-26T07:34:45Z</time>
      </trkpt>
      <trkpt lat="43.92032" lon="1.86258">
        <ele>189.8</ele>
        <time>2021-09-26T07:34:46Z</time>
      </trkpt>
      <trkpt lat="43.92034" lon="1.86256">
        <ele>189.8</ele>
        <time>2021-09-26T07:34:47Z</time>
      </trkpt>
      <trkpt lat="43.92035" lon="1.86254">
        <ele>190</ele>
        <time>2021-09-26T07:34:48Z</time>
      </trkpt>
      <trkpt lat="43.92036" lon="1.86252">
        <ele>190</ele>
        <time>2021-09-26T07:34:49Z</time>
      </trkpt>
      <trkpt lat="43.92037" lon="1.8625">
        <ele>190.2</ele>
        <time>2021-09-26T07:34:50Z</time>
      </trkpt>
      <trkpt lat="43.92038" lon="1.86248">
        <ele>190.2</ele>
        <time>2021-09-26T07:34:51Z</time>
      </trkpt>
      <trkpt lat="43.92039" lon="1.86246">
        <ele>190.4</ele>
        <time>2021-09-26T07:34:52Z</time>
      </trkpt>
      <trkpt lat="43.9204" lon="1.86243">
        <ele>190.4</ele>
        <time>2021-09-26T07:34:53Z</time>
      </trkpt>
      <trkpt lat="43.92041" lon="1.86242">
        <ele>190.6</ele>
        <time>2021-09-26T07:34:54Z</time>
      </trkpt>
      <trkpt lat="43.92042" lon="1.86239">
        <ele>190.6</ele>
        <time>2021-09-26T07:34:55Z</time>
      </trkpt>
      <trkpt lat="43.92043" lon="1.86237">
        <ele>190.8</ele>
        <time>2021-09-26T07:34:56Z</time>
      </trkpt>
      <trkpt lat="43.92044" lon="1.86235">
        <ele>190.8</ele>
        <time>2021-09-26T07:34:57Z</time>
      </trkpt>
      <trkpt lat="43.92045" lon="1.86233">
        <ele>191</ele>
        <time>2021-09-26T07:34:58Z</time>
      </trkpt>
      <trkpt lat="43.92046" lon="1.86231">
        <ele>191.2</ele>
        <time>2021-09-26T07:34:59Z</time>
      </trkpt>
      <trkpt lat="43.92048" lon="1.86228">
        <ele>191.4</ele>
        <time>2021-09-26T07:35:00Z</time>
      </trkpt>
      <trkpt lat="43.92049" lon="1.86226">
        <ele>191.4</ele>
        <time>2021-09-26T07:35:01Z</time>
      </trkpt>
      <trkpt lat="43.9205" lon="1.86224">
        <ele>191.6</ele>
        <time>2021-09-26T07:35:02Z</time>
      </trkpt>
      <trkpt lat="43.92051" lon="1.86222">
        <ele>191.8</ele>
        <time>2021-09-26T07:35:03Z</time>
      </trkpt>
      <trkpt lat="43.92052" lon="1.86221">
        <ele>191.8</ele>
        <time>2021-09-26T07:35:04Z</time>
      </trkpt>
      <trkpt lat="43.92053" lon="1.86219">
        <ele>191.8</ele>
        <time>2021-09-26T07:35:05Z</time>
      </trkpt>
      <trkpt lat="43.92054" lon="1.86217">
        <ele>191.8</ele>
        <time>2021-09-26T07:35:06Z</time>
      </trkpt>
      <trkpt lat="43.92056" lon="1.86214">
        <ele>192</ele>
        <time>2021-09-26T07:35:07Z</time>
      </trkpt>
      <trkpt lat="43.92057" lon="1.86212">
        <ele>192</ele>
        <time>2021-09-26T07:35:08Z</time>
      </trkpt>
      <trkpt lat="43.92058" lon="1.8621">
        <ele>192.2</ele>
        <time>2021-09-26T07:35:09Z</time>
      </trkpt>
      <trkpt lat="43.92059" lon="1.86208">
        <ele>192.2</ele>
        <time>2021-09-26T07:35:10Z</time>
      </trkpt>
      <trkpt lat="43.9206" lon="1.86206">
        <ele>192.2</ele>
        <time>2021-09-26T07:35:11Z</time>
      </trkpt>
      <trkpt lat="43.92061" lon="1.86204">
        <ele>192.4</ele>
        <time>2021-09-26T07:35:12Z</time>
      </trkpt>
      <trkpt lat="43.92062" lon="1.86202">
        <ele>192.4</ele>
        <time>2021-09-26T07:35:13Z</time>
      </trkpt>
      <trkpt lat="43.92063" lon="1.862">
        <ele>192.6</ele>
        <time>2021-09-26T07:35:14Z</time>
      </trkpt>
      <trkpt lat="43.92065" lon="1.86198">
        <ele>192.6</ele>
        <time>2021-09-26T07:35:15Z</time>
      </trkpt>
      <trkpt lat="43.92066" lon="1.86196">
        <ele>192.8</ele>
        <time>2021-09-26T07:35:16Z</time>
      </trkpt>
      <trkpt lat="43.92067" lon="1.86194">
        <ele>192.8</ele>
        <time>2021-09-26T07:35:17Z</time>
      </trkpt>
      <trkpt lat="43.92068" lon="1.86192">
        <ele>192.8</ele>
        <time>2021-09-26T07:35:18Z</time>
      </trkpt>
      <trkpt lat="43.92069" lon="1.8619">
        <ele>193</ele>
        <time>2021-09-26T07:35:19Z</time>
      </trkpt>
      <trkpt lat="43.92071" lon="1.86188">
        <ele>193.2</ele>
        <time>2021-09-26T07:35:20Z</time>
      </trkpt>
      <trkpt lat="43.92073" lon="1.86184">
        <ele>193.4</ele>
        <time>2021-09-26T07:35:22Z</time>
      </trkpt>
      <trkpt lat="43.92075" lon="1.86181">
        <ele>193.6</ele>
        <time>2021-09-26T07:35:24Z</time>
      </trkpt>
      <trkpt lat="43.92077" lon="1.86179">
        <ele>193.8</ele>
        <time>2021-09-26T07:35:25Z</time>
      </trkpt>
      <trkpt lat="43.92078" lon="1.86177">
        <ele>193.8</ele>
        <time>2021-09-26T07:35:26Z</time>
      </trkpt>
      <trkpt lat="43.92079" lon="1.86175">
        <ele>194</ele>
        <time>2021-09-26T07:35:27Z</time>
      </trkpt>
      <trkpt lat="43.9208" lon="1.86173">
        <ele>194.2</ele>
        <time>2021-09-26T07:35:28Z</time>
      </trkpt>
      <trkpt lat="43.92082" lon="1.86171">
        <ele>194.2</ele>
        <time>2021-09-26T07:35:29Z</time>
      </trkpt>
      <trkpt lat="43.92082" lon="1.86169">
        <ele>194.2</ele>
        <time>2021-09-26T07:35:30Z</time>
      </trkpt>
      <trkpt lat="43.92084" lon="1.86168">
        <ele>194.2</ele>
        <time>2021-09-26T07:35:31Z</time>
      </trkpt>
      <trkpt lat="43.92085" lon="1.86165">
        <ele>194.4</ele>
        <time>2021-09-26T07:35:32Z</time>
      </trkpt>
      <trkpt lat="43.92086" lon="1.86164">
        <ele>194.4</ele>
        <time>2021-09-26T07:35:33Z</time>
      </trkpt>
      <trkpt lat="43.92087" lon="1.86162">
        <ele>194.4</ele>
        <time>2021-09-26T07:35:34Z</time>
      </trkpt>
      <trkpt lat="43.92088" lon="1.86161">
        <ele>194.4</ele>
        <time>2021-09-26T07:35:35Z</time>
      </trkpt>
      <trkpt lat="43.92089" lon="1.86159">
        <ele>194.4</ele>
        <time>2021-09-26T07:35:36Z</time>
      </trkpt>
      <trkpt lat="43.9209" lon="1.86157">
        <ele>194.6</ele>
        <time>2021-09-26T07:35:37Z</time>
      </trkpt>
      <trkpt lat="43.92091" lon="1.86155">
        <ele>194.8</ele>
        <time>2021-09-26T07:35:38Z</time>
      </trkpt>
      <trkpt lat="43.92092" lon="1.86154">
        <ele>195</ele>
        <time>2021-09-26T07:35:39Z</time>
      </trkpt>
      <trkpt lat="43.92094" lon="1.86152">
        <ele>195.2</ele>
        <time>2021-09-26T07:35:40Z</time>
      </trkpt>
      <trkpt lat="43.92095" lon="1.86151">
        <ele>195.4</ele>
        <time>2021-09-26T07:35:41Z</time>
      </trkpt>
      <trkpt lat="43.92096" lon="1.86149">
        <ele>195.6</ele>
        <time>2021-09-26T07:35:42Z</time>
      </trkpt>
      <trkpt lat="43.92097" lon="1.86147">
        <ele>195.6</ele>
        <time>2021-09-26T07:35:43Z</time>
      </trkpt>
      <trkpt lat="43.92098" lon="1.86145">
        <ele>195.8</ele>
        <time>2021-09-26T07:35:44Z</time>
      </trkpt>
      <trkpt lat="43.921" lon="1.86143">
        <ele>195.8</ele>
        <time>2021-09-26T07:35:45Z</time>
      </trkpt>
      <trkpt lat="43.92101" lon="1.86141">
        <ele>196</ele>
        <time>2021-09-26T07:35:46Z</time>
      </trkpt>
      <trkpt lat="43.92102" lon="1.86139">
        <ele>196.2</ele>
        <time>2021-09-26T07:35:47Z</time>
      </trkpt>
      <trkpt lat="43.92104" lon="1.86137">
        <ele>196.4</ele>
        <time>2021-09-26T07:35:48Z</time>
      </trkpt>
      <trkpt lat="43.92105" lon="1.86135">
        <ele>196.4</ele>
        <time>2021-09-26T07:35:49Z</time>
      </trkpt>
      <trkpt lat="43.92106" lon="1.86134">
        <ele>196.6</ele>
        <time>2021-09-26T07:35:50Z</time>
      </trkpt>
      <trkpt lat="43.92107" lon="1.86132">
        <ele>196.6</ele>
        <time>2021-09-26T07:35:51Z</time>
      </trkpt>
      <trkpt lat="43.92108" lon="1.8613">
        <ele>196.8</ele>
        <time>2021-09-26T07:35:52Z</time>
      </trkpt>
      <trkpt lat="43.9211" lon="1.86128">
        <ele>197</ele>
        <time>2021-09-26T07:35:53Z</time>
      </trkpt>
      <trkpt lat="43.92111" lon="1.86126">
        <ele>197</ele>
        <time>2021-09-26T07:35:54Z</time>
      </trkpt>
      <trkpt lat="43.92112" lon="1.86125">
        <ele>197.2</ele>
        <time>2021-09-26T07:35:55Z</time>
      </trkpt>
      <trkpt lat="43.92114" lon="1.86123">
        <ele>197.2</ele>
        <time>2021-09-26T07:35:56Z</time>
      </trkpt>
      <trkpt lat="43.92115" lon="1.86121">
        <ele>197.4</ele>
        <time>2021-09-26T07:35:57Z</time>
      </trkpt>
      <trkpt lat="43.92116" lon="1.86119">
        <ele>197.4</ele>
        <time>2021-09-26T07:35:58Z</time>
      </trkpt>
      <trkpt lat="43.92117" lon="1.86117">
        <ele>197.4</ele>
        <time>2021-09-26T07:35:59Z</time>
      </trkpt>
      <trkpt lat="43.92118" lon="1.86115">
        <ele>197.6</ele>
        <time>2021-09-26T07:36:00Z</time>
      </trkpt>
      <trkpt lat="43.92119" lon="1.86114">
        <ele>197.8</ele>
        <time>2021-09-26T07:36:01Z</time>
      </trkpt>
      <trkpt lat="43.9212" lon="1.86112">
        <ele>197.6</ele>
        <time>2021-09-26T07:36:02Z</time>
      </trkpt>
      <trkpt lat="43.92121" lon="1.8611">
        <ele>197.6</ele>
        <time>2021-09-26T07:36:03Z</time>
      </trkpt>
      <trkpt lat="43.92122" lon="1.86108">
        <ele>198</ele>
        <time>2021-09-26T07:36:04Z</time>
      </trkpt>
      <trkpt lat="43.92123" lon="1.86106">
        <ele>197.8</ele>
        <time>2021-09-26T07:36:05Z</time>
      </trkpt>
      <trkpt lat="43.92125" lon="1.86104">
        <ele>198</ele>
        <time>2021-09-26T07:36:06Z</time>
      </trkpt>
      <trkpt lat="43.92126" lon="1.86103">
        <ele>198.2</ele>
        <time>2021-09-26T07:36:07Z</time>
      </trkpt>
      <trkpt lat="43.92127" lon="1.86101">
        <ele>198.4</ele>
        <time>2021-09-26T07:36:08Z</time>
      </trkpt>
      <trkpt lat="43.92128" lon="1.86099">
        <ele>198.4</ele>
        <time>2021-09-26T07:36:09Z</time>
      </trkpt>
      <trkpt lat="43.92129" lon="1.86098">
        <ele>198.6</ele>
        <time>2021-09-26T07:36:10Z</time>
      </trkpt>
      <trkpt lat="43.9213" lon="1.86096">
        <ele>198.8</ele>
        <time>2021-09-26T07:36:11Z</time>
      </trkpt>
      <trkpt lat="43.92131" lon="1.86094">
        <ele>199</ele>
        <time>2021-09-26T07:36:12Z</time>
      </trkpt>
      <trkpt lat="43.92132" lon="1.86092">
        <ele>199.2</ele>
        <time>2021-09-26T07:36:13Z</time>
      </trkpt>
      <trkpt lat="43.92133" lon="1.86091">
        <ele>199.2</ele>
        <time>2021-09-26T07:36:14Z</time>
      </trkpt>
      <trkpt lat="43.92134" lon="1.86089">
        <ele>199.4</ele>
        <time>2021-09-26T07:36:15Z</time>
      </trkpt>
      <trkpt lat="43.92135" lon="1.86087">
        <ele>199.6</ele>
        <time>2021-09-26T07:36:16Z</time>
      </trkpt>
      <trkpt lat="43.92136" lon="1.86085">
        <ele>199.8</ele>
        <time>2021-09-26T07:36:17Z</time>
      </trkpt>
      <trkpt lat="43.92137" lon="1.86084">
        <ele>200</ele>
        <time>2021-09-26T07:36:18Z</time>
      </trkpt>
      <trkpt lat="43.92139" lon="1.86082">
        <ele>200.2</ele>
        <time>2021-09-26T07:36:19Z</time>
      </trkpt>
      <trkpt lat="43.9214" lon="1.8608">
        <ele>200.2</ele>
        <time>2021-09-26T07:36:20Z</time>
      </trkpt>
      <trkpt lat="43.92141" lon="1.86079">
        <ele>200.4</ele>
        <time>2021-09-26T07:36:21Z</time>
      </trkpt>
      <trkpt lat="43.92142" lon="1.86077">
        <ele>200.4</ele>
        <time>2021-09-26T07:36:22Z</time>
      </trkpt>
      <trkpt lat="43.92143" lon="1.86076">
        <ele>200.8</ele>
        <time>2021-09-26T07:36:23Z</time>
      </trkpt>
      <trkpt lat="43.92144" lon="1.86074">
        <ele>200.8</ele>
        <time>2021-09-26T07:36:24Z</time>
      </trkpt>
      <trkpt lat="43.92145" lon="1.86072">
        <ele>201</ele>
        <time>2021-09-26T07:36:25Z</time>
      </trkpt>
      <trkpt lat="43.92146" lon="1.8607">
        <ele>201.2</ele>
        <time>2021-09-26T07:36:26Z</time>
      </trkpt>
      <trkpt lat="43.92147" lon="1.86069">
        <ele>201.4</ele>
        <time>2021-09-26T07:36:27Z</time>
      </trkpt>
      <trkpt lat="43.92148" lon="1.86067">
        <ele>201.4</ele>
        <time>2021-09-26T07:36:28Z</time>
      </trkpt>
      <trkpt lat="43.92149" lon="1.86065">
        <ele>201.6</ele>
        <time>2021-09-26T07:36:29Z</time>
      </trkpt>
      <trkpt lat="43.9215" lon="1.86063">
        <ele>201.8</ele>
        <time>2021-09-26T07:36:30Z</time>
      </trkpt>
      <trkpt lat="43.92151" lon="1.86062">
        <ele>202</ele>
        <time>2021-09-26T07:36:31Z</time>
      </trkpt>
      <trkpt lat="43.92152" lon="1.8606">
        <ele>202.2</ele>
        <time>2021-09-26T07:36:32Z</time>
      </trkpt>
      <trkpt lat="43.92153" lon="1.86058">
        <ele>202.4</ele>
        <time>2021-09-26T07:36:33Z</time>
      </trkpt>
      <trkpt lat="43.92154" lon="1.86056">
        <ele>202.4</ele>
        <time>2021-09-26T07:36:34Z</time>
      </trkpt>
      <trkpt lat="43.92156" lon="1.86054">
        <ele>202.6</ele>
        <time>2021-09-26T07:36:35Z</time>
      </trkpt>
      <trkpt lat="43.92157" lon="1.86053">
        <ele>202.6</ele>
        <time>2021-09-26T07:36:36Z</time>
      </trkpt>
      <trkpt lat="43.92158" lon="1.86051">
        <ele>202.8</ele>
        <time>2021-09-26T07:36:37Z</time>
      </trkpt>
      <trkpt lat="43.92159" lon="1.8605">
        <ele>202.8</ele>
        <time>2021-09-26T07:36:38Z</time>
      </trkpt>
      <trkpt lat="43.9216" lon="1.86048">
        <ele>203.2</ele>
        <time>2021-09-26T07:36:39Z</time>
      </trkpt>
      <trkpt lat="43.92161" lon="1.86046">
        <ele>203.4</ele>
        <time>2021-09-26T07:36:40Z</time>
      </trkpt>
      <trkpt lat="43.92162" lon="1.86045">
        <ele>203.4</ele>
        <time>2021-09-26T07:36:41Z</time>
      </trkpt>
      <trkpt lat="43.92164" lon="1.86043">
        <ele>203.6</ele>
        <time>2021-09-26T07:36:42Z</time>
      </trkpt>
      <trkpt lat="43.92165" lon="1.86042">
        <ele>203.6</ele>
        <time>2021-09-26T07:36:43Z</time>
      </trkpt>
      <trkpt lat="43.92166" lon="1.8604">
        <ele>203.8</ele>
        <time>2021-09-26T07:36:44Z</time>
      </trkpt>
      <trkpt lat="43.92168" lon="1.86038">
        <ele>204</ele>
        <time>2021-09-26T07:36:45Z</time>
      </trkpt>
      <trkpt lat="43.92169" lon="1.86037">
        <ele>204.2</ele>
        <time>2021-09-26T07:36:46Z</time>
      </trkpt>
      <trkpt lat="43.9217" lon="1.86035">
        <ele>204.2</ele>
        <time>2021-09-26T07:36:47Z</time>
      </trkpt>
      <trkpt lat="43.92172" lon="1.86033">
        <ele>204.4</ele>
        <time>2021-09-26T07:36:48Z</time>
      </trkpt>
      <trkpt lat="43.92175" lon="1.86031">
        <ele>204.6</ele>
        <time>2021-09-26T07:36:49Z</time>
      </trkpt>
      <trkpt lat="43.92177" lon="1.8603">
        <ele>204.6</ele>
        <time>2021-09-26T07:36:50Z</time>
      </trkpt>
      <trkpt lat="43.92178" lon="1.86029">
        <ele>204.8</ele>
        <time>2021-09-26T07:36:51Z</time>
      </trkpt>
      <trkpt lat="43.9218" lon="1.86029">
        <ele>204.8</ele>
        <time>2021-09-26T07:36:52Z</time>
      </trkpt>
      <trkpt lat="43.92182" lon="1.86028">
        <ele>204.8</ele>
        <time>2021-09-26T07:36:53Z</time>
      </trkpt>
      <trkpt lat="43.92185" lon="1.86027">
        <ele>204.8</ele>
        <time>2021-09-26T07:36:54Z</time>
      </trkpt>
      <trkpt lat="43.92187" lon="1.86026">
        <ele>204.8</ele>
        <time>2021-09-26T07:36:55Z</time>
      </trkpt>
      <trkpt lat="43.92189" lon="1.86026">
        <ele>204.8</ele>
        <time>2021-09-26T07:36:56Z</time>
      </trkpt>
      <trkpt lat="43.92192" lon="1.86025">
        <ele>204.8</ele>
        <time>2021-09-26T07:36:57Z</time>
      </trkpt>
      <trkpt lat="43.92194" lon="1.86025">
        <ele>204.8</ele>
        <time>2021-09-26T07:36:58Z</time>
      </trkpt>
      <trkpt lat="43.92197" lon="1.86025">
        <ele>204.6</ele>
        <time>2021-09-26T07:36:59Z</time>
      </trkpt>
      <trkpt lat="43.92199" lon="1.86024">
        <ele>204.6</ele>
        <time>2021-09-26T07:37:00Z</time>
      </trkpt>
      <trkpt lat="43.92202" lon="1.86024">
        <ele>204.6</ele>
        <time>2021-09-26T07:37:01Z</time>
      </trkpt>
      <trkpt lat="43.92204" lon="1.86024">
        <ele>204.6</ele>
        <time>2021-09-26T07:37:02Z</time>
      </trkpt>
      <trkpt lat="43.92218" lon="1.86027">
        <ele>204.6</ele>
        <time>2021-09-26T07:37:08Z</time>
      </trkpt>
      <trkpt lat="43.9222" lon="1.86028">
        <ele>204.6</ele>
        <time>2021-09-26T07:37:09Z</time>
      </trkpt>
      <trkpt lat="43.92223" lon="1.86029">
        <ele>204.6</ele>
        <time>2021-09-26T07:37:10Z</time>
      </trkpt>
      <trkpt lat="43.92225" lon="1.8603">
        <ele>204.6</ele>
        <time>2021-09-26T07:37:11Z</time>
      </trkpt>
      <trkpt lat="43.92232" lon="1.86032">
        <ele>204.6</ele>
        <time>2021-09-26T07:37:14Z</time>
      </trkpt>
      <trkpt lat="43.92234" lon="1.86033">
        <ele>204.8</ele>
        <time>2021-09-26T07:37:15Z</time>
      </trkpt>
      <trkpt lat="43.92236" lon="1.86034">
        <ele>204.8</ele>
        <time>2021-09-26T07:37:16Z</time>
      </trkpt>
      <trkpt lat="43.92242" lon="1.86036">
        <ele>204.8</ele>
        <time>2021-09-26T07:37:19Z</time>
      </trkpt>
      <trkpt lat="43.9225" lon="1.8604">
        <ele>205.2</ele>
        <time>2021-09-26T07:37:23Z</time>
      </trkpt>
      <trkpt lat="43.92252" lon="1.86041">
        <ele>205.2</ele>
        <time>2021-09-26T07:37:24Z</time>
      </trkpt>
      <trkpt lat="43.92259" lon="1.86044">
        <ele>205.4</ele>
        <time>2021-09-26T07:37:27Z</time>
      </trkpt>
      <trkpt lat="43.92261" lon="1.86044">
        <ele>205.4</ele>
        <time>2021-09-26T07:37:28Z</time>
      </trkpt>
      <trkpt lat="43.92264" lon="1.86045">
        <ele>205.4</ele>
        <time>2021-09-26T07:37:29Z</time>
      </trkpt>
      <trkpt lat="43.92272" lon="1.86048">
        <ele>205.4</ele>
        <time>2021-09-26T07:37:33Z</time>
      </trkpt>
      <trkpt lat="43.92275" lon="1.86048">
        <ele>205.4</ele>
        <time>2021-09-26T07:37:34Z</time>
      </trkpt>
      <trkpt lat="43.92281" lon="1.86049">
        <ele>205.6</ele>
        <time>2021-09-26T07:37:37Z</time>
      </trkpt>
      <trkpt lat="43.92304" lon="1.8604">
        <ele>206.4</ele>
        <time>2021-09-26T07:37:47Z</time>
      </trkpt>
      <trkpt lat="43.92315" lon="1.86032">
        <ele>206.4</ele>
        <time>2021-09-26T07:37:52Z</time>
      </trkpt>
      <trkpt lat="43.92321" lon="1.86027">
        <ele>206.6</ele>
        <time>2021-09-26T07:37:55Z</time>
      </trkpt>
      <trkpt lat="43.92326" lon="1.86024">
        <ele>206.8</ele>
        <time>2021-09-26T07:37:58Z</time>
      </trkpt>
      <trkpt lat="43.92328" lon="1.86022">
        <ele>206.8</ele>
        <time>2021-09-26T07:37:59Z</time>
      </trkpt>
      <trkpt lat="43.92329" lon="1.86021">
        <ele>207</ele>
        <time>2021-09-26T07:38:00Z</time>
      </trkpt>
      <trkpt lat="43.92331" lon="1.86019">
        <ele>207</ele>
        <time>2021-09-26T07:38:01Z</time>
      </trkpt>
      <trkpt lat="43.92332" lon="1.86018">
        <ele>207</ele>
        <time>2021-09-26T07:38:02Z</time>
      </trkpt>
      <trkpt lat="43.92334" lon="1.86016">
        <ele>207.2</ele>
        <time>2021-09-26T07:38:03Z</time>
      </trkpt>
      <trkpt lat="43.92335" lon="1.86013">
        <ele>207</ele>
        <time>2021-09-26T07:38:04Z</time>
      </trkpt>
      <trkpt lat="43.92337" lon="1.86011">
        <ele>207.2</ele>
        <time>2021-09-26T07:38:05Z</time>
      </trkpt>
      <trkpt lat="43.92338" lon="1.8601">
        <ele>207.2</ele>
        <time>2021-09-26T07:38:06Z</time>
      </trkpt>
      <trkpt lat="43.92342" lon="1.86003">
        <ele>207.4</ele>
        <time>2021-09-26T07:38:09Z</time>
      </trkpt>
      <trkpt lat="43.92344" lon="1.86001">
        <ele>207.4</ele>
        <time>2021-09-26T07:38:10Z</time>
      </trkpt>
      <trkpt lat="43.92345" lon="1.85999">
        <ele>207.4</ele>
        <time>2021-09-26T07:38:11Z</time>
      </trkpt>
      <trkpt lat="43.92349" lon="1.85992">
        <ele>207.6</ele>
        <time>2021-09-26T07:38:14Z</time>
      </trkpt>
      <trkpt lat="43.92351" lon="1.85989">
        <ele>208.2</ele>
        <time>2021-09-26T07:38:16Z</time>
      </trkpt>
      <trkpt lat="43.92352" lon="1.85987">
        <ele>208.2</ele>
        <time>2021-09-26T07:38:17Z</time>
      </trkpt>
      <trkpt lat="43.92354" lon="1.85984">
        <ele>208.4</ele>
        <time>2021-09-26T07:38:18Z</time>
      </trkpt>
      <trkpt lat="43.92357" lon="1.85978">
        <ele>208.8</ele>
        <time>2021-09-26T07:38:21Z</time>
      </trkpt>
      <trkpt lat="43.92363" lon="1.85964">
        <ele>209.4</ele>
        <time>2021-09-26T07:38:27Z</time>
      </trkpt>
      <trkpt lat="43.92366" lon="1.85958">
        <ele>209.4</ele>
        <time>2021-09-26T07:38:29Z</time>
      </trkpt>
      <trkpt lat="43.92367" lon="1.85956">
        <ele>209.6</ele>
        <time>2021-09-26T07:38:30Z</time>
      </trkpt>
      <trkpt lat="43.92367" lon="1.85954">
        <ele>209.6</ele>
        <time>2021-09-26T07:38:31Z</time>
      </trkpt>
      <trkpt lat="43.92368" lon="1.85951">
        <ele>209.8</ele>
        <time>2021-09-26T07:38:32Z</time>
      </trkpt>
      <trkpt lat="43.92372" lon="1.85941">
        <ele>210</ele>
        <time>2021-09-26T07:38:36Z</time>
      </trkpt>
      <trkpt lat="43.92377" lon="1.85925">
        <ele>210.4</ele>
        <time>2021-09-26T07:38:42Z</time>
      </trkpt>
      <trkpt lat="43.92381" lon="1.85911">
        <ele>210.8</ele>
        <time>2021-09-26T07:38:47Z</time>
      </trkpt>
      <trkpt lat="43.92382" lon="1.85909">
        <ele>210.8</ele>
        <time>2021-09-26T07:38:48Z</time>
      </trkpt>
      <trkpt lat="43.92384" lon="1.85902">
        <ele>211</ele>
        <time>2021-09-26T07:38:51Z</time>
      </trkpt>
      <trkpt lat="43.92386" lon="1.85894">
        <ele>211</ele>
        <time>2021-09-26T07:38:54Z</time>
      </trkpt>
      <trkpt lat="43.92386" lon="1.85892">
        <ele>211.2</ele>
        <time>2021-09-26T07:38:55Z</time>
      </trkpt>
      <trkpt lat="43.92387" lon="1.8589">
        <ele>211.4</ele>
        <time>2021-09-26T07:38:56Z</time>
      </trkpt>
      <trkpt lat="43.92388" lon="1.85887">
        <ele>211.4</ele>
        <time>2021-09-26T07:38:57Z</time>
      </trkpt>
      <trkpt lat="43.92388" lon="1.85885">
        <ele>211.4</ele>
        <time>2021-09-26T07:38:58Z</time>
      </trkpt>
      <trkpt lat="43.92389" lon="1.85883">
        <ele>211.6</ele>
        <time>2021-09-26T07:38:59Z</time>
      </trkpt>
      <trkpt lat="43.9239" lon="1.85876">
        <ele>212</ele>
        <time>2021-09-26T07:39:02Z</time>
      </trkpt>
      <trkpt lat="43.9239" lon="1.85874">
        <ele>212.2</ele>
        <time>2021-09-26T07:39:03Z</time>
      </trkpt>
      <trkpt lat="43.92391" lon="1.85868">
        <ele>212.4</ele>
        <time>2021-09-26T07:39:05Z</time>
      </trkpt>
      <trkpt lat="43.92392" lon="1.85859">
        <ele>212.8</ele>
        <time>2021-09-26T07:39:09Z</time>
      </trkpt>
      <trkpt lat="43.92391" lon="1.85839">
        <ele>213.4</ele>
        <time>2021-09-26T07:39:16Z</time>
      </trkpt>
      <trkpt lat="43.9239" lon="1.85833">
        <ele>213.6</ele>
        <time>2021-09-26T07:39:18Z</time>
      </trkpt>
      <trkpt lat="43.9239" lon="1.85812">
        <ele>214.4</ele>
        <time>2021-09-26T07:39:26Z</time>
      </trkpt>
      <trkpt lat="43.92389" lon="1.85809">
        <ele>214.6</ele>
        <time>2021-09-26T07:39:27Z</time>
      </trkpt>
      <trkpt lat="43.92389" lon="1.85806">
        <ele>214.6</ele>
        <time>2021-09-26T07:39:28Z</time>
      </trkpt>
      <trkpt lat="43.92388" lon="1.85785">
        <ele>215.2</ele>
        <time>2021-09-26T07:39:36Z</time>
      </trkpt>
      <trkpt lat="43.92387" lon="1.85777">
        <ele>215.4</ele>
        <time>2021-09-26T07:39:39Z</time>
      </trkpt>
      <trkpt lat="43.92387" lon="1.85773">
        <ele>215.6</ele>
        <time>2021-09-26T07:39:41Z</time>
      </trkpt>
      <trkpt lat="43.92387" lon="1.85771">
        <ele>215.6</ele>
        <time>2021-09-26T07:39:42Z</time>
      </trkpt>
      <trkpt lat="43.92387" lon="1.85768">
        <ele>215.8</ele>
        <time>2021-09-26T07:39:43Z</time>
      </trkpt>
      <trkpt lat="43.92387" lon="1.85766">
        <ele>215.8</ele>
        <time>2021-09-26T07:39:44Z</time>
      </trkpt>
      <trkpt lat="43.92387" lon="1.85764">
        <ele>215.8</ele>
        <time>2021-09-26T07:39:45Z</time>
      </trkpt>
      <trkpt lat="43.92387" lon="1.85762">
        <ele>216</ele>
        <time>2021-09-26T07:39:46Z</time>
      </trkpt>
      <trkpt lat="43.92387" lon="1.85759">
        <ele>216.2</ele>
        <time>2021-09-26T07:39:47Z</time>
      </trkpt>
      <trkpt lat="43.92387" lon="1.85757">
        <ele>216.2</ele>
        <time>2021-09-26T07:39:48Z</time>
      </trkpt>
      <trkpt lat="43.92387" lon="1.85755">
        <ele>216.4</ele>
        <time>2021-09-26T07:39:49Z</time>
      </trkpt>
      <trkpt lat="43.92387" lon="1.85752">
        <ele>216.6</ele>
        <time>2021-09-26T07:39:50Z</time>
      </trkpt>
      <trkpt lat="43.92387" lon="1.85751">
        <ele>216.8</ele>
        <time>2021-09-26T07:39:51Z</time>
      </trkpt>
      <trkpt lat="43.92387" lon="1.85748">
        <ele>216.8</ele>
        <time>2021-09-26T07:39:52Z</time>
      </trkpt>
      <trkpt lat="43.92387" lon="1.85744">
        <ele>217</ele>
        <time>2021-09-26T07:39:54Z</time>
      </trkpt>
      <trkpt lat="43.92387" lon="1.85742">
        <ele>217.2</ele>
        <time>2021-09-26T07:39:55Z</time>
      </trkpt>
      <trkpt lat="43.92388" lon="1.85739">
        <ele>217.4</ele>
        <time>2021-09-26T07:39:56Z</time>
      </trkpt>
      <trkpt lat="43.92388" lon="1.85737">
        <ele>217.6</ele>
        <time>2021-09-26T07:39:57Z</time>
      </trkpt>
      <trkpt lat="43.92388" lon="1.85734">
        <ele>217.8</ele>
        <time>2021-09-26T07:39:58Z</time>
      </trkpt>
      <trkpt lat="43.92388" lon="1.85732">
        <ele>218</ele>
        <time>2021-09-26T07:39:59Z</time>
      </trkpt>
      <trkpt lat="43.92388" lon="1.85729">
        <ele>218.2</ele>
        <time>2021-09-26T07:40:00Z</time>
      </trkpt>
      <trkpt lat="43.92388" lon="1.85727">
        <ele>218.4</ele>
        <time>2021-09-26T07:40:01Z</time>
      </trkpt>
      <trkpt lat="43.92388" lon="1.85724">
        <ele>218.6</ele>
        <time>2021-09-26T07:40:02Z</time>
      </trkpt>
      <trkpt lat="43.92389" lon="1.85721">
        <ele>218.8</ele>
        <time>2021-09-26T07:40:03Z</time>
      </trkpt>
      <trkpt lat="43.92389" lon="1.85719">
        <ele>219</ele>
        <time>2021-09-26T07:40:04Z</time>
      </trkpt>
      <trkpt lat="43.92389" lon="1.85717">
        <ele>219.2</ele>
        <time>2021-09-26T07:40:05Z</time>
      </trkpt>
      <trkpt lat="43.92389" lon="1.85715">
        <ele>219.4</ele>
        <time>2021-09-26T07:40:06Z</time>
      </trkpt>
      <trkpt lat="43.92389" lon="1.85713">
        <ele>219.6</ele>
        <time>2021-09-26T07:40:07Z</time>
      </trkpt>
      <trkpt lat="43.92389" lon="1.85711">
        <ele>219.8</ele>
        <time>2021-09-26T07:40:08Z</time>
      </trkpt>
      <trkpt lat="43.9239" lon="1.85709">
        <ele>220.2</ele>
        <time>2021-09-26T07:40:09Z</time>
      </trkpt>
      <trkpt lat="43.9239" lon="1.85708">
        <ele>220.6</ele>
        <time>2021-09-26T07:40:10Z</time>
      </trkpt>
      <trkpt lat="43.9239" lon="1.85706">
        <ele>221</ele>
        <time>2021-09-26T07:40:11Z</time>
      </trkpt>
      <trkpt lat="43.92391" lon="1.85705">
        <ele>221.2</ele>
        <time>2021-09-26T07:40:12Z</time>
      </trkpt>
      <trkpt lat="43.92391" lon="1.85703">
        <ele>221.4</ele>
        <time>2021-09-26T07:40:13Z</time>
      </trkpt>
      <trkpt lat="43.92391" lon="1.85701">
        <ele>221.6</ele>
        <time>2021-09-26T07:40:14Z</time>
      </trkpt>
      <trkpt lat="43.92392" lon="1.85699">
        <ele>221.8</ele>
        <time>2021-09-26T07:40:15Z</time>
      </trkpt>
      <trkpt lat="43.92392" lon="1.85697">
        <ele>222</ele>
        <time>2021-09-26T07:40:16Z</time>
      </trkpt>
      <trkpt lat="43.92393" lon="1.85695">
        <ele>222</ele>
        <time>2021-09-26T07:40:17Z</time>
      </trkpt>
      <trkpt lat="43.92393" lon="1.85693">
        <ele>222.4</ele>
        <time>2021-09-26T07:40:18Z</time>
      </trkpt>
      <trkpt lat="43.92393" lon="1.85691">
        <ele>222.6</ele>
        <time>2021-09-26T07:40:19Z</time>
      </trkpt>
      <trkpt lat="43.92394" lon="1.85689">
        <ele>223</ele>
        <time>2021-09-26T07:40:20Z</time>
      </trkpt>
      <trkpt lat="43.92394" lon="1.85688">
        <ele>223</ele>
        <time>2021-09-26T07:40:21Z</time>
      </trkpt>
      <trkpt lat="43.92394" lon="1.85687">
        <ele>223.2</ele>
        <time>2021-09-26T07:40:22Z</time>
      </trkpt>
      <trkpt lat="43.92394" lon="1.85685">
        <ele>223.4</ele>
        <time>2021-09-26T07:40:23Z</time>
      </trkpt>
      <trkpt lat="43.92395" lon="1.85683">
        <ele>223.4</ele>
        <time>2021-09-26T07:40:24Z</time>
      </trkpt>
      <trkpt lat="43.92395" lon="1.85681">
        <ele>223.6</ele>
        <time>2021-09-26T07:40:25Z</time>
      </trkpt>
      <trkpt lat="43.92395" lon="1.85679">
        <ele>223.8</ele>
        <time>2021-09-26T07:40:26Z</time>
      </trkpt>
      <trkpt lat="43.92395" lon="1.85677">
        <ele>224</ele>
        <time>2021-09-26T07:40:27Z</time>
      </trkpt>
      <trkpt lat="43.92396" lon="1.85675">
        <ele>224.2</ele>
        <time>2021-09-26T07:40:28Z</time>
      </trkpt>
      <trkpt lat="43.92396" lon="1.85673">
        <ele>224.4</ele>
        <time>2021-09-26T07:40:29Z</time>
      </trkpt>
      <trkpt lat="43.92397" lon="1.85671">
        <ele>224.6</ele>
        <time>2021-09-26T07:40:30Z</time>
      </trkpt>
      <trkpt lat="43.92397" lon="1.8567">
        <ele>224.8</ele>
        <time>2021-09-26T07:40:31Z</time>
      </trkpt>
      <trkpt lat="43.92397" lon="1.85668">
        <ele>225</ele>
        <time>2021-09-26T07:40:32Z</time>
      </trkpt>
      <trkpt lat="43.92398" lon="1.85667">
        <ele>225.2</ele>
        <time>2021-09-26T07:40:33Z</time>
      </trkpt>
      <trkpt lat="43.92398" lon="1.85665">
        <ele>225.6</ele>
        <time>2021-09-26T07:40:34Z</time>
      </trkpt>
      <trkpt lat="43.92399" lon="1.85664">
        <ele>225.6</ele>
        <time>2021-09-26T07:40:35Z</time>
      </trkpt>
      <trkpt lat="43.92399" lon="1.85662">
        <ele>225.8</ele>
        <time>2021-09-26T07:40:36Z</time>
      </trkpt>
      <trkpt lat="43.924" lon="1.85661">
        <ele>226.2</ele>
        <time>2021-09-26T07:40:37Z</time>
      </trkpt>
      <trkpt lat="43.924" lon="1.8566">
        <ele>226.2</ele>
        <time>2021-09-26T07:40:38Z</time>
      </trkpt>
      <trkpt lat="43.92401" lon="1.85659">
        <ele>226.4</ele>
        <time>2021-09-26T07:40:39Z</time>
      </trkpt>
      <trkpt lat="43.92402" lon="1.85657">
        <ele>226.6</ele>
        <time>2021-09-26T07:40:40Z</time>
      </trkpt>
      <trkpt lat="43.92402" lon="1.85656">
        <ele>226.8</ele>
        <time>2021-09-26T07:40:41Z</time>
      </trkpt>
      <trkpt lat="43.92403" lon="1.85655">
        <ele>226.8</ele>
        <time>2021-09-26T07:40:42Z</time>
      </trkpt>
      <trkpt lat="43.92404" lon="1.85653">
        <ele>227</ele>
        <time>2021-09-26T07:40:43Z</time>
      </trkpt>
      <trkpt lat="43.92405" lon="1.85651">
        <ele>227.2</ele>
        <time>2021-09-26T07:40:44Z</time>
      </trkpt>
      <trkpt lat="43.92406" lon="1.8565">
        <ele>227.2</ele>
        <time>2021-09-26T07:40:45Z</time>
      </trkpt>
      <trkpt lat="43.92407" lon="1.85648">
        <ele>227.4</ele>
        <time>2021-09-26T07:40:46Z</time>
      </trkpt>
      <trkpt lat="43.92408" lon="1.85647">
        <ele>227.4</ele>
        <time>2021-09-26T07:40:47Z</time>
      </trkpt>
      <trkpt lat="43.92409" lon="1.85645">
        <ele>227.6</ele>
        <time>2021-09-26T07:40:48Z</time>
      </trkpt>
      <trkpt lat="43.92409" lon="1.85644">
        <ele>227.6</ele>
        <time>2021-09-26T07:40:49Z</time>
      </trkpt>
      <trkpt lat="43.9241" lon="1.85642">
        <ele>227.8</ele>
        <time>2021-09-26T07:40:50Z</time>
      </trkpt>
      <trkpt lat="43.92411" lon="1.85641">
        <ele>228</ele>
        <time>2021-09-26T07:40:51Z</time>
      </trkpt>
      <trkpt lat="43.92412" lon="1.8564">
        <ele>228</ele>
        <time>2021-09-26T07:40:52Z</time>
      </trkpt>
      <trkpt lat="43.92413" lon="1.85639">
        <ele>228.2</ele>
        <time>2021-09-26T07:40:53Z</time>
      </trkpt>
      <trkpt lat="43.92414" lon="1.85637">
        <ele>228.2</ele>
        <time>2021-09-26T07:40:54Z</time>
      </trkpt>
      <trkpt lat="43.92415" lon="1.85636">
        <ele>228.2</ele>
        <time>2021-09-26T07:40:55Z</time>
      </trkpt>
      <trkpt lat="43.92416" lon="1.85635">
        <ele>228.4</ele>
        <time>2021-09-26T07:40:56Z</time>
      </trkpt>
      <trkpt lat="43.92416" lon="1.85633">
        <ele>228.6</ele>
        <time>2021-09-26T07:40:57Z</time>
      </trkpt>
      <trkpt lat="43.92417" lon="1.85632">
        <ele>228.8</ele>
        <time>2021-09-26T07:40:58Z</time>
      </trkpt>
      <trkpt lat="43.92418" lon="1.8563">
        <ele>229.2</ele>
        <time>2021-09-26T07:40:59Z</time>
      </trkpt>
      <trkpt lat="43.92419" lon="1.85629">
        <ele>229.6</ele>
        <time>2021-09-26T07:41:00Z</time>
      </trkpt>
      <trkpt lat="43.92421" lon="1.85627">
        <ele>229.6</ele>
        <time>2021-09-26T07:41:01Z</time>
      </trkpt>
      <trkpt lat="43.92422" lon="1.85626">
        <ele>229.8</ele>
        <time>2021-09-26T07:41:02Z</time>
      </trkpt>
      <trkpt lat="43.92423" lon="1.85623">
        <ele>229.8</ele>
        <time>2021-09-26T07:41:03Z</time>
      </trkpt>
      <trkpt lat="43.92425" lon="1.85621">
        <ele>230</ele>
        <time>2021-09-26T07:41:04Z</time>
      </trkpt>
      <trkpt lat="43.92426" lon="1.8562">
        <ele>230.2</ele>
        <time>2021-09-26T07:41:05Z</time>
      </trkpt>
      <trkpt lat="43.92427" lon="1.85619">
        <ele>230.2</ele>
        <time>2021-09-26T07:41:06Z</time>
      </trkpt>
      <trkpt lat="43.92427" lon="1.85617">
        <ele>230.4</ele>
        <time>2021-09-26T07:41:07Z</time>
      </trkpt>
      <trkpt lat="43.92429" lon="1.85615">
        <ele>230.4</ele>
        <time>2021-09-26T07:41:08Z</time>
      </trkpt>
      <trkpt lat="43.9243" lon="1.85614">
        <ele>230.4</ele>
        <time>2021-09-26T07:41:09Z</time>
      </trkpt>
      <trkpt lat="43.92431" lon="1.85613">
        <ele>230.4</ele>
        <time>2021-09-26T07:41:10Z</time>
      </trkpt>
      <trkpt lat="43.92432" lon="1.85611">
        <ele>230.4</ele>
        <time>2021-09-26T07:41:11Z</time>
      </trkpt>
      <trkpt lat="43.92433" lon="1.85609">
        <ele>230.8</ele>
        <time>2021-09-26T07:41:12Z</time>
      </trkpt>
      <trkpt lat="43.92434" lon="1.85607">
        <ele>230.8</ele>
        <time>2021-09-26T07:41:13Z</time>
      </trkpt>
      <trkpt lat="43.92435" lon="1.85606">
        <ele>230.8</ele>
        <time>2021-09-26T07:41:14Z</time>
      </trkpt>
      <trkpt lat="43.92437" lon="1.85604">
        <ele>230.8</ele>
        <time>2021-09-26T07:41:15Z</time>
      </trkpt>
      <trkpt lat="43.92438" lon="1.85603">
        <ele>231</ele>
        <time>2021-09-26T07:41:16Z</time>
      </trkpt>
      <trkpt lat="43.92438" lon="1.85602">
        <ele>231.2</ele>
        <time>2021-09-26T07:41:17Z</time>
      </trkpt>
      <trkpt lat="43.92439" lon="1.85601">
        <ele>231.6</ele>
        <time>2021-09-26T07:41:18Z</time>
      </trkpt>
      <trkpt lat="43.9244" lon="1.856">
        <ele>231.6</ele>
        <time>2021-09-26T07:41:19Z</time>
      </trkpt>
      <trkpt lat="43.92441" lon="1.85598">
        <ele>231.8</ele>
        <time>2021-09-26T07:41:20Z</time>
      </trkpt>
      <trkpt lat="43.92442" lon="1.85597">
        <ele>232</ele>
        <time>2021-09-26T07:41:21Z</time>
      </trkpt>
      <trkpt lat="43.92443" lon="1.85595">
        <ele>232.2</ele>
        <time>2021-09-26T07:41:22Z</time>
      </trkpt>
      <trkpt lat="43.92444" lon="1.85593">
        <ele>232.4</ele>
        <time>2021-09-26T07:41:23Z</time>
      </trkpt>
      <trkpt lat="43.92445" lon="1.85592">
        <ele>232.6</ele>
        <time>2021-09-26T07:41:24Z</time>
      </trkpt>
      <trkpt lat="43.92446" lon="1.8559">
        <ele>232.8</ele>
        <time>2021-09-26T07:41:25Z</time>
      </trkpt>
      <trkpt lat="43.92447" lon="1.85589">
        <ele>232.8</ele>
        <time>2021-09-26T07:41:26Z</time>
      </trkpt>
      <trkpt lat="43.92448" lon="1.85587">
        <ele>233.2</ele>
        <time>2021-09-26T07:41:27Z</time>
      </trkpt>
      <trkpt lat="43.92448" lon="1.85586">
        <ele>233.2</ele>
        <time>2021-09-26T07:41:28Z</time>
      </trkpt>
      <trkpt lat="43.92449" lon="1.85584">
        <ele>233.4</ele>
        <time>2021-09-26T07:41:29Z</time>
      </trkpt>
      <trkpt lat="43.9245" lon="1.85582">
        <ele>233.6</ele>
        <time>2021-09-26T07:41:30Z</time>
      </trkpt>
      <trkpt lat="43.9245" lon="1.85581">
        <ele>233.6</ele>
        <time>2021-09-26T07:41:31Z</time>
      </trkpt>
      <trkpt lat="43.92451" lon="1.85579">
        <ele>233.8</ele>
        <time>2021-09-26T07:41:32Z</time>
      </trkpt>
      <trkpt lat="43.92452" lon="1.85578">
        <ele>234.2</ele>
        <time>2021-09-26T07:41:33Z</time>
      </trkpt>
      <trkpt lat="43.92453" lon="1.85576">
        <ele>234.6</ele>
        <time>2021-09-26T07:41:34Z</time>
      </trkpt>
      <trkpt lat="43.92454" lon="1.85575">
        <ele>234.6</ele>
        <time>2021-09-26T07:41:35Z</time>
      </trkpt>
      <trkpt lat="43.92454" lon="1.85573">
        <ele>235</ele>
        <time>2021-09-26T07:41:36Z</time>
      </trkpt>
      <trkpt lat="43.92455" lon="1.85571">
        <ele>235.2</ele>
        <time>2021-09-26T07:41:37Z</time>
      </trkpt>
      <trkpt lat="43.92455" lon="1.8557">
        <ele>235.2</ele>
        <time>2021-09-26T07:41:38Z</time>
      </trkpt>
      <trkpt lat="43.92456" lon="1.85568">
        <ele>235.6</ele>
        <time>2021-09-26T07:41:39Z</time>
      </trkpt>
      <trkpt lat="43.92456" lon="1.85566">
        <ele>235.8</ele>
        <time>2021-09-26T07:41:40Z</time>
      </trkpt>
      <trkpt lat="43.92457" lon="1.85565">
        <ele>236.2</ele>
        <time>2021-09-26T07:41:41Z</time>
      </trkpt>
      <trkpt lat="43.92457" lon="1.85564">
        <ele>236.2</ele>
        <time>2021-09-26T07:41:42Z</time>
      </trkpt>
      <trkpt lat="43.92458" lon="1.85562">
        <ele>236.6</ele>
        <time>2021-09-26T07:41:43Z</time>
      </trkpt>
      <trkpt lat="43.92458" lon="1.85561">
        <ele>236.6</ele>
        <time>2021-09-26T07:41:44Z</time>
      </trkpt>
      <trkpt lat="43.92459" lon="1.85559">
        <ele>236.8</ele>
        <time>2021-09-26T07:41:45Z</time>
      </trkpt>
      <trkpt lat="43.9246" lon="1.85558">
        <ele>236.8</ele>
        <time>2021-09-26T07:41:46Z</time>
      </trkpt>
      <trkpt lat="43.92461" lon="1.85556">
        <ele>236.8</ele>
        <time>2021-09-26T07:41:47Z</time>
      </trkpt>
      <trkpt lat="43.92461" lon="1.85555">
        <ele>237</ele>
        <time>2021-09-26T07:41:48Z</time>
      </trkpt>
      <trkpt lat="43.92462" lon="1.85553">
        <ele>237</ele>
        <time>2021-09-26T07:41:49Z</time>
      </trkpt>
      <trkpt lat="43.92463" lon="1.85552">
        <ele>237.4</ele>
        <time>2021-09-26T07:41:50Z</time>
      </trkpt>
      <trkpt lat="43.92463" lon="1.8555">
        <ele>237.4</ele>
        <time>2021-09-26T07:41:51Z</time>
      </trkpt>
      <trkpt lat="43.92464" lon="1.85549">
        <ele>237.8</ele>
        <time>2021-09-26T07:41:52Z</time>
      </trkpt>
      <trkpt lat="43.92464" lon="1.85548">
        <ele>238.2</ele>
        <time>2021-09-26T07:41:53Z</time>
      </trkpt>
      <trkpt lat="43.92465" lon="1.85546">
        <ele>238.2</ele>
        <time>2021-09-26T07:41:54Z</time>
      </trkpt>
      <trkpt lat="43.92466" lon="1.85545">
        <ele>238.6</ele>
        <time>2021-09-26T07:41:55Z</time>
      </trkpt>
      <trkpt lat="43.92466" lon="1.85544">
        <ele>238.6</ele>
        <time>2021-09-26T07:41:56Z</time>
      </trkpt>
      <trkpt lat="43.92467" lon="1.85542">
        <ele>239</ele>
        <time>2021-09-26T07:41:57Z</time>
      </trkpt>
      <trkpt lat="43.92468" lon="1.85541">
        <ele>239</ele>
        <time>2021-09-26T07:41:58Z</time>
      </trkpt>
      <trkpt lat="43.92468" lon="1.85539">
        <ele>239.2</ele>
        <time>2021-09-26T07:41:59Z</time>
      </trkpt>
      <trkpt lat="43.92469" lon="1.85538">
        <ele>239.6</ele>
        <time>2021-09-26T07:42:00Z</time>
      </trkpt>
      <trkpt lat="43.9247" lon="1.85537">
        <ele>239.6</ele>
        <time>2021-09-26T07:42:01Z</time>
      </trkpt>
      <trkpt lat="43.9247" lon="1.85536">
        <ele>239.8</ele>
        <time>2021-09-26T07:42:02Z</time>
      </trkpt>
      <trkpt lat="43.92471" lon="1.85534">
        <ele>240</ele>
        <time>2021-09-26T07:42:03Z</time>
      </trkpt>
      <trkpt lat="43.92472" lon="1.85533">
        <ele>240</ele>
        <time>2021-09-26T07:42:04Z</time>
      </trkpt>
      <trkpt lat="43.92472" lon="1.85531">
        <ele>240.2</ele>
        <time>2021-09-26T07:42:05Z</time>
      </trkpt>
      <trkpt lat="43.92472" lon="1.85529">
        <ele>240.2</ele>
        <time>2021-09-26T07:42:06Z</time>
      </trkpt>
      <trkpt lat="43.92473" lon="1.85527">
        <ele>240.4</ele>
        <time>2021-09-26T07:42:07Z</time>
      </trkpt>
      <trkpt lat="43.92473" lon="1.85525">
        <ele>240.6</ele>
        <time>2021-09-26T07:42:08Z</time>
      </trkpt>
      <trkpt lat="43.92474" lon="1.85524">
        <ele>240.8</ele>
        <time>2021-09-26T07:42:09Z</time>
      </trkpt>
      <trkpt lat="43.92475" lon="1.85522">
        <ele>240.8</ele>
        <time>2021-09-26T07:42:10Z</time>
      </trkpt>
      <trkpt lat="43.92476" lon="1.8552">
        <ele>241</ele>
        <time>2021-09-26T07:42:11Z</time>
      </trkpt>
      <trkpt lat="43.92476" lon="1.85519">
        <ele>241.2</ele>
        <time>2021-09-26T07:42:12Z</time>
      </trkpt>
      <trkpt lat="43.92477" lon="1.85518">
        <ele>241.4</ele>
        <time>2021-09-26T07:42:13Z</time>
      </trkpt>
      <trkpt lat="43.92478" lon="1.85516">
        <ele>241.6</ele>
        <time>2021-09-26T07:42:14Z</time>
      </trkpt>
      <trkpt lat="43.92478" lon="1.85514">
        <ele>241.8</ele>
        <time>2021-09-26T07:42:15Z</time>
      </trkpt>
      <trkpt lat="43.92479" lon="1.85513">
        <ele>242.2</ele>
        <time>2021-09-26T07:42:16Z</time>
      </trkpt>
      <trkpt lat="43.92479" lon="1.85511">
        <ele>242.4</ele>
        <time>2021-09-26T07:42:17Z</time>
      </trkpt>
      <trkpt lat="43.9248" lon="1.85509">
        <ele>242.6</ele>
        <time>2021-09-26T07:42:18Z</time>
      </trkpt>
      <trkpt lat="43.92481" lon="1.85508">
        <ele>242.8</ele>
        <time>2021-09-26T07:42:19Z</time>
      </trkpt>
      <trkpt lat="43.92482" lon="1.85506">
        <ele>242.8</ele>
        <time>2021-09-26T07:42:20Z</time>
      </trkpt>
      <trkpt lat="43.92483" lon="1.85505">
        <ele>243</ele>
        <time>2021-09-26T07:42:21Z</time>
      </trkpt>
      <trkpt lat="43.92484" lon="1.85503">
        <ele>243.2</ele>
        <time>2021-09-26T07:42:22Z</time>
      </trkpt>
      <trkpt lat="43.92484" lon="1.85501">
        <ele>243.4</ele>
        <time>2021-09-26T07:42:23Z</time>
      </trkpt>
      <trkpt lat="43.92485" lon="1.855">
        <ele>243.4</ele>
        <time>2021-09-26T07:42:24Z</time>
      </trkpt>
      <trkpt lat="43.92487" lon="1.85499">
        <ele>243.8</ele>
        <time>2021-09-26T07:42:25Z</time>
      </trkpt>
      <trkpt lat="43.92488" lon="1.85498">
        <ele>244</ele>
        <time>2021-09-26T07:42:26Z</time>
      </trkpt>
      <trkpt lat="43.92489" lon="1.85496">
        <ele>244.2</ele>
        <time>2021-09-26T07:42:27Z</time>
      </trkpt>
      <trkpt lat="43.92489" lon="1.85495">
        <ele>244.4</ele>
        <time>2021-09-26T07:42:28Z</time>
      </trkpt>
      <trkpt lat="43.9249" lon="1.85493">
        <ele>244.6</ele>
        <time>2021-09-26T07:42:29Z</time>
      </trkpt>
      <trkpt lat="43.92491" lon="1.85492">
        <ele>244.8</ele>
        <time>2021-09-26T07:42:30Z</time>
      </trkpt>
      <trkpt lat="43.92491" lon="1.85491">
        <ele>244.8</ele>
        <time>2021-09-26T07:42:31Z</time>
      </trkpt>
      <trkpt lat="43.92491" lon="1.8549">
        <ele>245</ele>
        <time>2021-09-26T07:42:32Z</time>
      </trkpt>
      <trkpt lat="43.92492" lon="1.85489">
        <ele>245</ele>
        <time>2021-09-26T07:42:33Z</time>
      </trkpt>
      <trkpt lat="43.92493" lon="1.85487">
        <ele>245.4</ele>
        <time>2021-09-26T07:42:34Z</time>
      </trkpt>
      <trkpt lat="43.92493" lon="1.85486">
        <ele>245.4</ele>
        <time>2021-09-26T07:42:35Z</time>
      </trkpt>
      <trkpt lat="43.92494" lon="1.85484">
        <ele>245.8</ele>
        <time>2021-09-26T07:42:36Z</time>
      </trkpt>
      <trkpt lat="43.92494" lon="1.85482">
        <ele>246</ele>
        <time>2021-09-26T07:42:37Z</time>
      </trkpt>
      <trkpt lat="43.92495" lon="1.8548">
        <ele>246.2</ele>
        <time>2021-09-26T07:42:38Z</time>
      </trkpt>
      <trkpt lat="43.92496" lon="1.85479">
        <ele>246.4</ele>
        <time>2021-09-26T07:42:39Z</time>
      </trkpt>
      <trkpt lat="43.92497" lon="1.85477">
        <ele>246.4</ele>
        <time>2021-09-26T07:42:40Z</time>
      </trkpt>
      <trkpt lat="43.92497" lon="1.85475">
        <ele>246.6</ele>
        <time>2021-09-26T07:42:41Z</time>
      </trkpt>
      <trkpt lat="43.92498" lon="1.85474">
        <ele>246.8</ele>
        <time>2021-09-26T07:42:42Z</time>
      </trkpt>
      <trkpt lat="43.92498" lon="1.85472">
        <ele>247</ele>
        <time>2021-09-26T07:42:43Z</time>
      </trkpt>
      <trkpt lat="43.92499" lon="1.8547">
        <ele>247.2</ele>
        <time>2021-09-26T07:42:44Z</time>
      </trkpt>
      <trkpt lat="43.92499" lon="1.85469">
        <ele>247.2</ele>
        <time>2021-09-26T07:42:45Z</time>
      </trkpt>
      <trkpt lat="43.925" lon="1.85468">
        <ele>247.4</ele>
        <time>2021-09-26T07:42:46Z</time>
      </trkpt>
      <trkpt lat="43.925" lon="1.85466">
        <ele>247.6</ele>
        <time>2021-09-26T07:42:47Z</time>
      </trkpt>
      <trkpt lat="43.92501" lon="1.85464">
        <ele>247.6</ele>
        <time>2021-09-26T07:42:48Z</time>
      </trkpt>
      <trkpt lat="43.92501" lon="1.85462">
        <ele>247.8</ele>
        <time>2021-09-26T07:42:49Z</time>
      </trkpt>
      <trkpt lat="43.92502" lon="1.8546">
        <ele>247.8</ele>
        <time>2021-09-26T07:42:50Z</time>
      </trkpt>
      <trkpt lat="43.92502" lon="1.85458">
        <ele>248</ele>
        <time>2021-09-26T07:42:51Z</time>
      </trkpt>
      <trkpt lat="43.92502" lon="1.85456">
        <ele>248</ele>
        <time>2021-09-26T07:42:52Z</time>
      </trkpt>
      <trkpt lat="43.92503" lon="1.85455">
        <ele>248.2</ele>
        <time>2021-09-26T07:42:53Z</time>
      </trkpt>
      <trkpt lat="43.92503" lon="1.85453">
        <ele>248.2</ele>
        <time>2021-09-26T07:42:54Z</time>
      </trkpt>
      <trkpt lat="43.92503" lon="1.85451">
        <ele>248.4</ele>
        <time>2021-09-26T07:42:55Z</time>
      </trkpt>
      <trkpt lat="43.92503" lon="1.8545">
        <ele>248.6</ele>
        <time>2021-09-26T07:42:56Z</time>
      </trkpt>
      <trkpt lat="43.92504" lon="1.85448">
        <ele>248.8</ele>
        <time>2021-09-26T07:42:57Z</time>
      </trkpt>
      <trkpt lat="43.92504" lon="1.85447">
        <ele>248.8</ele>
        <time>2021-09-26T07:42:58Z</time>
      </trkpt>
      <trkpt lat="43.92505" lon="1.85444">
        <ele>249.2</ele>
        <time>2021-09-26T07:42:59Z</time>
      </trkpt>
      <trkpt lat="43.92505" lon="1.85443">
        <ele>249.4</ele>
        <time>2021-09-26T07:43:00Z</time>
      </trkpt>
      <trkpt lat="43.92506" lon="1.85441">
        <ele>249.4</ele>
        <time>2021-09-26T07:43:01Z</time>
      </trkpt>
      <trkpt lat="43.92506" lon="1.85439">
        <ele>249.4</ele>
        <time>2021-09-26T07:43:02Z</time>
      </trkpt>
      <trkpt lat="43.92507" lon="1.85437">
        <ele>249.6</ele>
        <time>2021-09-26T07:43:03Z</time>
      </trkpt>
      <trkpt lat="43.92507" lon="1.85435">
        <ele>249.6</ele>
        <time>2021-09-26T07:43:04Z</time>
      </trkpt>
      <trkpt lat="43.92507" lon="1.85433">
        <ele>249.8</ele>
        <time>2021-09-26T07:43:05Z</time>
      </trkpt>
      <trkpt lat="43.92508" lon="1.85432">
        <ele>250</ele>
        <time>2021-09-26T07:43:06Z</time>
      </trkpt>
      <trkpt lat="43.92508" lon="1.8543">
        <ele>250</ele>
        <time>2021-09-26T07:43:07Z</time>
      </trkpt>
      <trkpt lat="43.92509" lon="1.85428">
        <ele>250.2</ele>
        <time>2021-09-26T07:43:08Z</time>
      </trkpt>
      <trkpt lat="43.92509" lon="1.85426">
        <ele>250.2</ele>
        <time>2021-09-26T07:43:09Z</time>
      </trkpt>
      <trkpt lat="43.9251" lon="1.85424">
        <ele>250.4</ele>
        <time>2021-09-26T07:43:10Z</time>
      </trkpt>
      <trkpt lat="43.92511" lon="1.85422">
        <ele>250.6</ele>
        <time>2021-09-26T07:43:11Z</time>
      </trkpt>
      <trkpt lat="43.92511" lon="1.8542">
        <ele>250.6</ele>
        <time>2021-09-26T07:43:12Z</time>
      </trkpt>
      <trkpt lat="43.92511" lon="1.85418">
        <ele>250.6</ele>
        <time>2021-09-26T07:43:13Z</time>
      </trkpt>
      <trkpt lat="43.92511" lon="1.85416">
        <ele>250.8</ele>
        <time>2021-09-26T07:43:14Z</time>
      </trkpt>
      <trkpt lat="43.92512" lon="1.85414">
        <ele>250.8</ele>
        <time>2021-09-26T07:43:15Z</time>
      </trkpt>
      <trkpt lat="43.92512" lon="1.85412">
        <ele>251</ele>
        <time>2021-09-26T07:43:16Z</time>
      </trkpt>
      <trkpt lat="43.92513" lon="1.8541">
        <ele>251</ele>
        <time>2021-09-26T07:43:17Z</time>
      </trkpt>
      <trkpt lat="43.92513" lon="1.85408">
        <ele>251.2</ele>
        <time>2021-09-26T07:43:18Z</time>
      </trkpt>
      <trkpt lat="43.92514" lon="1.85406">
        <ele>251.2</ele>
        <time>2021-09-26T07:43:19Z</time>
      </trkpt>
      <trkpt lat="43.92514" lon="1.85404">
        <ele>251.4</ele>
        <time>2021-09-26T07:43:20Z</time>
      </trkpt>
      <trkpt lat="43.92515" lon="1.85402">
        <ele>251.6</ele>
        <time>2021-09-26T07:43:21Z</time>
      </trkpt>
      <trkpt lat="43.92516" lon="1.854">
        <ele>251.8</ele>
        <time>2021-09-26T07:43:22Z</time>
      </trkpt>
      <trkpt lat="43.92516" lon="1.85398">
        <ele>252</ele>
        <time>2021-09-26T07:43:23Z</time>
      </trkpt>
      <trkpt lat="43.92516" lon="1.85396">
        <ele>252</ele>
        <time>2021-09-26T07:43:24Z</time>
      </trkpt>
      <trkpt lat="43.92517" lon="1.85395">
        <ele>252.2</ele>
        <time>2021-09-26T07:43:25Z</time>
      </trkpt>
      <trkpt lat="43.92518" lon="1.85393">
        <ele>252.4</ele>
        <time>2021-09-26T07:43:26Z</time>
      </trkpt>
      <trkpt lat="43.92519" lon="1.85391">
        <ele>252.4</ele>
        <time>2021-09-26T07:43:27Z</time>
      </trkpt>
      <trkpt lat="43.92519" lon="1.85389">
        <ele>252.6</ele>
        <time>2021-09-26T07:43:28Z</time>
      </trkpt>
      <trkpt lat="43.92519" lon="1.85387">
        <ele>252.8</ele>
        <time>2021-09-26T07:43:29Z</time>
      </trkpt>
      <trkpt lat="43.9252" lon="1.85385">
        <ele>253</ele>
        <time>2021-09-26T07:43:30Z</time>
      </trkpt>
      <trkpt lat="43.92521" lon="1.85383">
        <ele>253.2</ele>
        <time>2021-09-26T07:43:31Z</time>
      </trkpt>
      <trkpt lat="43.92521" lon="1.85381">
        <ele>253.4</ele>
        <time>2021-09-26T07:43:32Z</time>
      </trkpt>
      <trkpt lat="43.92521" lon="1.85379">
        <ele>253.4</ele>
        <time>2021-09-26T07:43:33Z</time>
      </trkpt>
      <trkpt lat="43.92522" lon="1.85377">
        <ele>253.8</ele>
        <time>2021-09-26T07:43:34Z</time>
      </trkpt>
      <trkpt lat="43.92522" lon="1.85375">
        <ele>254</ele>
        <time>2021-09-26T07:43:35Z</time>
      </trkpt>
      <trkpt lat="43.92523" lon="1.85373">
        <ele>254</ele>
        <time>2021-09-26T07:43:36Z</time>
      </trkpt>
      <trkpt lat="43.92524" lon="1.85372">
        <ele>254</ele>
        <time>2021-09-26T07:43:37Z</time>
      </trkpt>
      <trkpt lat="43.92524" lon="1.85371">
        <ele>254</ele>
        <time>2021-09-26T07:43:38Z</time>
      </trkpt>
      <trkpt lat="43.92525" lon="1.85369">
        <ele>254.4</ele>
        <time>2021-09-26T07:43:39Z</time>
      </trkpt>
      <trkpt lat="43.92525" lon="1.85367">
        <ele>254.6</ele>
        <time>2021-09-26T07:43:40Z</time>
      </trkpt>
      <trkpt lat="43.92526" lon="1.85365">
        <ele>254.6</ele>
        <time>2021-09-26T07:43:41Z</time>
      </trkpt>
      <trkpt lat="43.92527" lon="1.85364">
        <ele>254.6</ele>
        <time>2021-09-26T07:43:42Z</time>
      </trkpt>
      <trkpt lat="43.92527" lon="1.85362">
        <ele>254.8</ele>
        <time>2021-09-26T07:43:43Z</time>
      </trkpt>
      <trkpt lat="43.92528" lon="1.8536">
        <ele>254.8</ele>
        <time>2021-09-26T07:43:44Z</time>
      </trkpt>
      <trkpt lat="43.92529" lon="1.85359">
        <ele>255</ele>
        <time>2021-09-26T07:43:45Z</time>
      </trkpt>
      <trkpt lat="43.9253" lon="1.85357">
        <ele>255</ele>
        <time>2021-09-26T07:43:46Z</time>
      </trkpt>
      <trkpt lat="43.9253" lon="1.85355">
        <ele>255.2</ele>
        <time>2021-09-26T07:43:47Z</time>
      </trkpt>
      <trkpt lat="43.92531" lon="1.85352">
        <ele>255.2</ele>
        <time>2021-09-26T07:43:48Z</time>
      </trkpt>
      <trkpt lat="43.92532" lon="1.8535">
        <ele>255.4</ele>
        <time>2021-09-26T07:43:49Z</time>
      </trkpt>
      <trkpt lat="43.92532" lon="1.85348">
        <ele>255.4</ele>
        <time>2021-09-26T07:43:50Z</time>
      </trkpt>
      <trkpt lat="43.92533" lon="1.85345">
        <ele>255.6</ele>
        <time>2021-09-26T07:43:51Z</time>
      </trkpt>
      <trkpt lat="43.92533" lon="1.85343">
        <ele>255.8</ele>
        <time>2021-09-26T07:43:52Z</time>
      </trkpt>
      <trkpt lat="43.92534" lon="1.85341">
        <ele>256</ele>
        <time>2021-09-26T07:43:53Z</time>
      </trkpt>
      <trkpt lat="43.92535" lon="1.85339">
        <ele>256</ele>
        <time>2021-09-26T07:43:54Z</time>
      </trkpt>
      <trkpt lat="43.92535" lon="1.85337">
        <ele>256.2</ele>
        <time>2021-09-26T07:43:55Z</time>
      </trkpt>
      <trkpt lat="43.92536" lon="1.85335">
        <ele>256.2</ele>
        <time>2021-09-26T07:43:56Z</time>
      </trkpt>
      <trkpt lat="43.92536" lon="1.85333">
        <ele>256.4</ele>
        <time>2021-09-26T07:43:57Z</time>
      </trkpt>
      <trkpt lat="43.92537" lon="1.85331">
        <ele>256.4</ele>
        <time>2021-09-26T07:43:58Z</time>
      </trkpt>
      <trkpt lat="43.92538" lon="1.85329">
        <ele>256.6</ele>
        <time>2021-09-26T07:43:59Z</time>
      </trkpt>
      <trkpt lat="43.92538" lon="1.85326">
        <ele>256.6</ele>
        <time>2021-09-26T07:44:00Z</time>
      </trkpt>
      <trkpt lat="43.92539" lon="1.85324">
        <ele>256.6</ele>
        <time>2021-09-26T07:44:01Z</time>
      </trkpt>
      <trkpt lat="43.92539" lon="1.85321">
        <ele>256.8</ele>
        <time>2021-09-26T07:44:02Z</time>
      </trkpt>
      <trkpt lat="43.9254" lon="1.85318">
        <ele>256.8</ele>
        <time>2021-09-26T07:44:03Z</time>
      </trkpt>
      <trkpt lat="43.92541" lon="1.85316">
        <ele>257</ele>
        <time>2021-09-26T07:44:04Z</time>
      </trkpt>
      <trkpt lat="43.92542" lon="1.85315">
        <ele>257</ele>
        <time>2021-09-26T07:44:05Z</time>
      </trkpt>
      <trkpt lat="43.92543" lon="1.85313">
        <ele>257</ele>
        <time>2021-09-26T07:44:06Z</time>
      </trkpt>
      <trkpt lat="43.92544" lon="1.85312">
        <ele>257</ele>
        <time>2021-09-26T07:44:07Z</time>
      </trkpt>
      <trkpt lat="43.92543" lon="1.8531">
        <ele>257.2</ele>
        <time>2021-09-26T07:44:08Z</time>
      </trkpt>
      <trkpt lat="43.92544" lon="1.85307">
        <ele>257.4</ele>
        <time>2021-09-26T07:44:09Z</time>
      </trkpt>
      <trkpt lat="43.92544" lon="1.85305">
        <ele>257.4</ele>
        <time>2021-09-26T07:44:10Z</time>
      </trkpt>
      <trkpt lat="43.92545" lon="1.85303">
        <ele>257.6</ele>
        <time>2021-09-26T07:44:11Z</time>
      </trkpt>
      <trkpt lat="43.92546" lon="1.85302">
        <ele>257.6</ele>
        <time>2021-09-26T07:44:12Z</time>
      </trkpt>
      <trkpt lat="43.92546" lon="1.853">
        <ele>257.8</ele>
        <time>2021-09-26T07:44:13Z</time>
      </trkpt>
      <trkpt lat="43.92547" lon="1.85298">
        <ele>257.8</ele>
        <time>2021-09-26T07:44:14Z</time>
      </trkpt>
      <trkpt lat="43.92548" lon="1.85294">
        <ele>258</ele>
        <time>2021-09-26T07:44:16Z</time>
      </trkpt>
      <trkpt lat="43.92552" lon="1.85284">
        <ele>258.4</ele>
        <time>2021-09-26T07:44:20Z</time>
      </trkpt>
      <trkpt lat="43.92557" lon="1.85272">
        <ele>258.8</ele>
        <time>2021-09-26T07:44:26Z</time>
      </trkpt>
      <trkpt lat="43.92558" lon="1.8527">
        <ele>259</ele>
        <time>2021-09-26T07:44:27Z</time>
      </trkpt>
      <trkpt lat="43.92559" lon="1.85269">
        <ele>259</ele>
        <time>2021-09-26T07:44:28Z</time>
      </trkpt>
      <trkpt lat="43.9256" lon="1.85267">
        <ele>259.2</ele>
        <time>2021-09-26T07:44:29Z</time>
      </trkpt>
      <trkpt lat="43.92561" lon="1.85266">
        <ele>259.2</ele>
        <time>2021-09-26T07:44:30Z</time>
      </trkpt>
      <trkpt lat="43.92562" lon="1.85264">
        <ele>259.2</ele>
        <time>2021-09-26T07:44:31Z</time>
      </trkpt>
      <trkpt lat="43.92564" lon="1.85263">
        <ele>259.4</ele>
        <time>2021-09-26T07:44:32Z</time>
      </trkpt>
      <trkpt lat="43.92567" lon="1.85259">
        <ele>259.4</ele>
        <time>2021-09-26T07:44:34Z</time>
      </trkpt>
      <trkpt lat="43.92569" lon="1.85257">
        <ele>259.4</ele>
        <time>2021-09-26T07:44:35Z</time>
      </trkpt>
      <trkpt lat="43.92573" lon="1.85252">
        <ele>259.8</ele>
        <time>2021-09-26T07:44:38Z</time>
      </trkpt>
      <trkpt lat="43.92574" lon="1.8525">
        <ele>259.8</ele>
        <time>2021-09-26T07:44:39Z</time>
      </trkpt>
      <trkpt lat="43.92578" lon="1.85245">
        <ele>260</ele>
        <time>2021-09-26T07:44:41Z</time>
      </trkpt>
      <trkpt lat="43.92582" lon="1.85242">
        <ele>260</ele>
        <time>2021-09-26T07:44:43Z</time>
      </trkpt>
      <trkpt lat="43.92592" lon="1.85228">
        <ele>260.4</ele>
        <time>2021-09-26T07:44:49Z</time>
      </trkpt>
      <trkpt lat="43.926" lon="1.85219">
        <ele>261.4</ele>
        <time>2021-09-26T07:44:53Z</time>
      </trkpt>
      <trkpt lat="43.92603" lon="1.85218">
        <ele>261.6</ele>
        <time>2021-09-26T07:44:55Z</time>
      </trkpt>
      <trkpt lat="43.92604" lon="1.85217">
        <ele>261.8</ele>
        <time>2021-09-26T07:44:56Z</time>
      </trkpt>
      <trkpt lat="43.92605" lon="1.85216">
        <ele>262</ele>
        <time>2021-09-26T07:44:57Z</time>
      </trkpt>
      <trkpt lat="43.92608" lon="1.85215">
        <ele>262.4</ele>
        <time>2021-09-26T07:44:59Z</time>
      </trkpt>
      <trkpt lat="43.9261" lon="1.85214">
        <ele>262.6</ele>
        <time>2021-09-26T07:45:00Z</time>
      </trkpt>
      <trkpt lat="43.92612" lon="1.85213">
        <ele>262.8</ele>
        <time>2021-09-26T07:45:01Z</time>
      </trkpt>
      <trkpt lat="43.92613" lon="1.85213">
        <ele>263</ele>
        <time>2021-09-26T07:45:02Z</time>
      </trkpt>
      <trkpt lat="43.92615" lon="1.85212">
        <ele>263.2</ele>
        <time>2021-09-26T07:45:03Z</time>
      </trkpt>
      <trkpt lat="43.92617" lon="1.85211">
        <ele>263.6</ele>
        <time>2021-09-26T07:45:04Z</time>
      </trkpt>
      <trkpt lat="43.92619" lon="1.8521">
        <ele>263.8</ele>
        <time>2021-09-26T07:45:05Z</time>
      </trkpt>
      <trkpt lat="43.92621" lon="1.8521">
        <ele>264.2</ele>
        <time>2021-09-26T07:45:06Z</time>
      </trkpt>
      <trkpt lat="43.92622" lon="1.8521">
        <ele>264.8</ele>
        <time>2021-09-26T07:45:07Z</time>
      </trkpt>
      <trkpt lat="43.92624" lon="1.85209">
        <ele>265</ele>
        <time>2021-09-26T07:45:08Z</time>
      </trkpt>
      <trkpt lat="43.92626" lon="1.85209">
        <ele>265.4</ele>
        <time>2021-09-26T07:45:09Z</time>
      </trkpt>
      <trkpt lat="43.92629" lon="1.85208">
        <ele>265.4</ele>
        <time>2021-09-26T07:45:10Z</time>
      </trkpt>
      <trkpt lat="43.9263" lon="1.85208">
        <ele>265.8</ele>
        <time>2021-09-26T07:45:11Z</time>
      </trkpt>
      <trkpt lat="43.92632" lon="1.85207">
        <ele>266</ele>
        <time>2021-09-26T07:45:12Z</time>
      </trkpt>
      <trkpt lat="43.92634" lon="1.85206">
        <ele>266.4</ele>
        <time>2021-09-26T07:45:13Z</time>
      </trkpt>
      <trkpt lat="43.92636" lon="1.85206">
        <ele>266.8</ele>
        <time>2021-09-26T07:45:14Z</time>
      </trkpt>
      <trkpt lat="43.92637" lon="1.85205">
        <ele>267.2</ele>
        <time>2021-09-26T07:45:15Z</time>
      </trkpt>
      <trkpt lat="43.92639" lon="1.85205">
        <ele>267.6</ele>
        <time>2021-09-26T07:45:16Z</time>
      </trkpt>
      <trkpt lat="43.9264" lon="1.85205">
        <ele>268</ele>
        <time>2021-09-26T07:45:17Z</time>
      </trkpt>
      <trkpt lat="43.92642" lon="1.85203">
        <ele>268.4</ele>
        <time>2021-09-26T07:45:18Z</time>
      </trkpt>
      <trkpt lat="43.92643" lon="1.85203">
        <ele>268.6</ele>
        <time>2021-09-26T07:45:19Z</time>
      </trkpt>
      <trkpt lat="43.92645" lon="1.85202">
        <ele>269.4</ele>
        <time>2021-09-26T07:45:20Z</time>
      </trkpt>
      <trkpt lat="43.92646" lon="1.85201">
        <ele>269.6</ele>
        <time>2021-09-26T07:45:21Z</time>
      </trkpt>
      <trkpt lat="43.92649" lon="1.85201">
        <ele>270.2</ele>
        <time>2021-09-26T07:45:22Z</time>
      </trkpt>
      <trkpt lat="43.92651" lon="1.85202">
        <ele>271</ele>
        <time>2021-09-26T07:45:23Z</time>
      </trkpt>
      <trkpt lat="43.92654" lon="1.85201">
        <ele>271.2</ele>
        <time>2021-09-26T07:45:24Z</time>
      </trkpt>
      <trkpt lat="43.92656" lon="1.85201">
        <ele>271.6</ele>
        <time>2021-09-26T07:45:25Z</time>
      </trkpt>
      <trkpt lat="43.92658" lon="1.852">
        <ele>271.8</ele>
        <time>2021-09-26T07:45:26Z</time>
      </trkpt>
      <trkpt lat="43.9266" lon="1.85199">
        <ele>272.2</ele>
        <time>2021-09-26T07:45:27Z</time>
      </trkpt>
      <trkpt lat="43.92662" lon="1.85198">
        <ele>272.4</ele>
        <time>2021-09-26T07:45:28Z</time>
      </trkpt>
      <trkpt lat="43.92663" lon="1.85197">
        <ele>272.6</ele>
        <time>2021-09-26T07:45:29Z</time>
      </trkpt>
      <trkpt lat="43.92666" lon="1.85197">
        <ele>273</ele>
        <time>2021-09-26T07:45:30Z</time>
      </trkpt>
      <trkpt lat="43.92668" lon="1.85196">
        <ele>273.2</ele>
        <time>2021-09-26T07:45:31Z</time>
      </trkpt>
      <trkpt lat="43.92669" lon="1.85194">
        <ele>273.6</ele>
        <time>2021-09-26T07:45:32Z</time>
      </trkpt>
      <trkpt lat="43.9267" lon="1.85193">
        <ele>273.6</ele>
        <time>2021-09-26T07:45:33Z</time>
      </trkpt>
      <trkpt lat="43.92671" lon="1.85193">
        <ele>273.8</ele>
        <time>2021-09-26T07:45:34Z</time>
      </trkpt>
      <trkpt lat="43.92673" lon="1.85192">
        <ele>273.8</ele>
        <time>2021-09-26T07:45:35Z</time>
      </trkpt>
      <trkpt lat="43.92675" lon="1.85191">
        <ele>274</ele>
        <time>2021-09-26T07:45:36Z</time>
      </trkpt>
      <trkpt lat="43.92677" lon="1.8519">
        <ele>274.2</ele>
        <time>2021-09-26T07:45:37Z</time>
      </trkpt>
      <trkpt lat="43.92679" lon="1.8519">
        <ele>274.2</ele>
        <time>2021-09-26T07:45:38Z</time>
      </trkpt>
      <trkpt lat="43.92682" lon="1.85188">
        <ele>274.2</ele>
        <time>2021-09-26T07:45:39Z</time>
      </trkpt>
      <trkpt lat="43.92683" lon="1.85187">
        <ele>274.2</ele>
        <time>2021-09-26T07:45:40Z</time>
      </trkpt>
      <trkpt lat="43.92686" lon="1.85186">
        <ele>274</ele>
        <time>2021-09-26T07:45:41Z</time>
      </trkpt>
      <trkpt lat="43.92688" lon="1.85184">
        <ele>274</ele>
        <time>2021-09-26T07:45:42Z</time>
      </trkpt>
      <trkpt lat="43.9269" lon="1.85183">
        <ele>274</ele>
        <time>2021-09-26T07:45:43Z</time>
      </trkpt>
      <trkpt lat="43.92692" lon="1.85181">
        <ele>274</ele>
        <time>2021-09-26T07:45:44Z</time>
      </trkpt>
      <trkpt lat="43.92693" lon="1.85179">
        <ele>273.8</ele>
        <time>2021-09-26T07:45:45Z</time>
      </trkpt>
      <trkpt lat="43.92694" lon="1.85177">
        <ele>273.6</ele>
        <time>2021-09-26T07:45:46Z</time>
      </trkpt>
      <trkpt lat="43.92694" lon="1.85176">
        <ele>273.6</ele>
        <time>2021-09-26T07:45:47Z</time>
      </trkpt>
      <trkpt lat="43.92694" lon="1.85175">
        <ele>273.6</ele>
        <time>2021-09-26T07:45:48Z</time>
      </trkpt>
      <trkpt lat="43.92694" lon="1.85174">
        <ele>273.6</ele>
        <time>2021-09-26T07:45:49Z</time>
      </trkpt>
      <trkpt lat="43.92694" lon="1.85173">
        <ele>273.6</ele>
        <time>2021-09-26T07:45:50Z</time>
      </trkpt>
      <trkpt lat="43.92695" lon="1.85172">
        <ele>273.6</ele>
        <time>2021-09-26T07:45:51Z</time>
      </trkpt>
      <trkpt lat="43.92695" lon="1.85171">
        <ele>273.4</ele>
        <time>2021-09-26T07:45:52Z</time>
      </trkpt>
      <trkpt lat="43.92696" lon="1.8517">
        <ele>273.4</ele>
        <time>2021-09-26T07:45:53Z</time>
      </trkpt>
      <trkpt lat="43.92697" lon="1.85169">
        <ele>273.4</ele>
        <time>2021-09-26T07:45:54Z</time>
      </trkpt>
      <trkpt lat="43.92698" lon="1.85169">
        <ele>273.4</ele>
        <time>2021-09-26T07:45:55Z</time>
      </trkpt>
      <trkpt lat="43.92698" lon="1.85168">
        <ele>273.4</ele>
        <time>2021-09-26T07:45:56Z</time>
      </trkpt>
      <trkpt lat="43.92699" lon="1.85168">
        <ele>273.4</ele>
        <time>2021-09-26T07:45:57Z</time>
      </trkpt>
      <trkpt lat="43.92702" lon="1.85167">
        <ele>273.2</ele>
        <time>2021-09-26T07:46:00Z</time>
      </trkpt>
      <trkpt lat="43.92704" lon="1.85166">
        <ele>273.2</ele>
        <time>2021-09-26T07:46:02Z</time>
      </trkpt>
      <trkpt lat="43.92705" lon="1.85165">
        <ele>273.2</ele>
        <time>2021-09-26T07:46:03Z</time>
      </trkpt>
      <trkpt lat="43.92706" lon="1.85164">
        <ele>273.2</ele>
        <time>2021-09-26T07:46:04Z</time>
      </trkpt>
      <trkpt lat="43.92707" lon="1.85162">
        <ele>273.2</ele>
        <time>2021-09-26T07:46:05Z</time>
      </trkpt>
      <trkpt lat="43.92708" lon="1.8516">
        <ele>273.2</ele>
        <time>2021-09-26T07:46:06Z</time>
      </trkpt>
      <trkpt lat="43.9271" lon="1.85159">
        <ele>273.2</ele>
        <time>2021-09-26T07:46:07Z</time>
      </trkpt>
      <trkpt lat="43.92718" lon="1.8515">
        <ele>273.2</ele>
        <time>2021-09-26T07:46:12Z</time>
      </trkpt>
      <trkpt lat="43.9272" lon="1.85148">
        <ele>273.2</ele>
        <time>2021-09-26T07:46:13Z</time>
      </trkpt>
      <trkpt lat="43.92734" lon="1.85125">
        <ele>272.6</ele>
        <time>2021-09-26T07:46:20Z</time>
      </trkpt>
      <trkpt lat="43.92745" lon="1.85106">
        <ele>272.2</ele>
        <time>2021-09-26T07:46:25Z</time>
      </trkpt>
      <trkpt lat="43.9275" lon="1.85098">
        <ele>271.8</ele>
        <time>2021-09-26T07:46:27Z</time>
      </trkpt>
      <trkpt lat="43.92762" lon="1.85079">
        <ele>271.4</ele>
        <time>2021-09-26T07:46:32Z</time>
      </trkpt>
      <trkpt lat="43.9277" lon="1.85068">
        <ele>271.4</ele>
        <time>2021-09-26T07:46:34Z</time>
      </trkpt>
      <trkpt lat="43.92776" lon="1.85059">
        <ele>271</ele>
        <time>2021-09-26T07:46:36Z</time>
      </trkpt>
      <trkpt lat="43.92779" lon="1.85055">
        <ele>271</ele>
        <time>2021-09-26T07:46:37Z</time>
      </trkpt>
      <trkpt lat="43.92783" lon="1.85051">
        <ele>270.8</ele>
        <time>2021-09-26T07:46:38Z</time>
      </trkpt>
      <trkpt lat="43.92797" lon="1.85036">
        <ele>270.4</ele>
        <time>2021-09-26T07:46:42Z</time>
      </trkpt>
      <trkpt lat="43.92802" lon="1.85029">
        <ele>270.2</ele>
        <time>2021-09-26T07:46:44Z</time>
      </trkpt>
      <trkpt lat="43.92805" lon="1.85025">
        <ele>270.2</ele>
        <time>2021-09-26T07:46:45Z</time>
      </trkpt>
      <trkpt lat="43.92806" lon="1.85021">
        <ele>270.2</ele>
        <time>2021-09-26T07:46:46Z</time>
      </trkpt>
      <trkpt lat="43.92808" lon="1.85018">
        <ele>270.2</ele>
        <time>2021-09-26T07:46:47Z</time>
      </trkpt>
      <trkpt lat="43.9281" lon="1.85015">
        <ele>270.2</ele>
        <time>2021-09-26T07:46:48Z</time>
      </trkpt>
      <trkpt lat="43.92811" lon="1.85012">
        <ele>270.2</ele>
        <time>2021-09-26T07:46:49Z</time>
      </trkpt>
      <trkpt lat="43.92813" lon="1.85009">
        <ele>270.2</ele>
        <time>2021-09-26T07:46:50Z</time>
      </trkpt>
      <trkpt lat="43.92814" lon="1.85006">
        <ele>270.2</ele>
        <time>2021-09-26T07:46:51Z</time>
      </trkpt>
      <trkpt lat="43.92816" lon="1.85003">
        <ele>270.2</ele>
        <time>2021-09-26T07:46:52Z</time>
      </trkpt>
      <trkpt lat="43.92817" lon="1.84999">
        <ele>270</ele>
        <time>2021-09-26T07:46:53Z</time>
      </trkpt>
      <trkpt lat="43.92819" lon="1.84996">
        <ele>270</ele>
        <time>2021-09-26T07:46:54Z</time>
      </trkpt>
      <trkpt lat="43.92821" lon="1.84989">
        <ele>270</ele>
        <time>2021-09-26T07:46:56Z</time>
      </trkpt>
      <trkpt lat="43.92823" lon="1.84985">
        <ele>270</ele>
        <time>2021-09-26T07:46:57Z</time>
      </trkpt>
      <trkpt lat="43.92824" lon="1.84982">
        <ele>269.8</ele>
        <time>2021-09-26T07:46:58Z</time>
      </trkpt>
      <trkpt lat="43.92832" lon="1.8496">
        <ele>269.4</ele>
        <time>2021-09-26T07:47:04Z</time>
      </trkpt>
      <trkpt lat="43.92843" lon="1.84929">
        <ele>269.4</ele>
        <time>2021-09-26T07:47:12Z</time>
      </trkpt>
      <trkpt lat="43.92846" lon="1.84922">
        <ele>269.4</ele>
        <time>2021-09-26T07:47:14Z</time>
      </trkpt>
      <trkpt lat="43.92847" lon="1.84918">
        <ele>269.2</ele>
        <time>2021-09-26T07:47:15Z</time>
      </trkpt>
      <trkpt lat="43.92848" lon="1.84915">
        <ele>269.2</ele>
        <time>2021-09-26T07:47:16Z</time>
      </trkpt>
      <trkpt lat="43.9285" lon="1.84911">
        <ele>269.2</ele>
        <time>2021-09-26T07:47:17Z</time>
      </trkpt>
      <trkpt lat="43.92851" lon="1.84907">
        <ele>269.2</ele>
        <time>2021-09-26T07:47:18Z</time>
      </trkpt>
      <trkpt lat="43.92855" lon="1.84895">
        <ele>269.2</ele>
        <time>2021-09-26T07:47:21Z</time>
      </trkpt>
      <trkpt lat="43.92863" lon="1.84865">
        <ele>269.8</ele>
        <time>2021-09-26T07:47:29Z</time>
      </trkpt>
      <trkpt lat="43.92864" lon="1.84861">
        <ele>269.8</ele>
        <time>2021-09-26T07:47:30Z</time>
      </trkpt>
      <trkpt lat="43.92865" lon="1.84858">
        <ele>269.8</ele>
        <time>2021-09-26T07:47:31Z</time>
      </trkpt>
      <trkpt lat="43.92866" lon="1.84854">
        <ele>269.8</ele>
        <time>2021-09-26T07:47:32Z</time>
      </trkpt>
      <trkpt lat="43.92872" lon="1.84827">
        <ele>269.6</ele>
        <time>2021-09-26T07:47:38Z</time>
      </trkpt>
      <trkpt lat="43.92874" lon="1.84823">
        <ele>269.6</ele>
        <time>2021-09-26T07:47:39Z</time>
      </trkpt>
      <trkpt lat="43.92875" lon="1.84819">
        <ele>269.6</ele>
        <time>2021-09-26T07:47:40Z</time>
      </trkpt>
      <trkpt lat="43.92876" lon="1.84815">
        <ele>269.6</ele>
        <time>2021-09-26T07:47:41Z</time>
      </trkpt>
      <trkpt lat="43.92877" lon="1.84811">
        <ele>269.6</ele>
        <time>2021-09-26T07:47:42Z</time>
      </trkpt>
      <trkpt lat="43.92878" lon="1.84803">
        <ele>269.6</ele>
        <time>2021-09-26T07:47:44Z</time>
      </trkpt>
      <trkpt lat="43.92879" lon="1.84799">
        <ele>269.4</ele>
        <time>2021-09-26T07:47:45Z</time>
      </trkpt>
      <trkpt lat="43.9288" lon="1.84794">
        <ele>269.4</ele>
        <time>2021-09-26T07:47:46Z</time>
      </trkpt>
      <trkpt lat="43.92881" lon="1.8479">
        <ele>269.4</ele>
        <time>2021-09-26T07:47:47Z</time>
      </trkpt>
      <trkpt lat="43.92891" lon="1.84762">
        <ele>269.4</ele>
        <time>2021-09-26T07:47:54Z</time>
      </trkpt>
      <trkpt lat="43.92892" lon="1.84758">
        <ele>269.4</ele>
        <time>2021-09-26T07:47:55Z</time>
      </trkpt>
      <trkpt lat="43.92894" lon="1.84755">
        <ele>269.4</ele>
        <time>2021-09-26T07:47:56Z</time>
      </trkpt>
      <trkpt lat="43.92895" lon="1.84753">
        <ele>269.6</ele>
        <time>2021-09-26T07:47:57Z</time>
      </trkpt>
      <trkpt lat="43.92896" lon="1.84752">
        <ele>269.6</ele>
        <time>2021-09-26T07:47:58Z</time>
      </trkpt>
      <trkpt lat="43.92897" lon="1.8475">
        <ele>269.6</ele>
        <time>2021-09-26T07:47:59Z</time>
      </trkpt>
      <trkpt lat="43.92898" lon="1.84749">
        <ele>269.6</ele>
        <time>2021-09-26T07:48:00Z</time>
      </trkpt>
      <trkpt lat="43.92898" lon="1.84749">
        <ele>269.6</ele>
        <time>2021-09-26T07:48:02Z</time>
      </trkpt>
      <trkpt lat="43.92901" lon="1.84742">
        <ele>269.6</ele>
        <time>2021-09-26T07:48:47Z</time>
      </trkpt>
      <trkpt lat="43.92914" lon="1.84723">
        <ele>269.4</ele>
        <time>2021-09-26T07:48:53Z</time>
      </trkpt>
      <trkpt lat="43.92916" lon="1.8472">
        <ele>269.4</ele>
        <time>2021-09-26T07:48:54Z</time>
      </trkpt>
      <trkpt lat="43.92925" lon="1.84706">
        <ele>268.6</ele>
        <time>2021-09-26T07:48:58Z</time>
      </trkpt>
      <trkpt lat="43.92934" lon="1.84694">
        <ele>268.8</ele>
        <time>2021-09-26T07:49:02Z</time>
      </trkpt>
      <trkpt lat="43.92935" lon="1.84693">
        <ele>268.8</ele>
        <time>2021-09-26T07:49:03Z</time>
      </trkpt>
      <trkpt lat="43.92937" lon="1.84691">
        <ele>268.6</ele>
        <time>2021-09-26T07:49:04Z</time>
      </trkpt>
      <trkpt lat="43.92938" lon="1.8469">
        <ele>268.6</ele>
        <time>2021-09-26T07:49:05Z</time>
      </trkpt>
      <trkpt lat="43.92939" lon="1.84688">
        <ele>268.6</ele>
        <time>2021-09-26T07:49:06Z</time>
      </trkpt>
      <trkpt lat="43.92939" lon="1.84688">
        <ele>268.8</ele>
        <time>2021-09-26T07:49:07Z</time>
      </trkpt>
      <trkpt lat="43.92942" lon="1.84685">
        <ele>268.8</ele>
        <time>2021-09-26T07:49:08Z</time>
      </trkpt>
      <trkpt lat="43.92944" lon="1.84683">
        <ele>269</ele>
        <time>2021-09-26T07:49:09Z</time>
      </trkpt>
      <trkpt lat="43.92945" lon="1.84681">
        <ele>269</ele>
        <time>2021-09-26T07:49:10Z</time>
      </trkpt>
      <trkpt lat="43.92947" lon="1.8468">
        <ele>269.2</ele>
        <time>2021-09-26T07:49:11Z</time>
      </trkpt>
      <trkpt lat="43.92948" lon="1.84678">
        <ele>269.4</ele>
        <time>2021-09-26T07:49:12Z</time>
      </trkpt>
      <trkpt lat="43.9295" lon="1.84676">
        <ele>269.6</ele>
        <time>2021-09-26T07:49:13Z</time>
      </trkpt>
      <trkpt lat="43.92951" lon="1.84674">
        <ele>269.8</ele>
        <time>2021-09-26T07:49:14Z</time>
      </trkpt>
      <trkpt lat="43.92952" lon="1.84673">
        <ele>270</ele>
        <time>2021-09-26T07:49:15Z</time>
      </trkpt>
      <trkpt lat="43.92957" lon="1.84667">
        <ele>270.4</ele>
        <time>2021-09-26T07:49:18Z</time>
      </trkpt>
      <trkpt lat="43.92959" lon="1.84664">
        <ele>270.8</ele>
        <time>2021-09-26T07:49:20Z</time>
      </trkpt>
      <trkpt lat="43.92959" lon="1.84664">
        <ele>271</ele>
        <time>2021-09-26T07:49:21Z</time>
      </trkpt>
      <trkpt lat="43.92962" lon="1.8466">
        <ele>271.2</ele>
        <time>2021-09-26T07:49:22Z</time>
      </trkpt>
      <trkpt lat="43.92963" lon="1.84658">
        <ele>271.4</ele>
        <time>2021-09-26T07:49:24Z</time>
      </trkpt>
      <trkpt lat="43.92971" lon="1.84649">
        <ele>272</ele>
        <time>2021-09-26T07:49:28Z</time>
      </trkpt>
      <trkpt lat="43.92973" lon="1.84647">
        <ele>272.2</ele>
        <time>2021-09-26T07:49:29Z</time>
      </trkpt>
      <trkpt lat="43.92973" lon="1.84647">
        <ele>272.4</ele>
        <time>2021-09-26T07:49:30Z</time>
      </trkpt>
      <trkpt lat="43.92976" lon="1.84644">
        <ele>272.6</ele>
        <time>2021-09-26T07:49:31Z</time>
      </trkpt>
      <trkpt lat="43.92977" lon="1.84642">
        <ele>272.8</ele>
        <time>2021-09-26T07:49:32Z</time>
      </trkpt>
      <trkpt lat="43.92979" lon="1.8464">
        <ele>273</ele>
        <time>2021-09-26T07:49:33Z</time>
      </trkpt>
      <trkpt lat="43.9298" lon="1.84638">
        <ele>273.4</ele>
        <time>2021-09-26T07:49:34Z</time>
      </trkpt>
      <trkpt lat="43.9298" lon="1.84638">
        <ele>273.4</ele>
        <time>2021-09-26T07:49:35Z</time>
      </trkpt>
      <trkpt lat="43.92984" lon="1.84634">
        <ele>273.6</ele>
        <time>2021-09-26T07:49:36Z</time>
      </trkpt>
      <trkpt lat="43.92985" lon="1.84633">
        <ele>274</ele>
        <time>2021-09-26T07:49:37Z</time>
      </trkpt>
      <trkpt lat="43.92987" lon="1.84631">
        <ele>274</ele>
        <time>2021-09-26T07:49:38Z</time>
      </trkpt>
      <trkpt lat="43.92988" lon="1.84629">
        <ele>274.2</ele>
        <time>2021-09-26T07:49:39Z</time>
      </trkpt>
      <trkpt lat="43.9299" lon="1.84627">
        <ele>274.4</ele>
        <time>2021-09-26T07:49:40Z</time>
      </trkpt>
      <trkpt lat="43.92991" lon="1.84625">
        <ele>274.4</ele>
        <time>2021-09-26T07:49:41Z</time>
      </trkpt>
      <trkpt lat="43.92993" lon="1.84623">
        <ele>274.6</ele>
        <time>2021-09-26T07:49:42Z</time>
      </trkpt>
      <trkpt lat="43.92995" lon="1.84621">
        <ele>274.8</ele>
        <time>2021-09-26T07:49:43Z</time>
      </trkpt>
      <trkpt lat="43.92995" lon="1.84621">
        <ele>275</ele>
        <time>2021-09-26T07:49:44Z</time>
      </trkpt>
      <trkpt lat="43.92999" lon="1.84617">
        <ele>275</ele>
        <time>2021-09-26T07:49:45Z</time>
      </trkpt>
      <trkpt lat="43.93" lon="1.84615">
        <ele>275.2</ele>
        <time>2021-09-26T07:49:46Z</time>
      </trkpt>
      <trkpt lat="43.93" lon="1.84615">
        <ele>275.2</ele>
        <time>2021-09-26T07:49:47Z</time>
      </trkpt>
      <trkpt lat="43.93003" lon="1.84612">
        <ele>275.4</ele>
        <time>2021-09-26T07:49:48Z</time>
      </trkpt>
      <trkpt lat="43.93005" lon="1.8461">
        <ele>275.6</ele>
        <time>2021-09-26T07:49:49Z</time>
      </trkpt>
      <trkpt lat="43.93007" lon="1.84609">
        <ele>275.8</ele>
        <time>2021-09-26T07:49:50Z</time>
      </trkpt>
      <trkpt lat="43.93008" lon="1.84607">
        <ele>276</ele>
        <time>2021-09-26T07:49:51Z</time>
      </trkpt>
      <trkpt lat="43.9301" lon="1.84606">
        <ele>276.2</ele>
        <time>2021-09-26T07:49:52Z</time>
      </trkpt>
      <trkpt lat="43.9301" lon="1.84606">
        <ele>276.4</ele>
        <time>2021-09-26T07:49:53Z</time>
      </trkpt>
      <trkpt lat="43.93013" lon="1.84601">
        <ele>276.4</ele>
        <time>2021-09-26T07:49:54Z</time>
      </trkpt>
      <trkpt lat="43.93014" lon="1.84599">
        <ele>276.6</ele>
        <time>2021-09-26T07:49:55Z</time>
      </trkpt>
      <trkpt lat="43.93015" lon="1.84598">
        <ele>276.6</ele>
        <time>2021-09-26T07:49:56Z</time>
      </trkpt>
      <trkpt lat="43.93017" lon="1.84596">
        <ele>276.8</ele>
        <time>2021-09-26T07:49:57Z</time>
      </trkpt>
      <trkpt lat="43.93019" lon="1.84593">
        <ele>276.8</ele>
        <time>2021-09-26T07:49:58Z</time>
      </trkpt>
      <trkpt lat="43.93019" lon="1.84593">
        <ele>277</ele>
        <time>2021-09-26T07:49:59Z</time>
      </trkpt>
      <trkpt lat="43.93022" lon="1.8459">
        <ele>277.4</ele>
        <time>2021-09-26T07:50:00Z</time>
      </trkpt>
      <trkpt lat="43.93024" lon="1.84588">
        <ele>277.4</ele>
        <time>2021-09-26T07:50:01Z</time>
      </trkpt>
      <trkpt lat="43.93024" lon="1.84588">
        <ele>277.6</ele>
        <time>2021-09-26T07:50:02Z</time>
      </trkpt>
      <trkpt lat="43.93028" lon="1.84583">
        <ele>277.6</ele>
        <time>2021-09-26T07:50:03Z</time>
      </trkpt>
      <trkpt lat="43.9303" lon="1.8458">
        <ele>277.8</ele>
        <time>2021-09-26T07:50:04Z</time>
      </trkpt>
      <trkpt lat="43.93032" lon="1.84578">
        <ele>277.8</ele>
        <time>2021-09-26T07:50:05Z</time>
      </trkpt>
      <trkpt lat="43.93034" lon="1.84576">
        <ele>278</ele>
        <time>2021-09-26T07:50:06Z</time>
      </trkpt>
      <trkpt lat="43.93036" lon="1.84573">
        <ele>278</ele>
        <time>2021-09-26T07:50:07Z</time>
      </trkpt>
      <trkpt lat="43.93038" lon="1.84571">
        <ele>278</ele>
        <time>2021-09-26T07:50:08Z</time>
      </trkpt>
      <trkpt lat="43.9304" lon="1.84568">
        <ele>278.2</ele>
        <time>2021-09-26T07:50:09Z</time>
      </trkpt>
      <trkpt lat="43.93042" lon="1.84566">
        <ele>278.2</ele>
        <time>2021-09-26T07:50:10Z</time>
      </trkpt>
      <trkpt lat="43.93042" lon="1.84566">
        <ele>278.2</ele>
        <time>2021-09-26T07:50:11Z</time>
      </trkpt>
      <trkpt lat="43.93047" lon="1.84561">
        <ele>278.2</ele>
        <time>2021-09-26T07:50:12Z</time>
      </trkpt>
      <trkpt lat="43.93049" lon="1.84558">
        <ele>278.4</ele>
        <time>2021-09-26T07:50:13Z</time>
      </trkpt>
      <trkpt lat="43.93052" lon="1.84555">
        <ele>278.4</ele>
        <time>2021-09-26T07:50:14Z</time>
      </trkpt>
      <trkpt lat="43.93054" lon="1.84553">
        <ele>278.4</ele>
        <time>2021-09-26T07:50:15Z</time>
      </trkpt>
      <trkpt lat="43.93058" lon="1.8455">
        <ele>278.4</ele>
        <time>2021-09-26T07:50:16Z</time>
      </trkpt>
      <trkpt lat="43.9306" lon="1.84547">
        <ele>278.4</ele>
        <time>2021-09-26T07:50:17Z</time>
      </trkpt>
      <trkpt lat="43.93063" lon="1.84543">
        <ele>278.4</ele>
        <time>2021-09-26T07:50:18Z</time>
      </trkpt>
      <trkpt lat="43.93067" lon="1.84539">
        <ele>278.4</ele>
        <time>2021-09-26T07:50:19Z</time>
      </trkpt>
      <trkpt lat="43.9307" lon="1.84537">
        <ele>278.4</ele>
        <time>2021-09-26T07:50:20Z</time>
      </trkpt>
      <trkpt lat="43.93074" lon="1.84533">
        <ele>278.4</ele>
        <time>2021-09-26T07:50:21Z</time>
      </trkpt>
      <trkpt lat="43.93081" lon="1.84524">
        <ele>278.4</ele>
        <time>2021-09-26T07:50:23Z</time>
      </trkpt>
      <trkpt lat="43.93105" lon="1.84499">
        <ele>277.6</ele>
        <time>2021-09-26T07:50:29Z</time>
      </trkpt>
      <trkpt lat="43.93114" lon="1.84489">
        <ele>277.4</ele>
        <time>2021-09-26T07:50:31Z</time>
      </trkpt>
      <trkpt lat="43.93131" lon="1.84469">
        <ele>277</ele>
        <time>2021-09-26T07:50:36Z</time>
      </trkpt>
      <trkpt lat="43.93132" lon="1.84465">
        <ele>276.8</ele>
        <time>2021-09-26T07:50:37Z</time>
      </trkpt>
      <trkpt lat="43.93132" lon="1.84462">
        <ele>276.8</ele>
        <time>2021-09-26T07:50:38Z</time>
      </trkpt>
      <trkpt lat="43.93131" lon="1.84457">
        <ele>276.6</ele>
        <time>2021-09-26T07:50:39Z</time>
      </trkpt>
      <trkpt lat="43.93129" lon="1.84453">
        <ele>276.6</ele>
        <time>2021-09-26T07:50:40Z</time>
      </trkpt>
      <trkpt lat="43.93114" lon="1.84423">
        <ele>276.2</ele>
        <time>2021-09-26T07:50:47Z</time>
      </trkpt>
      <trkpt lat="43.93101" lon="1.84391">
        <ele>275.8</ele>
        <time>2021-09-26T07:50:54Z</time>
      </trkpt>
      <trkpt lat="43.93097" lon="1.84383">
        <ele>275.6</ele>
        <time>2021-09-26T07:50:56Z</time>
      </trkpt>
      <trkpt lat="43.93095" lon="1.84379">
        <ele>275.4</ele>
        <time>2021-09-26T07:50:58Z</time>
      </trkpt>
      <trkpt lat="43.93092" lon="1.84372">
        <ele>275.4</ele>
        <time>2021-09-26T07:50:59Z</time>
      </trkpt>
      <trkpt lat="43.9309" lon="1.84368">
        <ele>275.4</ele>
        <time>2021-09-26T07:51:00Z</time>
      </trkpt>
      <trkpt lat="43.93089" lon="1.84364">
        <ele>275.4</ele>
        <time>2021-09-26T07:51:01Z</time>
      </trkpt>
      <trkpt lat="43.93089" lon="1.84364">
        <ele>275.4</ele>
        <time>2021-09-26T07:51:02Z</time>
      </trkpt>
      <trkpt lat="43.93085" lon="1.84356">
        <ele>275.4</ele>
        <time>2021-09-26T07:51:03Z</time>
      </trkpt>
      <trkpt lat="43.93069" lon="1.84325">
        <ele>275.8</ele>
        <time>2021-09-26T07:51:11Z</time>
      </trkpt>
      <trkpt lat="43.93045" lon="1.84278">
        <ele>276.4</ele>
        <time>2021-09-26T07:51:22Z</time>
      </trkpt>
      <trkpt lat="43.9304" lon="1.84267">
        <ele>276.6</ele>
        <time>2021-09-26T07:51:25Z</time>
      </trkpt>
      <trkpt lat="43.93034" lon="1.84254">
        <ele>277</ele>
        <time>2021-09-26T07:51:28Z</time>
      </trkpt>
      <trkpt lat="43.93029" lon="1.84246">
        <ele>277.2</ele>
        <time>2021-09-26T07:51:30Z</time>
      </trkpt>
      <trkpt lat="43.93026" lon="1.84237">
        <ele>277.4</ele>
        <time>2021-09-26T07:51:32Z</time>
      </trkpt>
      <trkpt lat="43.93014" lon="1.84214">
        <ele>278</ele>
        <time>2021-09-26T07:51:38Z</time>
      </trkpt>
      <trkpt lat="43.93013" lon="1.8421">
        <ele>278.2</ele>
        <time>2021-09-26T07:51:39Z</time>
      </trkpt>
      <trkpt lat="43.93012" lon="1.84206">
        <ele>278.2</ele>
        <time>2021-09-26T07:51:40Z</time>
      </trkpt>
      <trkpt lat="43.93011" lon="1.84202">
        <ele>278.4</ele>
        <time>2021-09-26T07:51:41Z</time>
      </trkpt>
      <trkpt lat="43.9301" lon="1.84199">
        <ele>278.4</ele>
        <time>2021-09-26T07:51:42Z</time>
      </trkpt>
      <trkpt lat="43.93008" lon="1.84195">
        <ele>278.8</ele>
        <time>2021-09-26T07:51:43Z</time>
      </trkpt>
      <trkpt lat="43.93008" lon="1.84191">
        <ele>278.8</ele>
        <time>2021-09-26T07:51:44Z</time>
      </trkpt>
      <trkpt lat="43.93007" lon="1.84186">
        <ele>279</ele>
        <time>2021-09-26T07:51:45Z</time>
      </trkpt>
      <trkpt lat="43.93007" lon="1.84183">
        <ele>279</ele>
        <time>2021-09-26T07:51:46Z</time>
      </trkpt>
      <trkpt lat="43.93006" lon="1.8418">
        <ele>279</ele>
        <time>2021-09-26T07:51:47Z</time>
      </trkpt>
      <trkpt lat="43.93006" lon="1.84175">
        <ele>279.4</ele>
        <time>2021-09-26T07:51:48Z</time>
      </trkpt>
      <trkpt lat="43.93006" lon="1.84171">
        <ele>279.4</ele>
        <time>2021-09-26T07:51:49Z</time>
      </trkpt>
      <trkpt lat="43.93006" lon="1.84168">
        <ele>279.6</ele>
        <time>2021-09-26T07:51:50Z</time>
      </trkpt>
      <trkpt lat="43.93006" lon="1.84165">
        <ele>279.8</ele>
        <time>2021-09-26T07:51:51Z</time>
      </trkpt>
      <trkpt lat="43.93006" lon="1.84165">
        <ele>279.8</ele>
        <time>2021-09-26T07:51:52Z</time>
      </trkpt>
      <trkpt lat="43.93007" lon="1.84158">
        <ele>280</ele>
        <time>2021-09-26T07:51:53Z</time>
      </trkpt>
      <trkpt lat="43.93006" lon="1.84154">
        <ele>280</ele>
        <time>2021-09-26T07:51:54Z</time>
      </trkpt>
      <trkpt lat="43.93006" lon="1.84154">
        <ele>280.2</ele>
        <time>2021-09-26T07:51:55Z</time>
      </trkpt>
      <trkpt lat="43.93006" lon="1.84148">
        <ele>280.4</ele>
        <time>2021-09-26T07:51:56Z</time>
      </trkpt>
      <trkpt lat="43.93004" lon="1.84143">
        <ele>280.4</ele>
        <time>2021-09-26T07:51:57Z</time>
      </trkpt>
      <trkpt lat="43.93004" lon="1.84143">
        <ele>280.6</ele>
        <time>2021-09-26T07:51:58Z</time>
      </trkpt>
      <trkpt lat="43.93002" lon="1.84134">
        <ele>280.6</ele>
        <time>2021-09-26T07:51:59Z</time>
      </trkpt>
      <trkpt lat="43.93001" lon="1.8413">
        <ele>280.6</ele>
        <time>2021-09-26T07:52:00Z</time>
      </trkpt>
      <trkpt lat="43.93001" lon="1.8413">
        <ele>280.6</ele>
        <time>2021-09-26T07:52:01Z</time>
      </trkpt>
      <trkpt lat="43.92997" lon="1.84119">
        <ele>280.6</ele>
        <time>2021-09-26T07:52:02Z</time>
      </trkpt>
      <trkpt lat="43.92996" lon="1.84114">
        <ele>280.6</ele>
        <time>2021-09-26T07:52:03Z</time>
      </trkpt>
      <trkpt lat="43.92994" lon="1.84109">
        <ele>280.6</ele>
        <time>2021-09-26T07:52:04Z</time>
      </trkpt>
      <trkpt lat="43.92993" lon="1.84105">
        <ele>280.6</ele>
        <time>2021-09-26T07:52:05Z</time>
      </trkpt>
      <trkpt lat="43.92991" lon="1.84099">
        <ele>280.4</ele>
        <time>2021-09-26T07:52:06Z</time>
      </trkpt>
      <trkpt lat="43.9299" lon="1.84094">
        <ele>280.2</ele>
        <time>2021-09-26T07:52:07Z</time>
      </trkpt>
      <trkpt lat="43.92977" lon="1.84067">
        <ele>279.8</ele>
        <time>2021-09-26T07:52:12Z</time>
      </trkpt>
      <trkpt lat="43.92968" lon="1.84051">
        <ele>279.4</ele>
        <time>2021-09-26T07:52:15Z</time>
      </trkpt>
      <trkpt lat="43.92962" lon="1.8404">
        <ele>279</ele>
        <time>2021-09-26T07:52:17Z</time>
      </trkpt>
      <trkpt lat="43.9296" lon="1.84036">
        <ele>278.8</ele>
        <time>2021-09-26T07:52:18Z</time>
      </trkpt>
      <trkpt lat="43.9296" lon="1.84036">
        <ele>278.6</ele>
        <time>2021-09-26T07:52:19Z</time>
      </trkpt>
      <trkpt lat="43.92955" lon="1.84021">
        <ele>278.6</ele>
        <time>2021-09-26T07:52:20Z</time>
      </trkpt>
      <trkpt lat="43.92953" lon="1.84006">
        <ele>278.4</ele>
        <time>2021-09-26T07:52:23Z</time>
      </trkpt>
      <trkpt lat="43.92953" lon="1.84">
        <ele>278.2</ele>
        <time>2021-09-26T07:52:24Z</time>
      </trkpt>
      <trkpt lat="43.92951" lon="1.83994">
        <ele>278</ele>
        <time>2021-09-26T07:52:25Z</time>
      </trkpt>
      <trkpt lat="43.9295" lon="1.8399">
        <ele>278</ele>
        <time>2021-09-26T07:52:26Z</time>
      </trkpt>
      <trkpt lat="43.92948" lon="1.83985">
        <ele>277.6</ele>
        <time>2021-09-26T07:52:27Z</time>
      </trkpt>
      <trkpt lat="43.92948" lon="1.83985">
        <ele>277.2</ele>
        <time>2021-09-26T07:52:28Z</time>
      </trkpt>
      <trkpt lat="43.92944" lon="1.83975">
        <ele>277</ele>
        <time>2021-09-26T07:52:29Z</time>
      </trkpt>
      <trkpt lat="43.92941" lon="1.83969">
        <ele>276.8</ele>
        <time>2021-09-26T07:52:31Z</time>
      </trkpt>
      <trkpt lat="43.9294" lon="1.83967">
        <ele>276.8</ele>
        <time>2021-09-26T07:52:32Z</time>
      </trkpt>
      <trkpt lat="43.92939" lon="1.83964">
        <ele>276.6</ele>
        <time>2021-09-26T07:52:33Z</time>
      </trkpt>
      <trkpt lat="43.92939" lon="1.83964">
        <ele>276.6</ele>
        <time>2021-09-26T07:52:34Z</time>
      </trkpt>
      <trkpt lat="43.92937" lon="1.8396">
        <ele>276.6</ele>
        <time>2021-09-26T07:52:35Z</time>
      </trkpt>
      <trkpt lat="43.92938" lon="1.83957">
        <ele>276.4</ele>
        <time>2021-09-26T07:52:37Z</time>
      </trkpt>
      <trkpt lat="43.92938" lon="1.83949">
        <ele>276.4</ele>
        <time>2021-09-26T07:52:38Z</time>
      </trkpt>
      <trkpt lat="43.92938" lon="1.83945">
        <ele>276.2</ele>
        <time>2021-09-26T07:52:39Z</time>
      </trkpt>
      <trkpt lat="43.92938" lon="1.83945">
        <ele>276.2</ele>
        <time>2021-09-26T07:52:40Z</time>
      </trkpt>
      <trkpt lat="43.9293" lon="1.83921">
        <ele>276.2</ele>
        <time>2021-09-26T07:52:44Z</time>
      </trkpt>
      <trkpt lat="43.92928" lon="1.83897">
        <ele>276</ele>
        <time>2021-09-26T07:52:49Z</time>
      </trkpt>
      <trkpt lat="43.92926" lon="1.83894">
        <ele>276</ele>
        <time>2021-09-26T07:52:50Z</time>
      </trkpt>
      <trkpt lat="43.92926" lon="1.83891">
        <ele>276</ele>
        <time>2021-09-26T07:52:51Z</time>
      </trkpt>
      <trkpt lat="43.92926" lon="1.83888">
        <ele>275.8</ele>
        <time>2021-09-26T07:52:52Z</time>
      </trkpt>
      <trkpt lat="43.92927" lon="1.8388">
        <ele>276</ele>
        <time>2021-09-26T07:52:54Z</time>
      </trkpt>
      <trkpt lat="43.92927" lon="1.83876">
        <ele>275.6</ele>
        <time>2021-09-26T07:52:55Z</time>
      </trkpt>
      <trkpt lat="43.92925" lon="1.83869">
        <ele>275.6</ele>
        <time>2021-09-26T07:52:56Z</time>
      </trkpt>
      <trkpt lat="43.92921" lon="1.8386">
        <ele>275.8</ele>
        <time>2021-09-26T07:52:58Z</time>
      </trkpt>
      <trkpt lat="43.92921" lon="1.83857">
        <ele>275.8</ele>
        <time>2021-09-26T07:52:59Z</time>
      </trkpt>
      <trkpt lat="43.92922" lon="1.83854">
        <ele>275.8</ele>
        <time>2021-09-26T07:53:00Z</time>
      </trkpt>
      <trkpt lat="43.92923" lon="1.8385">
        <ele>275.8</ele>
        <time>2021-09-26T07:53:01Z</time>
      </trkpt>
      <trkpt lat="43.92921" lon="1.83845">
        <ele>275.8</ele>
        <time>2021-09-26T07:53:02Z</time>
      </trkpt>
      <trkpt lat="43.92921" lon="1.83842">
        <ele>275.8</ele>
        <time>2021-09-26T07:53:03Z</time>
      </trkpt>
      <trkpt lat="43.9292" lon="1.83838">
        <ele>275.6</ele>
        <time>2021-09-26T07:53:04Z</time>
      </trkpt>
      <trkpt lat="43.92919" lon="1.83834">
        <ele>275.6</ele>
        <time>2021-09-26T07:53:05Z</time>
      </trkpt>
      <trkpt lat="43.92918" lon="1.8383">
        <ele>275.6</ele>
        <time>2021-09-26T07:53:06Z</time>
      </trkpt>
      <trkpt lat="43.92918" lon="1.83825">
        <ele>275.6</ele>
        <time>2021-09-26T07:53:07Z</time>
      </trkpt>
      <trkpt lat="43.92918" lon="1.83822">
        <ele>275.6</ele>
        <time>2021-09-26T07:53:08Z</time>
      </trkpt>
      <trkpt lat="43.92915" lon="1.83818">
        <ele>275.6</ele>
        <time>2021-09-26T07:53:09Z</time>
      </trkpt>
      <trkpt lat="43.92913" lon="1.83815">
        <ele>275.6</ele>
        <time>2021-09-26T07:53:10Z</time>
      </trkpt>
      <trkpt lat="43.92912" lon="1.83813">
        <ele>275.6</ele>
        <time>2021-09-26T07:53:11Z</time>
      </trkpt>
      <trkpt lat="43.9291" lon="1.83811">
        <ele>275.6</ele>
        <time>2021-09-26T07:53:12Z</time>
      </trkpt>
      <trkpt lat="43.92909" lon="1.83809">
        <ele>275.6</ele>
        <time>2021-09-26T07:53:13Z</time>
      </trkpt>
      <trkpt lat="43.92908" lon="1.83807">
        <ele>275.6</ele>
        <time>2021-09-26T07:53:14Z</time>
      </trkpt>
      <trkpt lat="43.92909" lon="1.83804">
        <ele>275.6</ele>
        <time>2021-09-26T07:53:15Z</time>
      </trkpt>
      <trkpt lat="43.92909" lon="1.838">
        <ele>275.6</ele>
        <time>2021-09-26T07:53:16Z</time>
      </trkpt>
      <trkpt lat="43.9291" lon="1.83798">
        <ele>275.6</ele>
        <time>2021-09-26T07:53:17Z</time>
      </trkpt>
      <trkpt lat="43.9291" lon="1.83789">
        <ele>275.6</ele>
        <time>2021-09-26T07:53:20Z</time>
      </trkpt>
      <trkpt lat="43.92912" lon="1.83782">
        <ele>275.6</ele>
        <time>2021-09-26T07:53:22Z</time>
      </trkpt>
      <trkpt lat="43.9292" lon="1.83761">
        <ele>275.8</ele>
        <time>2021-09-26T07:53:28Z</time>
      </trkpt>
      <trkpt lat="43.92921" lon="1.83757">
        <ele>275.8</ele>
        <time>2021-09-26T07:53:29Z</time>
      </trkpt>
      <trkpt lat="43.92926" lon="1.8374">
        <ele>276</ele>
        <time>2021-09-26T07:53:33Z</time>
      </trkpt>
      <trkpt lat="43.92927" lon="1.83734">
        <ele>276</ele>
        <time>2021-09-26T07:53:34Z</time>
      </trkpt>
      <trkpt lat="43.92927" lon="1.83717">
        <ele>276</ele>
        <time>2021-09-26T07:53:37Z</time>
      </trkpt>
      <trkpt lat="43.92928" lon="1.83711">
        <ele>276</ele>
        <time>2021-09-26T07:53:38Z</time>
      </trkpt>
      <trkpt lat="43.92928" lon="1.83705">
        <ele>275.8</ele>
        <time>2021-09-26T07:53:39Z</time>
      </trkpt>
      <trkpt lat="43.92931" lon="1.83685">
        <ele>275.4</ele>
        <time>2021-09-26T07:53:42Z</time>
      </trkpt>
      <trkpt lat="43.92933" lon="1.83681">
        <ele>275.4</ele>
        <time>2021-09-26T07:53:43Z</time>
      </trkpt>
      <trkpt lat="43.92935" lon="1.83677">
        <ele>275.2</ele>
        <time>2021-09-26T07:53:44Z</time>
      </trkpt>
      <trkpt lat="43.92937" lon="1.83672">
        <ele>275</ele>
        <time>2021-09-26T07:53:45Z</time>
      </trkpt>
      <trkpt lat="43.92938" lon="1.83666">
        <ele>274.8</ele>
        <time>2021-09-26T07:53:46Z</time>
      </trkpt>
      <trkpt lat="43.92942" lon="1.83655">
        <ele>274.6</ele>
        <time>2021-09-26T07:53:48Z</time>
      </trkpt>
      <trkpt lat="43.92951" lon="1.83641">
        <ele>273.8</ele>
        <time>2021-09-26T07:53:51Z</time>
      </trkpt>
      <trkpt lat="43.92954" lon="1.83635">
        <ele>273.8</ele>
        <time>2021-09-26T07:53:52Z</time>
      </trkpt>
      <trkpt lat="43.92959" lon="1.83626">
        <ele>273.4</ele>
        <time>2021-09-26T07:53:54Z</time>
      </trkpt>
      <trkpt lat="43.92962" lon="1.8362">
        <ele>273.2</ele>
        <time>2021-09-26T07:53:55Z</time>
      </trkpt>
      <trkpt lat="43.92965" lon="1.83615">
        <ele>273.2</ele>
        <time>2021-09-26T07:53:56Z</time>
      </trkpt>
      <trkpt lat="43.92967" lon="1.83611">
        <ele>272.8</ele>
        <time>2021-09-26T07:53:57Z</time>
      </trkpt>
      <trkpt lat="43.92973" lon="1.83599">
        <ele>272.4</ele>
        <time>2021-09-26T07:54:00Z</time>
      </trkpt>
      <trkpt lat="43.92975" lon="1.83596">
        <ele>272.4</ele>
        <time>2021-09-26T07:54:01Z</time>
      </trkpt>
      <trkpt lat="43.92976" lon="1.83593">
        <ele>272.2</ele>
        <time>2021-09-26T07:54:02Z</time>
      </trkpt>
      <trkpt lat="43.92977" lon="1.83591">
        <ele>272</ele>
        <time>2021-09-26T07:54:03Z</time>
      </trkpt>
      <trkpt lat="43.92978" lon="1.83589">
        <ele>271.8</ele>
        <time>2021-09-26T07:54:04Z</time>
      </trkpt>
      <trkpt lat="43.92979" lon="1.83587">
        <ele>271.6</ele>
        <time>2021-09-26T07:54:05Z</time>
      </trkpt>
      <trkpt lat="43.9298" lon="1.83586">
        <ele>271.6</ele>
        <time>2021-09-26T07:54:06Z</time>
      </trkpt>
      <trkpt lat="43.92981" lon="1.83585">
        <ele>271.4</ele>
        <time>2021-09-26T07:54:07Z</time>
      </trkpt>
      <trkpt lat="43.92982" lon="1.83582">
        <ele>271.4</ele>
        <time>2021-09-26T07:54:08Z</time>
      </trkpt>
      <trkpt lat="43.92984" lon="1.8358">
        <ele>271.4</ele>
        <time>2021-09-26T07:54:09Z</time>
      </trkpt>
      <trkpt lat="43.92988" lon="1.83574">
        <ele>271.2</ele>
        <time>2021-09-26T07:54:12Z</time>
      </trkpt>
      <trkpt lat="43.92988" lon="1.83574">
        <ele>271.2</ele>
        <time>2021-09-26T07:54:13Z</time>
      </trkpt>
      <trkpt lat="43.92988" lon="1.83574">
        <ele>271.2</ele>
        <time>2021-09-26T07:54:14Z</time>
      </trkpt>
      <trkpt lat="43.92988" lon="1.83574">
        <ele>271.4</ele>
        <time>2021-09-26T07:54:15Z</time>
      </trkpt>
      <trkpt lat="43.92994" lon="1.83566">
        <ele>271.6</ele>
        <time>2021-09-26T07:54:41Z</time>
      </trkpt>
      <trkpt lat="43.92995" lon="1.83565">
        <ele>271.6</ele>
        <time>2021-09-26T07:54:42Z</time>
      </trkpt>
      <trkpt lat="43.93" lon="1.83559">
        <ele>271.8</ele>
        <time>2021-09-26T07:54:45Z</time>
      </trkpt>
      <trkpt lat="43.93001" lon="1.83557">
        <ele>272</ele>
        <time>2021-09-26T07:54:46Z</time>
      </trkpt>
      <trkpt lat="43.93005" lon="1.8355">
        <ele>272</ele>
        <time>2021-09-26T07:54:49Z</time>
      </trkpt>
      <trkpt lat="43.93008" lon="1.83547">
        <ele>272</ele>
        <time>2021-09-26T07:54:51Z</time>
      </trkpt>
      <trkpt lat="43.93012" lon="1.83543">
        <ele>272.2</ele>
        <time>2021-09-26T07:54:54Z</time>
      </trkpt>
      <trkpt lat="43.93014" lon="1.83543">
        <ele>272.2</ele>
        <time>2021-09-26T07:54:55Z</time>
      </trkpt>
      <trkpt lat="43.93017" lon="1.83545">
        <ele>272.2</ele>
        <time>2021-09-26T07:54:56Z</time>
      </trkpt>
      <trkpt lat="43.93019" lon="1.83543">
        <ele>272.2</ele>
        <time>2021-09-26T07:54:57Z</time>
      </trkpt>
      <trkpt lat="43.9302" lon="1.83542">
        <ele>272.2</ele>
        <time>2021-09-26T07:54:58Z</time>
      </trkpt>
      <trkpt lat="43.93022" lon="1.8354">
        <ele>272.2</ele>
        <time>2021-09-26T07:54:59Z</time>
      </trkpt>
      <trkpt lat="43.93024" lon="1.83537">
        <ele>272.2</ele>
        <time>2021-09-26T07:55:00Z</time>
      </trkpt>
      <trkpt lat="43.93025" lon="1.83534">
        <ele>272.2</ele>
        <time>2021-09-26T07:55:01Z</time>
      </trkpt>
      <trkpt lat="43.93033" lon="1.83518">
        <ele>271.4</ele>
        <time>2021-09-26T07:55:06Z</time>
      </trkpt>
      <trkpt lat="43.93034" lon="1.83518">
        <ele>271</ele>
        <time>2021-09-26T07:55:07Z</time>
      </trkpt>
      <trkpt lat="43.93036" lon="1.83518">
        <ele>270.8</ele>
        <time>2021-09-26T07:55:08Z</time>
      </trkpt>
      <trkpt lat="43.93038" lon="1.83518">
        <ele>270.4</ele>
        <time>2021-09-26T07:55:09Z</time>
      </trkpt>
      <trkpt lat="43.93039" lon="1.83518">
        <ele>270.2</ele>
        <time>2021-09-26T07:55:10Z</time>
      </trkpt>
      <trkpt lat="43.93041" lon="1.83517">
        <ele>270.2</ele>
        <time>2021-09-26T07:55:11Z</time>
      </trkpt>
      <trkpt lat="43.93048" lon="1.83513">
        <ele>269</ele>
        <time>2021-09-26T07:55:14Z</time>
      </trkpt>
      <trkpt lat="43.9305" lon="1.83513">
        <ele>268.8</ele>
        <time>2021-09-26T07:55:15Z</time>
      </trkpt>
      <trkpt lat="43.93052" lon="1.83514">
        <ele>268.4</ele>
        <time>2021-09-26T07:55:16Z</time>
      </trkpt>
      <trkpt lat="43.93054" lon="1.83513">
        <ele>268.2</ele>
        <time>2021-09-26T07:55:17Z</time>
      </trkpt>
      <trkpt lat="43.93056" lon="1.83511">
        <ele>267.8</ele>
        <time>2021-09-26T07:55:18Z</time>
      </trkpt>
      <trkpt lat="43.93065" lon="1.83506">
        <ele>266.6</ele>
        <time>2021-09-26T07:55:21Z</time>
      </trkpt>
      <trkpt lat="43.9307" lon="1.83504">
        <ele>265.6</ele>
        <time>2021-09-26T07:55:23Z</time>
      </trkpt>
      <trkpt lat="43.93072" lon="1.83503">
        <ele>265.4</ele>
        <time>2021-09-26T07:55:24Z</time>
      </trkpt>
      <trkpt lat="43.93075" lon="1.83502">
        <ele>265</ele>
        <time>2021-09-26T07:55:25Z</time>
      </trkpt>
      <trkpt lat="43.93082" lon="1.83502">
        <ele>264.2</ele>
        <time>2021-09-26T07:55:28Z</time>
      </trkpt>
      <trkpt lat="43.93084" lon="1.83502">
        <ele>264.2</ele>
        <time>2021-09-26T07:55:29Z</time>
      </trkpt>
      <trkpt lat="43.93087" lon="1.83503">
        <ele>263.8</ele>
        <time>2021-09-26T07:55:30Z</time>
      </trkpt>
      <trkpt lat="43.93089" lon="1.83505">
        <ele>263.6</ele>
        <time>2021-09-26T07:55:31Z</time>
      </trkpt>
      <trkpt lat="43.93091" lon="1.83506">
        <ele>263.4</ele>
        <time>2021-09-26T07:55:32Z</time>
      </trkpt>
      <trkpt lat="43.93093" lon="1.83507">
        <ele>263.4</ele>
        <time>2021-09-26T07:55:33Z</time>
      </trkpt>
      <trkpt lat="43.93095" lon="1.83507">
        <ele>263.4</ele>
        <time>2021-09-26T07:55:34Z</time>
      </trkpt>
      <trkpt lat="43.93097" lon="1.83508">
        <ele>263.4</ele>
        <time>2021-09-26T07:55:35Z</time>
      </trkpt>
      <trkpt lat="43.93099" lon="1.83508">
        <ele>263.4</ele>
        <time>2021-09-26T07:55:36Z</time>
      </trkpt>
      <trkpt lat="43.93101" lon="1.83508">
        <ele>263.4</ele>
        <time>2021-09-26T07:55:37Z</time>
      </trkpt>
      <trkpt lat="43.93104" lon="1.83507">
        <ele>263.4</ele>
        <time>2021-09-26T07:55:38Z</time>
      </trkpt>
      <trkpt lat="43.93111" lon="1.83505">
        <ele>263.6</ele>
        <time>2021-09-26T07:55:41Z</time>
      </trkpt>
      <trkpt lat="43.93114" lon="1.83503">
        <ele>263.6</ele>
        <time>2021-09-26T07:55:42Z</time>
      </trkpt>
      <trkpt lat="43.93121" lon="1.83501">
        <ele>263.6</ele>
        <time>2021-09-26T07:55:44Z</time>
      </trkpt>
      <trkpt lat="43.93139" lon="1.83493">
        <ele>263.4</ele>
        <time>2021-09-26T07:55:50Z</time>
      </trkpt>
      <trkpt lat="43.93148" lon="1.83488">
        <ele>263.2</ele>
        <time>2021-09-26T07:55:53Z</time>
      </trkpt>
      <trkpt lat="43.93155" lon="1.83485">
        <ele>263.2</ele>
        <time>2021-09-26T07:55:56Z</time>
      </trkpt>
      <trkpt lat="43.93158" lon="1.83484">
        <ele>263</ele>
        <time>2021-09-26T07:55:57Z</time>
      </trkpt>
      <trkpt lat="43.93162" lon="1.8348">
        <ele>262.8</ele>
        <time>2021-09-26T07:55:59Z</time>
      </trkpt>
      <trkpt lat="43.93165" lon="1.8348">
        <ele>262.8</ele>
        <time>2021-09-26T07:56:00Z</time>
      </trkpt>
      <trkpt lat="43.93171" lon="1.83475">
        <ele>262.6</ele>
        <time>2021-09-26T07:56:02Z</time>
      </trkpt>
      <trkpt lat="43.93174" lon="1.83473">
        <ele>262.4</ele>
        <time>2021-09-26T07:56:03Z</time>
      </trkpt>
      <trkpt lat="43.93177" lon="1.83471">
        <ele>262.4</ele>
        <time>2021-09-26T07:56:04Z</time>
      </trkpt>
      <trkpt lat="43.93187" lon="1.83465">
        <ele>262.4</ele>
        <time>2021-09-26T07:56:08Z</time>
      </trkpt>
      <trkpt lat="43.93189" lon="1.83465">
        <ele>262.4</ele>
        <time>2021-09-26T07:56:09Z</time>
      </trkpt>
      <trkpt lat="43.93191" lon="1.83464">
        <ele>262.4</ele>
        <time>2021-09-26T07:56:10Z</time>
      </trkpt>
      <trkpt lat="43.93194" lon="1.83461">
        <ele>262.4</ele>
        <time>2021-09-26T07:56:11Z</time>
      </trkpt>
      <trkpt lat="43.93195" lon="1.8346">
        <ele>262.4</ele>
        <time>2021-09-26T07:56:12Z</time>
      </trkpt>
      <trkpt lat="43.93197" lon="1.83459">
        <ele>262.4</ele>
        <time>2021-09-26T07:56:13Z</time>
      </trkpt>
      <trkpt lat="43.93199" lon="1.83458">
        <ele>262.4</ele>
        <time>2021-09-26T07:56:14Z</time>
      </trkpt>
      <trkpt lat="43.93201" lon="1.83456">
        <ele>262.4</ele>
        <time>2021-09-26T07:56:15Z</time>
      </trkpt>
      <trkpt lat="43.93204" lon="1.83454">
        <ele>262.4</ele>
        <time>2021-09-26T07:56:16Z</time>
      </trkpt>
      <trkpt lat="43.93206" lon="1.83452">
        <ele>262.4</ele>
        <time>2021-09-26T07:56:17Z</time>
      </trkpt>
      <trkpt lat="43.93209" lon="1.83451">
        <ele>262.4</ele>
        <time>2021-09-26T07:56:18Z</time>
      </trkpt>
      <trkpt lat="43.93211" lon="1.83451">
        <ele>262.4</ele>
        <time>2021-09-26T07:56:19Z</time>
      </trkpt>
      <trkpt lat="43.93213" lon="1.83449">
        <ele>262.2</ele>
        <time>2021-09-26T07:56:20Z</time>
      </trkpt>
      <trkpt lat="43.93216" lon="1.83447">
        <ele>262.2</ele>
        <time>2021-09-26T07:56:21Z</time>
      </trkpt>
      <trkpt lat="43.93219" lon="1.83446">
        <ele>262.2</ele>
        <time>2021-09-26T07:56:23Z</time>
      </trkpt>
      <trkpt lat="43.93224" lon="1.8344">
        <ele>262.2</ele>
        <time>2021-09-26T07:56:24Z</time>
      </trkpt>
      <trkpt lat="43.93232" lon="1.83431">
        <ele>262.2</ele>
        <time>2021-09-26T07:56:27Z</time>
      </trkpt>
      <trkpt lat="43.93235" lon="1.83428">
        <ele>262</ele>
        <time>2021-09-26T07:56:28Z</time>
      </trkpt>
      <trkpt lat="43.93238" lon="1.83426">
        <ele>262</ele>
        <time>2021-09-26T07:56:29Z</time>
      </trkpt>
      <trkpt lat="43.93243" lon="1.83422">
        <ele>262</ele>
        <time>2021-09-26T07:56:31Z</time>
      </trkpt>
      <trkpt lat="43.93244" lon="1.83419">
        <ele>262.2</ele>
        <time>2021-09-26T07:56:32Z</time>
      </trkpt>
      <trkpt lat="43.93246" lon="1.83414">
        <ele>262</ele>
        <time>2021-09-26T07:56:33Z</time>
      </trkpt>
      <trkpt lat="43.93248" lon="1.83411">
        <ele>262</ele>
        <time>2021-09-26T07:56:34Z</time>
      </trkpt>
      <trkpt lat="43.9325" lon="1.83408">
        <ele>262</ele>
        <time>2021-09-26T07:56:35Z</time>
      </trkpt>
      <trkpt lat="43.93252" lon="1.83407">
        <ele>262</ele>
        <time>2021-09-26T07:56:36Z</time>
      </trkpt>
      <trkpt lat="43.93253" lon="1.83405">
        <ele>262</ele>
        <time>2021-09-26T07:56:37Z</time>
      </trkpt>
      <trkpt lat="43.93256" lon="1.83403">
        <ele>262</ele>
        <time>2021-09-26T07:56:38Z</time>
      </trkpt>
      <trkpt lat="43.93258" lon="1.83401">
        <ele>262</ele>
        <time>2021-09-26T07:56:39Z</time>
      </trkpt>
      <trkpt lat="43.93259" lon="1.83399">
        <ele>262.2</ele>
        <time>2021-09-26T07:56:40Z</time>
      </trkpt>
      <trkpt lat="43.9326" lon="1.83397">
        <ele>262.2</ele>
        <time>2021-09-26T07:56:41Z</time>
      </trkpt>
      <trkpt lat="43.93262" lon="1.83394">
        <ele>262.2</ele>
        <time>2021-09-26T07:56:42Z</time>
      </trkpt>
      <trkpt lat="43.93262" lon="1.83391">
        <ele>262.2</ele>
        <time>2021-09-26T07:56:43Z</time>
      </trkpt>
      <trkpt lat="43.93263" lon="1.83389">
        <ele>262.2</ele>
        <time>2021-09-26T07:56:44Z</time>
      </trkpt>
      <trkpt lat="43.93264" lon="1.83386">
        <ele>262.2</ele>
        <time>2021-09-26T07:56:45Z</time>
      </trkpt>
      <trkpt lat="43.93274" lon="1.83366">
        <ele>261.8</ele>
        <time>2021-09-26T07:56:49Z</time>
      </trkpt>
      <trkpt lat="43.93279" lon="1.83361">
        <ele>261.8</ele>
        <time>2021-09-26T07:56:50Z</time>
      </trkpt>
      <trkpt lat="43.93284" lon="1.83356">
        <ele>261.4</ele>
        <time>2021-09-26T07:56:51Z</time>
      </trkpt>
      <trkpt lat="43.93288" lon="1.83351">
        <ele>260.8</ele>
        <time>2021-09-26T07:56:52Z</time>
      </trkpt>
      <trkpt lat="43.93291" lon="1.83346">
        <ele>259.8</ele>
        <time>2021-09-26T07:56:53Z</time>
      </trkpt>
      <trkpt lat="43.93293" lon="1.83343">
        <ele>259.4</ele>
        <time>2021-09-26T07:56:54Z</time>
      </trkpt>
      <trkpt lat="43.93295" lon="1.83339">
        <ele>258.6</ele>
        <time>2021-09-26T07:56:55Z</time>
      </trkpt>
      <trkpt lat="43.93299" lon="1.83335">
        <ele>258</ele>
        <time>2021-09-26T07:56:56Z</time>
      </trkpt>
      <trkpt lat="43.93308" lon="1.83327">
        <ele>257.2</ele>
        <time>2021-09-26T07:56:58Z</time>
      </trkpt>
      <trkpt lat="43.93312" lon="1.83323">
        <ele>256.8</ele>
        <time>2021-09-26T07:56:59Z</time>
      </trkpt>
      <trkpt lat="43.93316" lon="1.83319">
        <ele>256.2</ele>
        <time>2021-09-26T07:57:00Z</time>
      </trkpt>
      <trkpt lat="43.93326" lon="1.83309">
        <ele>255.6</ele>
        <time>2021-09-26T07:57:02Z</time>
      </trkpt>
      <trkpt lat="43.9333" lon="1.83303">
        <ele>254.8</ele>
        <time>2021-09-26T07:57:03Z</time>
      </trkpt>
      <trkpt lat="43.93334" lon="1.83297">
        <ele>254.2</ele>
        <time>2021-09-26T07:57:04Z</time>
      </trkpt>
      <trkpt lat="43.93339" lon="1.83289">
        <ele>253.6</ele>
        <time>2021-09-26T07:57:05Z</time>
      </trkpt>
      <trkpt lat="43.93342" lon="1.83285">
        <ele>253.2</ele>
        <time>2021-09-26T07:57:06Z</time>
      </trkpt>
      <trkpt lat="43.93345" lon="1.83282">
        <ele>252</ele>
        <time>2021-09-26T07:57:07Z</time>
      </trkpt>
      <trkpt lat="43.93348" lon="1.8328">
        <ele>251.8</ele>
        <time>2021-09-26T07:57:08Z</time>
      </trkpt>
      <trkpt lat="43.93351" lon="1.83281">
        <ele>251</ele>
        <time>2021-09-26T07:57:09Z</time>
      </trkpt>
      <trkpt lat="43.93353" lon="1.83284">
        <ele>250.8</ele>
        <time>2021-09-26T07:57:10Z</time>
      </trkpt>
      <trkpt lat="43.93355" lon="1.83286">
        <ele>249.8</ele>
        <time>2021-09-26T07:57:11Z</time>
      </trkpt>
      <trkpt lat="43.93357" lon="1.83287">
        <ele>248.8</ele>
        <time>2021-09-26T07:57:12Z</time>
      </trkpt>
      <trkpt lat="43.93359" lon="1.83288">
        <ele>248.4</ele>
        <time>2021-09-26T07:57:13Z</time>
      </trkpt>
      <trkpt lat="43.93359" lon="1.83288">
        <ele>247.4</ele>
        <time>2021-09-26T07:57:14Z</time>
      </trkpt>
      <trkpt lat="43.93359" lon="1.83288">
        <ele>246.8</ele>
        <time>2021-09-26T07:57:15Z</time>
      </trkpt>
      <trkpt lat="43.93359" lon="1.83288">
        <ele>246.2</ele>
        <time>2021-09-26T07:57:16Z</time>
      </trkpt>
      <trkpt lat="43.93359" lon="1.83288">
        <ele>245.8</ele>
        <time>2021-09-26T07:57:17Z</time>
      </trkpt>
      <trkpt lat="43.93359" lon="1.83288">
        <ele>245.4</ele>
        <time>2021-09-26T07:57:18Z</time>
      </trkpt>
      <trkpt lat="43.93388" lon="1.83305">
        <ele>241</ele>
        <time>2021-09-26T07:57:33Z</time>
      </trkpt>
      <trkpt lat="43.93395" lon="1.83306">
        <ele>239.6</ele>
        <time>2021-09-26T07:57:35Z</time>
      </trkpt>
      <trkpt lat="43.93399" lon="1.83308">
        <ele>239</ele>
        <time>2021-09-26T07:57:37Z</time>
      </trkpt>
      <trkpt lat="43.93402" lon="1.83307">
        <ele>238.6</ele>
        <time>2021-09-26T07:57:38Z</time>
      </trkpt>
      <trkpt lat="43.93405" lon="1.83304">
        <ele>238</ele>
        <time>2021-09-26T07:57:39Z</time>
      </trkpt>
      <trkpt lat="43.93413" lon="1.83298">
        <ele>237.4</ele>
        <time>2021-09-26T07:57:41Z</time>
      </trkpt>
      <trkpt lat="43.93416" lon="1.83297">
        <ele>236.6</ele>
        <time>2021-09-26T07:57:42Z</time>
      </trkpt>
      <trkpt lat="43.93419" lon="1.83296">
        <ele>236.4</ele>
        <time>2021-09-26T07:57:43Z</time>
      </trkpt>
      <trkpt lat="43.93422" lon="1.83295">
        <ele>235.8</ele>
        <time>2021-09-26T07:57:44Z</time>
      </trkpt>
      <trkpt lat="43.93424" lon="1.83294">
        <ele>235.4</ele>
        <time>2021-09-26T07:57:45Z</time>
      </trkpt>
      <trkpt lat="43.93428" lon="1.83293">
        <ele>235</ele>
        <time>2021-09-26T07:57:46Z</time>
      </trkpt>
      <trkpt lat="43.93441" lon="1.83288">
        <ele>234.2</ele>
        <time>2021-09-26T07:57:50Z</time>
      </trkpt>
      <trkpt lat="43.93444" lon="1.83284">
        <ele>234</ele>
        <time>2021-09-26T07:57:51Z</time>
      </trkpt>
      <trkpt lat="43.93449" lon="1.83276">
        <ele>233.6</ele>
        <time>2021-09-26T07:57:53Z</time>
      </trkpt>
      <trkpt lat="43.93452" lon="1.83273">
        <ele>233.4</ele>
        <time>2021-09-26T07:57:54Z</time>
      </trkpt>
      <trkpt lat="43.93456" lon="1.83271">
        <ele>233</ele>
        <time>2021-09-26T07:57:56Z</time>
      </trkpt>
      <trkpt lat="43.93459" lon="1.8327">
        <ele>233</ele>
        <time>2021-09-26T07:57:57Z</time>
      </trkpt>
      <trkpt lat="43.93461" lon="1.8327">
        <ele>233</ele>
        <time>2021-09-26T07:57:58Z</time>
      </trkpt>
      <trkpt lat="43.93462" lon="1.83271">
        <ele>233</ele>
        <time>2021-09-26T07:57:59Z</time>
      </trkpt>
      <trkpt lat="43.93464" lon="1.83272">
        <ele>232.8</ele>
        <time>2021-09-26T07:58:00Z</time>
      </trkpt>
      <trkpt lat="43.93465" lon="1.83273">
        <ele>232.8</ele>
        <time>2021-09-26T07:58:01Z</time>
      </trkpt>
      <trkpt lat="43.93467" lon="1.83273">
        <ele>232.8</ele>
        <time>2021-09-26T07:58:02Z</time>
      </trkpt>
      <trkpt lat="43.93468" lon="1.83272">
        <ele>232.6</ele>
        <time>2021-09-26T07:58:03Z</time>
      </trkpt>
      <trkpt lat="43.93468" lon="1.8327">
        <ele>232.6</ele>
        <time>2021-09-26T07:58:04Z</time>
      </trkpt>
      <trkpt lat="43.93467" lon="1.83268">
        <ele>232.4</ele>
        <time>2021-09-26T07:58:06Z</time>
      </trkpt>
      <trkpt lat="43.93465" lon="1.83268">
        <ele>232.4</ele>
        <time>2021-09-26T07:58:07Z</time>
      </trkpt>
      <trkpt lat="43.93463" lon="1.83268">
        <ele>232.4</ele>
        <time>2021-09-26T07:58:08Z</time>
      </trkpt>
      <trkpt lat="43.93461" lon="1.83269">
        <ele>232.4</ele>
        <time>2021-09-26T07:58:09Z</time>
      </trkpt>
      <trkpt lat="43.93459" lon="1.83269">
        <ele>232.4</ele>
        <time>2021-09-26T07:58:10Z</time>
      </trkpt>
      <trkpt lat="43.93458" lon="1.8327">
        <ele>232.4</ele>
        <time>2021-09-26T07:58:11Z</time>
      </trkpt>
      <trkpt lat="43.93456" lon="1.83271">
        <ele>232.4</ele>
        <time>2021-09-26T07:58:12Z</time>
      </trkpt>
      <trkpt lat="43.93453" lon="1.83273">
        <ele>232.2</ele>
        <time>2021-09-26T07:58:14Z</time>
      </trkpt>
      <trkpt lat="43.93449" lon="1.8328">
        <ele>232.2</ele>
        <time>2021-09-26T07:58:18Z</time>
      </trkpt>
      <trkpt lat="43.93449" lon="1.83283">
        <ele>232.2</ele>
        <time>2021-09-26T07:58:19Z</time>
      </trkpt>
      <trkpt lat="43.93449" lon="1.83286">
        <ele>232.2</ele>
        <time>2021-09-26T07:58:20Z</time>
      </trkpt>
      <trkpt lat="43.93449" lon="1.8329">
        <ele>232.2</ele>
        <time>2021-09-26T07:58:21Z</time>
      </trkpt>
      <trkpt lat="43.9345" lon="1.83293">
        <ele>232.2</ele>
        <time>2021-09-26T07:58:22Z</time>
      </trkpt>
      <trkpt lat="43.93451" lon="1.83295">
        <ele>232.4</ele>
        <time>2021-09-26T07:58:23Z</time>
      </trkpt>
      <trkpt lat="43.93452" lon="1.83299">
        <ele>232.4</ele>
        <time>2021-09-26T07:58:24Z</time>
      </trkpt>
      <trkpt lat="43.93454" lon="1.83301">
        <ele>232.4</ele>
        <time>2021-09-26T07:58:25Z</time>
      </trkpt>
      <trkpt lat="43.93456" lon="1.83302">
        <ele>232.4</ele>
        <time>2021-09-26T07:58:26Z</time>
      </trkpt>
      <trkpt lat="43.93459" lon="1.83304">
        <ele>232.4</ele>
        <time>2021-09-26T07:58:27Z</time>
      </trkpt>
      <trkpt lat="43.93462" lon="1.83304">
        <ele>232.4</ele>
        <time>2021-09-26T07:58:28Z</time>
      </trkpt>
      <trkpt lat="43.93466" lon="1.83305">
        <ele>232.2</ele>
        <time>2021-09-26T07:58:29Z</time>
      </trkpt>
      <trkpt lat="43.9347" lon="1.83305">
        <ele>232.2</ele>
        <time>2021-09-26T07:58:30Z</time>
      </trkpt>
      <trkpt lat="43.93486" lon="1.83301">
        <ele>231.6</ele>
        <time>2021-09-26T07:58:34Z</time>
      </trkpt>
      <trkpt lat="43.9349" lon="1.833">
        <ele>231.4</ele>
        <time>2021-09-26T07:58:35Z</time>
      </trkpt>
      <trkpt lat="43.93497" lon="1.83299">
        <ele>230.8</ele>
        <time>2021-09-26T07:58:37Z</time>
      </trkpt>
      <trkpt lat="43.93503" lon="1.83298">
        <ele>230.4</ele>
        <time>2021-09-26T07:58:38Z</time>
      </trkpt>
      <trkpt lat="43.93516" lon="1.83296">
        <ele>229.6</ele>
        <time>2021-09-26T07:58:41Z</time>
      </trkpt>
      <trkpt lat="43.93521" lon="1.83295">
        <ele>229.2</ele>
        <time>2021-09-26T07:58:42Z</time>
      </trkpt>
      <trkpt lat="43.93526" lon="1.83293">
        <ele>229</ele>
        <time>2021-09-26T07:58:43Z</time>
      </trkpt>
      <trkpt lat="43.93537" lon="1.8329">
        <ele>228.2</ele>
        <time>2021-09-26T07:58:45Z</time>
      </trkpt>
      <trkpt lat="43.93553" lon="1.83287">
        <ele>226.8</ele>
        <time>2021-09-26T07:58:48Z</time>
      </trkpt>
      <trkpt lat="43.93566" lon="1.83284">
        <ele>225.6</ele>
        <time>2021-09-26T07:58:50Z</time>
      </trkpt>
      <trkpt lat="43.93586" lon="1.83278">
        <ele>224.4</ele>
        <time>2021-09-26T07:58:53Z</time>
      </trkpt>
      <trkpt lat="43.93608" lon="1.83272">
        <ele>223.4</ele>
        <time>2021-09-26T07:58:56Z</time>
      </trkpt>
      <trkpt lat="43.93615" lon="1.8327">
        <ele>223.2</ele>
        <time>2021-09-26T07:58:57Z</time>
      </trkpt>
      <trkpt lat="43.93622" lon="1.83268">
        <ele>222.4</ele>
        <time>2021-09-26T07:58:58Z</time>
      </trkpt>
      <trkpt lat="43.93629" lon="1.83266">
        <ele>222.2</ele>
        <time>2021-09-26T07:58:59Z</time>
      </trkpt>
      <trkpt lat="43.93635" lon="1.83265">
        <ele>221.2</ele>
        <time>2021-09-26T07:59:00Z</time>
      </trkpt>
      <trkpt lat="43.93641" lon="1.83263">
        <ele>221</ele>
        <time>2021-09-26T07:59:01Z</time>
      </trkpt>
      <trkpt lat="43.93646" lon="1.83261">
        <ele>220.6</ele>
        <time>2021-09-26T07:59:02Z</time>
      </trkpt>
      <trkpt lat="43.93651" lon="1.83259">
        <ele>220.4</ele>
        <time>2021-09-26T07:59:03Z</time>
      </trkpt>
      <trkpt lat="43.93656" lon="1.83258">
        <ele>220.2</ele>
        <time>2021-09-26T07:59:04Z</time>
      </trkpt>
      <trkpt lat="43.9366" lon="1.83257">
        <ele>220.2</ele>
        <time>2021-09-26T07:59:05Z</time>
      </trkpt>
      <trkpt lat="43.93663" lon="1.83255">
        <ele>220</ele>
        <time>2021-09-26T07:59:06Z</time>
      </trkpt>
      <trkpt lat="43.93666" lon="1.83254">
        <ele>220</ele>
        <time>2021-09-26T07:59:07Z</time>
      </trkpt>
      <trkpt lat="43.93669" lon="1.83253">
        <ele>220</ele>
        <time>2021-09-26T07:59:08Z</time>
      </trkpt>
      <trkpt lat="43.93672" lon="1.83252">
        <ele>220</ele>
        <time>2021-09-26T07:59:09Z</time>
      </trkpt>
      <trkpt lat="43.93675" lon="1.83251">
        <ele>220</ele>
        <time>2021-09-26T07:59:10Z</time>
      </trkpt>
      <trkpt lat="43.93677" lon="1.8325">
        <ele>220.2</ele>
        <time>2021-09-26T07:59:11Z</time>
      </trkpt>
      <trkpt lat="43.93679" lon="1.83249">
        <ele>220.4</ele>
        <time>2021-09-26T07:59:12Z</time>
      </trkpt>
      <trkpt lat="43.93681" lon="1.83248">
        <ele>220.4</ele>
        <time>2021-09-26T07:59:13Z</time>
      </trkpt>
      <trkpt lat="43.93683" lon="1.83248">
        <ele>220.6</ele>
        <time>2021-09-26T07:59:14Z</time>
      </trkpt>
      <trkpt lat="43.93685" lon="1.83247">
        <ele>220.6</ele>
        <time>2021-09-26T07:59:15Z</time>
      </trkpt>
      <trkpt lat="43.93687" lon="1.83246">
        <ele>221</ele>
        <time>2021-09-26T07:59:16Z</time>
      </trkpt>
      <trkpt lat="43.93691" lon="1.83245">
        <ele>221.4</ele>
        <time>2021-09-26T07:59:18Z</time>
      </trkpt>
      <trkpt lat="43.93693" lon="1.83244">
        <ele>221.6</ele>
        <time>2021-09-26T07:59:19Z</time>
      </trkpt>
      <trkpt lat="43.93695" lon="1.83243">
        <ele>221.8</ele>
        <time>2021-09-26T07:59:20Z</time>
      </trkpt>
      <trkpt lat="43.93697" lon="1.83243">
        <ele>222</ele>
        <time>2021-09-26T07:59:21Z</time>
      </trkpt>
      <trkpt lat="43.93699" lon="1.83242">
        <ele>222</ele>
        <time>2021-09-26T07:59:22Z</time>
      </trkpt>
      <trkpt lat="43.93701" lon="1.83242">
        <ele>222</ele>
        <time>2021-09-26T07:59:23Z</time>
      </trkpt>
      <trkpt lat="43.93707" lon="1.8324">
        <ele>222.4</ele>
        <time>2021-09-26T07:59:26Z</time>
      </trkpt>
      <trkpt lat="43.93708" lon="1.8324">
        <ele>222.6</ele>
        <time>2021-09-26T07:59:27Z</time>
      </trkpt>
      <trkpt lat="43.9371" lon="1.83239">
        <ele>222.6</ele>
        <time>2021-09-26T07:59:28Z</time>
      </trkpt>
      <trkpt lat="43.93712" lon="1.83238">
        <ele>222.8</ele>
        <time>2021-09-26T07:59:29Z</time>
      </trkpt>
      <trkpt lat="43.93714" lon="1.83237">
        <ele>222.8</ele>
        <time>2021-09-26T07:59:30Z</time>
      </trkpt>
      <trkpt lat="43.93716" lon="1.83236">
        <ele>223</ele>
        <time>2021-09-26T07:59:31Z</time>
      </trkpt>
      <trkpt lat="43.93722" lon="1.83234">
        <ele>223.6</ele>
        <time>2021-09-26T07:59:34Z</time>
      </trkpt>
      <trkpt lat="43.93732" lon="1.83231">
        <ele>224.6</ele>
        <time>2021-09-26T07:59:39Z</time>
      </trkpt>
      <trkpt lat="43.93734" lon="1.8323">
        <ele>224.8</ele>
        <time>2021-09-26T07:59:40Z</time>
      </trkpt>
      <trkpt lat="43.93737" lon="1.83229">
        <ele>225</ele>
        <time>2021-09-26T07:59:41Z</time>
      </trkpt>
      <trkpt lat="43.93739" lon="1.83229">
        <ele>225.4</ele>
        <time>2021-09-26T07:59:42Z</time>
      </trkpt>
      <trkpt lat="43.93741" lon="1.83228">
        <ele>225.4</ele>
        <time>2021-09-26T07:59:43Z</time>
      </trkpt>
      <trkpt lat="43.93743" lon="1.83226">
        <ele>225.6</ele>
        <time>2021-09-26T07:59:44Z</time>
      </trkpt>
      <trkpt lat="43.93745" lon="1.83225">
        <ele>225.6</ele>
        <time>2021-09-26T07:59:45Z</time>
      </trkpt>
      <trkpt lat="43.93748" lon="1.83224">
        <ele>225.8</ele>
        <time>2021-09-26T07:59:46Z</time>
      </trkpt>
      <trkpt lat="43.93749" lon="1.83223">
        <ele>225.8</ele>
        <time>2021-09-26T07:59:47Z</time>
      </trkpt>
      <trkpt lat="43.93751" lon="1.83222">
        <ele>226</ele>
        <time>2021-09-26T07:59:48Z</time>
      </trkpt>
      <trkpt lat="43.93753" lon="1.83221">
        <ele>226</ele>
        <time>2021-09-26T07:59:49Z</time>
      </trkpt>
      <trkpt lat="43.93755" lon="1.8322">
        <ele>226.2</ele>
        <time>2021-09-26T07:59:50Z</time>
      </trkpt>
      <trkpt lat="43.93758" lon="1.8322">
        <ele>226.2</ele>
        <time>2021-09-26T07:59:51Z</time>
      </trkpt>
      <trkpt lat="43.9376" lon="1.83219">
        <ele>226.4</ele>
        <time>2021-09-26T07:59:52Z</time>
      </trkpt>
      <trkpt lat="43.93762" lon="1.83218">
        <ele>226.6</ele>
        <time>2021-09-26T07:59:53Z</time>
      </trkpt>
      <trkpt lat="43.93764" lon="1.83218">
        <ele>226.8</ele>
        <time>2021-09-26T07:59:54Z</time>
      </trkpt>
      <trkpt lat="43.93767" lon="1.83217">
        <ele>227</ele>
        <time>2021-09-26T07:59:55Z</time>
      </trkpt>
      <trkpt lat="43.93769" lon="1.83217">
        <ele>227.2</ele>
        <time>2021-09-26T07:59:56Z</time>
      </trkpt>
      <trkpt lat="43.93771" lon="1.83216">
        <ele>227.4</ele>
        <time>2021-09-26T07:59:57Z</time>
      </trkpt>
      <trkpt lat="43.93774" lon="1.83216">
        <ele>227.6</ele>
        <time>2021-09-26T07:59:58Z</time>
      </trkpt>
      <trkpt lat="43.93776" lon="1.83215">
        <ele>227.8</ele>
        <time>2021-09-26T07:59:59Z</time>
      </trkpt>
      <trkpt lat="43.93778" lon="1.83215">
        <ele>227.8</ele>
        <time>2021-09-26T08:00:00Z</time>
      </trkpt>
      <trkpt lat="43.9378" lon="1.83214">
        <ele>228</ele>
        <time>2021-09-26T08:00:01Z</time>
      </trkpt>
      <trkpt lat="43.93782" lon="1.83213">
        <ele>228.4</ele>
        <time>2021-09-26T08:00:02Z</time>
      </trkpt>
      <trkpt lat="43.93785" lon="1.83212">
        <ele>228.6</ele>
        <time>2021-09-26T08:00:03Z</time>
      </trkpt>
      <trkpt lat="43.93787" lon="1.83212">
        <ele>228.8</ele>
        <time>2021-09-26T08:00:04Z</time>
      </trkpt>
      <trkpt lat="43.93789" lon="1.83211">
        <ele>229</ele>
        <time>2021-09-26T08:00:05Z</time>
      </trkpt>
      <trkpt lat="43.93791" lon="1.8321">
        <ele>229.2</ele>
        <time>2021-09-26T08:00:06Z</time>
      </trkpt>
      <trkpt lat="43.93793" lon="1.83209">
        <ele>229.2</ele>
        <time>2021-09-26T08:00:07Z</time>
      </trkpt>
      <trkpt lat="43.93795" lon="1.83209">
        <ele>229.4</ele>
        <time>2021-09-26T08:00:08Z</time>
      </trkpt>
      <trkpt lat="43.93797" lon="1.83208">
        <ele>229.4</ele>
        <time>2021-09-26T08:00:09Z</time>
      </trkpt>
      <trkpt lat="43.938" lon="1.83207">
        <ele>229.4</ele>
        <time>2021-09-26T08:00:10Z</time>
      </trkpt>
      <trkpt lat="43.93802" lon="1.83206">
        <ele>229.4</ele>
        <time>2021-09-26T08:00:11Z</time>
      </trkpt>
      <trkpt lat="43.93804" lon="1.83206">
        <ele>229.6</ele>
        <time>2021-09-26T08:00:12Z</time>
      </trkpt>
      <trkpt lat="43.93806" lon="1.83206">
        <ele>229.8</ele>
        <time>2021-09-26T08:00:13Z</time>
      </trkpt>
      <trkpt lat="43.93808" lon="1.83205">
        <ele>229.8</ele>
        <time>2021-09-26T08:00:14Z</time>
      </trkpt>
      <trkpt lat="43.9381" lon="1.83204">
        <ele>230</ele>
        <time>2021-09-26T08:00:15Z</time>
      </trkpt>
      <trkpt lat="43.93812" lon="1.83204">
        <ele>230.2</ele>
        <time>2021-09-26T08:00:16Z</time>
      </trkpt>
      <trkpt lat="43.93814" lon="1.83203">
        <ele>230.2</ele>
        <time>2021-09-26T08:00:17Z</time>
      </trkpt>
      <trkpt lat="43.93816" lon="1.83202">
        <ele>230.4</ele>
        <time>2021-09-26T08:00:18Z</time>
      </trkpt>
      <trkpt lat="43.93818" lon="1.83201">
        <ele>230.6</ele>
        <time>2021-09-26T08:00:19Z</time>
      </trkpt>
      <trkpt lat="43.9382" lon="1.832">
        <ele>230.6</ele>
        <time>2021-09-26T08:00:20Z</time>
      </trkpt>
      <trkpt lat="43.93822" lon="1.83199">
        <ele>230.8</ele>
        <time>2021-09-26T08:00:21Z</time>
      </trkpt>
      <trkpt lat="43.93824" lon="1.83198">
        <ele>230.8</ele>
        <time>2021-09-26T08:00:22Z</time>
      </trkpt>
      <trkpt lat="43.93826" lon="1.83196">
        <ele>230.8</ele>
        <time>2021-09-26T08:00:23Z</time>
      </trkpt>
      <trkpt lat="43.93829" lon="1.83195">
        <ele>231</ele>
        <time>2021-09-26T08:00:24Z</time>
      </trkpt>
      <trkpt lat="43.9383" lon="1.83194">
        <ele>231.2</ele>
        <time>2021-09-26T08:00:25Z</time>
      </trkpt>
      <trkpt lat="43.93832" lon="1.83192">
        <ele>231.4</ele>
        <time>2021-09-26T08:00:26Z</time>
      </trkpt>
      <trkpt lat="43.93834" lon="1.83191">
        <ele>231.4</ele>
        <time>2021-09-26T08:00:27Z</time>
      </trkpt>
      <trkpt lat="43.93836" lon="1.83189">
        <ele>231.6</ele>
        <time>2021-09-26T08:00:28Z</time>
      </trkpt>
      <trkpt lat="43.93838" lon="1.83188">
        <ele>231.6</ele>
        <time>2021-09-26T08:00:29Z</time>
      </trkpt>
      <trkpt lat="43.9384" lon="1.83186">
        <ele>231.8</ele>
        <time>2021-09-26T08:00:30Z</time>
      </trkpt>
      <trkpt lat="43.93843" lon="1.83185">
        <ele>231.8</ele>
        <time>2021-09-26T08:00:31Z</time>
      </trkpt>
      <trkpt lat="43.93845" lon="1.83183">
        <ele>232</ele>
        <time>2021-09-26T08:00:32Z</time>
      </trkpt>
      <trkpt lat="43.93847" lon="1.83182">
        <ele>232</ele>
        <time>2021-09-26T08:00:33Z</time>
      </trkpt>
      <trkpt lat="43.93849" lon="1.8318">
        <ele>232</ele>
        <time>2021-09-26T08:00:34Z</time>
      </trkpt>
      <trkpt lat="43.93851" lon="1.83179">
        <ele>232.2</ele>
        <time>2021-09-26T08:00:35Z</time>
      </trkpt>
      <trkpt lat="43.93853" lon="1.83177">
        <ele>232.2</ele>
        <time>2021-09-26T08:00:36Z</time>
      </trkpt>
      <trkpt lat="43.93855" lon="1.83175">
        <ele>232.4</ele>
        <time>2021-09-26T08:00:37Z</time>
      </trkpt>
      <trkpt lat="43.93857" lon="1.83174">
        <ele>232.4</ele>
        <time>2021-09-26T08:00:38Z</time>
      </trkpt>
      <trkpt lat="43.93858" lon="1.83172">
        <ele>232.6</ele>
        <time>2021-09-26T08:00:39Z</time>
      </trkpt>
      <trkpt lat="43.9386" lon="1.8317">
        <ele>232.6</ele>
        <time>2021-09-26T08:00:40Z</time>
      </trkpt>
      <trkpt lat="43.93862" lon="1.83169">
        <ele>232.8</ele>
        <time>2021-09-26T08:00:41Z</time>
      </trkpt>
      <trkpt lat="43.93864" lon="1.83167">
        <ele>232.8</ele>
        <time>2021-09-26T08:00:42Z</time>
      </trkpt>
      <trkpt lat="43.93866" lon="1.83165">
        <ele>232.8</ele>
        <time>2021-09-26T08:00:43Z</time>
      </trkpt>
      <trkpt lat="43.93868" lon="1.83164">
        <ele>233</ele>
        <time>2021-09-26T08:00:44Z</time>
      </trkpt>
      <trkpt lat="43.93869" lon="1.83162">
        <ele>233.2</ele>
        <time>2021-09-26T08:00:45Z</time>
      </trkpt>
      <trkpt lat="43.93871" lon="1.8316">
        <ele>233.4</ele>
        <time>2021-09-26T08:00:46Z</time>
      </trkpt>
      <trkpt lat="43.93873" lon="1.83159">
        <ele>233.4</ele>
        <time>2021-09-26T08:00:47Z</time>
      </trkpt>
      <trkpt lat="43.93875" lon="1.83157">
        <ele>233.6</ele>
        <time>2021-09-26T08:00:48Z</time>
      </trkpt>
      <trkpt lat="43.93877" lon="1.83156">
        <ele>233.6</ele>
        <time>2021-09-26T08:00:49Z</time>
      </trkpt>
      <trkpt lat="43.93879" lon="1.83154">
        <ele>233.8</ele>
        <time>2021-09-26T08:00:50Z</time>
      </trkpt>
      <trkpt lat="43.93881" lon="1.83153">
        <ele>234</ele>
        <time>2021-09-26T08:00:51Z</time>
      </trkpt>
      <trkpt lat="43.93882" lon="1.83151">
        <ele>234</ele>
        <time>2021-09-26T08:00:52Z</time>
      </trkpt>
      <trkpt lat="43.93884" lon="1.8315">
        <ele>234.2</ele>
        <time>2021-09-26T08:00:53Z</time>
      </trkpt>
      <trkpt lat="43.93884" lon="1.8315">
        <ele>234.4</ele>
        <time>2021-09-26T08:00:54Z</time>
      </trkpt>
      <trkpt lat="43.93888" lon="1.83146">
        <ele>234.4</ele>
        <time>2021-09-26T08:00:55Z</time>
      </trkpt>
      <trkpt lat="43.9389" lon="1.83145">
        <ele>234.6</ele>
        <time>2021-09-26T08:00:56Z</time>
      </trkpt>
      <trkpt lat="43.93892" lon="1.83143">
        <ele>234.6</ele>
        <time>2021-09-26T08:00:57Z</time>
      </trkpt>
      <trkpt lat="43.93894" lon="1.83141">
        <ele>234.8</ele>
        <time>2021-09-26T08:00:58Z</time>
      </trkpt>
      <trkpt lat="43.93896" lon="1.83139">
        <ele>234.8</ele>
        <time>2021-09-26T08:00:59Z</time>
      </trkpt>
      <trkpt lat="43.93898" lon="1.83137">
        <ele>234.8</ele>
        <time>2021-09-26T08:01:00Z</time>
      </trkpt>
      <trkpt lat="43.93899" lon="1.83135">
        <ele>234.8</ele>
        <time>2021-09-26T08:01:01Z</time>
      </trkpt>
      <trkpt lat="43.93901" lon="1.83133">
        <ele>235</ele>
        <time>2021-09-26T08:01:02Z</time>
      </trkpt>
      <trkpt lat="43.93903" lon="1.83131">
        <ele>235</ele>
        <time>2021-09-26T08:01:03Z</time>
      </trkpt>
      <trkpt lat="43.93905" lon="1.8313">
        <ele>235.2</ele>
        <time>2021-09-26T08:01:04Z</time>
      </trkpt>
      <trkpt lat="43.93907" lon="1.83128">
        <ele>235.2</ele>
        <time>2021-09-26T08:01:05Z</time>
      </trkpt>
      <trkpt lat="43.93909" lon="1.83127">
        <ele>235.4</ele>
        <time>2021-09-26T08:01:06Z</time>
      </trkpt>
      <trkpt lat="43.93911" lon="1.83125">
        <ele>235.4</ele>
        <time>2021-09-26T08:01:07Z</time>
      </trkpt>
      <trkpt lat="43.93913" lon="1.83124">
        <ele>235.6</ele>
        <time>2021-09-26T08:01:08Z</time>
      </trkpt>
      <trkpt lat="43.93915" lon="1.83122">
        <ele>235.6</ele>
        <time>2021-09-26T08:01:09Z</time>
      </trkpt>
      <trkpt lat="43.93918" lon="1.83121">
        <ele>235.8</ele>
        <time>2021-09-26T08:01:10Z</time>
      </trkpt>
      <trkpt lat="43.9392" lon="1.8312">
        <ele>235.8</ele>
        <time>2021-09-26T08:01:11Z</time>
      </trkpt>
      <trkpt lat="43.93922" lon="1.83118">
        <ele>236</ele>
        <time>2021-09-26T08:01:12Z</time>
      </trkpt>
      <trkpt lat="43.93925" lon="1.83118">
        <ele>236</ele>
        <time>2021-09-26T08:01:13Z</time>
      </trkpt>
      <trkpt lat="43.93927" lon="1.83117">
        <ele>236</ele>
        <time>2021-09-26T08:01:14Z</time>
      </trkpt>
      <trkpt lat="43.9393" lon="1.83117">
        <ele>236</ele>
        <time>2021-09-26T08:01:15Z</time>
      </trkpt>
      <trkpt lat="43.93934" lon="1.83116">
        <ele>236</ele>
        <time>2021-09-26T08:01:16Z</time>
      </trkpt>
      <trkpt lat="43.93937" lon="1.83116">
        <ele>236</ele>
        <time>2021-09-26T08:01:17Z</time>
      </trkpt>
      <trkpt lat="43.93942" lon="1.83117">
        <ele>236</ele>
        <time>2021-09-26T08:01:18Z</time>
      </trkpt>
      <trkpt lat="43.93946" lon="1.83118">
        <ele>236</ele>
        <time>2021-09-26T08:01:19Z</time>
      </trkpt>
      <trkpt lat="43.93948" lon="1.83118">
        <ele>236</ele>
        <time>2021-09-26T08:01:20Z</time>
      </trkpt>
      <trkpt lat="43.9395" lon="1.83119">
        <ele>236</ele>
        <time>2021-09-26T08:01:21Z</time>
      </trkpt>
      <trkpt lat="43.93952" lon="1.83119">
        <ele>236</ele>
        <time>2021-09-26T08:01:22Z</time>
      </trkpt>
      <trkpt lat="43.93953" lon="1.83119">
        <ele>235.8</ele>
        <time>2021-09-26T08:01:23Z</time>
      </trkpt>
      <trkpt lat="43.93953" lon="1.83119">
        <ele>235.8</ele>
        <time>2021-09-26T08:01:24Z</time>
      </trkpt>
      <trkpt lat="43.93953" lon="1.83119">
        <ele>235.6</ele>
        <time>2021-09-26T08:01:25Z</time>
      </trkpt>
      <trkpt lat="43.93959" lon="1.83122">
        <ele>234.8</ele>
        <time>2021-09-26T08:01:47Z</time>
      </trkpt>
      <trkpt lat="43.93962" lon="1.83123">
        <ele>234.8</ele>
        <time>2021-09-26T08:01:49Z</time>
      </trkpt>
      <trkpt lat="43.93964" lon="1.83125">
        <ele>234.8</ele>
        <time>2021-09-26T08:01:50Z</time>
      </trkpt>
      <trkpt lat="43.93978" lon="1.83133">
        <ele>234.8</ele>
        <time>2021-09-26T08:01:56Z</time>
      </trkpt>
      <trkpt lat="43.9398" lon="1.83134">
        <ele>234.8</ele>
        <time>2021-09-26T08:01:57Z</time>
      </trkpt>
      <trkpt lat="43.93988" lon="1.83136">
        <ele>234.8</ele>
        <time>2021-09-26T08:02:01Z</time>
      </trkpt>
      <trkpt lat="43.9399" lon="1.83134">
        <ele>234.8</ele>
        <time>2021-09-26T08:02:02Z</time>
      </trkpt>
      <trkpt lat="43.93991" lon="1.83132">
        <ele>234.8</ele>
        <time>2021-09-26T08:02:03Z</time>
      </trkpt>
      <trkpt lat="43.93993" lon="1.8313">
        <ele>234.8</ele>
        <time>2021-09-26T08:02:04Z</time>
      </trkpt>
      <trkpt lat="43.93994" lon="1.83128">
        <ele>234.8</ele>
        <time>2021-09-26T08:02:05Z</time>
      </trkpt>
      <trkpt lat="43.93995" lon="1.83125">
        <ele>234.6</ele>
        <time>2021-09-26T08:02:06Z</time>
      </trkpt>
      <trkpt lat="43.93996" lon="1.83123">
        <ele>234.6</ele>
        <time>2021-09-26T08:02:07Z</time>
      </trkpt>
      <trkpt lat="43.93997" lon="1.8312">
        <ele>234.6</ele>
        <time>2021-09-26T08:02:08Z</time>
      </trkpt>
      <trkpt lat="43.93999" lon="1.83117">
        <ele>234.6</ele>
        <time>2021-09-26T08:02:09Z</time>
      </trkpt>
      <trkpt lat="43.94" lon="1.83115">
        <ele>234.6</ele>
        <time>2021-09-26T08:02:10Z</time>
      </trkpt>
      <trkpt lat="43.94003" lon="1.8311">
        <ele>234.8</ele>
        <time>2021-09-26T08:02:12Z</time>
      </trkpt>
      <trkpt lat="43.94013" lon="1.83097">
        <ele>235</ele>
        <time>2021-09-26T08:02:19Z</time>
      </trkpt>
      <trkpt lat="43.94014" lon="1.83096">
        <ele>235.2</ele>
        <time>2021-09-26T08:02:20Z</time>
      </trkpt>
      <trkpt lat="43.94015" lon="1.83094">
        <ele>235.2</ele>
        <time>2021-09-26T08:02:21Z</time>
      </trkpt>
      <trkpt lat="43.94016" lon="1.83092">
        <ele>235.4</ele>
        <time>2021-09-26T08:02:22Z</time>
      </trkpt>
      <trkpt lat="43.94018" lon="1.83089">
        <ele>235.4</ele>
        <time>2021-09-26T08:02:23Z</time>
      </trkpt>
      <trkpt lat="43.94019" lon="1.83087">
        <ele>235.4</ele>
        <time>2021-09-26T08:02:24Z</time>
      </trkpt>
      <trkpt lat="43.94021" lon="1.83085">
        <ele>235.6</ele>
        <time>2021-09-26T08:02:25Z</time>
      </trkpt>
      <trkpt lat="43.94026" lon="1.83077">
        <ele>236</ele>
        <time>2021-09-26T08:02:28Z</time>
      </trkpt>
      <trkpt lat="43.94031" lon="1.83066">
        <ele>236.4</ele>
        <time>2021-09-26T08:02:32Z</time>
      </trkpt>
      <trkpt lat="43.94033" lon="1.83057">
        <ele>237.4</ele>
        <time>2021-09-26T08:02:35Z</time>
      </trkpt>
      <trkpt lat="43.94033" lon="1.83054">
        <ele>237.6</ele>
        <time>2021-09-26T08:02:36Z</time>
      </trkpt>
      <trkpt lat="43.94033" lon="1.83051">
        <ele>237.8</ele>
        <time>2021-09-26T08:02:37Z</time>
      </trkpt>
      <trkpt lat="43.94032" lon="1.83048">
        <ele>237.8</ele>
        <time>2021-09-26T08:02:38Z</time>
      </trkpt>
      <trkpt lat="43.94031" lon="1.83045">
        <ele>238</ele>
        <time>2021-09-26T08:02:39Z</time>
      </trkpt>
      <trkpt lat="43.9403" lon="1.83042">
        <ele>238</ele>
        <time>2021-09-26T08:02:40Z</time>
      </trkpt>
      <trkpt lat="43.94029" lon="1.83038">
        <ele>238</ele>
        <time>2021-09-26T08:02:41Z</time>
      </trkpt>
      <trkpt lat="43.94028" lon="1.83035">
        <ele>238.2</ele>
        <time>2021-09-26T08:02:42Z</time>
      </trkpt>
      <trkpt lat="43.94026" lon="1.83032">
        <ele>238.4</ele>
        <time>2021-09-26T08:02:43Z</time>
      </trkpt>
      <trkpt lat="43.94024" lon="1.83028">
        <ele>238.4</ele>
        <time>2021-09-26T08:02:44Z</time>
      </trkpt>
      <trkpt lat="43.94023" lon="1.83024">
        <ele>238.6</ele>
        <time>2021-09-26T08:02:45Z</time>
      </trkpt>
      <trkpt lat="43.94021" lon="1.83021">
        <ele>238.6</ele>
        <time>2021-09-26T08:02:46Z</time>
      </trkpt>
      <trkpt lat="43.9402" lon="1.83017">
        <ele>238.8</ele>
        <time>2021-09-26T08:02:47Z</time>
      </trkpt>
      <trkpt lat="43.94018" lon="1.83013">
        <ele>238.8</ele>
        <time>2021-09-26T08:02:48Z</time>
      </trkpt>
      <trkpt lat="43.94016" lon="1.83009">
        <ele>238.8</ele>
        <time>2021-09-26T08:02:49Z</time>
      </trkpt>
      <trkpt lat="43.94014" lon="1.83005">
        <ele>238.8</ele>
        <time>2021-09-26T08:02:50Z</time>
      </trkpt>
      <trkpt lat="43.94013" lon="1.83002">
        <ele>238.8</ele>
        <time>2021-09-26T08:02:51Z</time>
      </trkpt>
      <trkpt lat="43.94011" lon="1.82998">
        <ele>238.8</ele>
        <time>2021-09-26T08:02:52Z</time>
      </trkpt>
      <trkpt lat="43.9401" lon="1.82994">
        <ele>238.8</ele>
        <time>2021-09-26T08:02:53Z</time>
      </trkpt>
      <trkpt lat="43.94008" lon="1.8299">
        <ele>238.8</ele>
        <time>2021-09-26T08:02:54Z</time>
      </trkpt>
      <trkpt lat="43.94006" lon="1.82986">
        <ele>238.8</ele>
        <time>2021-09-26T08:02:55Z</time>
      </trkpt>
      <trkpt lat="43.94004" lon="1.82982">
        <ele>238.8</ele>
        <time>2021-09-26T08:02:56Z</time>
      </trkpt>
      <trkpt lat="43.94003" lon="1.82977">
        <ele>239</ele>
        <time>2021-09-26T08:02:57Z</time>
      </trkpt>
      <trkpt lat="43.94001" lon="1.82973">
        <ele>239</ele>
        <time>2021-09-26T08:02:58Z</time>
      </trkpt>
      <trkpt lat="43.93991" lon="1.8295">
        <ele>239.2</ele>
        <time>2021-09-26T08:03:04Z</time>
      </trkpt>
      <trkpt lat="43.93981" lon="1.82928">
        <ele>239.2</ele>
        <time>2021-09-26T08:03:09Z</time>
      </trkpt>
      <trkpt lat="43.93969" lon="1.82899">
        <ele>238.6</ele>
        <time>2021-09-26T08:03:14Z</time>
      </trkpt>
      <trkpt lat="43.93954" lon="1.82863">
        <ele>237</ele>
        <time>2021-09-26T08:03:19Z</time>
      </trkpt>
      <trkpt lat="43.93951" lon="1.82855">
        <ele>236.8</ele>
        <time>2021-09-26T08:03:20Z</time>
      </trkpt>
      <trkpt lat="43.93948" lon="1.82848">
        <ele>236.2</ele>
        <time>2021-09-26T08:03:21Z</time>
      </trkpt>
      <trkpt lat="43.93945" lon="1.82841">
        <ele>235.8</ele>
        <time>2021-09-26T08:03:22Z</time>
      </trkpt>
      <trkpt lat="43.93938" lon="1.82828">
        <ele>234.6</ele>
        <time>2021-09-26T08:03:24Z</time>
      </trkpt>
      <trkpt lat="43.93934" lon="1.82823">
        <ele>233.8</ele>
        <time>2021-09-26T08:03:25Z</time>
      </trkpt>
      <trkpt lat="43.93931" lon="1.82819">
        <ele>233.6</ele>
        <time>2021-09-26T08:03:26Z</time>
      </trkpt>
      <trkpt lat="43.93927" lon="1.82815">
        <ele>233.2</ele>
        <time>2021-09-26T08:03:27Z</time>
      </trkpt>
      <trkpt lat="43.93924" lon="1.82811">
        <ele>232.4</ele>
        <time>2021-09-26T08:03:28Z</time>
      </trkpt>
      <trkpt lat="43.9392" lon="1.82808">
        <ele>232</ele>
        <time>2021-09-26T08:03:29Z</time>
      </trkpt>
      <trkpt lat="43.93916" lon="1.82805">
        <ele>231.4</ele>
        <time>2021-09-26T08:03:30Z</time>
      </trkpt>
      <trkpt lat="43.93912" lon="1.82803">
        <ele>231.2</ele>
        <time>2021-09-26T08:03:31Z</time>
      </trkpt>
      <trkpt lat="43.93909" lon="1.82801">
        <ele>230.8</ele>
        <time>2021-09-26T08:03:32Z</time>
      </trkpt>
      <trkpt lat="43.93906" lon="1.82799">
        <ele>230.6</ele>
        <time>2021-09-26T08:03:33Z</time>
      </trkpt>
      <trkpt lat="43.93903" lon="1.82798">
        <ele>230.4</ele>
        <time>2021-09-26T08:03:34Z</time>
      </trkpt>
      <trkpt lat="43.93901" lon="1.82797">
        <ele>230.4</ele>
        <time>2021-09-26T08:03:35Z</time>
      </trkpt>
      <trkpt lat="43.93898" lon="1.82795">
        <ele>230.4</ele>
        <time>2021-09-26T08:03:36Z</time>
      </trkpt>
      <trkpt lat="43.93895" lon="1.82793">
        <ele>230.2</ele>
        <time>2021-09-26T08:03:37Z</time>
      </trkpt>
      <trkpt lat="43.93888" lon="1.82787">
        <ele>230.2</ele>
        <time>2021-09-26T08:03:40Z</time>
      </trkpt>
      <trkpt lat="43.93886" lon="1.82785">
        <ele>230.2</ele>
        <time>2021-09-26T08:03:41Z</time>
      </trkpt>
      <trkpt lat="43.93884" lon="1.82784">
        <ele>230.4</ele>
        <time>2021-09-26T08:03:42Z</time>
      </trkpt>
      <trkpt lat="43.93883" lon="1.82782">
        <ele>230.4</ele>
        <time>2021-09-26T08:03:43Z</time>
      </trkpt>
      <trkpt lat="43.93882" lon="1.8278">
        <ele>230.6</ele>
        <time>2021-09-26T08:03:44Z</time>
      </trkpt>
      <trkpt lat="43.9388" lon="1.82779">
        <ele>230.6</ele>
        <time>2021-09-26T08:03:45Z</time>
      </trkpt>
      <trkpt lat="43.93878" lon="1.82777">
        <ele>231</ele>
        <time>2021-09-26T08:03:46Z</time>
      </trkpt>
      <trkpt lat="43.93877" lon="1.82775">
        <ele>231</ele>
        <time>2021-09-26T08:03:47Z</time>
      </trkpt>
      <trkpt lat="43.93875" lon="1.82774">
        <ele>231.4</ele>
        <time>2021-09-26T08:03:48Z</time>
      </trkpt>
      <trkpt lat="43.93874" lon="1.82773">
        <ele>231.8</ele>
        <time>2021-09-26T08:03:49Z</time>
      </trkpt>
      <trkpt lat="43.93873" lon="1.82771">
        <ele>232</ele>
        <time>2021-09-26T08:03:50Z</time>
      </trkpt>
      <trkpt lat="43.93872" lon="1.8277">
        <ele>232.4</ele>
        <time>2021-09-26T08:03:51Z</time>
      </trkpt>
      <trkpt lat="43.9387" lon="1.82769">
        <ele>232.8</ele>
        <time>2021-09-26T08:03:52Z</time>
      </trkpt>
      <trkpt lat="43.93869" lon="1.82767">
        <ele>233.2</ele>
        <time>2021-09-26T08:03:53Z</time>
      </trkpt>
      <trkpt lat="43.93867" lon="1.82766">
        <ele>233.4</ele>
        <time>2021-09-26T08:03:54Z</time>
      </trkpt>
      <trkpt lat="43.93866" lon="1.82765">
        <ele>233.8</ele>
        <time>2021-09-26T08:03:55Z</time>
      </trkpt>
      <trkpt lat="43.93864" lon="1.82763">
        <ele>233.8</ele>
        <time>2021-09-26T08:03:56Z</time>
      </trkpt>
      <trkpt lat="43.93863" lon="1.82762">
        <ele>234</ele>
        <time>2021-09-26T08:03:57Z</time>
      </trkpt>
      <trkpt lat="43.93861" lon="1.82761">
        <ele>234</ele>
        <time>2021-09-26T08:03:58Z</time>
      </trkpt>
      <trkpt lat="43.93859" lon="1.8276">
        <ele>234.2</ele>
        <time>2021-09-26T08:03:59Z</time>
      </trkpt>
      <trkpt lat="43.93858" lon="1.82759">
        <ele>234.4</ele>
        <time>2021-09-26T08:04:00Z</time>
      </trkpt>
      <trkpt lat="43.93856" lon="1.82758">
        <ele>234.6</ele>
        <time>2021-09-26T08:04:01Z</time>
      </trkpt>
      <trkpt lat="43.93853" lon="1.82755">
        <ele>235.2</ele>
        <time>2021-09-26T08:04:03Z</time>
      </trkpt>
      <trkpt lat="43.93851" lon="1.82754">
        <ele>235.4</ele>
        <time>2021-09-26T08:04:04Z</time>
      </trkpt>
      <trkpt lat="43.9385" lon="1.82753">
        <ele>235.6</ele>
        <time>2021-09-26T08:04:05Z</time>
      </trkpt>
      <trkpt lat="43.93849" lon="1.82752">
        <ele>235.8</ele>
        <time>2021-09-26T08:04:06Z</time>
      </trkpt>
      <trkpt lat="43.93848" lon="1.8275">
        <ele>235.8</ele>
        <time>2021-09-26T08:04:07Z</time>
      </trkpt>
      <trkpt lat="43.93848" lon="1.82747">
        <ele>236</ele>
        <time>2021-09-26T08:04:08Z</time>
      </trkpt>
      <trkpt lat="43.93848" lon="1.82744">
        <ele>236</ele>
        <time>2021-09-26T08:04:09Z</time>
      </trkpt>
      <trkpt lat="43.93848" lon="1.82742">
        <ele>236</ele>
        <time>2021-09-26T08:04:10Z</time>
      </trkpt>
      <trkpt lat="43.93848" lon="1.82738">
        <ele>236.2</ele>
        <time>2021-09-26T08:04:11Z</time>
      </trkpt>
      <trkpt lat="43.93848" lon="1.82735">
        <ele>236.4</ele>
        <time>2021-09-26T08:04:12Z</time>
      </trkpt>
      <trkpt lat="43.93848" lon="1.82732">
        <ele>236.4</ele>
        <time>2021-09-26T08:04:13Z</time>
      </trkpt>
      <trkpt lat="43.93847" lon="1.8273">
        <ele>236.4</ele>
        <time>2021-09-26T08:04:14Z</time>
      </trkpt>
      <trkpt lat="43.93847" lon="1.82727">
        <ele>236.6</ele>
        <time>2021-09-26T08:04:15Z</time>
      </trkpt>
      <trkpt lat="43.93846" lon="1.82724">
        <ele>236.6</ele>
        <time>2021-09-26T08:04:16Z</time>
      </trkpt>
      <trkpt lat="43.93846" lon="1.82722">
        <ele>236.6</ele>
        <time>2021-09-26T08:04:17Z</time>
      </trkpt>
      <trkpt lat="43.93845" lon="1.82719">
        <ele>236.6</ele>
        <time>2021-09-26T08:04:18Z</time>
      </trkpt>
      <trkpt lat="43.93845" lon="1.82716">
        <ele>236.8</ele>
        <time>2021-09-26T08:04:19Z</time>
      </trkpt>
      <trkpt lat="43.93844" lon="1.82714">
        <ele>237</ele>
        <time>2021-09-26T08:04:20Z</time>
      </trkpt>
      <trkpt lat="43.93843" lon="1.82711">
        <ele>237</ele>
        <time>2021-09-26T08:04:21Z</time>
      </trkpt>
      <trkpt lat="43.93841" lon="1.82707">
        <ele>237</ele>
        <time>2021-09-26T08:04:22Z</time>
      </trkpt>
      <trkpt lat="43.9384" lon="1.82705">
        <ele>237.2</ele>
        <time>2021-09-26T08:04:23Z</time>
      </trkpt>
      <trkpt lat="43.93839" lon="1.82702">
        <ele>237.2</ele>
        <time>2021-09-26T08:04:24Z</time>
      </trkpt>
      <trkpt lat="43.93837" lon="1.82698">
        <ele>237.2</ele>
        <time>2021-09-26T08:04:25Z</time>
      </trkpt>
      <trkpt lat="43.93837" lon="1.82695">
        <ele>237.2</ele>
        <time>2021-09-26T08:04:26Z</time>
      </trkpt>
      <trkpt lat="43.93838" lon="1.82692">
        <ele>237.2</ele>
        <time>2021-09-26T08:04:27Z</time>
      </trkpt>
      <trkpt lat="43.93838" lon="1.8269">
        <ele>237.2</ele>
        <time>2021-09-26T08:04:28Z</time>
      </trkpt>
      <trkpt lat="43.93836" lon="1.82687">
        <ele>237.2</ele>
        <time>2021-09-26T08:04:29Z</time>
      </trkpt>
      <trkpt lat="43.93835" lon="1.82683">
        <ele>237.4</ele>
        <time>2021-09-26T08:04:30Z</time>
      </trkpt>
      <trkpt lat="43.93836" lon="1.8268">
        <ele>237.4</ele>
        <time>2021-09-26T08:04:31Z</time>
      </trkpt>
      <trkpt lat="43.93837" lon="1.82676">
        <ele>237.4</ele>
        <time>2021-09-26T08:04:32Z</time>
      </trkpt>
      <trkpt lat="43.93838" lon="1.82672">
        <ele>237.4</ele>
        <time>2021-09-26T08:04:33Z</time>
      </trkpt>
      <trkpt lat="43.93837" lon="1.82664">
        <ele>237.8</ele>
        <time>2021-09-26T08:04:36Z</time>
      </trkpt>
      <trkpt lat="43.93836" lon="1.8266">
        <ele>238</ele>
        <time>2021-09-26T08:04:37Z</time>
      </trkpt>
      <trkpt lat="43.93836" lon="1.82658">
        <ele>238</ele>
        <time>2021-09-26T08:04:38Z</time>
      </trkpt>
      <trkpt lat="43.93836" lon="1.82655">
        <ele>238.2</ele>
        <time>2021-09-26T08:04:39Z</time>
      </trkpt>
      <trkpt lat="43.93836" lon="1.82651">
        <ele>238.2</ele>
        <time>2021-09-26T08:04:40Z</time>
      </trkpt>
      <trkpt lat="43.93836" lon="1.82648">
        <ele>238.2</ele>
        <time>2021-09-26T08:04:41Z</time>
      </trkpt>
      <trkpt lat="43.93838" lon="1.82638">
        <ele>238.4</ele>
        <time>2021-09-26T08:04:45Z</time>
      </trkpt>
      <trkpt lat="43.93839" lon="1.82636">
        <ele>238.4</ele>
        <time>2021-09-26T08:04:46Z</time>
      </trkpt>
      <trkpt lat="43.9384" lon="1.82634">
        <ele>238.4</ele>
        <time>2021-09-26T08:04:47Z</time>
      </trkpt>
      <trkpt lat="43.9384" lon="1.82632">
        <ele>238.6</ele>
        <time>2021-09-26T08:04:48Z</time>
      </trkpt>
      <trkpt lat="43.93841" lon="1.8263">
        <ele>238.6</ele>
        <time>2021-09-26T08:04:49Z</time>
      </trkpt>
      <trkpt lat="43.93843" lon="1.82626">
        <ele>239</ele>
        <time>2021-09-26T08:04:51Z</time>
      </trkpt>
      <trkpt lat="43.93842" lon="1.82623">
        <ele>239</ele>
        <time>2021-09-26T08:04:52Z</time>
      </trkpt>
      <trkpt lat="43.93842" lon="1.8262">
        <ele>239.2</ele>
        <time>2021-09-26T08:04:53Z</time>
      </trkpt>
      <trkpt lat="43.93842" lon="1.82617">
        <ele>239.2</ele>
        <time>2021-09-26T08:04:54Z</time>
      </trkpt>
      <trkpt lat="43.93843" lon="1.82615">
        <ele>239.4</ele>
        <time>2021-09-26T08:04:55Z</time>
      </trkpt>
      <trkpt lat="43.93843" lon="1.82609">
        <ele>239.6</ele>
        <time>2021-09-26T08:04:57Z</time>
      </trkpt>
      <trkpt lat="43.93842" lon="1.82606">
        <ele>239.8</ele>
        <time>2021-09-26T08:04:58Z</time>
      </trkpt>
      <trkpt lat="43.93841" lon="1.82598">
        <ele>239.8</ele>
        <time>2021-09-26T08:05:00Z</time>
      </trkpt>
      <trkpt lat="43.9384" lon="1.82592">
        <ele>240.2</ele>
        <time>2021-09-26T08:05:02Z</time>
      </trkpt>
      <trkpt lat="43.93839" lon="1.82586">
        <ele>240.2</ele>
        <time>2021-09-26T08:05:04Z</time>
      </trkpt>
      <trkpt lat="43.93838" lon="1.82582">
        <ele>240.4</ele>
        <time>2021-09-26T08:05:05Z</time>
      </trkpt>
      <trkpt lat="43.93837" lon="1.82578">
        <ele>240.4</ele>
        <time>2021-09-26T08:05:06Z</time>
      </trkpt>
      <trkpt lat="43.93836" lon="1.82576">
        <ele>240.6</ele>
        <time>2021-09-26T08:05:07Z</time>
      </trkpt>
      <trkpt lat="43.93835" lon="1.82573">
        <ele>240.6</ele>
        <time>2021-09-26T08:05:08Z</time>
      </trkpt>
      <trkpt lat="43.93829" lon="1.82561">
        <ele>241</ele>
        <time>2021-09-26T08:05:12Z</time>
      </trkpt>
      <trkpt lat="43.93828" lon="1.82557">
        <ele>241</ele>
        <time>2021-09-26T08:05:13Z</time>
      </trkpt>
      <trkpt lat="43.93818" lon="1.82527">
        <ele>240.8</ele>
        <time>2021-09-26T08:05:21Z</time>
      </trkpt>
      <trkpt lat="43.93815" lon="1.82518">
        <ele>240.8</ele>
        <time>2021-09-26T08:05:24Z</time>
      </trkpt>
      <trkpt lat="43.93814" lon="1.82515">
        <ele>240.8</ele>
        <time>2021-09-26T08:05:25Z</time>
      </trkpt>
      <trkpt lat="43.93814" lon="1.82512">
        <ele>240.6</ele>
        <time>2021-09-26T08:05:26Z</time>
      </trkpt>
      <trkpt lat="43.93813" lon="1.82508">
        <ele>240.6</ele>
        <time>2021-09-26T08:05:27Z</time>
      </trkpt>
      <trkpt lat="43.93812" lon="1.82505">
        <ele>240.6</ele>
        <time>2021-09-26T08:05:28Z</time>
      </trkpt>
      <trkpt lat="43.9381" lon="1.82486">
        <ele>240.8</ele>
        <time>2021-09-26T08:05:34Z</time>
      </trkpt>
      <trkpt lat="43.9381" lon="1.82474">
        <ele>241</ele>
        <time>2021-09-26T08:05:39Z</time>
      </trkpt>
      <trkpt lat="43.9381" lon="1.82471">
        <ele>241</ele>
        <time>2021-09-26T08:05:40Z</time>
      </trkpt>
      <trkpt lat="43.9381" lon="1.82469">
        <ele>241</ele>
        <time>2021-09-26T08:05:41Z</time>
      </trkpt>
      <trkpt lat="43.93809" lon="1.82466">
        <ele>241</ele>
        <time>2021-09-26T08:05:42Z</time>
      </trkpt>
      <trkpt lat="43.93809" lon="1.82464">
        <ele>241</ele>
        <time>2021-09-26T08:05:43Z</time>
      </trkpt>
      <trkpt lat="43.93808" lon="1.82459">
        <ele>241</ele>
        <time>2021-09-26T08:05:45Z</time>
      </trkpt>
      <trkpt lat="43.93807" lon="1.82457">
        <ele>241</ele>
        <time>2021-09-26T08:05:46Z</time>
      </trkpt>
      <trkpt lat="43.93807" lon="1.82452">
        <ele>241.2</ele>
        <time>2021-09-26T08:05:48Z</time>
      </trkpt>
      <trkpt lat="43.93808" lon="1.8245">
        <ele>241.4</ele>
        <time>2021-09-26T08:05:49Z</time>
      </trkpt>
      <trkpt lat="43.93809" lon="1.82448">
        <ele>241.4</ele>
        <time>2021-09-26T08:05:50Z</time>
      </trkpt>
      <trkpt lat="43.9381" lon="1.82446">
        <ele>241.6</ele>
        <time>2021-09-26T08:05:51Z</time>
      </trkpt>
      <trkpt lat="43.93811" lon="1.82444">
        <ele>241.6</ele>
        <time>2021-09-26T08:05:52Z</time>
      </trkpt>
      <trkpt lat="43.93812" lon="1.82443">
        <ele>241.6</ele>
        <time>2021-09-26T08:05:53Z</time>
      </trkpt>
      <trkpt lat="43.93818" lon="1.82437">
        <ele>242</ele>
        <time>2021-09-26T08:05:57Z</time>
      </trkpt>
      <trkpt lat="43.93822" lon="1.82433">
        <ele>242.6</ele>
        <time>2021-09-26T08:06:00Z</time>
      </trkpt>
      <trkpt lat="43.93824" lon="1.82431">
        <ele>242.8</ele>
        <time>2021-09-26T08:06:02Z</time>
      </trkpt>
      <trkpt lat="43.93825" lon="1.8243">
        <ele>242.8</ele>
        <time>2021-09-26T08:06:03Z</time>
      </trkpt>
      <trkpt lat="43.93827" lon="1.82429">
        <ele>243</ele>
        <time>2021-09-26T08:06:04Z</time>
      </trkpt>
      <trkpt lat="43.93828" lon="1.82428">
        <ele>243.2</ele>
        <time>2021-09-26T08:06:05Z</time>
      </trkpt>
      <trkpt lat="43.93829" lon="1.82427">
        <ele>243.4</ele>
        <time>2021-09-26T08:06:06Z</time>
      </trkpt>
      <trkpt lat="43.93831" lon="1.82426">
        <ele>243.6</ele>
        <time>2021-09-26T08:06:07Z</time>
      </trkpt>
      <trkpt lat="43.93833" lon="1.82425">
        <ele>243.8</ele>
        <time>2021-09-26T08:06:09Z</time>
      </trkpt>
      <trkpt lat="43.93835" lon="1.82424">
        <ele>243.8</ele>
        <time>2021-09-26T08:06:10Z</time>
      </trkpt>
      <trkpt lat="43.93836" lon="1.82423">
        <ele>244.2</ele>
        <time>2021-09-26T08:06:11Z</time>
      </trkpt>
      <trkpt lat="43.93837" lon="1.82422">
        <ele>244.4</ele>
        <time>2021-09-26T08:06:12Z</time>
      </trkpt>
      <trkpt lat="43.93839" lon="1.82421">
        <ele>244.6</ele>
        <time>2021-09-26T08:06:13Z</time>
      </trkpt>
      <trkpt lat="43.9384" lon="1.82421">
        <ele>244.8</ele>
        <time>2021-09-26T08:06:14Z</time>
      </trkpt>
      <trkpt lat="43.93841" lon="1.8242">
        <ele>245</ele>
        <time>2021-09-26T08:06:15Z</time>
      </trkpt>
      <trkpt lat="43.93842" lon="1.82419">
        <ele>245.2</ele>
        <time>2021-09-26T08:06:16Z</time>
      </trkpt>
      <trkpt lat="43.93843" lon="1.82419">
        <ele>245.4</ele>
        <time>2021-09-26T08:06:17Z</time>
      </trkpt>
      <trkpt lat="43.93846" lon="1.82418">
        <ele>245.6</ele>
        <time>2021-09-26T08:06:18Z</time>
      </trkpt>
      <trkpt lat="43.93848" lon="1.82417">
        <ele>245.8</ele>
        <time>2021-09-26T08:06:19Z</time>
      </trkpt>
      <trkpt lat="43.93849" lon="1.82416">
        <ele>246</ele>
        <time>2021-09-26T08:06:20Z</time>
      </trkpt>
      <trkpt lat="43.9385" lon="1.82415">
        <ele>246.4</ele>
        <time>2021-09-26T08:06:21Z</time>
      </trkpt>
      <trkpt lat="43.93852" lon="1.82414">
        <ele>246.4</ele>
        <time>2021-09-26T08:06:22Z</time>
      </trkpt>
      <trkpt lat="43.93853" lon="1.82413">
        <ele>246.6</ele>
        <time>2021-09-26T08:06:23Z</time>
      </trkpt>
      <trkpt lat="43.93855" lon="1.82412">
        <ele>246.8</ele>
        <time>2021-09-26T08:06:24Z</time>
      </trkpt>
      <trkpt lat="43.93856" lon="1.82411">
        <ele>247</ele>
        <time>2021-09-26T08:06:25Z</time>
      </trkpt>
      <trkpt lat="43.93858" lon="1.8241">
        <ele>247.4</ele>
        <time>2021-09-26T08:06:26Z</time>
      </trkpt>
      <trkpt lat="43.93858" lon="1.82408">
        <ele>247.4</ele>
        <time>2021-09-26T08:06:27Z</time>
      </trkpt>
      <trkpt lat="43.9386" lon="1.82407">
        <ele>247.8</ele>
        <time>2021-09-26T08:06:28Z</time>
      </trkpt>
      <trkpt lat="43.93861" lon="1.82406">
        <ele>247.8</ele>
        <time>2021-09-26T08:06:29Z</time>
      </trkpt>
      <trkpt lat="43.93862" lon="1.82405">
        <ele>248.2</ele>
        <time>2021-09-26T08:06:30Z</time>
      </trkpt>
      <trkpt lat="43.93864" lon="1.82404">
        <ele>248.4</ele>
        <time>2021-09-26T08:06:31Z</time>
      </trkpt>
      <trkpt lat="43.93865" lon="1.82403">
        <ele>248.4</ele>
        <time>2021-09-26T08:06:32Z</time>
      </trkpt>
      <trkpt lat="43.93866" lon="1.82401">
        <ele>248.6</ele>
        <time>2021-09-26T08:06:33Z</time>
      </trkpt>
      <trkpt lat="43.93867" lon="1.824">
        <ele>248.8</ele>
        <time>2021-09-26T08:06:34Z</time>
      </trkpt>
      <trkpt lat="43.93867" lon="1.82398">
        <ele>249</ele>
        <time>2021-09-26T08:06:35Z</time>
      </trkpt>
      <trkpt lat="43.93868" lon="1.82397">
        <ele>249.2</ele>
        <time>2021-09-26T08:06:36Z</time>
      </trkpt>
      <trkpt lat="43.93869" lon="1.82395">
        <ele>249.4</ele>
        <time>2021-09-26T08:06:37Z</time>
      </trkpt>
      <trkpt lat="43.9387" lon="1.82393">
        <ele>249.6</ele>
        <time>2021-09-26T08:06:38Z</time>
      </trkpt>
      <trkpt lat="43.93872" lon="1.82392">
        <ele>249.8</ele>
        <time>2021-09-26T08:06:39Z</time>
      </trkpt>
      <trkpt lat="43.93873" lon="1.82392">
        <ele>249.8</ele>
        <time>2021-09-26T08:06:40Z</time>
      </trkpt>
      <trkpt lat="43.93875" lon="1.8239">
        <ele>250.2</ele>
        <time>2021-09-26T08:06:41Z</time>
      </trkpt>
      <trkpt lat="43.93877" lon="1.82388">
        <ele>250.4</ele>
        <time>2021-09-26T08:06:42Z</time>
      </trkpt>
      <trkpt lat="43.93879" lon="1.82387">
        <ele>250.4</ele>
        <time>2021-09-26T08:06:43Z</time>
      </trkpt>
      <trkpt lat="43.9388" lon="1.82386">
        <ele>250.8</ele>
        <time>2021-09-26T08:06:44Z</time>
      </trkpt>
      <trkpt lat="43.93881" lon="1.82384">
        <ele>251</ele>
        <time>2021-09-26T08:06:45Z</time>
      </trkpt>
      <trkpt lat="43.93882" lon="1.82383">
        <ele>251.2</ele>
        <time>2021-09-26T08:06:46Z</time>
      </trkpt>
      <trkpt lat="43.93883" lon="1.82382">
        <ele>251.4</ele>
        <time>2021-09-26T08:06:47Z</time>
      </trkpt>
      <trkpt lat="43.93884" lon="1.82381">
        <ele>251.6</ele>
        <time>2021-09-26T08:06:48Z</time>
      </trkpt>
      <trkpt lat="43.93886" lon="1.82379">
        <ele>252</ele>
        <time>2021-09-26T08:06:49Z</time>
      </trkpt>
      <trkpt lat="43.93887" lon="1.82378">
        <ele>252</ele>
        <time>2021-09-26T08:06:50Z</time>
      </trkpt>
      <trkpt lat="43.93889" lon="1.82376">
        <ele>252.2</ele>
        <time>2021-09-26T08:06:51Z</time>
      </trkpt>
      <trkpt lat="43.93891" lon="1.82375">
        <ele>252.4</ele>
        <time>2021-09-26T08:06:52Z</time>
      </trkpt>
      <trkpt lat="43.93893" lon="1.82374">
        <ele>252.6</ele>
        <time>2021-09-26T08:06:53Z</time>
      </trkpt>
      <trkpt lat="43.93894" lon="1.82374">
        <ele>252.8</ele>
        <time>2021-09-26T08:06:54Z</time>
      </trkpt>
      <trkpt lat="43.93895" lon="1.82373">
        <ele>253.2</ele>
        <time>2021-09-26T08:06:55Z</time>
      </trkpt>
      <trkpt lat="43.93896" lon="1.82372">
        <ele>253.4</ele>
        <time>2021-09-26T08:06:56Z</time>
      </trkpt>
      <trkpt lat="43.93898" lon="1.82371">
        <ele>253.6</ele>
        <time>2021-09-26T08:06:57Z</time>
      </trkpt>
      <trkpt lat="43.93899" lon="1.8237">
        <ele>253.8</ele>
        <time>2021-09-26T08:06:58Z</time>
      </trkpt>
      <trkpt lat="43.939" lon="1.82368">
        <ele>254</ele>
        <time>2021-09-26T08:06:59Z</time>
      </trkpt>
      <trkpt lat="43.93901" lon="1.82367">
        <ele>254.4</ele>
        <time>2021-09-26T08:07:00Z</time>
      </trkpt>
      <trkpt lat="43.93902" lon="1.82365">
        <ele>254.6</ele>
        <time>2021-09-26T08:07:01Z</time>
      </trkpt>
      <trkpt lat="43.93903" lon="1.82365">
        <ele>254.8</ele>
        <time>2021-09-26T08:07:02Z</time>
      </trkpt>
      <trkpt lat="43.93905" lon="1.82364">
        <ele>255</ele>
        <time>2021-09-26T08:07:03Z</time>
      </trkpt>
      <trkpt lat="43.93907" lon="1.82363">
        <ele>255.2</ele>
        <time>2021-09-26T08:07:04Z</time>
      </trkpt>
      <trkpt lat="43.93909" lon="1.82361">
        <ele>255.6</ele>
        <time>2021-09-26T08:07:05Z</time>
      </trkpt>
      <trkpt lat="43.9391" lon="1.82359">
        <ele>255.6</ele>
        <time>2021-09-26T08:07:06Z</time>
      </trkpt>
      <trkpt lat="43.93911" lon="1.82358">
        <ele>255.8</ele>
        <time>2021-09-26T08:07:07Z</time>
      </trkpt>
      <trkpt lat="43.93912" lon="1.82357">
        <ele>255.8</ele>
        <time>2021-09-26T08:07:08Z</time>
      </trkpt>
      <trkpt lat="43.93912" lon="1.82356">
        <ele>256.2</ele>
        <time>2021-09-26T08:07:09Z</time>
      </trkpt>
      <trkpt lat="43.93913" lon="1.82354">
        <ele>256.4</ele>
        <time>2021-09-26T08:07:10Z</time>
      </trkpt>
      <trkpt lat="43.93915" lon="1.82353">
        <ele>256.6</ele>
        <time>2021-09-26T08:07:11Z</time>
      </trkpt>
      <trkpt lat="43.93916" lon="1.82351">
        <ele>256.8</ele>
        <time>2021-09-26T08:07:12Z</time>
      </trkpt>
      <trkpt lat="43.93916" lon="1.8235">
        <ele>257</ele>
        <time>2021-09-26T08:07:13Z</time>
      </trkpt>
      <trkpt lat="43.93918" lon="1.8235">
        <ele>257.2</ele>
        <time>2021-09-26T08:07:14Z</time>
      </trkpt>
      <trkpt lat="43.93919" lon="1.82349">
        <ele>257.4</ele>
        <time>2021-09-26T08:07:15Z</time>
      </trkpt>
      <trkpt lat="43.93921" lon="1.82348">
        <ele>257.4</ele>
        <time>2021-09-26T08:07:16Z</time>
      </trkpt>
      <trkpt lat="43.93922" lon="1.82347">
        <ele>257.6</ele>
        <time>2021-09-26T08:07:17Z</time>
      </trkpt>
      <trkpt lat="43.93924" lon="1.82346">
        <ele>258</ele>
        <time>2021-09-26T08:07:18Z</time>
      </trkpt>
      <trkpt lat="43.93925" lon="1.82345">
        <ele>258.4</ele>
        <time>2021-09-26T08:07:19Z</time>
      </trkpt>
      <trkpt lat="43.93926" lon="1.82343">
        <ele>258.6</ele>
        <time>2021-09-26T08:07:20Z</time>
      </trkpt>
      <trkpt lat="43.93928" lon="1.82342">
        <ele>259</ele>
        <time>2021-09-26T08:07:21Z</time>
      </trkpt>
      <trkpt lat="43.93929" lon="1.82341">
        <ele>259</ele>
        <time>2021-09-26T08:07:22Z</time>
      </trkpt>
      <trkpt lat="43.9393" lon="1.8234">
        <ele>259.2</ele>
        <time>2021-09-26T08:07:23Z</time>
      </trkpt>
      <trkpt lat="43.93931" lon="1.82338">
        <ele>259.4</ele>
        <time>2021-09-26T08:07:24Z</time>
      </trkpt>
      <trkpt lat="43.93932" lon="1.82337">
        <ele>259.6</ele>
        <time>2021-09-26T08:07:25Z</time>
      </trkpt>
      <trkpt lat="43.93934" lon="1.82335">
        <ele>259.8</ele>
        <time>2021-09-26T08:07:26Z</time>
      </trkpt>
      <trkpt lat="43.93935" lon="1.82334">
        <ele>259.8</ele>
        <time>2021-09-26T08:07:27Z</time>
      </trkpt>
      <trkpt lat="43.93937" lon="1.82332">
        <ele>260</ele>
        <time>2021-09-26T08:07:28Z</time>
      </trkpt>
      <trkpt lat="43.93938" lon="1.82331">
        <ele>260.2</ele>
        <time>2021-09-26T08:07:29Z</time>
      </trkpt>
      <trkpt lat="43.9394" lon="1.8233">
        <ele>260.4</ele>
        <time>2021-09-26T08:07:30Z</time>
      </trkpt>
      <trkpt lat="43.93941" lon="1.82329">
        <ele>260.4</ele>
        <time>2021-09-26T08:07:31Z</time>
      </trkpt>
      <trkpt lat="43.93943" lon="1.82328">
        <ele>260.6</ele>
        <time>2021-09-26T08:07:32Z</time>
      </trkpt>
      <trkpt lat="43.93944" lon="1.82327">
        <ele>260.8</ele>
        <time>2021-09-26T08:07:33Z</time>
      </trkpt>
      <trkpt lat="43.93946" lon="1.82326">
        <ele>261</ele>
        <time>2021-09-26T08:07:34Z</time>
      </trkpt>
      <trkpt lat="43.93947" lon="1.82325">
        <ele>261.2</ele>
        <time>2021-09-26T08:07:35Z</time>
      </trkpt>
      <trkpt lat="43.93948" lon="1.82324">
        <ele>261.2</ele>
        <time>2021-09-26T08:07:36Z</time>
      </trkpt>
      <trkpt lat="43.93949" lon="1.82324">
        <ele>261.4</ele>
        <time>2021-09-26T08:07:37Z</time>
      </trkpt>
      <trkpt lat="43.93951" lon="1.82323">
        <ele>261.4</ele>
        <time>2021-09-26T08:07:38Z</time>
      </trkpt>
      <trkpt lat="43.93952" lon="1.82322">
        <ele>261.4</ele>
        <time>2021-09-26T08:07:39Z</time>
      </trkpt>
      <trkpt lat="43.93953" lon="1.8232">
        <ele>261.6</ele>
        <time>2021-09-26T08:07:40Z</time>
      </trkpt>
      <trkpt lat="43.93955" lon="1.82319">
        <ele>261.8</ele>
        <time>2021-09-26T08:07:41Z</time>
      </trkpt>
      <trkpt lat="43.93957" lon="1.82318">
        <ele>261.8</ele>
        <time>2021-09-26T08:07:42Z</time>
      </trkpt>
      <trkpt lat="43.93958" lon="1.82318">
        <ele>262</ele>
        <time>2021-09-26T08:07:43Z</time>
      </trkpt>
      <trkpt lat="43.9396" lon="1.82317">
        <ele>262.2</ele>
        <time>2021-09-26T08:07:44Z</time>
      </trkpt>
      <trkpt lat="43.93962" lon="1.82316">
        <ele>262.2</ele>
        <time>2021-09-26T08:07:45Z</time>
      </trkpt>
      <trkpt lat="43.93963" lon="1.82315">
        <ele>262.6</ele>
        <time>2021-09-26T08:07:46Z</time>
      </trkpt>
      <trkpt lat="43.93965" lon="1.82314">
        <ele>262.6</ele>
        <time>2021-09-26T08:07:47Z</time>
      </trkpt>
      <trkpt lat="43.93967" lon="1.82314">
        <ele>262.8</ele>
        <time>2021-09-26T08:07:48Z</time>
      </trkpt>
      <trkpt lat="43.93968" lon="1.82313">
        <ele>263</ele>
        <time>2021-09-26T08:07:49Z</time>
      </trkpt>
      <trkpt lat="43.9397" lon="1.82311">
        <ele>263</ele>
        <time>2021-09-26T08:07:50Z</time>
      </trkpt>
      <trkpt lat="43.93971" lon="1.8231">
        <ele>263</ele>
        <time>2021-09-26T08:07:51Z</time>
      </trkpt>
      <trkpt lat="43.93973" lon="1.82308">
        <ele>263</ele>
        <time>2021-09-26T08:07:52Z</time>
      </trkpt>
      <trkpt lat="43.93974" lon="1.82307">
        <ele>263.2</ele>
        <time>2021-09-26T08:07:53Z</time>
      </trkpt>
      <trkpt lat="43.93976" lon="1.82306">
        <ele>263.2</ele>
        <time>2021-09-26T08:07:54Z</time>
      </trkpt>
      <trkpt lat="43.93977" lon="1.82305">
        <ele>263.2</ele>
        <time>2021-09-26T08:07:55Z</time>
      </trkpt>
      <trkpt lat="43.9398" lon="1.82304">
        <ele>263.4</ele>
        <time>2021-09-26T08:07:56Z</time>
      </trkpt>
      <trkpt lat="43.93981" lon="1.82303">
        <ele>263.4</ele>
        <time>2021-09-26T08:07:57Z</time>
      </trkpt>
      <trkpt lat="43.93983" lon="1.82302">
        <ele>263.4</ele>
        <time>2021-09-26T08:07:58Z</time>
      </trkpt>
      <trkpt lat="43.93985" lon="1.82301">
        <ele>263.4</ele>
        <time>2021-09-26T08:07:59Z</time>
      </trkpt>
      <trkpt lat="43.93986" lon="1.823">
        <ele>263.6</ele>
        <time>2021-09-26T08:08:00Z</time>
      </trkpt>
      <trkpt lat="43.93988" lon="1.82298">
        <ele>263.6</ele>
        <time>2021-09-26T08:08:01Z</time>
      </trkpt>
      <trkpt lat="43.9399" lon="1.82297">
        <ele>263.6</ele>
        <time>2021-09-26T08:08:02Z</time>
      </trkpt>
      <trkpt lat="43.93991" lon="1.82296">
        <ele>263.8</ele>
        <time>2021-09-26T08:08:03Z</time>
      </trkpt>
      <trkpt lat="43.93993" lon="1.82296">
        <ele>263.8</ele>
        <time>2021-09-26T08:08:04Z</time>
      </trkpt>
      <trkpt lat="43.93995" lon="1.82294">
        <ele>264</ele>
        <time>2021-09-26T08:08:05Z</time>
      </trkpt>
      <trkpt lat="43.93996" lon="1.82293">
        <ele>264</ele>
        <time>2021-09-26T08:08:06Z</time>
      </trkpt>
      <trkpt lat="43.94001" lon="1.8229">
        <ele>264.2</ele>
        <time>2021-09-26T08:08:09Z</time>
      </trkpt>
      <trkpt lat="43.94003" lon="1.82289">
        <ele>264.2</ele>
        <time>2021-09-26T08:08:10Z</time>
      </trkpt>
      <trkpt lat="43.94004" lon="1.82288">
        <ele>264.4</ele>
        <time>2021-09-26T08:08:11Z</time>
      </trkpt>
      <trkpt lat="43.94006" lon="1.82287">
        <ele>264.6</ele>
        <time>2021-09-26T08:08:12Z</time>
      </trkpt>
      <trkpt lat="43.94007" lon="1.82286">
        <ele>264.6</ele>
        <time>2021-09-26T08:08:13Z</time>
      </trkpt>
      <trkpt lat="43.94009" lon="1.82285">
        <ele>264.8</ele>
        <time>2021-09-26T08:08:14Z</time>
      </trkpt>
      <trkpt lat="43.94018" lon="1.82279">
        <ele>265.2</ele>
        <time>2021-09-26T08:08:19Z</time>
      </trkpt>
      <trkpt lat="43.94028" lon="1.82273">
        <ele>266.6</ele>
        <time>2021-09-26T08:08:25Z</time>
      </trkpt>
      <trkpt lat="43.9403" lon="1.82272">
        <ele>266.8</ele>
        <time>2021-09-26T08:08:26Z</time>
      </trkpt>
      <trkpt lat="43.94032" lon="1.8227">
        <ele>266.8</ele>
        <time>2021-09-26T08:08:27Z</time>
      </trkpt>
      <trkpt lat="43.94034" lon="1.82269">
        <ele>267</ele>
        <time>2021-09-26T08:08:28Z</time>
      </trkpt>
      <trkpt lat="43.94036" lon="1.82267">
        <ele>267</ele>
        <time>2021-09-26T08:08:29Z</time>
      </trkpt>
      <trkpt lat="43.94037" lon="1.82266">
        <ele>267.2</ele>
        <time>2021-09-26T08:08:30Z</time>
      </trkpt>
      <trkpt lat="43.94039" lon="1.82266">
        <ele>267.2</ele>
        <time>2021-09-26T08:08:31Z</time>
      </trkpt>
      <trkpt lat="43.94041" lon="1.82264">
        <ele>267.4</ele>
        <time>2021-09-26T08:08:32Z</time>
      </trkpt>
      <trkpt lat="43.94042" lon="1.82264">
        <ele>267.6</ele>
        <time>2021-09-26T08:08:33Z</time>
      </trkpt>
      <trkpt lat="43.94044" lon="1.82263">
        <ele>267.6</ele>
        <time>2021-09-26T08:08:34Z</time>
      </trkpt>
      <trkpt lat="43.94046" lon="1.82262">
        <ele>267.8</ele>
        <time>2021-09-26T08:08:35Z</time>
      </trkpt>
      <trkpt lat="43.94048" lon="1.82261">
        <ele>267.8</ele>
        <time>2021-09-26T08:08:36Z</time>
      </trkpt>
      <trkpt lat="43.9405" lon="1.8226">
        <ele>268</ele>
        <time>2021-09-26T08:08:37Z</time>
      </trkpt>
      <trkpt lat="43.94052" lon="1.82259">
        <ele>268.2</ele>
        <time>2021-09-26T08:08:38Z</time>
      </trkpt>
      <trkpt lat="43.94054" lon="1.82258">
        <ele>268.2</ele>
        <time>2021-09-26T08:08:39Z</time>
      </trkpt>
      <trkpt lat="43.94056" lon="1.82257">
        <ele>268.4</ele>
        <time>2021-09-26T08:08:40Z</time>
      </trkpt>
      <trkpt lat="43.94058" lon="1.82257">
        <ele>268.4</ele>
        <time>2021-09-26T08:08:41Z</time>
      </trkpt>
      <trkpt lat="43.9406" lon="1.82256">
        <ele>268.6</ele>
        <time>2021-09-26T08:08:42Z</time>
      </trkpt>
      <trkpt lat="43.94062" lon="1.82255">
        <ele>268.6</ele>
        <time>2021-09-26T08:08:43Z</time>
      </trkpt>
      <trkpt lat="43.94064" lon="1.82255">
        <ele>268.8</ele>
        <time>2021-09-26T08:08:44Z</time>
      </trkpt>
      <trkpt lat="43.94066" lon="1.82254">
        <ele>268.8</ele>
        <time>2021-09-26T08:08:45Z</time>
      </trkpt>
      <trkpt lat="43.94067" lon="1.82254">
        <ele>268.8</ele>
        <time>2021-09-26T08:08:46Z</time>
      </trkpt>
      <trkpt lat="43.94067" lon="1.82254">
        <ele>268.8</ele>
        <time>2021-09-26T08:08:47Z</time>
      </trkpt>
      <trkpt lat="43.94067" lon="1.82254">
        <ele>268.8</ele>
        <time>2021-09-26T08:08:48Z</time>
      </trkpt>
      <trkpt lat="43.94067" lon="1.82254">
        <ele>268.8</ele>
        <time>2021-09-26T08:08:49Z</time>
      </trkpt>
      <trkpt lat="43.94072" lon="1.82253">
        <ele>268.8</ele>
        <time>2021-09-26T08:09:25Z</time>
      </trkpt>
      <trkpt lat="43.94078" lon="1.8225">
        <ele>269</ele>
        <time>2021-09-26T08:09:28Z</time>
      </trkpt>
      <trkpt lat="43.94082" lon="1.82249">
        <ele>269</ele>
        <time>2021-09-26T08:09:30Z</time>
      </trkpt>
      <trkpt lat="43.94093" lon="1.82246">
        <ele>268.6</ele>
        <time>2021-09-26T08:09:35Z</time>
      </trkpt>
      <trkpt lat="43.9411" lon="1.82248">
        <ele>268.2</ele>
        <time>2021-09-26T08:09:40Z</time>
      </trkpt>
      <trkpt lat="43.94117" lon="1.82248">
        <ele>268</ele>
        <time>2021-09-26T08:09:42Z</time>
      </trkpt>
      <trkpt lat="43.94127" lon="1.82244">
        <ele>267.8</ele>
        <time>2021-09-26T08:09:45Z</time>
      </trkpt>
      <trkpt lat="43.94131" lon="1.82242">
        <ele>267.4</ele>
        <time>2021-09-26T08:09:46Z</time>
      </trkpt>
      <trkpt lat="43.94148" lon="1.82232">
        <ele>266.4</ele>
        <time>2021-09-26T08:09:51Z</time>
      </trkpt>
      <trkpt lat="43.94151" lon="1.8223">
        <ele>266.2</ele>
        <time>2021-09-26T08:09:52Z</time>
      </trkpt>
      <trkpt lat="43.94167" lon="1.82212">
        <ele>265.6</ele>
        <time>2021-09-26T08:09:58Z</time>
      </trkpt>
      <trkpt lat="43.94169" lon="1.82209">
        <ele>265.6</ele>
        <time>2021-09-26T08:09:59Z</time>
      </trkpt>
      <trkpt lat="43.94172" lon="1.82206">
        <ele>265.6</ele>
        <time>2021-09-26T08:10:00Z</time>
      </trkpt>
      <trkpt lat="43.94175" lon="1.82202">
        <ele>265.6</ele>
        <time>2021-09-26T08:10:01Z</time>
      </trkpt>
      <trkpt lat="43.94177" lon="1.822">
        <ele>265.4</ele>
        <time>2021-09-26T08:10:02Z</time>
      </trkpt>
      <trkpt lat="43.9418" lon="1.82197">
        <ele>265.4</ele>
        <time>2021-09-26T08:10:03Z</time>
      </trkpt>
      <trkpt lat="43.94182" lon="1.82195">
        <ele>265.4</ele>
        <time>2021-09-26T08:10:04Z</time>
      </trkpt>
      <trkpt lat="43.94185" lon="1.82192">
        <ele>265.4</ele>
        <time>2021-09-26T08:10:05Z</time>
      </trkpt>
      <trkpt lat="43.94187" lon="1.8219">
        <ele>265.2</ele>
        <time>2021-09-26T08:10:06Z</time>
      </trkpt>
      <trkpt lat="43.94189" lon="1.82187">
        <ele>265.2</ele>
        <time>2021-09-26T08:10:07Z</time>
      </trkpt>
      <trkpt lat="43.94194" lon="1.82181">
        <ele>265.2</ele>
        <time>2021-09-26T08:10:09Z</time>
      </trkpt>
      <trkpt lat="43.94196" lon="1.82178">
        <ele>265.2</ele>
        <time>2021-09-26T08:10:10Z</time>
      </trkpt>
      <trkpt lat="43.94197" lon="1.82175">
        <ele>265.2</ele>
        <time>2021-09-26T08:10:11Z</time>
      </trkpt>
      <trkpt lat="43.94199" lon="1.82173">
        <ele>265.2</ele>
        <time>2021-09-26T08:10:12Z</time>
      </trkpt>
      <trkpt lat="43.94201" lon="1.8217">
        <ele>265.2</ele>
        <time>2021-09-26T08:10:13Z</time>
      </trkpt>
      <trkpt lat="43.94202" lon="1.82168">
        <ele>265.2</ele>
        <time>2021-09-26T08:10:14Z</time>
      </trkpt>
      <trkpt lat="43.94204" lon="1.82165">
        <ele>265.2</ele>
        <time>2021-09-26T08:10:15Z</time>
      </trkpt>
      <trkpt lat="43.94209" lon="1.82158">
        <ele>265.2</ele>
        <time>2021-09-26T08:10:17Z</time>
      </trkpt>
      <trkpt lat="43.94213" lon="1.82153">
        <ele>265.4</ele>
        <time>2021-09-26T08:10:19Z</time>
      </trkpt>
      <trkpt lat="43.94216" lon="1.82149">
        <ele>265.4</ele>
        <time>2021-09-26T08:10:20Z</time>
      </trkpt>
      <trkpt lat="43.94218" lon="1.82147">
        <ele>265.4</ele>
        <time>2021-09-26T08:10:21Z</time>
      </trkpt>
      <trkpt lat="43.9422" lon="1.82144">
        <ele>265.6</ele>
        <time>2021-09-26T08:10:22Z</time>
      </trkpt>
      <trkpt lat="43.94222" lon="1.82142">
        <ele>265.6</ele>
        <time>2021-09-26T08:10:23Z</time>
      </trkpt>
      <trkpt lat="43.94225" lon="1.82138">
        <ele>265.6</ele>
        <time>2021-09-26T08:10:24Z</time>
      </trkpt>
      <trkpt lat="43.94229" lon="1.82133">
        <ele>265.6</ele>
        <time>2021-09-26T08:10:25Z</time>
      </trkpt>
      <trkpt lat="43.94237" lon="1.82121">
        <ele>265.8</ele>
        <time>2021-09-26T08:10:28Z</time>
      </trkpt>
      <trkpt lat="43.94243" lon="1.82112">
        <ele>265.8</ele>
        <time>2021-09-26T08:10:30Z</time>
      </trkpt>
      <trkpt lat="43.94256" lon="1.82087">
        <ele>266</ele>
        <time>2021-09-26T08:10:36Z</time>
      </trkpt>
      <trkpt lat="43.94258" lon="1.82082">
        <ele>266.2</ele>
        <time>2021-09-26T08:10:37Z</time>
      </trkpt>
      <trkpt lat="43.94266" lon="1.8207">
        <ele>266.4</ele>
        <time>2021-09-26T08:10:40Z</time>
      </trkpt>
      <trkpt lat="43.94268" lon="1.82066">
        <ele>266.6</ele>
        <time>2021-09-26T08:10:41Z</time>
      </trkpt>
      <trkpt lat="43.9427" lon="1.82063">
        <ele>266.8</ele>
        <time>2021-09-26T08:10:42Z</time>
      </trkpt>
      <trkpt lat="43.94273" lon="1.82059">
        <ele>267</ele>
        <time>2021-09-26T08:10:43Z</time>
      </trkpt>
      <trkpt lat="43.94275" lon="1.82056">
        <ele>267.2</ele>
        <time>2021-09-26T08:10:44Z</time>
      </trkpt>
      <trkpt lat="43.9428" lon="1.82049">
        <ele>267.6</ele>
        <time>2021-09-26T08:10:46Z</time>
      </trkpt>
      <trkpt lat="43.94294" lon="1.82035">
        <ele>268.4</ele>
        <time>2021-09-26T08:10:51Z</time>
      </trkpt>
      <trkpt lat="43.94297" lon="1.82033">
        <ele>268.6</ele>
        <time>2021-09-26T08:10:52Z</time>
      </trkpt>
      <trkpt lat="43.94302" lon="1.8203">
        <ele>268.8</ele>
        <time>2021-09-26T08:10:54Z</time>
      </trkpt>
      <trkpt lat="43.94304" lon="1.82028">
        <ele>268.8</ele>
        <time>2021-09-26T08:10:55Z</time>
      </trkpt>
      <trkpt lat="43.94307" lon="1.82027">
        <ele>269</ele>
        <time>2021-09-26T08:10:56Z</time>
      </trkpt>
      <trkpt lat="43.9431" lon="1.82026">
        <ele>269</ele>
        <time>2021-09-26T08:10:57Z</time>
      </trkpt>
      <trkpt lat="43.94312" lon="1.82024">
        <ele>269.2</ele>
        <time>2021-09-26T08:10:58Z</time>
      </trkpt>
      <trkpt lat="43.94313" lon="1.8202">
        <ele>269.2</ele>
        <time>2021-09-26T08:10:59Z</time>
      </trkpt>
      <trkpt lat="43.94313" lon="1.82017">
        <ele>269.4</ele>
        <time>2021-09-26T08:11:00Z</time>
      </trkpt>
      <trkpt lat="43.94314" lon="1.82014">
        <ele>269.4</ele>
        <time>2021-09-26T08:11:01Z</time>
      </trkpt>
      <trkpt lat="43.94314" lon="1.8201">
        <ele>269.6</ele>
        <time>2021-09-26T08:11:02Z</time>
      </trkpt>
      <trkpt lat="43.94314" lon="1.82007">
        <ele>269.8</ele>
        <time>2021-09-26T08:11:03Z</time>
      </trkpt>
      <trkpt lat="43.94314" lon="1.82002">
        <ele>270</ele>
        <time>2021-09-26T08:11:04Z</time>
      </trkpt>
      <trkpt lat="43.94314" lon="1.81998">
        <ele>270.4</ele>
        <time>2021-09-26T08:11:05Z</time>
      </trkpt>
      <trkpt lat="43.94314" lon="1.81994">
        <ele>270.4</ele>
        <time>2021-09-26T08:11:06Z</time>
      </trkpt>
      <trkpt lat="43.94313" lon="1.8199">
        <ele>270.6</ele>
        <time>2021-09-26T08:11:07Z</time>
      </trkpt>
      <trkpt lat="43.94313" lon="1.81985">
        <ele>270.8</ele>
        <time>2021-09-26T08:11:08Z</time>
      </trkpt>
      <trkpt lat="43.94312" lon="1.81981">
        <ele>271</ele>
        <time>2021-09-26T08:11:09Z</time>
      </trkpt>
      <trkpt lat="43.94312" lon="1.81976">
        <ele>271</ele>
        <time>2021-09-26T08:11:10Z</time>
      </trkpt>
      <trkpt lat="43.94311" lon="1.81971">
        <ele>271</ele>
        <time>2021-09-26T08:11:11Z</time>
      </trkpt>
      <trkpt lat="43.94311" lon="1.81967">
        <ele>271</ele>
        <time>2021-09-26T08:11:12Z</time>
      </trkpt>
      <trkpt lat="43.9431" lon="1.81962">
        <ele>271.2</ele>
        <time>2021-09-26T08:11:13Z</time>
      </trkpt>
      <trkpt lat="43.9431" lon="1.81957">
        <ele>271.2</ele>
        <time>2021-09-26T08:11:14Z</time>
      </trkpt>
      <trkpt lat="43.9431" lon="1.81952">
        <ele>271.2</ele>
        <time>2021-09-26T08:11:15Z</time>
      </trkpt>
      <trkpt lat="43.94311" lon="1.81947">
        <ele>271.2</ele>
        <time>2021-09-26T08:11:16Z</time>
      </trkpt>
      <trkpt lat="43.94313" lon="1.81943">
        <ele>271.2</ele>
        <time>2021-09-26T08:11:17Z</time>
      </trkpt>
      <trkpt lat="43.94315" lon="1.8194">
        <ele>271.2</ele>
        <time>2021-09-26T08:11:18Z</time>
      </trkpt>
      <trkpt lat="43.94318" lon="1.81938">
        <ele>271.2</ele>
        <time>2021-09-26T08:11:19Z</time>
      </trkpt>
      <trkpt lat="43.9432" lon="1.81937">
        <ele>271.2</ele>
        <time>2021-09-26T08:11:20Z</time>
      </trkpt>
      <trkpt lat="43.94323" lon="1.81936">
        <ele>271.2</ele>
        <time>2021-09-26T08:11:21Z</time>
      </trkpt>
      <trkpt lat="43.94326" lon="1.81935">
        <ele>271.2</ele>
        <time>2021-09-26T08:11:22Z</time>
      </trkpt>
      <trkpt lat="43.94329" lon="1.81934">
        <ele>271.4</ele>
        <time>2021-09-26T08:11:23Z</time>
      </trkpt>
      <trkpt lat="43.94331" lon="1.81933">
        <ele>271.4</ele>
        <time>2021-09-26T08:11:24Z</time>
      </trkpt>
      <trkpt lat="43.94334" lon="1.81932">
        <ele>271.8</ele>
        <time>2021-09-26T08:11:25Z</time>
      </trkpt>
      <trkpt lat="43.94337" lon="1.81931">
        <ele>272</ele>
        <time>2021-09-26T08:11:26Z</time>
      </trkpt>
      <trkpt lat="43.94339" lon="1.8193">
        <ele>272</ele>
        <time>2021-09-26T08:11:27Z</time>
      </trkpt>
      <trkpt lat="43.94342" lon="1.81929">
        <ele>272.2</ele>
        <time>2021-09-26T08:11:28Z</time>
      </trkpt>
      <trkpt lat="43.94364" lon="1.81922">
        <ele>272.8</ele>
        <time>2021-09-26T08:11:35Z</time>
      </trkpt>
      <trkpt lat="43.9437" lon="1.81922">
        <ele>273</ele>
        <time>2021-09-26T08:11:37Z</time>
      </trkpt>
      <trkpt lat="43.94376" lon="1.81925">
        <ele>273.4</ele>
        <time>2021-09-26T08:11:39Z</time>
      </trkpt>
      <trkpt lat="43.94378" lon="1.81927">
        <ele>273.4</ele>
        <time>2021-09-26T08:11:40Z</time>
      </trkpt>
      <trkpt lat="43.94381" lon="1.81929">
        <ele>273.4</ele>
        <time>2021-09-26T08:11:41Z</time>
      </trkpt>
      <trkpt lat="43.94384" lon="1.8193">
        <ele>273.6</ele>
        <time>2021-09-26T08:11:42Z</time>
      </trkpt>
      <trkpt lat="43.94387" lon="1.81931">
        <ele>273.8</ele>
        <time>2021-09-26T08:11:43Z</time>
      </trkpt>
      <trkpt lat="43.9439" lon="1.8193">
        <ele>274.2</ele>
        <time>2021-09-26T08:11:44Z</time>
      </trkpt>
      <trkpt lat="43.94394" lon="1.81929">
        <ele>274.2</ele>
        <time>2021-09-26T08:11:45Z</time>
      </trkpt>
      <trkpt lat="43.94397" lon="1.81928">
        <ele>274.4</ele>
        <time>2021-09-26T08:11:46Z</time>
      </trkpt>
      <trkpt lat="43.944" lon="1.81926">
        <ele>274.4</ele>
        <time>2021-09-26T08:11:47Z</time>
      </trkpt>
      <trkpt lat="43.94404" lon="1.81925">
        <ele>274.6</ele>
        <time>2021-09-26T08:11:48Z</time>
      </trkpt>
      <trkpt lat="43.94407" lon="1.81924">
        <ele>274.8</ele>
        <time>2021-09-26T08:11:49Z</time>
      </trkpt>
      <trkpt lat="43.94409" lon="1.81923">
        <ele>274.8</ele>
        <time>2021-09-26T08:11:50Z</time>
      </trkpt>
      <trkpt lat="43.94413" lon="1.81922">
        <ele>275</ele>
        <time>2021-09-26T08:11:51Z</time>
      </trkpt>
      <trkpt lat="43.94416" lon="1.81921">
        <ele>275</ele>
        <time>2021-09-26T08:11:52Z</time>
      </trkpt>
      <trkpt lat="43.94419" lon="1.8192">
        <ele>275</ele>
        <time>2021-09-26T08:11:53Z</time>
      </trkpt>
      <trkpt lat="43.94422" lon="1.81919">
        <ele>275.2</ele>
        <time>2021-09-26T08:11:54Z</time>
      </trkpt>
      <trkpt lat="43.94425" lon="1.81918">
        <ele>275.2</ele>
        <time>2021-09-26T08:11:55Z</time>
      </trkpt>
      <trkpt lat="43.94428" lon="1.81917">
        <ele>275.4</ele>
        <time>2021-09-26T08:11:56Z</time>
      </trkpt>
      <trkpt lat="43.94431" lon="1.81916">
        <ele>275.4</ele>
        <time>2021-09-26T08:11:57Z</time>
      </trkpt>
      <trkpt lat="43.94434" lon="1.81915">
        <ele>275.8</ele>
        <time>2021-09-26T08:11:58Z</time>
      </trkpt>
      <trkpt lat="43.94436" lon="1.81915">
        <ele>275.8</ele>
        <time>2021-09-26T08:11:59Z</time>
      </trkpt>
      <trkpt lat="43.94439" lon="1.81914">
        <ele>276.2</ele>
        <time>2021-09-26T08:12:00Z</time>
      </trkpt>
      <trkpt lat="43.94441" lon="1.81913">
        <ele>276.4</ele>
        <time>2021-09-26T08:12:01Z</time>
      </trkpt>
      <trkpt lat="43.94444" lon="1.81912">
        <ele>276.6</ele>
        <time>2021-09-26T08:12:02Z</time>
      </trkpt>
      <trkpt lat="43.94447" lon="1.81911">
        <ele>276.6</ele>
        <time>2021-09-26T08:12:03Z</time>
      </trkpt>
      <trkpt lat="43.9445" lon="1.8191">
        <ele>277</ele>
        <time>2021-09-26T08:12:04Z</time>
      </trkpt>
      <trkpt lat="43.94453" lon="1.81909">
        <ele>277.2</ele>
        <time>2021-09-26T08:12:05Z</time>
      </trkpt>
      <trkpt lat="43.94455" lon="1.81908">
        <ele>277.2</ele>
        <time>2021-09-26T08:12:06Z</time>
      </trkpt>
      <trkpt lat="43.94458" lon="1.81907">
        <ele>277.2</ele>
        <time>2021-09-26T08:12:07Z</time>
      </trkpt>
      <trkpt lat="43.9446" lon="1.81906">
        <ele>277.4</ele>
        <time>2021-09-26T08:12:08Z</time>
      </trkpt>
      <trkpt lat="43.94462" lon="1.81904">
        <ele>277.6</ele>
        <time>2021-09-26T08:12:09Z</time>
      </trkpt>
      <trkpt lat="43.94464" lon="1.81902">
        <ele>277.6</ele>
        <time>2021-09-26T08:12:10Z</time>
      </trkpt>
      <trkpt lat="43.94465" lon="1.819">
        <ele>277.6</ele>
        <time>2021-09-26T08:12:11Z</time>
      </trkpt>
      <trkpt lat="43.94466" lon="1.81899">
        <ele>277.8</ele>
        <time>2021-09-26T08:12:12Z</time>
      </trkpt>
      <trkpt lat="43.94467" lon="1.81898">
        <ele>277.8</ele>
        <time>2021-09-26T08:12:13Z</time>
      </trkpt>
      <trkpt lat="43.94467" lon="1.81897">
        <ele>278.2</ele>
        <time>2021-09-26T08:12:14Z</time>
      </trkpt>
      <trkpt lat="43.94468" lon="1.81896">
        <ele>278.2</ele>
        <time>2021-09-26T08:12:15Z</time>
      </trkpt>
      <trkpt lat="43.94468" lon="1.81895">
        <ele>278.4</ele>
        <time>2021-09-26T08:12:16Z</time>
      </trkpt>
      <trkpt lat="43.94469" lon="1.81895">
        <ele>278.4</ele>
        <time>2021-09-26T08:12:17Z</time>
      </trkpt>
      <trkpt lat="43.94469" lon="1.81895">
        <ele>278.4</ele>
        <time>2021-09-26T08:12:18Z</time>
      </trkpt>
      <trkpt lat="43.94469" lon="1.81895">
        <ele>278.6</ele>
        <time>2021-09-26T08:12:19Z</time>
      </trkpt>
      <trkpt lat="43.94473" lon="1.8189">
        <ele>278.6</ele>
        <time>2021-09-26T08:13:33Z</time>
      </trkpt>
      <trkpt lat="43.94478" lon="1.81886">
        <ele>278.6</ele>
        <time>2021-09-26T08:13:35Z</time>
      </trkpt>
      <trkpt lat="43.94486" lon="1.81877">
        <ele>279</ele>
        <time>2021-09-26T08:13:39Z</time>
      </trkpt>
      <trkpt lat="43.9449" lon="1.81873">
        <ele>279</ele>
        <time>2021-09-26T08:13:41Z</time>
      </trkpt>
      <trkpt lat="43.94502" lon="1.81868">
        <ele>279.2</ele>
        <time>2021-09-26T08:13:46Z</time>
      </trkpt>
      <trkpt lat="43.94505" lon="1.81867">
        <ele>279.2</ele>
        <time>2021-09-26T08:13:47Z</time>
      </trkpt>
      <trkpt lat="43.94513" lon="1.81869">
        <ele>279.4</ele>
        <time>2021-09-26T08:13:50Z</time>
      </trkpt>
      <trkpt lat="43.94515" lon="1.81869">
        <ele>279.4</ele>
        <time>2021-09-26T08:13:51Z</time>
      </trkpt>
      <trkpt lat="43.94523" lon="1.8187">
        <ele>279.6</ele>
        <time>2021-09-26T08:13:54Z</time>
      </trkpt>
      <trkpt lat="43.9455" lon="1.81876">
        <ele>280</ele>
        <time>2021-09-26T08:14:03Z</time>
      </trkpt>
      <trkpt lat="43.9457" lon="1.81877">
        <ele>280.2</ele>
        <time>2021-09-26T08:14:10Z</time>
      </trkpt>
      <trkpt lat="43.94573" lon="1.81876">
        <ele>280.4</ele>
        <time>2021-09-26T08:14:11Z</time>
      </trkpt>
      <trkpt lat="43.94578" lon="1.81875">
        <ele>280.4</ele>
        <time>2021-09-26T08:14:13Z</time>
      </trkpt>
      <trkpt lat="43.94581" lon="1.81874">
        <ele>280.4</ele>
        <time>2021-09-26T08:14:14Z</time>
      </trkpt>
      <trkpt lat="43.94609" lon="1.81862">
        <ele>281.2</ele>
        <time>2021-09-26T08:14:23Z</time>
      </trkpt>
      <trkpt lat="43.94612" lon="1.8186">
        <ele>281.2</ele>
        <time>2021-09-26T08:14:24Z</time>
      </trkpt>
      <trkpt lat="43.94627" lon="1.81854">
        <ele>281.2</ele>
        <time>2021-09-26T08:14:28Z</time>
      </trkpt>
      <trkpt lat="43.94645" lon="1.81846">
        <ele>281.4</ele>
        <time>2021-09-26T08:14:33Z</time>
      </trkpt>
      <trkpt lat="43.94668" lon="1.81836">
        <ele>281.4</ele>
        <time>2021-09-26T08:14:40Z</time>
      </trkpt>
      <trkpt lat="43.94671" lon="1.81833">
        <ele>281.4</ele>
        <time>2021-09-26T08:14:41Z</time>
      </trkpt>
      <trkpt lat="43.94674" lon="1.81832">
        <ele>281.4</ele>
        <time>2021-09-26T08:14:42Z</time>
      </trkpt>
      <trkpt lat="43.94677" lon="1.8183">
        <ele>281.4</ele>
        <time>2021-09-26T08:14:43Z</time>
      </trkpt>
      <trkpt lat="43.94681" lon="1.81829">
        <ele>281.4</ele>
        <time>2021-09-26T08:14:44Z</time>
      </trkpt>
      <trkpt lat="43.94684" lon="1.81827">
        <ele>281.6</ele>
        <time>2021-09-26T08:14:45Z</time>
      </trkpt>
      <trkpt lat="43.94687" lon="1.81826">
        <ele>282</ele>
        <time>2021-09-26T08:14:46Z</time>
      </trkpt>
      <trkpt lat="43.947" lon="1.81821">
        <ele>282</ele>
        <time>2021-09-26T08:14:50Z</time>
      </trkpt>
      <trkpt lat="43.94702" lon="1.81821">
        <ele>282</ele>
        <time>2021-09-26T08:14:51Z</time>
      </trkpt>
      <trkpt lat="43.94712" lon="1.81818">
        <ele>282</ele>
        <time>2021-09-26T08:14:54Z</time>
      </trkpt>
      <trkpt lat="43.94735" lon="1.81812">
        <ele>281.8</ele>
        <time>2021-09-26T08:15:01Z</time>
      </trkpt>
      <trkpt lat="43.9478" lon="1.81802">
        <ele>281.4</ele>
        <time>2021-09-26T08:15:13Z</time>
      </trkpt>
      <trkpt lat="43.94794" lon="1.81803">
        <ele>281.4</ele>
        <time>2021-09-26T08:15:17Z</time>
      </trkpt>
      <trkpt lat="43.94804" lon="1.81806">
        <ele>281.4</ele>
        <time>2021-09-26T08:15:20Z</time>
      </trkpt>
      <trkpt lat="43.94811" lon="1.81809">
        <ele>281.4</ele>
        <time>2021-09-26T08:15:22Z</time>
      </trkpt>
      <trkpt lat="43.94814" lon="1.81811">
        <ele>281.4</ele>
        <time>2021-09-26T08:15:23Z</time>
      </trkpt>
      <trkpt lat="43.94817" lon="1.81812">
        <ele>281.6</ele>
        <time>2021-09-26T08:15:24Z</time>
      </trkpt>
      <trkpt lat="43.94821" lon="1.81814">
        <ele>281.6</ele>
        <time>2021-09-26T08:15:25Z</time>
      </trkpt>
      <trkpt lat="43.94824" lon="1.81816">
        <ele>281.6</ele>
        <time>2021-09-26T08:15:26Z</time>
      </trkpt>
      <trkpt lat="43.94826" lon="1.81817">
        <ele>281.6</ele>
        <time>2021-09-26T08:15:27Z</time>
      </trkpt>
      <trkpt lat="43.94829" lon="1.81819">
        <ele>281.6</ele>
        <time>2021-09-26T08:15:28Z</time>
      </trkpt>
      <trkpt lat="43.94833" lon="1.8182">
        <ele>281.6</ele>
        <time>2021-09-26T08:15:29Z</time>
      </trkpt>
      <trkpt lat="43.94836" lon="1.81822">
        <ele>281.8</ele>
        <time>2021-09-26T08:15:30Z</time>
      </trkpt>
      <trkpt lat="43.94858" lon="1.81834">
        <ele>282</ele>
        <time>2021-09-26T08:15:37Z</time>
      </trkpt>
      <trkpt lat="43.94873" lon="1.81842">
        <ele>282</ele>
        <time>2021-09-26T08:15:42Z</time>
      </trkpt>
      <trkpt lat="43.94876" lon="1.81843">
        <ele>282</ele>
        <time>2021-09-26T08:15:43Z</time>
      </trkpt>
      <trkpt lat="43.94879" lon="1.81845">
        <ele>282</ele>
        <time>2021-09-26T08:15:44Z</time>
      </trkpt>
      <trkpt lat="43.94882" lon="1.81847">
        <ele>282.2</ele>
        <time>2021-09-26T08:15:45Z</time>
      </trkpt>
      <trkpt lat="43.94885" lon="1.81849">
        <ele>282</ele>
        <time>2021-09-26T08:15:46Z</time>
      </trkpt>
      <trkpt lat="43.94903" lon="1.8186">
        <ele>281.8</ele>
        <time>2021-09-26T08:15:51Z</time>
      </trkpt>
      <trkpt lat="43.94906" lon="1.81862">
        <ele>281.8</ele>
        <time>2021-09-26T08:15:52Z</time>
      </trkpt>
      <trkpt lat="43.9491" lon="1.81864">
        <ele>281.8</ele>
        <time>2021-09-26T08:15:53Z</time>
      </trkpt>
      <trkpt lat="43.94913" lon="1.81866">
        <ele>281.8</ele>
        <time>2021-09-26T08:15:54Z</time>
      </trkpt>
      <trkpt lat="43.94923" lon="1.8187">
        <ele>281.8</ele>
        <time>2021-09-26T08:15:57Z</time>
      </trkpt>
      <trkpt lat="43.94925" lon="1.81871">
        <ele>281.8</ele>
        <time>2021-09-26T08:15:58Z</time>
      </trkpt>
      <trkpt lat="43.94929" lon="1.81872">
        <ele>281.8</ele>
        <time>2021-09-26T08:15:59Z</time>
      </trkpt>
      <trkpt lat="43.94931" lon="1.81872">
        <ele>281.8</ele>
        <time>2021-09-26T08:16:00Z</time>
      </trkpt>
      <trkpt lat="43.94933" lon="1.81873">
        <ele>281.8</ele>
        <time>2021-09-26T08:16:01Z</time>
      </trkpt>
      <trkpt lat="43.94936" lon="1.81875">
        <ele>282</ele>
        <time>2021-09-26T08:16:02Z</time>
      </trkpt>
      <trkpt lat="43.94938" lon="1.81875">
        <ele>282</ele>
        <time>2021-09-26T08:16:03Z</time>
      </trkpt>
      <trkpt lat="43.94942" lon="1.81876">
        <ele>282.2</ele>
        <time>2021-09-26T08:16:04Z</time>
      </trkpt>
      <trkpt lat="43.94944" lon="1.81875">
        <ele>282.4</ele>
        <time>2021-09-26T08:16:05Z</time>
      </trkpt>
      <trkpt lat="43.94946" lon="1.81874">
        <ele>282.4</ele>
        <time>2021-09-26T08:16:06Z</time>
      </trkpt>
      <trkpt lat="43.94948" lon="1.81873">
        <ele>282.6</ele>
        <time>2021-09-26T08:16:07Z</time>
      </trkpt>
      <trkpt lat="43.94951" lon="1.8187">
        <ele>282.6</ele>
        <time>2021-09-26T08:16:08Z</time>
      </trkpt>
      <trkpt lat="43.94952" lon="1.81867">
        <ele>282.8</ele>
        <time>2021-09-26T08:16:09Z</time>
      </trkpt>
      <trkpt lat="43.94954" lon="1.81864">
        <ele>282.8</ele>
        <time>2021-09-26T08:16:10Z</time>
      </trkpt>
      <trkpt lat="43.94956" lon="1.81861">
        <ele>283</ele>
        <time>2021-09-26T08:16:11Z</time>
      </trkpt>
      <trkpt lat="43.94958" lon="1.81858">
        <ele>283.2</ele>
        <time>2021-09-26T08:16:12Z</time>
      </trkpt>
      <trkpt lat="43.94962" lon="1.81852">
        <ele>283.4</ele>
        <time>2021-09-26T08:16:14Z</time>
      </trkpt>
      <trkpt lat="43.94968" lon="1.81842">
        <ele>283.8</ele>
        <time>2021-09-26T08:16:17Z</time>
      </trkpt>
      <trkpt lat="43.94987" lon="1.81813">
        <ele>283.8</ele>
        <time>2021-09-26T08:16:25Z</time>
      </trkpt>
      <trkpt lat="43.94998" lon="1.81797">
        <ele>283.6</ele>
        <time>2021-09-26T08:16:30Z</time>
      </trkpt>
      <trkpt lat="43.95" lon="1.81794">
        <ele>283.6</ele>
        <time>2021-09-26T08:16:31Z</time>
      </trkpt>
      <trkpt lat="43.95002" lon="1.81792">
        <ele>283.6</ele>
        <time>2021-09-26T08:16:32Z</time>
      </trkpt>
      <trkpt lat="43.95004" lon="1.81788">
        <ele>283.4</ele>
        <time>2021-09-26T08:16:33Z</time>
      </trkpt>
      <trkpt lat="43.95006" lon="1.81785">
        <ele>283.4</ele>
        <time>2021-09-26T08:16:34Z</time>
      </trkpt>
      <trkpt lat="43.95015" lon="1.81771">
        <ele>283.4</ele>
        <time>2021-09-26T08:16:38Z</time>
      </trkpt>
      <trkpt lat="43.95026" lon="1.81749">
        <ele>283.2</ele>
        <time>2021-09-26T08:16:44Z</time>
      </trkpt>
      <trkpt lat="43.95039" lon="1.81718">
        <ele>283.2</ele>
        <time>2021-09-26T08:16:51Z</time>
      </trkpt>
      <trkpt lat="43.9505" lon="1.8169">
        <ele>283</ele>
        <time>2021-09-26T08:16:57Z</time>
      </trkpt>
      <trkpt lat="43.95058" lon="1.8167">
        <ele>283</ele>
        <time>2021-09-26T08:17:02Z</time>
      </trkpt>
      <trkpt lat="43.9506" lon="1.81667">
        <ele>283</ele>
        <time>2021-09-26T08:17:03Z</time>
      </trkpt>
      <trkpt lat="43.95061" lon="1.81664">
        <ele>283</ele>
        <time>2021-09-26T08:17:04Z</time>
      </trkpt>
      <trkpt lat="43.95071" lon="1.81643">
        <ele>282.6</ele>
        <time>2021-09-26T08:17:09Z</time>
      </trkpt>
      <trkpt lat="43.95078" lon="1.8163">
        <ele>282.4</ele>
        <time>2021-09-26T08:17:12Z</time>
      </trkpt>
      <trkpt lat="43.95084" lon="1.81615">
        <ele>282.2</ele>
        <time>2021-09-26T08:17:16Z</time>
      </trkpt>
      <trkpt lat="43.95086" lon="1.81612">
        <ele>282.2</ele>
        <time>2021-09-26T08:17:17Z</time>
      </trkpt>
      <trkpt lat="43.95087" lon="1.81608">
        <ele>282.2</ele>
        <time>2021-09-26T08:17:18Z</time>
      </trkpt>
      <trkpt lat="43.95089" lon="1.81606">
        <ele>282</ele>
        <time>2021-09-26T08:17:19Z</time>
      </trkpt>
      <trkpt lat="43.9509" lon="1.81603">
        <ele>281.8</ele>
        <time>2021-09-26T08:17:20Z</time>
      </trkpt>
      <trkpt lat="43.95095" lon="1.81592">
        <ele>281.8</ele>
        <time>2021-09-26T08:17:23Z</time>
      </trkpt>
      <trkpt lat="43.95096" lon="1.81589">
        <ele>281.6</ele>
        <time>2021-09-26T08:17:24Z</time>
      </trkpt>
      <trkpt lat="43.9511" lon="1.81559">
        <ele>281.4</ele>
        <time>2021-09-26T08:17:32Z</time>
      </trkpt>
      <trkpt lat="43.95125" lon="1.81534">
        <ele>281.4</ele>
        <time>2021-09-26T08:17:38Z</time>
      </trkpt>
      <trkpt lat="43.95145" lon="1.81506">
        <ele>281.4</ele>
        <time>2021-09-26T08:17:45Z</time>
      </trkpt>
      <trkpt lat="43.95153" lon="1.81495">
        <ele>281</ele>
        <time>2021-09-26T08:17:48Z</time>
      </trkpt>
      <trkpt lat="43.95156" lon="1.81492">
        <ele>281</ele>
        <time>2021-09-26T08:17:49Z</time>
      </trkpt>
      <trkpt lat="43.95159" lon="1.81489">
        <ele>280.8</ele>
        <time>2021-09-26T08:17:50Z</time>
      </trkpt>
      <trkpt lat="43.95162" lon="1.81486">
        <ele>280.8</ele>
        <time>2021-09-26T08:17:51Z</time>
      </trkpt>
      <trkpt lat="43.95164" lon="1.81482">
        <ele>280.8</ele>
        <time>2021-09-26T08:17:52Z</time>
      </trkpt>
      <trkpt lat="43.95167" lon="1.81478">
        <ele>280.8</ele>
        <time>2021-09-26T08:17:53Z</time>
      </trkpt>
      <trkpt lat="43.95169" lon="1.81474">
        <ele>280.8</ele>
        <time>2021-09-26T08:17:54Z</time>
      </trkpt>
      <trkpt lat="43.95172" lon="1.8147">
        <ele>280.8</ele>
        <time>2021-09-26T08:17:55Z</time>
      </trkpt>
      <trkpt lat="43.95175" lon="1.81467">
        <ele>280.8</ele>
        <time>2021-09-26T08:17:56Z</time>
      </trkpt>
      <trkpt lat="43.9518" lon="1.81462">
        <ele>281.2</ele>
        <time>2021-09-26T08:17:58Z</time>
      </trkpt>
      <trkpt lat="43.95183" lon="1.81458">
        <ele>281.4</ele>
        <time>2021-09-26T08:17:59Z</time>
      </trkpt>
      <trkpt lat="43.95187" lon="1.81455">
        <ele>281.6</ele>
        <time>2021-09-26T08:18:00Z</time>
      </trkpt>
      <trkpt lat="43.95201" lon="1.81439">
        <ele>282</ele>
        <time>2021-09-26T08:18:05Z</time>
      </trkpt>
      <trkpt lat="43.95203" lon="1.81437">
        <ele>282</ele>
        <time>2021-09-26T08:18:06Z</time>
      </trkpt>
      <trkpt lat="43.95205" lon="1.81433">
        <ele>282</ele>
        <time>2021-09-26T08:18:07Z</time>
      </trkpt>
      <trkpt lat="43.95208" lon="1.8143">
        <ele>282</ele>
        <time>2021-09-26T08:18:08Z</time>
      </trkpt>
      <trkpt lat="43.95211" lon="1.81427">
        <ele>282</ele>
        <time>2021-09-26T08:18:09Z</time>
      </trkpt>
      <trkpt lat="43.95223" lon="1.81407">
        <ele>281.8</ele>
        <time>2021-09-26T08:18:14Z</time>
      </trkpt>
      <trkpt lat="43.95224" lon="1.81403">
        <ele>281.8</ele>
        <time>2021-09-26T08:18:15Z</time>
      </trkpt>
      <trkpt lat="43.95226" lon="1.81399">
        <ele>281.8</ele>
        <time>2021-09-26T08:18:16Z</time>
      </trkpt>
      <trkpt lat="43.95228" lon="1.81395">
        <ele>281.8</ele>
        <time>2021-09-26T08:18:17Z</time>
      </trkpt>
      <trkpt lat="43.95229" lon="1.81391">
        <ele>281.8</ele>
        <time>2021-09-26T08:18:18Z</time>
      </trkpt>
      <trkpt lat="43.95233" lon="1.81383">
        <ele>281.6</ele>
        <time>2021-09-26T08:18:20Z</time>
      </trkpt>
      <trkpt lat="43.95235" lon="1.81379">
        <ele>281.6</ele>
        <time>2021-09-26T08:18:21Z</time>
      </trkpt>
      <trkpt lat="43.95237" lon="1.81375">
        <ele>281.6</ele>
        <time>2021-09-26T08:18:22Z</time>
      </trkpt>
      <trkpt lat="43.95239" lon="1.81371">
        <ele>281.6</ele>
        <time>2021-09-26T08:18:23Z</time>
      </trkpt>
      <trkpt lat="43.95242" lon="1.81367">
        <ele>281.6</ele>
        <time>2021-09-26T08:18:24Z</time>
      </trkpt>
      <trkpt lat="43.95254" lon="1.81356">
        <ele>281.4</ele>
        <time>2021-09-26T08:18:28Z</time>
      </trkpt>
      <trkpt lat="43.95257" lon="1.81354">
        <ele>281.4</ele>
        <time>2021-09-26T08:18:29Z</time>
      </trkpt>
      <trkpt lat="43.95272" lon="1.81336">
        <ele>281.4</ele>
        <time>2021-09-26T08:18:34Z</time>
      </trkpt>
      <trkpt lat="43.95274" lon="1.81331">
        <ele>281.4</ele>
        <time>2021-09-26T08:18:35Z</time>
      </trkpt>
      <trkpt lat="43.95276" lon="1.81327">
        <ele>281.4</ele>
        <time>2021-09-26T08:18:36Z</time>
      </trkpt>
      <trkpt lat="43.95277" lon="1.81323">
        <ele>281.4</ele>
        <time>2021-09-26T08:18:37Z</time>
      </trkpt>
      <trkpt lat="43.95279" lon="1.8132">
        <ele>281.4</ele>
        <time>2021-09-26T08:18:38Z</time>
      </trkpt>
      <trkpt lat="43.95281" lon="1.81316">
        <ele>281.8</ele>
        <time>2021-09-26T08:18:39Z</time>
      </trkpt>
      <trkpt lat="43.95283" lon="1.81312">
        <ele>281.8</ele>
        <time>2021-09-26T08:18:40Z</time>
      </trkpt>
      <trkpt lat="43.95294" lon="1.81289">
        <ele>282.2</ele>
        <time>2021-09-26T08:18:45Z</time>
      </trkpt>
      <trkpt lat="43.953" lon="1.81275">
        <ele>282.2</ele>
        <time>2021-09-26T08:18:48Z</time>
      </trkpt>
      <trkpt lat="43.95299" lon="1.81271">
        <ele>282.2</ele>
        <time>2021-09-26T08:18:49Z</time>
      </trkpt>
      <trkpt lat="43.95298" lon="1.81268">
        <ele>282.2</ele>
        <time>2021-09-26T08:18:50Z</time>
      </trkpt>
      <trkpt lat="43.95296" lon="1.81265">
        <ele>282</ele>
        <time>2021-09-26T08:18:51Z</time>
      </trkpt>
      <trkpt lat="43.95294" lon="1.81264">
        <ele>282</ele>
        <time>2021-09-26T08:18:52Z</time>
      </trkpt>
      <trkpt lat="43.95293" lon="1.81263">
        <ele>282</ele>
        <time>2021-09-26T08:18:53Z</time>
      </trkpt>
      <trkpt lat="43.95292" lon="1.81262">
        <ele>282</ele>
        <time>2021-09-26T08:18:54Z</time>
      </trkpt>
      <trkpt lat="43.9529" lon="1.81261">
        <ele>282</ele>
        <time>2021-09-26T08:18:55Z</time>
      </trkpt>
      <trkpt lat="43.9529" lon="1.8126">
        <ele>282</ele>
        <time>2021-09-26T08:18:56Z</time>
      </trkpt>
      <trkpt lat="43.95287" lon="1.81257">
        <ele>282</ele>
        <time>2021-09-26T08:18:59Z</time>
      </trkpt>
      <trkpt lat="43.95287" lon="1.81257">
        <ele>282.2</ele>
        <time>2021-09-26T08:19:00Z</time>
      </trkpt>
      <trkpt lat="43.95287" lon="1.81257">
        <ele>282.4</ele>
        <time>2021-09-26T08:19:01Z</time>
      </trkpt>
      <trkpt lat="43.95287" lon="1.81257">
        <ele>282.4</ele>
        <time>2021-09-26T08:19:02Z</time>
      </trkpt>
      <trkpt lat="43.95282" lon="1.81253">
        <ele>282.2</ele>
        <time>2021-09-26T08:19:26Z</time>
      </trkpt>
      <trkpt lat="43.95278" lon="1.81251">
        <ele>282.2</ele>
        <time>2021-09-26T08:19:28Z</time>
      </trkpt>
      <trkpt lat="43.95274" lon="1.81248">
        <ele>282.6</ele>
        <time>2021-09-26T08:19:30Z</time>
      </trkpt>
      <trkpt lat="43.95261" lon="1.81242">
        <ele>282.8</ele>
        <time>2021-09-26T08:19:35Z</time>
      </trkpt>
      <trkpt lat="43.9524" lon="1.81235">
        <ele>283</ele>
        <time>2021-09-26T08:19:41Z</time>
      </trkpt>
      <trkpt lat="43.95214" lon="1.81226">
        <ele>282.8</ele>
        <time>2021-09-26T08:19:48Z</time>
      </trkpt>
      <trkpt lat="43.952" lon="1.81219">
        <ele>282.6</ele>
        <time>2021-09-26T08:19:51Z</time>
      </trkpt>
      <trkpt lat="43.95196" lon="1.81216">
        <ele>282.6</ele>
        <time>2021-09-26T08:19:52Z</time>
      </trkpt>
      <trkpt lat="43.95193" lon="1.81213">
        <ele>282.4</ele>
        <time>2021-09-26T08:19:53Z</time>
      </trkpt>
      <trkpt lat="43.95189" lon="1.81208">
        <ele>282.4</ele>
        <time>2021-09-26T08:19:54Z</time>
      </trkpt>
      <trkpt lat="43.95186" lon="1.81204">
        <ele>282.2</ele>
        <time>2021-09-26T08:19:55Z</time>
      </trkpt>
      <trkpt lat="43.95183" lon="1.812">
        <ele>282.2</ele>
        <time>2021-09-26T08:19:56Z</time>
      </trkpt>
      <trkpt lat="43.95176" lon="1.8119">
        <ele>281.4</ele>
        <time>2021-09-26T08:19:59Z</time>
      </trkpt>
      <trkpt lat="43.95174" lon="1.81186">
        <ele>281.4</ele>
        <time>2021-09-26T08:20:00Z</time>
      </trkpt>
      <trkpt lat="43.95172" lon="1.81181">
        <ele>281.4</ele>
        <time>2021-09-26T08:20:01Z</time>
      </trkpt>
      <trkpt lat="43.95171" lon="1.81175">
        <ele>281.4</ele>
        <time>2021-09-26T08:20:02Z</time>
      </trkpt>
      <trkpt lat="43.95171" lon="1.81169">
        <ele>281.4</ele>
        <time>2021-09-26T08:20:03Z</time>
      </trkpt>
      <trkpt lat="43.95172" lon="1.81164">
        <ele>281.2</ele>
        <time>2021-09-26T08:20:04Z</time>
      </trkpt>
      <trkpt lat="43.95173" lon="1.81158">
        <ele>281.4</ele>
        <time>2021-09-26T08:20:05Z</time>
      </trkpt>
      <trkpt lat="43.95173" lon="1.81152">
        <ele>281.4</ele>
        <time>2021-09-26T08:20:06Z</time>
      </trkpt>
      <trkpt lat="43.95174" lon="1.81146">
        <ele>281.4</ele>
        <time>2021-09-26T08:20:07Z</time>
      </trkpt>
      <trkpt lat="43.95172" lon="1.81134">
        <ele>281.4</ele>
        <time>2021-09-26T08:20:09Z</time>
      </trkpt>
      <trkpt lat="43.9517" lon="1.81123">
        <ele>281.4</ele>
        <time>2021-09-26T08:20:11Z</time>
      </trkpt>
      <trkpt lat="43.95164" lon="1.81096">
        <ele>281.2</ele>
        <time>2021-09-26T08:20:16Z</time>
      </trkpt>
      <trkpt lat="43.9516" lon="1.81074">
        <ele>281.2</ele>
        <time>2021-09-26T08:20:20Z</time>
      </trkpt>
      <trkpt lat="43.95159" lon="1.81068">
        <ele>281.4</ele>
        <time>2021-09-26T08:20:21Z</time>
      </trkpt>
      <trkpt lat="43.95158" lon="1.81063">
        <ele>281.4</ele>
        <time>2021-09-26T08:20:22Z</time>
      </trkpt>
      <trkpt lat="43.95157" lon="1.81058">
        <ele>281.4</ele>
        <time>2021-09-26T08:20:23Z</time>
      </trkpt>
      <trkpt lat="43.95154" lon="1.81042">
        <ele>281.8</ele>
        <time>2021-09-26T08:20:26Z</time>
      </trkpt>
      <trkpt lat="43.95152" lon="1.81031">
        <ele>282</ele>
        <time>2021-09-26T08:20:28Z</time>
      </trkpt>
      <trkpt lat="43.9515" lon="1.81026">
        <ele>282</ele>
        <time>2021-09-26T08:20:29Z</time>
      </trkpt>
      <trkpt lat="43.95143" lon="1.81006">
        <ele>282.4</ele>
        <time>2021-09-26T08:20:33Z</time>
      </trkpt>
      <trkpt lat="43.95142" lon="1.81">
        <ele>282.8</ele>
        <time>2021-09-26T08:20:34Z</time>
      </trkpt>
      <trkpt lat="43.95137" lon="1.80971">
        <ele>283.4</ele>
        <time>2021-09-26T08:20:39Z</time>
      </trkpt>
      <trkpt lat="43.95136" lon="1.80959">
        <ele>283.6</ele>
        <time>2021-09-26T08:20:41Z</time>
      </trkpt>
      <trkpt lat="43.95135" lon="1.80953">
        <ele>283.6</ele>
        <time>2021-09-26T08:20:42Z</time>
      </trkpt>
      <trkpt lat="43.95128" lon="1.80916">
        <ele>283.8</ele>
        <time>2021-09-26T08:20:48Z</time>
      </trkpt>
      <trkpt lat="43.95119" lon="1.80878">
        <ele>283.6</ele>
        <time>2021-09-26T08:20:54Z</time>
      </trkpt>
      <trkpt lat="43.95115" lon="1.80872">
        <ele>283.4</ele>
        <time>2021-09-26T08:20:55Z</time>
      </trkpt>
      <trkpt lat="43.95102" lon="1.80844">
        <ele>282.6</ele>
        <time>2021-09-26T08:20:59Z</time>
      </trkpt>
      <trkpt lat="43.95101" lon="1.80836">
        <ele>282</ele>
        <time>2021-09-26T08:21:00Z</time>
      </trkpt>
      <trkpt lat="43.951" lon="1.80828">
        <ele>281.8</ele>
        <time>2021-09-26T08:21:01Z</time>
      </trkpt>
      <trkpt lat="43.951" lon="1.8082">
        <ele>281.4</ele>
        <time>2021-09-26T08:21:02Z</time>
      </trkpt>
      <trkpt lat="43.95101" lon="1.80812">
        <ele>281.4</ele>
        <time>2021-09-26T08:21:03Z</time>
      </trkpt>
      <trkpt lat="43.95101" lon="1.80805">
        <ele>281.4</ele>
        <time>2021-09-26T08:21:04Z</time>
      </trkpt>
      <trkpt lat="43.95101" lon="1.80798">
        <ele>281.4</ele>
        <time>2021-09-26T08:21:05Z</time>
      </trkpt>
      <trkpt lat="43.95102" lon="1.80792">
        <ele>281.2</ele>
        <time>2021-09-26T08:21:06Z</time>
      </trkpt>
      <trkpt lat="43.95102" lon="1.80787">
        <ele>281</ele>
        <time>2021-09-26T08:21:07Z</time>
      </trkpt>
      <trkpt lat="43.95103" lon="1.80782">
        <ele>281</ele>
        <time>2021-09-26T08:21:08Z</time>
      </trkpt>
      <trkpt lat="43.95103" lon="1.80778">
        <ele>280.8</ele>
        <time>2021-09-26T08:21:09Z</time>
      </trkpt>
      <trkpt lat="43.95103" lon="1.80773">
        <ele>280.8</ele>
        <time>2021-09-26T08:21:10Z</time>
      </trkpt>
      <trkpt lat="43.95103" lon="1.80768">
        <ele>280.6</ele>
        <time>2021-09-26T08:21:11Z</time>
      </trkpt>
      <trkpt lat="43.95102" lon="1.80758">
        <ele>280.4</ele>
        <time>2021-09-26T08:21:13Z</time>
      </trkpt>
      <trkpt lat="43.95101" lon="1.80747">
        <ele>280.6</ele>
        <time>2021-09-26T08:21:15Z</time>
      </trkpt>
      <trkpt lat="43.95101" lon="1.80742">
        <ele>280.6</ele>
        <time>2021-09-26T08:21:16Z</time>
      </trkpt>
      <trkpt lat="43.951" lon="1.80736">
        <ele>280.8</ele>
        <time>2021-09-26T08:21:17Z</time>
      </trkpt>
      <trkpt lat="43.95094" lon="1.80698">
        <ele>281</ele>
        <time>2021-09-26T08:21:24Z</time>
      </trkpt>
      <trkpt lat="43.9509" lon="1.8068">
        <ele>281.2</ele>
        <time>2021-09-26T08:21:28Z</time>
      </trkpt>
      <trkpt lat="43.95089" lon="1.80676">
        <ele>281.4</ele>
        <time>2021-09-26T08:21:29Z</time>
      </trkpt>
      <trkpt lat="43.95088" lon="1.80673">
        <ele>281.6</ele>
        <time>2021-09-26T08:21:30Z</time>
      </trkpt>
      <trkpt lat="43.95087" lon="1.8067">
        <ele>281.6</ele>
        <time>2021-09-26T08:21:31Z</time>
      </trkpt>
      <trkpt lat="43.95086" lon="1.80668">
        <ele>281.8</ele>
        <time>2021-09-26T08:21:32Z</time>
      </trkpt>
      <trkpt lat="43.95084" lon="1.80666">
        <ele>281.8</ele>
        <time>2021-09-26T08:21:33Z</time>
      </trkpt>
      <trkpt lat="43.95083" lon="1.80665">
        <ele>282</ele>
        <time>2021-09-26T08:21:34Z</time>
      </trkpt>
      <trkpt lat="43.95081" lon="1.80663">
        <ele>282.2</ele>
        <time>2021-09-26T08:21:35Z</time>
      </trkpt>
      <trkpt lat="43.95079" lon="1.80662">
        <ele>282.6</ele>
        <time>2021-09-26T08:21:36Z</time>
      </trkpt>
      <trkpt lat="43.95078" lon="1.80661">
        <ele>282.8</ele>
        <time>2021-09-26T08:21:37Z</time>
      </trkpt>
      <trkpt lat="43.95076" lon="1.8066">
        <ele>282.8</ele>
        <time>2021-09-26T08:21:38Z</time>
      </trkpt>
      <trkpt lat="43.95072" lon="1.80658">
        <ele>283.4</ele>
        <time>2021-09-26T08:21:40Z</time>
      </trkpt>
      <trkpt lat="43.95066" lon="1.80652">
        <ele>283.8</ele>
        <time>2021-09-26T08:21:43Z</time>
      </trkpt>
      <trkpt lat="43.95066" lon="1.80647">
        <ele>284</ele>
        <time>2021-09-26T08:21:45Z</time>
      </trkpt>
      <trkpt lat="43.95068" lon="1.80641">
        <ele>284.2</ele>
        <time>2021-09-26T08:21:47Z</time>
      </trkpt>
      <trkpt lat="43.95068" lon="1.80638">
        <ele>284.4</ele>
        <time>2021-09-26T08:21:48Z</time>
      </trkpt>
      <trkpt lat="43.95069" lon="1.80635">
        <ele>284.4</ele>
        <time>2021-09-26T08:21:49Z</time>
      </trkpt>
      <trkpt lat="43.95069" lon="1.80632">
        <ele>284.6</ele>
        <time>2021-09-26T08:21:50Z</time>
      </trkpt>
      <trkpt lat="43.9507" lon="1.80629">
        <ele>284.6</ele>
        <time>2021-09-26T08:21:51Z</time>
      </trkpt>
      <trkpt lat="43.95071" lon="1.80626">
        <ele>284.6</ele>
        <time>2021-09-26T08:21:52Z</time>
      </trkpt>
      <trkpt lat="43.95072" lon="1.80623">
        <ele>284.6</ele>
        <time>2021-09-26T08:21:53Z</time>
      </trkpt>
      <trkpt lat="43.95072" lon="1.8062">
        <ele>284.6</ele>
        <time>2021-09-26T08:21:54Z</time>
      </trkpt>
      <trkpt lat="43.95073" lon="1.80617">
        <ele>284.8</ele>
        <time>2021-09-26T08:21:55Z</time>
      </trkpt>
      <trkpt lat="43.95074" lon="1.80614">
        <ele>284.8</ele>
        <time>2021-09-26T08:21:56Z</time>
      </trkpt>
      <trkpt lat="43.95075" lon="1.80611">
        <ele>284.8</ele>
        <time>2021-09-26T08:21:57Z</time>
      </trkpt>
      <trkpt lat="43.95075" lon="1.80607">
        <ele>284.8</ele>
        <time>2021-09-26T08:21:58Z</time>
      </trkpt>
      <trkpt lat="43.95076" lon="1.80604">
        <ele>284.8</ele>
        <time>2021-09-26T08:21:59Z</time>
      </trkpt>
      <trkpt lat="43.95077" lon="1.80601">
        <ele>284.8</ele>
        <time>2021-09-26T08:22:00Z</time>
      </trkpt>
      <trkpt lat="43.9508" lon="1.80584">
        <ele>285</ele>
        <time>2021-09-26T08:22:05Z</time>
      </trkpt>
      <trkpt lat="43.95088" lon="1.8055">
        <ele>285.4</ele>
        <time>2021-09-26T08:22:15Z</time>
      </trkpt>
      <trkpt lat="43.95095" lon="1.80519">
        <ele>285.6</ele>
        <time>2021-09-26T08:22:24Z</time>
      </trkpt>
      <trkpt lat="43.95095" lon="1.80516">
        <ele>285.6</ele>
        <time>2021-09-26T08:22:25Z</time>
      </trkpt>
      <trkpt lat="43.95096" lon="1.80512">
        <ele>285.6</ele>
        <time>2021-09-26T08:22:26Z</time>
      </trkpt>
      <trkpt lat="43.95097" lon="1.80509">
        <ele>285.6</ele>
        <time>2021-09-26T08:22:27Z</time>
      </trkpt>
      <trkpt lat="43.95106" lon="1.8047">
        <ele>285.6</ele>
        <time>2021-09-26T08:22:36Z</time>
      </trkpt>
      <trkpt lat="43.95115" lon="1.80434">
        <ele>285</ele>
        <time>2021-09-26T08:22:43Z</time>
      </trkpt>
      <trkpt lat="43.95122" lon="1.80389">
        <ele>284.4</ele>
        <time>2021-09-26T08:22:51Z</time>
      </trkpt>
      <trkpt lat="43.95123" lon="1.80384">
        <ele>284.2</ele>
        <time>2021-09-26T08:22:52Z</time>
      </trkpt>
      <trkpt lat="43.95125" lon="1.80361">
        <ele>284</ele>
        <time>2021-09-26T08:22:56Z</time>
      </trkpt>
      <trkpt lat="43.95126" lon="1.80355">
        <ele>284</ele>
        <time>2021-09-26T08:22:57Z</time>
      </trkpt>
      <trkpt lat="43.95126" lon="1.8035">
        <ele>283.8</ele>
        <time>2021-09-26T08:22:58Z</time>
      </trkpt>
      <trkpt lat="43.95126" lon="1.80344">
        <ele>283.8</ele>
        <time>2021-09-26T08:22:59Z</time>
      </trkpt>
      <trkpt lat="43.95128" lon="1.80312">
        <ele>283.4</ele>
        <time>2021-09-26T08:23:05Z</time>
      </trkpt>
      <trkpt lat="43.95128" lon="1.80277">
        <ele>283</ele>
        <time>2021-09-26T08:23:11Z</time>
      </trkpt>
      <trkpt lat="43.95126" lon="1.80265">
        <ele>283</ele>
        <time>2021-09-26T08:23:13Z</time>
      </trkpt>
      <trkpt lat="43.95124" lon="1.80246">
        <ele>282.8</ele>
        <time>2021-09-26T08:23:16Z</time>
      </trkpt>
      <trkpt lat="43.95125" lon="1.80234">
        <ele>282.6</ele>
        <time>2021-09-26T08:23:18Z</time>
      </trkpt>
      <trkpt lat="43.95127" lon="1.80228">
        <ele>282.6</ele>
        <time>2021-09-26T08:23:19Z</time>
      </trkpt>
      <trkpt lat="43.95128" lon="1.80223">
        <ele>282.6</ele>
        <time>2021-09-26T08:23:20Z</time>
      </trkpt>
      <trkpt lat="43.9513" lon="1.80217">
        <ele>282.6</ele>
        <time>2021-09-26T08:23:21Z</time>
      </trkpt>
      <trkpt lat="43.95135" lon="1.80196">
        <ele>282.4</ele>
        <time>2021-09-26T08:23:25Z</time>
      </trkpt>
      <trkpt lat="43.95137" lon="1.80191">
        <ele>282.4</ele>
        <time>2021-09-26T08:23:26Z</time>
      </trkpt>
      <trkpt lat="43.95138" lon="1.80186">
        <ele>282.2</ele>
        <time>2021-09-26T08:23:27Z</time>
      </trkpt>
      <trkpt lat="43.9514" lon="1.80182">
        <ele>282.2</ele>
        <time>2021-09-26T08:23:28Z</time>
      </trkpt>
      <trkpt lat="43.95141" lon="1.80177">
        <ele>282</ele>
        <time>2021-09-26T08:23:29Z</time>
      </trkpt>
      <trkpt lat="43.95142" lon="1.80172">
        <ele>282</ele>
        <time>2021-09-26T08:23:30Z</time>
      </trkpt>
      <trkpt lat="43.95142" lon="1.80166">
        <ele>282</ele>
        <time>2021-09-26T08:23:31Z</time>
      </trkpt>
      <trkpt lat="43.95142" lon="1.8016">
        <ele>281.8</ele>
        <time>2021-09-26T08:23:32Z</time>
      </trkpt>
      <trkpt lat="43.95142" lon="1.80155">
        <ele>281.8</ele>
        <time>2021-09-26T08:23:33Z</time>
      </trkpt>
      <trkpt lat="43.95142" lon="1.8015">
        <ele>281.8</ele>
        <time>2021-09-26T08:23:34Z</time>
      </trkpt>
      <trkpt lat="43.95142" lon="1.80145">
        <ele>281.8</ele>
        <time>2021-09-26T08:23:35Z</time>
      </trkpt>
      <trkpt lat="43.95141" lon="1.8014">
        <ele>281.8</ele>
        <time>2021-09-26T08:23:36Z</time>
      </trkpt>
      <trkpt lat="43.95141" lon="1.80134">
        <ele>281.8</ele>
        <time>2021-09-26T08:23:37Z</time>
      </trkpt>
      <trkpt lat="43.9514" lon="1.80129">
        <ele>281.6</ele>
        <time>2021-09-26T08:23:38Z</time>
      </trkpt>
      <trkpt lat="43.95136" lon="1.80073">
        <ele>281.6</ele>
        <time>2021-09-26T08:23:48Z</time>
      </trkpt>
      <trkpt lat="43.95128" lon="1.80025">
        <ele>282.4</ele>
        <time>2021-09-26T08:23:56Z</time>
      </trkpt>
      <trkpt lat="43.95118" lon="1.79967">
        <ele>282.6</ele>
        <time>2021-09-26T08:24:05Z</time>
      </trkpt>
      <trkpt lat="43.95114" lon="1.79926">
        <ele>282.8</ele>
        <time>2021-09-26T08:24:12Z</time>
      </trkpt>
      <trkpt lat="43.95113" lon="1.7992">
        <ele>283</ele>
        <time>2021-09-26T08:24:13Z</time>
      </trkpt>
      <trkpt lat="43.95112" lon="1.79914">
        <ele>283</ele>
        <time>2021-09-26T08:24:14Z</time>
      </trkpt>
      <trkpt lat="43.95111" lon="1.79908">
        <ele>283</ele>
        <time>2021-09-26T08:24:15Z</time>
      </trkpt>
      <trkpt lat="43.95111" lon="1.79903">
        <ele>283.2</ele>
        <time>2021-09-26T08:24:16Z</time>
      </trkpt>
      <trkpt lat="43.9511" lon="1.79896">
        <ele>283.2</ele>
        <time>2021-09-26T08:24:17Z</time>
      </trkpt>
      <trkpt lat="43.9511" lon="1.79892">
        <ele>283.2</ele>
        <time>2021-09-26T08:24:18Z</time>
      </trkpt>
      <trkpt lat="43.95109" lon="1.79886">
        <ele>283.4</ele>
        <time>2021-09-26T08:24:19Z</time>
      </trkpt>
      <trkpt lat="43.95108" lon="1.7988">
        <ele>283.4</ele>
        <time>2021-09-26T08:24:20Z</time>
      </trkpt>
      <trkpt lat="43.95108" lon="1.79874">
        <ele>283.4</ele>
        <time>2021-09-26T08:24:21Z</time>
      </trkpt>
      <trkpt lat="43.95107" lon="1.79862">
        <ele>283.6</ele>
        <time>2021-09-26T08:24:23Z</time>
      </trkpt>
      <trkpt lat="43.95107" lon="1.7985">
        <ele>283.6</ele>
        <time>2021-09-26T08:24:25Z</time>
      </trkpt>
      <trkpt lat="43.95107" lon="1.79844">
        <ele>283.6</ele>
        <time>2021-09-26T08:24:26Z</time>
      </trkpt>
      <trkpt lat="43.95107" lon="1.79838">
        <ele>283.6</ele>
        <time>2021-09-26T08:24:27Z</time>
      </trkpt>
      <trkpt lat="43.95104" lon="1.79812">
        <ele>283.4</ele>
        <time>2021-09-26T08:24:31Z</time>
      </trkpt>
      <trkpt lat="43.95102" lon="1.798">
        <ele>283.4</ele>
        <time>2021-09-26T08:24:33Z</time>
      </trkpt>
      <trkpt lat="43.95096" lon="1.7977">
        <ele>283.8</ele>
        <time>2021-09-26T08:24:38Z</time>
      </trkpt>
      <trkpt lat="43.9509" lon="1.79735">
        <ele>283.8</ele>
        <time>2021-09-26T08:24:43Z</time>
      </trkpt>
      <trkpt lat="43.95089" lon="1.79727">
        <ele>283.8</ele>
        <time>2021-09-26T08:24:44Z</time>
      </trkpt>
      <trkpt lat="43.95077" lon="1.79652">
        <ele>282</ele>
        <time>2021-09-26T08:24:54Z</time>
      </trkpt>
      <trkpt lat="43.95073" lon="1.79626">
        <ele>281.2</ele>
        <time>2021-09-26T08:24:58Z</time>
      </trkpt>
      <trkpt lat="43.95072" lon="1.7962">
        <ele>280.8</ele>
        <time>2021-09-26T08:24:59Z</time>
      </trkpt>
      <trkpt lat="43.95071" lon="1.79615">
        <ele>280.8</ele>
        <time>2021-09-26T08:25:00Z</time>
      </trkpt>
      <trkpt lat="43.9507" lon="1.79609">
        <ele>280.4</ele>
        <time>2021-09-26T08:25:01Z</time>
      </trkpt>
      <trkpt lat="43.95068" lon="1.79604">
        <ele>280.2</ele>
        <time>2021-09-26T08:25:02Z</time>
      </trkpt>
      <trkpt lat="43.95066" lon="1.79592">
        <ele>279.8</ele>
        <time>2021-09-26T08:25:04Z</time>
      </trkpt>
      <trkpt lat="43.95066" lon="1.79587">
        <ele>279.6</ele>
        <time>2021-09-26T08:25:05Z</time>
      </trkpt>
      <trkpt lat="43.95065" lon="1.79581">
        <ele>279.2</ele>
        <time>2021-09-26T08:25:06Z</time>
      </trkpt>
      <trkpt lat="43.95064" lon="1.79576">
        <ele>279.2</ele>
        <time>2021-09-26T08:25:07Z</time>
      </trkpt>
      <trkpt lat="43.95063" lon="1.79571">
        <ele>278.8</ele>
        <time>2021-09-26T08:25:08Z</time>
      </trkpt>
      <trkpt lat="43.95059" lon="1.79557">
        <ele>278.2</ele>
        <time>2021-09-26T08:25:11Z</time>
      </trkpt>
      <trkpt lat="43.95057" lon="1.79551">
        <ele>278</ele>
        <time>2021-09-26T08:25:12Z</time>
      </trkpt>
      <trkpt lat="43.95054" lon="1.79541">
        <ele>277.6</ele>
        <time>2021-09-26T08:25:14Z</time>
      </trkpt>
      <trkpt lat="43.95052" lon="1.79534">
        <ele>277.6</ele>
        <time>2021-09-26T08:25:15Z</time>
      </trkpt>
      <trkpt lat="43.95041" lon="1.79489">
        <ele>277.6</ele>
        <time>2021-09-26T08:25:21Z</time>
      </trkpt>
      <trkpt lat="43.95036" lon="1.79465">
        <ele>277.4</ele>
        <time>2021-09-26T08:25:24Z</time>
      </trkpt>
      <trkpt lat="43.95035" lon="1.79458">
        <ele>277.4</ele>
        <time>2021-09-26T08:25:25Z</time>
      </trkpt>
      <trkpt lat="43.95031" lon="1.79438">
        <ele>277</ele>
        <time>2021-09-26T08:25:28Z</time>
      </trkpt>
      <trkpt lat="43.9503" lon="1.79432">
        <ele>277</ele>
        <time>2021-09-26T08:25:29Z</time>
      </trkpt>
      <trkpt lat="43.95029" lon="1.79427">
        <ele>276.8</ele>
        <time>2021-09-26T08:25:30Z</time>
      </trkpt>
      <trkpt lat="43.95028" lon="1.79421">
        <ele>276.8</ele>
        <time>2021-09-26T08:25:31Z</time>
      </trkpt>
      <trkpt lat="43.95027" lon="1.79417">
        <ele>277</ele>
        <time>2021-09-26T08:25:32Z</time>
      </trkpt>
      <trkpt lat="43.95026" lon="1.79413">
        <ele>277</ele>
        <time>2021-09-26T08:25:33Z</time>
      </trkpt>
      <trkpt lat="43.95026" lon="1.79409">
        <ele>277</ele>
        <time>2021-09-26T08:25:34Z</time>
      </trkpt>
      <trkpt lat="43.95026" lon="1.79405">
        <ele>277</ele>
        <time>2021-09-26T08:25:35Z</time>
      </trkpt>
      <trkpt lat="43.95026" lon="1.79403">
        <ele>277.4</ele>
        <time>2021-09-26T08:25:36Z</time>
      </trkpt>
      <trkpt lat="43.95025" lon="1.79401">
        <ele>277.6</ele>
        <time>2021-09-26T08:25:37Z</time>
      </trkpt>
      <trkpt lat="43.95025" lon="1.79398">
        <ele>278</ele>
        <time>2021-09-26T08:25:38Z</time>
      </trkpt>
      <trkpt lat="43.95026" lon="1.79396">
        <ele>278.2</ele>
        <time>2021-09-26T08:25:39Z</time>
      </trkpt>
      <trkpt lat="43.95027" lon="1.79395">
        <ele>278.2</ele>
        <time>2021-09-26T08:25:40Z</time>
      </trkpt>
      <trkpt lat="43.95028" lon="1.79393">
        <ele>278.2</ele>
        <time>2021-09-26T08:25:41Z</time>
      </trkpt>
      <trkpt lat="43.95031" lon="1.79388">
        <ele>278.2</ele>
        <time>2021-09-26T08:25:43Z</time>
      </trkpt>
      <trkpt lat="43.95033" lon="1.79386">
        <ele>278.2</ele>
        <time>2021-09-26T08:25:44Z</time>
      </trkpt>
      <trkpt lat="43.95036" lon="1.79379">
        <ele>278.2</ele>
        <time>2021-09-26T08:25:46Z</time>
      </trkpt>
      <trkpt lat="43.95045" lon="1.79355">
        <ele>278</ele>
        <time>2021-09-26T08:25:52Z</time>
      </trkpt>
      <trkpt lat="43.95053" lon="1.79326">
        <ele>277.4</ele>
        <time>2021-09-26T08:25:58Z</time>
      </trkpt>
      <trkpt lat="43.95061" lon="1.79296">
        <ele>277</ele>
        <time>2021-09-26T08:26:04Z</time>
      </trkpt>
      <trkpt lat="43.95065" lon="1.7928">
        <ele>277</ele>
        <time>2021-09-26T08:26:07Z</time>
      </trkpt>
      <trkpt lat="43.95072" lon="1.79263">
        <ele>277</ele>
        <time>2021-09-26T08:26:10Z</time>
      </trkpt>
      <trkpt lat="43.95074" lon="1.79257">
        <ele>277</ele>
        <time>2021-09-26T08:26:11Z</time>
      </trkpt>
      <trkpt lat="43.95076" lon="1.79251">
        <ele>277.2</ele>
        <time>2021-09-26T08:26:12Z</time>
      </trkpt>
      <trkpt lat="43.95082" lon="1.7924">
        <ele>277.2</ele>
        <time>2021-09-26T08:26:14Z</time>
      </trkpt>
      <trkpt lat="43.95086" lon="1.79228">
        <ele>277</ele>
        <time>2021-09-26T08:26:16Z</time>
      </trkpt>
      <trkpt lat="43.95105" lon="1.79188">
        <ele>276.8</ele>
        <time>2021-09-26T08:26:23Z</time>
      </trkpt>
      <trkpt lat="43.9511" lon="1.79175">
        <ele>276.6</ele>
        <time>2021-09-26T08:26:25Z</time>
      </trkpt>
      <trkpt lat="43.95115" lon="1.79164">
        <ele>276.6</ele>
        <time>2021-09-26T08:26:27Z</time>
      </trkpt>
      <trkpt lat="43.95119" lon="1.79152">
        <ele>276.6</ele>
        <time>2021-09-26T08:26:29Z</time>
      </trkpt>
      <trkpt lat="43.9514" lon="1.79103">
        <ele>276.4</ele>
        <time>2021-09-26T08:26:37Z</time>
      </trkpt>
      <trkpt lat="43.95152" lon="1.79074">
        <ele>276.6</ele>
        <time>2021-09-26T08:26:42Z</time>
      </trkpt>
      <trkpt lat="43.95154" lon="1.79069">
        <ele>276.6</ele>
        <time>2021-09-26T08:26:43Z</time>
      </trkpt>
      <trkpt lat="43.95156" lon="1.79064">
        <ele>276.8</ele>
        <time>2021-09-26T08:26:44Z</time>
      </trkpt>
      <trkpt lat="43.95159" lon="1.79059">
        <ele>276.8</ele>
        <time>2021-09-26T08:26:45Z</time>
      </trkpt>
      <trkpt lat="43.95162" lon="1.79053">
        <ele>276.8</ele>
        <time>2021-09-26T08:26:46Z</time>
      </trkpt>
      <trkpt lat="43.95164" lon="1.79048">
        <ele>276.8</ele>
        <time>2021-09-26T08:26:47Z</time>
      </trkpt>
      <trkpt lat="43.95167" lon="1.79043">
        <ele>277</ele>
        <time>2021-09-26T08:26:48Z</time>
      </trkpt>
      <trkpt lat="43.95182" lon="1.79008">
        <ele>277.2</ele>
        <time>2021-09-26T08:26:54Z</time>
      </trkpt>
      <trkpt lat="43.95193" lon="1.78985">
        <ele>277.2</ele>
        <time>2021-09-26T08:26:58Z</time>
      </trkpt>
      <trkpt lat="43.95202" lon="1.78969">
        <ele>277.2</ele>
        <time>2021-09-26T08:27:01Z</time>
      </trkpt>
      <trkpt lat="43.95224" lon="1.78923">
        <ele>277.2</ele>
        <time>2021-09-26T08:27:08Z</time>
      </trkpt>
      <trkpt lat="43.95248" lon="1.78872">
        <ele>276.4</ele>
        <time>2021-09-26T08:27:16Z</time>
      </trkpt>
      <trkpt lat="43.95251" lon="1.78866">
        <ele>276.4</ele>
        <time>2021-09-26T08:27:17Z</time>
      </trkpt>
      <trkpt lat="43.95254" lon="1.78859">
        <ele>276.4</ele>
        <time>2021-09-26T08:27:18Z</time>
      </trkpt>
      <trkpt lat="43.95258" lon="1.78853">
        <ele>276.4</ele>
        <time>2021-09-26T08:27:19Z</time>
      </trkpt>
      <trkpt lat="43.95261" lon="1.78848">
        <ele>276.2</ele>
        <time>2021-09-26T08:27:20Z</time>
      </trkpt>
      <trkpt lat="43.95264" lon="1.78842">
        <ele>276.2</ele>
        <time>2021-09-26T08:27:21Z</time>
      </trkpt>
      <trkpt lat="43.95267" lon="1.78836">
        <ele>276.2</ele>
        <time>2021-09-26T08:27:22Z</time>
      </trkpt>
      <trkpt lat="43.95269" lon="1.7883">
        <ele>276.2</ele>
        <time>2021-09-26T08:27:23Z</time>
      </trkpt>
      <trkpt lat="43.95272" lon="1.78824">
        <ele>276.2</ele>
        <time>2021-09-26T08:27:24Z</time>
      </trkpt>
      <trkpt lat="43.95274" lon="1.78818">
        <ele>276.2</ele>
        <time>2021-09-26T08:27:25Z</time>
      </trkpt>
      <trkpt lat="43.95277" lon="1.78812">
        <ele>276.2</ele>
        <time>2021-09-26T08:27:26Z</time>
      </trkpt>
      <trkpt lat="43.95279" lon="1.78806">
        <ele>276</ele>
        <time>2021-09-26T08:27:27Z</time>
      </trkpt>
      <trkpt lat="43.95282" lon="1.788">
        <ele>276</ele>
        <time>2021-09-26T08:27:28Z</time>
      </trkpt>
      <trkpt lat="43.95284" lon="1.78795">
        <ele>276</ele>
        <time>2021-09-26T08:27:29Z</time>
      </trkpt>
      <trkpt lat="43.95287" lon="1.78789">
        <ele>276</ele>
        <time>2021-09-26T08:27:30Z</time>
      </trkpt>
      <trkpt lat="43.9529" lon="1.78784">
        <ele>276</ele>
        <time>2021-09-26T08:27:31Z</time>
      </trkpt>
      <trkpt lat="43.95293" lon="1.78778">
        <ele>276.2</ele>
        <time>2021-09-26T08:27:32Z</time>
      </trkpt>
      <trkpt lat="43.95296" lon="1.78773">
        <ele>276.2</ele>
        <time>2021-09-26T08:27:33Z</time>
      </trkpt>
      <trkpt lat="43.95298" lon="1.78768">
        <ele>276.2</ele>
        <time>2021-09-26T08:27:34Z</time>
      </trkpt>
      <trkpt lat="43.95301" lon="1.78762">
        <ele>276.2</ele>
        <time>2021-09-26T08:27:35Z</time>
      </trkpt>
      <trkpt lat="43.95304" lon="1.78757">
        <ele>276.2</ele>
        <time>2021-09-26T08:27:36Z</time>
      </trkpt>
      <trkpt lat="43.95307" lon="1.78752">
        <ele>276.2</ele>
        <time>2021-09-26T08:27:37Z</time>
      </trkpt>
      <trkpt lat="43.9531" lon="1.78747">
        <ele>276.2</ele>
        <time>2021-09-26T08:27:38Z</time>
      </trkpt>
      <trkpt lat="43.95312" lon="1.78741">
        <ele>276.2</ele>
        <time>2021-09-26T08:27:39Z</time>
      </trkpt>
      <trkpt lat="43.95315" lon="1.78736">
        <ele>276.2</ele>
        <time>2021-09-26T08:27:40Z</time>
      </trkpt>
      <trkpt lat="43.95317" lon="1.78731">
        <ele>276.2</ele>
        <time>2021-09-26T08:27:41Z</time>
      </trkpt>
      <trkpt lat="43.9532" lon="1.78726">
        <ele>276.2</ele>
        <time>2021-09-26T08:27:42Z</time>
      </trkpt>
      <trkpt lat="43.95323" lon="1.78721">
        <ele>276.4</ele>
        <time>2021-09-26T08:27:43Z</time>
      </trkpt>
      <trkpt lat="43.95328" lon="1.78711">
        <ele>276.4</ele>
        <time>2021-09-26T08:27:45Z</time>
      </trkpt>
      <trkpt lat="43.9533" lon="1.78705">
        <ele>276.4</ele>
        <time>2021-09-26T08:27:46Z</time>
      </trkpt>
      <trkpt lat="43.95332" lon="1.787">
        <ele>276.6</ele>
        <time>2021-09-26T08:27:47Z</time>
      </trkpt>
      <trkpt lat="43.95335" lon="1.78695">
        <ele>276.6</ele>
        <time>2021-09-26T08:27:48Z</time>
      </trkpt>
      <trkpt lat="43.95338" lon="1.78691">
        <ele>276.6</ele>
        <time>2021-09-26T08:27:49Z</time>
      </trkpt>
      <trkpt lat="43.95341" lon="1.78686">
        <ele>276.8</ele>
        <time>2021-09-26T08:27:50Z</time>
      </trkpt>
      <trkpt lat="43.95344" lon="1.78682">
        <ele>277</ele>
        <time>2021-09-26T08:27:51Z</time>
      </trkpt>
      <trkpt lat="43.95346" lon="1.78678">
        <ele>277</ele>
        <time>2021-09-26T08:27:52Z</time>
      </trkpt>
      <trkpt lat="43.95348" lon="1.78673">
        <ele>277.2</ele>
        <time>2021-09-26T08:27:53Z</time>
      </trkpt>
      <trkpt lat="43.95349" lon="1.78668">
        <ele>277.2</ele>
        <time>2021-09-26T08:27:54Z</time>
      </trkpt>
      <trkpt lat="43.9535" lon="1.78662">
        <ele>277.4</ele>
        <time>2021-09-26T08:27:55Z</time>
      </trkpt>
      <trkpt lat="43.95351" lon="1.78657">
        <ele>277.4</ele>
        <time>2021-09-26T08:27:56Z</time>
      </trkpt>
      <trkpt lat="43.95352" lon="1.78652">
        <ele>277.4</ele>
        <time>2021-09-26T08:27:57Z</time>
      </trkpt>
      <trkpt lat="43.95353" lon="1.78647">
        <ele>277.4</ele>
        <time>2021-09-26T08:27:58Z</time>
      </trkpt>
      <trkpt lat="43.95354" lon="1.78642">
        <ele>277.4</ele>
        <time>2021-09-26T08:27:59Z</time>
      </trkpt>
      <trkpt lat="43.95355" lon="1.78637">
        <ele>277.4</ele>
        <time>2021-09-26T08:28:00Z</time>
      </trkpt>
      <trkpt lat="43.95356" lon="1.78632">
        <ele>277.6</ele>
        <time>2021-09-26T08:28:01Z</time>
      </trkpt>
      <trkpt lat="43.95357" lon="1.78627">
        <ele>277.6</ele>
        <time>2021-09-26T08:28:02Z</time>
      </trkpt>
      <trkpt lat="43.95358" lon="1.78622">
        <ele>277.6</ele>
        <time>2021-09-26T08:28:03Z</time>
      </trkpt>
      <trkpt lat="43.95358" lon="1.78617">
        <ele>277.6</ele>
        <time>2021-09-26T08:28:04Z</time>
      </trkpt>
      <trkpt lat="43.95359" lon="1.78613">
        <ele>277.6</ele>
        <time>2021-09-26T08:28:05Z</time>
      </trkpt>
      <trkpt lat="43.95361" lon="1.78609">
        <ele>277.8</ele>
        <time>2021-09-26T08:28:06Z</time>
      </trkpt>
      <trkpt lat="43.95362" lon="1.78605">
        <ele>278</ele>
        <time>2021-09-26T08:28:07Z</time>
      </trkpt>
      <trkpt lat="43.95363" lon="1.78601">
        <ele>278.2</ele>
        <time>2021-09-26T08:28:08Z</time>
      </trkpt>
      <trkpt lat="43.95364" lon="1.78596">
        <ele>278.2</ele>
        <time>2021-09-26T08:28:09Z</time>
      </trkpt>
      <trkpt lat="43.95365" lon="1.78592">
        <ele>278.2</ele>
        <time>2021-09-26T08:28:10Z</time>
      </trkpt>
      <trkpt lat="43.95366" lon="1.78588">
        <ele>278.2</ele>
        <time>2021-09-26T08:28:11Z</time>
      </trkpt>
      <trkpt lat="43.95367" lon="1.78584">
        <ele>278.2</ele>
        <time>2021-09-26T08:28:12Z</time>
      </trkpt>
      <trkpt lat="43.95369" lon="1.78579">
        <ele>278.4</ele>
        <time>2021-09-26T08:28:13Z</time>
      </trkpt>
      <trkpt lat="43.9537" lon="1.78575">
        <ele>278.6</ele>
        <time>2021-09-26T08:28:14Z</time>
      </trkpt>
      <trkpt lat="43.95374" lon="1.78563">
        <ele>278.8</ele>
        <time>2021-09-26T08:28:17Z</time>
      </trkpt>
      <trkpt lat="43.95378" lon="1.7855">
        <ele>279</ele>
        <time>2021-09-26T08:28:20Z</time>
      </trkpt>
      <trkpt lat="43.95385" lon="1.78533">
        <ele>279.6</ele>
        <time>2021-09-26T08:28:24Z</time>
      </trkpt>
      <trkpt lat="43.95402" lon="1.785">
        <ele>279.8</ele>
        <time>2021-09-26T08:28:32Z</time>
      </trkpt>
      <trkpt lat="43.95406" lon="1.78493">
        <ele>279.8</ele>
        <time>2021-09-26T08:28:34Z</time>
      </trkpt>
      <trkpt lat="43.95409" lon="1.78487">
        <ele>279.8</ele>
        <time>2021-09-26T08:28:36Z</time>
      </trkpt>
      <trkpt lat="43.9541" lon="1.78484">
        <ele>279.8</ele>
        <time>2021-09-26T08:28:37Z</time>
      </trkpt>
      <trkpt lat="43.95412" lon="1.7848">
        <ele>279.8</ele>
        <time>2021-09-26T08:28:38Z</time>
      </trkpt>
      <trkpt lat="43.95421" lon="1.78465">
        <ele>280</ele>
        <time>2021-09-26T08:28:42Z</time>
      </trkpt>
      <trkpt lat="43.95432" lon="1.7845">
        <ele>280</ele>
        <time>2021-09-26T08:28:46Z</time>
      </trkpt>
      <trkpt lat="43.95436" lon="1.78445">
        <ele>280.2</ele>
        <time>2021-09-26T08:28:48Z</time>
      </trkpt>
      <trkpt lat="43.95443" lon="1.78436">
        <ele>280.2</ele>
        <time>2021-09-26T08:28:50Z</time>
      </trkpt>
      <trkpt lat="43.95468" lon="1.78411">
        <ele>280.8</ele>
        <time>2021-09-26T08:28:58Z</time>
      </trkpt>
      <trkpt lat="43.95489" lon="1.78396">
        <ele>281.2</ele>
        <time>2021-09-26T08:29:04Z</time>
      </trkpt>
      <trkpt lat="43.95493" lon="1.78394">
        <ele>281.2</ele>
        <time>2021-09-26T08:29:05Z</time>
      </trkpt>
      <trkpt lat="43.9552" lon="1.78377">
        <ele>281.8</ele>
        <time>2021-09-26T08:29:13Z</time>
      </trkpt>
      <trkpt lat="43.95523" lon="1.78375">
        <ele>282</ele>
        <time>2021-09-26T08:29:14Z</time>
      </trkpt>
      <trkpt lat="43.95534" lon="1.78367">
        <ele>282.4</ele>
        <time>2021-09-26T08:29:17Z</time>
      </trkpt>
      <trkpt lat="43.9555" lon="1.78355">
        <ele>282.4</ele>
        <time>2021-09-26T08:29:21Z</time>
      </trkpt>
      <trkpt lat="43.95569" lon="1.78342">
        <ele>282</ele>
        <time>2021-09-26T08:29:25Z</time>
      </trkpt>
      <trkpt lat="43.95574" lon="1.78339">
        <ele>281.8</ele>
        <time>2021-09-26T08:29:26Z</time>
      </trkpt>
      <trkpt lat="43.95579" lon="1.78337">
        <ele>281.6</ele>
        <time>2021-09-26T08:29:27Z</time>
      </trkpt>
      <trkpt lat="43.9559" lon="1.78333">
        <ele>281.4</ele>
        <time>2021-09-26T08:29:29Z</time>
      </trkpt>
      <trkpt lat="43.95616" lon="1.78321">
        <ele>280.4</ele>
        <time>2021-09-26T08:29:34Z</time>
      </trkpt>
      <trkpt lat="43.9564" lon="1.78307">
        <ele>279.6</ele>
        <time>2021-09-26T08:29:39Z</time>
      </trkpt>
      <trkpt lat="43.95643" lon="1.78305">
        <ele>279.2</ele>
        <time>2021-09-26T08:29:40Z</time>
      </trkpt>
      <trkpt lat="43.95646" lon="1.78304">
        <ele>279</ele>
        <time>2021-09-26T08:29:41Z</time>
      </trkpt>
      <trkpt lat="43.95648" lon="1.78303">
        <ele>279</ele>
        <time>2021-09-26T08:29:42Z</time>
      </trkpt>
      <trkpt lat="43.95651" lon="1.78302">
        <ele>278.8</ele>
        <time>2021-09-26T08:29:43Z</time>
      </trkpt>
      <trkpt lat="43.95652" lon="1.78301">
        <ele>278.8</ele>
        <time>2021-09-26T08:29:44Z</time>
      </trkpt>
      <trkpt lat="43.95655" lon="1.783">
        <ele>278.6</ele>
        <time>2021-09-26T08:29:45Z</time>
      </trkpt>
      <trkpt lat="43.95657" lon="1.78299">
        <ele>278.4</ele>
        <time>2021-09-26T08:29:46Z</time>
      </trkpt>
      <trkpt lat="43.95658" lon="1.78297">
        <ele>278.2</ele>
        <time>2021-09-26T08:29:47Z</time>
      </trkpt>
      <trkpt lat="43.9566" lon="1.78296">
        <ele>278</ele>
        <time>2021-09-26T08:29:48Z</time>
      </trkpt>
      <trkpt lat="43.95662" lon="1.78295">
        <ele>277.8</ele>
        <time>2021-09-26T08:29:49Z</time>
      </trkpt>
      <trkpt lat="43.95663" lon="1.78294">
        <ele>277.6</ele>
        <time>2021-09-26T08:29:50Z</time>
      </trkpt>
      <trkpt lat="43.95666" lon="1.7829">
        <ele>277.4</ele>
        <time>2021-09-26T08:29:52Z</time>
      </trkpt>
      <trkpt lat="43.95668" lon="1.78289">
        <ele>277.4</ele>
        <time>2021-09-26T08:29:53Z</time>
      </trkpt>
      <trkpt lat="43.9567" lon="1.78288">
        <ele>277.4</ele>
        <time>2021-09-26T08:29:54Z</time>
      </trkpt>
      <trkpt lat="43.95672" lon="1.78286">
        <ele>277.4</ele>
        <time>2021-09-26T08:29:55Z</time>
      </trkpt>
      <trkpt lat="43.95673" lon="1.78284">
        <ele>277.4</ele>
        <time>2021-09-26T08:29:56Z</time>
      </trkpt>
      <trkpt lat="43.95689" lon="1.78271">
        <ele>277.6</ele>
        <time>2021-09-26T08:30:02Z</time>
      </trkpt>
      <trkpt lat="43.95692" lon="1.78269">
        <ele>277.6</ele>
        <time>2021-09-26T08:30:03Z</time>
      </trkpt>
      <trkpt lat="43.95712" lon="1.78254">
        <ele>278.4</ele>
        <time>2021-09-26T08:30:09Z</time>
      </trkpt>
      <trkpt lat="43.95736" lon="1.78236">
        <ele>279</ele>
        <time>2021-09-26T08:30:16Z</time>
      </trkpt>
      <trkpt lat="43.95748" lon="1.78225">
        <ele>279</ele>
        <time>2021-09-26T08:30:20Z</time>
      </trkpt>
      <trkpt lat="43.9575" lon="1.78223">
        <ele>279.2</ele>
        <time>2021-09-26T08:30:21Z</time>
      </trkpt>
      <trkpt lat="43.95753" lon="1.7822">
        <ele>279.2</ele>
        <time>2021-09-26T08:30:22Z</time>
      </trkpt>
      <trkpt lat="43.95757" lon="1.78217">
        <ele>279.4</ele>
        <time>2021-09-26T08:30:23Z</time>
      </trkpt>
      <trkpt lat="43.9576" lon="1.78216">
        <ele>279.4</ele>
        <time>2021-09-26T08:30:24Z</time>
      </trkpt>
      <trkpt lat="43.95763" lon="1.78215">
        <ele>279.4</ele>
        <time>2021-09-26T08:30:25Z</time>
      </trkpt>
      <trkpt lat="43.95765" lon="1.78215">
        <ele>279.4</ele>
        <time>2021-09-26T08:30:26Z</time>
      </trkpt>
      <trkpt lat="43.95769" lon="1.78215">
        <ele>279.4</ele>
        <time>2021-09-26T08:30:27Z</time>
      </trkpt>
      <trkpt lat="43.95772" lon="1.78215">
        <ele>279.4</ele>
        <time>2021-09-26T08:30:28Z</time>
      </trkpt>
      <trkpt lat="43.95776" lon="1.78214">
        <ele>279.4</ele>
        <time>2021-09-26T08:30:29Z</time>
      </trkpt>
      <trkpt lat="43.95779" lon="1.78213">
        <ele>279.4</ele>
        <time>2021-09-26T08:30:30Z</time>
      </trkpt>
      <trkpt lat="43.9578" lon="1.78212">
        <ele>279.4</ele>
        <time>2021-09-26T08:30:31Z</time>
      </trkpt>
      <trkpt lat="43.95781" lon="1.78212">
        <ele>279.2</ele>
        <time>2021-09-26T08:30:32Z</time>
      </trkpt>
      <trkpt lat="43.95781" lon="1.78212">
        <ele>278.4</ele>
        <time>2021-09-26T08:30:33Z</time>
      </trkpt>
      <trkpt lat="43.95781" lon="1.78212">
        <ele>277.8</ele>
        <time>2021-09-26T08:30:34Z</time>
      </trkpt>
      <trkpt lat="43.95789" lon="1.78214">
        <ele>275.8</ele>
        <time>2021-09-26T08:30:49Z</time>
      </trkpt>
      <trkpt lat="43.9579" lon="1.78214">
        <ele>275.6</ele>
        <time>2021-09-26T08:30:50Z</time>
      </trkpt>
      <trkpt lat="43.95792" lon="1.78213">
        <ele>275.4</ele>
        <time>2021-09-26T08:30:51Z</time>
      </trkpt>
      <trkpt lat="43.95794" lon="1.78212">
        <ele>275.2</ele>
        <time>2021-09-26T08:30:52Z</time>
      </trkpt>
      <trkpt lat="43.95796" lon="1.7821">
        <ele>275</ele>
        <time>2021-09-26T08:30:53Z</time>
      </trkpt>
      <trkpt lat="43.958" lon="1.78208">
        <ele>274.6</ele>
        <time>2021-09-26T08:30:55Z</time>
      </trkpt>
      <trkpt lat="43.95805" lon="1.78208">
        <ele>274.2</ele>
        <time>2021-09-26T08:30:57Z</time>
      </trkpt>
      <trkpt lat="43.95814" lon="1.78206">
        <ele>273.4</ele>
        <time>2021-09-26T08:31:00Z</time>
      </trkpt>
      <trkpt lat="43.95825" lon="1.78201">
        <ele>272.2</ele>
        <time>2021-09-26T08:31:03Z</time>
      </trkpt>
      <trkpt lat="43.95838" lon="1.78196">
        <ele>271.8</ele>
        <time>2021-09-26T08:31:06Z</time>
      </trkpt>
      <trkpt lat="43.95846" lon="1.78193">
        <ele>270.8</ele>
        <time>2021-09-26T08:31:08Z</time>
      </trkpt>
      <trkpt lat="43.95858" lon="1.78189">
        <ele>270.2</ele>
        <time>2021-09-26T08:31:11Z</time>
      </trkpt>
      <trkpt lat="43.95866" lon="1.78185">
        <ele>269.6</ele>
        <time>2021-09-26T08:31:13Z</time>
      </trkpt>
      <trkpt lat="43.95878" lon="1.78182">
        <ele>269</ele>
        <time>2021-09-26T08:31:16Z</time>
      </trkpt>
      <trkpt lat="43.95882" lon="1.7818">
        <ele>268.8</ele>
        <time>2021-09-26T08:31:17Z</time>
      </trkpt>
      <trkpt lat="43.95886" lon="1.78179">
        <ele>268.8</ele>
        <time>2021-09-26T08:31:18Z</time>
      </trkpt>
      <trkpt lat="43.95888" lon="1.78178">
        <ele>268.6</ele>
        <time>2021-09-26T08:31:19Z</time>
      </trkpt>
      <trkpt lat="43.95891" lon="1.78177">
        <ele>268.2</ele>
        <time>2021-09-26T08:31:20Z</time>
      </trkpt>
      <trkpt lat="43.95894" lon="1.78177">
        <ele>267.8</ele>
        <time>2021-09-26T08:31:21Z</time>
      </trkpt>
      <trkpt lat="43.95896" lon="1.78176">
        <ele>267</ele>
        <time>2021-09-26T08:31:22Z</time>
      </trkpt>
      <trkpt lat="43.95898" lon="1.78176">
        <ele>266.8</ele>
        <time>2021-09-26T08:31:23Z</time>
      </trkpt>
      <trkpt lat="43.959" lon="1.78177">
        <ele>266.4</ele>
        <time>2021-09-26T08:31:24Z</time>
      </trkpt>
      <trkpt lat="43.95901" lon="1.78179">
        <ele>266</ele>
        <time>2021-09-26T08:31:25Z</time>
      </trkpt>
      <trkpt lat="43.95904" lon="1.78182">
        <ele>265.6</ele>
        <time>2021-09-26T08:31:26Z</time>
      </trkpt>
      <trkpt lat="43.95908" lon="1.78183">
        <ele>265.2</ele>
        <time>2021-09-26T08:31:27Z</time>
      </trkpt>
      <trkpt lat="43.95912" lon="1.78184">
        <ele>264.4</ele>
        <time>2021-09-26T08:31:28Z</time>
      </trkpt>
      <trkpt lat="43.95916" lon="1.78184">
        <ele>263.6</ele>
        <time>2021-09-26T08:31:29Z</time>
      </trkpt>
      <trkpt lat="43.95921" lon="1.78184">
        <ele>262.8</ele>
        <time>2021-09-26T08:31:30Z</time>
      </trkpt>
      <trkpt lat="43.95925" lon="1.78183">
        <ele>262</ele>
        <time>2021-09-26T08:31:31Z</time>
      </trkpt>
      <trkpt lat="43.95929" lon="1.78181">
        <ele>261</ele>
        <time>2021-09-26T08:31:32Z</time>
      </trkpt>
      <trkpt lat="43.95934" lon="1.78179">
        <ele>259.6</ele>
        <time>2021-09-26T08:31:33Z</time>
      </trkpt>
      <trkpt lat="43.95943" lon="1.78175">
        <ele>258</ele>
        <time>2021-09-26T08:31:35Z</time>
      </trkpt>
      <trkpt lat="43.95947" lon="1.78172">
        <ele>257.6</ele>
        <time>2021-09-26T08:31:36Z</time>
      </trkpt>
      <trkpt lat="43.95954" lon="1.78164">
        <ele>256.6</ele>
        <time>2021-09-26T08:31:38Z</time>
      </trkpt>
      <trkpt lat="43.95956" lon="1.7816">
        <ele>256.4</ele>
        <time>2021-09-26T08:31:39Z</time>
      </trkpt>
      <trkpt lat="43.95959" lon="1.78155">
        <ele>256</ele>
        <time>2021-09-26T08:31:40Z</time>
      </trkpt>
      <trkpt lat="43.9596" lon="1.78151">
        <ele>255.8</ele>
        <time>2021-09-26T08:31:41Z</time>
      </trkpt>
      <trkpt lat="43.95965" lon="1.78141">
        <ele>255.4</ele>
        <time>2021-09-26T08:31:43Z</time>
      </trkpt>
      <trkpt lat="43.95967" lon="1.78137">
        <ele>255.2</ele>
        <time>2021-09-26T08:31:44Z</time>
      </trkpt>
      <trkpt lat="43.95969" lon="1.78133">
        <ele>255</ele>
        <time>2021-09-26T08:31:45Z</time>
      </trkpt>
      <trkpt lat="43.9597" lon="1.7813">
        <ele>255</ele>
        <time>2021-09-26T08:31:46Z</time>
      </trkpt>
      <trkpt lat="43.95971" lon="1.78126">
        <ele>255</ele>
        <time>2021-09-26T08:31:47Z</time>
      </trkpt>
      <trkpt lat="43.95972" lon="1.78123">
        <ele>254.8</ele>
        <time>2021-09-26T08:31:48Z</time>
      </trkpt>
      <trkpt lat="43.95974" lon="1.78119">
        <ele>254.6</ele>
        <time>2021-09-26T08:31:49Z</time>
      </trkpt>
      <trkpt lat="43.95976" lon="1.78115">
        <ele>254.4</ele>
        <time>2021-09-26T08:31:50Z</time>
      </trkpt>
      <trkpt lat="43.95977" lon="1.78111">
        <ele>254.2</ele>
        <time>2021-09-26T08:31:51Z</time>
      </trkpt>
      <trkpt lat="43.95979" lon="1.78104">
        <ele>254</ele>
        <time>2021-09-26T08:31:53Z</time>
      </trkpt>
      <trkpt lat="43.9598" lon="1.781">
        <ele>254</ele>
        <time>2021-09-26T08:31:54Z</time>
      </trkpt>
      <trkpt lat="43.9598" lon="1.78096">
        <ele>254</ele>
        <time>2021-09-26T08:31:55Z</time>
      </trkpt>
      <trkpt lat="43.9598" lon="1.78093">
        <ele>254</ele>
        <time>2021-09-26T08:31:56Z</time>
      </trkpt>
      <trkpt lat="43.9598" lon="1.7809">
        <ele>254</ele>
        <time>2021-09-26T08:31:57Z</time>
      </trkpt>
      <trkpt lat="43.9598" lon="1.78087">
        <ele>254</ele>
        <time>2021-09-26T08:31:58Z</time>
      </trkpt>
      <trkpt lat="43.9598" lon="1.78084">
        <ele>254</ele>
        <time>2021-09-26T08:31:59Z</time>
      </trkpt>
      <trkpt lat="43.95981" lon="1.78075">
        <ele>254.4</ele>
        <time>2021-09-26T08:32:02Z</time>
      </trkpt>
      <trkpt lat="43.95982" lon="1.78064">
        <ele>255.2</ele>
        <time>2021-09-26T08:32:06Z</time>
      </trkpt>
      <trkpt lat="43.95981" lon="1.78062">
        <ele>255.2</ele>
        <time>2021-09-26T08:32:07Z</time>
      </trkpt>
      <trkpt lat="43.95981" lon="1.7806">
        <ele>255.4</ele>
        <time>2021-09-26T08:32:08Z</time>
      </trkpt>
      <trkpt lat="43.9598" lon="1.78057">
        <ele>255.6</ele>
        <time>2021-09-26T08:32:09Z</time>
      </trkpt>
      <trkpt lat="43.95979" lon="1.78055">
        <ele>256</ele>
        <time>2021-09-26T08:32:10Z</time>
      </trkpt>
      <trkpt lat="43.95976" lon="1.78046">
        <ele>256.6</ele>
        <time>2021-09-26T08:32:13Z</time>
      </trkpt>
      <trkpt lat="43.95975" lon="1.78044">
        <ele>256.8</ele>
        <time>2021-09-26T08:32:14Z</time>
      </trkpt>
      <trkpt lat="43.95974" lon="1.78041">
        <ele>257</ele>
        <time>2021-09-26T08:32:15Z</time>
      </trkpt>
      <trkpt lat="43.95972" lon="1.78033">
        <ele>257.8</ele>
        <time>2021-09-26T08:32:18Z</time>
      </trkpt>
      <trkpt lat="43.95973" lon="1.78032">
        <ele>258.2</ele>
        <time>2021-09-26T08:32:19Z</time>
      </trkpt>
      <trkpt lat="43.95974" lon="1.78031">
        <ele>258.6</ele>
        <time>2021-09-26T08:32:20Z</time>
      </trkpt>
      <trkpt lat="43.95975" lon="1.78031">
        <ele>258.8</ele>
        <time>2021-09-26T08:32:21Z</time>
      </trkpt>
      <trkpt lat="43.95976" lon="1.7803">
        <ele>259.2</ele>
        <time>2021-09-26T08:32:22Z</time>
      </trkpt>
      <trkpt lat="43.95976" lon="1.7803">
        <ele>259.4</ele>
        <time>2021-09-26T08:32:23Z</time>
      </trkpt>
      <trkpt lat="43.95976" lon="1.7803">
        <ele>259.6</ele>
        <time>2021-09-26T08:32:24Z</time>
      </trkpt>
      <trkpt lat="43.95976" lon="1.7803">
        <ele>259.6</ele>
        <time>2021-09-26T08:32:25Z</time>
      </trkpt>
      <trkpt lat="43.95985" lon="1.78028">
        <ele>259.8</ele>
        <time>2021-09-26T08:33:23Z</time>
      </trkpt>
      <trkpt lat="43.95991" lon="1.78026">
        <ele>259.4</ele>
        <time>2021-09-26T08:33:25Z</time>
      </trkpt>
      <trkpt lat="43.96002" lon="1.7802">
        <ele>258.2</ele>
        <time>2021-09-26T08:33:29Z</time>
      </trkpt>
      <trkpt lat="43.96004" lon="1.78021">
        <ele>257.6</ele>
        <time>2021-09-26T08:33:30Z</time>
      </trkpt>
      <trkpt lat="43.96006" lon="1.78024">
        <ele>257</ele>
        <time>2021-09-26T08:33:31Z</time>
      </trkpt>
      <trkpt lat="43.96006" lon="1.78027">
        <ele>256.6</ele>
        <time>2021-09-26T08:33:32Z</time>
      </trkpt>
      <trkpt lat="43.96006" lon="1.78031">
        <ele>256</ele>
        <time>2021-09-26T08:33:33Z</time>
      </trkpt>
      <trkpt lat="43.96006" lon="1.78035">
        <ele>255.6</ele>
        <time>2021-09-26T08:33:34Z</time>
      </trkpt>
      <trkpt lat="43.96005" lon="1.7804">
        <ele>255</ele>
        <time>2021-09-26T08:33:35Z</time>
      </trkpt>
      <trkpt lat="43.96005" lon="1.78044">
        <ele>254.2</ele>
        <time>2021-09-26T08:33:36Z</time>
      </trkpt>
      <trkpt lat="43.96005" lon="1.78047">
        <ele>254</ele>
        <time>2021-09-26T08:33:37Z</time>
      </trkpt>
      <trkpt lat="43.96005" lon="1.78051">
        <ele>253.2</ele>
        <time>2021-09-26T08:33:38Z</time>
      </trkpt>
      <trkpt lat="43.96006" lon="1.78055">
        <ele>253.2</ele>
        <time>2021-09-26T08:33:39Z</time>
      </trkpt>
      <trkpt lat="43.96007" lon="1.7806">
        <ele>252.6</ele>
        <time>2021-09-26T08:33:40Z</time>
      </trkpt>
      <trkpt lat="43.96007" lon="1.78065">
        <ele>252.2</ele>
        <time>2021-09-26T08:33:41Z</time>
      </trkpt>
      <trkpt lat="43.96007" lon="1.78072">
        <ele>251.6</ele>
        <time>2021-09-26T08:33:42Z</time>
      </trkpt>
      <trkpt lat="43.96007" lon="1.78086">
        <ele>250.8</ele>
        <time>2021-09-26T08:33:44Z</time>
      </trkpt>
      <trkpt lat="43.96007" lon="1.78094">
        <ele>250</ele>
        <time>2021-09-26T08:33:45Z</time>
      </trkpt>
      <trkpt lat="43.96009" lon="1.78128">
        <ele>248.8</ele>
        <time>2021-09-26T08:33:49Z</time>
      </trkpt>
      <trkpt lat="43.9601" lon="1.78137">
        <ele>248.6</ele>
        <time>2021-09-26T08:33:50Z</time>
      </trkpt>
      <trkpt lat="43.96011" lon="1.78144">
        <ele>247.6</ele>
        <time>2021-09-26T08:33:51Z</time>
      </trkpt>
      <trkpt lat="43.96011" lon="1.78151">
        <ele>246.4</ele>
        <time>2021-09-26T08:33:52Z</time>
      </trkpt>
      <trkpt lat="43.96011" lon="1.78167">
        <ele>245</ele>
        <time>2021-09-26T08:33:54Z</time>
      </trkpt>
      <trkpt lat="43.96011" lon="1.78183">
        <ele>244.4</ele>
        <time>2021-09-26T08:33:56Z</time>
      </trkpt>
      <trkpt lat="43.96011" lon="1.78199">
        <ele>243.2</ele>
        <time>2021-09-26T08:33:58Z</time>
      </trkpt>
      <trkpt lat="43.96011" lon="1.78205">
        <ele>241.6</ele>
        <time>2021-09-26T08:33:59Z</time>
      </trkpt>
      <trkpt lat="43.9601" lon="1.78211">
        <ele>241.2</ele>
        <time>2021-09-26T08:34:00Z</time>
      </trkpt>
      <trkpt lat="43.96009" lon="1.78217">
        <ele>239.8</ele>
        <time>2021-09-26T08:34:01Z</time>
      </trkpt>
      <trkpt lat="43.96009" lon="1.78221">
        <ele>239.4</ele>
        <time>2021-09-26T08:34:02Z</time>
      </trkpt>
      <trkpt lat="43.9601" lon="1.78224">
        <ele>238.4</ele>
        <time>2021-09-26T08:34:03Z</time>
      </trkpt>
      <trkpt lat="43.9601" lon="1.78228">
        <ele>237.8</ele>
        <time>2021-09-26T08:34:04Z</time>
      </trkpt>
      <trkpt lat="43.96011" lon="1.78232">
        <ele>236.6</ele>
        <time>2021-09-26T08:34:05Z</time>
      </trkpt>
      <trkpt lat="43.96011" lon="1.78235">
        <ele>235.8</ele>
        <time>2021-09-26T08:34:06Z</time>
      </trkpt>
      <trkpt lat="43.9601" lon="1.78238">
        <ele>235.2</ele>
        <time>2021-09-26T08:34:07Z</time>
      </trkpt>
      <trkpt lat="43.9601" lon="1.78241">
        <ele>233.8</ele>
        <time>2021-09-26T08:34:08Z</time>
      </trkpt>
      <trkpt lat="43.96009" lon="1.78247">
        <ele>233</ele>
        <time>2021-09-26T08:34:10Z</time>
      </trkpt>
      <trkpt lat="43.96009" lon="1.78251">
        <ele>232.6</ele>
        <time>2021-09-26T08:34:11Z</time>
      </trkpt>
      <trkpt lat="43.96009" lon="1.78255">
        <ele>232</ele>
        <time>2021-09-26T08:34:12Z</time>
      </trkpt>
      <trkpt lat="43.9601" lon="1.78257">
        <ele>231.6</ele>
        <time>2021-09-26T08:34:13Z</time>
      </trkpt>
      <trkpt lat="43.96012" lon="1.78257">
        <ele>231.2</ele>
        <time>2021-09-26T08:34:14Z</time>
      </trkpt>
      <trkpt lat="43.96013" lon="1.78256">
        <ele>230.4</ele>
        <time>2021-09-26T08:34:15Z</time>
      </trkpt>
      <trkpt lat="43.96014" lon="1.78256">
        <ele>230</ele>
        <time>2021-09-26T08:34:16Z</time>
      </trkpt>
      <trkpt lat="43.96016" lon="1.78255">
        <ele>229.4</ele>
        <time>2021-09-26T08:34:17Z</time>
      </trkpt>
      <trkpt lat="43.96017" lon="1.78254">
        <ele>229</ele>
        <time>2021-09-26T08:34:18Z</time>
      </trkpt>
      <trkpt lat="43.96019" lon="1.78253">
        <ele>228</ele>
        <time>2021-09-26T08:34:19Z</time>
      </trkpt>
      <trkpt lat="43.96022" lon="1.78251">
        <ele>227</ele>
        <time>2021-09-26T08:34:21Z</time>
      </trkpt>
      <trkpt lat="43.96022" lon="1.7825">
        <ele>226.4</ele>
        <time>2021-09-26T08:34:22Z</time>
      </trkpt>
      <trkpt lat="43.96022" lon="1.7825">
        <ele>226</ele>
        <time>2021-09-26T08:34:23Z</time>
      </trkpt>
      <trkpt lat="43.96022" lon="1.7825">
        <ele>225.2</ele>
        <time>2021-09-26T08:34:24Z</time>
      </trkpt>
      <trkpt lat="43.96026" lon="1.78258">
        <ele>221.8</ele>
        <time>2021-09-26T08:35:18Z</time>
      </trkpt>
      <trkpt lat="43.96029" lon="1.78264">
        <ele>221.8</ele>
        <time>2021-09-26T08:35:19Z</time>
      </trkpt>
      <trkpt lat="43.96032" lon="1.78271">
        <ele>221.8</ele>
        <time>2021-09-26T08:35:20Z</time>
      </trkpt>
      <trkpt lat="43.96035" lon="1.78278">
        <ele>221.8</ele>
        <time>2021-09-26T08:35:21Z</time>
      </trkpt>
      <trkpt lat="43.96044" lon="1.78292">
        <ele>221</ele>
        <time>2021-09-26T08:35:24Z</time>
      </trkpt>
      <trkpt lat="43.96048" lon="1.78294">
        <ele>220.4</ele>
        <time>2021-09-26T08:35:25Z</time>
      </trkpt>
      <trkpt lat="43.96052" lon="1.78295">
        <ele>219.4</ele>
        <time>2021-09-26T08:35:26Z</time>
      </trkpt>
      <trkpt lat="43.96054" lon="1.78296">
        <ele>219</ele>
        <time>2021-09-26T08:35:27Z</time>
      </trkpt>
      <trkpt lat="43.96057" lon="1.78298">
        <ele>218.4</ele>
        <time>2021-09-26T08:35:28Z</time>
      </trkpt>
      <trkpt lat="43.96063" lon="1.78305">
        <ele>216.8</ele>
        <time>2021-09-26T08:35:30Z</time>
      </trkpt>
      <trkpt lat="43.96067" lon="1.78308">
        <ele>216</ele>
        <time>2021-09-26T08:35:31Z</time>
      </trkpt>
      <trkpt lat="43.9607" lon="1.7831">
        <ele>215.8</ele>
        <time>2021-09-26T08:35:32Z</time>
      </trkpt>
      <trkpt lat="43.96072" lon="1.78312">
        <ele>214.8</ele>
        <time>2021-09-26T08:35:33Z</time>
      </trkpt>
      <trkpt lat="43.96075" lon="1.78316">
        <ele>214.6</ele>
        <time>2021-09-26T08:35:34Z</time>
      </trkpt>
      <trkpt lat="43.96078" lon="1.7832">
        <ele>214.2</ele>
        <time>2021-09-26T08:35:35Z</time>
      </trkpt>
      <trkpt lat="43.9608" lon="1.78326">
        <ele>213.8</ele>
        <time>2021-09-26T08:35:36Z</time>
      </trkpt>
      <trkpt lat="43.96085" lon="1.78333">
        <ele>213.2</ele>
        <time>2021-09-26T08:35:37Z</time>
      </trkpt>
      <trkpt lat="43.96089" lon="1.78343">
        <ele>212.6</ele>
        <time>2021-09-26T08:35:38Z</time>
      </trkpt>
      <trkpt lat="43.96092" lon="1.78349">
        <ele>212.4</ele>
        <time>2021-09-26T08:35:39Z</time>
      </trkpt>
      <trkpt lat="43.961" lon="1.78366">
        <ele>211.8</ele>
        <time>2021-09-26T08:35:41Z</time>
      </trkpt>
      <trkpt lat="43.96105" lon="1.78374">
        <ele>211.2</ele>
        <time>2021-09-26T08:35:42Z</time>
      </trkpt>
      <trkpt lat="43.96108" lon="1.78382">
        <ele>210.8</ele>
        <time>2021-09-26T08:35:43Z</time>
      </trkpt>
      <trkpt lat="43.96111" lon="1.78388">
        <ele>210.2</ele>
        <time>2021-09-26T08:35:44Z</time>
      </trkpt>
      <trkpt lat="43.96115" lon="1.78395">
        <ele>209.6</ele>
        <time>2021-09-26T08:35:45Z</time>
      </trkpt>
      <trkpt lat="43.9612" lon="1.78402">
        <ele>209.4</ele>
        <time>2021-09-26T08:35:46Z</time>
      </trkpt>
      <trkpt lat="43.96124" lon="1.78409">
        <ele>208.8</ele>
        <time>2021-09-26T08:35:47Z</time>
      </trkpt>
      <trkpt lat="43.96134" lon="1.78425">
        <ele>206.8</ele>
        <time>2021-09-26T08:35:49Z</time>
      </trkpt>
      <trkpt lat="43.96138" lon="1.78432">
        <ele>206.6</ele>
        <time>2021-09-26T08:35:50Z</time>
      </trkpt>
      <trkpt lat="43.9614" lon="1.78436">
        <ele>205.2</ele>
        <time>2021-09-26T08:35:51Z</time>
      </trkpt>
      <trkpt lat="43.96141" lon="1.78441">
        <ele>204.6</ele>
        <time>2021-09-26T08:35:52Z</time>
      </trkpt>
      <trkpt lat="43.96143" lon="1.78445">
        <ele>203.6</ele>
        <time>2021-09-26T08:35:53Z</time>
      </trkpt>
      <trkpt lat="43.96146" lon="1.78449">
        <ele>202.8</ele>
        <time>2021-09-26T08:35:54Z</time>
      </trkpt>
      <trkpt lat="43.96148" lon="1.78453">
        <ele>202.6</ele>
        <time>2021-09-26T08:35:55Z</time>
      </trkpt>
      <trkpt lat="43.96151" lon="1.78459">
        <ele>202</ele>
        <time>2021-09-26T08:35:56Z</time>
      </trkpt>
      <trkpt lat="43.96153" lon="1.78466">
        <ele>201.8</ele>
        <time>2021-09-26T08:35:57Z</time>
      </trkpt>
      <trkpt lat="43.96155" lon="1.78473">
        <ele>201.2</ele>
        <time>2021-09-26T08:35:58Z</time>
      </trkpt>
      <trkpt lat="43.96159" lon="1.78479">
        <ele>200.8</ele>
        <time>2021-09-26T08:35:59Z</time>
      </trkpt>
      <trkpt lat="43.96165" lon="1.78491">
        <ele>200</ele>
        <time>2021-09-26T08:36:01Z</time>
      </trkpt>
      <trkpt lat="43.96171" lon="1.785">
        <ele>199.4</ele>
        <time>2021-09-26T08:36:03Z</time>
      </trkpt>
      <trkpt lat="43.96173" lon="1.78504">
        <ele>199.2</ele>
        <time>2021-09-26T08:36:04Z</time>
      </trkpt>
      <trkpt lat="43.96176" lon="1.78508">
        <ele>198.6</ele>
        <time>2021-09-26T08:36:05Z</time>
      </trkpt>
      <trkpt lat="43.96179" lon="1.78513">
        <ele>198.4</ele>
        <time>2021-09-26T08:36:06Z</time>
      </trkpt>
      <trkpt lat="43.96183" lon="1.78516">
        <ele>198</ele>
        <time>2021-09-26T08:36:07Z</time>
      </trkpt>
      <trkpt lat="43.96186" lon="1.78519">
        <ele>197.8</ele>
        <time>2021-09-26T08:36:08Z</time>
      </trkpt>
      <trkpt lat="43.96189" lon="1.78521">
        <ele>197.6</ele>
        <time>2021-09-26T08:36:09Z</time>
      </trkpt>
      <trkpt lat="43.9619" lon="1.78524">
        <ele>197.4</ele>
        <time>2021-09-26T08:36:10Z</time>
      </trkpt>
      <trkpt lat="43.96193" lon="1.78526">
        <ele>197.2</ele>
        <time>2021-09-26T08:36:11Z</time>
      </trkpt>
      <trkpt lat="43.96194" lon="1.78529">
        <ele>197.2</ele>
        <time>2021-09-26T08:36:12Z</time>
      </trkpt>
      <trkpt lat="43.96197" lon="1.78531">
        <ele>197.2</ele>
        <time>2021-09-26T08:36:13Z</time>
      </trkpt>
      <trkpt lat="43.96208" lon="1.78537">
        <ele>197</ele>
        <time>2021-09-26T08:36:17Z</time>
      </trkpt>
      <trkpt lat="43.96222" lon="1.78541">
        <ele>197</ele>
        <time>2021-09-26T08:36:21Z</time>
      </trkpt>
      <trkpt lat="43.96225" lon="1.78543">
        <ele>196.8</ele>
        <time>2021-09-26T08:36:22Z</time>
      </trkpt>
      <trkpt lat="43.96228" lon="1.78545">
        <ele>196.8</ele>
        <time>2021-09-26T08:36:23Z</time>
      </trkpt>
      <trkpt lat="43.96231" lon="1.78547">
        <ele>196.6</ele>
        <time>2021-09-26T08:36:24Z</time>
      </trkpt>
      <trkpt lat="43.96234" lon="1.78548">
        <ele>196.6</ele>
        <time>2021-09-26T08:36:25Z</time>
      </trkpt>
      <trkpt lat="43.96237" lon="1.78549">
        <ele>196.2</ele>
        <time>2021-09-26T08:36:26Z</time>
      </trkpt>
      <trkpt lat="43.96239" lon="1.78549">
        <ele>196</ele>
        <time>2021-09-26T08:36:27Z</time>
      </trkpt>
      <trkpt lat="43.9624" lon="1.78549">
        <ele>195.8</ele>
        <time>2021-09-26T08:36:28Z</time>
      </trkpt>
      <trkpt lat="43.96241" lon="1.7855">
        <ele>195.6</ele>
        <time>2021-09-26T08:36:29Z</time>
      </trkpt>
      <trkpt lat="43.96243" lon="1.78551">
        <ele>195.2</ele>
        <time>2021-09-26T08:36:30Z</time>
      </trkpt>
      <trkpt lat="43.96244" lon="1.78552">
        <ele>194.8</ele>
        <time>2021-09-26T08:36:31Z</time>
      </trkpt>
      <trkpt lat="43.96247" lon="1.78556">
        <ele>194.4</ele>
        <time>2021-09-26T08:36:33Z</time>
      </trkpt>
      <trkpt lat="43.96251" lon="1.78557">
        <ele>194.2</ele>
        <time>2021-09-26T08:36:34Z</time>
      </trkpt>
      <trkpt lat="43.96254" lon="1.78558">
        <ele>194</ele>
        <time>2021-09-26T08:36:35Z</time>
      </trkpt>
      <trkpt lat="43.96258" lon="1.78559">
        <ele>194</ele>
        <time>2021-09-26T08:36:36Z</time>
      </trkpt>
      <trkpt lat="43.96262" lon="1.78561">
        <ele>193.8</ele>
        <time>2021-09-26T08:36:37Z</time>
      </trkpt>
      <trkpt lat="43.96274" lon="1.78566">
        <ele>193.4</ele>
        <time>2021-09-26T08:36:40Z</time>
      </trkpt>
      <trkpt lat="43.96283" lon="1.78563">
        <ele>193.2</ele>
        <time>2021-09-26T08:36:42Z</time>
      </trkpt>
      <trkpt lat="43.96286" lon="1.78564">
        <ele>193</ele>
        <time>2021-09-26T08:36:43Z</time>
      </trkpt>
      <trkpt lat="43.96289" lon="1.78566">
        <ele>192.4</ele>
        <time>2021-09-26T08:36:44Z</time>
      </trkpt>
      <trkpt lat="43.96292" lon="1.78568">
        <ele>192.2</ele>
        <time>2021-09-26T08:36:45Z</time>
      </trkpt>
      <trkpt lat="43.96294" lon="1.7857">
        <ele>192</ele>
        <time>2021-09-26T08:36:46Z</time>
      </trkpt>
      <trkpt lat="43.96298" lon="1.78571">
        <ele>191.4</ele>
        <time>2021-09-26T08:36:47Z</time>
      </trkpt>
      <trkpt lat="43.96301" lon="1.7857">
        <ele>191.2</ele>
        <time>2021-09-26T08:36:48Z</time>
      </trkpt>
      <trkpt lat="43.96306" lon="1.78568">
        <ele>190.8</ele>
        <time>2021-09-26T08:36:49Z</time>
      </trkpt>
      <trkpt lat="43.9631" lon="1.78566">
        <ele>190.6</ele>
        <time>2021-09-26T08:36:50Z</time>
      </trkpt>
      <trkpt lat="43.96314" lon="1.78565">
        <ele>190</ele>
        <time>2021-09-26T08:36:51Z</time>
      </trkpt>
      <trkpt lat="43.96322" lon="1.78563">
        <ele>189.2</ele>
        <time>2021-09-26T08:36:53Z</time>
      </trkpt>
      <trkpt lat="43.96326" lon="1.78561">
        <ele>189</ele>
        <time>2021-09-26T08:36:54Z</time>
      </trkpt>
      <trkpt lat="43.96341" lon="1.78562">
        <ele>187.4</ele>
        <time>2021-09-26T08:36:58Z</time>
      </trkpt>
      <trkpt lat="43.96344" lon="1.78562">
        <ele>187</ele>
        <time>2021-09-26T08:36:59Z</time>
      </trkpt>
      <trkpt lat="43.96348" lon="1.7856">
        <ele>186.2</ele>
        <time>2021-09-26T08:37:00Z</time>
      </trkpt>
      <trkpt lat="43.96357" lon="1.78555">
        <ele>184.8</ele>
        <time>2021-09-26T08:37:02Z</time>
      </trkpt>
      <trkpt lat="43.96361" lon="1.78554">
        <ele>184</ele>
        <time>2021-09-26T08:37:03Z</time>
      </trkpt>
      <trkpt lat="43.96365" lon="1.78555">
        <ele>183.6</ele>
        <time>2021-09-26T08:37:04Z</time>
      </trkpt>
      <trkpt lat="43.9637" lon="1.78554">
        <ele>182.8</ele>
        <time>2021-09-26T08:37:05Z</time>
      </trkpt>
      <trkpt lat="43.96374" lon="1.78554">
        <ele>182.6</ele>
        <time>2021-09-26T08:37:06Z</time>
      </trkpt>
      <trkpt lat="43.96379" lon="1.78554">
        <ele>181.8</ele>
        <time>2021-09-26T08:37:07Z</time>
      </trkpt>
      <trkpt lat="43.96384" lon="1.78556">
        <ele>181.2</ele>
        <time>2021-09-26T08:37:08Z</time>
      </trkpt>
      <trkpt lat="43.9639" lon="1.78563">
        <ele>180.2</ele>
        <time>2021-09-26T08:37:10Z</time>
      </trkpt>
      <trkpt lat="43.96393" lon="1.78567">
        <ele>179.8</ele>
        <time>2021-09-26T08:37:11Z</time>
      </trkpt>
      <trkpt lat="43.96396" lon="1.78571">
        <ele>178.8</ele>
        <time>2021-09-26T08:37:12Z</time>
      </trkpt>
      <trkpt lat="43.96398" lon="1.78576">
        <ele>178.2</ele>
        <time>2021-09-26T08:37:13Z</time>
      </trkpt>
      <trkpt lat="43.96401" lon="1.78578">
        <ele>177</ele>
        <time>2021-09-26T08:37:14Z</time>
      </trkpt>
      <trkpt lat="43.96402" lon="1.78581">
        <ele>176.2</ele>
        <time>2021-09-26T08:37:15Z</time>
      </trkpt>
      <trkpt lat="43.96404" lon="1.78585">
        <ele>175.4</ele>
        <time>2021-09-26T08:37:16Z</time>
      </trkpt>
      <trkpt lat="43.96407" lon="1.78587">
        <ele>174.8</ele>
        <time>2021-09-26T08:37:17Z</time>
      </trkpt>
      <trkpt lat="43.96412" lon="1.78597">
        <ele>174</ele>
        <time>2021-09-26T08:37:19Z</time>
      </trkpt>
      <trkpt lat="43.9642" lon="1.78606">
        <ele>173.4</ele>
        <time>2021-09-26T08:37:21Z</time>
      </trkpt>
      <trkpt lat="43.96428" lon="1.78615">
        <ele>172.8</ele>
        <time>2021-09-26T08:37:24Z</time>
      </trkpt>
      <trkpt lat="43.9643" lon="1.78616">
        <ele>172.4</ele>
        <time>2021-09-26T08:37:25Z</time>
      </trkpt>
      <trkpt lat="43.96432" lon="1.78618">
        <ele>172</ele>
        <time>2021-09-26T08:37:26Z</time>
      </trkpt>
      <trkpt lat="43.96434" lon="1.78622">
        <ele>171.8</ele>
        <time>2021-09-26T08:37:27Z</time>
      </trkpt>
      <trkpt lat="43.96435" lon="1.78626">
        <ele>171.4</ele>
        <time>2021-09-26T08:37:28Z</time>
      </trkpt>
      <trkpt lat="43.96443" lon="1.78648">
        <ele>170.4</ele>
        <time>2021-09-26T08:37:32Z</time>
      </trkpt>
      <trkpt lat="43.96444" lon="1.78652">
        <ele>170</ele>
        <time>2021-09-26T08:37:33Z</time>
      </trkpt>
      <trkpt lat="43.96445" lon="1.78657">
        <ele>169.8</ele>
        <time>2021-09-26T08:37:34Z</time>
      </trkpt>
      <trkpt lat="43.96445" lon="1.78661">
        <ele>169</ele>
        <time>2021-09-26T08:37:35Z</time>
      </trkpt>
      <trkpt lat="43.96444" lon="1.78664">
        <ele>168.4</ele>
        <time>2021-09-26T08:37:36Z</time>
      </trkpt>
      <trkpt lat="43.96444" lon="1.78667">
        <ele>167.2</ele>
        <time>2021-09-26T08:37:37Z</time>
      </trkpt>
      <trkpt lat="43.96444" lon="1.7867">
        <ele>166.8</ele>
        <time>2021-09-26T08:37:38Z</time>
      </trkpt>
      <trkpt lat="43.96443" lon="1.78672">
        <ele>166</ele>
        <time>2021-09-26T08:37:39Z</time>
      </trkpt>
      <trkpt lat="43.96442" lon="1.78676">
        <ele>165.4</ele>
        <time>2021-09-26T08:37:40Z</time>
      </trkpt>
      <trkpt lat="43.96442" lon="1.78678">
        <ele>165.2</ele>
        <time>2021-09-26T08:37:41Z</time>
      </trkpt>
      <trkpt lat="43.96442" lon="1.78679">
        <ele>164.6</ele>
        <time>2021-09-26T08:37:42Z</time>
      </trkpt>
      <trkpt lat="43.96442" lon="1.78681">
        <ele>164.4</ele>
        <time>2021-09-26T08:37:43Z</time>
      </trkpt>
      <trkpt lat="43.96442" lon="1.78682">
        <ele>164.2</ele>
        <time>2021-09-26T08:37:44Z</time>
      </trkpt>
      <trkpt lat="43.96443" lon="1.78683">
        <ele>164</ele>
        <time>2021-09-26T08:37:45Z</time>
      </trkpt>
      <trkpt lat="43.96444" lon="1.78683">
        <ele>164</ele>
        <time>2021-09-26T08:37:46Z</time>
      </trkpt>
      <trkpt lat="43.96445" lon="1.78682">
        <ele>163.8</ele>
        <time>2021-09-26T08:37:47Z</time>
      </trkpt>
      <trkpt lat="43.96446" lon="1.78682">
        <ele>163.8</ele>
        <time>2021-09-26T08:37:48Z</time>
      </trkpt>
      <trkpt lat="43.96448" lon="1.78681">
        <ele>163.4</ele>
        <time>2021-09-26T08:37:49Z</time>
      </trkpt>
      <trkpt lat="43.96452" lon="1.7868">
        <ele>163.4</ele>
        <time>2021-09-26T08:37:51Z</time>
      </trkpt>
      <trkpt lat="43.96454" lon="1.78679">
        <ele>163.4</ele>
        <time>2021-09-26T08:37:52Z</time>
      </trkpt>
      <trkpt lat="43.96462" lon="1.78677">
        <ele>163.2</ele>
        <time>2021-09-26T08:37:55Z</time>
      </trkpt>
      <trkpt lat="43.9647" lon="1.78676">
        <ele>163</ele>
        <time>2021-09-26T08:37:58Z</time>
      </trkpt>
      <trkpt lat="43.9649" lon="1.78672">
        <ele>162.4</ele>
        <time>2021-09-26T08:38:04Z</time>
      </trkpt>
      <trkpt lat="43.96494" lon="1.78671">
        <ele>162.4</ele>
        <time>2021-09-26T08:38:05Z</time>
      </trkpt>
      <trkpt lat="43.96515" lon="1.78668">
        <ele>161.8</ele>
        <time>2021-09-26T08:38:10Z</time>
      </trkpt>
      <trkpt lat="43.96518" lon="1.78667">
        <ele>161.6</ele>
        <time>2021-09-26T08:38:11Z</time>
      </trkpt>
      <trkpt lat="43.96541" lon="1.78665">
        <ele>161.2</ele>
        <time>2021-09-26T08:38:16Z</time>
      </trkpt>
      <trkpt lat="43.96546" lon="1.78665">
        <ele>161</ele>
        <time>2021-09-26T08:38:17Z</time>
      </trkpt>
      <trkpt lat="43.96582" lon="1.78672">
        <ele>160.2</ele>
        <time>2021-09-26T08:38:25Z</time>
      </trkpt>
      <trkpt lat="43.9659" lon="1.78676">
        <ele>160</ele>
        <time>2021-09-26T08:38:27Z</time>
      </trkpt>
      <trkpt lat="43.96593" lon="1.78677">
        <ele>160</ele>
        <time>2021-09-26T08:38:28Z</time>
      </trkpt>
      <trkpt lat="43.96597" lon="1.7868">
        <ele>159.8</ele>
        <time>2021-09-26T08:38:29Z</time>
      </trkpt>
      <trkpt lat="43.966" lon="1.78682">
        <ele>159.8</ele>
        <time>2021-09-26T08:38:30Z</time>
      </trkpt>
      <trkpt lat="43.96604" lon="1.78685">
        <ele>159.8</ele>
        <time>2021-09-26T08:38:31Z</time>
      </trkpt>
      <trkpt lat="43.96607" lon="1.78688">
        <ele>159.8</ele>
        <time>2021-09-26T08:38:32Z</time>
      </trkpt>
      <trkpt lat="43.9661" lon="1.7869">
        <ele>159.8</ele>
        <time>2021-09-26T08:38:33Z</time>
      </trkpt>
      <trkpt lat="43.96613" lon="1.78693">
        <ele>159.8</ele>
        <time>2021-09-26T08:38:34Z</time>
      </trkpt>
      <trkpt lat="43.96616" lon="1.78696">
        <ele>159.8</ele>
        <time>2021-09-26T08:38:35Z</time>
      </trkpt>
      <trkpt lat="43.96619" lon="1.78699">
        <ele>159.8</ele>
        <time>2021-09-26T08:38:36Z</time>
      </trkpt>
      <trkpt lat="43.96633" lon="1.78714">
        <ele>160</ele>
        <time>2021-09-26T08:38:40Z</time>
      </trkpt>
      <trkpt lat="43.96664" lon="1.78741">
        <ele>159.6</ele>
        <time>2021-09-26T08:38:48Z</time>
      </trkpt>
      <trkpt lat="43.96683" lon="1.78753">
        <ele>159.4</ele>
        <time>2021-09-26T08:38:53Z</time>
      </trkpt>
      <trkpt lat="43.96686" lon="1.78755">
        <ele>159.4</ele>
        <time>2021-09-26T08:38:54Z</time>
      </trkpt>
      <trkpt lat="43.96689" lon="1.78755">
        <ele>159.4</ele>
        <time>2021-09-26T08:38:55Z</time>
      </trkpt>
      <trkpt lat="43.96691" lon="1.78755">
        <ele>159.4</ele>
        <time>2021-09-26T08:38:56Z</time>
      </trkpt>
      <trkpt lat="43.96694" lon="1.78755">
        <ele>159.4</ele>
        <time>2021-09-26T08:38:57Z</time>
      </trkpt>
      <trkpt lat="43.96696" lon="1.78755">
        <ele>159.2</ele>
        <time>2021-09-26T08:38:58Z</time>
      </trkpt>
      <trkpt lat="43.96698" lon="1.78756">
        <ele>159.2</ele>
        <time>2021-09-26T08:38:59Z</time>
      </trkpt>
      <trkpt lat="43.96701" lon="1.78756">
        <ele>159.2</ele>
        <time>2021-09-26T08:39:00Z</time>
      </trkpt>
      <trkpt lat="43.96705" lon="1.78756">
        <ele>159</ele>
        <time>2021-09-26T08:39:01Z</time>
      </trkpt>
      <trkpt lat="43.96711" lon="1.78756">
        <ele>159</ele>
        <time>2021-09-26T08:39:03Z</time>
      </trkpt>
      <trkpt lat="43.96726" lon="1.78763">
        <ele>158.6</ele>
        <time>2021-09-26T08:39:08Z</time>
      </trkpt>
      <trkpt lat="43.9676" lon="1.78782">
        <ele>158.2</ele>
        <time>2021-09-26T08:39:19Z</time>
      </trkpt>
      <trkpt lat="43.96774" lon="1.78792">
        <ele>158</ele>
        <time>2021-09-26T08:39:24Z</time>
      </trkpt>
      <trkpt lat="43.96777" lon="1.78795">
        <ele>158.2</ele>
        <time>2021-09-26T08:39:25Z</time>
      </trkpt>
      <trkpt lat="43.96779" lon="1.78797">
        <ele>158.2</ele>
        <time>2021-09-26T08:39:26Z</time>
      </trkpt>
      <trkpt lat="43.96784" lon="1.78806">
        <ele>158</ele>
        <time>2021-09-26T08:39:29Z</time>
      </trkpt>
      <trkpt lat="43.96785" lon="1.78809">
        <ele>158</ele>
        <time>2021-09-26T08:39:30Z</time>
      </trkpt>
      <trkpt lat="43.96786" lon="1.78813">
        <ele>158</ele>
        <time>2021-09-26T08:39:31Z</time>
      </trkpt>
      <trkpt lat="43.96786" lon="1.78817">
        <ele>158</ele>
        <time>2021-09-26T08:39:32Z</time>
      </trkpt>
      <trkpt lat="43.96786" lon="1.7882">
        <ele>157.8</ele>
        <time>2021-09-26T08:39:33Z</time>
      </trkpt>
      <trkpt lat="43.96787" lon="1.78824">
        <ele>157.8</ele>
        <time>2021-09-26T08:39:34Z</time>
      </trkpt>
      <trkpt lat="43.96787" lon="1.78828">
        <ele>157.8</ele>
        <time>2021-09-26T08:39:35Z</time>
      </trkpt>
      <trkpt lat="43.96788" lon="1.78832">
        <ele>157.8</ele>
        <time>2021-09-26T08:39:36Z</time>
      </trkpt>
      <trkpt lat="43.96788" lon="1.78837">
        <ele>157.6</ele>
        <time>2021-09-26T08:39:37Z</time>
      </trkpt>
      <trkpt lat="43.96799" lon="1.78879">
        <ele>157.6</ele>
        <time>2021-09-26T08:39:47Z</time>
      </trkpt>
      <trkpt lat="43.96812" lon="1.78927">
        <ele>157.6</ele>
        <time>2021-09-26T08:39:58Z</time>
      </trkpt>
      <trkpt lat="43.96821" lon="1.78965">
        <ele>157.6</ele>
        <time>2021-09-26T08:40:06Z</time>
      </trkpt>
      <trkpt lat="43.96834" lon="1.79005">
        <ele>157.8</ele>
        <time>2021-09-26T08:40:14Z</time>
      </trkpt>
      <trkpt lat="43.96849" lon="1.79046">
        <ele>157.8</ele>
        <time>2021-09-26T08:40:22Z</time>
      </trkpt>
      <trkpt lat="43.96855" lon="1.79056">
        <ele>157.8</ele>
        <time>2021-09-26T08:40:24Z</time>
      </trkpt>
      <trkpt lat="43.96861" lon="1.79062">
        <ele>157.8</ele>
        <time>2021-09-26T08:40:26Z</time>
      </trkpt>
      <trkpt lat="43.96865" lon="1.79066">
        <ele>157.8</ele>
        <time>2021-09-26T08:40:27Z</time>
      </trkpt>
      <trkpt lat="43.96871" lon="1.7907">
        <ele>157.8</ele>
        <time>2021-09-26T08:40:29Z</time>
      </trkpt>
      <trkpt lat="43.96878" lon="1.79073">
        <ele>157.8</ele>
        <time>2021-09-26T08:40:31Z</time>
      </trkpt>
      <trkpt lat="43.96882" lon="1.79074">
        <ele>157.8</ele>
        <time>2021-09-26T08:40:32Z</time>
      </trkpt>
      <trkpt lat="43.96886" lon="1.79075">
        <ele>157.8</ele>
        <time>2021-09-26T08:40:33Z</time>
      </trkpt>
      <trkpt lat="43.96889" lon="1.79076">
        <ele>157.8</ele>
        <time>2021-09-26T08:40:34Z</time>
      </trkpt>
      <trkpt lat="43.96891" lon="1.79076">
        <ele>157.8</ele>
        <time>2021-09-26T08:40:35Z</time>
      </trkpt>
      <trkpt lat="43.96893" lon="1.79077">
        <ele>157.8</ele>
        <time>2021-09-26T08:40:36Z</time>
      </trkpt>
      <trkpt lat="43.96895" lon="1.79078">
        <ele>157.8</ele>
        <time>2021-09-26T08:40:37Z</time>
      </trkpt>
      <trkpt lat="43.96898" lon="1.79079">
        <ele>157.8</ele>
        <time>2021-09-26T08:40:38Z</time>
      </trkpt>
      <trkpt lat="43.96903" lon="1.7908">
        <ele>157.6</ele>
        <time>2021-09-26T08:40:40Z</time>
      </trkpt>
      <trkpt lat="43.96912" lon="1.79078">
        <ele>157.6</ele>
        <time>2021-09-26T08:40:43Z</time>
      </trkpt>
      <trkpt lat="43.96914" lon="1.79077">
        <ele>157.6</ele>
        <time>2021-09-26T08:40:44Z</time>
      </trkpt>
      <trkpt lat="43.96916" lon="1.79076">
        <ele>157.6</ele>
        <time>2021-09-26T08:40:45Z</time>
      </trkpt>
      <trkpt lat="43.96919" lon="1.79075">
        <ele>157.4</ele>
        <time>2021-09-26T08:40:46Z</time>
      </trkpt>
      <trkpt lat="43.96941" lon="1.79064">
        <ele>157.4</ele>
        <time>2021-09-26T08:40:54Z</time>
      </trkpt>
      <trkpt lat="43.96949" lon="1.79056">
        <ele>157.4</ele>
        <time>2021-09-26T08:40:58Z</time>
      </trkpt>
      <trkpt lat="43.96951" lon="1.79054">
        <ele>157.4</ele>
        <time>2021-09-26T08:40:59Z</time>
      </trkpt>
      <trkpt lat="43.96952" lon="1.79052">
        <ele>157.4</ele>
        <time>2021-09-26T08:41:00Z</time>
      </trkpt>
      <trkpt lat="43.96953" lon="1.79051">
        <ele>157.4</ele>
        <time>2021-09-26T08:41:01Z</time>
      </trkpt>
      <trkpt lat="43.96953" lon="1.7905">
        <ele>157.2</ele>
        <time>2021-09-26T08:41:02Z</time>
      </trkpt>
      <trkpt lat="43.96954" lon="1.79049">
        <ele>157.2</ele>
        <time>2021-09-26T08:41:03Z</time>
      </trkpt>
      <trkpt lat="43.96955" lon="1.79047">
        <ele>157</ele>
        <time>2021-09-26T08:41:04Z</time>
      </trkpt>
      <trkpt lat="43.96955" lon="1.79046">
        <ele>157</ele>
        <time>2021-09-26T08:41:05Z</time>
      </trkpt>
      <trkpt lat="43.96956" lon="1.79045">
        <ele>157</ele>
        <time>2021-09-26T08:41:06Z</time>
      </trkpt>
      <trkpt lat="43.96956" lon="1.79045">
        <ele>157</ele>
        <time>2021-09-26T08:41:07Z</time>
      </trkpt>
      <trkpt lat="43.96958" lon="1.79034">
        <ele>156</ele>
        <time>2021-09-26T08:47:38Z</time>
      </trkpt>
      <trkpt lat="43.96958" lon="1.79032">
        <ele>156</ele>
        <time>2021-09-26T08:47:39Z</time>
      </trkpt>
      <trkpt lat="43.96959" lon="1.79024">
        <ele>156</ele>
        <time>2021-09-26T08:47:41Z</time>
      </trkpt>
      <trkpt lat="43.96963" lon="1.79008">
        <ele>155.8</ele>
        <time>2021-09-26T08:47:46Z</time>
      </trkpt>
      <trkpt lat="43.96965" lon="1.79002">
        <ele>155.8</ele>
        <time>2021-09-26T08:47:48Z</time>
      </trkpt>
      <trkpt lat="43.96975" lon="1.78979">
        <ele>156</ele>
        <time>2021-09-26T08:47:55Z</time>
      </trkpt>
      <trkpt lat="43.96991" lon="1.78957">
        <ele>156.2</ele>
        <time>2021-09-26T08:48:03Z</time>
      </trkpt>
      <trkpt lat="43.97015" lon="1.78948">
        <ele>156.4</ele>
        <time>2021-09-26T08:48:11Z</time>
      </trkpt>
      <trkpt lat="43.97018" lon="1.78949">
        <ele>156.4</ele>
        <time>2021-09-26T08:48:12Z</time>
      </trkpt>
      <trkpt lat="43.97026" lon="1.78953">
        <ele>156.6</ele>
        <time>2021-09-26T08:48:14Z</time>
      </trkpt>
      <trkpt lat="43.97028" lon="1.78956">
        <ele>156.6</ele>
        <time>2021-09-26T08:48:15Z</time>
      </trkpt>
      <trkpt lat="43.9703" lon="1.78958">
        <ele>156.6</ele>
        <time>2021-09-26T08:48:16Z</time>
      </trkpt>
      <trkpt lat="43.97033" lon="1.78963">
        <ele>156.6</ele>
        <time>2021-09-26T08:48:17Z</time>
      </trkpt>
      <trkpt lat="43.97036" lon="1.78967">
        <ele>156.6</ele>
        <time>2021-09-26T08:48:18Z</time>
      </trkpt>
      <trkpt lat="43.97044" lon="1.78983">
        <ele>156.4</ele>
        <time>2021-09-26T08:48:22Z</time>
      </trkpt>
      <trkpt lat="43.97057" lon="1.78999">
        <ele>156.4</ele>
        <time>2021-09-26T08:48:27Z</time>
      </trkpt>
      <trkpt lat="43.97061" lon="1.79001">
        <ele>156.4</ele>
        <time>2021-09-26T08:48:28Z</time>
      </trkpt>
      <trkpt lat="43.97063" lon="1.79002">
        <ele>156.4</ele>
        <time>2021-09-26T08:48:29Z</time>
      </trkpt>
      <trkpt lat="43.97067" lon="1.79003">
        <ele>156.2</ele>
        <time>2021-09-26T08:48:30Z</time>
      </trkpt>
      <trkpt lat="43.9707" lon="1.79005">
        <ele>156.2</ele>
        <time>2021-09-26T08:48:31Z</time>
      </trkpt>
      <trkpt lat="43.97075" lon="1.79007">
        <ele>156.2</ele>
        <time>2021-09-26T08:48:33Z</time>
      </trkpt>
      <trkpt lat="43.97077" lon="1.79008">
        <ele>156.2</ele>
        <time>2021-09-26T08:48:34Z</time>
      </trkpt>
      <trkpt lat="43.9708" lon="1.79009">
        <ele>156.2</ele>
        <time>2021-09-26T08:48:35Z</time>
      </trkpt>
      <trkpt lat="43.97083" lon="1.79009">
        <ele>156.2</ele>
        <time>2021-09-26T08:48:36Z</time>
      </trkpt>
      <trkpt lat="43.97086" lon="1.7901">
        <ele>156.2</ele>
        <time>2021-09-26T08:48:37Z</time>
      </trkpt>
      <trkpt lat="43.97095" lon="1.79008">
        <ele>156.4</ele>
        <time>2021-09-26T08:48:40Z</time>
      </trkpt>
      <trkpt lat="43.97107" lon="1.79011">
        <ele>156.4</ele>
        <time>2021-09-26T08:48:44Z</time>
      </trkpt>
      <trkpt lat="43.97109" lon="1.79014">
        <ele>156.6</ele>
        <time>2021-09-26T08:48:45Z</time>
      </trkpt>
      <trkpt lat="43.97111" lon="1.79017">
        <ele>156.6</ele>
        <time>2021-09-26T08:48:46Z</time>
      </trkpt>
      <trkpt lat="43.97111" lon="1.79019">
        <ele>156.6</ele>
        <time>2021-09-26T08:48:47Z</time>
      </trkpt>
      <trkpt lat="43.97111" lon="1.79022">
        <ele>156.6</ele>
        <time>2021-09-26T08:48:48Z</time>
      </trkpt>
      <trkpt lat="43.97112" lon="1.79024">
        <ele>156.6</ele>
        <time>2021-09-26T08:48:49Z</time>
      </trkpt>
      <trkpt lat="43.97113" lon="1.79025">
        <ele>156.6</ele>
        <time>2021-09-26T08:48:50Z</time>
      </trkpt>
      <trkpt lat="43.97115" lon="1.79024">
        <ele>156.6</ele>
        <time>2021-09-26T08:48:51Z</time>
      </trkpt>
      <trkpt lat="43.97115" lon="1.79022">
        <ele>156.6</ele>
        <time>2021-09-26T08:48:52Z</time>
      </trkpt>
      <trkpt lat="43.97115" lon="1.7902">
        <ele>156.6</ele>
        <time>2021-09-26T08:48:53Z</time>
      </trkpt>
      <trkpt lat="43.97111" lon="1.79015">
        <ele>156.4</ele>
        <time>2021-09-26T08:48:55Z</time>
      </trkpt>
      <trkpt lat="43.97101" lon="1.79012">
        <ele>156.4</ele>
        <time>2021-09-26T08:48:58Z</time>
      </trkpt>
      <trkpt lat="43.97098" lon="1.79013">
        <ele>156.2</ele>
        <time>2021-09-26T08:48:59Z</time>
      </trkpt>
      <trkpt lat="43.97095" lon="1.79015">
        <ele>156.2</ele>
        <time>2021-09-26T08:49:00Z</time>
      </trkpt>
      <trkpt lat="43.97092" lon="1.79017">
        <ele>156.2</ele>
        <time>2021-09-26T08:49:01Z</time>
      </trkpt>
      <trkpt lat="43.9709" lon="1.7902">
        <ele>156</ele>
        <time>2021-09-26T08:49:02Z</time>
      </trkpt>
      <trkpt lat="43.97087" lon="1.79023">
        <ele>156</ele>
        <time>2021-09-26T08:49:03Z</time>
      </trkpt>
      <trkpt lat="43.97085" lon="1.79026">
        <ele>156</ele>
        <time>2021-09-26T08:49:04Z</time>
      </trkpt>
      <trkpt lat="43.97077" lon="1.79037">
        <ele>155.8</ele>
        <time>2021-09-26T08:49:08Z</time>
      </trkpt>
      <trkpt lat="43.97074" lon="1.7904">
        <ele>155.6</ele>
        <time>2021-09-26T08:49:09Z</time>
      </trkpt>
      <trkpt lat="43.97072" lon="1.79041">
        <ele>155.6</ele>
        <time>2021-09-26T08:49:10Z</time>
      </trkpt>
      <trkpt lat="43.97071" lon="1.79043">
        <ele>155.4</ele>
        <time>2021-09-26T08:49:11Z</time>
      </trkpt>
      <trkpt lat="43.9707" lon="1.79043">
        <ele>155.4</ele>
        <time>2021-09-26T08:49:12Z</time>
      </trkpt>
      <trkpt lat="43.9707" lon="1.79043">
        <ele>155.2</ele>
        <time>2021-09-26T08:49:13Z</time>
      </trkpt>
      <trkpt lat="43.97078" lon="1.79045">
        <ele>154.8</ele>
        <time>2021-09-26T08:49:38Z</time>
      </trkpt>
      <trkpt lat="43.97082" lon="1.79041">
        <ele>154.8</ele>
        <time>2021-09-26T08:49:41Z</time>
      </trkpt>
      <trkpt lat="43.97088" lon="1.79036">
        <ele>155</ele>
        <time>2021-09-26T08:49:45Z</time>
      </trkpt>
      <trkpt lat="43.97092" lon="1.79032">
        <ele>155</ele>
        <time>2021-09-26T08:49:48Z</time>
      </trkpt>
      <trkpt lat="43.97096" lon="1.79026">
        <ele>155.2</ele>
        <time>2021-09-26T08:49:51Z</time>
      </trkpt>
      <trkpt lat="43.97098" lon="1.79023">
        <ele>155.2</ele>
        <time>2021-09-26T08:49:52Z</time>
      </trkpt>
      <trkpt lat="43.97102" lon="1.79016">
        <ele>155.2</ele>
        <time>2021-09-26T08:49:55Z</time>
      </trkpt>
      <trkpt lat="43.97104" lon="1.79015">
        <ele>155.2</ele>
        <time>2021-09-26T08:49:56Z</time>
      </trkpt>
      <trkpt lat="43.97106" lon="1.79015">
        <ele>155.2</ele>
        <time>2021-09-26T08:49:57Z</time>
      </trkpt>
      <trkpt lat="43.97107" lon="1.79015">
        <ele>155.4</ele>
        <time>2021-09-26T08:49:58Z</time>
      </trkpt>
      <trkpt lat="43.9711" lon="1.79016">
        <ele>155.4</ele>
        <time>2021-09-26T08:49:59Z</time>
      </trkpt>
      <trkpt lat="43.97112" lon="1.79017">
        <ele>155.6</ele>
        <time>2021-09-26T08:50:00Z</time>
      </trkpt>
      <trkpt lat="43.97113" lon="1.79018">
        <ele>155.6</ele>
        <time>2021-09-26T08:50:01Z</time>
      </trkpt>
      <trkpt lat="43.97115" lon="1.79019">
        <ele>155.6</ele>
        <time>2021-09-26T08:50:02Z</time>
      </trkpt>
      <trkpt lat="43.97117" lon="1.79021">
        <ele>155.8</ele>
        <time>2021-09-26T08:50:03Z</time>
      </trkpt>
      <trkpt lat="43.97128" lon="1.79033">
        <ele>156.2</ele>
        <time>2021-09-26T08:50:09Z</time>
      </trkpt>
      <trkpt lat="43.97138" lon="1.79045">
        <ele>156.2</ele>
        <time>2021-09-26T08:50:15Z</time>
      </trkpt>
      <trkpt lat="43.9714" lon="1.79047">
        <ele>156.4</ele>
        <time>2021-09-26T08:50:17Z</time>
      </trkpt>
      <trkpt lat="43.97142" lon="1.79049">
        <ele>156.4</ele>
        <time>2021-09-26T08:50:18Z</time>
      </trkpt>
      <trkpt lat="43.97143" lon="1.7905">
        <ele>156.4</ele>
        <time>2021-09-26T08:50:19Z</time>
      </trkpt>
      <trkpt lat="43.97144" lon="1.79051">
        <ele>156.4</ele>
        <time>2021-09-26T08:50:20Z</time>
      </trkpt>
      <trkpt lat="43.97149" lon="1.79059">
        <ele>156.6</ele>
        <time>2021-09-26T08:50:23Z</time>
      </trkpt>
      <trkpt lat="43.97163" lon="1.79085">
        <ele>156.2</ele>
        <time>2021-09-26T08:50:32Z</time>
      </trkpt>
      <trkpt lat="43.97179" lon="1.79117">
        <ele>156</ele>
        <time>2021-09-26T08:50:41Z</time>
      </trkpt>
      <trkpt lat="43.97185" lon="1.79128">
        <ele>155.8</ele>
        <time>2021-09-26T08:50:45Z</time>
      </trkpt>
      <trkpt lat="43.97187" lon="1.79132">
        <ele>155.8</ele>
        <time>2021-09-26T08:50:46Z</time>
      </trkpt>
      <trkpt lat="43.97189" lon="1.79135">
        <ele>155.8</ele>
        <time>2021-09-26T08:50:47Z</time>
      </trkpt>
      <trkpt lat="43.9719" lon="1.79137">
        <ele>155.8</ele>
        <time>2021-09-26T08:50:48Z</time>
      </trkpt>
      <trkpt lat="43.97193" lon="1.7914">
        <ele>155.8</ele>
        <time>2021-09-26T08:50:49Z</time>
      </trkpt>
      <trkpt lat="43.97195" lon="1.79143">
        <ele>155.8</ele>
        <time>2021-09-26T08:50:50Z</time>
      </trkpt>
      <trkpt lat="43.97196" lon="1.79146">
        <ele>155.8</ele>
        <time>2021-09-26T08:50:51Z</time>
      </trkpt>
      <trkpt lat="43.97199" lon="1.79148">
        <ele>155.8</ele>
        <time>2021-09-26T08:50:52Z</time>
      </trkpt>
      <trkpt lat="43.97204" lon="1.7916">
        <ele>155.6</ele>
        <time>2021-09-26T08:50:55Z</time>
      </trkpt>
      <trkpt lat="43.97204" lon="1.79164">
        <ele>155.6</ele>
        <time>2021-09-26T08:50:56Z</time>
      </trkpt>
      <trkpt lat="43.97204" lon="1.79167">
        <ele>155.6</ele>
        <time>2021-09-26T08:50:57Z</time>
      </trkpt>
      <trkpt lat="43.97201" lon="1.79174">
        <ele>155.6</ele>
        <time>2021-09-26T08:50:59Z</time>
      </trkpt>
      <trkpt lat="43.97198" lon="1.79179">
        <ele>155.6</ele>
        <time>2021-09-26T08:51:01Z</time>
      </trkpt>
      <trkpt lat="43.97196" lon="1.79181">
        <ele>155.8</ele>
        <time>2021-09-26T08:51:02Z</time>
      </trkpt>
      <trkpt lat="43.97194" lon="1.7919">
        <ele>155.8</ele>
        <time>2021-09-26T08:51:04Z</time>
      </trkpt>
      <trkpt lat="43.97194" lon="1.79194">
        <ele>155.8</ele>
        <time>2021-09-26T08:51:05Z</time>
      </trkpt>
      <trkpt lat="43.97201" lon="1.79209">
        <ele>155.8</ele>
        <time>2021-09-26T08:51:09Z</time>
      </trkpt>
      <trkpt lat="43.97203" lon="1.79211">
        <ele>155.8</ele>
        <time>2021-09-26T08:51:10Z</time>
      </trkpt>
      <trkpt lat="43.9723" lon="1.79252">
        <ele>156</ele>
        <time>2021-09-26T08:51:23Z</time>
      </trkpt>
      <trkpt lat="43.97233" lon="1.79258">
        <ele>156</ele>
        <time>2021-09-26T08:51:25Z</time>
      </trkpt>
      <trkpt lat="43.97235" lon="1.79262">
        <ele>156.2</ele>
        <time>2021-09-26T08:51:26Z</time>
      </trkpt>
      <trkpt lat="43.97235" lon="1.79268">
        <ele>156.2</ele>
        <time>2021-09-26T08:51:28Z</time>
      </trkpt>
      <trkpt lat="43.97235" lon="1.79272">
        <ele>156.4</ele>
        <time>2021-09-26T08:51:29Z</time>
      </trkpt>
      <trkpt lat="43.97233" lon="1.79276">
        <ele>156.4</ele>
        <time>2021-09-26T08:51:30Z</time>
      </trkpt>
      <trkpt lat="43.97231" lon="1.79279">
        <ele>156.6</ele>
        <time>2021-09-26T08:51:31Z</time>
      </trkpt>
      <trkpt lat="43.97229" lon="1.79283">
        <ele>156.6</ele>
        <time>2021-09-26T08:51:32Z</time>
      </trkpt>
      <trkpt lat="43.97227" lon="1.79285">
        <ele>156.6</ele>
        <time>2021-09-26T08:51:33Z</time>
      </trkpt>
      <trkpt lat="43.97225" lon="1.79289">
        <ele>156.8</ele>
        <time>2021-09-26T08:51:34Z</time>
      </trkpt>
      <trkpt lat="43.97222" lon="1.79293">
        <ele>156.8</ele>
        <time>2021-09-26T08:51:35Z</time>
      </trkpt>
      <trkpt lat="43.97205" lon="1.79323">
        <ele>156.8</ele>
        <time>2021-09-26T08:51:42Z</time>
      </trkpt>
      <trkpt lat="43.97178" lon="1.79373">
        <ele>157</ele>
        <time>2021-09-26T08:51:53Z</time>
      </trkpt>
      <trkpt lat="43.97167" lon="1.79393">
        <ele>156.8</ele>
        <time>2021-09-26T08:51:58Z</time>
      </trkpt>
      <trkpt lat="43.97164" lon="1.79403">
        <ele>156.8</ele>
        <time>2021-09-26T08:52:00Z</time>
      </trkpt>
      <trkpt lat="43.97153" lon="1.79427">
        <ele>157</ele>
        <time>2021-09-26T08:52:05Z</time>
      </trkpt>
      <trkpt lat="43.97144" lon="1.79447">
        <ele>157</ele>
        <time>2021-09-26T08:52:09Z</time>
      </trkpt>
      <trkpt lat="43.97125" lon="1.79492">
        <ele>157.2</ele>
        <time>2021-09-26T08:52:18Z</time>
      </trkpt>
      <trkpt lat="43.9711" lon="1.79528">
        <ele>157.6</ele>
        <time>2021-09-26T08:52:25Z</time>
      </trkpt>
      <trkpt lat="43.97108" lon="1.79533">
        <ele>157.6</ele>
        <time>2021-09-26T08:52:26Z</time>
      </trkpt>
      <trkpt lat="43.97099" lon="1.79557">
        <ele>158</ele>
        <time>2021-09-26T08:52:31Z</time>
      </trkpt>
      <trkpt lat="43.97097" lon="1.79562">
        <ele>158</ele>
        <time>2021-09-26T08:52:32Z</time>
      </trkpt>
      <trkpt lat="43.97095" lon="1.79567">
        <ele>158.2</ele>
        <time>2021-09-26T08:52:33Z</time>
      </trkpt>
      <trkpt lat="43.97088" lon="1.79586">
        <ele>158.2</ele>
        <time>2021-09-26T08:52:37Z</time>
      </trkpt>
      <trkpt lat="43.97071" lon="1.79632">
        <ele>158.4</ele>
        <time>2021-09-26T08:52:46Z</time>
      </trkpt>
      <trkpt lat="43.97069" lon="1.79637">
        <ele>158.4</ele>
        <time>2021-09-26T08:52:47Z</time>
      </trkpt>
      <trkpt lat="43.97067" lon="1.79642">
        <ele>158.4</ele>
        <time>2021-09-26T08:52:48Z</time>
      </trkpt>
      <trkpt lat="43.97064" lon="1.79651">
        <ele>158.6</ele>
        <time>2021-09-26T08:52:50Z</time>
      </trkpt>
      <trkpt lat="43.97062" lon="1.79656">
        <ele>158.8</ele>
        <time>2021-09-26T08:52:51Z</time>
      </trkpt>
      <trkpt lat="43.9706" lon="1.79661">
        <ele>158.8</ele>
        <time>2021-09-26T08:52:52Z</time>
      </trkpt>
      <trkpt lat="43.97058" lon="1.79666">
        <ele>159</ele>
        <time>2021-09-26T08:52:53Z</time>
      </trkpt>
      <trkpt lat="43.97056" lon="1.79671">
        <ele>159</ele>
        <time>2021-09-26T08:52:54Z</time>
      </trkpt>
      <trkpt lat="43.97055" lon="1.79675">
        <ele>159</ele>
        <time>2021-09-26T08:52:55Z</time>
      </trkpt>
      <trkpt lat="43.97051" lon="1.79684">
        <ele>159.4</ele>
        <time>2021-09-26T08:52:57Z</time>
      </trkpt>
      <trkpt lat="43.9705" lon="1.79689">
        <ele>159.4</ele>
        <time>2021-09-26T08:52:58Z</time>
      </trkpt>
      <trkpt lat="43.97043" lon="1.79708">
        <ele>159.8</ele>
        <time>2021-09-26T08:53:02Z</time>
      </trkpt>
      <trkpt lat="43.97031" lon="1.79735">
        <ele>160.6</ele>
        <time>2021-09-26T08:53:08Z</time>
      </trkpt>
      <trkpt lat="43.97028" lon="1.79744">
        <ele>161</ele>
        <time>2021-09-26T08:53:10Z</time>
      </trkpt>
      <trkpt lat="43.97023" lon="1.79759">
        <ele>161.4</ele>
        <time>2021-09-26T08:53:13Z</time>
      </trkpt>
      <trkpt lat="43.97022" lon="1.79762">
        <ele>161.6</ele>
        <time>2021-09-26T08:53:14Z</time>
      </trkpt>
      <trkpt lat="43.97021" lon="1.79766">
        <ele>162</ele>
        <time>2021-09-26T08:53:15Z</time>
      </trkpt>
      <trkpt lat="43.97019" lon="1.79772">
        <ele>162.2</ele>
        <time>2021-09-26T08:53:16Z</time>
      </trkpt>
      <trkpt lat="43.97018" lon="1.79775">
        <ele>162.4</ele>
        <time>2021-09-26T08:53:17Z</time>
      </trkpt>
      <trkpt lat="43.97017" lon="1.7978">
        <ele>162.6</ele>
        <time>2021-09-26T08:53:18Z</time>
      </trkpt>
      <trkpt lat="43.97016" lon="1.79784">
        <ele>162.8</ele>
        <time>2021-09-26T08:53:19Z</time>
      </trkpt>
      <trkpt lat="43.97014" lon="1.79788">
        <ele>162.8</ele>
        <time>2021-09-26T08:53:20Z</time>
      </trkpt>
      <trkpt lat="43.97013" lon="1.79792">
        <ele>163.2</ele>
        <time>2021-09-26T08:53:21Z</time>
      </trkpt>
      <trkpt lat="43.97012" lon="1.79797">
        <ele>163.2</ele>
        <time>2021-09-26T08:53:22Z</time>
      </trkpt>
      <trkpt lat="43.97011" lon="1.79801">
        <ele>163.4</ele>
        <time>2021-09-26T08:53:23Z</time>
      </trkpt>
      <trkpt lat="43.9701" lon="1.79805">
        <ele>163.6</ele>
        <time>2021-09-26T08:53:24Z</time>
      </trkpt>
      <trkpt lat="43.97009" lon="1.79809">
        <ele>163.6</ele>
        <time>2021-09-26T08:53:25Z</time>
      </trkpt>
      <trkpt lat="43.97008" lon="1.79813">
        <ele>163.8</ele>
        <time>2021-09-26T08:53:26Z</time>
      </trkpt>
      <trkpt lat="43.97006" lon="1.79817">
        <ele>163.8</ele>
        <time>2021-09-26T08:53:27Z</time>
      </trkpt>
      <trkpt lat="43.97005" lon="1.7982">
        <ele>164</ele>
        <time>2021-09-26T08:53:28Z</time>
      </trkpt>
      <trkpt lat="43.97004" lon="1.79823">
        <ele>164.2</ele>
        <time>2021-09-26T08:53:29Z</time>
      </trkpt>
      <trkpt lat="43.97001" lon="1.79827">
        <ele>164.4</ele>
        <time>2021-09-26T08:53:30Z</time>
      </trkpt>
      <trkpt lat="43.97" lon="1.79829">
        <ele>164.6</ele>
        <time>2021-09-26T08:53:31Z</time>
      </trkpt>
      <trkpt lat="43.96997" lon="1.79832">
        <ele>164.6</ele>
        <time>2021-09-26T08:53:32Z</time>
      </trkpt>
      <trkpt lat="43.96995" lon="1.79836">
        <ele>164.8</ele>
        <time>2021-09-26T08:53:33Z</time>
      </trkpt>
      <trkpt lat="43.96992" lon="1.79839">
        <ele>164.8</ele>
        <time>2021-09-26T08:53:34Z</time>
      </trkpt>
      <trkpt lat="43.96988" lon="1.79843">
        <ele>164.8</ele>
        <time>2021-09-26T08:53:35Z</time>
      </trkpt>
      <trkpt lat="43.96984" lon="1.79848">
        <ele>164.8</ele>
        <time>2021-09-26T08:53:36Z</time>
      </trkpt>
      <trkpt lat="43.96979" lon="1.79855">
        <ele>164.8</ele>
        <time>2021-09-26T08:53:37Z</time>
      </trkpt>
      <trkpt lat="43.96973" lon="1.79862">
        <ele>164.6</ele>
        <time>2021-09-26T08:53:38Z</time>
      </trkpt>
      <trkpt lat="43.96967" lon="1.7987">
        <ele>164.6</ele>
        <time>2021-09-26T08:53:39Z</time>
      </trkpt>
      <trkpt lat="43.96961" lon="1.79878">
        <ele>164.6</ele>
        <time>2021-09-26T08:53:40Z</time>
      </trkpt>
      <trkpt lat="43.96956" lon="1.79886">
        <ele>164.4</ele>
        <time>2021-09-26T08:53:41Z</time>
      </trkpt>
      <trkpt lat="43.9695" lon="1.79893">
        <ele>164</ele>
        <time>2021-09-26T08:53:42Z</time>
      </trkpt>
      <trkpt lat="43.96944" lon="1.799">
        <ele>163.6</ele>
        <time>2021-09-26T08:53:43Z</time>
      </trkpt>
      <trkpt lat="43.96939" lon="1.79907">
        <ele>163</ele>
        <time>2021-09-26T08:53:44Z</time>
      </trkpt>
      <trkpt lat="43.96934" lon="1.79914">
        <ele>162.4</ele>
        <time>2021-09-26T08:53:45Z</time>
      </trkpt>
      <trkpt lat="43.9693" lon="1.7992">
        <ele>162.2</ele>
        <time>2021-09-26T08:53:46Z</time>
      </trkpt>
      <trkpt lat="43.96926" lon="1.79927">
        <ele>161.8</ele>
        <time>2021-09-26T08:53:47Z</time>
      </trkpt>
      <trkpt lat="43.96922" lon="1.79933">
        <ele>161.8</ele>
        <time>2021-09-26T08:53:48Z</time>
      </trkpt>
      <trkpt lat="43.96919" lon="1.79939">
        <ele>161.4</ele>
        <time>2021-09-26T08:53:49Z</time>
      </trkpt>
      <trkpt lat="43.96916" lon="1.79945">
        <ele>161.2</ele>
        <time>2021-09-26T08:53:50Z</time>
      </trkpt>
      <trkpt lat="43.96914" lon="1.79951">
        <ele>161.2</ele>
        <time>2021-09-26T08:53:51Z</time>
      </trkpt>
      <trkpt lat="43.96912" lon="1.79956">
        <ele>161.2</ele>
        <time>2021-09-26T08:53:52Z</time>
      </trkpt>
      <trkpt lat="43.9691" lon="1.79961">
        <ele>161.2</ele>
        <time>2021-09-26T08:53:53Z</time>
      </trkpt>
      <trkpt lat="43.96908" lon="1.79967">
        <ele>161.2</ele>
        <time>2021-09-26T08:53:54Z</time>
      </trkpt>
      <trkpt lat="43.96906" lon="1.79972">
        <ele>161.2</ele>
        <time>2021-09-26T08:53:55Z</time>
      </trkpt>
      <trkpt lat="43.96905" lon="1.79976">
        <ele>161.2</ele>
        <time>2021-09-26T08:53:56Z</time>
      </trkpt>
      <trkpt lat="43.96901" lon="1.79987">
        <ele>161.2</ele>
        <time>2021-09-26T08:53:58Z</time>
      </trkpt>
      <trkpt lat="43.969" lon="1.79991">
        <ele>161.2</ele>
        <time>2021-09-26T08:53:59Z</time>
      </trkpt>
      <trkpt lat="43.96898" lon="1.79997">
        <ele>161.2</ele>
        <time>2021-09-26T08:54:00Z</time>
      </trkpt>
      <trkpt lat="43.96896" lon="1.80001">
        <ele>161.2</ele>
        <time>2021-09-26T08:54:01Z</time>
      </trkpt>
      <trkpt lat="43.96895" lon="1.80006">
        <ele>161.2</ele>
        <time>2021-09-26T08:54:02Z</time>
      </trkpt>
      <trkpt lat="43.96883" lon="1.8004">
        <ele>161.4</ele>
        <time>2021-09-26T08:54:09Z</time>
      </trkpt>
      <trkpt lat="43.96882" lon="1.80045">
        <ele>161.4</ele>
        <time>2021-09-26T08:54:10Z</time>
      </trkpt>
      <trkpt lat="43.96862" lon="1.80102">
        <ele>162</ele>
        <time>2021-09-26T08:54:21Z</time>
      </trkpt>
      <trkpt lat="43.96853" lon="1.80127">
        <ele>162</ele>
        <time>2021-09-26T08:54:26Z</time>
      </trkpt>
      <trkpt lat="43.96849" lon="1.80142">
        <ele>162.2</ele>
        <time>2021-09-26T08:54:29Z</time>
      </trkpt>
      <trkpt lat="43.96844" lon="1.80157">
        <ele>162.4</ele>
        <time>2021-09-26T08:54:32Z</time>
      </trkpt>
      <trkpt lat="43.96842" lon="1.80162">
        <ele>162.6</ele>
        <time>2021-09-26T08:54:33Z</time>
      </trkpt>
      <trkpt lat="43.96841" lon="1.80166">
        <ele>162.8</ele>
        <time>2021-09-26T08:54:34Z</time>
      </trkpt>
      <trkpt lat="43.96839" lon="1.80171">
        <ele>163</ele>
        <time>2021-09-26T08:54:35Z</time>
      </trkpt>
      <trkpt lat="43.96837" lon="1.80176">
        <ele>163</ele>
        <time>2021-09-26T08:54:36Z</time>
      </trkpt>
      <trkpt lat="43.96836" lon="1.8018">
        <ele>163.2</ele>
        <time>2021-09-26T08:54:37Z</time>
      </trkpt>
      <trkpt lat="43.96834" lon="1.80186">
        <ele>163.4</ele>
        <time>2021-09-26T08:54:38Z</time>
      </trkpt>
      <trkpt lat="43.96832" lon="1.8019">
        <ele>163.4</ele>
        <time>2021-09-26T08:54:39Z</time>
      </trkpt>
      <trkpt lat="43.96827" lon="1.80203">
        <ele>163.6</ele>
        <time>2021-09-26T08:54:42Z</time>
      </trkpt>
      <trkpt lat="43.96814" lon="1.80239">
        <ele>164.4</ele>
        <time>2021-09-26T08:54:50Z</time>
      </trkpt>
      <trkpt lat="43.96812" lon="1.80243">
        <ele>164.6</ele>
        <time>2021-09-26T08:54:51Z</time>
      </trkpt>
      <trkpt lat="43.96806" lon="1.80254">
        <ele>164.8</ele>
        <time>2021-09-26T08:54:54Z</time>
      </trkpt>
      <trkpt lat="43.96804" lon="1.80258">
        <ele>165</ele>
        <time>2021-09-26T08:54:55Z</time>
      </trkpt>
      <trkpt lat="43.96802" lon="1.80261">
        <ele>165.2</ele>
        <time>2021-09-26T08:54:56Z</time>
      </trkpt>
      <trkpt lat="43.968" lon="1.80266">
        <ele>165.2</ele>
        <time>2021-09-26T08:54:57Z</time>
      </trkpt>
      <trkpt lat="43.96798" lon="1.80269">
        <ele>165.4</ele>
        <time>2021-09-26T08:54:58Z</time>
      </trkpt>
      <trkpt lat="43.96796" lon="1.80272">
        <ele>165.4</ele>
        <time>2021-09-26T08:54:59Z</time>
      </trkpt>
      <trkpt lat="43.96794" lon="1.80276">
        <ele>165.4</ele>
        <time>2021-09-26T08:55:00Z</time>
      </trkpt>
      <trkpt lat="43.96792" lon="1.80279">
        <ele>165.4</ele>
        <time>2021-09-26T08:55:01Z</time>
      </trkpt>
      <trkpt lat="43.9679" lon="1.80283">
        <ele>165.6</ele>
        <time>2021-09-26T08:55:02Z</time>
      </trkpt>
      <trkpt lat="43.96787" lon="1.80286">
        <ele>165.8</ele>
        <time>2021-09-26T08:55:03Z</time>
      </trkpt>
      <trkpt lat="43.96785" lon="1.80289">
        <ele>166</ele>
        <time>2021-09-26T08:55:04Z</time>
      </trkpt>
      <trkpt lat="43.96782" lon="1.80293">
        <ele>166.2</ele>
        <time>2021-09-26T08:55:05Z</time>
      </trkpt>
      <trkpt lat="43.9678" lon="1.80295">
        <ele>166.2</ele>
        <time>2021-09-26T08:55:06Z</time>
      </trkpt>
      <trkpt lat="43.96778" lon="1.80299">
        <ele>166.2</ele>
        <time>2021-09-26T08:55:07Z</time>
      </trkpt>
      <trkpt lat="43.96775" lon="1.80302">
        <ele>166.4</ele>
        <time>2021-09-26T08:55:08Z</time>
      </trkpt>
      <trkpt lat="43.96773" lon="1.80305">
        <ele>166.4</ele>
        <time>2021-09-26T08:55:09Z</time>
      </trkpt>
      <trkpt lat="43.9677" lon="1.80308">
        <ele>166.6</ele>
        <time>2021-09-26T08:55:10Z</time>
      </trkpt>
      <trkpt lat="43.96767" lon="1.80312">
        <ele>166.6</ele>
        <time>2021-09-26T08:55:11Z</time>
      </trkpt>
      <trkpt lat="43.96765" lon="1.80314">
        <ele>166.6</ele>
        <time>2021-09-26T08:55:12Z</time>
      </trkpt>
      <trkpt lat="43.96763" lon="1.80317">
        <ele>166.6</ele>
        <time>2021-09-26T08:55:13Z</time>
      </trkpt>
      <trkpt lat="43.9676" lon="1.8032">
        <ele>166.8</ele>
        <time>2021-09-26T08:55:14Z</time>
      </trkpt>
      <trkpt lat="43.96757" lon="1.80323">
        <ele>167</ele>
        <time>2021-09-26T08:55:15Z</time>
      </trkpt>
      <trkpt lat="43.96754" lon="1.80326">
        <ele>167.2</ele>
        <time>2021-09-26T08:55:16Z</time>
      </trkpt>
      <trkpt lat="43.96752" lon="1.80329">
        <ele>167.4</ele>
        <time>2021-09-26T08:55:17Z</time>
      </trkpt>
      <trkpt lat="43.96749" lon="1.80332">
        <ele>167.4</ele>
        <time>2021-09-26T08:55:18Z</time>
      </trkpt>
      <trkpt lat="43.96746" lon="1.80335">
        <ele>167.6</ele>
        <time>2021-09-26T08:55:19Z</time>
      </trkpt>
      <trkpt lat="43.96743" lon="1.80338">
        <ele>167.6</ele>
        <time>2021-09-26T08:55:20Z</time>
      </trkpt>
      <trkpt lat="43.9674" lon="1.80341">
        <ele>167.8</ele>
        <time>2021-09-26T08:55:21Z</time>
      </trkpt>
      <trkpt lat="43.96738" lon="1.80344">
        <ele>167.8</ele>
        <time>2021-09-26T08:55:22Z</time>
      </trkpt>
      <trkpt lat="43.96735" lon="1.80347">
        <ele>167.8</ele>
        <time>2021-09-26T08:55:23Z</time>
      </trkpt>
      <trkpt lat="43.96732" lon="1.8035">
        <ele>168</ele>
        <time>2021-09-26T08:55:24Z</time>
      </trkpt>
      <trkpt lat="43.96729" lon="1.80354">
        <ele>168</ele>
        <time>2021-09-26T08:55:25Z</time>
      </trkpt>
      <trkpt lat="43.96727" lon="1.80356">
        <ele>168</ele>
        <time>2021-09-26T08:55:26Z</time>
      </trkpt>
      <trkpt lat="43.96725" lon="1.80358">
        <ele>168.2</ele>
        <time>2021-09-26T08:55:27Z</time>
      </trkpt>
      <trkpt lat="43.96722" lon="1.80361">
        <ele>168.4</ele>
        <time>2021-09-26T08:55:28Z</time>
      </trkpt>
      <trkpt lat="43.96719" lon="1.80364">
        <ele>168.4</ele>
        <time>2021-09-26T08:55:29Z</time>
      </trkpt>
      <trkpt lat="43.96717" lon="1.80366">
        <ele>168.6</ele>
        <time>2021-09-26T08:55:30Z</time>
      </trkpt>
      <trkpt lat="43.96714" lon="1.80369">
        <ele>168.8</ele>
        <time>2021-09-26T08:55:31Z</time>
      </trkpt>
      <trkpt lat="43.96712" lon="1.80372">
        <ele>168.8</ele>
        <time>2021-09-26T08:55:32Z</time>
      </trkpt>
      <trkpt lat="43.96709" lon="1.80376">
        <ele>169</ele>
        <time>2021-09-26T08:55:33Z</time>
      </trkpt>
      <trkpt lat="43.96706" lon="1.80379">
        <ele>169</ele>
        <time>2021-09-26T08:55:34Z</time>
      </trkpt>
      <trkpt lat="43.96704" lon="1.80382">
        <ele>169.2</ele>
        <time>2021-09-26T08:55:35Z</time>
      </trkpt>
      <trkpt lat="43.96701" lon="1.80386">
        <ele>169.2</ele>
        <time>2021-09-26T08:55:36Z</time>
      </trkpt>
      <trkpt lat="43.96699" lon="1.8039">
        <ele>169.2</ele>
        <time>2021-09-26T08:55:37Z</time>
      </trkpt>
      <trkpt lat="43.96696" lon="1.80394">
        <ele>169.4</ele>
        <time>2021-09-26T08:55:38Z</time>
      </trkpt>
      <trkpt lat="43.96694" lon="1.80398">
        <ele>169.4</ele>
        <time>2021-09-26T08:55:39Z</time>
      </trkpt>
      <trkpt lat="43.96691" lon="1.80403">
        <ele>169.4</ele>
        <time>2021-09-26T08:55:40Z</time>
      </trkpt>
      <trkpt lat="43.96688" lon="1.80407">
        <ele>169.6</ele>
        <time>2021-09-26T08:55:41Z</time>
      </trkpt>
      <trkpt lat="43.96686" lon="1.80412">
        <ele>169.6</ele>
        <time>2021-09-26T08:55:42Z</time>
      </trkpt>
      <trkpt lat="43.96683" lon="1.80416">
        <ele>169.6</ele>
        <time>2021-09-26T08:55:43Z</time>
      </trkpt>
      <trkpt lat="43.96677" lon="1.80424">
        <ele>169.8</ele>
        <time>2021-09-26T08:55:45Z</time>
      </trkpt>
      <trkpt lat="43.96663" lon="1.80446">
        <ele>170</ele>
        <time>2021-09-26T08:55:50Z</time>
      </trkpt>
      <trkpt lat="43.96636" lon="1.80487">
        <ele>170.2</ele>
        <time>2021-09-26T08:55:59Z</time>
      </trkpt>
      <trkpt lat="43.96616" lon="1.80512">
        <ele>170.6</ele>
        <time>2021-09-26T08:56:06Z</time>
      </trkpt>
      <trkpt lat="43.96613" lon="1.80515">
        <ele>170.8</ele>
        <time>2021-09-26T08:56:07Z</time>
      </trkpt>
      <trkpt lat="43.96611" lon="1.80518">
        <ele>170.8</ele>
        <time>2021-09-26T08:56:08Z</time>
      </trkpt>
      <trkpt lat="43.96608" lon="1.80521">
        <ele>171</ele>
        <time>2021-09-26T08:56:09Z</time>
      </trkpt>
      <trkpt lat="43.96605" lon="1.80523">
        <ele>171</ele>
        <time>2021-09-26T08:56:10Z</time>
      </trkpt>
      <trkpt lat="43.96603" lon="1.80526">
        <ele>171.2</ele>
        <time>2021-09-26T08:56:11Z</time>
      </trkpt>
      <trkpt lat="43.966" lon="1.80528">
        <ele>171.4</ele>
        <time>2021-09-26T08:56:12Z</time>
      </trkpt>
      <trkpt lat="43.96597" lon="1.8053">
        <ele>171.6</ele>
        <time>2021-09-26T08:56:13Z</time>
      </trkpt>
      <trkpt lat="43.96594" lon="1.80533">
        <ele>171.6</ele>
        <time>2021-09-26T08:56:14Z</time>
      </trkpt>
      <trkpt lat="43.96592" lon="1.80535">
        <ele>171.6</ele>
        <time>2021-09-26T08:56:15Z</time>
      </trkpt>
      <trkpt lat="43.96581" lon="1.80545">
        <ele>172.2</ele>
        <time>2021-09-26T08:56:19Z</time>
      </trkpt>
      <trkpt lat="43.96568" lon="1.80556">
        <ele>172.6</ele>
        <time>2021-09-26T08:56:24Z</time>
      </trkpt>
      <trkpt lat="43.96558" lon="1.80566">
        <ele>173.2</ele>
        <time>2021-09-26T08:56:28Z</time>
      </trkpt>
      <trkpt lat="43.96556" lon="1.80568">
        <ele>173.2</ele>
        <time>2021-09-26T08:56:29Z</time>
      </trkpt>
      <trkpt lat="43.96549" lon="1.80575">
        <ele>173.2</ele>
        <time>2021-09-26T08:56:32Z</time>
      </trkpt>
      <trkpt lat="43.96546" lon="1.80577">
        <ele>173.4</ele>
        <time>2021-09-26T08:56:33Z</time>
      </trkpt>
      <trkpt lat="43.96544" lon="1.8058">
        <ele>173.4</ele>
        <time>2021-09-26T08:56:34Z</time>
      </trkpt>
      <trkpt lat="43.96542" lon="1.80582">
        <ele>173.6</ele>
        <time>2021-09-26T08:56:35Z</time>
      </trkpt>
      <trkpt lat="43.96539" lon="1.80584">
        <ele>173.8</ele>
        <time>2021-09-26T08:56:36Z</time>
      </trkpt>
      <trkpt lat="43.96537" lon="1.80586">
        <ele>173.8</ele>
        <time>2021-09-26T08:56:37Z</time>
      </trkpt>
      <trkpt lat="43.96534" lon="1.80589">
        <ele>174</ele>
        <time>2021-09-26T08:56:38Z</time>
      </trkpt>
      <trkpt lat="43.96531" lon="1.80591">
        <ele>174.2</ele>
        <time>2021-09-26T08:56:39Z</time>
      </trkpt>
      <trkpt lat="43.96529" lon="1.80593">
        <ele>174.2</ele>
        <time>2021-09-26T08:56:40Z</time>
      </trkpt>
      <trkpt lat="43.96526" lon="1.80596">
        <ele>174.4</ele>
        <time>2021-09-26T08:56:41Z</time>
      </trkpt>
      <trkpt lat="43.96524" lon="1.80598">
        <ele>174.6</ele>
        <time>2021-09-26T08:56:42Z</time>
      </trkpt>
      <trkpt lat="43.96521" lon="1.80601">
        <ele>174.6</ele>
        <time>2021-09-26T08:56:43Z</time>
      </trkpt>
      <trkpt lat="43.96519" lon="1.80603">
        <ele>174.8</ele>
        <time>2021-09-26T08:56:44Z</time>
      </trkpt>
      <trkpt lat="43.96516" lon="1.80606">
        <ele>174.8</ele>
        <time>2021-09-26T08:56:45Z</time>
      </trkpt>
      <trkpt lat="43.96514" lon="1.80608">
        <ele>175</ele>
        <time>2021-09-26T08:56:46Z</time>
      </trkpt>
      <trkpt lat="43.96511" lon="1.8061">
        <ele>175</ele>
        <time>2021-09-26T08:56:47Z</time>
      </trkpt>
      <trkpt lat="43.96508" lon="1.80612">
        <ele>175.2</ele>
        <time>2021-09-26T08:56:48Z</time>
      </trkpt>
      <trkpt lat="43.96505" lon="1.80615">
        <ele>175.2</ele>
        <time>2021-09-26T08:56:49Z</time>
      </trkpt>
      <trkpt lat="43.96503" lon="1.80617">
        <ele>175.4</ele>
        <time>2021-09-26T08:56:50Z</time>
      </trkpt>
      <trkpt lat="43.965" lon="1.8062">
        <ele>175.4</ele>
        <time>2021-09-26T08:56:51Z</time>
      </trkpt>
      <trkpt lat="43.96497" lon="1.80622">
        <ele>175.4</ele>
        <time>2021-09-26T08:56:52Z</time>
      </trkpt>
      <trkpt lat="43.96494" lon="1.80625">
        <ele>175.6</ele>
        <time>2021-09-26T08:56:53Z</time>
      </trkpt>
      <trkpt lat="43.96491" lon="1.80628">
        <ele>175.6</ele>
        <time>2021-09-26T08:56:54Z</time>
      </trkpt>
      <trkpt lat="43.96488" lon="1.80631">
        <ele>175.8</ele>
        <time>2021-09-26T08:56:55Z</time>
      </trkpt>
      <trkpt lat="43.96486" lon="1.80634">
        <ele>175.8</ele>
        <time>2021-09-26T08:56:56Z</time>
      </trkpt>
      <trkpt lat="43.96483" lon="1.80636">
        <ele>175.8</ele>
        <time>2021-09-26T08:56:57Z</time>
      </trkpt>
      <trkpt lat="43.9648" lon="1.80639">
        <ele>175.8</ele>
        <time>2021-09-26T08:56:58Z</time>
      </trkpt>
      <trkpt lat="43.96477" lon="1.80642">
        <ele>176</ele>
        <time>2021-09-26T08:56:59Z</time>
      </trkpt>
      <trkpt lat="43.96474" lon="1.80645">
        <ele>176</ele>
        <time>2021-09-26T08:57:00Z</time>
      </trkpt>
      <trkpt lat="43.96446" lon="1.80671">
        <ele>176.2</ele>
        <time>2021-09-26T08:57:09Z</time>
      </trkpt>
      <trkpt lat="43.96443" lon="1.80674">
        <ele>176.4</ele>
        <time>2021-09-26T08:57:10Z</time>
      </trkpt>
      <trkpt lat="43.9642" lon="1.80695">
        <ele>176.4</ele>
        <time>2021-09-26T08:57:16Z</time>
      </trkpt>
      <trkpt lat="43.96388" lon="1.80725">
        <ele>176</ele>
        <time>2021-09-26T08:57:23Z</time>
      </trkpt>
      <trkpt lat="43.96351" lon="1.80758">
        <ele>175.8</ele>
        <time>2021-09-26T08:57:31Z</time>
      </trkpt>
      <trkpt lat="43.96348" lon="1.80762">
        <ele>175.8</ele>
        <time>2021-09-26T08:57:32Z</time>
      </trkpt>
      <trkpt lat="43.96344" lon="1.80766">
        <ele>175.8</ele>
        <time>2021-09-26T08:57:33Z</time>
      </trkpt>
      <trkpt lat="43.96341" lon="1.80771">
        <ele>176</ele>
        <time>2021-09-26T08:57:34Z</time>
      </trkpt>
      <trkpt lat="43.96339" lon="1.80775">
        <ele>176</ele>
        <time>2021-09-26T08:57:35Z</time>
      </trkpt>
      <trkpt lat="43.96337" lon="1.80779">
        <ele>176</ele>
        <time>2021-09-26T08:57:36Z</time>
      </trkpt>
      <trkpt lat="43.96335" lon="1.80783">
        <ele>176</ele>
        <time>2021-09-26T08:57:37Z</time>
      </trkpt>
      <trkpt lat="43.96334" lon="1.80787">
        <ele>176.2</ele>
        <time>2021-09-26T08:57:38Z</time>
      </trkpt>
      <trkpt lat="43.96333" lon="1.8079">
        <ele>176.4</ele>
        <time>2021-09-26T08:57:39Z</time>
      </trkpt>
      <trkpt lat="43.96332" lon="1.80793">
        <ele>176.4</ele>
        <time>2021-09-26T08:57:40Z</time>
      </trkpt>
      <trkpt lat="43.96331" lon="1.80795">
        <ele>176.6</ele>
        <time>2021-09-26T08:57:41Z</time>
      </trkpt>
      <trkpt lat="43.9633" lon="1.80798">
        <ele>176.8</ele>
        <time>2021-09-26T08:57:42Z</time>
      </trkpt>
      <trkpt lat="43.9633" lon="1.80801">
        <ele>177.2</ele>
        <time>2021-09-26T08:57:43Z</time>
      </trkpt>
      <trkpt lat="43.9633" lon="1.80804">
        <ele>177.4</ele>
        <time>2021-09-26T08:57:44Z</time>
      </trkpt>
      <trkpt lat="43.9633" lon="1.8081">
        <ele>177.8</ele>
        <time>2021-09-26T08:57:46Z</time>
      </trkpt>
      <trkpt lat="43.9633" lon="1.80813">
        <ele>178</ele>
        <time>2021-09-26T08:57:47Z</time>
      </trkpt>
      <trkpt lat="43.96329" lon="1.80816">
        <ele>178.2</ele>
        <time>2021-09-26T08:57:48Z</time>
      </trkpt>
      <trkpt lat="43.9633" lon="1.80819">
        <ele>178.4</ele>
        <time>2021-09-26T08:57:49Z</time>
      </trkpt>
      <trkpt lat="43.9633" lon="1.80822">
        <ele>178.8</ele>
        <time>2021-09-26T08:57:50Z</time>
      </trkpt>
      <trkpt lat="43.96331" lon="1.8083">
        <ele>179.2</ele>
        <time>2021-09-26T08:57:53Z</time>
      </trkpt>
      <trkpt lat="43.96331" lon="1.80833">
        <ele>179.4</ele>
        <time>2021-09-26T08:57:54Z</time>
      </trkpt>
      <trkpt lat="43.96331" lon="1.80836">
        <ele>179.6</ele>
        <time>2021-09-26T08:57:55Z</time>
      </trkpt>
      <trkpt lat="43.96331" lon="1.80839">
        <ele>179.8</ele>
        <time>2021-09-26T08:57:56Z</time>
      </trkpt>
      <trkpt lat="43.96331" lon="1.80842">
        <ele>180</ele>
        <time>2021-09-26T08:57:57Z</time>
      </trkpt>
      <trkpt lat="43.96331" lon="1.80845">
        <ele>180</ele>
        <time>2021-09-26T08:57:58Z</time>
      </trkpt>
      <trkpt lat="43.96331" lon="1.80848">
        <ele>180.2</ele>
        <time>2021-09-26T08:57:59Z</time>
      </trkpt>
      <trkpt lat="43.96331" lon="1.80851">
        <ele>180.4</ele>
        <time>2021-09-26T08:58:00Z</time>
      </trkpt>
      <trkpt lat="43.96331" lon="1.80854">
        <ele>180.4</ele>
        <time>2021-09-26T08:58:01Z</time>
      </trkpt>
      <trkpt lat="43.96331" lon="1.80857">
        <ele>180.6</ele>
        <time>2021-09-26T08:58:02Z</time>
      </trkpt>
      <trkpt lat="43.96331" lon="1.8086">
        <ele>180.6</ele>
        <time>2021-09-26T08:58:03Z</time>
      </trkpt>
      <trkpt lat="43.96331" lon="1.80862">
        <ele>180.8</ele>
        <time>2021-09-26T08:58:04Z</time>
      </trkpt>
      <trkpt lat="43.9633" lon="1.80865">
        <ele>181</ele>
        <time>2021-09-26T08:58:05Z</time>
      </trkpt>
      <trkpt lat="43.96329" lon="1.80868">
        <ele>181.2</ele>
        <time>2021-09-26T08:58:06Z</time>
      </trkpt>
      <trkpt lat="43.96329" lon="1.80871">
        <ele>181.2</ele>
        <time>2021-09-26T08:58:07Z</time>
      </trkpt>
      <trkpt lat="43.96328" lon="1.80874">
        <ele>181.4</ele>
        <time>2021-09-26T08:58:08Z</time>
      </trkpt>
      <trkpt lat="43.96327" lon="1.80876">
        <ele>181.4</ele>
        <time>2021-09-26T08:58:09Z</time>
      </trkpt>
      <trkpt lat="43.96327" lon="1.80879">
        <ele>181.6</ele>
        <time>2021-09-26T08:58:10Z</time>
      </trkpt>
      <trkpt lat="43.96326" lon="1.80882">
        <ele>181.6</ele>
        <time>2021-09-26T08:58:11Z</time>
      </trkpt>
      <trkpt lat="43.96325" lon="1.80884">
        <ele>181.8</ele>
        <time>2021-09-26T08:58:12Z</time>
      </trkpt>
      <trkpt lat="43.96324" lon="1.80887">
        <ele>182</ele>
        <time>2021-09-26T08:58:13Z</time>
      </trkpt>
      <trkpt lat="43.96323" lon="1.8089">
        <ele>182.2</ele>
        <time>2021-09-26T08:58:14Z</time>
      </trkpt>
      <trkpt lat="43.96322" lon="1.80892">
        <ele>182.2</ele>
        <time>2021-09-26T08:58:15Z</time>
      </trkpt>
      <trkpt lat="43.96321" lon="1.80895">
        <ele>182.4</ele>
        <time>2021-09-26T08:58:16Z</time>
      </trkpt>
      <trkpt lat="43.9632" lon="1.80897">
        <ele>182.4</ele>
        <time>2021-09-26T08:58:17Z</time>
      </trkpt>
      <trkpt lat="43.96319" lon="1.80899">
        <ele>182.6</ele>
        <time>2021-09-26T08:58:18Z</time>
      </trkpt>
      <trkpt lat="43.96318" lon="1.80902">
        <ele>182.6</ele>
        <time>2021-09-26T08:58:19Z</time>
      </trkpt>
      <trkpt lat="43.96317" lon="1.80904">
        <ele>182.8</ele>
        <time>2021-09-26T08:58:20Z</time>
      </trkpt>
      <trkpt lat="43.96316" lon="1.80906">
        <ele>182.8</ele>
        <time>2021-09-26T08:58:21Z</time>
      </trkpt>
      <trkpt lat="43.96314" lon="1.80908">
        <ele>183</ele>
        <time>2021-09-26T08:58:22Z</time>
      </trkpt>
      <trkpt lat="43.96313" lon="1.80911">
        <ele>183</ele>
        <time>2021-09-26T08:58:23Z</time>
      </trkpt>
      <trkpt lat="43.96312" lon="1.80912">
        <ele>183.2</ele>
        <time>2021-09-26T08:58:24Z</time>
      </trkpt>
      <trkpt lat="43.9631" lon="1.80914">
        <ele>183.2</ele>
        <time>2021-09-26T08:58:25Z</time>
      </trkpt>
      <trkpt lat="43.96309" lon="1.80916">
        <ele>183.4</ele>
        <time>2021-09-26T08:58:26Z</time>
      </trkpt>
      <trkpt lat="43.96308" lon="1.80918">
        <ele>183.6</ele>
        <time>2021-09-26T08:58:27Z</time>
      </trkpt>
      <trkpt lat="43.96307" lon="1.80921">
        <ele>183.6</ele>
        <time>2021-09-26T08:58:28Z</time>
      </trkpt>
      <trkpt lat="43.96306" lon="1.80923">
        <ele>183.8</ele>
        <time>2021-09-26T08:58:29Z</time>
      </trkpt>
      <trkpt lat="43.96305" lon="1.80925">
        <ele>184.2</ele>
        <time>2021-09-26T08:58:30Z</time>
      </trkpt>
      <trkpt lat="43.96303" lon="1.80926">
        <ele>184</ele>
        <time>2021-09-26T08:58:31Z</time>
      </trkpt>
      <trkpt lat="43.96302" lon="1.80928">
        <ele>184.2</ele>
        <time>2021-09-26T08:58:32Z</time>
      </trkpt>
      <trkpt lat="43.96301" lon="1.8093">
        <ele>184.4</ele>
        <time>2021-09-26T08:58:33Z</time>
      </trkpt>
      <trkpt lat="43.963" lon="1.80932">
        <ele>184.6</ele>
        <time>2021-09-26T08:58:34Z</time>
      </trkpt>
      <trkpt lat="43.96298" lon="1.80934">
        <ele>184.8</ele>
        <time>2021-09-26T08:58:35Z</time>
      </trkpt>
      <trkpt lat="43.96297" lon="1.80936">
        <ele>184.8</ele>
        <time>2021-09-26T08:58:36Z</time>
      </trkpt>
      <trkpt lat="43.96295" lon="1.80939">
        <ele>185</ele>
        <time>2021-09-26T08:58:37Z</time>
      </trkpt>
      <trkpt lat="43.96294" lon="1.8094">
        <ele>185.2</ele>
        <time>2021-09-26T08:58:38Z</time>
      </trkpt>
      <trkpt lat="43.96293" lon="1.80942">
        <ele>185.4</ele>
        <time>2021-09-26T08:58:39Z</time>
      </trkpt>
      <trkpt lat="43.96291" lon="1.80944">
        <ele>185.4</ele>
        <time>2021-09-26T08:58:40Z</time>
      </trkpt>
      <trkpt lat="43.9629" lon="1.80946">
        <ele>185.8</ele>
        <time>2021-09-26T08:58:41Z</time>
      </trkpt>
      <trkpt lat="43.96288" lon="1.80948">
        <ele>185.8</ele>
        <time>2021-09-26T08:58:42Z</time>
      </trkpt>
      <trkpt lat="43.96286" lon="1.8095">
        <ele>186</ele>
        <time>2021-09-26T08:58:43Z</time>
      </trkpt>
      <trkpt lat="43.96285" lon="1.80952">
        <ele>186.2</ele>
        <time>2021-09-26T08:58:44Z</time>
      </trkpt>
      <trkpt lat="43.96284" lon="1.80954">
        <ele>186.4</ele>
        <time>2021-09-26T08:58:45Z</time>
      </trkpt>
      <trkpt lat="43.96282" lon="1.80956">
        <ele>186.6</ele>
        <time>2021-09-26T08:58:46Z</time>
      </trkpt>
      <trkpt lat="43.96281" lon="1.80958">
        <ele>186.6</ele>
        <time>2021-09-26T08:58:47Z</time>
      </trkpt>
      <trkpt lat="43.96279" lon="1.8096">
        <ele>186.6</ele>
        <time>2021-09-26T08:58:48Z</time>
      </trkpt>
      <trkpt lat="43.96277" lon="1.80962">
        <ele>186.8</ele>
        <time>2021-09-26T08:58:49Z</time>
      </trkpt>
      <trkpt lat="43.96276" lon="1.80963">
        <ele>186.8</ele>
        <time>2021-09-26T08:58:50Z</time>
      </trkpt>
      <trkpt lat="43.96274" lon="1.80965">
        <ele>186.8</ele>
        <time>2021-09-26T08:58:51Z</time>
      </trkpt>
      <trkpt lat="43.96272" lon="1.80967">
        <ele>187.2</ele>
        <time>2021-09-26T08:58:52Z</time>
      </trkpt>
      <trkpt lat="43.96271" lon="1.80969">
        <ele>187.4</ele>
        <time>2021-09-26T08:58:53Z</time>
      </trkpt>
      <trkpt lat="43.96269" lon="1.8097">
        <ele>187.4</ele>
        <time>2021-09-26T08:58:54Z</time>
      </trkpt>
      <trkpt lat="43.96268" lon="1.80972">
        <ele>187.6</ele>
        <time>2021-09-26T08:58:55Z</time>
      </trkpt>
      <trkpt lat="43.96266" lon="1.80974">
        <ele>187.6</ele>
        <time>2021-09-26T08:58:56Z</time>
      </trkpt>
      <trkpt lat="43.96264" lon="1.80975">
        <ele>187.8</ele>
        <time>2021-09-26T08:58:57Z</time>
      </trkpt>
      <trkpt lat="43.96262" lon="1.80977">
        <ele>187.8</ele>
        <time>2021-09-26T08:58:58Z</time>
      </trkpt>
      <trkpt lat="43.96261" lon="1.80978">
        <ele>188</ele>
        <time>2021-09-26T08:58:59Z</time>
      </trkpt>
      <trkpt lat="43.96259" lon="1.80979">
        <ele>188.2</ele>
        <time>2021-09-26T08:59:00Z</time>
      </trkpt>
      <trkpt lat="43.96257" lon="1.8098">
        <ele>188.2</ele>
        <time>2021-09-26T08:59:01Z</time>
      </trkpt>
      <trkpt lat="43.96256" lon="1.80982">
        <ele>188.4</ele>
        <time>2021-09-26T08:59:02Z</time>
      </trkpt>
      <trkpt lat="43.96254" lon="1.80984">
        <ele>188.6</ele>
        <time>2021-09-26T08:59:03Z</time>
      </trkpt>
      <trkpt lat="43.96253" lon="1.80985">
        <ele>188.8</ele>
        <time>2021-09-26T08:59:04Z</time>
      </trkpt>
      <trkpt lat="43.96251" lon="1.80987">
        <ele>188.8</ele>
        <time>2021-09-26T08:59:05Z</time>
      </trkpt>
      <trkpt lat="43.9625" lon="1.80989">
        <ele>189</ele>
        <time>2021-09-26T08:59:06Z</time>
      </trkpt>
      <trkpt lat="43.96248" lon="1.80991">
        <ele>189</ele>
        <time>2021-09-26T08:59:07Z</time>
      </trkpt>
      <trkpt lat="43.96246" lon="1.80993">
        <ele>189.2</ele>
        <time>2021-09-26T08:59:08Z</time>
      </trkpt>
      <trkpt lat="43.96245" lon="1.80994">
        <ele>189.4</ele>
        <time>2021-09-26T08:59:09Z</time>
      </trkpt>
      <trkpt lat="43.96243" lon="1.80996">
        <ele>189.4</ele>
        <time>2021-09-26T08:59:10Z</time>
      </trkpt>
      <trkpt lat="43.96242" lon="1.80997">
        <ele>189.6</ele>
        <time>2021-09-26T08:59:11Z</time>
      </trkpt>
      <trkpt lat="43.96241" lon="1.80999">
        <ele>189.6</ele>
        <time>2021-09-26T08:59:12Z</time>
      </trkpt>
      <trkpt lat="43.96239" lon="1.81">
        <ele>189.8</ele>
        <time>2021-09-26T08:59:13Z</time>
      </trkpt>
      <trkpt lat="43.96238" lon="1.81002">
        <ele>190</ele>
        <time>2021-09-26T08:59:14Z</time>
      </trkpt>
      <trkpt lat="43.96236" lon="1.81004">
        <ele>190.2</ele>
        <time>2021-09-26T08:59:15Z</time>
      </trkpt>
      <trkpt lat="43.96235" lon="1.81005">
        <ele>190.2</ele>
        <time>2021-09-26T08:59:16Z</time>
      </trkpt>
      <trkpt lat="43.96233" lon="1.81007">
        <ele>190.2</ele>
        <time>2021-09-26T08:59:17Z</time>
      </trkpt>
      <trkpt lat="43.96232" lon="1.81008">
        <ele>190.4</ele>
        <time>2021-09-26T08:59:18Z</time>
      </trkpt>
      <trkpt lat="43.9623" lon="1.8101">
        <ele>190.6</ele>
        <time>2021-09-26T08:59:19Z</time>
      </trkpt>
      <trkpt lat="43.96228" lon="1.81012">
        <ele>190.8</ele>
        <time>2021-09-26T08:59:20Z</time>
      </trkpt>
      <trkpt lat="43.96227" lon="1.81013">
        <ele>190.8</ele>
        <time>2021-09-26T08:59:21Z</time>
      </trkpt>
      <trkpt lat="43.96225" lon="1.81015">
        <ele>191</ele>
        <time>2021-09-26T08:59:22Z</time>
      </trkpt>
      <trkpt lat="43.96224" lon="1.81016">
        <ele>191.2</ele>
        <time>2021-09-26T08:59:23Z</time>
      </trkpt>
      <trkpt lat="43.96222" lon="1.81018">
        <ele>191.2</ele>
        <time>2021-09-26T08:59:24Z</time>
      </trkpt>
      <trkpt lat="43.9622" lon="1.81019">
        <ele>191.4</ele>
        <time>2021-09-26T08:59:25Z</time>
      </trkpt>
      <trkpt lat="43.96219" lon="1.81021">
        <ele>191.6</ele>
        <time>2021-09-26T08:59:26Z</time>
      </trkpt>
      <trkpt lat="43.96217" lon="1.81022">
        <ele>191.8</ele>
        <time>2021-09-26T08:59:27Z</time>
      </trkpt>
      <trkpt lat="43.96216" lon="1.81024">
        <ele>191.8</ele>
        <time>2021-09-26T08:59:28Z</time>
      </trkpt>
      <trkpt lat="43.96214" lon="1.81025">
        <ele>192</ele>
        <time>2021-09-26T08:59:29Z</time>
      </trkpt>
      <trkpt lat="43.96213" lon="1.81026">
        <ele>192.2</ele>
        <time>2021-09-26T08:59:30Z</time>
      </trkpt>
      <trkpt lat="43.96211" lon="1.81028">
        <ele>192.2</ele>
        <time>2021-09-26T08:59:31Z</time>
      </trkpt>
      <trkpt lat="43.9621" lon="1.81029">
        <ele>192.2</ele>
        <time>2021-09-26T08:59:32Z</time>
      </trkpt>
      <trkpt lat="43.96208" lon="1.8103">
        <ele>192.6</ele>
        <time>2021-09-26T08:59:33Z</time>
      </trkpt>
      <trkpt lat="43.96206" lon="1.81031">
        <ele>192.8</ele>
        <time>2021-09-26T08:59:34Z</time>
      </trkpt>
      <trkpt lat="43.96205" lon="1.81033">
        <ele>193</ele>
        <time>2021-09-26T08:59:35Z</time>
      </trkpt>
      <trkpt lat="43.96204" lon="1.81035">
        <ele>193.2</ele>
        <time>2021-09-26T08:59:36Z</time>
      </trkpt>
      <trkpt lat="43.96202" lon="1.81036">
        <ele>193.2</ele>
        <time>2021-09-26T08:59:37Z</time>
      </trkpt>
      <trkpt lat="43.96201" lon="1.81037">
        <ele>193.4</ele>
        <time>2021-09-26T08:59:38Z</time>
      </trkpt>
      <trkpt lat="43.962" lon="1.81039">
        <ele>193.6</ele>
        <time>2021-09-26T08:59:39Z</time>
      </trkpt>
      <trkpt lat="43.96199" lon="1.8104">
        <ele>193.6</ele>
        <time>2021-09-26T08:59:40Z</time>
      </trkpt>
      <trkpt lat="43.96197" lon="1.81041">
        <ele>193.8</ele>
        <time>2021-09-26T08:59:41Z</time>
      </trkpt>
      <trkpt lat="43.96196" lon="1.81042">
        <ele>194</ele>
        <time>2021-09-26T08:59:42Z</time>
      </trkpt>
      <trkpt lat="43.96194" lon="1.81043">
        <ele>194.2</ele>
        <time>2021-09-26T08:59:43Z</time>
      </trkpt>
      <trkpt lat="43.96193" lon="1.81045">
        <ele>194.4</ele>
        <time>2021-09-26T08:59:44Z</time>
      </trkpt>
      <trkpt lat="43.96191" lon="1.81046">
        <ele>194.6</ele>
        <time>2021-09-26T08:59:45Z</time>
      </trkpt>
      <trkpt lat="43.9619" lon="1.81048">
        <ele>194.6</ele>
        <time>2021-09-26T08:59:46Z</time>
      </trkpt>
      <trkpt lat="43.96188" lon="1.81049">
        <ele>194.8</ele>
        <time>2021-09-26T08:59:47Z</time>
      </trkpt>
      <trkpt lat="43.96187" lon="1.81051">
        <ele>195</ele>
        <time>2021-09-26T08:59:48Z</time>
      </trkpt>
      <trkpt lat="43.96185" lon="1.81052">
        <ele>195</ele>
        <time>2021-09-26T08:59:49Z</time>
      </trkpt>
      <trkpt lat="43.96184" lon="1.81053">
        <ele>195.2</ele>
        <time>2021-09-26T08:59:50Z</time>
      </trkpt>
      <trkpt lat="43.96183" lon="1.81054">
        <ele>195.2</ele>
        <time>2021-09-26T08:59:51Z</time>
      </trkpt>
      <trkpt lat="43.96181" lon="1.81055">
        <ele>195.4</ele>
        <time>2021-09-26T08:59:52Z</time>
      </trkpt>
      <trkpt lat="43.96179" lon="1.81056">
        <ele>195.6</ele>
        <time>2021-09-26T08:59:53Z</time>
      </trkpt>
      <trkpt lat="43.96178" lon="1.81058">
        <ele>195.8</ele>
        <time>2021-09-26T08:59:54Z</time>
      </trkpt>
      <trkpt lat="43.96177" lon="1.81059">
        <ele>195.8</ele>
        <time>2021-09-26T08:59:55Z</time>
      </trkpt>
      <trkpt lat="43.96175" lon="1.8106">
        <ele>196</ele>
        <time>2021-09-26T08:59:56Z</time>
      </trkpt>
      <trkpt lat="43.96174" lon="1.81061">
        <ele>196.4</ele>
        <time>2021-09-26T08:59:57Z</time>
      </trkpt>
      <trkpt lat="43.96172" lon="1.81062">
        <ele>196.4</ele>
        <time>2021-09-26T08:59:58Z</time>
      </trkpt>
      <trkpt lat="43.9617" lon="1.81063">
        <ele>196.6</ele>
        <time>2021-09-26T08:59:59Z</time>
      </trkpt>
      <trkpt lat="43.96169" lon="1.81064">
        <ele>196.6</ele>
        <time>2021-09-26T09:00:00Z</time>
      </trkpt>
      <trkpt lat="43.96167" lon="1.81065">
        <ele>196.8</ele>
        <time>2021-09-26T09:00:01Z</time>
      </trkpt>
      <trkpt lat="43.96165" lon="1.81066">
        <ele>197</ele>
        <time>2021-09-26T09:00:02Z</time>
      </trkpt>
      <trkpt lat="43.96164" lon="1.81067">
        <ele>197.2</ele>
        <time>2021-09-26T09:00:03Z</time>
      </trkpt>
      <trkpt lat="43.96162" lon="1.81068">
        <ele>197.4</ele>
        <time>2021-09-26T09:00:04Z</time>
      </trkpt>
      <trkpt lat="43.9616" lon="1.81069">
        <ele>197.4</ele>
        <time>2021-09-26T09:00:05Z</time>
      </trkpt>
      <trkpt lat="43.96158" lon="1.81069">
        <ele>197.6</ele>
        <time>2021-09-26T09:00:06Z</time>
      </trkpt>
      <trkpt lat="43.96156" lon="1.8107">
        <ele>197.8</ele>
        <time>2021-09-26T09:00:07Z</time>
      </trkpt>
      <trkpt lat="43.96155" lon="1.81071">
        <ele>198</ele>
        <time>2021-09-26T09:00:08Z</time>
      </trkpt>
      <trkpt lat="43.96153" lon="1.81071">
        <ele>198.2</ele>
        <time>2021-09-26T09:00:09Z</time>
      </trkpt>
      <trkpt lat="43.96151" lon="1.81071">
        <ele>198.2</ele>
        <time>2021-09-26T09:00:10Z</time>
      </trkpt>
      <trkpt lat="43.96149" lon="1.81071">
        <ele>198.6</ele>
        <time>2021-09-26T09:00:11Z</time>
      </trkpt>
      <trkpt lat="43.96147" lon="1.81071">
        <ele>198.6</ele>
        <time>2021-09-26T09:00:12Z</time>
      </trkpt>
      <trkpt lat="43.96145" lon="1.81072">
        <ele>198.8</ele>
        <time>2021-09-26T09:00:13Z</time>
      </trkpt>
      <trkpt lat="43.96143" lon="1.81071">
        <ele>198.8</ele>
        <time>2021-09-26T09:00:14Z</time>
      </trkpt>
      <trkpt lat="43.96141" lon="1.81071">
        <ele>199</ele>
        <time>2021-09-26T09:00:15Z</time>
      </trkpt>
      <trkpt lat="43.96139" lon="1.8107">
        <ele>199</ele>
        <time>2021-09-26T09:00:16Z</time>
      </trkpt>
      <trkpt lat="43.96137" lon="1.8107">
        <ele>199.2</ele>
        <time>2021-09-26T09:00:17Z</time>
      </trkpt>
      <trkpt lat="43.96136" lon="1.8107">
        <ele>199.2</ele>
        <time>2021-09-26T09:00:18Z</time>
      </trkpt>
      <trkpt lat="43.96134" lon="1.81069">
        <ele>199.4</ele>
        <time>2021-09-26T09:00:19Z</time>
      </trkpt>
      <trkpt lat="43.96132" lon="1.81069">
        <ele>199.4</ele>
        <time>2021-09-26T09:00:20Z</time>
      </trkpt>
      <trkpt lat="43.9613" lon="1.81069">
        <ele>199.6</ele>
        <time>2021-09-26T09:00:21Z</time>
      </trkpt>
      <trkpt lat="43.96128" lon="1.81069">
        <ele>199.8</ele>
        <time>2021-09-26T09:00:22Z</time>
      </trkpt>
      <trkpt lat="43.96126" lon="1.81068">
        <ele>199.8</ele>
        <time>2021-09-26T09:00:23Z</time>
      </trkpt>
      <trkpt lat="43.96124" lon="1.81068">
        <ele>200</ele>
        <time>2021-09-26T09:00:24Z</time>
      </trkpt>
      <trkpt lat="43.96122" lon="1.81067">
        <ele>200</ele>
        <time>2021-09-26T09:00:25Z</time>
      </trkpt>
      <trkpt lat="43.9612" lon="1.81067">
        <ele>200</ele>
        <time>2021-09-26T09:00:26Z</time>
      </trkpt>
      <trkpt lat="43.96118" lon="1.81066">
        <ele>200.4</ele>
        <time>2021-09-26T09:00:27Z</time>
      </trkpt>
      <trkpt lat="43.96116" lon="1.81065">
        <ele>200.4</ele>
        <time>2021-09-26T09:00:28Z</time>
      </trkpt>
      <trkpt lat="43.96114" lon="1.81065">
        <ele>200.6</ele>
        <time>2021-09-26T09:00:29Z</time>
      </trkpt>
      <trkpt lat="43.96112" lon="1.81065">
        <ele>200.6</ele>
        <time>2021-09-26T09:00:30Z</time>
      </trkpt>
      <trkpt lat="43.9611" lon="1.81064">
        <ele>201</ele>
        <time>2021-09-26T09:00:31Z</time>
      </trkpt>
      <trkpt lat="43.96109" lon="1.81064">
        <ele>201.2</ele>
        <time>2021-09-26T09:00:32Z</time>
      </trkpt>
      <trkpt lat="43.96107" lon="1.81063">
        <ele>201.2</ele>
        <time>2021-09-26T09:00:33Z</time>
      </trkpt>
      <trkpt lat="43.96105" lon="1.81062">
        <ele>201.4</ele>
        <time>2021-09-26T09:00:34Z</time>
      </trkpt>
      <trkpt lat="43.96103" lon="1.81061">
        <ele>201.4</ele>
        <time>2021-09-26T09:00:35Z</time>
      </trkpt>
      <trkpt lat="43.96101" lon="1.81061">
        <ele>201.6</ele>
        <time>2021-09-26T09:00:36Z</time>
      </trkpt>
      <trkpt lat="43.961" lon="1.8106">
        <ele>201.6</ele>
        <time>2021-09-26T09:00:37Z</time>
      </trkpt>
      <trkpt lat="43.96098" lon="1.8106">
        <ele>201.8</ele>
        <time>2021-09-26T09:00:38Z</time>
      </trkpt>
      <trkpt lat="43.96096" lon="1.81059">
        <ele>202</ele>
        <time>2021-09-26T09:00:39Z</time>
      </trkpt>
      <trkpt lat="43.96094" lon="1.81059">
        <ele>202</ele>
        <time>2021-09-26T09:00:40Z</time>
      </trkpt>
      <trkpt lat="43.96092" lon="1.81058">
        <ele>202.2</ele>
        <time>2021-09-26T09:00:41Z</time>
      </trkpt>
      <trkpt lat="43.9609" lon="1.81057">
        <ele>202.4</ele>
        <time>2021-09-26T09:00:42Z</time>
      </trkpt>
      <trkpt lat="43.96089" lon="1.81056">
        <ele>202.6</ele>
        <time>2021-09-26T09:00:43Z</time>
      </trkpt>
      <trkpt lat="43.96087" lon="1.81056">
        <ele>202.6</ele>
        <time>2021-09-26T09:00:44Z</time>
      </trkpt>
      <trkpt lat="43.96085" lon="1.81055">
        <ele>202.8</ele>
        <time>2021-09-26T09:00:45Z</time>
      </trkpt>
      <trkpt lat="43.96083" lon="1.81055">
        <ele>202.8</ele>
        <time>2021-09-26T09:00:46Z</time>
      </trkpt>
      <trkpt lat="43.96081" lon="1.81054">
        <ele>203</ele>
        <time>2021-09-26T09:00:47Z</time>
      </trkpt>
      <trkpt lat="43.96079" lon="1.81053">
        <ele>203.2</ele>
        <time>2021-09-26T09:00:48Z</time>
      </trkpt>
      <trkpt lat="43.96078" lon="1.81053">
        <ele>203.4</ele>
        <time>2021-09-26T09:00:49Z</time>
      </trkpt>
      <trkpt lat="43.96076" lon="1.81052">
        <ele>203.6</ele>
        <time>2021-09-26T09:00:50Z</time>
      </trkpt>
      <trkpt lat="43.96074" lon="1.81052">
        <ele>203.6</ele>
        <time>2021-09-26T09:00:51Z</time>
      </trkpt>
      <trkpt lat="43.96072" lon="1.81051">
        <ele>203.8</ele>
        <time>2021-09-26T09:00:52Z</time>
      </trkpt>
      <trkpt lat="43.9607" lon="1.8105">
        <ele>203.8</ele>
        <time>2021-09-26T09:00:53Z</time>
      </trkpt>
      <trkpt lat="43.96068" lon="1.8105">
        <ele>203.8</ele>
        <time>2021-09-26T09:00:54Z</time>
      </trkpt>
      <trkpt lat="43.96066" lon="1.8105">
        <ele>204</ele>
        <time>2021-09-26T09:00:55Z</time>
      </trkpt>
      <trkpt lat="43.96064" lon="1.81049">
        <ele>204</ele>
        <time>2021-09-26T09:00:56Z</time>
      </trkpt>
      <trkpt lat="43.96062" lon="1.81048">
        <ele>204.2</ele>
        <time>2021-09-26T09:00:57Z</time>
      </trkpt>
      <trkpt lat="43.9606" lon="1.81047">
        <ele>204.4</ele>
        <time>2021-09-26T09:00:58Z</time>
      </trkpt>
      <trkpt lat="43.96058" lon="1.81046">
        <ele>204.6</ele>
        <time>2021-09-26T09:00:59Z</time>
      </trkpt>
      <trkpt lat="43.96056" lon="1.81046">
        <ele>204.6</ele>
        <time>2021-09-26T09:01:00Z</time>
      </trkpt>
      <trkpt lat="43.96054" lon="1.81045">
        <ele>204.8</ele>
        <time>2021-09-26T09:01:01Z</time>
      </trkpt>
      <trkpt lat="43.96052" lon="1.81045">
        <ele>204.8</ele>
        <time>2021-09-26T09:01:02Z</time>
      </trkpt>
      <trkpt lat="43.9605" lon="1.81044">
        <ele>204.8</ele>
        <time>2021-09-26T09:01:03Z</time>
      </trkpt>
      <trkpt lat="43.96048" lon="1.81044">
        <ele>205</ele>
        <time>2021-09-26T09:01:04Z</time>
      </trkpt>
      <trkpt lat="43.96046" lon="1.81044">
        <ele>205</ele>
        <time>2021-09-26T09:01:05Z</time>
      </trkpt>
      <trkpt lat="43.96044" lon="1.81044">
        <ele>205.2</ele>
        <time>2021-09-26T09:01:06Z</time>
      </trkpt>
      <trkpt lat="43.96042" lon="1.81044">
        <ele>205.2</ele>
        <time>2021-09-26T09:01:07Z</time>
      </trkpt>
      <trkpt lat="43.9604" lon="1.81044">
        <ele>205.4</ele>
        <time>2021-09-26T09:01:08Z</time>
      </trkpt>
      <trkpt lat="43.96038" lon="1.81043">
        <ele>205.4</ele>
        <time>2021-09-26T09:01:09Z</time>
      </trkpt>
      <trkpt lat="43.96035" lon="1.81043">
        <ele>205.6</ele>
        <time>2021-09-26T09:01:10Z</time>
      </trkpt>
      <trkpt lat="43.96033" lon="1.81044">
        <ele>205.6</ele>
        <time>2021-09-26T09:01:11Z</time>
      </trkpt>
      <trkpt lat="43.9603" lon="1.81044">
        <ele>205.6</ele>
        <time>2021-09-26T09:01:12Z</time>
      </trkpt>
      <trkpt lat="43.96028" lon="1.81044">
        <ele>205.6</ele>
        <time>2021-09-26T09:01:13Z</time>
      </trkpt>
      <trkpt lat="43.96026" lon="1.81045">
        <ele>205.8</ele>
        <time>2021-09-26T09:01:14Z</time>
      </trkpt>
      <trkpt lat="43.96023" lon="1.81045">
        <ele>206</ele>
        <time>2021-09-26T09:01:15Z</time>
      </trkpt>
      <trkpt lat="43.96021" lon="1.81046">
        <ele>206</ele>
        <time>2021-09-26T09:01:16Z</time>
      </trkpt>
      <trkpt lat="43.96019" lon="1.81046">
        <ele>206.2</ele>
        <time>2021-09-26T09:01:17Z</time>
      </trkpt>
      <trkpt lat="43.96016" lon="1.81047">
        <ele>206.2</ele>
        <time>2021-09-26T09:01:18Z</time>
      </trkpt>
      <trkpt lat="43.96" lon="1.81053">
        <ele>206.4</ele>
        <time>2021-09-26T09:01:25Z</time>
      </trkpt>
      <trkpt lat="43.95979" lon="1.81063">
        <ele>206.8</ele>
        <time>2021-09-26T09:01:34Z</time>
      </trkpt>
      <trkpt lat="43.95964" lon="1.81069">
        <ele>207.2</ele>
        <time>2021-09-26T09:01:40Z</time>
      </trkpt>
      <trkpt lat="43.95958" lon="1.81072">
        <ele>207.2</ele>
        <time>2021-09-26T09:01:43Z</time>
      </trkpt>
      <trkpt lat="43.95951" lon="1.81076">
        <ele>207.4</ele>
        <time>2021-09-26T09:01:46Z</time>
      </trkpt>
      <trkpt lat="43.95949" lon="1.81077">
        <ele>207.4</ele>
        <time>2021-09-26T09:01:47Z</time>
      </trkpt>
      <trkpt lat="43.95942" lon="1.8108">
        <ele>207.6</ele>
        <time>2021-09-26T09:01:50Z</time>
      </trkpt>
      <trkpt lat="43.9594" lon="1.81081">
        <ele>207.6</ele>
        <time>2021-09-26T09:01:51Z</time>
      </trkpt>
      <trkpt lat="43.95937" lon="1.81082">
        <ele>207.6</ele>
        <time>2021-09-26T09:01:52Z</time>
      </trkpt>
      <trkpt lat="43.9593" lon="1.81085">
        <ele>207.8</ele>
        <time>2021-09-26T09:01:55Z</time>
      </trkpt>
      <trkpt lat="43.95925" lon="1.81086">
        <ele>208</ele>
        <time>2021-09-26T09:01:57Z</time>
      </trkpt>
      <trkpt lat="43.95923" lon="1.81087">
        <ele>208</ele>
        <time>2021-09-26T09:01:58Z</time>
      </trkpt>
      <trkpt lat="43.95921" lon="1.81088">
        <ele>208.2</ele>
        <time>2021-09-26T09:01:59Z</time>
      </trkpt>
      <trkpt lat="43.95919" lon="1.8109">
        <ele>208.2</ele>
        <time>2021-09-26T09:02:00Z</time>
      </trkpt>
      <trkpt lat="43.95895" lon="1.811">
        <ele>208.8</ele>
        <time>2021-09-26T09:02:10Z</time>
      </trkpt>
      <trkpt lat="43.95886" lon="1.81105">
        <ele>209</ele>
        <time>2021-09-26T09:02:14Z</time>
      </trkpt>
      <trkpt lat="43.95874" lon="1.81109">
        <ele>209.6</ele>
        <time>2021-09-26T09:02:19Z</time>
      </trkpt>
      <trkpt lat="43.95862" lon="1.81114">
        <ele>210</ele>
        <time>2021-09-26T09:02:24Z</time>
      </trkpt>
      <trkpt lat="43.95858" lon="1.81116">
        <ele>210.2</ele>
        <time>2021-09-26T09:02:26Z</time>
      </trkpt>
      <trkpt lat="43.95851" lon="1.81119">
        <ele>210.4</ele>
        <time>2021-09-26T09:02:29Z</time>
      </trkpt>
      <trkpt lat="43.95837" lon="1.81126">
        <ele>210.8</ele>
        <time>2021-09-26T09:02:35Z</time>
      </trkpt>
      <trkpt lat="43.95835" lon="1.81127">
        <ele>210.8</ele>
        <time>2021-09-26T09:02:36Z</time>
      </trkpt>
      <trkpt lat="43.95833" lon="1.81128">
        <ele>211</ele>
        <time>2021-09-26T09:02:37Z</time>
      </trkpt>
      <trkpt lat="43.9583" lon="1.81128">
        <ele>211</ele>
        <time>2021-09-26T09:02:38Z</time>
      </trkpt>
      <trkpt lat="43.9581" lon="1.81135">
        <ele>212</ele>
        <time>2021-09-26T09:02:47Z</time>
      </trkpt>
      <trkpt lat="43.95808" lon="1.81135">
        <ele>212</ele>
        <time>2021-09-26T09:02:48Z</time>
      </trkpt>
      <trkpt lat="43.95794" lon="1.81135">
        <ele>212.6</ele>
        <time>2021-09-26T09:02:54Z</time>
      </trkpt>
      <trkpt lat="43.95791" lon="1.81136">
        <ele>212.8</ele>
        <time>2021-09-26T09:02:55Z</time>
      </trkpt>
      <trkpt lat="43.9578" lon="1.81136">
        <ele>213.2</ele>
        <time>2021-09-26T09:03:00Z</time>
      </trkpt>
      <trkpt lat="43.95778" lon="1.81136">
        <ele>213.2</ele>
        <time>2021-09-26T09:03:01Z</time>
      </trkpt>
      <trkpt lat="43.95776" lon="1.81136">
        <ele>213.2</ele>
        <time>2021-09-26T09:03:02Z</time>
      </trkpt>
      <trkpt lat="43.95772" lon="1.81136">
        <ele>213.6</ele>
        <time>2021-09-26T09:03:04Z</time>
      </trkpt>
      <trkpt lat="43.9577" lon="1.81136">
        <ele>213.8</ele>
        <time>2021-09-26T09:03:05Z</time>
      </trkpt>
      <trkpt lat="43.95758" lon="1.81134">
        <ele>214.2</ele>
        <time>2021-09-26T09:03:10Z</time>
      </trkpt>
      <trkpt lat="43.95747" lon="1.81132">
        <ele>215.2</ele>
        <time>2021-09-26T09:03:15Z</time>
      </trkpt>
      <trkpt lat="43.95745" lon="1.81132">
        <ele>215.2</ele>
        <time>2021-09-26T09:03:16Z</time>
      </trkpt>
      <trkpt lat="43.95743" lon="1.81132">
        <ele>215.4</ele>
        <time>2021-09-26T09:03:17Z</time>
      </trkpt>
      <trkpt lat="43.9574" lon="1.81132">
        <ele>215.4</ele>
        <time>2021-09-26T09:03:18Z</time>
      </trkpt>
      <trkpt lat="43.95738" lon="1.81131">
        <ele>215.8</ele>
        <time>2021-09-26T09:03:19Z</time>
      </trkpt>
      <trkpt lat="43.95736" lon="1.81131">
        <ele>215.8</ele>
        <time>2021-09-26T09:03:20Z</time>
      </trkpt>
      <trkpt lat="43.95734" lon="1.81131">
        <ele>216</ele>
        <time>2021-09-26T09:03:21Z</time>
      </trkpt>
      <trkpt lat="43.95731" lon="1.8113">
        <ele>216</ele>
        <time>2021-09-26T09:03:22Z</time>
      </trkpt>
      <trkpt lat="43.95729" lon="1.8113">
        <ele>216.2</ele>
        <time>2021-09-26T09:03:23Z</time>
      </trkpt>
      <trkpt lat="43.95727" lon="1.8113">
        <ele>216.4</ele>
        <time>2021-09-26T09:03:24Z</time>
      </trkpt>
      <trkpt lat="43.95724" lon="1.8113">
        <ele>216.4</ele>
        <time>2021-09-26T09:03:25Z</time>
      </trkpt>
      <trkpt lat="43.95722" lon="1.8113">
        <ele>216.6</ele>
        <time>2021-09-26T09:03:26Z</time>
      </trkpt>
      <trkpt lat="43.9572" lon="1.8113">
        <ele>216.6</ele>
        <time>2021-09-26T09:03:27Z</time>
      </trkpt>
      <trkpt lat="43.95718" lon="1.81131">
        <ele>216.8</ele>
        <time>2021-09-26T09:03:28Z</time>
      </trkpt>
      <trkpt lat="43.95716" lon="1.81131">
        <ele>217</ele>
        <time>2021-09-26T09:03:29Z</time>
      </trkpt>
      <trkpt lat="43.95714" lon="1.81131">
        <ele>217.2</ele>
        <time>2021-09-26T09:03:30Z</time>
      </trkpt>
      <trkpt lat="43.95712" lon="1.81131">
        <ele>217.4</ele>
        <time>2021-09-26T09:03:31Z</time>
      </trkpt>
      <trkpt lat="43.9571" lon="1.81132">
        <ele>217.4</ele>
        <time>2021-09-26T09:03:32Z</time>
      </trkpt>
      <trkpt lat="43.95707" lon="1.81132">
        <ele>217.6</ele>
        <time>2021-09-26T09:03:33Z</time>
      </trkpt>
      <trkpt lat="43.95705" lon="1.81133">
        <ele>217.6</ele>
        <time>2021-09-26T09:03:34Z</time>
      </trkpt>
      <trkpt lat="43.95703" lon="1.81134">
        <ele>218</ele>
        <time>2021-09-26T09:03:35Z</time>
      </trkpt>
      <trkpt lat="43.95701" lon="1.81134">
        <ele>218.2</ele>
        <time>2021-09-26T09:03:36Z</time>
      </trkpt>
      <trkpt lat="43.95698" lon="1.81135">
        <ele>218.4</ele>
        <time>2021-09-26T09:03:37Z</time>
      </trkpt>
      <trkpt lat="43.95696" lon="1.81135">
        <ele>218.6</ele>
        <time>2021-09-26T09:03:38Z</time>
      </trkpt>
      <trkpt lat="43.95694" lon="1.81136">
        <ele>218.8</ele>
        <time>2021-09-26T09:03:39Z</time>
      </trkpt>
      <trkpt lat="43.95692" lon="1.81136">
        <ele>219</ele>
        <time>2021-09-26T09:03:40Z</time>
      </trkpt>
      <trkpt lat="43.9569" lon="1.81137">
        <ele>219.2</ele>
        <time>2021-09-26T09:03:41Z</time>
      </trkpt>
      <trkpt lat="43.95687" lon="1.81138">
        <ele>219.2</ele>
        <time>2021-09-26T09:03:42Z</time>
      </trkpt>
      <trkpt lat="43.95685" lon="1.81139">
        <ele>219.4</ele>
        <time>2021-09-26T09:03:43Z</time>
      </trkpt>
      <trkpt lat="43.95683" lon="1.8114">
        <ele>219.4</ele>
        <time>2021-09-26T09:03:44Z</time>
      </trkpt>
      <trkpt lat="43.95681" lon="1.8114">
        <ele>219.6</ele>
        <time>2021-09-26T09:03:45Z</time>
      </trkpt>
      <trkpt lat="43.95679" lon="1.81141">
        <ele>219.6</ele>
        <time>2021-09-26T09:03:46Z</time>
      </trkpt>
      <trkpt lat="43.95677" lon="1.81142">
        <ele>219.8</ele>
        <time>2021-09-26T09:03:47Z</time>
      </trkpt>
      <trkpt lat="43.95675" lon="1.81143">
        <ele>219.8</ele>
        <time>2021-09-26T09:03:48Z</time>
      </trkpt>
      <trkpt lat="43.95673" lon="1.81144">
        <ele>220</ele>
        <time>2021-09-26T09:03:49Z</time>
      </trkpt>
      <trkpt lat="43.95671" lon="1.81145">
        <ele>220.2</ele>
        <time>2021-09-26T09:03:50Z</time>
      </trkpt>
      <trkpt lat="43.95668" lon="1.81146">
        <ele>220.4</ele>
        <time>2021-09-26T09:03:51Z</time>
      </trkpt>
      <trkpt lat="43.95666" lon="1.81147">
        <ele>220.6</ele>
        <time>2021-09-26T09:03:52Z</time>
      </trkpt>
      <trkpt lat="43.95664" lon="1.81148">
        <ele>220.6</ele>
        <time>2021-09-26T09:03:53Z</time>
      </trkpt>
      <trkpt lat="43.95662" lon="1.81148">
        <ele>221</ele>
        <time>2021-09-26T09:03:54Z</time>
      </trkpt>
      <trkpt lat="43.95659" lon="1.81149">
        <ele>221</ele>
        <time>2021-09-26T09:03:55Z</time>
      </trkpt>
      <trkpt lat="43.95657" lon="1.81149">
        <ele>221.2</ele>
        <time>2021-09-26T09:03:56Z</time>
      </trkpt>
      <trkpt lat="43.95655" lon="1.8115">
        <ele>221.2</ele>
        <time>2021-09-26T09:03:57Z</time>
      </trkpt>
      <trkpt lat="43.95653" lon="1.8115">
        <ele>221.4</ele>
        <time>2021-09-26T09:03:58Z</time>
      </trkpt>
      <trkpt lat="43.95651" lon="1.8115">
        <ele>221.6</ele>
        <time>2021-09-26T09:03:59Z</time>
      </trkpt>
      <trkpt lat="43.95649" lon="1.81151">
        <ele>221.8</ele>
        <time>2021-09-26T09:04:00Z</time>
      </trkpt>
      <trkpt lat="43.95647" lon="1.81151">
        <ele>222</ele>
        <time>2021-09-26T09:04:01Z</time>
      </trkpt>
      <trkpt lat="43.95645" lon="1.81152">
        <ele>222</ele>
        <time>2021-09-26T09:04:02Z</time>
      </trkpt>
      <trkpt lat="43.95643" lon="1.81152">
        <ele>222.4</ele>
        <time>2021-09-26T09:04:03Z</time>
      </trkpt>
      <trkpt lat="43.95641" lon="1.81153">
        <ele>222.4</ele>
        <time>2021-09-26T09:04:04Z</time>
      </trkpt>
      <trkpt lat="43.95639" lon="1.81153">
        <ele>222.6</ele>
        <time>2021-09-26T09:04:05Z</time>
      </trkpt>
      <trkpt lat="43.95637" lon="1.81154">
        <ele>222.6</ele>
        <time>2021-09-26T09:04:06Z</time>
      </trkpt>
      <trkpt lat="43.95635" lon="1.81155">
        <ele>222.8</ele>
        <time>2021-09-26T09:04:07Z</time>
      </trkpt>
      <trkpt lat="43.95633" lon="1.81156">
        <ele>222.8</ele>
        <time>2021-09-26T09:04:08Z</time>
      </trkpt>
      <trkpt lat="43.95631" lon="1.81156">
        <ele>223.2</ele>
        <time>2021-09-26T09:04:09Z</time>
      </trkpt>
      <trkpt lat="43.95629" lon="1.81157">
        <ele>223.4</ele>
        <time>2021-09-26T09:04:10Z</time>
      </trkpt>
      <trkpt lat="43.95627" lon="1.81157">
        <ele>223.4</ele>
        <time>2021-09-26T09:04:11Z</time>
      </trkpt>
      <trkpt lat="43.95625" lon="1.81158">
        <ele>223.6</ele>
        <time>2021-09-26T09:04:12Z</time>
      </trkpt>
      <trkpt lat="43.95623" lon="1.81159">
        <ele>223.6</ele>
        <time>2021-09-26T09:04:13Z</time>
      </trkpt>
      <trkpt lat="43.95621" lon="1.8116">
        <ele>224</ele>
        <time>2021-09-26T09:04:14Z</time>
      </trkpt>
      <trkpt lat="43.95619" lon="1.81161">
        <ele>224.2</ele>
        <time>2021-09-26T09:04:15Z</time>
      </trkpt>
      <trkpt lat="43.95616" lon="1.81162">
        <ele>224.4</ele>
        <time>2021-09-26T09:04:16Z</time>
      </trkpt>
      <trkpt lat="43.95614" lon="1.81162">
        <ele>224.6</ele>
        <time>2021-09-26T09:04:17Z</time>
      </trkpt>
      <trkpt lat="43.95612" lon="1.81163">
        <ele>224.6</ele>
        <time>2021-09-26T09:04:18Z</time>
      </trkpt>
      <trkpt lat="43.9561" lon="1.81163">
        <ele>225</ele>
        <time>2021-09-26T09:04:19Z</time>
      </trkpt>
      <trkpt lat="43.95608" lon="1.81164">
        <ele>225.2</ele>
        <time>2021-09-26T09:04:20Z</time>
      </trkpt>
      <trkpt lat="43.95605" lon="1.81164">
        <ele>225.4</ele>
        <time>2021-09-26T09:04:21Z</time>
      </trkpt>
      <trkpt lat="43.95603" lon="1.81165">
        <ele>225.6</ele>
        <time>2021-09-26T09:04:22Z</time>
      </trkpt>
      <trkpt lat="43.95601" lon="1.81165">
        <ele>225.8</ele>
        <time>2021-09-26T09:04:23Z</time>
      </trkpt>
      <trkpt lat="43.95599" lon="1.81165">
        <ele>226</ele>
        <time>2021-09-26T09:04:24Z</time>
      </trkpt>
      <trkpt lat="43.95597" lon="1.81166">
        <ele>226</ele>
        <time>2021-09-26T09:04:25Z</time>
      </trkpt>
      <trkpt lat="43.95595" lon="1.81166">
        <ele>226.2</ele>
        <time>2021-09-26T09:04:26Z</time>
      </trkpt>
      <trkpt lat="43.95592" lon="1.81167">
        <ele>226.2</ele>
        <time>2021-09-26T09:04:27Z</time>
      </trkpt>
      <trkpt lat="43.9559" lon="1.81167">
        <ele>226.6</ele>
        <time>2021-09-26T09:04:28Z</time>
      </trkpt>
      <trkpt lat="43.95588" lon="1.81168">
        <ele>226.6</ele>
        <time>2021-09-26T09:04:29Z</time>
      </trkpt>
      <trkpt lat="43.95586" lon="1.81169">
        <ele>227</ele>
        <time>2021-09-26T09:04:30Z</time>
      </trkpt>
      <trkpt lat="43.95584" lon="1.81169">
        <ele>227</ele>
        <time>2021-09-26T09:04:31Z</time>
      </trkpt>
      <trkpt lat="43.95582" lon="1.8117">
        <ele>227.4</ele>
        <time>2021-09-26T09:04:32Z</time>
      </trkpt>
      <trkpt lat="43.9558" lon="1.81171">
        <ele>227.6</ele>
        <time>2021-09-26T09:04:33Z</time>
      </trkpt>
      <trkpt lat="43.95578" lon="1.81172">
        <ele>227.6</ele>
        <time>2021-09-26T09:04:34Z</time>
      </trkpt>
      <trkpt lat="43.95576" lon="1.81173">
        <ele>227.8</ele>
        <time>2021-09-26T09:04:35Z</time>
      </trkpt>
      <trkpt lat="43.95574" lon="1.81174">
        <ele>227.8</ele>
        <time>2021-09-26T09:04:36Z</time>
      </trkpt>
      <trkpt lat="43.95572" lon="1.81175">
        <ele>228.2</ele>
        <time>2021-09-26T09:04:37Z</time>
      </trkpt>
      <trkpt lat="43.9557" lon="1.81176">
        <ele>228.4</ele>
        <time>2021-09-26T09:04:38Z</time>
      </trkpt>
      <trkpt lat="43.95567" lon="1.81177">
        <ele>228.6</ele>
        <time>2021-09-26T09:04:39Z</time>
      </trkpt>
      <trkpt lat="43.95565" lon="1.81179">
        <ele>228.8</ele>
        <time>2021-09-26T09:04:40Z</time>
      </trkpt>
      <trkpt lat="43.95563" lon="1.8118">
        <ele>229</ele>
        <time>2021-09-26T09:04:41Z</time>
      </trkpt>
      <trkpt lat="43.95561" lon="1.81182">
        <ele>229.2</ele>
        <time>2021-09-26T09:04:42Z</time>
      </trkpt>
      <trkpt lat="43.95559" lon="1.81184">
        <ele>229.4</ele>
        <time>2021-09-26T09:04:43Z</time>
      </trkpt>
      <trkpt lat="43.95557" lon="1.81186">
        <ele>229.4</ele>
        <time>2021-09-26T09:04:44Z</time>
      </trkpt>
      <trkpt lat="43.95555" lon="1.81188">
        <ele>229.4</ele>
        <time>2021-09-26T09:04:45Z</time>
      </trkpt>
      <trkpt lat="43.95553" lon="1.81189">
        <ele>229.6</ele>
        <time>2021-09-26T09:04:46Z</time>
      </trkpt>
      <trkpt lat="43.95551" lon="1.81191">
        <ele>229.8</ele>
        <time>2021-09-26T09:04:47Z</time>
      </trkpt>
      <trkpt lat="43.95548" lon="1.81192">
        <ele>229.8</ele>
        <time>2021-09-26T09:04:48Z</time>
      </trkpt>
      <trkpt lat="43.95547" lon="1.81194">
        <ele>230</ele>
        <time>2021-09-26T09:04:49Z</time>
      </trkpt>
      <trkpt lat="43.95545" lon="1.81196">
        <ele>230</ele>
        <time>2021-09-26T09:04:50Z</time>
      </trkpt>
      <trkpt lat="43.95543" lon="1.81197">
        <ele>230</ele>
        <time>2021-09-26T09:04:51Z</time>
      </trkpt>
      <trkpt lat="43.95541" lon="1.81199">
        <ele>230</ele>
        <time>2021-09-26T09:04:52Z</time>
      </trkpt>
      <trkpt lat="43.95539" lon="1.81201">
        <ele>230.2</ele>
        <time>2021-09-26T09:04:53Z</time>
      </trkpt>
      <trkpt lat="43.95537" lon="1.81203">
        <ele>230.2</ele>
        <time>2021-09-26T09:04:54Z</time>
      </trkpt>
      <trkpt lat="43.95535" lon="1.81205">
        <ele>230.4</ele>
        <time>2021-09-26T09:04:55Z</time>
      </trkpt>
      <trkpt lat="43.95534" lon="1.81207">
        <ele>230.6</ele>
        <time>2021-09-26T09:04:56Z</time>
      </trkpt>
      <trkpt lat="43.95532" lon="1.81208">
        <ele>230.6</ele>
        <time>2021-09-26T09:04:57Z</time>
      </trkpt>
      <trkpt lat="43.9553" lon="1.8121">
        <ele>230.8</ele>
        <time>2021-09-26T09:04:58Z</time>
      </trkpt>
      <trkpt lat="43.95528" lon="1.81212">
        <ele>230.8</ele>
        <time>2021-09-26T09:04:59Z</time>
      </trkpt>
      <trkpt lat="43.95526" lon="1.81214">
        <ele>230.8</ele>
        <time>2021-09-26T09:05:00Z</time>
      </trkpt>
      <trkpt lat="43.95524" lon="1.81216">
        <ele>231</ele>
        <time>2021-09-26T09:05:01Z</time>
      </trkpt>
      <trkpt lat="43.95522" lon="1.81218">
        <ele>231</ele>
        <time>2021-09-26T09:05:02Z</time>
      </trkpt>
      <trkpt lat="43.9552" lon="1.81219">
        <ele>231.2</ele>
        <time>2021-09-26T09:05:03Z</time>
      </trkpt>
      <trkpt lat="43.95519" lon="1.81221">
        <ele>231.4</ele>
        <time>2021-09-26T09:05:04Z</time>
      </trkpt>
      <trkpt lat="43.95517" lon="1.81223">
        <ele>231.4</ele>
        <time>2021-09-26T09:05:05Z</time>
      </trkpt>
      <trkpt lat="43.95515" lon="1.81225">
        <ele>231.4</ele>
        <time>2021-09-26T09:05:06Z</time>
      </trkpt>
      <trkpt lat="43.95513" lon="1.81227">
        <ele>231.6</ele>
        <time>2021-09-26T09:05:07Z</time>
      </trkpt>
      <trkpt lat="43.95511" lon="1.81228">
        <ele>231.6</ele>
        <time>2021-09-26T09:05:08Z</time>
      </trkpt>
      <trkpt lat="43.95509" lon="1.8123">
        <ele>231.8</ele>
        <time>2021-09-26T09:05:09Z</time>
      </trkpt>
      <trkpt lat="43.95507" lon="1.81232">
        <ele>232</ele>
        <time>2021-09-26T09:05:10Z</time>
      </trkpt>
      <trkpt lat="43.95506" lon="1.81234">
        <ele>232</ele>
        <time>2021-09-26T09:05:11Z</time>
      </trkpt>
      <trkpt lat="43.95504" lon="1.81237">
        <ele>232</ele>
        <time>2021-09-26T09:05:12Z</time>
      </trkpt>
      <trkpt lat="43.95503" lon="1.81239">
        <ele>232.2</ele>
        <time>2021-09-26T09:05:13Z</time>
      </trkpt>
      <trkpt lat="43.95502" lon="1.81242">
        <ele>232.4</ele>
        <time>2021-09-26T09:05:14Z</time>
      </trkpt>
      <trkpt lat="43.955" lon="1.81244">
        <ele>232.4</ele>
        <time>2021-09-26T09:05:15Z</time>
      </trkpt>
      <trkpt lat="43.95499" lon="1.81246">
        <ele>232.6</ele>
        <time>2021-09-26T09:05:16Z</time>
      </trkpt>
      <trkpt lat="43.95497" lon="1.81248">
        <ele>232.8</ele>
        <time>2021-09-26T09:05:17Z</time>
      </trkpt>
      <trkpt lat="43.95495" lon="1.8125">
        <ele>233</ele>
        <time>2021-09-26T09:05:18Z</time>
      </trkpt>
      <trkpt lat="43.95494" lon="1.81252">
        <ele>233.2</ele>
        <time>2021-09-26T09:05:19Z</time>
      </trkpt>
      <trkpt lat="43.95492" lon="1.81254">
        <ele>233.2</ele>
        <time>2021-09-26T09:05:20Z</time>
      </trkpt>
      <trkpt lat="43.95491" lon="1.81256">
        <ele>233.2</ele>
        <time>2021-09-26T09:05:21Z</time>
      </trkpt>
      <trkpt lat="43.9549" lon="1.81259">
        <ele>233.4</ele>
        <time>2021-09-26T09:05:22Z</time>
      </trkpt>
      <trkpt lat="43.95489" lon="1.81261">
        <ele>233.6</ele>
        <time>2021-09-26T09:05:23Z</time>
      </trkpt>
      <trkpt lat="43.95488" lon="1.81264">
        <ele>233.6</ele>
        <time>2021-09-26T09:05:24Z</time>
      </trkpt>
      <trkpt lat="43.95487" lon="1.81267">
        <ele>233.8</ele>
        <time>2021-09-26T09:05:25Z</time>
      </trkpt>
      <trkpt lat="43.95486" lon="1.8127">
        <ele>234</ele>
        <time>2021-09-26T09:05:26Z</time>
      </trkpt>
      <trkpt lat="43.95485" lon="1.81273">
        <ele>234</ele>
        <time>2021-09-26T09:05:27Z</time>
      </trkpt>
      <trkpt lat="43.95484" lon="1.81275">
        <ele>234.2</ele>
        <time>2021-09-26T09:05:28Z</time>
      </trkpt>
      <trkpt lat="43.95483" lon="1.81278">
        <ele>234.2</ele>
        <time>2021-09-26T09:05:29Z</time>
      </trkpt>
      <trkpt lat="43.95482" lon="1.81281">
        <ele>234.4</ele>
        <time>2021-09-26T09:05:30Z</time>
      </trkpt>
      <trkpt lat="43.95481" lon="1.81284">
        <ele>234.4</ele>
        <time>2021-09-26T09:05:31Z</time>
      </trkpt>
      <trkpt lat="43.95481" lon="1.81287">
        <ele>234.6</ele>
        <time>2021-09-26T09:05:32Z</time>
      </trkpt>
      <trkpt lat="43.9548" lon="1.8129">
        <ele>234.8</ele>
        <time>2021-09-26T09:05:33Z</time>
      </trkpt>
      <trkpt lat="43.95479" lon="1.81292">
        <ele>235</ele>
        <time>2021-09-26T09:05:34Z</time>
      </trkpt>
      <trkpt lat="43.95479" lon="1.81295">
        <ele>235.2</ele>
        <time>2021-09-26T09:05:35Z</time>
      </trkpt>
      <trkpt lat="43.95478" lon="1.81298">
        <ele>235.2</ele>
        <time>2021-09-26T09:05:36Z</time>
      </trkpt>
      <trkpt lat="43.95477" lon="1.81301">
        <ele>235.4</ele>
        <time>2021-09-26T09:05:37Z</time>
      </trkpt>
      <trkpt lat="43.95475" lon="1.81305">
        <ele>235.4</ele>
        <time>2021-09-26T09:05:38Z</time>
      </trkpt>
      <trkpt lat="43.95474" lon="1.81307">
        <ele>235.6</ele>
        <time>2021-09-26T09:05:39Z</time>
      </trkpt>
      <trkpt lat="43.95473" lon="1.8131">
        <ele>235.6</ele>
        <time>2021-09-26T09:05:40Z</time>
      </trkpt>
      <trkpt lat="43.95472" lon="1.81313">
        <ele>235.8</ele>
        <time>2021-09-26T09:05:41Z</time>
      </trkpt>
      <trkpt lat="43.95471" lon="1.81316">
        <ele>235.8</ele>
        <time>2021-09-26T09:05:42Z</time>
      </trkpt>
      <trkpt lat="43.9547" lon="1.81318">
        <ele>235.8</ele>
        <time>2021-09-26T09:05:43Z</time>
      </trkpt>
      <trkpt lat="43.95469" lon="1.81321">
        <ele>236</ele>
        <time>2021-09-26T09:05:44Z</time>
      </trkpt>
      <trkpt lat="43.95468" lon="1.81324">
        <ele>236.2</ele>
        <time>2021-09-26T09:05:45Z</time>
      </trkpt>
      <trkpt lat="43.95467" lon="1.81327">
        <ele>236.4</ele>
        <time>2021-09-26T09:05:46Z</time>
      </trkpt>
      <trkpt lat="43.95466" lon="1.8133">
        <ele>236.4</ele>
        <time>2021-09-26T09:05:47Z</time>
      </trkpt>
      <trkpt lat="43.95464" lon="1.81333">
        <ele>236.6</ele>
        <time>2021-09-26T09:05:48Z</time>
      </trkpt>
      <trkpt lat="43.95463" lon="1.81335">
        <ele>236.6</ele>
        <time>2021-09-26T09:05:49Z</time>
      </trkpt>
      <trkpt lat="43.95462" lon="1.81338">
        <ele>236.6</ele>
        <time>2021-09-26T09:05:50Z</time>
      </trkpt>
      <trkpt lat="43.95461" lon="1.8134">
        <ele>237</ele>
        <time>2021-09-26T09:05:51Z</time>
      </trkpt>
      <trkpt lat="43.9546" lon="1.81343">
        <ele>237</ele>
        <time>2021-09-26T09:05:52Z</time>
      </trkpt>
      <trkpt lat="43.95459" lon="1.81345">
        <ele>237.2</ele>
        <time>2021-09-26T09:05:53Z</time>
      </trkpt>
      <trkpt lat="43.95457" lon="1.81347">
        <ele>237.4</ele>
        <time>2021-09-26T09:05:54Z</time>
      </trkpt>
      <trkpt lat="43.95455" lon="1.81349">
        <ele>237.4</ele>
        <time>2021-09-26T09:05:55Z</time>
      </trkpt>
      <trkpt lat="43.95454" lon="1.81351">
        <ele>237.6</ele>
        <time>2021-09-26T09:05:56Z</time>
      </trkpt>
      <trkpt lat="43.95452" lon="1.81352">
        <ele>237.8</ele>
        <time>2021-09-26T09:05:57Z</time>
      </trkpt>
      <trkpt lat="43.9545" lon="1.81353">
        <ele>237.8</ele>
        <time>2021-09-26T09:05:58Z</time>
      </trkpt>
      <trkpt lat="43.95448" lon="1.81355">
        <ele>238</ele>
        <time>2021-09-26T09:05:59Z</time>
      </trkpt>
      <trkpt lat="43.95446" lon="1.81356">
        <ele>238.2</ele>
        <time>2021-09-26T09:06:00Z</time>
      </trkpt>
      <trkpt lat="43.95444" lon="1.81358">
        <ele>238.2</ele>
        <time>2021-09-26T09:06:01Z</time>
      </trkpt>
      <trkpt lat="43.95442" lon="1.81359">
        <ele>238.4</ele>
        <time>2021-09-26T09:06:02Z</time>
      </trkpt>
      <trkpt lat="43.9544" lon="1.8136">
        <ele>238.4</ele>
        <time>2021-09-26T09:06:03Z</time>
      </trkpt>
      <trkpt lat="43.95439" lon="1.81362">
        <ele>238.6</ele>
        <time>2021-09-26T09:06:04Z</time>
      </trkpt>
      <trkpt lat="43.95437" lon="1.81363">
        <ele>238.8</ele>
        <time>2021-09-26T09:06:05Z</time>
      </trkpt>
      <trkpt lat="43.95435" lon="1.81365">
        <ele>238.8</ele>
        <time>2021-09-26T09:06:06Z</time>
      </trkpt>
      <trkpt lat="43.95433" lon="1.81366">
        <ele>238.8</ele>
        <time>2021-09-26T09:06:07Z</time>
      </trkpt>
      <trkpt lat="43.95431" lon="1.81367">
        <ele>238.8</ele>
        <time>2021-09-26T09:06:08Z</time>
      </trkpt>
      <trkpt lat="43.95429" lon="1.81368">
        <ele>239.2</ele>
        <time>2021-09-26T09:06:09Z</time>
      </trkpt>
      <trkpt lat="43.95427" lon="1.81369">
        <ele>239.4</ele>
        <time>2021-09-26T09:06:10Z</time>
      </trkpt>
      <trkpt lat="43.95425" lon="1.8137">
        <ele>239.6</ele>
        <time>2021-09-26T09:06:11Z</time>
      </trkpt>
      <trkpt lat="43.95423" lon="1.81371">
        <ele>239.6</ele>
        <time>2021-09-26T09:06:12Z</time>
      </trkpt>
      <trkpt lat="43.95421" lon="1.81372">
        <ele>239.6</ele>
        <time>2021-09-26T09:06:13Z</time>
      </trkpt>
      <trkpt lat="43.95419" lon="1.81373">
        <ele>239.8</ele>
        <time>2021-09-26T09:06:14Z</time>
      </trkpt>
      <trkpt lat="43.95417" lon="1.81374">
        <ele>239.8</ele>
        <time>2021-09-26T09:06:15Z</time>
      </trkpt>
      <trkpt lat="43.95415" lon="1.81376">
        <ele>240</ele>
        <time>2021-09-26T09:06:16Z</time>
      </trkpt>
      <trkpt lat="43.95413" lon="1.81377">
        <ele>240.2</ele>
        <time>2021-09-26T09:06:17Z</time>
      </trkpt>
      <trkpt lat="43.95411" lon="1.81378">
        <ele>240.2</ele>
        <time>2021-09-26T09:06:18Z</time>
      </trkpt>
      <trkpt lat="43.95409" lon="1.81379">
        <ele>240.4</ele>
        <time>2021-09-26T09:06:19Z</time>
      </trkpt>
      <trkpt lat="43.95407" lon="1.8138">
        <ele>240.6</ele>
        <time>2021-09-26T09:06:20Z</time>
      </trkpt>
      <trkpt lat="43.95405" lon="1.81381">
        <ele>240.8</ele>
        <time>2021-09-26T09:06:21Z</time>
      </trkpt>
      <trkpt lat="43.95403" lon="1.81382">
        <ele>240.8</ele>
        <time>2021-09-26T09:06:22Z</time>
      </trkpt>
      <trkpt lat="43.95401" lon="1.81383">
        <ele>240.8</ele>
        <time>2021-09-26T09:06:23Z</time>
      </trkpt>
      <trkpt lat="43.95399" lon="1.81385">
        <ele>241</ele>
        <time>2021-09-26T09:06:24Z</time>
      </trkpt>
      <trkpt lat="43.95397" lon="1.81386">
        <ele>241</ele>
        <time>2021-09-26T09:06:25Z</time>
      </trkpt>
      <trkpt lat="43.95395" lon="1.81387">
        <ele>241</ele>
        <time>2021-09-26T09:06:26Z</time>
      </trkpt>
      <trkpt lat="43.95392" lon="1.81389">
        <ele>241.4</ele>
        <time>2021-09-26T09:06:27Z</time>
      </trkpt>
      <trkpt lat="43.95391" lon="1.8139">
        <ele>241.6</ele>
        <time>2021-09-26T09:06:28Z</time>
      </trkpt>
      <trkpt lat="43.95389" lon="1.81391">
        <ele>241.6</ele>
        <time>2021-09-26T09:06:29Z</time>
      </trkpt>
      <trkpt lat="43.95387" lon="1.81393">
        <ele>241.8</ele>
        <time>2021-09-26T09:06:30Z</time>
      </trkpt>
      <trkpt lat="43.95385" lon="1.81394">
        <ele>241.8</ele>
        <time>2021-09-26T09:06:31Z</time>
      </trkpt>
      <trkpt lat="43.95383" lon="1.81395">
        <ele>242</ele>
        <time>2021-09-26T09:06:32Z</time>
      </trkpt>
      <trkpt lat="43.95381" lon="1.81397">
        <ele>242</ele>
        <time>2021-09-26T09:06:33Z</time>
      </trkpt>
      <trkpt lat="43.9538" lon="1.81398">
        <ele>242.2</ele>
        <time>2021-09-26T09:06:34Z</time>
      </trkpt>
      <trkpt lat="43.95378" lon="1.814">
        <ele>242.4</ele>
        <time>2021-09-26T09:06:35Z</time>
      </trkpt>
      <trkpt lat="43.95376" lon="1.81401">
        <ele>242.6</ele>
        <time>2021-09-26T09:06:36Z</time>
      </trkpt>
      <trkpt lat="43.95374" lon="1.81403">
        <ele>242.8</ele>
        <time>2021-09-26T09:06:37Z</time>
      </trkpt>
      <trkpt lat="43.95372" lon="1.81404">
        <ele>242.8</ele>
        <time>2021-09-26T09:06:38Z</time>
      </trkpt>
      <trkpt lat="43.95371" lon="1.81405">
        <ele>243</ele>
        <time>2021-09-26T09:06:39Z</time>
      </trkpt>
      <trkpt lat="43.95369" lon="1.81407">
        <ele>243.2</ele>
        <time>2021-09-26T09:06:40Z</time>
      </trkpt>
      <trkpt lat="43.95367" lon="1.81408">
        <ele>243.4</ele>
        <time>2021-09-26T09:06:41Z</time>
      </trkpt>
      <trkpt lat="43.95365" lon="1.81409">
        <ele>243.6</ele>
        <time>2021-09-26T09:06:42Z</time>
      </trkpt>
      <trkpt lat="43.95364" lon="1.8141">
        <ele>243.8</ele>
        <time>2021-09-26T09:06:43Z</time>
      </trkpt>
      <trkpt lat="43.95362" lon="1.81411">
        <ele>243.8</ele>
        <time>2021-09-26T09:06:44Z</time>
      </trkpt>
      <trkpt lat="43.9536" lon="1.81413">
        <ele>244</ele>
        <time>2021-09-26T09:06:45Z</time>
      </trkpt>
      <trkpt lat="43.95358" lon="1.81414">
        <ele>244</ele>
        <time>2021-09-26T09:06:46Z</time>
      </trkpt>
      <trkpt lat="43.95356" lon="1.81415">
        <ele>244.2</ele>
        <time>2021-09-26T09:06:47Z</time>
      </trkpt>
      <trkpt lat="43.95354" lon="1.81417">
        <ele>244.4</ele>
        <time>2021-09-26T09:06:48Z</time>
      </trkpt>
      <trkpt lat="43.95352" lon="1.81418">
        <ele>244.4</ele>
        <time>2021-09-26T09:06:49Z</time>
      </trkpt>
      <trkpt lat="43.9535" lon="1.8142">
        <ele>244.6</ele>
        <time>2021-09-26T09:06:50Z</time>
      </trkpt>
      <trkpt lat="43.95347" lon="1.81421">
        <ele>244.6</ele>
        <time>2021-09-26T09:06:51Z</time>
      </trkpt>
      <trkpt lat="43.95345" lon="1.81422">
        <ele>244.6</ele>
        <time>2021-09-26T09:06:52Z</time>
      </trkpt>
      <trkpt lat="43.95343" lon="1.81424">
        <ele>244.8</ele>
        <time>2021-09-26T09:06:53Z</time>
      </trkpt>
      <trkpt lat="43.95341" lon="1.81425">
        <ele>244.8</ele>
        <time>2021-09-26T09:06:54Z</time>
      </trkpt>
      <trkpt lat="43.95338" lon="1.81426">
        <ele>245</ele>
        <time>2021-09-26T09:06:55Z</time>
      </trkpt>
      <trkpt lat="43.95337" lon="1.81427">
        <ele>245</ele>
        <time>2021-09-26T09:06:56Z</time>
      </trkpt>
      <trkpt lat="43.95334" lon="1.81429">
        <ele>245.2</ele>
        <time>2021-09-26T09:06:57Z</time>
      </trkpt>
      <trkpt lat="43.95332" lon="1.8143">
        <ele>245.4</ele>
        <time>2021-09-26T09:06:58Z</time>
      </trkpt>
      <trkpt lat="43.9533" lon="1.81431">
        <ele>245.4</ele>
        <time>2021-09-26T09:06:59Z</time>
      </trkpt>
      <trkpt lat="43.95328" lon="1.81432">
        <ele>245.4</ele>
        <time>2021-09-26T09:07:00Z</time>
      </trkpt>
      <trkpt lat="43.95326" lon="1.81433">
        <ele>245.6</ele>
        <time>2021-09-26T09:07:01Z</time>
      </trkpt>
      <trkpt lat="43.95324" lon="1.81435">
        <ele>245.8</ele>
        <time>2021-09-26T09:07:02Z</time>
      </trkpt>
      <trkpt lat="43.95322" lon="1.81436">
        <ele>246</ele>
        <time>2021-09-26T09:07:03Z</time>
      </trkpt>
      <trkpt lat="43.9532" lon="1.81438">
        <ele>246</ele>
        <time>2021-09-26T09:07:04Z</time>
      </trkpt>
      <trkpt lat="43.95318" lon="1.8144">
        <ele>246.4</ele>
        <time>2021-09-26T09:07:05Z</time>
      </trkpt>
      <trkpt lat="43.95317" lon="1.81441">
        <ele>246.4</ele>
        <time>2021-09-26T09:07:06Z</time>
      </trkpt>
      <trkpt lat="43.95315" lon="1.81442">
        <ele>246.6</ele>
        <time>2021-09-26T09:07:07Z</time>
      </trkpt>
      <trkpt lat="43.95313" lon="1.81443">
        <ele>246.8</ele>
        <time>2021-09-26T09:07:08Z</time>
      </trkpt>
      <trkpt lat="43.95311" lon="1.81444">
        <ele>247</ele>
        <time>2021-09-26T09:07:09Z</time>
      </trkpt>
      <trkpt lat="43.95308" lon="1.81446">
        <ele>247</ele>
        <time>2021-09-26T09:07:10Z</time>
      </trkpt>
      <trkpt lat="43.95307" lon="1.81447">
        <ele>247.2</ele>
        <time>2021-09-26T09:07:11Z</time>
      </trkpt>
      <trkpt lat="43.95305" lon="1.81448">
        <ele>247.2</ele>
        <time>2021-09-26T09:07:12Z</time>
      </trkpt>
      <trkpt lat="43.95304" lon="1.8145">
        <ele>247.4</ele>
        <time>2021-09-26T09:07:13Z</time>
      </trkpt>
      <trkpt lat="43.95302" lon="1.81452">
        <ele>247.6</ele>
        <time>2021-09-26T09:07:14Z</time>
      </trkpt>
      <trkpt lat="43.953" lon="1.81454">
        <ele>247.6</ele>
        <time>2021-09-26T09:07:15Z</time>
      </trkpt>
      <trkpt lat="43.95298" lon="1.81455">
        <ele>247.8</ele>
        <time>2021-09-26T09:07:16Z</time>
      </trkpt>
      <trkpt lat="43.95296" lon="1.81457">
        <ele>248</ele>
        <time>2021-09-26T09:07:17Z</time>
      </trkpt>
      <trkpt lat="43.95294" lon="1.81459">
        <ele>248.2</ele>
        <time>2021-09-26T09:07:18Z</time>
      </trkpt>
      <trkpt lat="43.95292" lon="1.8146">
        <ele>248.2</ele>
        <time>2021-09-26T09:07:19Z</time>
      </trkpt>
      <trkpt lat="43.9529" lon="1.81461">
        <ele>248.4</ele>
        <time>2021-09-26T09:07:20Z</time>
      </trkpt>
      <trkpt lat="43.95289" lon="1.81463">
        <ele>248.6</ele>
        <time>2021-09-26T09:07:21Z</time>
      </trkpt>
      <trkpt lat="43.95287" lon="1.81465">
        <ele>248.6</ele>
        <time>2021-09-26T09:07:22Z</time>
      </trkpt>
      <trkpt lat="43.95285" lon="1.81467">
        <ele>248.8</ele>
        <time>2021-09-26T09:07:23Z</time>
      </trkpt>
      <trkpt lat="43.95284" lon="1.81469">
        <ele>248.8</ele>
        <time>2021-09-26T09:07:24Z</time>
      </trkpt>
      <trkpt lat="43.95282" lon="1.81471">
        <ele>249</ele>
        <time>2021-09-26T09:07:25Z</time>
      </trkpt>
      <trkpt lat="43.9528" lon="1.81473">
        <ele>249.2</ele>
        <time>2021-09-26T09:07:26Z</time>
      </trkpt>
      <trkpt lat="43.95278" lon="1.81475">
        <ele>249.4</ele>
        <time>2021-09-26T09:07:27Z</time>
      </trkpt>
      <trkpt lat="43.95276" lon="1.81477">
        <ele>249.6</ele>
        <time>2021-09-26T09:07:28Z</time>
      </trkpt>
      <trkpt lat="43.95274" lon="1.81478">
        <ele>249.6</ele>
        <time>2021-09-26T09:07:29Z</time>
      </trkpt>
      <trkpt lat="43.95273" lon="1.8148">
        <ele>249.8</ele>
        <time>2021-09-26T09:07:30Z</time>
      </trkpt>
      <trkpt lat="43.95271" lon="1.81482">
        <ele>249.8</ele>
        <time>2021-09-26T09:07:31Z</time>
      </trkpt>
      <trkpt lat="43.95269" lon="1.81484">
        <ele>250</ele>
        <time>2021-09-26T09:07:32Z</time>
      </trkpt>
      <trkpt lat="43.95268" lon="1.81485">
        <ele>250</ele>
        <time>2021-09-26T09:07:33Z</time>
      </trkpt>
      <trkpt lat="43.95266" lon="1.81487">
        <ele>250.2</ele>
        <time>2021-09-26T09:07:34Z</time>
      </trkpt>
      <trkpt lat="43.95264" lon="1.81489">
        <ele>250.2</ele>
        <time>2021-09-26T09:07:35Z</time>
      </trkpt>
      <trkpt lat="43.95262" lon="1.81491">
        <ele>250.4</ele>
        <time>2021-09-26T09:07:36Z</time>
      </trkpt>
      <trkpt lat="43.95261" lon="1.81493">
        <ele>250.6</ele>
        <time>2021-09-26T09:07:37Z</time>
      </trkpt>
      <trkpt lat="43.95259" lon="1.81494">
        <ele>250.6</ele>
        <time>2021-09-26T09:07:38Z</time>
      </trkpt>
      <trkpt lat="43.95257" lon="1.81496">
        <ele>250.8</ele>
        <time>2021-09-26T09:07:39Z</time>
      </trkpt>
      <trkpt lat="43.95256" lon="1.81498">
        <ele>250.8</ele>
        <time>2021-09-26T09:07:40Z</time>
      </trkpt>
      <trkpt lat="43.95254" lon="1.81499">
        <ele>251</ele>
        <time>2021-09-26T09:07:41Z</time>
      </trkpt>
      <trkpt lat="43.95252" lon="1.81501">
        <ele>251</ele>
        <time>2021-09-26T09:07:42Z</time>
      </trkpt>
      <trkpt lat="43.9525" lon="1.81502">
        <ele>251.2</ele>
        <time>2021-09-26T09:07:43Z</time>
      </trkpt>
      <trkpt lat="43.95248" lon="1.81503">
        <ele>251.6</ele>
        <time>2021-09-26T09:07:44Z</time>
      </trkpt>
      <trkpt lat="43.95246" lon="1.81504">
        <ele>251.6</ele>
        <time>2021-09-26T09:07:45Z</time>
      </trkpt>
      <trkpt lat="43.95244" lon="1.81505">
        <ele>251.8</ele>
        <time>2021-09-26T09:07:46Z</time>
      </trkpt>
      <trkpt lat="43.95242" lon="1.81506">
        <ele>252</ele>
        <time>2021-09-26T09:07:47Z</time>
      </trkpt>
      <trkpt lat="43.9524" lon="1.81507">
        <ele>252</ele>
        <time>2021-09-26T09:07:48Z</time>
      </trkpt>
      <trkpt lat="43.95238" lon="1.81508">
        <ele>252.2</ele>
        <time>2021-09-26T09:07:49Z</time>
      </trkpt>
      <trkpt lat="43.95235" lon="1.81509">
        <ele>252.4</ele>
        <time>2021-09-26T09:07:50Z</time>
      </trkpt>
      <trkpt lat="43.95233" lon="1.8151">
        <ele>252.4</ele>
        <time>2021-09-26T09:07:51Z</time>
      </trkpt>
      <trkpt lat="43.95231" lon="1.81511">
        <ele>252.4</ele>
        <time>2021-09-26T09:07:52Z</time>
      </trkpt>
      <trkpt lat="43.95229" lon="1.81511">
        <ele>252.6</ele>
        <time>2021-09-26T09:07:53Z</time>
      </trkpt>
      <trkpt lat="43.95228" lon="1.81512">
        <ele>252.6</ele>
        <time>2021-09-26T09:07:54Z</time>
      </trkpt>
      <trkpt lat="43.95226" lon="1.81512">
        <ele>253</ele>
        <time>2021-09-26T09:07:55Z</time>
      </trkpt>
      <trkpt lat="43.95224" lon="1.81513">
        <ele>253</ele>
        <time>2021-09-26T09:07:56Z</time>
      </trkpt>
      <trkpt lat="43.95221" lon="1.81514">
        <ele>253.2</ele>
        <time>2021-09-26T09:07:57Z</time>
      </trkpt>
      <trkpt lat="43.95219" lon="1.81515">
        <ele>253.2</ele>
        <time>2021-09-26T09:07:58Z</time>
      </trkpt>
      <trkpt lat="43.95217" lon="1.81516">
        <ele>253.4</ele>
        <time>2021-09-26T09:07:59Z</time>
      </trkpt>
      <trkpt lat="43.95215" lon="1.81516">
        <ele>253.6</ele>
        <time>2021-09-26T09:08:00Z</time>
      </trkpt>
      <trkpt lat="43.95213" lon="1.81517">
        <ele>253.6</ele>
        <time>2021-09-26T09:08:01Z</time>
      </trkpt>
      <trkpt lat="43.95211" lon="1.81518">
        <ele>253.8</ele>
        <time>2021-09-26T09:08:02Z</time>
      </trkpt>
      <trkpt lat="43.95209" lon="1.81518">
        <ele>253.8</ele>
        <time>2021-09-26T09:08:03Z</time>
      </trkpt>
      <trkpt lat="43.95207" lon="1.8152">
        <ele>254</ele>
        <time>2021-09-26T09:08:04Z</time>
      </trkpt>
      <trkpt lat="43.95206" lon="1.8152">
        <ele>254</ele>
        <time>2021-09-26T09:08:05Z</time>
      </trkpt>
      <trkpt lat="43.95204" lon="1.81521">
        <ele>254.4</ele>
        <time>2021-09-26T09:08:06Z</time>
      </trkpt>
      <trkpt lat="43.95202" lon="1.81521">
        <ele>254.6</ele>
        <time>2021-09-26T09:08:07Z</time>
      </trkpt>
      <trkpt lat="43.952" lon="1.81522">
        <ele>254.6</ele>
        <time>2021-09-26T09:08:08Z</time>
      </trkpt>
      <trkpt lat="43.95198" lon="1.81524">
        <ele>254.8</ele>
        <time>2021-09-26T09:08:09Z</time>
      </trkpt>
      <trkpt lat="43.95196" lon="1.81525">
        <ele>254.8</ele>
        <time>2021-09-26T09:08:10Z</time>
      </trkpt>
      <trkpt lat="43.95194" lon="1.81527">
        <ele>255</ele>
        <time>2021-09-26T09:08:11Z</time>
      </trkpt>
      <trkpt lat="43.95192" lon="1.81528">
        <ele>255.2</ele>
        <time>2021-09-26T09:08:12Z</time>
      </trkpt>
      <trkpt lat="43.9519" lon="1.81529">
        <ele>255.4</ele>
        <time>2021-09-26T09:08:13Z</time>
      </trkpt>
      <trkpt lat="43.95187" lon="1.81532">
        <ele>255.4</ele>
        <time>2021-09-26T09:08:14Z</time>
      </trkpt>
      <trkpt lat="43.95185" lon="1.81533">
        <ele>255.6</ele>
        <time>2021-09-26T09:08:15Z</time>
      </trkpt>
      <trkpt lat="43.95183" lon="1.81535">
        <ele>256</ele>
        <time>2021-09-26T09:08:16Z</time>
      </trkpt>
      <trkpt lat="43.95181" lon="1.81535">
        <ele>256</ele>
        <time>2021-09-26T09:08:17Z</time>
      </trkpt>
      <trkpt lat="43.95179" lon="1.81537">
        <ele>256.2</ele>
        <time>2021-09-26T09:08:18Z</time>
      </trkpt>
      <trkpt lat="43.95176" lon="1.81538">
        <ele>256.4</ele>
        <time>2021-09-26T09:08:19Z</time>
      </trkpt>
      <trkpt lat="43.95174" lon="1.8154">
        <ele>256.6</ele>
        <time>2021-09-26T09:08:20Z</time>
      </trkpt>
      <trkpt lat="43.95172" lon="1.81542">
        <ele>256.6</ele>
        <time>2021-09-26T09:08:21Z</time>
      </trkpt>
      <trkpt lat="43.95171" lon="1.81543">
        <ele>256.8</ele>
        <time>2021-09-26T09:08:22Z</time>
      </trkpt>
      <trkpt lat="43.95169" lon="1.81544">
        <ele>257</ele>
        <time>2021-09-26T09:08:23Z</time>
      </trkpt>
      <trkpt lat="43.95166" lon="1.81547">
        <ele>257</ele>
        <time>2021-09-26T09:08:24Z</time>
      </trkpt>
      <trkpt lat="43.95164" lon="1.81549">
        <ele>257.2</ele>
        <time>2021-09-26T09:08:25Z</time>
      </trkpt>
      <trkpt lat="43.95162" lon="1.81551">
        <ele>257.2</ele>
        <time>2021-09-26T09:08:26Z</time>
      </trkpt>
      <trkpt lat="43.9516" lon="1.81553">
        <ele>257.4</ele>
        <time>2021-09-26T09:08:27Z</time>
      </trkpt>
      <trkpt lat="43.95158" lon="1.81555">
        <ele>257.4</ele>
        <time>2021-09-26T09:08:28Z</time>
      </trkpt>
      <trkpt lat="43.95156" lon="1.81557">
        <ele>257.6</ele>
        <time>2021-09-26T09:08:29Z</time>
      </trkpt>
      <trkpt lat="43.95155" lon="1.81558">
        <ele>257.8</ele>
        <time>2021-09-26T09:08:30Z</time>
      </trkpt>
      <trkpt lat="43.95153" lon="1.8156">
        <ele>257.8</ele>
        <time>2021-09-26T09:08:31Z</time>
      </trkpt>
      <trkpt lat="43.95151" lon="1.81562">
        <ele>258</ele>
        <time>2021-09-26T09:08:32Z</time>
      </trkpt>
      <trkpt lat="43.95149" lon="1.81564">
        <ele>258</ele>
        <time>2021-09-26T09:08:33Z</time>
      </trkpt>
      <trkpt lat="43.95147" lon="1.81566">
        <ele>258.2</ele>
        <time>2021-09-26T09:08:34Z</time>
      </trkpt>
      <trkpt lat="43.95146" lon="1.81567">
        <ele>258.2</ele>
        <time>2021-09-26T09:08:35Z</time>
      </trkpt>
      <trkpt lat="43.95144" lon="1.81569">
        <ele>258.4</ele>
        <time>2021-09-26T09:08:36Z</time>
      </trkpt>
      <trkpt lat="43.95142" lon="1.8157">
        <ele>258.4</ele>
        <time>2021-09-26T09:08:37Z</time>
      </trkpt>
      <trkpt lat="43.95141" lon="1.81572">
        <ele>258.6</ele>
        <time>2021-09-26T09:08:38Z</time>
      </trkpt>
      <trkpt lat="43.95139" lon="1.81574">
        <ele>259</ele>
        <time>2021-09-26T09:08:39Z</time>
      </trkpt>
      <trkpt lat="43.95137" lon="1.81576">
        <ele>259</ele>
        <time>2021-09-26T09:08:40Z</time>
      </trkpt>
      <trkpt lat="43.95136" lon="1.81578">
        <ele>259.4</ele>
        <time>2021-09-26T09:08:41Z</time>
      </trkpt>
      <trkpt lat="43.95134" lon="1.8158">
        <ele>259.6</ele>
        <time>2021-09-26T09:08:42Z</time>
      </trkpt>
      <trkpt lat="43.95132" lon="1.81582">
        <ele>259.8</ele>
        <time>2021-09-26T09:08:43Z</time>
      </trkpt>
      <trkpt lat="43.95131" lon="1.81584">
        <ele>259.8</ele>
        <time>2021-09-26T09:08:44Z</time>
      </trkpt>
      <trkpt lat="43.95129" lon="1.81585">
        <ele>260</ele>
        <time>2021-09-26T09:08:45Z</time>
      </trkpt>
      <trkpt lat="43.95128" lon="1.81587">
        <ele>260.2</ele>
        <time>2021-09-26T09:08:46Z</time>
      </trkpt>
      <trkpt lat="43.95126" lon="1.8159">
        <ele>260.4</ele>
        <time>2021-09-26T09:08:47Z</time>
      </trkpt>
      <trkpt lat="43.95125" lon="1.81592">
        <ele>260.6</ele>
        <time>2021-09-26T09:08:48Z</time>
      </trkpt>
      <trkpt lat="43.95123" lon="1.81594">
        <ele>260.8</ele>
        <time>2021-09-26T09:08:49Z</time>
      </trkpt>
      <trkpt lat="43.95122" lon="1.81596">
        <ele>260.8</ele>
        <time>2021-09-26T09:08:50Z</time>
      </trkpt>
      <trkpt lat="43.9512" lon="1.81599">
        <ele>261</ele>
        <time>2021-09-26T09:08:51Z</time>
      </trkpt>
      <trkpt lat="43.95119" lon="1.81601">
        <ele>261.2</ele>
        <time>2021-09-26T09:08:52Z</time>
      </trkpt>
      <trkpt lat="43.95118" lon="1.81603">
        <ele>261.4</ele>
        <time>2021-09-26T09:08:53Z</time>
      </trkpt>
      <trkpt lat="43.95117" lon="1.81605">
        <ele>261.6</ele>
        <time>2021-09-26T09:08:54Z</time>
      </trkpt>
      <trkpt lat="43.95115" lon="1.81607">
        <ele>261.8</ele>
        <time>2021-09-26T09:08:55Z</time>
      </trkpt>
      <trkpt lat="43.95114" lon="1.81608">
        <ele>262</ele>
        <time>2021-09-26T09:08:56Z</time>
      </trkpt>
      <trkpt lat="43.95112" lon="1.8161">
        <ele>262</ele>
        <time>2021-09-26T09:08:57Z</time>
      </trkpt>
      <trkpt lat="43.95111" lon="1.81612">
        <ele>262.2</ele>
        <time>2021-09-26T09:08:58Z</time>
      </trkpt>
      <trkpt lat="43.95109" lon="1.81613">
        <ele>262.4</ele>
        <time>2021-09-26T09:08:59Z</time>
      </trkpt>
      <trkpt lat="43.95108" lon="1.81615">
        <ele>262.4</ele>
        <time>2021-09-26T09:09:00Z</time>
      </trkpt>
      <trkpt lat="43.95106" lon="1.81617">
        <ele>262.8</ele>
        <time>2021-09-26T09:09:01Z</time>
      </trkpt>
      <trkpt lat="43.95105" lon="1.81619">
        <ele>263</ele>
        <time>2021-09-26T09:09:02Z</time>
      </trkpt>
      <trkpt lat="43.95103" lon="1.81621">
        <ele>263.2</ele>
        <time>2021-09-26T09:09:03Z</time>
      </trkpt>
      <trkpt lat="43.95102" lon="1.81623">
        <ele>263.4</ele>
        <time>2021-09-26T09:09:04Z</time>
      </trkpt>
      <trkpt lat="43.951" lon="1.81625">
        <ele>263.4</ele>
        <time>2021-09-26T09:09:05Z</time>
      </trkpt>
      <trkpt lat="43.95099" lon="1.81627">
        <ele>263.6</ele>
        <time>2021-09-26T09:09:06Z</time>
      </trkpt>
      <trkpt lat="43.95098" lon="1.8163">
        <ele>263.6</ele>
        <time>2021-09-26T09:09:07Z</time>
      </trkpt>
      <trkpt lat="43.95097" lon="1.81632">
        <ele>263.8</ele>
        <time>2021-09-26T09:09:08Z</time>
      </trkpt>
      <trkpt lat="43.95096" lon="1.81635">
        <ele>264</ele>
        <time>2021-09-26T09:09:09Z</time>
      </trkpt>
      <trkpt lat="43.95094" lon="1.81637">
        <ele>264</ele>
        <time>2021-09-26T09:09:10Z</time>
      </trkpt>
      <trkpt lat="43.95093" lon="1.8164">
        <ele>264.2</ele>
        <time>2021-09-26T09:09:11Z</time>
      </trkpt>
      <trkpt lat="43.95092" lon="1.81642">
        <ele>264.2</ele>
        <time>2021-09-26T09:09:12Z</time>
      </trkpt>
      <trkpt lat="43.95091" lon="1.81645">
        <ele>264.4</ele>
        <time>2021-09-26T09:09:13Z</time>
      </trkpt>
      <trkpt lat="43.9509" lon="1.81647">
        <ele>264.6</ele>
        <time>2021-09-26T09:09:14Z</time>
      </trkpt>
      <trkpt lat="43.9509" lon="1.8165">
        <ele>264.6</ele>
        <time>2021-09-26T09:09:15Z</time>
      </trkpt>
      <trkpt lat="43.95089" lon="1.81654">
        <ele>264.8</ele>
        <time>2021-09-26T09:09:16Z</time>
      </trkpt>
      <trkpt lat="43.95088" lon="1.81656">
        <ele>264.8</ele>
        <time>2021-09-26T09:09:17Z</time>
      </trkpt>
      <trkpt lat="43.95086" lon="1.81659">
        <ele>265</ele>
        <time>2021-09-26T09:09:18Z</time>
      </trkpt>
      <trkpt lat="43.95085" lon="1.81661">
        <ele>265.2</ele>
        <time>2021-09-26T09:09:19Z</time>
      </trkpt>
      <trkpt lat="43.95084" lon="1.81664">
        <ele>265.4</ele>
        <time>2021-09-26T09:09:20Z</time>
      </trkpt>
      <trkpt lat="43.95083" lon="1.81667">
        <ele>265.4</ele>
        <time>2021-09-26T09:09:21Z</time>
      </trkpt>
      <trkpt lat="43.95081" lon="1.8167">
        <ele>265.6</ele>
        <time>2021-09-26T09:09:22Z</time>
      </trkpt>
      <trkpt lat="43.9508" lon="1.81673">
        <ele>265.8</ele>
        <time>2021-09-26T09:09:23Z</time>
      </trkpt>
      <trkpt lat="43.95079" lon="1.81675">
        <ele>266</ele>
        <time>2021-09-26T09:09:24Z</time>
      </trkpt>
      <trkpt lat="43.95078" lon="1.81677">
        <ele>266</ele>
        <time>2021-09-26T09:09:25Z</time>
      </trkpt>
      <trkpt lat="43.95077" lon="1.8168">
        <ele>266</ele>
        <time>2021-09-26T09:09:26Z</time>
      </trkpt>
      <trkpt lat="43.95076" lon="1.81682">
        <ele>266.2</ele>
        <time>2021-09-26T09:09:27Z</time>
      </trkpt>
      <trkpt lat="43.95074" lon="1.81685">
        <ele>266.2</ele>
        <time>2021-09-26T09:09:28Z</time>
      </trkpt>
      <trkpt lat="43.95073" lon="1.81687">
        <ele>266.4</ele>
        <time>2021-09-26T09:09:29Z</time>
      </trkpt>
      <trkpt lat="43.95072" lon="1.8169">
        <ele>266.4</ele>
        <time>2021-09-26T09:09:30Z</time>
      </trkpt>
      <trkpt lat="43.95071" lon="1.81692">
        <ele>266.6</ele>
        <time>2021-09-26T09:09:31Z</time>
      </trkpt>
      <trkpt lat="43.95069" lon="1.81694">
        <ele>266.8</ele>
        <time>2021-09-26T09:09:32Z</time>
      </trkpt>
      <trkpt lat="43.95069" lon="1.81697">
        <ele>266.8</ele>
        <time>2021-09-26T09:09:33Z</time>
      </trkpt>
      <trkpt lat="43.95067" lon="1.81699">
        <ele>267</ele>
        <time>2021-09-26T09:09:34Z</time>
      </trkpt>
      <trkpt lat="43.95066" lon="1.81702">
        <ele>267.2</ele>
        <time>2021-09-26T09:09:35Z</time>
      </trkpt>
      <trkpt lat="43.95065" lon="1.81705">
        <ele>267.4</ele>
        <time>2021-09-26T09:09:36Z</time>
      </trkpt>
      <trkpt lat="43.95064" lon="1.81707">
        <ele>267.4</ele>
        <time>2021-09-26T09:09:37Z</time>
      </trkpt>
      <trkpt lat="43.95063" lon="1.8171">
        <ele>267.6</ele>
        <time>2021-09-26T09:09:38Z</time>
      </trkpt>
      <trkpt lat="43.95062" lon="1.81713">
        <ele>268</ele>
        <time>2021-09-26T09:09:39Z</time>
      </trkpt>
      <trkpt lat="43.95062" lon="1.81716">
        <ele>268</ele>
        <time>2021-09-26T09:09:40Z</time>
      </trkpt>
      <trkpt lat="43.95061" lon="1.81718">
        <ele>268.2</ele>
        <time>2021-09-26T09:09:41Z</time>
      </trkpt>
      <trkpt lat="43.9506" lon="1.81721">
        <ele>268.2</ele>
        <time>2021-09-26T09:09:42Z</time>
      </trkpt>
      <trkpt lat="43.9506" lon="1.81724">
        <ele>268.4</ele>
        <time>2021-09-26T09:09:43Z</time>
      </trkpt>
      <trkpt lat="43.95058" lon="1.81726">
        <ele>268.4</ele>
        <time>2021-09-26T09:09:44Z</time>
      </trkpt>
      <trkpt lat="43.95058" lon="1.81729">
        <ele>268.6</ele>
        <time>2021-09-26T09:09:45Z</time>
      </trkpt>
      <trkpt lat="43.95057" lon="1.81731">
        <ele>268.8</ele>
        <time>2021-09-26T09:09:46Z</time>
      </trkpt>
      <trkpt lat="43.95056" lon="1.81733">
        <ele>269</ele>
        <time>2021-09-26T09:09:47Z</time>
      </trkpt>
      <trkpt lat="43.95055" lon="1.81736">
        <ele>269.2</ele>
        <time>2021-09-26T09:09:48Z</time>
      </trkpt>
      <trkpt lat="43.95054" lon="1.81739">
        <ele>269.2</ele>
        <time>2021-09-26T09:09:49Z</time>
      </trkpt>
      <trkpt lat="43.95054" lon="1.81742">
        <ele>269.6</ele>
        <time>2021-09-26T09:09:50Z</time>
      </trkpt>
      <trkpt lat="43.95053" lon="1.81745">
        <ele>269.6</ele>
        <time>2021-09-26T09:09:51Z</time>
      </trkpt>
      <trkpt lat="43.95052" lon="1.81748">
        <ele>269.8</ele>
        <time>2021-09-26T09:09:52Z</time>
      </trkpt>
      <trkpt lat="43.95052" lon="1.8175">
        <ele>270</ele>
        <time>2021-09-26T09:09:53Z</time>
      </trkpt>
      <trkpt lat="43.95051" lon="1.81753">
        <ele>270.2</ele>
        <time>2021-09-26T09:09:54Z</time>
      </trkpt>
      <trkpt lat="43.9505" lon="1.81756">
        <ele>270.4</ele>
        <time>2021-09-26T09:09:55Z</time>
      </trkpt>
      <trkpt lat="43.95049" lon="1.81759">
        <ele>270.6</ele>
        <time>2021-09-26T09:09:56Z</time>
      </trkpt>
      <trkpt lat="43.95049" lon="1.81762">
        <ele>270.6</ele>
        <time>2021-09-26T09:09:57Z</time>
      </trkpt>
      <trkpt lat="43.95049" lon="1.81765">
        <ele>270.8</ele>
        <time>2021-09-26T09:09:58Z</time>
      </trkpt>
      <trkpt lat="43.95048" lon="1.81768">
        <ele>271</ele>
        <time>2021-09-26T09:09:59Z</time>
      </trkpt>
      <trkpt lat="43.95047" lon="1.81771">
        <ele>271</ele>
        <time>2021-09-26T09:10:00Z</time>
      </trkpt>
      <trkpt lat="43.95046" lon="1.81773">
        <ele>271.2</ele>
        <time>2021-09-26T09:10:01Z</time>
      </trkpt>
      <trkpt lat="43.95045" lon="1.81776">
        <ele>271.4</ele>
        <time>2021-09-26T09:10:02Z</time>
      </trkpt>
      <trkpt lat="43.95043" lon="1.81778">
        <ele>271.6</ele>
        <time>2021-09-26T09:10:03Z</time>
      </trkpt>
      <trkpt lat="43.95043" lon="1.81781">
        <ele>271.8</ele>
        <time>2021-09-26T09:10:04Z</time>
      </trkpt>
      <trkpt lat="43.95042" lon="1.81784">
        <ele>271.8</ele>
        <time>2021-09-26T09:10:05Z</time>
      </trkpt>
      <trkpt lat="43.95041" lon="1.81787">
        <ele>272</ele>
        <time>2021-09-26T09:10:06Z</time>
      </trkpt>
      <trkpt lat="43.9504" lon="1.8179">
        <ele>272</ele>
        <time>2021-09-26T09:10:07Z</time>
      </trkpt>
      <trkpt lat="43.95039" lon="1.81793">
        <ele>272.2</ele>
        <time>2021-09-26T09:10:08Z</time>
      </trkpt>
      <trkpt lat="43.95038" lon="1.81796">
        <ele>272.2</ele>
        <time>2021-09-26T09:10:09Z</time>
      </trkpt>
      <trkpt lat="43.95037" lon="1.81798">
        <ele>272.4</ele>
        <time>2021-09-26T09:10:10Z</time>
      </trkpt>
      <trkpt lat="43.95036" lon="1.81801">
        <ele>272.8</ele>
        <time>2021-09-26T09:10:11Z</time>
      </trkpt>
      <trkpt lat="43.95035" lon="1.81803">
        <ele>272.8</ele>
        <time>2021-09-26T09:10:12Z</time>
      </trkpt>
      <trkpt lat="43.95035" lon="1.81807">
        <ele>273</ele>
        <time>2021-09-26T09:10:13Z</time>
      </trkpt>
      <trkpt lat="43.95034" lon="1.81809">
        <ele>273</ele>
        <time>2021-09-26T09:10:14Z</time>
      </trkpt>
      <trkpt lat="43.95033" lon="1.81811">
        <ele>273.2</ele>
        <time>2021-09-26T09:10:15Z</time>
      </trkpt>
      <trkpt lat="43.95033" lon="1.81814">
        <ele>273.4</ele>
        <time>2021-09-26T09:10:16Z</time>
      </trkpt>
      <trkpt lat="43.95032" lon="1.81817">
        <ele>273.4</ele>
        <time>2021-09-26T09:10:17Z</time>
      </trkpt>
      <trkpt lat="43.95031" lon="1.81819">
        <ele>273.6</ele>
        <time>2021-09-26T09:10:18Z</time>
      </trkpt>
      <trkpt lat="43.9503" lon="1.81822">
        <ele>273.8</ele>
        <time>2021-09-26T09:10:19Z</time>
      </trkpt>
      <trkpt lat="43.95029" lon="1.81824">
        <ele>273.8</ele>
        <time>2021-09-26T09:10:20Z</time>
      </trkpt>
      <trkpt lat="43.95028" lon="1.81826">
        <ele>274</ele>
        <time>2021-09-26T09:10:21Z</time>
      </trkpt>
      <trkpt lat="43.95027" lon="1.81829">
        <ele>274</ele>
        <time>2021-09-26T09:10:22Z</time>
      </trkpt>
      <trkpt lat="43.95026" lon="1.81831">
        <ele>274.2</ele>
        <time>2021-09-26T09:10:23Z</time>
      </trkpt>
      <trkpt lat="43.95025" lon="1.81834">
        <ele>274.4</ele>
        <time>2021-09-26T09:10:24Z</time>
      </trkpt>
      <trkpt lat="43.95024" lon="1.81837">
        <ele>274.6</ele>
        <time>2021-09-26T09:10:25Z</time>
      </trkpt>
      <trkpt lat="43.95023" lon="1.81839">
        <ele>274.8</ele>
        <time>2021-09-26T09:10:26Z</time>
      </trkpt>
      <trkpt lat="43.95022" lon="1.81841">
        <ele>275</ele>
        <time>2021-09-26T09:10:27Z</time>
      </trkpt>
      <trkpt lat="43.95021" lon="1.81843">
        <ele>275.2</ele>
        <time>2021-09-26T09:10:28Z</time>
      </trkpt>
      <trkpt lat="43.9502" lon="1.81846">
        <ele>275.2</ele>
        <time>2021-09-26T09:10:29Z</time>
      </trkpt>
      <trkpt lat="43.95019" lon="1.81849">
        <ele>275.4</ele>
        <time>2021-09-26T09:10:30Z</time>
      </trkpt>
      <trkpt lat="43.95018" lon="1.81852">
        <ele>275.6</ele>
        <time>2021-09-26T09:10:31Z</time>
      </trkpt>
      <trkpt lat="43.95017" lon="1.81854">
        <ele>275.6</ele>
        <time>2021-09-26T09:10:32Z</time>
      </trkpt>
      <trkpt lat="43.95016" lon="1.81857">
        <ele>276</ele>
        <time>2021-09-26T09:10:33Z</time>
      </trkpt>
      <trkpt lat="43.95015" lon="1.8186">
        <ele>276.2</ele>
        <time>2021-09-26T09:10:34Z</time>
      </trkpt>
      <trkpt lat="43.95013" lon="1.81863">
        <ele>276.2</ele>
        <time>2021-09-26T09:10:35Z</time>
      </trkpt>
      <trkpt lat="43.95013" lon="1.81865">
        <ele>276.4</ele>
        <time>2021-09-26T09:10:36Z</time>
      </trkpt>
      <trkpt lat="43.95011" lon="1.81868">
        <ele>276.4</ele>
        <time>2021-09-26T09:10:37Z</time>
      </trkpt>
      <trkpt lat="43.9501" lon="1.8187">
        <ele>276.6</ele>
        <time>2021-09-26T09:10:38Z</time>
      </trkpt>
      <trkpt lat="43.95009" lon="1.81873">
        <ele>276.6</ele>
        <time>2021-09-26T09:10:39Z</time>
      </trkpt>
      <trkpt lat="43.95007" lon="1.81876">
        <ele>276.8</ele>
        <time>2021-09-26T09:10:40Z</time>
      </trkpt>
      <trkpt lat="43.95006" lon="1.81878">
        <ele>277</ele>
        <time>2021-09-26T09:10:41Z</time>
      </trkpt>
      <trkpt lat="43.95005" lon="1.8188">
        <ele>277.2</ele>
        <time>2021-09-26T09:10:42Z</time>
      </trkpt>
      <trkpt lat="43.95003" lon="1.81882">
        <ele>277.2</ele>
        <time>2021-09-26T09:10:43Z</time>
      </trkpt>
      <trkpt lat="43.95001" lon="1.81884">
        <ele>277.4</ele>
        <time>2021-09-26T09:10:44Z</time>
      </trkpt>
      <trkpt lat="43.94999" lon="1.81885">
        <ele>277.6</ele>
        <time>2021-09-26T09:10:45Z</time>
      </trkpt>
      <trkpt lat="43.94998" lon="1.81886">
        <ele>277.6</ele>
        <time>2021-09-26T09:10:46Z</time>
      </trkpt>
      <trkpt lat="43.94996" lon="1.81887">
        <ele>277.8</ele>
        <time>2021-09-26T09:10:47Z</time>
      </trkpt>
      <trkpt lat="43.94994" lon="1.81887">
        <ele>278</ele>
        <time>2021-09-26T09:10:48Z</time>
      </trkpt>
      <trkpt lat="43.94994" lon="1.81887">
        <ele>278</ele>
        <time>2021-09-26T09:10:49Z</time>
      </trkpt>
      <trkpt lat="43.94989" lon="1.81887">
        <ele>278.2</ele>
        <time>2021-09-26T09:10:50Z</time>
      </trkpt>
      <trkpt lat="43.94987" lon="1.81886">
        <ele>278.2</ele>
        <time>2021-09-26T09:10:51Z</time>
      </trkpt>
      <trkpt lat="43.94985" lon="1.81885">
        <ele>278.4</ele>
        <time>2021-09-26T09:10:52Z</time>
      </trkpt>
      <trkpt lat="43.94984" lon="1.81884">
        <ele>278.6</ele>
        <time>2021-09-26T09:10:53Z</time>
      </trkpt>
      <trkpt lat="43.94982" lon="1.81882">
        <ele>278.4</ele>
        <time>2021-09-26T09:10:54Z</time>
      </trkpt>
      <trkpt lat="43.94979" lon="1.8188">
        <ele>278.6</ele>
        <time>2021-09-26T09:10:55Z</time>
      </trkpt>
      <trkpt lat="43.94977" lon="1.81879">
        <ele>278.6</ele>
        <time>2021-09-26T09:10:56Z</time>
      </trkpt>
      <trkpt lat="43.94976" lon="1.81879">
        <ele>279</ele>
        <time>2021-09-26T09:10:57Z</time>
      </trkpt>
      <trkpt lat="43.94974" lon="1.81878">
        <ele>279</ele>
        <time>2021-09-26T09:10:58Z</time>
      </trkpt>
      <trkpt lat="43.94971" lon="1.81877">
        <ele>279</ele>
        <time>2021-09-26T09:10:59Z</time>
      </trkpt>
      <trkpt lat="43.94969" lon="1.81876">
        <ele>279</ele>
        <time>2021-09-26T09:11:00Z</time>
      </trkpt>
      <trkpt lat="43.94967" lon="1.81875">
        <ele>279.2</ele>
        <time>2021-09-26T09:11:01Z</time>
      </trkpt>
      <trkpt lat="43.94966" lon="1.81875">
        <ele>279.2</ele>
        <time>2021-09-26T09:11:02Z</time>
      </trkpt>
      <trkpt lat="43.94964" lon="1.81874">
        <ele>279.4</ele>
        <time>2021-09-26T09:11:03Z</time>
      </trkpt>
      <trkpt lat="43.94962" lon="1.81873">
        <ele>279.4</ele>
        <time>2021-09-26T09:11:04Z</time>
      </trkpt>
      <trkpt lat="43.94959" lon="1.81872">
        <ele>279.4</ele>
        <time>2021-09-26T09:11:05Z</time>
      </trkpt>
      <trkpt lat="43.94957" lon="1.81871">
        <ele>279.4</ele>
        <time>2021-09-26T09:11:06Z</time>
      </trkpt>
      <trkpt lat="43.94955" lon="1.8187">
        <ele>279.6</ele>
        <time>2021-09-26T09:11:07Z</time>
      </trkpt>
      <trkpt lat="43.94955" lon="1.8187">
        <ele>279.6</ele>
        <time>2021-09-26T09:11:08Z</time>
      </trkpt>
      <trkpt lat="43.94952" lon="1.81869">
        <ele>279.6</ele>
        <time>2021-09-26T09:11:09Z</time>
      </trkpt>
      <trkpt lat="43.9495" lon="1.81869">
        <ele>279.6</ele>
        <time>2021-09-26T09:11:10Z</time>
      </trkpt>
      <trkpt lat="43.94949" lon="1.81869">
        <ele>279.6</ele>
        <time>2021-09-26T09:11:11Z</time>
      </trkpt>
      <trkpt lat="43.94949" lon="1.81869">
        <ele>279.6</ele>
        <time>2021-09-26T09:11:13Z</time>
      </trkpt>
      <trkpt lat="43.94946" lon="1.81872">
        <ele>279</ele>
        <time>2021-09-26T09:13:07Z</time>
      </trkpt>
      <trkpt lat="43.94944" lon="1.81874">
        <ele>279</ele>
        <time>2021-09-26T09:13:08Z</time>
      </trkpt>
      <trkpt lat="43.94942" lon="1.81877">
        <ele>279</ele>
        <time>2021-09-26T09:13:09Z</time>
      </trkpt>
      <trkpt lat="43.94941" lon="1.8188">
        <ele>279</ele>
        <time>2021-09-26T09:13:10Z</time>
      </trkpt>
      <trkpt lat="43.94935" lon="1.81889">
        <ele>279</ele>
        <time>2021-09-26T09:13:13Z</time>
      </trkpt>
      <trkpt lat="43.94933" lon="1.81893">
        <ele>279</ele>
        <time>2021-09-26T09:13:14Z</time>
      </trkpt>
      <trkpt lat="43.9492" lon="1.81918">
        <ele>278.8</ele>
        <time>2021-09-26T09:13:21Z</time>
      </trkpt>
      <trkpt lat="43.94899" lon="1.81955">
        <ele>278.8</ele>
        <time>2021-09-26T09:13:31Z</time>
      </trkpt>
      <trkpt lat="43.94896" lon="1.81963">
        <ele>278.8</ele>
        <time>2021-09-26T09:13:33Z</time>
      </trkpt>
      <trkpt lat="43.94894" lon="1.81966">
        <ele>278.8</ele>
        <time>2021-09-26T09:13:34Z</time>
      </trkpt>
      <trkpt lat="43.94876" lon="1.82">
        <ele>278.4</ele>
        <time>2021-09-26T09:13:43Z</time>
      </trkpt>
      <trkpt lat="43.94855" lon="1.82037">
        <ele>278.2</ele>
        <time>2021-09-26T09:13:53Z</time>
      </trkpt>
      <trkpt lat="43.9485" lon="1.82044">
        <ele>278.2</ele>
        <time>2021-09-26T09:13:55Z</time>
      </trkpt>
      <trkpt lat="43.94845" lon="1.82054">
        <ele>278.2</ele>
        <time>2021-09-26T09:13:58Z</time>
      </trkpt>
      <trkpt lat="43.94843" lon="1.82058">
        <ele>278.2</ele>
        <time>2021-09-26T09:13:59Z</time>
      </trkpt>
      <trkpt lat="43.94841" lon="1.82061">
        <ele>278.2</ele>
        <time>2021-09-26T09:14:00Z</time>
      </trkpt>
      <trkpt lat="43.94839" lon="1.82063">
        <ele>278.2</ele>
        <time>2021-09-26T09:14:01Z</time>
      </trkpt>
      <trkpt lat="43.94838" lon="1.82066">
        <ele>278.2</ele>
        <time>2021-09-26T09:14:02Z</time>
      </trkpt>
      <trkpt lat="43.94836" lon="1.82069">
        <ele>278.2</ele>
        <time>2021-09-26T09:14:03Z</time>
      </trkpt>
      <trkpt lat="43.94835" lon="1.82072">
        <ele>278.2</ele>
        <time>2021-09-26T09:14:04Z</time>
      </trkpt>
      <trkpt lat="43.94835" lon="1.82076">
        <ele>278</ele>
        <time>2021-09-26T09:14:05Z</time>
      </trkpt>
      <trkpt lat="43.94835" lon="1.82079">
        <ele>278</ele>
        <time>2021-09-26T09:14:06Z</time>
      </trkpt>
      <trkpt lat="43.94837" lon="1.82082">
        <ele>278</ele>
        <time>2021-09-26T09:14:07Z</time>
      </trkpt>
      <trkpt lat="43.94839" lon="1.82085">
        <ele>278</ele>
        <time>2021-09-26T09:14:08Z</time>
      </trkpt>
      <trkpt lat="43.94845" lon="1.82089">
        <ele>277.8</ele>
        <time>2021-09-26T09:14:10Z</time>
      </trkpt>
      <trkpt lat="43.94849" lon="1.82092">
        <ele>277.8</ele>
        <time>2021-09-26T09:14:11Z</time>
      </trkpt>
      <trkpt lat="43.94856" lon="1.82097">
        <ele>277.8</ele>
        <time>2021-09-26T09:14:13Z</time>
      </trkpt>
      <trkpt lat="43.94869" lon="1.82108">
        <ele>277.4</ele>
        <time>2021-09-26T09:14:16Z</time>
      </trkpt>
      <trkpt lat="43.94873" lon="1.82111">
        <ele>277.2</ele>
        <time>2021-09-26T09:14:17Z</time>
      </trkpt>
      <trkpt lat="43.94899" lon="1.82131">
        <ele>276</ele>
        <time>2021-09-26T09:14:22Z</time>
      </trkpt>
      <trkpt lat="43.94917" lon="1.82145">
        <ele>275.2</ele>
        <time>2021-09-26T09:14:25Z</time>
      </trkpt>
      <trkpt lat="43.94922" lon="1.8215">
        <ele>274.8</ele>
        <time>2021-09-26T09:14:26Z</time>
      </trkpt>
      <trkpt lat="43.94927" lon="1.82154">
        <ele>274.6</ele>
        <time>2021-09-26T09:14:27Z</time>
      </trkpt>
      <trkpt lat="43.94931" lon="1.82159">
        <ele>274.4</ele>
        <time>2021-09-26T09:14:28Z</time>
      </trkpt>
      <trkpt lat="43.94935" lon="1.82163">
        <ele>274.2</ele>
        <time>2021-09-26T09:14:29Z</time>
      </trkpt>
      <trkpt lat="43.94939" lon="1.82167">
        <ele>274</ele>
        <time>2021-09-26T09:14:30Z</time>
      </trkpt>
      <trkpt lat="43.94941" lon="1.82171">
        <ele>273.8</ele>
        <time>2021-09-26T09:14:31Z</time>
      </trkpt>
      <trkpt lat="43.94944" lon="1.82175">
        <ele>273.8</ele>
        <time>2021-09-26T09:14:32Z</time>
      </trkpt>
      <trkpt lat="43.94948" lon="1.82178">
        <ele>273.8</ele>
        <time>2021-09-26T09:14:33Z</time>
      </trkpt>
      <trkpt lat="43.94951" lon="1.82182">
        <ele>273.6</ele>
        <time>2021-09-26T09:14:34Z</time>
      </trkpt>
      <trkpt lat="43.94955" lon="1.82185">
        <ele>273.8</ele>
        <time>2021-09-26T09:14:35Z</time>
      </trkpt>
      <trkpt lat="43.94958" lon="1.82187">
        <ele>273.8</ele>
        <time>2021-09-26T09:14:36Z</time>
      </trkpt>
      <trkpt lat="43.94961" lon="1.8219">
        <ele>273.8</ele>
        <time>2021-09-26T09:14:37Z</time>
      </trkpt>
      <trkpt lat="43.94965" lon="1.82192">
        <ele>273.8</ele>
        <time>2021-09-26T09:14:38Z</time>
      </trkpt>
      <trkpt lat="43.94968" lon="1.82194">
        <ele>274</ele>
        <time>2021-09-26T09:14:39Z</time>
      </trkpt>
      <trkpt lat="43.94972" lon="1.82197">
        <ele>274.2</ele>
        <time>2021-09-26T09:14:40Z</time>
      </trkpt>
      <trkpt lat="43.94974" lon="1.82199">
        <ele>274.2</ele>
        <time>2021-09-26T09:14:41Z</time>
      </trkpt>
      <trkpt lat="43.94977" lon="1.82201">
        <ele>274.4</ele>
        <time>2021-09-26T09:14:42Z</time>
      </trkpt>
      <trkpt lat="43.94981" lon="1.82203">
        <ele>274.6</ele>
        <time>2021-09-26T09:14:43Z</time>
      </trkpt>
      <trkpt lat="43.94984" lon="1.82205">
        <ele>274.8</ele>
        <time>2021-09-26T09:14:44Z</time>
      </trkpt>
      <trkpt lat="43.94987" lon="1.82207">
        <ele>274.8</ele>
        <time>2021-09-26T09:14:45Z</time>
      </trkpt>
      <trkpt lat="43.95003" lon="1.82212">
        <ele>275.2</ele>
        <time>2021-09-26T09:14:49Z</time>
      </trkpt>
      <trkpt lat="43.95028" lon="1.82213">
        <ele>275</ele>
        <time>2021-09-26T09:14:54Z</time>
      </trkpt>
      <trkpt lat="43.95039" lon="1.82212">
        <ele>275</ele>
        <time>2021-09-26T09:14:56Z</time>
      </trkpt>
      <trkpt lat="43.95044" lon="1.82213">
        <ele>274.8</ele>
        <time>2021-09-26T09:14:57Z</time>
      </trkpt>
      <trkpt lat="43.95049" lon="1.82214">
        <ele>274.8</ele>
        <time>2021-09-26T09:14:58Z</time>
      </trkpt>
      <trkpt lat="43.95054" lon="1.82216">
        <ele>274.6</ele>
        <time>2021-09-26T09:14:59Z</time>
      </trkpt>
      <trkpt lat="43.95063" lon="1.82219">
        <ele>274.6</ele>
        <time>2021-09-26T09:15:01Z</time>
      </trkpt>
      <trkpt lat="43.95067" lon="1.82222">
        <ele>274.4</ele>
        <time>2021-09-26T09:15:02Z</time>
      </trkpt>
      <trkpt lat="43.9507" lon="1.82224">
        <ele>274.2</ele>
        <time>2021-09-26T09:15:03Z</time>
      </trkpt>
      <trkpt lat="43.95074" lon="1.82227">
        <ele>274.2</ele>
        <time>2021-09-26T09:15:04Z</time>
      </trkpt>
      <trkpt lat="43.95076" lon="1.82232">
        <ele>274</ele>
        <time>2021-09-26T09:15:05Z</time>
      </trkpt>
      <trkpt lat="43.95078" lon="1.82237">
        <ele>274</ele>
        <time>2021-09-26T09:15:06Z</time>
      </trkpt>
      <trkpt lat="43.95079" lon="1.82242">
        <ele>274</ele>
        <time>2021-09-26T09:15:07Z</time>
      </trkpt>
      <trkpt lat="43.95081" lon="1.82248">
        <ele>274</ele>
        <time>2021-09-26T09:15:08Z</time>
      </trkpt>
      <trkpt lat="43.95083" lon="1.82254">
        <ele>274</ele>
        <time>2021-09-26T09:15:09Z</time>
      </trkpt>
      <trkpt lat="43.95088" lon="1.82265">
        <ele>274</ele>
        <time>2021-09-26T09:15:11Z</time>
      </trkpt>
      <trkpt lat="43.95095" lon="1.82278">
        <ele>273.6</ele>
        <time>2021-09-26T09:15:14Z</time>
      </trkpt>
      <trkpt lat="43.95108" lon="1.82294">
        <ele>273.8</ele>
        <time>2021-09-26T09:15:18Z</time>
      </trkpt>
      <trkpt lat="43.95111" lon="1.82299">
        <ele>273.8</ele>
        <time>2021-09-26T09:15:19Z</time>
      </trkpt>
      <trkpt lat="43.95121" lon="1.82315">
        <ele>273.6</ele>
        <time>2021-09-26T09:15:22Z</time>
      </trkpt>
      <trkpt lat="43.9513" lon="1.82325">
        <ele>273.2</ele>
        <time>2021-09-26T09:15:24Z</time>
      </trkpt>
      <trkpt lat="43.95142" lon="1.82334">
        <ele>272.4</ele>
        <time>2021-09-26T09:15:26Z</time>
      </trkpt>
      <trkpt lat="43.95149" lon="1.82336">
        <ele>272.2</ele>
        <time>2021-09-26T09:15:27Z</time>
      </trkpt>
      <trkpt lat="43.95161" lon="1.82342">
        <ele>271.6</ele>
        <time>2021-09-26T09:15:29Z</time>
      </trkpt>
      <trkpt lat="43.95166" lon="1.82348">
        <ele>270.8</ele>
        <time>2021-09-26T09:15:30Z</time>
      </trkpt>
      <trkpt lat="43.95168" lon="1.82355">
        <ele>270.4</ele>
        <time>2021-09-26T09:15:31Z</time>
      </trkpt>
      <trkpt lat="43.95171" lon="1.82363">
        <ele>269.8</ele>
        <time>2021-09-26T09:15:32Z</time>
      </trkpt>
      <trkpt lat="43.95173" lon="1.82371">
        <ele>269.2</ele>
        <time>2021-09-26T09:15:33Z</time>
      </trkpt>
      <trkpt lat="43.95176" lon="1.82379">
        <ele>268.8</ele>
        <time>2021-09-26T09:15:34Z</time>
      </trkpt>
      <trkpt lat="43.95179" lon="1.82386">
        <ele>268.2</ele>
        <time>2021-09-26T09:15:35Z</time>
      </trkpt>
      <trkpt lat="43.95183" lon="1.82391">
        <ele>268</ele>
        <time>2021-09-26T09:15:36Z</time>
      </trkpt>
      <trkpt lat="43.95186" lon="1.82397">
        <ele>267.6</ele>
        <time>2021-09-26T09:15:37Z</time>
      </trkpt>
      <trkpt lat="43.9519" lon="1.82403">
        <ele>267.4</ele>
        <time>2021-09-26T09:15:38Z</time>
      </trkpt>
      <trkpt lat="43.95193" lon="1.82408">
        <ele>267.2</ele>
        <time>2021-09-26T09:15:39Z</time>
      </trkpt>
      <trkpt lat="43.95195" lon="1.82412">
        <ele>267</ele>
        <time>2021-09-26T09:15:40Z</time>
      </trkpt>
      <trkpt lat="43.95196" lon="1.82415">
        <ele>266.8</ele>
        <time>2021-09-26T09:15:41Z</time>
      </trkpt>
      <trkpt lat="43.95196" lon="1.82419">
        <ele>266.6</ele>
        <time>2021-09-26T09:15:42Z</time>
      </trkpt>
      <trkpt lat="43.95195" lon="1.82423">
        <ele>266.4</ele>
        <time>2021-09-26T09:15:43Z</time>
      </trkpt>
      <trkpt lat="43.95194" lon="1.82427">
        <ele>266.4</ele>
        <time>2021-09-26T09:15:44Z</time>
      </trkpt>
      <trkpt lat="43.95193" lon="1.8243">
        <ele>266.4</ele>
        <time>2021-09-26T09:15:45Z</time>
      </trkpt>
      <trkpt lat="43.95191" lon="1.82433">
        <ele>266.4</ele>
        <time>2021-09-26T09:15:46Z</time>
      </trkpt>
      <trkpt lat="43.95188" lon="1.82435">
        <ele>266.4</ele>
        <time>2021-09-26T09:15:47Z</time>
      </trkpt>
      <trkpt lat="43.95186" lon="1.82437">
        <ele>266.4</ele>
        <time>2021-09-26T09:15:48Z</time>
      </trkpt>
      <trkpt lat="43.95184" lon="1.8244">
        <ele>266.6</ele>
        <time>2021-09-26T09:15:49Z</time>
      </trkpt>
      <trkpt lat="43.95182" lon="1.82442">
        <ele>266.6</ele>
        <time>2021-09-26T09:15:50Z</time>
      </trkpt>
      <trkpt lat="43.9518" lon="1.82444">
        <ele>266.6</ele>
        <time>2021-09-26T09:15:51Z</time>
      </trkpt>
      <trkpt lat="43.95177" lon="1.82446">
        <ele>266.6</ele>
        <time>2021-09-26T09:15:52Z</time>
      </trkpt>
      <trkpt lat="43.95173" lon="1.82451">
        <ele>266.8</ele>
        <time>2021-09-26T09:15:54Z</time>
      </trkpt>
      <trkpt lat="43.95172" lon="1.82454">
        <ele>267</ele>
        <time>2021-09-26T09:15:55Z</time>
      </trkpt>
      <trkpt lat="43.95171" lon="1.82457">
        <ele>267.2</ele>
        <time>2021-09-26T09:15:56Z</time>
      </trkpt>
      <trkpt lat="43.95169" lon="1.8246">
        <ele>267.4</ele>
        <time>2021-09-26T09:15:57Z</time>
      </trkpt>
      <trkpt lat="43.95161" lon="1.82476">
        <ele>268.2</ele>
        <time>2021-09-26T09:16:01Z</time>
      </trkpt>
      <trkpt lat="43.95159" lon="1.82488">
        <ele>269.2</ele>
        <time>2021-09-26T09:16:04Z</time>
      </trkpt>
      <trkpt lat="43.95158" lon="1.82492">
        <ele>269.4</ele>
        <time>2021-09-26T09:16:05Z</time>
      </trkpt>
      <trkpt lat="43.95155" lon="1.82506">
        <ele>270.6</ele>
        <time>2021-09-26T09:16:09Z</time>
      </trkpt>
      <trkpt lat="43.95154" lon="1.8251">
        <ele>270.8</ele>
        <time>2021-09-26T09:16:10Z</time>
      </trkpt>
      <trkpt lat="43.95153" lon="1.82512">
        <ele>271</ele>
        <time>2021-09-26T09:16:11Z</time>
      </trkpt>
      <trkpt lat="43.95152" lon="1.82515">
        <ele>271</ele>
        <time>2021-09-26T09:16:12Z</time>
      </trkpt>
      <trkpt lat="43.9515" lon="1.82518">
        <ele>271</ele>
        <time>2021-09-26T09:16:13Z</time>
      </trkpt>
      <trkpt lat="43.95148" lon="1.82521">
        <ele>271.2</ele>
        <time>2021-09-26T09:16:14Z</time>
      </trkpt>
      <trkpt lat="43.95146" lon="1.82523">
        <ele>271.2</ele>
        <time>2021-09-26T09:16:15Z</time>
      </trkpt>
      <trkpt lat="43.95144" lon="1.82526">
        <ele>271.4</ele>
        <time>2021-09-26T09:16:16Z</time>
      </trkpt>
      <trkpt lat="43.95141" lon="1.82529">
        <ele>271.4</ele>
        <time>2021-09-26T09:16:17Z</time>
      </trkpt>
      <trkpt lat="43.95139" lon="1.82532">
        <ele>271.6</ele>
        <time>2021-09-26T09:16:18Z</time>
      </trkpt>
      <trkpt lat="43.95136" lon="1.82535">
        <ele>271.8</ele>
        <time>2021-09-26T09:16:19Z</time>
      </trkpt>
      <trkpt lat="43.95134" lon="1.82538">
        <ele>272</ele>
        <time>2021-09-26T09:16:20Z</time>
      </trkpt>
      <trkpt lat="43.95132" lon="1.82541">
        <ele>272.4</ele>
        <time>2021-09-26T09:16:21Z</time>
      </trkpt>
      <trkpt lat="43.95129" lon="1.82544">
        <ele>272.6</ele>
        <time>2021-09-26T09:16:22Z</time>
      </trkpt>
      <trkpt lat="43.95128" lon="1.82546">
        <ele>272.8</ele>
        <time>2021-09-26T09:16:23Z</time>
      </trkpt>
      <trkpt lat="43.95126" lon="1.82549">
        <ele>272.8</ele>
        <time>2021-09-26T09:16:24Z</time>
      </trkpt>
      <trkpt lat="43.95125" lon="1.82552">
        <ele>273</ele>
        <time>2021-09-26T09:16:25Z</time>
      </trkpt>
      <trkpt lat="43.95126" lon="1.82556">
        <ele>273.2</ele>
        <time>2021-09-26T09:16:26Z</time>
      </trkpt>
      <trkpt lat="43.95126" lon="1.82561">
        <ele>273.4</ele>
        <time>2021-09-26T09:16:27Z</time>
      </trkpt>
      <trkpt lat="43.95127" lon="1.82565">
        <ele>273.6</ele>
        <time>2021-09-26T09:16:28Z</time>
      </trkpt>
      <trkpt lat="43.95127" lon="1.82569">
        <ele>273.6</ele>
        <time>2021-09-26T09:16:29Z</time>
      </trkpt>
      <trkpt lat="43.95128" lon="1.82572">
        <ele>274</ele>
        <time>2021-09-26T09:16:30Z</time>
      </trkpt>
      <trkpt lat="43.95129" lon="1.82575">
        <ele>274.2</ele>
        <time>2021-09-26T09:16:31Z</time>
      </trkpt>
      <trkpt lat="43.9513" lon="1.82578">
        <ele>274.4</ele>
        <time>2021-09-26T09:16:32Z</time>
      </trkpt>
      <trkpt lat="43.9513" lon="1.82581">
        <ele>274.6</ele>
        <time>2021-09-26T09:16:33Z</time>
      </trkpt>
      <trkpt lat="43.9513" lon="1.82585">
        <ele>274.8</ele>
        <time>2021-09-26T09:16:34Z</time>
      </trkpt>
      <trkpt lat="43.95131" lon="1.82589">
        <ele>275</ele>
        <time>2021-09-26T09:16:35Z</time>
      </trkpt>
      <trkpt lat="43.95132" lon="1.82593">
        <ele>275.2</ele>
        <time>2021-09-26T09:16:36Z</time>
      </trkpt>
      <trkpt lat="43.95132" lon="1.82596">
        <ele>275.4</ele>
        <time>2021-09-26T09:16:37Z</time>
      </trkpt>
      <trkpt lat="43.95133" lon="1.826">
        <ele>275.4</ele>
        <time>2021-09-26T09:16:38Z</time>
      </trkpt>
      <trkpt lat="43.95134" lon="1.82603">
        <ele>275.8</ele>
        <time>2021-09-26T09:16:39Z</time>
      </trkpt>
      <trkpt lat="43.95135" lon="1.82606">
        <ele>275.8</ele>
        <time>2021-09-26T09:16:40Z</time>
      </trkpt>
      <trkpt lat="43.95136" lon="1.82608">
        <ele>276</ele>
        <time>2021-09-26T09:16:41Z</time>
      </trkpt>
      <trkpt lat="43.95136" lon="1.82611">
        <ele>276.2</ele>
        <time>2021-09-26T09:16:42Z</time>
      </trkpt>
      <trkpt lat="43.95136" lon="1.82615">
        <ele>276.2</ele>
        <time>2021-09-26T09:16:43Z</time>
      </trkpt>
      <trkpt lat="43.95136" lon="1.82618">
        <ele>276.4</ele>
        <time>2021-09-26T09:16:44Z</time>
      </trkpt>
      <trkpt lat="43.95136" lon="1.82622">
        <ele>276.4</ele>
        <time>2021-09-26T09:16:45Z</time>
      </trkpt>
      <trkpt lat="43.95136" lon="1.82626">
        <ele>276.4</ele>
        <time>2021-09-26T09:16:46Z</time>
      </trkpt>
      <trkpt lat="43.95136" lon="1.82629">
        <ele>276.4</ele>
        <time>2021-09-26T09:16:47Z</time>
      </trkpt>
      <trkpt lat="43.95136" lon="1.82632">
        <ele>276.6</ele>
        <time>2021-09-26T09:16:48Z</time>
      </trkpt>
      <trkpt lat="43.95136" lon="1.82635">
        <ele>276.8</ele>
        <time>2021-09-26T09:16:49Z</time>
      </trkpt>
      <trkpt lat="43.95136" lon="1.82638">
        <ele>276.8</ele>
        <time>2021-09-26T09:16:50Z</time>
      </trkpt>
      <trkpt lat="43.95136" lon="1.82642">
        <ele>276.8</ele>
        <time>2021-09-26T09:16:51Z</time>
      </trkpt>
      <trkpt lat="43.95136" lon="1.82646">
        <ele>276.8</ele>
        <time>2021-09-26T09:16:52Z</time>
      </trkpt>
      <trkpt lat="43.95136" lon="1.82649">
        <ele>277</ele>
        <time>2021-09-26T09:16:53Z</time>
      </trkpt>
      <trkpt lat="43.95137" lon="1.82653">
        <ele>277</ele>
        <time>2021-09-26T09:16:54Z</time>
      </trkpt>
      <trkpt lat="43.95137" lon="1.82656">
        <ele>277</ele>
        <time>2021-09-26T09:16:55Z</time>
      </trkpt>
      <trkpt lat="43.95138" lon="1.8266">
        <ele>277.2</ele>
        <time>2021-09-26T09:16:56Z</time>
      </trkpt>
      <trkpt lat="43.95138" lon="1.82664">
        <ele>277.2</ele>
        <time>2021-09-26T09:16:57Z</time>
      </trkpt>
      <trkpt lat="43.95138" lon="1.82668">
        <ele>277.4</ele>
        <time>2021-09-26T09:16:58Z</time>
      </trkpt>
      <trkpt lat="43.95138" lon="1.82672">
        <ele>277.4</ele>
        <time>2021-09-26T09:16:59Z</time>
      </trkpt>
      <trkpt lat="43.95139" lon="1.82675">
        <ele>277.4</ele>
        <time>2021-09-26T09:17:00Z</time>
      </trkpt>
      <trkpt lat="43.95139" lon="1.82679">
        <ele>277.4</ele>
        <time>2021-09-26T09:17:01Z</time>
      </trkpt>
      <trkpt lat="43.95139" lon="1.82683">
        <ele>277.6</ele>
        <time>2021-09-26T09:17:02Z</time>
      </trkpt>
      <trkpt lat="43.95139" lon="1.82686">
        <ele>277.6</ele>
        <time>2021-09-26T09:17:03Z</time>
      </trkpt>
      <trkpt lat="43.9514" lon="1.8269">
        <ele>277.8</ele>
        <time>2021-09-26T09:17:04Z</time>
      </trkpt>
      <trkpt lat="43.9514" lon="1.82694">
        <ele>277.8</ele>
        <time>2021-09-26T09:17:05Z</time>
      </trkpt>
      <trkpt lat="43.95141" lon="1.82697">
        <ele>277.8</ele>
        <time>2021-09-26T09:17:06Z</time>
      </trkpt>
      <trkpt lat="43.95141" lon="1.82715">
        <ele>278.2</ele>
        <time>2021-09-26T09:17:11Z</time>
      </trkpt>
      <trkpt lat="43.95141" lon="1.82749">
        <ele>278.6</ele>
        <time>2021-09-26T09:17:19Z</time>
      </trkpt>
      <trkpt lat="43.95142" lon="1.8277">
        <ele>278.6</ele>
        <time>2021-09-26T09:17:23Z</time>
      </trkpt>
      <trkpt lat="43.95141" lon="1.82775">
        <ele>278.6</ele>
        <time>2021-09-26T09:17:24Z</time>
      </trkpt>
      <trkpt lat="43.95139" lon="1.82778">
        <ele>278.4</ele>
        <time>2021-09-26T09:17:25Z</time>
      </trkpt>
      <trkpt lat="43.95137" lon="1.82779">
        <ele>278.4</ele>
        <time>2021-09-26T09:17:26Z</time>
      </trkpt>
      <trkpt lat="43.95135" lon="1.8278">
        <ele>278.4</ele>
        <time>2021-09-26T09:17:27Z</time>
      </trkpt>
      <trkpt lat="43.95133" lon="1.82782">
        <ele>278.2</ele>
        <time>2021-09-26T09:17:28Z</time>
      </trkpt>
      <trkpt lat="43.95132" lon="1.82784">
        <ele>278.2</ele>
        <time>2021-09-26T09:17:29Z</time>
      </trkpt>
      <trkpt lat="43.95131" lon="1.82786">
        <ele>277.8</ele>
        <time>2021-09-26T09:17:30Z</time>
      </trkpt>
      <trkpt lat="43.9513" lon="1.82789">
        <ele>277.6</ele>
        <time>2021-09-26T09:17:31Z</time>
      </trkpt>
      <trkpt lat="43.95129" lon="1.82792">
        <ele>277.4</ele>
        <time>2021-09-26T09:17:32Z</time>
      </trkpt>
      <trkpt lat="43.95128" lon="1.82796">
        <ele>277.4</ele>
        <time>2021-09-26T09:17:33Z</time>
      </trkpt>
      <trkpt lat="43.9512" lon="1.82815">
        <ele>277.6</ele>
        <time>2021-09-26T09:17:38Z</time>
      </trkpt>
      <trkpt lat="43.95119" lon="1.82837">
        <ele>278.2</ele>
        <time>2021-09-26T09:17:44Z</time>
      </trkpt>
      <trkpt lat="43.9512" lon="1.82841">
        <ele>278.2</ele>
        <time>2021-09-26T09:17:45Z</time>
      </trkpt>
      <trkpt lat="43.95122" lon="1.82844">
        <ele>278.2</ele>
        <time>2021-09-26T09:17:46Z</time>
      </trkpt>
      <trkpt lat="43.95124" lon="1.82847">
        <ele>278.2</ele>
        <time>2021-09-26T09:17:47Z</time>
      </trkpt>
      <trkpt lat="43.95126" lon="1.8285">
        <ele>278.4</ele>
        <time>2021-09-26T09:17:48Z</time>
      </trkpt>
      <trkpt lat="43.95128" lon="1.82852">
        <ele>278.6</ele>
        <time>2021-09-26T09:17:49Z</time>
      </trkpt>
      <trkpt lat="43.9513" lon="1.82855">
        <ele>278.8</ele>
        <time>2021-09-26T09:17:50Z</time>
      </trkpt>
      <trkpt lat="43.95137" lon="1.82867">
        <ele>280</ele>
        <time>2021-09-26T09:17:54Z</time>
      </trkpt>
      <trkpt lat="43.95145" lon="1.82881">
        <ele>281.2</ele>
        <time>2021-09-26T09:17:59Z</time>
      </trkpt>
      <trkpt lat="43.95147" lon="1.82884">
        <ele>281.8</ele>
        <time>2021-09-26T09:18:00Z</time>
      </trkpt>
      <trkpt lat="43.95149" lon="1.82886">
        <ele>282</ele>
        <time>2021-09-26T09:18:01Z</time>
      </trkpt>
      <trkpt lat="43.95151" lon="1.82889">
        <ele>282.2</ele>
        <time>2021-09-26T09:18:02Z</time>
      </trkpt>
      <trkpt lat="43.95152" lon="1.82891">
        <ele>282.4</ele>
        <time>2021-09-26T09:18:03Z</time>
      </trkpt>
      <trkpt lat="43.95154" lon="1.82894">
        <ele>282.4</ele>
        <time>2021-09-26T09:18:04Z</time>
      </trkpt>
      <trkpt lat="43.95156" lon="1.82896">
        <ele>282.6</ele>
        <time>2021-09-26T09:18:05Z</time>
      </trkpt>
      <trkpt lat="43.95158" lon="1.82899">
        <ele>282.6</ele>
        <time>2021-09-26T09:18:06Z</time>
      </trkpt>
      <trkpt lat="43.9516" lon="1.82902">
        <ele>282.8</ele>
        <time>2021-09-26T09:18:07Z</time>
      </trkpt>
      <trkpt lat="43.95161" lon="1.82905">
        <ele>282.8</ele>
        <time>2021-09-26T09:18:08Z</time>
      </trkpt>
      <trkpt lat="43.95163" lon="1.82907">
        <ele>283.2</ele>
        <time>2021-09-26T09:18:09Z</time>
      </trkpt>
      <trkpt lat="43.95165" lon="1.82909">
        <ele>283.4</ele>
        <time>2021-09-26T09:18:10Z</time>
      </trkpt>
      <trkpt lat="43.95168" lon="1.8291">
        <ele>283.8</ele>
        <time>2021-09-26T09:18:11Z</time>
      </trkpt>
      <trkpt lat="43.9517" lon="1.82912">
        <ele>284</ele>
        <time>2021-09-26T09:18:12Z</time>
      </trkpt>
      <trkpt lat="43.95172" lon="1.82913">
        <ele>284.4</ele>
        <time>2021-09-26T09:18:13Z</time>
      </trkpt>
      <trkpt lat="43.95175" lon="1.82916">
        <ele>284.4</ele>
        <time>2021-09-26T09:18:14Z</time>
      </trkpt>
      <trkpt lat="43.95177" lon="1.82918">
        <ele>284.6</ele>
        <time>2021-09-26T09:18:15Z</time>
      </trkpt>
      <trkpt lat="43.95179" lon="1.8292">
        <ele>284.6</ele>
        <time>2021-09-26T09:18:16Z</time>
      </trkpt>
      <trkpt lat="43.95182" lon="1.82923">
        <ele>284.6</ele>
        <time>2021-09-26T09:18:17Z</time>
      </trkpt>
      <trkpt lat="43.95184" lon="1.82925">
        <ele>284.6</ele>
        <time>2021-09-26T09:18:18Z</time>
      </trkpt>
      <trkpt lat="43.95186" lon="1.82927">
        <ele>284.8</ele>
        <time>2021-09-26T09:18:19Z</time>
      </trkpt>
      <trkpt lat="43.95189" lon="1.8293">
        <ele>284.8</ele>
        <time>2021-09-26T09:18:20Z</time>
      </trkpt>
      <trkpt lat="43.95191" lon="1.82932">
        <ele>285</ele>
        <time>2021-09-26T09:18:21Z</time>
      </trkpt>
      <trkpt lat="43.95194" lon="1.82934">
        <ele>285</ele>
        <time>2021-09-26T09:18:22Z</time>
      </trkpt>
      <trkpt lat="43.95196" lon="1.82937">
        <ele>285.2</ele>
        <time>2021-09-26T09:18:23Z</time>
      </trkpt>
      <trkpt lat="43.95198" lon="1.8294">
        <ele>285.2</ele>
        <time>2021-09-26T09:18:24Z</time>
      </trkpt>
      <trkpt lat="43.952" lon="1.82943">
        <ele>285.4</ele>
        <time>2021-09-26T09:18:25Z</time>
      </trkpt>
      <trkpt lat="43.95203" lon="1.82945">
        <ele>285.4</ele>
        <time>2021-09-26T09:18:26Z</time>
      </trkpt>
      <trkpt lat="43.95205" lon="1.82946">
        <ele>285.4</ele>
        <time>2021-09-26T09:18:27Z</time>
      </trkpt>
      <trkpt lat="43.95208" lon="1.82947">
        <ele>285.6</ele>
        <time>2021-09-26T09:18:28Z</time>
      </trkpt>
      <trkpt lat="43.9521" lon="1.82948">
        <ele>285.6</ele>
        <time>2021-09-26T09:18:29Z</time>
      </trkpt>
      <trkpt lat="43.95211" lon="1.8295">
        <ele>285.6</ele>
        <time>2021-09-26T09:18:30Z</time>
      </trkpt>
      <trkpt lat="43.95211" lon="1.82953">
        <ele>285.4</ele>
        <time>2021-09-26T09:18:31Z</time>
      </trkpt>
      <trkpt lat="43.9521" lon="1.82956">
        <ele>285.4</ele>
        <time>2021-09-26T09:18:32Z</time>
      </trkpt>
      <trkpt lat="43.95208" lon="1.82959">
        <ele>285.4</ele>
        <time>2021-09-26T09:18:33Z</time>
      </trkpt>
      <trkpt lat="43.95205" lon="1.8296">
        <ele>285.4</ele>
        <time>2021-09-26T09:18:34Z</time>
      </trkpt>
      <trkpt lat="43.95202" lon="1.82961">
        <ele>285.4</ele>
        <time>2021-09-26T09:18:35Z</time>
      </trkpt>
      <trkpt lat="43.952" lon="1.82962">
        <ele>285.4</ele>
        <time>2021-09-26T09:18:36Z</time>
      </trkpt>
      <trkpt lat="43.95197" lon="1.82964">
        <ele>285.2</ele>
        <time>2021-09-26T09:18:37Z</time>
      </trkpt>
      <trkpt lat="43.95175" lon="1.82981">
        <ele>284.8</ele>
        <time>2021-09-26T09:18:44Z</time>
      </trkpt>
      <trkpt lat="43.95151" lon="1.83002">
        <ele>284.4</ele>
        <time>2021-09-26T09:18:51Z</time>
      </trkpt>
      <trkpt lat="43.95147" lon="1.83005">
        <ele>284.4</ele>
        <time>2021-09-26T09:18:52Z</time>
      </trkpt>
      <trkpt lat="43.95135" lon="1.83016">
        <ele>284.2</ele>
        <time>2021-09-26T09:18:56Z</time>
      </trkpt>
      <trkpt lat="43.95132" lon="1.83018">
        <ele>284.2</ele>
        <time>2021-09-26T09:18:57Z</time>
      </trkpt>
      <trkpt lat="43.95129" lon="1.83021">
        <ele>284.2</ele>
        <time>2021-09-26T09:18:58Z</time>
      </trkpt>
      <trkpt lat="43.95127" lon="1.83024">
        <ele>284.2</ele>
        <time>2021-09-26T09:18:59Z</time>
      </trkpt>
      <trkpt lat="43.95123" lon="1.83027">
        <ele>284.2</ele>
        <time>2021-09-26T09:19:00Z</time>
      </trkpt>
      <trkpt lat="43.95085" lon="1.83065">
        <ele>284</ele>
        <time>2021-09-26T09:19:12Z</time>
      </trkpt>
      <trkpt lat="43.95053" lon="1.83096">
        <ele>284.2</ele>
        <time>2021-09-26T09:19:22Z</time>
      </trkpt>
      <trkpt lat="43.95047" lon="1.83103">
        <ele>284.2</ele>
        <time>2021-09-26T09:19:24Z</time>
      </trkpt>
      <trkpt lat="43.95043" lon="1.83106">
        <ele>284.2</ele>
        <time>2021-09-26T09:19:25Z</time>
      </trkpt>
      <trkpt lat="43.95041" lon="1.83108">
        <ele>284.2</ele>
        <time>2021-09-26T09:19:26Z</time>
      </trkpt>
      <trkpt lat="43.95038" lon="1.83111">
        <ele>284.2</ele>
        <time>2021-09-26T09:19:27Z</time>
      </trkpt>
      <trkpt lat="43.95034" lon="1.83115">
        <ele>284.2</ele>
        <time>2021-09-26T09:19:28Z</time>
      </trkpt>
      <trkpt lat="43.95031" lon="1.83118">
        <ele>284.2</ele>
        <time>2021-09-26T09:19:29Z</time>
      </trkpt>
      <trkpt lat="43.95029" lon="1.83121">
        <ele>284.2</ele>
        <time>2021-09-26T09:19:30Z</time>
      </trkpt>
      <trkpt lat="43.95027" lon="1.83123">
        <ele>284.2</ele>
        <time>2021-09-26T09:19:31Z</time>
      </trkpt>
      <trkpt lat="43.95024" lon="1.83126">
        <ele>284.2</ele>
        <time>2021-09-26T09:19:32Z</time>
      </trkpt>
      <trkpt lat="43.9502" lon="1.83129">
        <ele>284.2</ele>
        <time>2021-09-26T09:19:33Z</time>
      </trkpt>
      <trkpt lat="43.95017" lon="1.83132">
        <ele>284.2</ele>
        <time>2021-09-26T09:19:34Z</time>
      </trkpt>
      <trkpt lat="43.95014" lon="1.83135">
        <ele>284.2</ele>
        <time>2021-09-26T09:19:35Z</time>
      </trkpt>
      <trkpt lat="43.94994" lon="1.83155">
        <ele>283.6</ele>
        <time>2021-09-26T09:19:41Z</time>
      </trkpt>
      <trkpt lat="43.9499" lon="1.83159">
        <ele>283.6</ele>
        <time>2021-09-26T09:19:42Z</time>
      </trkpt>
      <trkpt lat="43.94986" lon="1.83162">
        <ele>283.4</ele>
        <time>2021-09-26T09:19:43Z</time>
      </trkpt>
      <trkpt lat="43.94982" lon="1.83165">
        <ele>283.4</ele>
        <time>2021-09-26T09:19:44Z</time>
      </trkpt>
      <trkpt lat="43.94971" lon="1.83177">
        <ele>283</ele>
        <time>2021-09-26T09:19:47Z</time>
      </trkpt>
      <trkpt lat="43.94967" lon="1.83182">
        <ele>282.4</ele>
        <time>2021-09-26T09:19:48Z</time>
      </trkpt>
      <trkpt lat="43.94953" lon="1.83195">
        <ele>281.4</ele>
        <time>2021-09-26T09:19:51Z</time>
      </trkpt>
      <trkpt lat="43.94946" lon="1.83202">
        <ele>280.8</ele>
        <time>2021-09-26T09:19:53Z</time>
      </trkpt>
      <trkpt lat="43.94943" lon="1.83203">
        <ele>280.6</ele>
        <time>2021-09-26T09:19:54Z</time>
      </trkpt>
      <trkpt lat="43.94939" lon="1.83205">
        <ele>280</ele>
        <time>2021-09-26T09:19:55Z</time>
      </trkpt>
      <trkpt lat="43.94935" lon="1.83206">
        <ele>279.6</ele>
        <time>2021-09-26T09:19:56Z</time>
      </trkpt>
      <trkpt lat="43.94931" lon="1.83208">
        <ele>279.2</ele>
        <time>2021-09-26T09:19:57Z</time>
      </trkpt>
      <trkpt lat="43.94927" lon="1.83209">
        <ele>278.6</ele>
        <time>2021-09-26T09:19:58Z</time>
      </trkpt>
      <trkpt lat="43.94923" lon="1.8321">
        <ele>277.8</ele>
        <time>2021-09-26T09:19:59Z</time>
      </trkpt>
      <trkpt lat="43.94917" lon="1.8321">
        <ele>277</ele>
        <time>2021-09-26T09:20:00Z</time>
      </trkpt>
      <trkpt lat="43.94904" lon="1.83212">
        <ele>275.6</ele>
        <time>2021-09-26T09:20:02Z</time>
      </trkpt>
      <trkpt lat="43.94899" lon="1.83214">
        <ele>275.2</ele>
        <time>2021-09-26T09:20:03Z</time>
      </trkpt>
      <trkpt lat="43.94894" lon="1.83218">
        <ele>274.8</ele>
        <time>2021-09-26T09:20:04Z</time>
      </trkpt>
      <trkpt lat="43.94889" lon="1.83222">
        <ele>273.8</ele>
        <time>2021-09-26T09:20:05Z</time>
      </trkpt>
      <trkpt lat="43.94885" lon="1.83228">
        <ele>271.6</ele>
        <time>2021-09-26T09:20:06Z</time>
      </trkpt>
      <trkpt lat="43.9488" lon="1.83234">
        <ele>269.6</ele>
        <time>2021-09-26T09:20:07Z</time>
      </trkpt>
      <trkpt lat="43.94872" lon="1.83246">
        <ele>267.6</ele>
        <time>2021-09-26T09:20:09Z</time>
      </trkpt>
      <trkpt lat="43.94864" lon="1.83258">
        <ele>265.8</ele>
        <time>2021-09-26T09:20:11Z</time>
      </trkpt>
      <trkpt lat="43.94852" lon="1.83276">
        <ele>264.6</ele>
        <time>2021-09-26T09:20:14Z</time>
      </trkpt>
      <trkpt lat="43.9484" lon="1.83295">
        <ele>263</ele>
        <time>2021-09-26T09:20:17Z</time>
      </trkpt>
      <trkpt lat="43.94836" lon="1.83301">
        <ele>261.8</ele>
        <time>2021-09-26T09:20:18Z</time>
      </trkpt>
      <trkpt lat="43.94828" lon="1.83314">
        <ele>261</ele>
        <time>2021-09-26T09:20:20Z</time>
      </trkpt>
      <trkpt lat="43.94824" lon="1.83321">
        <ele>260.6</ele>
        <time>2021-09-26T09:20:21Z</time>
      </trkpt>
      <trkpt lat="43.94811" lon="1.8334">
        <ele>259.4</ele>
        <time>2021-09-26T09:20:24Z</time>
      </trkpt>
      <trkpt lat="43.94803" lon="1.83352">
        <ele>258.2</ele>
        <time>2021-09-26T09:20:26Z</time>
      </trkpt>
      <trkpt lat="43.94795" lon="1.83364">
        <ele>257.2</ele>
        <time>2021-09-26T09:20:28Z</time>
      </trkpt>
      <trkpt lat="43.94791" lon="1.83369">
        <ele>256.8</ele>
        <time>2021-09-26T09:20:29Z</time>
      </trkpt>
      <trkpt lat="43.94781" lon="1.8338">
        <ele>255.6</ele>
        <time>2021-09-26T09:20:31Z</time>
      </trkpt>
      <trkpt lat="43.94765" lon="1.83392">
        <ele>254.6</ele>
        <time>2021-09-26T09:20:34Z</time>
      </trkpt>
      <trkpt lat="43.9476" lon="1.83396">
        <ele>254.6</ele>
        <time>2021-09-26T09:20:35Z</time>
      </trkpt>
      <trkpt lat="43.94756" lon="1.83399">
        <ele>254.6</ele>
        <time>2021-09-26T09:20:36Z</time>
      </trkpt>
      <trkpt lat="43.9474" lon="1.83409">
        <ele>253</ele>
        <time>2021-09-26T09:20:39Z</time>
      </trkpt>
      <trkpt lat="43.94735" lon="1.83412">
        <ele>252.6</ele>
        <time>2021-09-26T09:20:40Z</time>
      </trkpt>
      <trkpt lat="43.94719" lon="1.83422">
        <ele>251.8</ele>
        <time>2021-09-26T09:20:43Z</time>
      </trkpt>
      <trkpt lat="43.94692" lon="1.83438">
        <ele>250.6</ele>
        <time>2021-09-26T09:20:48Z</time>
      </trkpt>
      <trkpt lat="43.94675" lon="1.83447">
        <ele>250.2</ele>
        <time>2021-09-26T09:20:51Z</time>
      </trkpt>
      <trkpt lat="43.94663" lon="1.8345">
        <ele>249.2</ele>
        <time>2021-09-26T09:20:53Z</time>
      </trkpt>
      <trkpt lat="43.94647" lon="1.83454">
        <ele>248</ele>
        <time>2021-09-26T09:20:56Z</time>
      </trkpt>
      <trkpt lat="43.94637" lon="1.83458">
        <ele>247.2</ele>
        <time>2021-09-26T09:20:58Z</time>
      </trkpt>
      <trkpt lat="43.94632" lon="1.8346">
        <ele>246.4</ele>
        <time>2021-09-26T09:20:59Z</time>
      </trkpt>
      <trkpt lat="43.94627" lon="1.83464">
        <ele>246.2</ele>
        <time>2021-09-26T09:21:00Z</time>
      </trkpt>
      <trkpt lat="43.94623" lon="1.83467">
        <ele>245.6</ele>
        <time>2021-09-26T09:21:01Z</time>
      </trkpt>
      <trkpt lat="43.94618" lon="1.83471">
        <ele>245</ele>
        <time>2021-09-26T09:21:02Z</time>
      </trkpt>
      <trkpt lat="43.94614" lon="1.83474">
        <ele>244.8</ele>
        <time>2021-09-26T09:21:03Z</time>
      </trkpt>
      <trkpt lat="43.9461" lon="1.83478">
        <ele>244.4</ele>
        <time>2021-09-26T09:21:04Z</time>
      </trkpt>
      <trkpt lat="43.94607" lon="1.83482">
        <ele>244.4</ele>
        <time>2021-09-26T09:21:05Z</time>
      </trkpt>
      <trkpt lat="43.94603" lon="1.83486">
        <ele>244.2</ele>
        <time>2021-09-26T09:21:06Z</time>
      </trkpt>
      <trkpt lat="43.94598" lon="1.8349">
        <ele>243.8</ele>
        <time>2021-09-26T09:21:07Z</time>
      </trkpt>
      <trkpt lat="43.94582" lon="1.83506">
        <ele>242.6</ele>
        <time>2021-09-26T09:21:11Z</time>
      </trkpt>
      <trkpt lat="43.94569" lon="1.83518">
        <ele>242</ele>
        <time>2021-09-26T09:21:14Z</time>
      </trkpt>
      <trkpt lat="43.94562" lon="1.83525">
        <ele>241</ele>
        <time>2021-09-26T09:21:16Z</time>
      </trkpt>
      <trkpt lat="43.94558" lon="1.83529">
        <ele>241</ele>
        <time>2021-09-26T09:21:17Z</time>
      </trkpt>
      <trkpt lat="43.94555" lon="1.83532">
        <ele>240.2</ele>
        <time>2021-09-26T09:21:18Z</time>
      </trkpt>
      <trkpt lat="43.94551" lon="1.83535">
        <ele>239.8</ele>
        <time>2021-09-26T09:21:19Z</time>
      </trkpt>
      <trkpt lat="43.94547" lon="1.83538">
        <ele>239.4</ele>
        <time>2021-09-26T09:21:20Z</time>
      </trkpt>
      <trkpt lat="43.94544" lon="1.83541">
        <ele>239.4</ele>
        <time>2021-09-26T09:21:21Z</time>
      </trkpt>
      <trkpt lat="43.9454" lon="1.83544">
        <ele>239</ele>
        <time>2021-09-26T09:21:22Z</time>
      </trkpt>
      <trkpt lat="43.94536" lon="1.83548">
        <ele>238.8</ele>
        <time>2021-09-26T09:21:23Z</time>
      </trkpt>
      <trkpt lat="43.94533" lon="1.8355">
        <ele>238.6</ele>
        <time>2021-09-26T09:21:24Z</time>
      </trkpt>
      <trkpt lat="43.9453" lon="1.83553">
        <ele>238.4</ele>
        <time>2021-09-26T09:21:25Z</time>
      </trkpt>
      <trkpt lat="43.94527" lon="1.83556">
        <ele>238</ele>
        <time>2021-09-26T09:21:26Z</time>
      </trkpt>
      <trkpt lat="43.94524" lon="1.83558">
        <ele>237.8</ele>
        <time>2021-09-26T09:21:27Z</time>
      </trkpt>
      <trkpt lat="43.94522" lon="1.8356">
        <ele>237.6</ele>
        <time>2021-09-26T09:21:28Z</time>
      </trkpt>
      <trkpt lat="43.94521" lon="1.83562">
        <ele>237.6</ele>
        <time>2021-09-26T09:21:29Z</time>
      </trkpt>
      <trkpt lat="43.94519" lon="1.83565">
        <ele>237.6</ele>
        <time>2021-09-26T09:21:30Z</time>
      </trkpt>
      <trkpt lat="43.94517" lon="1.83567">
        <ele>237.4</ele>
        <time>2021-09-26T09:21:31Z</time>
      </trkpt>
      <trkpt lat="43.94504" lon="1.8358">
        <ele>237.2</ele>
        <time>2021-09-26T09:21:37Z</time>
      </trkpt>
      <trkpt lat="43.94484" lon="1.83604">
        <ele>236.2</ele>
        <time>2021-09-26T09:21:46Z</time>
      </trkpt>
      <trkpt lat="43.94477" lon="1.83612">
        <ele>236</ele>
        <time>2021-09-26T09:21:49Z</time>
      </trkpt>
      <trkpt lat="43.94465" lon="1.83622">
        <ele>235.2</ele>
        <time>2021-09-26T09:21:54Z</time>
      </trkpt>
      <trkpt lat="43.9446" lon="1.83625">
        <ele>235</ele>
        <time>2021-09-26T09:21:56Z</time>
      </trkpt>
      <trkpt lat="43.94457" lon="1.83627">
        <ele>234.8</ele>
        <time>2021-09-26T09:21:57Z</time>
      </trkpt>
      <trkpt lat="43.94448" lon="1.83632">
        <ele>234.4</ele>
        <time>2021-09-26T09:22:00Z</time>
      </trkpt>
      <trkpt lat="43.94446" lon="1.83633">
        <ele>234.2</ele>
        <time>2021-09-26T09:22:01Z</time>
      </trkpt>
      <trkpt lat="43.94443" lon="1.83634">
        <ele>234</ele>
        <time>2021-09-26T09:22:02Z</time>
      </trkpt>
      <trkpt lat="43.94441" lon="1.83635">
        <ele>233.8</ele>
        <time>2021-09-26T09:22:03Z</time>
      </trkpt>
      <trkpt lat="43.94439" lon="1.83637">
        <ele>233.8</ele>
        <time>2021-09-26T09:22:04Z</time>
      </trkpt>
      <trkpt lat="43.94437" lon="1.83638">
        <ele>233.8</ele>
        <time>2021-09-26T09:22:05Z</time>
      </trkpt>
      <trkpt lat="43.94435" lon="1.83641">
        <ele>233.6</ele>
        <time>2021-09-26T09:22:06Z</time>
      </trkpt>
      <trkpt lat="43.94434" lon="1.83644">
        <ele>233.6</ele>
        <time>2021-09-26T09:22:07Z</time>
      </trkpt>
      <trkpt lat="43.94434" lon="1.83647">
        <ele>233.2</ele>
        <time>2021-09-26T09:22:08Z</time>
      </trkpt>
      <trkpt lat="43.94435" lon="1.8365">
        <ele>233</ele>
        <time>2021-09-26T09:22:09Z</time>
      </trkpt>
      <trkpt lat="43.94436" lon="1.83652">
        <ele>232.8</ele>
        <time>2021-09-26T09:22:10Z</time>
      </trkpt>
      <trkpt lat="43.94438" lon="1.83656">
        <ele>232.6</ele>
        <time>2021-09-26T09:22:11Z</time>
      </trkpt>
      <trkpt lat="43.94439" lon="1.83658">
        <ele>232.6</ele>
        <time>2021-09-26T09:22:12Z</time>
      </trkpt>
      <trkpt lat="43.9444" lon="1.83661">
        <ele>232.6</ele>
        <time>2021-09-26T09:22:13Z</time>
      </trkpt>
      <trkpt lat="43.94441" lon="1.83663">
        <ele>232.6</ele>
        <time>2021-09-26T09:22:14Z</time>
      </trkpt>
      <trkpt lat="43.94442" lon="1.83665">
        <ele>232.4</ele>
        <time>2021-09-26T09:22:15Z</time>
      </trkpt>
      <trkpt lat="43.94443" lon="1.83667">
        <ele>232.4</ele>
        <time>2021-09-26T09:22:16Z</time>
      </trkpt>
      <trkpt lat="43.94444" lon="1.8367">
        <ele>232.4</ele>
        <time>2021-09-26T09:22:17Z</time>
      </trkpt>
      <trkpt lat="43.94445" lon="1.83674">
        <ele>232.4</ele>
        <time>2021-09-26T09:22:18Z</time>
      </trkpt>
      <trkpt lat="43.94448" lon="1.83688">
        <ele>232.2</ele>
        <time>2021-09-26T09:22:23Z</time>
      </trkpt>
      <trkpt lat="43.94449" lon="1.83692">
        <ele>232</ele>
        <time>2021-09-26T09:22:24Z</time>
      </trkpt>
      <trkpt lat="43.94454" lon="1.83718">
        <ele>231</ele>
        <time>2021-09-26T09:22:32Z</time>
      </trkpt>
      <trkpt lat="43.94455" lon="1.83721">
        <ele>230.8</ele>
        <time>2021-09-26T09:22:33Z</time>
      </trkpt>
      <trkpt lat="43.94455" lon="1.83724">
        <ele>230.6</ele>
        <time>2021-09-26T09:22:34Z</time>
      </trkpt>
      <trkpt lat="43.9446" lon="1.83745">
        <ele>229.8</ele>
        <time>2021-09-26T09:22:40Z</time>
      </trkpt>
      <trkpt lat="43.9446" lon="1.83748">
        <ele>229.6</ele>
        <time>2021-09-26T09:22:41Z</time>
      </trkpt>
      <trkpt lat="43.94466" lon="1.83777">
        <ele>229</ele>
        <time>2021-09-26T09:22:47Z</time>
      </trkpt>
      <trkpt lat="43.94468" lon="1.83787">
        <ele>228.8</ele>
        <time>2021-09-26T09:22:49Z</time>
      </trkpt>
      <trkpt lat="43.94469" lon="1.83792">
        <ele>228.6</ele>
        <time>2021-09-26T09:22:50Z</time>
      </trkpt>
      <trkpt lat="43.94473" lon="1.83818">
        <ele>227.6</ele>
        <time>2021-09-26T09:22:55Z</time>
      </trkpt>
      <trkpt lat="43.94482" lon="1.83864">
        <ele>226.4</ele>
        <time>2021-09-26T09:23:04Z</time>
      </trkpt>
      <trkpt lat="43.94482" lon="1.83869">
        <ele>226.4</ele>
        <time>2021-09-26T09:23:05Z</time>
      </trkpt>
      <trkpt lat="43.94483" lon="1.83873">
        <ele>226.2</ele>
        <time>2021-09-26T09:23:06Z</time>
      </trkpt>
      <trkpt lat="43.94484" lon="1.83878">
        <ele>226.2</ele>
        <time>2021-09-26T09:23:07Z</time>
      </trkpt>
      <trkpt lat="43.94485" lon="1.83882">
        <ele>226.2</ele>
        <time>2021-09-26T09:23:08Z</time>
      </trkpt>
      <trkpt lat="43.94486" lon="1.83887">
        <ele>226.2</ele>
        <time>2021-09-26T09:23:09Z</time>
      </trkpt>
      <trkpt lat="43.94486" lon="1.83891">
        <ele>226.2</ele>
        <time>2021-09-26T09:23:10Z</time>
      </trkpt>
      <trkpt lat="43.94487" lon="1.83896">
        <ele>226.2</ele>
        <time>2021-09-26T09:23:11Z</time>
      </trkpt>
      <trkpt lat="43.94487" lon="1.839">
        <ele>226.2</ele>
        <time>2021-09-26T09:23:12Z</time>
      </trkpt>
      <trkpt lat="43.94488" lon="1.83904">
        <ele>226.2</ele>
        <time>2021-09-26T09:23:13Z</time>
      </trkpt>
      <trkpt lat="43.9449" lon="1.83908">
        <ele>226.2</ele>
        <time>2021-09-26T09:23:14Z</time>
      </trkpt>
      <trkpt lat="43.94491" lon="1.83912">
        <ele>226.2</ele>
        <time>2021-09-26T09:23:15Z</time>
      </trkpt>
      <trkpt lat="43.94492" lon="1.83916">
        <ele>226.2</ele>
        <time>2021-09-26T09:23:16Z</time>
      </trkpt>
      <trkpt lat="43.94493" lon="1.8392">
        <ele>226</ele>
        <time>2021-09-26T09:23:17Z</time>
      </trkpt>
      <trkpt lat="43.94494" lon="1.83923">
        <ele>226</ele>
        <time>2021-09-26T09:23:18Z</time>
      </trkpt>
      <trkpt lat="43.94496" lon="1.83927">
        <ele>226</ele>
        <time>2021-09-26T09:23:19Z</time>
      </trkpt>
      <trkpt lat="43.94508" lon="1.83948">
        <ele>225.8</ele>
        <time>2021-09-26T09:23:25Z</time>
      </trkpt>
      <trkpt lat="43.94527" lon="1.83974">
        <ele>225.4</ele>
        <time>2021-09-26T09:23:33Z</time>
      </trkpt>
      <trkpt lat="43.94546" lon="1.83993">
        <ele>225</ele>
        <time>2021-09-26T09:23:40Z</time>
      </trkpt>
      <trkpt lat="43.94549" lon="1.83996">
        <ele>224.8</ele>
        <time>2021-09-26T09:23:41Z</time>
      </trkpt>
      <trkpt lat="43.94551" lon="1.83999">
        <ele>224.8</ele>
        <time>2021-09-26T09:23:42Z</time>
      </trkpt>
      <trkpt lat="43.94554" lon="1.84001">
        <ele>224.6</ele>
        <time>2021-09-26T09:23:43Z</time>
      </trkpt>
      <trkpt lat="43.94556" lon="1.84003">
        <ele>224.6</ele>
        <time>2021-09-26T09:23:44Z</time>
      </trkpt>
      <trkpt lat="43.94559" lon="1.84006">
        <ele>224.6</ele>
        <time>2021-09-26T09:23:45Z</time>
      </trkpt>
      <trkpt lat="43.94573" lon="1.84021">
        <ele>224.2</ele>
        <time>2021-09-26T09:23:50Z</time>
      </trkpt>
      <trkpt lat="43.94575" lon="1.84024">
        <ele>224</ele>
        <time>2021-09-26T09:23:51Z</time>
      </trkpt>
      <trkpt lat="43.94588" lon="1.84037">
        <ele>223.8</ele>
        <time>2021-09-26T09:23:56Z</time>
      </trkpt>
      <trkpt lat="43.94591" lon="1.8404">
        <ele>223.8</ele>
        <time>2021-09-26T09:23:57Z</time>
      </trkpt>
      <trkpt lat="43.94593" lon="1.84043">
        <ele>223.8</ele>
        <time>2021-09-26T09:23:58Z</time>
      </trkpt>
      <trkpt lat="43.94595" lon="1.84046">
        <ele>223.8</ele>
        <time>2021-09-26T09:23:59Z</time>
      </trkpt>
      <trkpt lat="43.94598" lon="1.84049">
        <ele>223.8</ele>
        <time>2021-09-26T09:24:00Z</time>
      </trkpt>
      <trkpt lat="43.94627" lon="1.84081">
        <ele>223.6</ele>
        <time>2021-09-26T09:24:11Z</time>
      </trkpt>
      <trkpt lat="43.9465" lon="1.84107">
        <ele>223.8</ele>
        <time>2021-09-26T09:24:19Z</time>
      </trkpt>
      <trkpt lat="43.94671" lon="1.84128">
        <ele>223.4</ele>
        <time>2021-09-26T09:24:26Z</time>
      </trkpt>
      <trkpt lat="43.94674" lon="1.8413">
        <ele>223.4</ele>
        <time>2021-09-26T09:24:27Z</time>
      </trkpt>
      <trkpt lat="43.94677" lon="1.84133">
        <ele>223.4</ele>
        <time>2021-09-26T09:24:28Z</time>
      </trkpt>
      <trkpt lat="43.9468" lon="1.84136">
        <ele>223.6</ele>
        <time>2021-09-26T09:24:29Z</time>
      </trkpt>
      <trkpt lat="43.94683" lon="1.84138">
        <ele>223.6</ele>
        <time>2021-09-26T09:24:30Z</time>
      </trkpt>
      <trkpt lat="43.9469" lon="1.84142">
        <ele>223.4</ele>
        <time>2021-09-26T09:24:32Z</time>
      </trkpt>
      <trkpt lat="43.94694" lon="1.84143">
        <ele>223.4</ele>
        <time>2021-09-26T09:24:33Z</time>
      </trkpt>
      <trkpt lat="43.94727" lon="1.84151">
        <ele>223.4</ele>
        <time>2021-09-26T09:24:42Z</time>
      </trkpt>
      <trkpt lat="43.9475" lon="1.8416">
        <ele>223.2</ele>
        <time>2021-09-26T09:24:48Z</time>
      </trkpt>
      <trkpt lat="43.9477" lon="1.84177">
        <ele>223.6</ele>
        <time>2021-09-26T09:24:54Z</time>
      </trkpt>
      <trkpt lat="43.94772" lon="1.8418">
        <ele>223.6</ele>
        <time>2021-09-26T09:24:55Z</time>
      </trkpt>
      <trkpt lat="43.94775" lon="1.84183">
        <ele>223.6</ele>
        <time>2021-09-26T09:24:56Z</time>
      </trkpt>
      <trkpt lat="43.94778" lon="1.84186">
        <ele>223.6</ele>
        <time>2021-09-26T09:24:57Z</time>
      </trkpt>
      <trkpt lat="43.9478" lon="1.84189">
        <ele>223.6</ele>
        <time>2021-09-26T09:24:58Z</time>
      </trkpt>
      <trkpt lat="43.94783" lon="1.84192">
        <ele>223.6</ele>
        <time>2021-09-26T09:24:59Z</time>
      </trkpt>
      <trkpt lat="43.94786" lon="1.84195">
        <ele>223.6</ele>
        <time>2021-09-26T09:25:00Z</time>
      </trkpt>
      <trkpt lat="43.94788" lon="1.84198">
        <ele>223.8</ele>
        <time>2021-09-26T09:25:01Z</time>
      </trkpt>
      <trkpt lat="43.94791" lon="1.84201">
        <ele>223.8</ele>
        <time>2021-09-26T09:25:02Z</time>
      </trkpt>
      <trkpt lat="43.94793" lon="1.84203">
        <ele>223.8</ele>
        <time>2021-09-26T09:25:03Z</time>
      </trkpt>
      <trkpt lat="43.94796" lon="1.84206">
        <ele>223.8</ele>
        <time>2021-09-26T09:25:04Z</time>
      </trkpt>
      <trkpt lat="43.94798" lon="1.84209">
        <ele>223.8</ele>
        <time>2021-09-26T09:25:05Z</time>
      </trkpt>
      <trkpt lat="43.948" lon="1.84212">
        <ele>223.8</ele>
        <time>2021-09-26T09:25:06Z</time>
      </trkpt>
      <trkpt lat="43.94803" lon="1.84215">
        <ele>224</ele>
        <time>2021-09-26T09:25:07Z</time>
      </trkpt>
      <trkpt lat="43.94806" lon="1.84217">
        <ele>224</ele>
        <time>2021-09-26T09:25:08Z</time>
      </trkpt>
      <trkpt lat="43.94808" lon="1.8422">
        <ele>224</ele>
        <time>2021-09-26T09:25:09Z</time>
      </trkpt>
      <trkpt lat="43.94816" lon="1.84229">
        <ele>224.4</ele>
        <time>2021-09-26T09:25:12Z</time>
      </trkpt>
      <trkpt lat="43.9483" lon="1.84245">
        <ele>224.8</ele>
        <time>2021-09-26T09:25:17Z</time>
      </trkpt>
      <trkpt lat="43.94849" lon="1.84267">
        <ele>225</ele>
        <time>2021-09-26T09:25:24Z</time>
      </trkpt>
      <trkpt lat="43.94864" lon="1.84284">
        <ele>225.2</ele>
        <time>2021-09-26T09:25:30Z</time>
      </trkpt>
      <trkpt lat="43.94866" lon="1.84287">
        <ele>225.2</ele>
        <time>2021-09-26T09:25:31Z</time>
      </trkpt>
      <trkpt lat="43.94869" lon="1.8429">
        <ele>225.2</ele>
        <time>2021-09-26T09:25:32Z</time>
      </trkpt>
      <trkpt lat="43.94871" lon="1.84292">
        <ele>225.4</ele>
        <time>2021-09-26T09:25:33Z</time>
      </trkpt>
      <trkpt lat="43.94873" lon="1.84295">
        <ele>225.4</ele>
        <time>2021-09-26T09:25:34Z</time>
      </trkpt>
      <trkpt lat="43.94875" lon="1.84298">
        <ele>225.4</ele>
        <time>2021-09-26T09:25:35Z</time>
      </trkpt>
      <trkpt lat="43.94878" lon="1.84301">
        <ele>225.4</ele>
        <time>2021-09-26T09:25:36Z</time>
      </trkpt>
      <trkpt lat="43.9488" lon="1.84304">
        <ele>225.4</ele>
        <time>2021-09-26T09:25:37Z</time>
      </trkpt>
      <trkpt lat="43.94891" lon="1.84317">
        <ele>225.8</ele>
        <time>2021-09-26T09:25:41Z</time>
      </trkpt>
      <trkpt lat="43.949" lon="1.84331">
        <ele>226</ele>
        <time>2021-09-26T09:25:46Z</time>
      </trkpt>
      <trkpt lat="43.94901" lon="1.84335">
        <ele>226</ele>
        <time>2021-09-26T09:25:47Z</time>
      </trkpt>
      <trkpt lat="43.94901" lon="1.84339">
        <ele>226.2</ele>
        <time>2021-09-26T09:25:48Z</time>
      </trkpt>
      <trkpt lat="43.94901" lon="1.84343">
        <ele>226.2</ele>
        <time>2021-09-26T09:25:49Z</time>
      </trkpt>
      <trkpt lat="43.949" lon="1.84346">
        <ele>226</ele>
        <time>2021-09-26T09:25:50Z</time>
      </trkpt>
      <trkpt lat="43.94899" lon="1.8435">
        <ele>226.2</ele>
        <time>2021-09-26T09:25:51Z</time>
      </trkpt>
      <trkpt lat="43.94898" lon="1.84354">
        <ele>226.2</ele>
        <time>2021-09-26T09:25:52Z</time>
      </trkpt>
      <trkpt lat="43.94896" lon="1.84357">
        <ele>226.2</ele>
        <time>2021-09-26T09:25:53Z</time>
      </trkpt>
      <trkpt lat="43.94889" lon="1.84389">
        <ele>226.2</ele>
        <time>2021-09-26T09:26:00Z</time>
      </trkpt>
      <trkpt lat="43.9489" lon="1.84431">
        <ele>226.2</ele>
        <time>2021-09-26T09:26:08Z</time>
      </trkpt>
      <trkpt lat="43.94893" lon="1.84467">
        <ele>226</ele>
        <time>2021-09-26T09:26:15Z</time>
      </trkpt>
      <trkpt lat="43.94894" lon="1.84483">
        <ele>226</ele>
        <time>2021-09-26T09:26:18Z</time>
      </trkpt>
      <trkpt lat="43.94895" lon="1.84487">
        <ele>226</ele>
        <time>2021-09-26T09:26:19Z</time>
      </trkpt>
      <trkpt lat="43.94895" lon="1.84493">
        <ele>226</ele>
        <time>2021-09-26T09:26:20Z</time>
      </trkpt>
      <trkpt lat="43.94896" lon="1.84503">
        <ele>226</ele>
        <time>2021-09-26T09:26:22Z</time>
      </trkpt>
      <trkpt lat="43.94897" lon="1.84513">
        <ele>226</ele>
        <time>2021-09-26T09:26:24Z</time>
      </trkpt>
      <trkpt lat="43.94899" lon="1.84527">
        <ele>226.2</ele>
        <time>2021-09-26T09:26:27Z</time>
      </trkpt>
      <trkpt lat="43.94899" lon="1.84531">
        <ele>226.2</ele>
        <time>2021-09-26T09:26:28Z</time>
      </trkpt>
      <trkpt lat="43.949" lon="1.84535">
        <ele>226.2</ele>
        <time>2021-09-26T09:26:29Z</time>
      </trkpt>
      <trkpt lat="43.949" lon="1.84539">
        <ele>226.2</ele>
        <time>2021-09-26T09:26:30Z</time>
      </trkpt>
      <trkpt lat="43.949" lon="1.84543">
        <ele>226.4</ele>
        <time>2021-09-26T09:26:31Z</time>
      </trkpt>
      <trkpt lat="43.94901" lon="1.84547">
        <ele>226.4</ele>
        <time>2021-09-26T09:26:32Z</time>
      </trkpt>
      <trkpt lat="43.94901" lon="1.84551">
        <ele>226.4</ele>
        <time>2021-09-26T09:26:33Z</time>
      </trkpt>
      <trkpt lat="43.94902" lon="1.84555">
        <ele>226.6</ele>
        <time>2021-09-26T09:26:34Z</time>
      </trkpt>
      <trkpt lat="43.94902" lon="1.84559">
        <ele>226.6</ele>
        <time>2021-09-26T09:26:35Z</time>
      </trkpt>
      <trkpt lat="43.94903" lon="1.84563">
        <ele>226.8</ele>
        <time>2021-09-26T09:26:36Z</time>
      </trkpt>
      <trkpt lat="43.94903" lon="1.84567">
        <ele>226.8</ele>
        <time>2021-09-26T09:26:37Z</time>
      </trkpt>
      <trkpt lat="43.94904" lon="1.8457">
        <ele>227</ele>
        <time>2021-09-26T09:26:38Z</time>
      </trkpt>
      <trkpt lat="43.94904" lon="1.84574">
        <ele>227</ele>
        <time>2021-09-26T09:26:39Z</time>
      </trkpt>
      <trkpt lat="43.94904" lon="1.84578">
        <ele>227.2</ele>
        <time>2021-09-26T09:26:40Z</time>
      </trkpt>
      <trkpt lat="43.94905" lon="1.84586">
        <ele>227.6</ele>
        <time>2021-09-26T09:26:42Z</time>
      </trkpt>
      <trkpt lat="43.94903" lon="1.84609">
        <ele>228.2</ele>
        <time>2021-09-26T09:26:48Z</time>
      </trkpt>
      <trkpt lat="43.94897" lon="1.84623">
        <ele>228.6</ele>
        <time>2021-09-26T09:26:52Z</time>
      </trkpt>
      <trkpt lat="43.94896" lon="1.84626">
        <ele>228.8</ele>
        <time>2021-09-26T09:26:53Z</time>
      </trkpt>
      <trkpt lat="43.94894" lon="1.84629">
        <ele>229</ele>
        <time>2021-09-26T09:26:54Z</time>
      </trkpt>
      <trkpt lat="43.94892" lon="1.84632">
        <ele>229</ele>
        <time>2021-09-26T09:26:55Z</time>
      </trkpt>
      <trkpt lat="43.94888" lon="1.84638">
        <ele>229.4</ele>
        <time>2021-09-26T09:26:57Z</time>
      </trkpt>
      <trkpt lat="43.94886" lon="1.8464">
        <ele>229.4</ele>
        <time>2021-09-26T09:26:58Z</time>
      </trkpt>
      <trkpt lat="43.94884" lon="1.84643">
        <ele>229.8</ele>
        <time>2021-09-26T09:26:59Z</time>
      </trkpt>
      <trkpt lat="43.94882" lon="1.84646">
        <ele>229.8</ele>
        <time>2021-09-26T09:27:00Z</time>
      </trkpt>
      <trkpt lat="43.9488" lon="1.84649">
        <ele>230</ele>
        <time>2021-09-26T09:27:01Z</time>
      </trkpt>
      <trkpt lat="43.94877" lon="1.84651">
        <ele>230</ele>
        <time>2021-09-26T09:27:02Z</time>
      </trkpt>
      <trkpt lat="43.94875" lon="1.84653">
        <ele>230.2</ele>
        <time>2021-09-26T09:27:03Z</time>
      </trkpt>
      <trkpt lat="43.94873" lon="1.84656">
        <ele>230.2</ele>
        <time>2021-09-26T09:27:04Z</time>
      </trkpt>
      <trkpt lat="43.9487" lon="1.84658">
        <ele>230.4</ele>
        <time>2021-09-26T09:27:05Z</time>
      </trkpt>
      <trkpt lat="43.94868" lon="1.8466">
        <ele>230.6</ele>
        <time>2021-09-26T09:27:06Z</time>
      </trkpt>
      <trkpt lat="43.94865" lon="1.84662">
        <ele>230.6</ele>
        <time>2021-09-26T09:27:07Z</time>
      </trkpt>
      <trkpt lat="43.94863" lon="1.84664">
        <ele>230.8</ele>
        <time>2021-09-26T09:27:08Z</time>
      </trkpt>
      <trkpt lat="43.9486" lon="1.84666">
        <ele>230.8</ele>
        <time>2021-09-26T09:27:09Z</time>
      </trkpt>
      <trkpt lat="43.94858" lon="1.84668">
        <ele>231</ele>
        <time>2021-09-26T09:27:10Z</time>
      </trkpt>
      <trkpt lat="43.94856" lon="1.8467">
        <ele>231</ele>
        <time>2021-09-26T09:27:11Z</time>
      </trkpt>
      <trkpt lat="43.94854" lon="1.84672">
        <ele>231.2</ele>
        <time>2021-09-26T09:27:12Z</time>
      </trkpt>
      <trkpt lat="43.94851" lon="1.84673">
        <ele>231.2</ele>
        <time>2021-09-26T09:27:13Z</time>
      </trkpt>
      <trkpt lat="43.94849" lon="1.84676">
        <ele>231.4</ele>
        <time>2021-09-26T09:27:14Z</time>
      </trkpt>
      <trkpt lat="43.94846" lon="1.84678">
        <ele>231.4</ele>
        <time>2021-09-26T09:27:15Z</time>
      </trkpt>
      <trkpt lat="43.94844" lon="1.8468">
        <ele>231.4</ele>
        <time>2021-09-26T09:27:16Z</time>
      </trkpt>
      <trkpt lat="43.94842" lon="1.84682">
        <ele>231.6</ele>
        <time>2021-09-26T09:27:17Z</time>
      </trkpt>
      <trkpt lat="43.94839" lon="1.84684">
        <ele>231.6</ele>
        <time>2021-09-26T09:27:18Z</time>
      </trkpt>
      <trkpt lat="43.94837" lon="1.84686">
        <ele>231.8</ele>
        <time>2021-09-26T09:27:19Z</time>
      </trkpt>
      <trkpt lat="43.94834" lon="1.84688">
        <ele>232</ele>
        <time>2021-09-26T09:27:20Z</time>
      </trkpt>
      <trkpt lat="43.94832" lon="1.8469">
        <ele>232</ele>
        <time>2021-09-26T09:27:21Z</time>
      </trkpt>
      <trkpt lat="43.94829" lon="1.84693">
        <ele>232.2</ele>
        <time>2021-09-26T09:27:22Z</time>
      </trkpt>
      <trkpt lat="43.94826" lon="1.84695">
        <ele>232.2</ele>
        <time>2021-09-26T09:27:23Z</time>
      </trkpt>
      <trkpt lat="43.94824" lon="1.84697">
        <ele>232.4</ele>
        <time>2021-09-26T09:27:24Z</time>
      </trkpt>
      <trkpt lat="43.94821" lon="1.84699">
        <ele>232.4</ele>
        <time>2021-09-26T09:27:25Z</time>
      </trkpt>
      <trkpt lat="43.94818" lon="1.84702">
        <ele>232.4</ele>
        <time>2021-09-26T09:27:26Z</time>
      </trkpt>
      <trkpt lat="43.94816" lon="1.84704">
        <ele>232.4</ele>
        <time>2021-09-26T09:27:27Z</time>
      </trkpt>
      <trkpt lat="43.94813" lon="1.84706">
        <ele>232.6</ele>
        <time>2021-09-26T09:27:28Z</time>
      </trkpt>
      <trkpt lat="43.9481" lon="1.84708">
        <ele>232.6</ele>
        <time>2021-09-26T09:27:29Z</time>
      </trkpt>
      <trkpt lat="43.94808" lon="1.84711">
        <ele>232.6</ele>
        <time>2021-09-26T09:27:30Z</time>
      </trkpt>
      <trkpt lat="43.94805" lon="1.84713">
        <ele>232.6</ele>
        <time>2021-09-26T09:27:31Z</time>
      </trkpt>
      <trkpt lat="43.94802" lon="1.84716">
        <ele>232.6</ele>
        <time>2021-09-26T09:27:32Z</time>
      </trkpt>
      <trkpt lat="43.94799" lon="1.84719">
        <ele>232.8</ele>
        <time>2021-09-26T09:27:33Z</time>
      </trkpt>
      <trkpt lat="43.94794" lon="1.84724">
        <ele>232.8</ele>
        <time>2021-09-26T09:27:35Z</time>
      </trkpt>
      <trkpt lat="43.94771" lon="1.84747">
        <ele>233.4</ele>
        <time>2021-09-26T09:27:44Z</time>
      </trkpt>
      <trkpt lat="43.94755" lon="1.84769">
        <ele>233.6</ele>
        <time>2021-09-26T09:27:51Z</time>
      </trkpt>
      <trkpt lat="43.94749" lon="1.84779">
        <ele>234</ele>
        <time>2021-09-26T09:27:54Z</time>
      </trkpt>
      <trkpt lat="43.94745" lon="1.84786">
        <ele>234</ele>
        <time>2021-09-26T09:27:56Z</time>
      </trkpt>
      <trkpt lat="43.94742" lon="1.8479">
        <ele>234</ele>
        <time>2021-09-26T09:27:57Z</time>
      </trkpt>
      <trkpt lat="43.94735" lon="1.84804">
        <ele>234</ele>
        <time>2021-09-26T09:28:01Z</time>
      </trkpt>
      <trkpt lat="43.94716" lon="1.84849">
        <ele>234.2</ele>
        <time>2021-09-26T09:28:12Z</time>
      </trkpt>
      <trkpt lat="43.94707" lon="1.84884">
        <ele>234.4</ele>
        <time>2021-09-26T09:28:20Z</time>
      </trkpt>
      <trkpt lat="43.94705" lon="1.84893">
        <ele>234.6</ele>
        <time>2021-09-26T09:28:22Z</time>
      </trkpt>
      <trkpt lat="43.94704" lon="1.84897">
        <ele>234.6</ele>
        <time>2021-09-26T09:28:23Z</time>
      </trkpt>
      <trkpt lat="43.94703" lon="1.84901">
        <ele>234.8</ele>
        <time>2021-09-26T09:28:24Z</time>
      </trkpt>
      <trkpt lat="43.94702" lon="1.84906">
        <ele>234.8</ele>
        <time>2021-09-26T09:28:25Z</time>
      </trkpt>
      <trkpt lat="43.94702" lon="1.8491">
        <ele>234.8</ele>
        <time>2021-09-26T09:28:26Z</time>
      </trkpt>
      <trkpt lat="43.94701" lon="1.84914">
        <ele>234.8</ele>
        <time>2021-09-26T09:28:27Z</time>
      </trkpt>
      <trkpt lat="43.947" lon="1.84918">
        <ele>234.8</ele>
        <time>2021-09-26T09:28:28Z</time>
      </trkpt>
      <trkpt lat="43.947" lon="1.84923">
        <ele>235</ele>
        <time>2021-09-26T09:28:29Z</time>
      </trkpt>
      <trkpt lat="43.94698" lon="1.84932">
        <ele>235.2</ele>
        <time>2021-09-26T09:28:31Z</time>
      </trkpt>
      <trkpt lat="43.94698" lon="1.84941">
        <ele>235.2</ele>
        <time>2021-09-26T09:28:33Z</time>
      </trkpt>
      <trkpt lat="43.94697" lon="1.84945">
        <ele>235.2</ele>
        <time>2021-09-26T09:28:34Z</time>
      </trkpt>
      <trkpt lat="43.94696" lon="1.84959">
        <ele>235.4</ele>
        <time>2021-09-26T09:28:37Z</time>
      </trkpt>
      <trkpt lat="43.94696" lon="1.84963">
        <ele>235.6</ele>
        <time>2021-09-26T09:28:38Z</time>
      </trkpt>
      <trkpt lat="43.94692" lon="1.85003">
        <ele>236</ele>
        <time>2021-09-26T09:28:47Z</time>
      </trkpt>
      <trkpt lat="43.94691" lon="1.85012">
        <ele>236</ele>
        <time>2021-09-26T09:28:49Z</time>
      </trkpt>
      <trkpt lat="43.94687" lon="1.85046">
        <ele>236.2</ele>
        <time>2021-09-26T09:28:57Z</time>
      </trkpt>
      <trkpt lat="43.9468" lon="1.85085">
        <ele>236</ele>
        <time>2021-09-26T09:29:05Z</time>
      </trkpt>
      <trkpt lat="43.94675" lon="1.85115">
        <ele>235.6</ele>
        <time>2021-09-26T09:29:10Z</time>
      </trkpt>
      <trkpt lat="43.94675" lon="1.85121">
        <ele>235.6</ele>
        <time>2021-09-26T09:29:11Z</time>
      </trkpt>
      <trkpt lat="43.94676" lon="1.85127">
        <ele>235.6</ele>
        <time>2021-09-26T09:29:12Z</time>
      </trkpt>
      <trkpt lat="43.94678" lon="1.85132">
        <ele>235.4</ele>
        <time>2021-09-26T09:29:13Z</time>
      </trkpt>
      <trkpt lat="43.9468" lon="1.85137">
        <ele>235.4</ele>
        <time>2021-09-26T09:29:14Z</time>
      </trkpt>
      <trkpt lat="43.94682" lon="1.85142">
        <ele>235.2</ele>
        <time>2021-09-26T09:29:15Z</time>
      </trkpt>
      <trkpt lat="43.94684" lon="1.85146">
        <ele>235.2</ele>
        <time>2021-09-26T09:29:16Z</time>
      </trkpt>
      <trkpt lat="43.94686" lon="1.85149">
        <ele>235.2</ele>
        <time>2021-09-26T09:29:17Z</time>
      </trkpt>
      <trkpt lat="43.94687" lon="1.85153">
        <ele>235.2</ele>
        <time>2021-09-26T09:29:18Z</time>
      </trkpt>
      <trkpt lat="43.94689" lon="1.85157">
        <ele>235</ele>
        <time>2021-09-26T09:29:19Z</time>
      </trkpt>
      <trkpt lat="43.94691" lon="1.8516">
        <ele>235</ele>
        <time>2021-09-26T09:29:20Z</time>
      </trkpt>
      <trkpt lat="43.94693" lon="1.85164">
        <ele>235.2</ele>
        <time>2021-09-26T09:29:21Z</time>
      </trkpt>
      <trkpt lat="43.94694" lon="1.85167">
        <ele>235.2</ele>
        <time>2021-09-26T09:29:22Z</time>
      </trkpt>
      <trkpt lat="43.94696" lon="1.85171">
        <ele>235.4</ele>
        <time>2021-09-26T09:29:23Z</time>
      </trkpt>
      <trkpt lat="43.94697" lon="1.85175">
        <ele>235.4</ele>
        <time>2021-09-26T09:29:24Z</time>
      </trkpt>
      <trkpt lat="43.94699" lon="1.85178">
        <ele>235.6</ele>
        <time>2021-09-26T09:29:25Z</time>
      </trkpt>
      <trkpt lat="43.947" lon="1.85182">
        <ele>235.8</ele>
        <time>2021-09-26T09:29:26Z</time>
      </trkpt>
      <trkpt lat="43.94702" lon="1.85185">
        <ele>235.8</ele>
        <time>2021-09-26T09:29:27Z</time>
      </trkpt>
      <trkpt lat="43.94703" lon="1.85189">
        <ele>236</ele>
        <time>2021-09-26T09:29:28Z</time>
      </trkpt>
      <trkpt lat="43.94705" lon="1.85193">
        <ele>236</ele>
        <time>2021-09-26T09:29:29Z</time>
      </trkpt>
      <trkpt lat="43.94706" lon="1.85196">
        <ele>236.2</ele>
        <time>2021-09-26T09:29:30Z</time>
      </trkpt>
      <trkpt lat="43.94708" lon="1.852">
        <ele>236.4</ele>
        <time>2021-09-26T09:29:31Z</time>
      </trkpt>
      <trkpt lat="43.94709" lon="1.85203">
        <ele>236.6</ele>
        <time>2021-09-26T09:29:32Z</time>
      </trkpt>
      <trkpt lat="43.94711" lon="1.85206">
        <ele>236.6</ele>
        <time>2021-09-26T09:29:33Z</time>
      </trkpt>
      <trkpt lat="43.94712" lon="1.8521">
        <ele>236.8</ele>
        <time>2021-09-26T09:29:34Z</time>
      </trkpt>
      <trkpt lat="43.94714" lon="1.85213">
        <ele>236.8</ele>
        <time>2021-09-26T09:29:35Z</time>
      </trkpt>
      <trkpt lat="43.94715" lon="1.85216">
        <ele>236.8</ele>
        <time>2021-09-26T09:29:36Z</time>
      </trkpt>
      <trkpt lat="43.94717" lon="1.8522">
        <ele>236.8</ele>
        <time>2021-09-26T09:29:37Z</time>
      </trkpt>
      <trkpt lat="43.94718" lon="1.85223">
        <ele>237</ele>
        <time>2021-09-26T09:29:38Z</time>
      </trkpt>
      <trkpt lat="43.94729" lon="1.85252">
        <ele>237.6</ele>
        <time>2021-09-26T09:29:46Z</time>
      </trkpt>
      <trkpt lat="43.9473" lon="1.85255">
        <ele>237.8</ele>
        <time>2021-09-26T09:29:47Z</time>
      </trkpt>
      <trkpt lat="43.9474" lon="1.85297">
        <ele>238.6</ele>
        <time>2021-09-26T09:29:57Z</time>
      </trkpt>
      <trkpt lat="43.94742" lon="1.85309">
        <ele>238.8</ele>
        <time>2021-09-26T09:30:00Z</time>
      </trkpt>
      <trkpt lat="43.94744" lon="1.85321">
        <ele>239</ele>
        <time>2021-09-26T09:30:03Z</time>
      </trkpt>
      <trkpt lat="43.94745" lon="1.85325">
        <ele>239</ele>
        <time>2021-09-26T09:30:04Z</time>
      </trkpt>
      <trkpt lat="43.94746" lon="1.8533">
        <ele>239.2</ele>
        <time>2021-09-26T09:30:05Z</time>
      </trkpt>
      <trkpt lat="43.94747" lon="1.85334">
        <ele>239.2</ele>
        <time>2021-09-26T09:30:06Z</time>
      </trkpt>
      <trkpt lat="43.9475" lon="1.85366">
        <ele>239.6</ele>
        <time>2021-09-26T09:30:13Z</time>
      </trkpt>
      <trkpt lat="43.94751" lon="1.85375">
        <ele>239.8</ele>
        <time>2021-09-26T09:30:15Z</time>
      </trkpt>
      <trkpt lat="43.9475" lon="1.85408">
        <ele>240.6</ele>
        <time>2021-09-26T09:30:22Z</time>
      </trkpt>
      <trkpt lat="43.94749" lon="1.85418">
        <ele>240.8</ele>
        <time>2021-09-26T09:30:24Z</time>
      </trkpt>
      <trkpt lat="43.94748" lon="1.8543">
        <ele>241</ele>
        <time>2021-09-26T09:30:27Z</time>
      </trkpt>
      <trkpt lat="43.94747" lon="1.85439">
        <ele>241.2</ele>
        <time>2021-09-26T09:30:29Z</time>
      </trkpt>
      <trkpt lat="43.94746" lon="1.85442">
        <ele>241.2</ele>
        <time>2021-09-26T09:30:30Z</time>
      </trkpt>
      <trkpt lat="43.94746" lon="1.85447">
        <ele>241.2</ele>
        <time>2021-09-26T09:30:31Z</time>
      </trkpt>
      <trkpt lat="43.94745" lon="1.8545">
        <ele>241.4</ele>
        <time>2021-09-26T09:30:32Z</time>
      </trkpt>
      <trkpt lat="43.94745" lon="1.85454">
        <ele>241.6</ele>
        <time>2021-09-26T09:30:33Z</time>
      </trkpt>
      <trkpt lat="43.94744" lon="1.85457">
        <ele>241.8</ele>
        <time>2021-09-26T09:30:34Z</time>
      </trkpt>
      <trkpt lat="43.94743" lon="1.85461">
        <ele>241.8</ele>
        <time>2021-09-26T09:30:35Z</time>
      </trkpt>
      <trkpt lat="43.94743" lon="1.85465">
        <ele>242</ele>
        <time>2021-09-26T09:30:36Z</time>
      </trkpt>
      <trkpt lat="43.94742" lon="1.85468">
        <ele>242</ele>
        <time>2021-09-26T09:30:37Z</time>
      </trkpt>
      <trkpt lat="43.94742" lon="1.85472">
        <ele>242.2</ele>
        <time>2021-09-26T09:30:38Z</time>
      </trkpt>
      <trkpt lat="43.94741" lon="1.85475">
        <ele>242.2</ele>
        <time>2021-09-26T09:30:39Z</time>
      </trkpt>
      <trkpt lat="43.94741" lon="1.85478">
        <ele>242.6</ele>
        <time>2021-09-26T09:30:40Z</time>
      </trkpt>
      <trkpt lat="43.9474" lon="1.85481">
        <ele>242.6</ele>
        <time>2021-09-26T09:30:41Z</time>
      </trkpt>
      <trkpt lat="43.94739" lon="1.85485">
        <ele>242.8</ele>
        <time>2021-09-26T09:30:42Z</time>
      </trkpt>
      <trkpt lat="43.94739" lon="1.85488">
        <ele>243</ele>
        <time>2021-09-26T09:30:43Z</time>
      </trkpt>
      <trkpt lat="43.94738" lon="1.85491">
        <ele>243</ele>
        <time>2021-09-26T09:30:44Z</time>
      </trkpt>
      <trkpt lat="43.94738" lon="1.85495">
        <ele>243.2</ele>
        <time>2021-09-26T09:30:45Z</time>
      </trkpt>
      <trkpt lat="43.94737" lon="1.85498">
        <ele>243.2</ele>
        <time>2021-09-26T09:30:46Z</time>
      </trkpt>
      <trkpt lat="43.94737" lon="1.85501">
        <ele>243.4</ele>
        <time>2021-09-26T09:30:47Z</time>
      </trkpt>
      <trkpt lat="43.94736" lon="1.85504">
        <ele>243.4</ele>
        <time>2021-09-26T09:30:48Z</time>
      </trkpt>
      <trkpt lat="43.94735" lon="1.85507">
        <ele>243.6</ele>
        <time>2021-09-26T09:30:49Z</time>
      </trkpt>
      <trkpt lat="43.94735" lon="1.85511">
        <ele>243.6</ele>
        <time>2021-09-26T09:30:50Z</time>
      </trkpt>
      <trkpt lat="43.94734" lon="1.85514">
        <ele>243.8</ele>
        <time>2021-09-26T09:30:51Z</time>
      </trkpt>
      <trkpt lat="43.94734" lon="1.85517">
        <ele>244</ele>
        <time>2021-09-26T09:30:52Z</time>
      </trkpt>
      <trkpt lat="43.94733" lon="1.8552">
        <ele>244</ele>
        <time>2021-09-26T09:30:53Z</time>
      </trkpt>
      <trkpt lat="43.94733" lon="1.85524">
        <ele>244.2</ele>
        <time>2021-09-26T09:30:54Z</time>
      </trkpt>
      <trkpt lat="43.94732" lon="1.85527">
        <ele>244.4</ele>
        <time>2021-09-26T09:30:55Z</time>
      </trkpt>
      <trkpt lat="43.94732" lon="1.8553">
        <ele>244.6</ele>
        <time>2021-09-26T09:30:56Z</time>
      </trkpt>
      <trkpt lat="43.94731" lon="1.85534">
        <ele>244.8</ele>
        <time>2021-09-26T09:30:57Z</time>
      </trkpt>
      <trkpt lat="43.94731" lon="1.85537">
        <ele>244.8</ele>
        <time>2021-09-26T09:30:58Z</time>
      </trkpt>
      <trkpt lat="43.9473" lon="1.8554">
        <ele>245</ele>
        <time>2021-09-26T09:30:59Z</time>
      </trkpt>
      <trkpt lat="43.9473" lon="1.85543">
        <ele>245.2</ele>
        <time>2021-09-26T09:31:00Z</time>
      </trkpt>
      <trkpt lat="43.94729" lon="1.85547">
        <ele>245.6</ele>
        <time>2021-09-26T09:31:01Z</time>
      </trkpt>
      <trkpt lat="43.94729" lon="1.8555">
        <ele>245.6</ele>
        <time>2021-09-26T09:31:02Z</time>
      </trkpt>
      <trkpt lat="43.94728" lon="1.85553">
        <ele>246</ele>
        <time>2021-09-26T09:31:03Z</time>
      </trkpt>
      <trkpt lat="43.94728" lon="1.85556">
        <ele>246</ele>
        <time>2021-09-26T09:31:04Z</time>
      </trkpt>
      <trkpt lat="43.94727" lon="1.8556">
        <ele>246.4</ele>
        <time>2021-09-26T09:31:05Z</time>
      </trkpt>
      <trkpt lat="43.94727" lon="1.85563">
        <ele>246.6</ele>
        <time>2021-09-26T09:31:06Z</time>
      </trkpt>
      <trkpt lat="43.94726" lon="1.85566">
        <ele>246.8</ele>
        <time>2021-09-26T09:31:07Z</time>
      </trkpt>
      <trkpt lat="43.94726" lon="1.85569">
        <ele>246.8</ele>
        <time>2021-09-26T09:31:08Z</time>
      </trkpt>
      <trkpt lat="43.94725" lon="1.85573">
        <ele>247.2</ele>
        <time>2021-09-26T09:31:09Z</time>
      </trkpt>
      <trkpt lat="43.94725" lon="1.85576">
        <ele>247.4</ele>
        <time>2021-09-26T09:31:10Z</time>
      </trkpt>
      <trkpt lat="43.94724" lon="1.85579">
        <ele>247.6</ele>
        <time>2021-09-26T09:31:11Z</time>
      </trkpt>
      <trkpt lat="43.94724" lon="1.85582">
        <ele>247.8</ele>
        <time>2021-09-26T09:31:12Z</time>
      </trkpt>
      <trkpt lat="43.94724" lon="1.85586">
        <ele>248</ele>
        <time>2021-09-26T09:31:13Z</time>
      </trkpt>
      <trkpt lat="43.94724" lon="1.85589">
        <ele>248.2</ele>
        <time>2021-09-26T09:31:14Z</time>
      </trkpt>
      <trkpt lat="43.94724" lon="1.85592">
        <ele>248.4</ele>
        <time>2021-09-26T09:31:15Z</time>
      </trkpt>
      <trkpt lat="43.94723" lon="1.85596">
        <ele>248.6</ele>
        <time>2021-09-26T09:31:16Z</time>
      </trkpt>
      <trkpt lat="43.94723" lon="1.85599">
        <ele>248.8</ele>
        <time>2021-09-26T09:31:17Z</time>
      </trkpt>
      <trkpt lat="43.94723" lon="1.85602">
        <ele>249</ele>
        <time>2021-09-26T09:31:18Z</time>
      </trkpt>
      <trkpt lat="43.94723" lon="1.85606">
        <ele>249.2</ele>
        <time>2021-09-26T09:31:19Z</time>
      </trkpt>
      <trkpt lat="43.94723" lon="1.85609">
        <ele>249.4</ele>
        <time>2021-09-26T09:31:20Z</time>
      </trkpt>
      <trkpt lat="43.94722" lon="1.85612">
        <ele>249.6</ele>
        <time>2021-09-26T09:31:21Z</time>
      </trkpt>
      <trkpt lat="43.94722" lon="1.85616">
        <ele>249.6</ele>
        <time>2021-09-26T09:31:22Z</time>
      </trkpt>
      <trkpt lat="43.94722" lon="1.85619">
        <ele>249.8</ele>
        <time>2021-09-26T09:31:23Z</time>
      </trkpt>
      <trkpt lat="43.94722" lon="1.85622">
        <ele>250</ele>
        <time>2021-09-26T09:31:24Z</time>
      </trkpt>
      <trkpt lat="43.94722" lon="1.85626">
        <ele>250.2</ele>
        <time>2021-09-26T09:31:25Z</time>
      </trkpt>
      <trkpt lat="43.94722" lon="1.85629">
        <ele>250.4</ele>
        <time>2021-09-26T09:31:26Z</time>
      </trkpt>
      <trkpt lat="43.94722" lon="1.85633">
        <ele>250.6</ele>
        <time>2021-09-26T09:31:27Z</time>
      </trkpt>
      <trkpt lat="43.94722" lon="1.85636">
        <ele>250.6</ele>
        <time>2021-09-26T09:31:28Z</time>
      </trkpt>
      <trkpt lat="43.94722" lon="1.85639">
        <ele>250.8</ele>
        <time>2021-09-26T09:31:29Z</time>
      </trkpt>
      <trkpt lat="43.94722" lon="1.85643">
        <ele>251</ele>
        <time>2021-09-26T09:31:30Z</time>
      </trkpt>
      <trkpt lat="43.94723" lon="1.85646">
        <ele>251</ele>
        <time>2021-09-26T09:31:31Z</time>
      </trkpt>
      <trkpt lat="43.94723" lon="1.85649">
        <ele>251.2</ele>
        <time>2021-09-26T09:31:32Z</time>
      </trkpt>
      <trkpt lat="43.94723" lon="1.85653">
        <ele>251.4</ele>
        <time>2021-09-26T09:31:33Z</time>
      </trkpt>
      <trkpt lat="43.94723" lon="1.85657">
        <ele>251.4</ele>
        <time>2021-09-26T09:31:34Z</time>
      </trkpt>
      <trkpt lat="43.94723" lon="1.8566">
        <ele>251.6</ele>
        <time>2021-09-26T09:31:35Z</time>
      </trkpt>
      <trkpt lat="43.94723" lon="1.85665">
        <ele>251.6</ele>
        <time>2021-09-26T09:31:36Z</time>
      </trkpt>
      <trkpt lat="43.94723" lon="1.85669">
        <ele>251.6</ele>
        <time>2021-09-26T09:31:37Z</time>
      </trkpt>
      <trkpt lat="43.94723" lon="1.85673">
        <ele>251.6</ele>
        <time>2021-09-26T09:31:38Z</time>
      </trkpt>
      <trkpt lat="43.94723" lon="1.85677">
        <ele>251.6</ele>
        <time>2021-09-26T09:31:39Z</time>
      </trkpt>
      <trkpt lat="43.94723" lon="1.85682">
        <ele>251.6</ele>
        <time>2021-09-26T09:31:40Z</time>
      </trkpt>
      <trkpt lat="43.94723" lon="1.85686">
        <ele>251.6</ele>
        <time>2021-09-26T09:31:41Z</time>
      </trkpt>
      <trkpt lat="43.94723" lon="1.85692">
        <ele>251.6</ele>
        <time>2021-09-26T09:31:42Z</time>
      </trkpt>
      <trkpt lat="43.94723" lon="1.85698">
        <ele>251.6</ele>
        <time>2021-09-26T09:31:43Z</time>
      </trkpt>
      <trkpt lat="43.94724" lon="1.85702">
        <ele>251.6</ele>
        <time>2021-09-26T09:31:44Z</time>
      </trkpt>
      <trkpt lat="43.94724" lon="1.85707">
        <ele>251.6</ele>
        <time>2021-09-26T09:31:45Z</time>
      </trkpt>
      <trkpt lat="43.94724" lon="1.85714">
        <ele>251.6</ele>
        <time>2021-09-26T09:31:46Z</time>
      </trkpt>
      <trkpt lat="43.94724" lon="1.85718">
        <ele>251.4</ele>
        <time>2021-09-26T09:31:47Z</time>
      </trkpt>
      <trkpt lat="43.94723" lon="1.85724">
        <ele>251.4</ele>
        <time>2021-09-26T09:31:48Z</time>
      </trkpt>
      <trkpt lat="43.94723" lon="1.85729">
        <ele>251.4</ele>
        <time>2021-09-26T09:31:49Z</time>
      </trkpt>
      <trkpt lat="43.94721" lon="1.85753">
        <ele>251.2</ele>
        <time>2021-09-26T09:31:53Z</time>
      </trkpt>
      <trkpt lat="43.94716" lon="1.85784">
        <ele>250.8</ele>
        <time>2021-09-26T09:31:58Z</time>
      </trkpt>
      <trkpt lat="43.94712" lon="1.858">
        <ele>250.6</ele>
        <time>2021-09-26T09:32:01Z</time>
      </trkpt>
      <trkpt lat="43.94708" lon="1.85811">
        <ele>250.4</ele>
        <time>2021-09-26T09:32:03Z</time>
      </trkpt>
      <trkpt lat="43.94703" lon="1.85822">
        <ele>250.2</ele>
        <time>2021-09-26T09:32:05Z</time>
      </trkpt>
      <trkpt lat="43.94697" lon="1.85831">
        <ele>250.2</ele>
        <time>2021-09-26T09:32:07Z</time>
      </trkpt>
      <trkpt lat="43.94669" lon="1.85856">
        <ele>249.2</ele>
        <time>2021-09-26T09:32:14Z</time>
      </trkpt>
      <trkpt lat="43.9465" lon="1.85871">
        <ele>248.6</ele>
        <time>2021-09-26T09:32:19Z</time>
      </trkpt>
      <trkpt lat="43.94645" lon="1.85875">
        <ele>248.4</ele>
        <time>2021-09-26T09:32:20Z</time>
      </trkpt>
      <trkpt lat="43.94642" lon="1.85877">
        <ele>248.4</ele>
        <time>2021-09-26T09:32:21Z</time>
      </trkpt>
      <trkpt lat="43.94638" lon="1.8588">
        <ele>248.4</ele>
        <time>2021-09-26T09:32:22Z</time>
      </trkpt>
      <trkpt lat="43.94635" lon="1.85883">
        <ele>248.2</ele>
        <time>2021-09-26T09:32:23Z</time>
      </trkpt>
      <trkpt lat="43.9463" lon="1.85886">
        <ele>248.2</ele>
        <time>2021-09-26T09:32:24Z</time>
      </trkpt>
      <trkpt lat="43.94607" lon="1.85905">
        <ele>248</ele>
        <time>2021-09-26T09:32:30Z</time>
      </trkpt>
      <trkpt lat="43.94597" lon="1.85912">
        <ele>248.2</ele>
        <time>2021-09-26T09:32:33Z</time>
      </trkpt>
      <trkpt lat="43.9459" lon="1.85918">
        <ele>248.4</ele>
        <time>2021-09-26T09:32:35Z</time>
      </trkpt>
      <trkpt lat="43.94587" lon="1.85921">
        <ele>248.4</ele>
        <time>2021-09-26T09:32:36Z</time>
      </trkpt>
      <trkpt lat="43.94585" lon="1.85923">
        <ele>248.2</ele>
        <time>2021-09-26T09:32:37Z</time>
      </trkpt>
      <trkpt lat="43.94582" lon="1.85926">
        <ele>248.4</ele>
        <time>2021-09-26T09:32:38Z</time>
      </trkpt>
      <trkpt lat="43.94579" lon="1.85928">
        <ele>248.4</ele>
        <time>2021-09-26T09:32:39Z</time>
      </trkpt>
      <trkpt lat="43.94574" lon="1.85933">
        <ele>248.8</ele>
        <time>2021-09-26T09:32:41Z</time>
      </trkpt>
      <trkpt lat="43.94571" lon="1.85935">
        <ele>249</ele>
        <time>2021-09-26T09:32:42Z</time>
      </trkpt>
      <trkpt lat="43.94567" lon="1.85939">
        <ele>249.2</ele>
        <time>2021-09-26T09:32:43Z</time>
      </trkpt>
      <trkpt lat="43.94565" lon="1.85941">
        <ele>249.4</ele>
        <time>2021-09-26T09:32:44Z</time>
      </trkpt>
      <trkpt lat="43.94562" lon="1.85944">
        <ele>249.4</ele>
        <time>2021-09-26T09:32:45Z</time>
      </trkpt>
      <trkpt lat="43.94559" lon="1.85947">
        <ele>249.8</ele>
        <time>2021-09-26T09:32:46Z</time>
      </trkpt>
      <trkpt lat="43.94554" lon="1.85952">
        <ele>250.2</ele>
        <time>2021-09-26T09:32:48Z</time>
      </trkpt>
      <trkpt lat="43.94551" lon="1.85955">
        <ele>250.2</ele>
        <time>2021-09-26T09:32:49Z</time>
      </trkpt>
      <trkpt lat="43.94541" lon="1.85968">
        <ele>251.2</ele>
        <time>2021-09-26T09:32:53Z</time>
      </trkpt>
      <trkpt lat="43.94536" lon="1.85972">
        <ele>251.6</ele>
        <time>2021-09-26T09:32:55Z</time>
      </trkpt>
      <trkpt lat="43.94534" lon="1.85975">
        <ele>252</ele>
        <time>2021-09-26T09:32:56Z</time>
      </trkpt>
      <trkpt lat="43.94531" lon="1.85978">
        <ele>252.2</ele>
        <time>2021-09-26T09:32:57Z</time>
      </trkpt>
      <trkpt lat="43.94528" lon="1.85981">
        <ele>252.4</ele>
        <time>2021-09-26T09:32:58Z</time>
      </trkpt>
      <trkpt lat="43.94527" lon="1.85984">
        <ele>252.6</ele>
        <time>2021-09-26T09:32:59Z</time>
      </trkpt>
      <trkpt lat="43.94525" lon="1.85987">
        <ele>252.6</ele>
        <time>2021-09-26T09:33:00Z</time>
      </trkpt>
      <trkpt lat="43.94524" lon="1.85992">
        <ele>252.8</ele>
        <time>2021-09-26T09:33:01Z</time>
      </trkpt>
      <trkpt lat="43.94525" lon="1.85996">
        <ele>252.8</ele>
        <time>2021-09-26T09:33:02Z</time>
      </trkpt>
      <trkpt lat="43.94526" lon="1.86">
        <ele>253.4</ele>
        <time>2021-09-26T09:33:03Z</time>
      </trkpt>
      <trkpt lat="43.94528" lon="1.86002">
        <ele>253.6</ele>
        <time>2021-09-26T09:33:04Z</time>
      </trkpt>
      <trkpt lat="43.9453" lon="1.86004">
        <ele>253.8</ele>
        <time>2021-09-26T09:33:05Z</time>
      </trkpt>
      <trkpt lat="43.94533" lon="1.86006">
        <ele>253.8</ele>
        <time>2021-09-26T09:33:06Z</time>
      </trkpt>
      <trkpt lat="43.94535" lon="1.86008">
        <ele>254</ele>
        <time>2021-09-26T09:33:07Z</time>
      </trkpt>
      <trkpt lat="43.94538" lon="1.8601">
        <ele>254.2</ele>
        <time>2021-09-26T09:33:08Z</time>
      </trkpt>
      <trkpt lat="43.9454" lon="1.86011">
        <ele>254.6</ele>
        <time>2021-09-26T09:33:09Z</time>
      </trkpt>
      <trkpt lat="43.94542" lon="1.86013">
        <ele>254.8</ele>
        <time>2021-09-26T09:33:10Z</time>
      </trkpt>
      <trkpt lat="43.94545" lon="1.86014">
        <ele>254.8</ele>
        <time>2021-09-26T09:33:11Z</time>
      </trkpt>
      <trkpt lat="43.94548" lon="1.86016">
        <ele>255</ele>
        <time>2021-09-26T09:33:12Z</time>
      </trkpt>
      <trkpt lat="43.9455" lon="1.86017">
        <ele>255</ele>
        <time>2021-09-26T09:33:13Z</time>
      </trkpt>
      <trkpt lat="43.94552" lon="1.86019">
        <ele>255</ele>
        <time>2021-09-26T09:33:14Z</time>
      </trkpt>
      <trkpt lat="43.94555" lon="1.86021">
        <ele>255.2</ele>
        <time>2021-09-26T09:33:15Z</time>
      </trkpt>
      <trkpt lat="43.94558" lon="1.86023">
        <ele>255.4</ele>
        <time>2021-09-26T09:33:16Z</time>
      </trkpt>
      <trkpt lat="43.94561" lon="1.86024">
        <ele>255.6</ele>
        <time>2021-09-26T09:33:17Z</time>
      </trkpt>
      <trkpt lat="43.94563" lon="1.86026">
        <ele>255.8</ele>
        <time>2021-09-26T09:33:18Z</time>
      </trkpt>
      <trkpt lat="43.94566" lon="1.86028">
        <ele>256</ele>
        <time>2021-09-26T09:33:19Z</time>
      </trkpt>
      <trkpt lat="43.94569" lon="1.8603">
        <ele>256.2</ele>
        <time>2021-09-26T09:33:20Z</time>
      </trkpt>
      <trkpt lat="43.94571" lon="1.86031">
        <ele>256.2</ele>
        <time>2021-09-26T09:33:21Z</time>
      </trkpt>
      <trkpt lat="43.94574" lon="1.86032">
        <ele>256.2</ele>
        <time>2021-09-26T09:33:22Z</time>
      </trkpt>
      <trkpt lat="43.94576" lon="1.86033">
        <ele>256.4</ele>
        <time>2021-09-26T09:33:23Z</time>
      </trkpt>
      <trkpt lat="43.94579" lon="1.86035">
        <ele>256.4</ele>
        <time>2021-09-26T09:33:24Z</time>
      </trkpt>
      <trkpt lat="43.94582" lon="1.86036">
        <ele>256.6</ele>
        <time>2021-09-26T09:33:25Z</time>
      </trkpt>
      <trkpt lat="43.94584" lon="1.86038">
        <ele>256.6</ele>
        <time>2021-09-26T09:33:26Z</time>
      </trkpt>
      <trkpt lat="43.94586" lon="1.86039">
        <ele>256.8</ele>
        <time>2021-09-26T09:33:27Z</time>
      </trkpt>
      <trkpt lat="43.94589" lon="1.8604">
        <ele>257</ele>
        <time>2021-09-26T09:33:28Z</time>
      </trkpt>
      <trkpt lat="43.94592" lon="1.86042">
        <ele>257.2</ele>
        <time>2021-09-26T09:33:29Z</time>
      </trkpt>
      <trkpt lat="43.94594" lon="1.86043">
        <ele>257.4</ele>
        <time>2021-09-26T09:33:30Z</time>
      </trkpt>
      <trkpt lat="43.94597" lon="1.86045">
        <ele>257.6</ele>
        <time>2021-09-26T09:33:31Z</time>
      </trkpt>
      <trkpt lat="43.94599" lon="1.86046">
        <ele>258</ele>
        <time>2021-09-26T09:33:32Z</time>
      </trkpt>
      <trkpt lat="43.94602" lon="1.86047">
        <ele>258.2</ele>
        <time>2021-09-26T09:33:33Z</time>
      </trkpt>
      <trkpt lat="43.94605" lon="1.86049">
        <ele>258.2</ele>
        <time>2021-09-26T09:33:34Z</time>
      </trkpt>
      <trkpt lat="43.94608" lon="1.8605">
        <ele>258.4</ele>
        <time>2021-09-26T09:33:35Z</time>
      </trkpt>
      <trkpt lat="43.9461" lon="1.86051">
        <ele>258.6</ele>
        <time>2021-09-26T09:33:36Z</time>
      </trkpt>
      <trkpt lat="43.94613" lon="1.86052">
        <ele>258.6</ele>
        <time>2021-09-26T09:33:37Z</time>
      </trkpt>
      <trkpt lat="43.94617" lon="1.86053">
        <ele>258.8</ele>
        <time>2021-09-26T09:33:38Z</time>
      </trkpt>
      <trkpt lat="43.9462" lon="1.86054">
        <ele>259</ele>
        <time>2021-09-26T09:33:39Z</time>
      </trkpt>
      <trkpt lat="43.94624" lon="1.86055">
        <ele>259.2</ele>
        <time>2021-09-26T09:33:40Z</time>
      </trkpt>
      <trkpt lat="43.94626" lon="1.86055">
        <ele>259.2</ele>
        <time>2021-09-26T09:33:41Z</time>
      </trkpt>
      <trkpt lat="43.9463" lon="1.86056">
        <ele>259.4</ele>
        <time>2021-09-26T09:33:42Z</time>
      </trkpt>
      <trkpt lat="43.94633" lon="1.86057">
        <ele>259.4</ele>
        <time>2021-09-26T09:33:43Z</time>
      </trkpt>
      <trkpt lat="43.94636" lon="1.86057">
        <ele>259.6</ele>
        <time>2021-09-26T09:33:44Z</time>
      </trkpt>
      <trkpt lat="43.94639" lon="1.86058">
        <ele>259.6</ele>
        <time>2021-09-26T09:33:45Z</time>
      </trkpt>
      <trkpt lat="43.94643" lon="1.86059">
        <ele>259.6</ele>
        <time>2021-09-26T09:33:46Z</time>
      </trkpt>
      <trkpt lat="43.94647" lon="1.86059">
        <ele>259.6</ele>
        <time>2021-09-26T09:33:47Z</time>
      </trkpt>
      <trkpt lat="43.9465" lon="1.8606">
        <ele>259.6</ele>
        <time>2021-09-26T09:33:48Z</time>
      </trkpt>
      <trkpt lat="43.94654" lon="1.86061">
        <ele>259.6</ele>
        <time>2021-09-26T09:33:49Z</time>
      </trkpt>
      <trkpt lat="43.94657" lon="1.86061">
        <ele>259.6</ele>
        <time>2021-09-26T09:33:50Z</time>
      </trkpt>
      <trkpt lat="43.94661" lon="1.86062">
        <ele>259.6</ele>
        <time>2021-09-26T09:33:51Z</time>
      </trkpt>
      <trkpt lat="43.94666" lon="1.86062">
        <ele>259.6</ele>
        <time>2021-09-26T09:33:52Z</time>
      </trkpt>
      <trkpt lat="43.9467" lon="1.86063">
        <ele>259.4</ele>
        <time>2021-09-26T09:33:53Z</time>
      </trkpt>
      <trkpt lat="43.94674" lon="1.86063">
        <ele>259.4</ele>
        <time>2021-09-26T09:33:54Z</time>
      </trkpt>
      <trkpt lat="43.94677" lon="1.86064">
        <ele>259.4</ele>
        <time>2021-09-26T09:33:55Z</time>
      </trkpt>
      <trkpt lat="43.94682" lon="1.86065">
        <ele>259.4</ele>
        <time>2021-09-26T09:33:56Z</time>
      </trkpt>
      <trkpt lat="43.94693" lon="1.86066">
        <ele>259.4</ele>
        <time>2021-09-26T09:33:59Z</time>
      </trkpt>
      <trkpt lat="43.94709" lon="1.86069">
        <ele>259.4</ele>
        <time>2021-09-26T09:34:03Z</time>
      </trkpt>
      <trkpt lat="43.94712" lon="1.8607">
        <ele>259.2</ele>
        <time>2021-09-26T09:34:04Z</time>
      </trkpt>
      <trkpt lat="43.94716" lon="1.8607">
        <ele>259.2</ele>
        <time>2021-09-26T09:34:05Z</time>
      </trkpt>
      <trkpt lat="43.94719" lon="1.86071">
        <ele>259.2</ele>
        <time>2021-09-26T09:34:06Z</time>
      </trkpt>
      <trkpt lat="43.94722" lon="1.86071">
        <ele>259.2</ele>
        <time>2021-09-26T09:34:07Z</time>
      </trkpt>
      <trkpt lat="43.94725" lon="1.86072">
        <ele>259.2</ele>
        <time>2021-09-26T09:34:08Z</time>
      </trkpt>
      <trkpt lat="43.94728" lon="1.86073">
        <ele>259.2</ele>
        <time>2021-09-26T09:34:09Z</time>
      </trkpt>
      <trkpt lat="43.94732" lon="1.86074">
        <ele>259.2</ele>
        <time>2021-09-26T09:34:10Z</time>
      </trkpt>
      <trkpt lat="43.94735" lon="1.86076">
        <ele>259</ele>
        <time>2021-09-26T09:34:11Z</time>
      </trkpt>
      <trkpt lat="43.94738" lon="1.86077">
        <ele>259.2</ele>
        <time>2021-09-26T09:34:12Z</time>
      </trkpt>
      <trkpt lat="43.9474" lon="1.86078">
        <ele>259.2</ele>
        <time>2021-09-26T09:34:13Z</time>
      </trkpt>
      <trkpt lat="43.94763" lon="1.86094">
        <ele>259</ele>
        <time>2021-09-26T09:34:20Z</time>
      </trkpt>
      <trkpt lat="43.94775" lon="1.86104">
        <ele>258.8</ele>
        <time>2021-09-26T09:34:24Z</time>
      </trkpt>
      <trkpt lat="43.94782" lon="1.8611">
        <ele>258.8</ele>
        <time>2021-09-26T09:34:26Z</time>
      </trkpt>
      <trkpt lat="43.94795" lon="1.86122">
        <ele>258.6</ele>
        <time>2021-09-26T09:34:29Z</time>
      </trkpt>
      <trkpt lat="43.94811" lon="1.86135">
        <ele>258.2</ele>
        <time>2021-09-26T09:34:33Z</time>
      </trkpt>
      <trkpt lat="43.94831" lon="1.86152">
        <ele>257.8</ele>
        <time>2021-09-26T09:34:38Z</time>
      </trkpt>
      <trkpt lat="43.94841" lon="1.86162">
        <ele>257.6</ele>
        <time>2021-09-26T09:34:40Z</time>
      </trkpt>
      <trkpt lat="43.94855" lon="1.86177">
        <ele>257.4</ele>
        <time>2021-09-26T09:34:43Z</time>
      </trkpt>
      <trkpt lat="43.94863" lon="1.86186">
        <ele>257.2</ele>
        <time>2021-09-26T09:34:45Z</time>
      </trkpt>
      <trkpt lat="43.94869" lon="1.86192">
        <ele>257</ele>
        <time>2021-09-26T09:34:46Z</time>
      </trkpt>
      <trkpt lat="43.94874" lon="1.86197">
        <ele>257</ele>
        <time>2021-09-26T09:34:47Z</time>
      </trkpt>
      <trkpt lat="43.94893" lon="1.86229">
        <ele>256</ele>
        <time>2021-09-26T09:34:52Z</time>
      </trkpt>
      <trkpt lat="43.94896" lon="1.86236">
        <ele>255.8</ele>
        <time>2021-09-26T09:34:53Z</time>
      </trkpt>
      <trkpt lat="43.94902" lon="1.86252">
        <ele>255.4</ele>
        <time>2021-09-26T09:34:55Z</time>
      </trkpt>
      <trkpt lat="43.94908" lon="1.86268">
        <ele>255</ele>
        <time>2021-09-26T09:34:57Z</time>
      </trkpt>
      <trkpt lat="43.94914" lon="1.86284">
        <ele>254.6</ele>
        <time>2021-09-26T09:34:59Z</time>
      </trkpt>
      <trkpt lat="43.94927" lon="1.86318">
        <ele>253.8</ele>
        <time>2021-09-26T09:35:03Z</time>
      </trkpt>
      <trkpt lat="43.94947" lon="1.86366">
        <ele>253</ele>
        <time>2021-09-26T09:35:08Z</time>
      </trkpt>
      <trkpt lat="43.94958" lon="1.86394">
        <ele>252.6</ele>
        <time>2021-09-26T09:35:11Z</time>
      </trkpt>
      <trkpt lat="43.94978" lon="1.8644">
        <ele>252.4</ele>
        <time>2021-09-26T09:35:16Z</time>
      </trkpt>
      <trkpt lat="43.94985" lon="1.86456">
        <ele>252.4</ele>
        <time>2021-09-26T09:35:18Z</time>
      </trkpt>
      <trkpt lat="43.9499" lon="1.86464">
        <ele>252.6</ele>
        <time>2021-09-26T09:35:19Z</time>
      </trkpt>
      <trkpt lat="43.94995" lon="1.86471">
        <ele>252.6</ele>
        <time>2021-09-26T09:35:20Z</time>
      </trkpt>
      <trkpt lat="43.94999" lon="1.86476">
        <ele>252.6</ele>
        <time>2021-09-26T09:35:21Z</time>
      </trkpt>
      <trkpt lat="43.95004" lon="1.86483">
        <ele>252.6</ele>
        <time>2021-09-26T09:35:22Z</time>
      </trkpt>
      <trkpt lat="43.9501" lon="1.8649">
        <ele>252.6</ele>
        <time>2021-09-26T09:35:23Z</time>
      </trkpt>
      <trkpt lat="43.95015" lon="1.86496">
        <ele>252.6</ele>
        <time>2021-09-26T09:35:24Z</time>
      </trkpt>
      <trkpt lat="43.95021" lon="1.86501">
        <ele>253</ele>
        <time>2021-09-26T09:35:25Z</time>
      </trkpt>
      <trkpt lat="43.95025" lon="1.86505">
        <ele>253.4</ele>
        <time>2021-09-26T09:35:26Z</time>
      </trkpt>
      <trkpt lat="43.95032" lon="1.86511">
        <ele>253.4</ele>
        <time>2021-09-26T09:35:27Z</time>
      </trkpt>
      <trkpt lat="43.95037" lon="1.86515">
        <ele>253.6</ele>
        <time>2021-09-26T09:35:28Z</time>
      </trkpt>
      <trkpt lat="43.95042" lon="1.86521">
        <ele>253.6</ele>
        <time>2021-09-26T09:35:29Z</time>
      </trkpt>
      <trkpt lat="43.95046" lon="1.86524">
        <ele>253.6</ele>
        <time>2021-09-26T09:35:30Z</time>
      </trkpt>
      <trkpt lat="43.95052" lon="1.86528">
        <ele>253.8</ele>
        <time>2021-09-26T09:35:31Z</time>
      </trkpt>
      <trkpt lat="43.95058" lon="1.86533">
        <ele>254</ele>
        <time>2021-09-26T09:35:32Z</time>
      </trkpt>
      <trkpt lat="43.95063" lon="1.86538">
        <ele>254</ele>
        <time>2021-09-26T09:35:33Z</time>
      </trkpt>
      <trkpt lat="43.95067" lon="1.86542">
        <ele>254</ele>
        <time>2021-09-26T09:35:34Z</time>
      </trkpt>
      <trkpt lat="43.9507" lon="1.86546">
        <ele>254.2</ele>
        <time>2021-09-26T09:35:35Z</time>
      </trkpt>
      <trkpt lat="43.95076" lon="1.8655">
        <ele>254.2</ele>
        <time>2021-09-26T09:35:36Z</time>
      </trkpt>
      <trkpt lat="43.95079" lon="1.86554">
        <ele>254.2</ele>
        <time>2021-09-26T09:35:37Z</time>
      </trkpt>
      <trkpt lat="43.95087" lon="1.86561">
        <ele>254.4</ele>
        <time>2021-09-26T09:35:39Z</time>
      </trkpt>
      <trkpt lat="43.95091" lon="1.86565">
        <ele>254.4</ele>
        <time>2021-09-26T09:35:40Z</time>
      </trkpt>
      <trkpt lat="43.95096" lon="1.8657">
        <ele>254.8</ele>
        <time>2021-09-26T09:35:41Z</time>
      </trkpt>
      <trkpt lat="43.95099" lon="1.86574">
        <ele>255.2</ele>
        <time>2021-09-26T09:35:42Z</time>
      </trkpt>
      <trkpt lat="43.95103" lon="1.86578">
        <ele>255.2</ele>
        <time>2021-09-26T09:35:43Z</time>
      </trkpt>
      <trkpt lat="43.95106" lon="1.86581">
        <ele>255.6</ele>
        <time>2021-09-26T09:35:44Z</time>
      </trkpt>
      <trkpt lat="43.95109" lon="1.86585">
        <ele>255.8</ele>
        <time>2021-09-26T09:35:45Z</time>
      </trkpt>
      <trkpt lat="43.95112" lon="1.86589">
        <ele>256.2</ele>
        <time>2021-09-26T09:35:46Z</time>
      </trkpt>
      <trkpt lat="43.95115" lon="1.86592">
        <ele>256.4</ele>
        <time>2021-09-26T09:35:47Z</time>
      </trkpt>
      <trkpt lat="43.95117" lon="1.86595">
        <ele>256.6</ele>
        <time>2021-09-26T09:35:48Z</time>
      </trkpt>
      <trkpt lat="43.95119" lon="1.86598">
        <ele>257.2</ele>
        <time>2021-09-26T09:35:49Z</time>
      </trkpt>
      <trkpt lat="43.95121" lon="1.86601">
        <ele>257.4</ele>
        <time>2021-09-26T09:35:50Z</time>
      </trkpt>
      <trkpt lat="43.95123" lon="1.86604">
        <ele>257.6</ele>
        <time>2021-09-26T09:35:51Z</time>
      </trkpt>
      <trkpt lat="43.95125" lon="1.86606">
        <ele>257.8</ele>
        <time>2021-09-26T09:35:52Z</time>
      </trkpt>
      <trkpt lat="43.95126" lon="1.86608">
        <ele>258.4</ele>
        <time>2021-09-26T09:35:53Z</time>
      </trkpt>
      <trkpt lat="43.95128" lon="1.86611">
        <ele>258.6</ele>
        <time>2021-09-26T09:35:54Z</time>
      </trkpt>
      <trkpt lat="43.9513" lon="1.86613">
        <ele>258.8</ele>
        <time>2021-09-26T09:35:55Z</time>
      </trkpt>
      <trkpt lat="43.95131" lon="1.86616">
        <ele>259.2</ele>
        <time>2021-09-26T09:35:56Z</time>
      </trkpt>
      <trkpt lat="43.95133" lon="1.86618">
        <ele>259.4</ele>
        <time>2021-09-26T09:35:57Z</time>
      </trkpt>
      <trkpt lat="43.95133" lon="1.8662">
        <ele>259.8</ele>
        <time>2021-09-26T09:35:58Z</time>
      </trkpt>
      <trkpt lat="43.95135" lon="1.86622">
        <ele>260</ele>
        <time>2021-09-26T09:35:59Z</time>
      </trkpt>
      <trkpt lat="43.95136" lon="1.86624">
        <ele>260.2</ele>
        <time>2021-09-26T09:36:00Z</time>
      </trkpt>
      <trkpt lat="43.95137" lon="1.86625">
        <ele>260.2</ele>
        <time>2021-09-26T09:36:01Z</time>
      </trkpt>
      <trkpt lat="43.95139" lon="1.86627">
        <ele>260.4</ele>
        <time>2021-09-26T09:36:02Z</time>
      </trkpt>
      <trkpt lat="43.9514" lon="1.86629">
        <ele>260.6</ele>
        <time>2021-09-26T09:36:03Z</time>
      </trkpt>
      <trkpt lat="43.95141" lon="1.86631">
        <ele>261</ele>
        <time>2021-09-26T09:36:04Z</time>
      </trkpt>
      <trkpt lat="43.95143" lon="1.86633">
        <ele>261</ele>
        <time>2021-09-26T09:36:05Z</time>
      </trkpt>
      <trkpt lat="43.95144" lon="1.86635">
        <ele>261.2</ele>
        <time>2021-09-26T09:36:06Z</time>
      </trkpt>
      <trkpt lat="43.95145" lon="1.86637">
        <ele>261.4</ele>
        <time>2021-09-26T09:36:07Z</time>
      </trkpt>
      <trkpt lat="43.95147" lon="1.86639">
        <ele>261.4</ele>
        <time>2021-09-26T09:36:08Z</time>
      </trkpt>
      <trkpt lat="43.95148" lon="1.86641">
        <ele>261.8</ele>
        <time>2021-09-26T09:36:09Z</time>
      </trkpt>
      <trkpt lat="43.95149" lon="1.86643">
        <ele>262</ele>
        <time>2021-09-26T09:36:10Z</time>
      </trkpt>
      <trkpt lat="43.95151" lon="1.86645">
        <ele>262.2</ele>
        <time>2021-09-26T09:36:11Z</time>
      </trkpt>
      <trkpt lat="43.95152" lon="1.86648">
        <ele>262.6</ele>
        <time>2021-09-26T09:36:12Z</time>
      </trkpt>
      <trkpt lat="43.95154" lon="1.8665">
        <ele>262.6</ele>
        <time>2021-09-26T09:36:13Z</time>
      </trkpt>
      <trkpt lat="43.95155" lon="1.86652">
        <ele>262.8</ele>
        <time>2021-09-26T09:36:14Z</time>
      </trkpt>
      <trkpt lat="43.95157" lon="1.86654">
        <ele>263</ele>
        <time>2021-09-26T09:36:15Z</time>
      </trkpt>
      <trkpt lat="43.95158" lon="1.86656">
        <ele>263.2</ele>
        <time>2021-09-26T09:36:16Z</time>
      </trkpt>
      <trkpt lat="43.95159" lon="1.86658">
        <ele>263.2</ele>
        <time>2021-09-26T09:36:17Z</time>
      </trkpt>
      <trkpt lat="43.95161" lon="1.86661">
        <ele>263.4</ele>
        <time>2021-09-26T09:36:18Z</time>
      </trkpt>
      <trkpt lat="43.95162" lon="1.86663">
        <ele>263.6</ele>
        <time>2021-09-26T09:36:19Z</time>
      </trkpt>
      <trkpt lat="43.95163" lon="1.86665">
        <ele>263.8</ele>
        <time>2021-09-26T09:36:20Z</time>
      </trkpt>
      <trkpt lat="43.95165" lon="1.86667">
        <ele>264</ele>
        <time>2021-09-26T09:36:21Z</time>
      </trkpt>
      <trkpt lat="43.95167" lon="1.8667">
        <ele>264</ele>
        <time>2021-09-26T09:36:22Z</time>
      </trkpt>
      <trkpt lat="43.95168" lon="1.86673">
        <ele>264.2</ele>
        <time>2021-09-26T09:36:23Z</time>
      </trkpt>
      <trkpt lat="43.9517" lon="1.86675">
        <ele>264.2</ele>
        <time>2021-09-26T09:36:24Z</time>
      </trkpt>
      <trkpt lat="43.95172" lon="1.86678">
        <ele>264.4</ele>
        <time>2021-09-26T09:36:25Z</time>
      </trkpt>
      <trkpt lat="43.95174" lon="1.86681">
        <ele>264.4</ele>
        <time>2021-09-26T09:36:26Z</time>
      </trkpt>
      <trkpt lat="43.95175" lon="1.86684">
        <ele>264.6</ele>
        <time>2021-09-26T09:36:27Z</time>
      </trkpt>
      <trkpt lat="43.95177" lon="1.86687">
        <ele>264.6</ele>
        <time>2021-09-26T09:36:28Z</time>
      </trkpt>
      <trkpt lat="43.95179" lon="1.8669">
        <ele>264.8</ele>
        <time>2021-09-26T09:36:29Z</time>
      </trkpt>
      <trkpt lat="43.95181" lon="1.86692">
        <ele>264.8</ele>
        <time>2021-09-26T09:36:30Z</time>
      </trkpt>
      <trkpt lat="43.95183" lon="1.86696">
        <ele>264.8</ele>
        <time>2021-09-26T09:36:31Z</time>
      </trkpt>
      <trkpt lat="43.95185" lon="1.86699">
        <ele>264.8</ele>
        <time>2021-09-26T09:36:32Z</time>
      </trkpt>
      <trkpt lat="43.95187" lon="1.86703">
        <ele>264.8</ele>
        <time>2021-09-26T09:36:33Z</time>
      </trkpt>
      <trkpt lat="43.95188" lon="1.86705">
        <ele>265</ele>
        <time>2021-09-26T09:36:34Z</time>
      </trkpt>
      <trkpt lat="43.95191" lon="1.86709">
        <ele>265.2</ele>
        <time>2021-09-26T09:36:35Z</time>
      </trkpt>
      <trkpt lat="43.95193" lon="1.86713">
        <ele>265.2</ele>
        <time>2021-09-26T09:36:36Z</time>
      </trkpt>
      <trkpt lat="43.95195" lon="1.86716">
        <ele>265.2</ele>
        <time>2021-09-26T09:36:37Z</time>
      </trkpt>
      <trkpt lat="43.95196" lon="1.86718">
        <ele>265.2</ele>
        <time>2021-09-26T09:36:38Z</time>
      </trkpt>
      <trkpt lat="43.95198" lon="1.86722">
        <ele>265.4</ele>
        <time>2021-09-26T09:36:39Z</time>
      </trkpt>
      <trkpt lat="43.95201" lon="1.86726">
        <ele>265.4</ele>
        <time>2021-09-26T09:36:40Z</time>
      </trkpt>
      <trkpt lat="43.95203" lon="1.86729">
        <ele>265.6</ele>
        <time>2021-09-26T09:36:41Z</time>
      </trkpt>
      <trkpt lat="43.95205" lon="1.86733">
        <ele>265.6</ele>
        <time>2021-09-26T09:36:42Z</time>
      </trkpt>
      <trkpt lat="43.95207" lon="1.86736">
        <ele>265.6</ele>
        <time>2021-09-26T09:36:43Z</time>
      </trkpt>
      <trkpt lat="43.9521" lon="1.8674">
        <ele>265.8</ele>
        <time>2021-09-26T09:36:44Z</time>
      </trkpt>
      <trkpt lat="43.95212" lon="1.86744">
        <ele>265.8</ele>
        <time>2021-09-26T09:36:45Z</time>
      </trkpt>
      <trkpt lat="43.95214" lon="1.86748">
        <ele>265.8</ele>
        <time>2021-09-26T09:36:46Z</time>
      </trkpt>
      <trkpt lat="43.95234" lon="1.86787">
        <ele>266.2</ele>
        <time>2021-09-26T09:36:55Z</time>
      </trkpt>
      <trkpt lat="43.95253" lon="1.86828">
        <ele>267</ele>
        <time>2021-09-26T09:37:04Z</time>
      </trkpt>
      <trkpt lat="43.95271" lon="1.86863">
        <ele>267.4</ele>
        <time>2021-09-26T09:37:12Z</time>
      </trkpt>
      <trkpt lat="43.95281" lon="1.8688">
        <ele>267.4</ele>
        <time>2021-09-26T09:37:16Z</time>
      </trkpt>
      <trkpt lat="43.95291" lon="1.86896">
        <ele>267.8</ele>
        <time>2021-09-26T09:37:20Z</time>
      </trkpt>
      <trkpt lat="43.95296" lon="1.86903">
        <ele>267.8</ele>
        <time>2021-09-26T09:37:22Z</time>
      </trkpt>
      <trkpt lat="43.95299" lon="1.86907">
        <ele>267.8</ele>
        <time>2021-09-26T09:37:23Z</time>
      </trkpt>
      <trkpt lat="43.95301" lon="1.8691">
        <ele>267.8</ele>
        <time>2021-09-26T09:37:24Z</time>
      </trkpt>
      <trkpt lat="43.95304" lon="1.86914">
        <ele>267.8</ele>
        <time>2021-09-26T09:37:25Z</time>
      </trkpt>
      <trkpt lat="43.95313" lon="1.86923">
        <ele>267.8</ele>
        <time>2021-09-26T09:37:28Z</time>
      </trkpt>
      <trkpt lat="43.9533" lon="1.86939">
        <ele>268.4</ele>
        <time>2021-09-26T09:37:34Z</time>
      </trkpt>
      <trkpt lat="43.95333" lon="1.86941">
        <ele>268.4</ele>
        <time>2021-09-26T09:37:35Z</time>
      </trkpt>
      <trkpt lat="43.95336" lon="1.86941">
        <ele>268.4</ele>
        <time>2021-09-26T09:37:36Z</time>
      </trkpt>
      <trkpt lat="43.95338" lon="1.8694">
        <ele>268.4</ele>
        <time>2021-09-26T09:37:37Z</time>
      </trkpt>
      <trkpt lat="43.95341" lon="1.86938">
        <ele>268.4</ele>
        <time>2021-09-26T09:37:38Z</time>
      </trkpt>
      <trkpt lat="43.95342" lon="1.86937">
        <ele>268.6</ele>
        <time>2021-09-26T09:37:39Z</time>
      </trkpt>
      <trkpt lat="43.95344" lon="1.86935">
        <ele>268.6</ele>
        <time>2021-09-26T09:37:40Z</time>
      </trkpt>
      <trkpt lat="43.95344" lon="1.86933">
        <ele>268.6</ele>
        <time>2021-09-26T09:37:41Z</time>
      </trkpt>
      <trkpt lat="43.95344" lon="1.86931">
        <ele>268.8</ele>
        <time>2021-09-26T09:37:42Z</time>
      </trkpt>
      <trkpt lat="43.95343" lon="1.86929">
        <ele>268.8</ele>
        <time>2021-09-26T09:37:43Z</time>
      </trkpt>
      <trkpt lat="43.95338" lon="1.86925">
        <ele>268.8</ele>
        <time>2021-09-26T09:37:46Z</time>
      </trkpt>
      <trkpt lat="43.95337" lon="1.86924">
        <ele>268.8</ele>
        <time>2021-09-26T09:37:47Z</time>
      </trkpt>
      <trkpt lat="43.95335" lon="1.86921">
        <ele>268.8</ele>
        <time>2021-09-26T09:37:48Z</time>
      </trkpt>
      <trkpt lat="43.95335" lon="1.86919">
        <ele>268.8</ele>
        <time>2021-09-26T09:37:49Z</time>
      </trkpt>
      <trkpt lat="43.95334" lon="1.86917">
        <ele>268.8</ele>
        <time>2021-09-26T09:37:50Z</time>
      </trkpt>
      <trkpt lat="43.95334" lon="1.86915">
        <ele>268.8</ele>
        <time>2021-09-26T09:37:51Z</time>
      </trkpt>
      <trkpt lat="43.95334" lon="1.86913">
        <ele>268.8</ele>
        <time>2021-09-26T09:37:52Z</time>
      </trkpt>
      <trkpt lat="43.95335" lon="1.86912">
        <ele>268.8</ele>
        <time>2021-09-26T09:37:53Z</time>
      </trkpt>
      <trkpt lat="43.95336" lon="1.86912">
        <ele>268.8</ele>
        <time>2021-09-26T09:37:54Z</time>
      </trkpt>
      <trkpt lat="43.95337" lon="1.86913">
        <ele>268.8</ele>
        <time>2021-09-26T09:37:55Z</time>
      </trkpt>
      <trkpt lat="43.95337" lon="1.86915">
        <ele>268.6</ele>
        <time>2021-09-26T09:37:56Z</time>
      </trkpt>
      <trkpt lat="43.95336" lon="1.86917">
        <ele>268.6</ele>
        <time>2021-09-26T09:37:57Z</time>
      </trkpt>
      <trkpt lat="43.95334" lon="1.86918">
        <ele>268.6</ele>
        <time>2021-09-26T09:37:58Z</time>
      </trkpt>
      <trkpt lat="43.95328" lon="1.86923">
        <ele>268.6</ele>
        <time>2021-09-26T09:38:02Z</time>
      </trkpt>
      <trkpt lat="43.95327" lon="1.86922">
        <ele>268.6</ele>
        <time>2021-09-26T09:38:03Z</time>
      </trkpt>
      <trkpt lat="43.95315" lon="1.86902">
        <ele>268.6</ele>
        <time>2021-09-26T09:38:12Z</time>
      </trkpt>
      <trkpt lat="43.95315" lon="1.86899">
        <ele>268.6</ele>
        <time>2021-09-26T09:38:13Z</time>
      </trkpt>
      <trkpt lat="43.95315" lon="1.86897">
        <ele>268.6</ele>
        <time>2021-09-26T09:38:14Z</time>
      </trkpt>
      <trkpt lat="43.95314" lon="1.86894">
        <ele>268.6</ele>
        <time>2021-09-26T09:38:16Z</time>
      </trkpt>
      <trkpt lat="43.95314" lon="1.86892">
        <ele>268.6</ele>
        <time>2021-09-26T09:38:17Z</time>
      </trkpt>
      <trkpt lat="43.95313" lon="1.8689">
        <ele>268.6</ele>
        <time>2021-09-26T09:38:18Z</time>
      </trkpt>
      <trkpt lat="43.95312" lon="1.86889">
        <ele>268.8</ele>
        <time>2021-09-26T09:38:19Z</time>
      </trkpt>
      <trkpt lat="43.95311" lon="1.86887">
        <ele>268.6</ele>
        <time>2021-09-26T09:38:20Z</time>
      </trkpt>
      <trkpt lat="43.9531" lon="1.86884">
        <ele>268.6</ele>
        <time>2021-09-26T09:38:21Z</time>
      </trkpt>
      <trkpt lat="43.9531" lon="1.8688">
        <ele>268.6</ele>
        <time>2021-09-26T09:38:22Z</time>
      </trkpt>
      <trkpt lat="43.95311" lon="1.86878">
        <ele>268.6</ele>
        <time>2021-09-26T09:38:23Z</time>
      </trkpt>
      <trkpt lat="43.95314" lon="1.86871">
        <ele>268.6</ele>
        <time>2021-09-26T09:38:25Z</time>
      </trkpt>
      <trkpt lat="43.95317" lon="1.86867">
        <ele>268.4</ele>
        <time>2021-09-26T09:38:26Z</time>
      </trkpt>
      <trkpt lat="43.95318" lon="1.86862">
        <ele>268.4</ele>
        <time>2021-09-26T09:38:27Z</time>
      </trkpt>
      <trkpt lat="43.95323" lon="1.86857">
        <ele>268.2</ele>
        <time>2021-09-26T09:38:29Z</time>
      </trkpt>
      <trkpt lat="43.95327" lon="1.86856">
        <ele>268</ele>
        <time>2021-09-26T09:38:30Z</time>
      </trkpt>
      <trkpt lat="43.95329" lon="1.86857">
        <ele>268</ele>
        <time>2021-09-26T09:38:31Z</time>
      </trkpt>
      <trkpt lat="43.9533" lon="1.86858">
        <ele>267.6</ele>
        <time>2021-09-26T09:38:32Z</time>
      </trkpt>
      <trkpt lat="43.95331" lon="1.86859">
        <ele>267.6</ele>
        <time>2021-09-26T09:38:33Z</time>
      </trkpt>
      <trkpt lat="43.95331" lon="1.86859">
        <ele>267.4</ele>
        <time>2021-09-26T09:38:34Z</time>
      </trkpt>
      <trkpt lat="43.95331" lon="1.86859">
        <ele>267.2</ele>
        <time>2021-09-26T09:38:36Z</time>
      </trkpt>
      <trkpt lat="43.95331" lon="1.86859">
        <ele>267.2</ele>
        <time>2021-09-26T09:38:52Z</time>
      </trkpt>
      <trkpt lat="43.95331" lon="1.86859">
        <ele>267.2</ele>
        <time>2021-09-26T09:38:53Z</time>
      </trkpt>
    </trkseg>
  </trk>
</gpx>